<?xml version='1.0' encoding='UTF-8'?><gpx version="1.1" creator="JPX - https://github.com/jenetics/jpx" xmlns="http://www.topografix.com/GPX/1/1"><trk><trkseg><trkpt lat="45.1295217" lon="8.475955"><ele>112.00000000000001</ele><time>2026-04-25T08:04:29.988Z</time></trkpt><trkpt lat="45.1294617" lon="8.4758533"><ele>112.0</ele><time>2026-04-25T08:04:31.989Z</time></trkpt><trkpt lat="45.1294233" lon="8.4757667"><ele>112.0</ele><time>2026-04-25T08:04:33.988Z</time></trkpt><trkpt lat="45.1294067" lon="8.4756417"><ele>112.0</ele><time>2026-04-25T08:04:35.988Z</time></trkpt><trkpt lat="45.1294233" lon="8.4755533"><ele>112.00000000000001</ele><time>2026-04-25T08:04:36.988Z</time></trkpt><trkpt lat="45.1294567" lon="8.4754683"><ele>112.0</ele><time>2026-04-25T08:04:37.988Z</time></trkpt><trkpt lat="45.1295017" lon="8.4753917"><ele>111.8</ele><time>2026-04-25T08:04:38.988Z</time></trkpt><trkpt lat="45.1295467" lon="8.4753"><ele>111.6</ele><time>2026-04-25T08:04:39.989Z</time></trkpt><trkpt lat="45.1296" lon="8.47519"><ele>111.39999999999999</ele><time>2026-04-25T08:04:40.988Z</time></trkpt><trkpt lat="45.1296783" lon="8.47509"><ele>111.19999999999999</ele><time>2026-04-25T08:04:41.989Z</time></trkpt><trkpt lat="45.1297333" lon="8.4749683"><ele>111.0</ele><time>2026-04-25T08:04:42.988Z</time></trkpt><trkpt lat="45.1298133" lon="8.47486"><ele>111.0</ele><time>2026-04-25T08:04:43.988Z</time></trkpt><trkpt lat="45.1298767" lon="8.4747233"><ele>111.0</ele><time>2026-04-25T08:04:44.988Z</time></trkpt><trkpt lat="45.1299367" lon="8.4745817"><ele>111.0</ele><time>2026-04-25T08:04:45.989Z</time></trkpt><trkpt lat="45.1300117" lon="8.4744567"><ele>111.0</ele><time>2026-04-25T08:04:46.988Z</time></trkpt><trkpt lat="45.1300867" lon="8.47431"><ele>111.0</ele><time>2026-04-25T08:04:47.988Z</time></trkpt><trkpt lat="45.1301617" lon="8.4741683"><ele>111.0</ele><time>2026-04-25T08:04:48.989Z</time></trkpt><trkpt lat="45.130235" lon="8.474015"><ele>111.0</ele><time>2026-04-25T08:04:49.988Z</time></trkpt><trkpt lat="45.13031" lon="8.4738683"><ele>111.0</ele><time>2026-04-25T08:04:50.989Z</time></trkpt><trkpt lat="45.1303733" lon="8.4737233"><ele>111.0</ele><time>2026-04-25T08:04:51.988Z</time></trkpt><trkpt lat="45.1304367" lon="8.4735983"><ele>111.0</ele><time>2026-04-25T08:04:52.989Z</time></trkpt><trkpt lat="45.130495" lon="8.4734867"><ele>111.0</ele><time>2026-04-25T08:04:53.988Z</time></trkpt><trkpt lat="45.1305467" lon="8.4733917"><ele>111.0</ele><time>2026-04-25T08:04:54.988Z</time></trkpt><trkpt lat="45.1306117" lon="8.4733383"><ele>111.0</ele><time>2026-04-25T08:04:55.988Z</time></trkpt><trkpt lat="45.130675" lon="8.473305"><ele>111.0</ele><time>2026-04-25T08:04:56.988Z</time></trkpt><trkpt lat="45.1307417" lon="8.4732633"><ele>111.0</ele><time>2026-04-25T08:04:57.988Z</time></trkpt><trkpt lat="45.13079" lon="8.4732017"><ele>111.0</ele><time>2026-04-25T08:04:58.989Z</time></trkpt><trkpt lat="45.1308333" lon="8.4731033"><ele>111.0</ele><time>2026-04-25T08:04:59.988Z</time></trkpt><trkpt lat="45.1308683" lon="8.4729867"><ele>111.0</ele><time>2026-04-25T08:05:00.988Z</time></trkpt><trkpt lat="45.1309" lon="8.4728417"><ele>111.0</ele><time>2026-04-25T08:05:01.988Z</time></trkpt><trkpt lat="45.1309333" lon="8.4726817"><ele>111.25</ele><time>2026-04-25T08:05:02.988Z</time></trkpt><trkpt lat="45.1309483" lon="8.4725067"><ele>111.5</ele><time>2026-04-25T08:05:03.989Z</time></trkpt><trkpt lat="45.13097" lon="8.4723383"><ele>111.75</ele><time>2026-04-25T08:05:04.988Z</time></trkpt><trkpt lat="45.1309933" lon="8.4721717"><ele>112.0</ele><time>2026-04-25T08:05:05.989Z</time></trkpt><trkpt lat="45.131025" lon="8.472"><ele>112.0</ele><time>2026-04-25T08:05:06.988Z</time></trkpt><trkpt lat="45.1310517" lon="8.4718267"><ele>112.0</ele><time>2026-04-25T08:05:07.989Z</time></trkpt><trkpt lat="45.1310783" lon="8.4716517"><ele>112.0</ele><time>2026-04-25T08:05:08.988Z</time></trkpt><trkpt lat="45.131105" lon="8.47148"><ele>112.0</ele><time>2026-04-25T08:05:09.988Z</time></trkpt><trkpt lat="45.13113" lon="8.4713067"><ele>112.0</ele><time>2026-04-25T08:05:10.988Z</time></trkpt><trkpt lat="45.1311567" lon="8.4711367"><ele>112.0</ele><time>2026-04-25T08:05:11.988Z</time></trkpt><trkpt lat="45.1311733" lon="8.470965"><ele>112.0</ele><time>2026-04-25T08:05:12.988Z</time></trkpt><trkpt lat="45.1312033" lon="8.4708117"><ele>112.0</ele><time>2026-04-25T08:05:13.988Z</time></trkpt><trkpt lat="45.131235" lon="8.4706417"><ele>112.0</ele><time>2026-04-25T08:05:14.989Z</time></trkpt><trkpt lat="45.1312717" lon="8.470485"><ele>111.99999999999999</ele><time>2026-04-25T08:05:15.989Z</time></trkpt><trkpt lat="45.13131" lon="8.470335"><ele>111.99999999999999</ele><time>2026-04-25T08:05:16.988Z</time></trkpt><trkpt lat="45.1313367" lon="8.4701983"><ele>112.0</ele><time>2026-04-25T08:05:17.989Z</time></trkpt><trkpt lat="45.1313717" lon="8.4700783"><ele>112.0</ele><time>2026-04-25T08:05:18.988Z</time></trkpt><trkpt lat="45.131405" lon="8.4699767"><ele>112.0</ele><time>2026-04-25T08:05:19.989Z</time></trkpt><trkpt lat="45.1314317" lon="8.4698633"><ele>111.99999999999999</ele><time>2026-04-25T08:05:20.988Z</time></trkpt><trkpt lat="45.1314533" lon="8.4697233"><ele>111.99999999999999</ele><time>2026-04-25T08:05:21.988Z</time></trkpt><trkpt lat="45.1314733" lon="8.46958"><ele>112.0</ele><time>2026-04-25T08:05:22.989Z</time></trkpt><trkpt lat="45.1314967" lon="8.4694217"><ele>112.0</ele><time>2026-04-25T08:05:23.989Z</time></trkpt><trkpt lat="45.1315117" lon="8.4692483"><ele>112.25</ele><time>2026-04-25T08:05:24.988Z</time></trkpt><trkpt lat="45.1315367" lon="8.4690733"><ele>112.5</ele><time>2026-04-25T08:05:25.988Z</time></trkpt><trkpt lat="45.1315583" lon="8.4688967"><ele>112.75</ele><time>2026-04-25T08:05:26.988Z</time></trkpt><trkpt lat="45.1315933" lon="8.4687217"><ele>113.0</ele><time>2026-04-25T08:05:27.988Z</time></trkpt><trkpt lat="45.1316183" lon="8.4685333"><ele>113.0</ele><time>2026-04-25T08:05:28.988Z</time></trkpt><trkpt lat="45.1316517" lon="8.4683433"><ele>113.0</ele><time>2026-04-25T08:05:29.988Z</time></trkpt><trkpt lat="45.1316917" lon="8.4681467"><ele>113.0</ele><time>2026-04-25T08:05:30.989Z</time></trkpt><trkpt lat="45.1317417" lon="8.4679817"><ele>113.0</ele><time>2026-04-25T08:05:31.989Z</time></trkpt><trkpt lat="45.13178" lon="8.46779"><ele>113.0</ele><time>2026-04-25T08:05:32.989Z</time></trkpt><trkpt lat="45.1318133" lon="8.4675983"><ele>113.0</ele><time>2026-04-25T08:05:33.988Z</time></trkpt><trkpt lat="45.131845" lon="8.467405"><ele>113.0</ele><time>2026-04-25T08:05:34.988Z</time></trkpt><trkpt lat="45.1318683" lon="8.4672067"><ele>113.0</ele><time>2026-04-25T08:05:35.988Z</time></trkpt><trkpt lat="45.1319033" lon="8.4670183"><ele>113.0</ele><time>2026-04-25T08:05:36.988Z</time></trkpt><trkpt lat="45.131945" lon="8.46684"><ele>113.0</ele><time>2026-04-25T08:05:37.989Z</time></trkpt><trkpt lat="45.1319933" lon="8.466655"><ele>113.0</ele><time>2026-04-25T08:05:38.989Z</time></trkpt><trkpt lat="45.1320417" lon="8.4664783"><ele>113.0</ele><time>2026-04-25T08:05:39.989Z</time></trkpt><trkpt lat="45.1320983" lon="8.4662917"><ele>112.75</ele><time>2026-04-25T08:05:40.988Z</time></trkpt><trkpt lat="45.1321633" lon="8.4661133"><ele>112.5</ele><time>2026-04-25T08:05:41.988Z</time></trkpt><trkpt lat="45.1322233" lon="8.4659417"><ele>112.25</ele><time>2026-04-25T08:05:42.988Z</time></trkpt><trkpt lat="45.1322833" lon="8.4657733"><ele>112.0</ele><time>2026-04-25T08:05:43.988Z</time></trkpt><trkpt lat="45.1323467" lon="8.4656"><ele>112.25</ele><time>2026-04-25T08:05:44.988Z</time></trkpt><trkpt lat="45.1323917" lon="8.4654133"><ele>112.5</ele><time>2026-04-25T08:05:45.988Z</time></trkpt><trkpt lat="45.132435" lon="8.4652217"><ele>112.75</ele><time>2026-04-25T08:05:46.988Z</time></trkpt><trkpt lat="45.1324667" lon="8.4650317"><ele>113.0</ele><time>2026-04-25T08:05:47.988Z</time></trkpt><trkpt lat="45.1325" lon="8.4648467"><ele>113.0</ele><time>2026-04-25T08:05:48.988Z</time></trkpt><trkpt lat="45.1325267" lon="8.46467"><ele>113.00000000000001</ele><time>2026-04-25T08:05:49.988Z</time></trkpt><trkpt lat="45.1325533" lon="8.46451"><ele>113.00000000000001</ele><time>2026-04-25T08:05:50.989Z</time></trkpt><trkpt lat="45.1325683" lon="8.4643767"><ele>113.0</ele><time>2026-04-25T08:05:51.988Z</time></trkpt><trkpt lat="45.1325883" lon="8.4642633"><ele>113.0</ele><time>2026-04-25T08:05:52.988Z</time></trkpt><trkpt lat="45.1325983" lon="8.4641417"><ele>113.25</ele><time>2026-04-25T08:05:53.988Z</time></trkpt><trkpt lat="45.13258" lon="8.4640033"><ele>113.5</ele><time>2026-04-25T08:05:54.988Z</time></trkpt><trkpt lat="45.1325517" lon="8.4638333"><ele>113.75</ele><time>2026-04-25T08:05:55.988Z</time></trkpt><trkpt lat="45.1325317" lon="8.4636483"><ele>114.0</ele><time>2026-04-25T08:05:56.988Z</time></trkpt><trkpt lat="45.1325117" lon="8.4634383"><ele>114.0</ele><time>2026-04-25T08:05:57.989Z</time></trkpt><trkpt lat="45.1325017" lon="8.4632183"><ele>114.0</ele><time>2026-04-25T08:05:58.988Z</time></trkpt><trkpt lat="45.1324833" lon="8.4630117"><ele>114.0</ele><time>2026-04-25T08:05:59.988Z</time></trkpt><trkpt lat="45.1324633" lon="8.462785"><ele>114.0</ele><time>2026-04-25T08:06:00.988Z</time></trkpt><trkpt lat="45.1324483" lon="8.4625717"><ele>114.0</ele><time>2026-04-25T08:06:01.988Z</time></trkpt><trkpt lat="45.13243" lon="8.4623567"><ele>114.0</ele><time>2026-04-25T08:06:02.988Z</time></trkpt><trkpt lat="45.132415" lon="8.4621367"><ele>114.33333333333334</ele><time>2026-04-25T08:06:03.988Z</time></trkpt><trkpt lat="45.13239" lon="8.4619017"><ele>114.66666666666667</ele><time>2026-04-25T08:06:04.989Z</time></trkpt><trkpt lat="45.1323783" lon="8.4616683"><ele>115.0</ele><time>2026-04-25T08:06:05.989Z</time></trkpt><trkpt lat="45.1323717" lon="8.4614267"><ele>114.66666666666667</ele><time>2026-04-25T08:06:06.988Z</time></trkpt><trkpt lat="45.1323867" lon="8.4611917"><ele>114.33333333333334</ele><time>2026-04-25T08:06:07.988Z</time></trkpt><trkpt lat="45.1323917" lon="8.4609517"><ele>114.0</ele><time>2026-04-25T08:06:08.989Z</time></trkpt><trkpt lat="45.13239" lon="8.4607033"><ele>113.33333333333334</ele><time>2026-04-25T08:06:09.988Z</time></trkpt><trkpt lat="45.132375" lon="8.460455"><ele>112.66666666666667</ele><time>2026-04-25T08:06:10.988Z</time></trkpt><trkpt lat="45.1323683" lon="8.4602233"><ele>112.0</ele><time>2026-04-25T08:06:11.988Z</time></trkpt><trkpt lat="45.132365" lon="8.46002"><ele>112.0</ele><time>2026-04-25T08:06:12.988Z</time></trkpt><trkpt lat="45.1323567" lon="8.4598083"><ele>112.0</ele><time>2026-04-25T08:06:13.989Z</time></trkpt><trkpt lat="45.1323417" lon="8.4596033"><ele>112.0</ele><time>2026-04-25T08:06:14.988Z</time></trkpt><trkpt lat="45.132315" lon="8.4594033"><ele>112.0</ele><time>2026-04-25T08:06:15.988Z</time></trkpt><trkpt lat="45.132295" lon="8.4592067"><ele>112.75</ele><time>2026-04-25T08:06:16.989Z</time></trkpt><trkpt lat="45.13228" lon="8.45901"><ele>113.5</ele><time>2026-04-25T08:06:17.988Z</time></trkpt><trkpt lat="45.13225" lon="8.4588"><ele>114.25</ele><time>2026-04-25T08:06:18.989Z</time></trkpt><trkpt lat="45.132205" lon="8.45862"><ele>115.0</ele><time>2026-04-25T08:06:19.988Z</time></trkpt><trkpt lat="45.132155" lon="8.4584567"><ele>115.75</ele><time>2026-04-25T08:06:20.988Z</time></trkpt><trkpt lat="45.1321017" lon="8.458285"><ele>116.5</ele><time>2026-04-25T08:06:21.988Z</time></trkpt><trkpt lat="45.13208" lon="8.4581383"><ele>117.25</ele><time>2026-04-25T08:06:22.989Z</time></trkpt><trkpt lat="45.1320483" lon="8.45798"><ele>118.0</ele><time>2026-04-25T08:06:23.989Z</time></trkpt><trkpt lat="45.1320183" lon="8.457835"><ele>118.0</ele><time>2026-04-25T08:06:24.988Z</time></trkpt><trkpt lat="45.131985" lon="8.4576883"><ele>118.0</ele><time>2026-04-25T08:06:25.989Z</time></trkpt><trkpt lat="45.1319617" lon="8.4575333"><ele>118.0</ele><time>2026-04-25T08:06:26.989Z</time></trkpt><trkpt lat="45.131945" lon="8.4573633"><ele>118.0</ele><time>2026-04-25T08:06:27.988Z</time></trkpt><trkpt lat="45.1319033" lon="8.4572017"><ele>117.80000000000001</ele><time>2026-04-25T08:06:28.988Z</time></trkpt><trkpt lat="45.13187" lon="8.4570483"><ele>117.60000000000001</ele><time>2026-04-25T08:06:29.987Z</time></trkpt><trkpt lat="45.131855" lon="8.4569183"><ele>117.39999999999999</ele><time>2026-04-25T08:06:30.987Z</time></trkpt><trkpt lat="45.13183" lon="8.456795"><ele>117.19999999999999</ele><time>2026-04-25T08:06:31.987Z</time></trkpt><trkpt lat="45.1317983" lon="8.4566867"><ele>117.0</ele><time>2026-04-25T08:06:32.988Z</time></trkpt><trkpt lat="45.1317767" lon="8.45659"><ele>117.0</ele><time>2026-04-25T08:06:33.987Z</time></trkpt><trkpt lat="45.131745" lon="8.4564983"><ele>116.99999999999999</ele><time>2026-04-25T08:06:34.987Z</time></trkpt><trkpt lat="45.131715" lon="8.4564117"><ele>116.99999999999999</ele><time>2026-04-25T08:06:35.987Z</time></trkpt><trkpt lat="45.1316683" lon="8.4563183"><ele>117.0</ele><time>2026-04-25T08:06:36.988Z</time></trkpt><trkpt lat="45.1316133" lon="8.4561783"><ele>117.0</ele><time>2026-04-25T08:06:37.988Z</time></trkpt><trkpt lat="45.1315683" lon="8.4560133"><ele>117.25</ele><time>2026-04-25T08:06:38.987Z</time></trkpt><trkpt lat="45.1315233" lon="8.4558317"><ele>117.5</ele><time>2026-04-25T08:06:39.987Z</time></trkpt><trkpt lat="45.1314767" lon="8.45563"><ele>117.75</ele><time>2026-04-25T08:06:40.988Z</time></trkpt><trkpt lat="45.1314317" lon="8.45543"><ele>118.0</ele><time>2026-04-25T08:06:41.988Z</time></trkpt><trkpt lat="45.131385" lon="8.455215"><ele>118.0</ele><time>2026-04-25T08:06:42.987Z</time></trkpt><trkpt lat="45.13135" lon="8.4550017"><ele>118.0</ele><time>2026-04-25T08:06:43.987Z</time></trkpt><trkpt lat="45.1312983" lon="8.4548017"><ele>118.0</ele><time>2026-04-25T08:06:44.988Z</time></trkpt><trkpt lat="45.1312467" lon="8.45461"><ele>118.0</ele><time>2026-04-25T08:06:45.988Z</time></trkpt><trkpt lat="45.1311983" lon="8.4544267"><ele>117.5</ele><time>2026-04-25T08:06:46.988Z</time></trkpt><trkpt lat="45.1311517" lon="8.4542467"><ele>117.0</ele><time>2026-04-25T08:06:47.987Z</time></trkpt><trkpt lat="45.1311017" lon="8.4540733"><ele>116.5</ele><time>2026-04-25T08:06:48.987Z</time></trkpt><trkpt lat="45.131055" lon="8.45392"><ele>116.0</ele><time>2026-04-25T08:06:49.988Z</time></trkpt><trkpt lat="45.1310033" lon="8.4537817"><ele>115.99999999999999</ele><time>2026-04-25T08:06:50.987Z</time></trkpt><trkpt lat="45.13097" lon="8.453655"><ele>116.0</ele><time>2026-04-25T08:06:51.987Z</time></trkpt><trkpt lat="45.1309483" lon="8.45355"><ele>116.0</ele><time>2026-04-25T08:06:52.988Z</time></trkpt><trkpt lat="45.13094" lon="8.4534583"><ele>116.0</ele><time>2026-04-25T08:06:53.987Z</time></trkpt><trkpt lat="45.1309133" lon="8.4533033"><ele>115.99999999999999</ele><time>2026-04-25T08:06:55.987Z</time></trkpt><trkpt lat="45.1309133" lon="8.4532067"><ele>116.0</ele><time>2026-04-25T08:06:56.987Z</time></trkpt><trkpt lat="45.13092" lon="8.453105"><ele>115.99999999999999</ele><time>2026-04-25T08:06:57.988Z</time></trkpt><trkpt lat="45.1309283" lon="8.4530067"><ele>116.0</ele><time>2026-04-25T08:06:58.988Z</time></trkpt><trkpt lat="45.1309533" lon="8.4529083"><ele>116.0</ele><time>2026-04-25T08:06:59.987Z</time></trkpt><trkpt lat="45.13099" lon="8.4528217"><ele>116.0</ele><time>2026-04-25T08:07:00.987Z</time></trkpt><trkpt lat="45.1310217" lon="8.4527233"><ele>115.99999999999999</ele><time>2026-04-25T08:07:01.988Z</time></trkpt><trkpt lat="45.1310867" lon="8.4525617"><ele>116.0</ele><time>2026-04-25T08:07:03.987Z</time></trkpt><trkpt lat="45.1311533" lon="8.452425"><ele>116.0</ele><time>2026-04-25T08:07:05.987Z</time></trkpt><trkpt lat="45.131205" lon="8.4522917"><ele>116.0</ele><time>2026-04-25T08:07:07.987Z</time></trkpt><trkpt lat="45.13123" lon="8.45217"><ele>116.0</ele><time>2026-04-25T08:07:09.988Z</time></trkpt><trkpt lat="45.13126" lon="8.452055"><ele>116.0</ele><time>2026-04-25T08:07:11.988Z</time></trkpt><trkpt lat="45.1313083" lon="8.45191"><ele>116.0</ele><time>2026-04-25T08:07:13.987Z</time></trkpt><trkpt lat="45.1312917" lon="8.451755"><ele>116.19999999999999</ele><time>2026-04-25T08:07:15.988Z</time></trkpt><trkpt lat="45.13116" lon="8.4516883"><ele>116.39999999999999</ele><time>2026-04-25T08:07:17.987Z</time></trkpt><trkpt lat="45.131075" lon="8.4516733"><ele>116.6</ele><time>2026-04-25T08:07:18.987Z</time></trkpt><trkpt lat="45.130995" lon="8.4516267"><ele>116.8</ele><time>2026-04-25T08:07:19.988Z</time></trkpt><trkpt lat="45.1309133" lon="8.4515733"><ele>117.0</ele><time>2026-04-25T08:07:20.987Z</time></trkpt><trkpt lat="45.130825" lon="8.451505"><ele>117.0</ele><time>2026-04-25T08:07:21.987Z</time></trkpt><trkpt lat="45.1307383" lon="8.45142"><ele>116.99999999999999</ele><time>2026-04-25T08:07:22.988Z</time></trkpt><trkpt lat="45.13065" lon="8.4513467"><ele>116.99999999999999</ele><time>2026-04-25T08:07:23.988Z</time></trkpt><trkpt lat="45.1305683" lon="8.4512767"><ele>117.0</ele><time>2026-04-25T08:07:24.988Z</time></trkpt><trkpt lat="45.1304917" lon="8.4512133"><ele>117.0</ele><time>2026-04-25T08:07:25.988Z</time></trkpt><trkpt lat="45.13041" lon="8.451165"><ele>117.0</ele><time>2026-04-25T08:07:26.987Z</time></trkpt><trkpt lat="45.1303317" lon="8.4511117"><ele>117.0</ele><time>2026-04-25T08:07:27.987Z</time></trkpt><trkpt lat="45.1302617" lon="8.4510517"><ele>117.0</ele><time>2026-04-25T08:07:28.987Z</time></trkpt><trkpt lat="45.1302033" lon="8.4509883"><ele>117.0</ele><time>2026-04-25T08:07:29.987Z</time></trkpt><trkpt lat="45.1301617" lon="8.4509083"><ele>117.0</ele><time>2026-04-25T08:07:30.987Z</time></trkpt><trkpt lat="45.1301383" lon="8.4508083"><ele>117.0</ele><time>2026-04-25T08:07:31.987Z</time></trkpt><trkpt lat="45.1300783" lon="8.4506533"><ele>117.0</ele><time>2026-04-25T08:07:33.988Z</time></trkpt><trkpt lat="45.129995" lon="8.450595"><ele>116.99999999999999</ele><time>2026-04-25T08:07:35.987Z</time></trkpt><trkpt lat="45.1299" lon="8.4505867"><ele>116.99999999999999</ele><time>2026-04-25T08:07:37.987Z</time></trkpt><trkpt lat="45.1297967" lon="8.4505767"><ele>117.0</ele><time>2026-04-25T08:07:39.987Z</time></trkpt><trkpt lat="45.1296817" lon="8.4505733"><ele>117.0</ele><time>2026-04-25T08:07:41.987Z</time></trkpt><trkpt lat="45.1295683" lon="8.4505833"><ele>117.0</ele><time>2026-04-25T08:07:43.987Z</time></trkpt><trkpt lat="45.12949" lon="8.4505917"><ele>117.0</ele><time>2026-04-25T08:07:45.987Z</time></trkpt><trkpt lat="45.1294083" lon="8.4506267"><ele>117.0</ele><time>2026-04-25T08:07:48.988Z</time></trkpt><trkpt lat="45.129325" lon="8.4506717"><ele>117.0</ele><time>2026-04-25T08:07:51.988Z</time></trkpt><trkpt lat="45.1292617" lon="8.4506017"><ele>117.0</ele><time>2026-04-25T08:07:53.987Z</time></trkpt><trkpt lat="45.129165" lon="8.4505617"><ele>117.0</ele><time>2026-04-25T08:07:55.988Z</time></trkpt><trkpt lat="45.129055" lon="8.4505767"><ele>117.0</ele><time>2026-04-25T08:07:57.987Z</time></trkpt><trkpt lat="45.1289583" lon="8.4506167"><ele>116.99999999999999</ele><time>2026-04-25T08:07:59.987Z</time></trkpt><trkpt lat="45.1288733" lon="8.4506583"><ele>116.99999999999999</ele><time>2026-04-25T08:08:01.987Z</time></trkpt><trkpt lat="45.1287567" lon="8.4506667"><ele>117.0</ele><time>2026-04-25T08:08:03.987Z</time></trkpt><trkpt lat="45.1286483" lon="8.4506767"><ele>117.0</ele><time>2026-04-25T08:08:05.987Z</time></trkpt><trkpt lat="45.1285417" lon="8.450685"><ele>117.0</ele><time>2026-04-25T08:08:07.987Z</time></trkpt><trkpt lat="45.12844" lon="8.4506967"><ele>117.0</ele><time>2026-04-25T08:08:09.987Z</time></trkpt><trkpt lat="45.128315" lon="8.4507117"><ele>117.0</ele><time>2026-04-25T08:08:11.988Z</time></trkpt><trkpt lat="45.128175" lon="8.4507167"><ele>117.0</ele><time>2026-04-25T08:08:13.987Z</time></trkpt><trkpt lat="45.128075" lon="8.45071"><ele>117.0</ele><time>2026-04-25T08:08:14.987Z</time></trkpt><trkpt lat="45.1279567" lon="8.4506983"><ele>116.99999999999999</ele><time>2026-04-25T08:08:15.988Z</time></trkpt><trkpt lat="45.12786" lon="8.4507067"><ele>116.99999999999999</ele><time>2026-04-25T08:08:16.988Z</time></trkpt><trkpt lat="45.1277683" lon="8.4507133"><ele>117.0</ele><time>2026-04-25T08:08:17.987Z</time></trkpt><trkpt lat="45.1276817" lon="8.4507233"><ele>117.0</ele><time>2026-04-25T08:08:18.987Z</time></trkpt><trkpt lat="45.1276183" lon="8.4507267"><ele>117.0</ele><time>2026-04-25T08:08:19.987Z</time></trkpt><trkpt lat="45.12753" lon="8.450735"><ele>116.99999999999999</ele><time>2026-04-25T08:08:21.987Z</time></trkpt><trkpt lat="45.1274483" lon="8.4507383"><ele>116.99999999999999</ele><time>2026-04-25T08:08:23.988Z</time></trkpt><trkpt lat="45.12736" lon="8.450745"><ele>117.0</ele><time>2026-04-25T08:08:25.988Z</time></trkpt><trkpt lat="45.1272433" lon="8.4507667"><ele>117.0</ele><time>2026-04-25T08:08:27.987Z</time></trkpt><trkpt lat="45.1271383" lon="8.4507683"><ele>117.19999999999999</ele><time>2026-04-25T08:08:29.987Z</time></trkpt><trkpt lat="45.12702" lon="8.4507583"><ele>117.39999999999999</ele><time>2026-04-25T08:08:31.987Z</time></trkpt><trkpt lat="45.1269033" lon="8.4507583"><ele>117.60000000000001</ele><time>2026-04-25T08:08:33.987Z</time></trkpt><trkpt lat="45.1268367" lon="8.450765"><ele>117.80000000000001</ele><time>2026-04-25T08:08:34.987Z</time></trkpt><trkpt lat="45.1267633" lon="8.4507633"><ele>118.0</ele><time>2026-04-25T08:08:35.988Z</time></trkpt><trkpt lat="45.12668" lon="8.4507567"><ele>118.0</ele><time>2026-04-25T08:08:36.988Z</time></trkpt><trkpt lat="45.126595" lon="8.4507667"><ele>118.00000000000001</ele><time>2026-04-25T08:08:37.987Z</time></trkpt><trkpt lat="45.126505" lon="8.4507733"><ele>118.00000000000001</ele><time>2026-04-25T08:08:38.987Z</time></trkpt><trkpt lat="45.126415" lon="8.4507767"><ele>118.0</ele><time>2026-04-25T08:08:39.988Z</time></trkpt><trkpt lat="45.1263133" lon="8.45077"><ele>118.0</ele><time>2026-04-25T08:08:40.987Z</time></trkpt><trkpt lat="45.1262033" lon="8.4507683"><ele>118.0</ele><time>2026-04-25T08:08:41.987Z</time></trkpt><trkpt lat="45.1260883" lon="8.4507767"><ele>118.0</ele><time>2026-04-25T08:08:42.988Z</time></trkpt><trkpt lat="45.125965" lon="8.4507817"><ele>118.0</ele><time>2026-04-25T08:08:43.987Z</time></trkpt><trkpt lat="45.1258383" lon="8.4507867"><ele>118.0</ele><time>2026-04-25T08:08:44.987Z</time></trkpt><trkpt lat="45.1257117" lon="8.4507967"><ele>117.60000000000001</ele><time>2026-04-25T08:08:45.988Z</time></trkpt><trkpt lat="45.125595" lon="8.450805"><ele>117.20000000000002</ele><time>2026-04-25T08:08:46.988Z</time></trkpt><trkpt lat="45.12548" lon="8.45082"><ele>116.8</ele><time>2026-04-25T08:08:47.987Z</time></trkpt><trkpt lat="45.12538" lon="8.4508283"><ele>116.4</ele><time>2026-04-25T08:08:48.988Z</time></trkpt><trkpt lat="45.1252867" lon="8.4508317"><ele>116.0</ele><time>2026-04-25T08:08:49.988Z</time></trkpt><trkpt lat="45.1252083" lon="8.450845"><ele>115.99999999999999</ele><time>2026-04-25T08:08:50.988Z</time></trkpt><trkpt lat="45.1251317" lon="8.45085"><ele>116.0</ele><time>2026-04-25T08:08:51.988Z</time></trkpt><trkpt lat="45.1250517" lon="8.4508533"><ele>116.0</ele><time>2026-04-25T08:08:52.987Z</time></trkpt><trkpt lat="45.1249867" lon="8.4508617"><ele>116.0</ele><time>2026-04-25T08:08:53.988Z</time></trkpt><trkpt lat="45.1248783" lon="8.4508667"><ele>115.99999999999999</ele><time>2026-04-25T08:08:55.988Z</time></trkpt><trkpt lat="45.1248017" lon="8.4508633"><ele>116.0</ele><time>2026-04-25T08:08:57.987Z</time></trkpt><trkpt lat="45.1247367" lon="8.4508583"><ele>116.00000000000001</ele><time>2026-04-25T08:09:00.987Z</time></trkpt><trkpt lat="45.1246717" lon="8.4508633"><ele>116.0</ele><time>2026-04-25T08:09:07.988Z</time></trkpt><trkpt lat="45.1246033" lon="8.4508633"><ele>116.00000000000001</ele><time>2026-04-25T08:09:09.987Z</time></trkpt><trkpt lat="45.1245267" lon="8.450865"><ele>116.00000000000001</ele><time>2026-04-25T08:09:11.987Z</time></trkpt><trkpt lat="45.1244417" lon="8.4508633"><ele>116.0</ele><time>2026-04-25T08:09:13.987Z</time></trkpt><trkpt lat="45.12437" lon="8.4508583"><ele>116.00000000000001</ele><time>2026-04-25T08:09:15.987Z</time></trkpt><trkpt lat="45.12429" lon="8.4508617"><ele>116.00000000000001</ele><time>2026-04-25T08:09:17.987Z</time></trkpt><trkpt lat="45.1241867" lon="8.4508617"><ele>116.0</ele><time>2026-04-25T08:09:19.987Z</time></trkpt><trkpt lat="45.12408" lon="8.4508867"><ele>116.0</ele><time>2026-04-25T08:09:21.987Z</time></trkpt><trkpt lat="45.1240183" lon="8.4509183"><ele>116.0</ele><time>2026-04-25T08:09:22.988Z</time></trkpt><trkpt lat="45.123895" lon="8.4509583"><ele>116.0</ele><time>2026-04-25T08:09:24.987Z</time></trkpt><trkpt lat="45.12381" lon="8.4509717"><ele>116.0</ele><time>2026-04-25T08:09:25.988Z</time></trkpt><trkpt lat="45.12372" lon="8.450985"><ele>116.4</ele><time>2026-04-25T08:09:26.987Z</time></trkpt><trkpt lat="45.1236083" lon="8.4509817"><ele>116.8</ele><time>2026-04-25T08:09:27.987Z</time></trkpt><trkpt lat="45.1235067" lon="8.4509667"><ele>117.20000000000002</ele><time>2026-04-25T08:09:28.988Z</time></trkpt><trkpt lat="45.1234083" lon="8.4509667"><ele>117.60000000000001</ele><time>2026-04-25T08:09:29.988Z</time></trkpt><trkpt lat="45.1233083" lon="8.45096"><ele>118.0</ele><time>2026-04-25T08:09:30.987Z</time></trkpt><trkpt lat="45.1232133" lon="8.450965"><ele>118.16666666666667</ele><time>2026-04-25T08:09:31.988Z</time></trkpt><trkpt lat="45.1231217" lon="8.4509717"><ele>118.33333333333334</ele><time>2026-04-25T08:09:32.987Z</time></trkpt><trkpt lat="45.1230383" lon="8.4509783"><ele>118.5</ele><time>2026-04-25T08:09:33.987Z</time></trkpt><trkpt lat="45.1229633" lon="8.45099"><ele>118.66666666666666</ele><time>2026-04-25T08:09:34.987Z</time></trkpt><trkpt lat="45.122895" lon="8.4509883"><ele>118.83333333333333</ele><time>2026-04-25T08:09:35.988Z</time></trkpt><trkpt lat="45.1227933" lon="8.45099"><ele>119.0</ele><time>2026-04-25T08:09:37.987Z</time></trkpt><trkpt lat="45.1226867" lon="8.451005"><ele>118.99999999999999</ele><time>2026-04-25T08:09:39.988Z</time></trkpt><trkpt lat="45.1226133" lon="8.4510067"><ele>119.0</ele><time>2026-04-25T08:09:40.988Z</time></trkpt><trkpt lat="45.1225383" lon="8.4510067"><ele>119.0</ele><time>2026-04-25T08:09:42.988Z</time></trkpt><trkpt lat="45.1224367" lon="8.4509967"><ele>119.0</ele><time>2026-04-25T08:09:45.987Z</time></trkpt><trkpt lat="45.122365" lon="8.4510117"><ele>118.99999999999999</ele><time>2026-04-25T08:09:46.988Z</time></trkpt><trkpt lat="45.12228" lon="8.4510283"><ele>119.0</ele><time>2026-04-25T08:09:47.987Z</time></trkpt><trkpt lat="45.122135" lon="8.4510383"><ele>119.25</ele><time>2026-04-25T08:09:48.988Z</time></trkpt><trkpt lat="45.1219983" lon="8.451025"><ele>119.5</ele><time>2026-04-25T08:09:49.988Z</time></trkpt><trkpt lat="45.12187" lon="8.451015"><ele>119.75</ele><time>2026-04-25T08:09:50.987Z</time></trkpt><trkpt lat="45.121745" lon="8.4510017"><ele>120.0</ele><time>2026-04-25T08:09:51.988Z</time></trkpt><trkpt lat="45.1216417" lon="8.450965"><ele>119.83333333333333</ele><time>2026-04-25T08:09:52.987Z</time></trkpt><trkpt lat="45.1215433" lon="8.4509267"><ele>119.66666666666666</ele><time>2026-04-25T08:09:53.988Z</time></trkpt><trkpt lat="45.1214633" lon="8.450905"><ele>119.5</ele><time>2026-04-25T08:09:54.988Z</time></trkpt><trkpt lat="45.1213883" lon="8.4509167"><ele>119.33333333333333</ele><time>2026-04-25T08:09:55.988Z</time></trkpt><trkpt lat="45.1213217" lon="8.4509583"><ele>119.16666666666666</ele><time>2026-04-25T08:09:56.987Z</time></trkpt><trkpt lat="45.1212533" lon="8.4509967"><ele>119.0</ele><time>2026-04-25T08:09:57.988Z</time></trkpt><trkpt lat="45.1211783" lon="8.45102"><ele>119.0</ele><time>2026-04-25T08:09:58.987Z</time></trkpt><trkpt lat="45.121095" lon="8.451045"><ele>119.0</ele><time>2026-04-25T08:09:59.988Z</time></trkpt><trkpt lat="45.1210067" lon="8.4510683"><ele>119.0</ele><time>2026-04-25T08:10:00.988Z</time></trkpt><trkpt lat="45.1209117" lon="8.4510833"><ele>119.0</ele><time>2026-04-25T08:10:01.988Z</time></trkpt><trkpt lat="45.12081" lon="8.451085"><ele>119.0</ele><time>2026-04-25T08:10:02.988Z</time></trkpt><trkpt lat="45.1207317" lon="8.45109"><ele>119.16666666666666</ele><time>2026-04-25T08:10:03.987Z</time></trkpt><trkpt lat="45.1206483" lon="8.4510867"><ele>119.33333333333333</ele><time>2026-04-25T08:10:04.987Z</time></trkpt><trkpt lat="45.1205633" lon="8.4510917"><ele>119.5</ele><time>2026-04-25T08:10:05.988Z</time></trkpt><trkpt lat="45.120495" lon="8.45109"><ele>119.66666666666666</ele><time>2026-04-25T08:10:06.988Z</time></trkpt><trkpt lat="45.120415" lon="8.4510617"><ele>119.83333333333333</ele><time>2026-04-25T08:10:07.987Z</time></trkpt><trkpt lat="45.1203333" lon="8.4509983"><ele>120.0</ele><time>2026-04-25T08:10:08.987Z</time></trkpt><trkpt lat="45.1202533" lon="8.4509267"><ele>120.0</ele><time>2026-04-25T08:10:09.987Z</time></trkpt><trkpt lat="45.1201767" lon="8.4508517"><ele>120.0</ele><time>2026-04-25T08:10:10.988Z</time></trkpt><trkpt lat="45.120095" lon="8.450775"><ele>120.0</ele><time>2026-04-25T08:10:11.987Z</time></trkpt><trkpt lat="45.119995" lon="8.4506783"><ele>120.0</ele><time>2026-04-25T08:10:12.988Z</time></trkpt><trkpt lat="45.119885" lon="8.4505733"><ele>120.0</ele><time>2026-04-25T08:10:13.988Z</time></trkpt><trkpt lat="45.119775" lon="8.4504617"><ele>119.75</ele><time>2026-04-25T08:10:14.987Z</time></trkpt><trkpt lat="45.1196717" lon="8.4503583"><ele>119.5</ele><time>2026-04-25T08:10:15.987Z</time></trkpt><trkpt lat="45.11957" lon="8.450245"><ele>119.25</ele><time>2026-04-25T08:10:16.987Z</time></trkpt><trkpt lat="45.1194517" lon="8.4501383"><ele>119.0</ele><time>2026-04-25T08:10:17.987Z</time></trkpt><trkpt lat="45.1193467" lon="8.450035"><ele>119.0</ele><time>2026-04-25T08:10:18.988Z</time></trkpt><trkpt lat="45.11925" lon="8.4499183"><ele>119.0</ele><time>2026-04-25T08:10:19.988Z</time></trkpt><trkpt lat="45.119145" lon="8.44981"><ele>119.0</ele><time>2026-04-25T08:10:20.987Z</time></trkpt><trkpt lat="45.1190433" lon="8.44969"><ele>119.0</ele><time>2026-04-25T08:10:21.987Z</time></trkpt><trkpt lat="45.1189483" lon="8.4495867"><ele>118.75</ele><time>2026-04-25T08:10:22.988Z</time></trkpt><trkpt lat="45.1188533" lon="8.4494983"><ele>118.5</ele><time>2026-04-25T08:10:23.987Z</time></trkpt><trkpt lat="45.1187583" lon="8.4494083"><ele>118.25</ele><time>2026-04-25T08:10:24.988Z</time></trkpt><trkpt lat="45.11866" lon="8.4493033"><ele>118.0</ele><time>2026-04-25T08:10:25.987Z</time></trkpt><trkpt lat="45.1185267" lon="8.4491917"><ele>118.0</ele><time>2026-04-25T08:10:26.987Z</time></trkpt><trkpt lat="45.1183867" lon="8.4490567"><ele>118.0</ele><time>2026-04-25T08:10:27.988Z</time></trkpt><trkpt lat="45.11823" lon="8.4488933"><ele>118.0</ele><time>2026-04-25T08:10:28.988Z</time></trkpt><trkpt lat="45.1180633" lon="8.4487033"><ele>119.0</ele><time>2026-04-25T08:10:29.988Z</time></trkpt><trkpt lat="45.1178967" lon="8.4485217"><ele>120.0</ele><time>2026-04-25T08:10:30.987Z</time></trkpt><trkpt lat="45.117715" lon="8.44834"><ele>121.0</ele><time>2026-04-25T08:10:31.987Z</time></trkpt><trkpt lat="45.1175417" lon="8.4481633"><ele>120.66666666666667</ele><time>2026-04-25T08:10:32.987Z</time></trkpt><trkpt lat="45.11736" lon="8.4479817"><ele>120.33333333333334</ele><time>2026-04-25T08:10:33.988Z</time></trkpt><trkpt lat="45.1171783" lon="8.447795"><ele>120.0</ele><time>2026-04-25T08:10:34.988Z</time></trkpt><trkpt lat="45.1169983" lon="8.4476217"><ele>120.66666666666666</ele><time>2026-04-25T08:10:35.987Z</time></trkpt><trkpt lat="45.1168267" lon="8.447445"><ele>121.33333333333333</ele><time>2026-04-25T08:10:36.988Z</time></trkpt><trkpt lat="45.116665" lon="8.4472733"><ele>122.0</ele><time>2026-04-25T08:10:37.987Z</time></trkpt><trkpt lat="45.1165033" lon="8.4471"><ele>122.0</ele><time>2026-04-25T08:10:38.988Z</time></trkpt><trkpt lat="45.11635" lon="8.446935"><ele>122.0</ele><time>2026-04-25T08:10:39.987Z</time></trkpt><trkpt lat="45.1162067" lon="8.44679"><ele>122.0</ele><time>2026-04-25T08:10:40.988Z</time></trkpt><trkpt lat="45.1160617" lon="8.4466467"><ele>122.0</ele><time>2026-04-25T08:10:41.987Z</time></trkpt><trkpt lat="45.115925" lon="8.446515"><ele>122.0</ele><time>2026-04-25T08:10:42.987Z</time></trkpt><trkpt lat="45.115785" lon="8.446385"><ele>122.0</ele><time>2026-04-25T08:10:43.987Z</time></trkpt><trkpt lat="45.1156533" lon="8.446235"><ele>122.0</ele><time>2026-04-25T08:10:44.988Z</time></trkpt><trkpt lat="45.1155233" lon="8.4460917"><ele>122.0</ele><time>2026-04-25T08:10:45.987Z</time></trkpt><trkpt lat="45.1154033" lon="8.4459633"><ele>122.0</ele><time>2026-04-25T08:10:46.987Z</time></trkpt><trkpt lat="45.11529" lon="8.445845"><ele>122.0</ele><time>2026-04-25T08:10:47.988Z</time></trkpt><trkpt lat="45.115185" lon="8.4457333"><ele>122.0</ele><time>2026-04-25T08:10:48.987Z</time></trkpt><trkpt lat="45.11507" lon="8.4456133"><ele>122.0</ele><time>2026-04-25T08:10:49.987Z</time></trkpt><trkpt lat="45.1149517" lon="8.4454933"><ele>122.0</ele><time>2026-04-25T08:10:50.987Z</time></trkpt><trkpt lat="45.1148283" lon="8.4453767"><ele>121.66666666666666</ele><time>2026-04-25T08:10:51.987Z</time></trkpt><trkpt lat="45.1147067" lon="8.44524"><ele>121.33333333333334</ele><time>2026-04-25T08:10:52.988Z</time></trkpt><trkpt lat="45.1145767" lon="8.4451"><ele>121.0</ele><time>2026-04-25T08:10:53.987Z</time></trkpt><trkpt lat="45.114445" lon="8.444965"><ele>121.0</ele><time>2026-04-25T08:10:54.987Z</time></trkpt><trkpt lat="45.114315" lon="8.4448367"><ele>121.0</ele><time>2026-04-25T08:10:55.987Z</time></trkpt><trkpt lat="45.1141867" lon="8.444705"><ele>121.0</ele><time>2026-04-25T08:10:56.988Z</time></trkpt><trkpt lat="45.11405" lon="8.44456"><ele>120.33333333333334</ele><time>2026-04-25T08:10:57.987Z</time></trkpt><trkpt lat="45.1139033" lon="8.444425"><ele>119.66666666666666</ele><time>2026-04-25T08:10:58.988Z</time></trkpt><trkpt lat="45.113755" lon="8.44428"><ele>119.0</ele><time>2026-04-25T08:10:59.988Z</time></trkpt><trkpt lat="45.1135967" lon="8.44413"><ele>119.0</ele><time>2026-04-25T08:11:00.988Z</time></trkpt><trkpt lat="45.1134383" lon="8.44398"><ele>119.0</ele><time>2026-04-25T08:11:01.987Z</time></trkpt><trkpt lat="45.1132883" lon="8.4438083"><ele>119.0</ele><time>2026-04-25T08:11:02.987Z</time></trkpt><trkpt lat="45.1131433" lon="8.4436417"><ele>119.66666666666666</ele><time>2026-04-25T08:11:03.987Z</time></trkpt><trkpt lat="45.113" lon="8.44349"><ele>120.33333333333334</ele><time>2026-04-25T08:11:04.987Z</time></trkpt><trkpt lat="45.11286" lon="8.4433467"><ele>121.0</ele><time>2026-04-25T08:11:05.987Z</time></trkpt><trkpt lat="45.1127183" lon="8.4431983"><ele>121.0</ele><time>2026-04-25T08:11:06.987Z</time></trkpt><trkpt lat="45.1125833" lon="8.4430617"><ele>121.0</ele><time>2026-04-25T08:11:07.987Z</time></trkpt><trkpt lat="45.112455" lon="8.442915"><ele>121.0</ele><time>2026-04-25T08:11:08.988Z</time></trkpt><trkpt lat="45.112325" lon="8.4427783"><ele>121.33333333333334</ele><time>2026-04-25T08:11:09.987Z</time></trkpt><trkpt lat="45.1121983" lon="8.4426367"><ele>121.66666666666666</ele><time>2026-04-25T08:11:10.987Z</time></trkpt><trkpt lat="45.1120617" lon="8.4425117"><ele>122.0</ele><time>2026-04-25T08:11:11.987Z</time></trkpt><trkpt lat="45.111925" lon="8.44238"><ele>122.0</ele><time>2026-04-25T08:11:12.988Z</time></trkpt><trkpt lat="45.1117917" lon="8.4422533"><ele>122.0</ele><time>2026-04-25T08:11:13.988Z</time></trkpt><trkpt lat="45.1116583" lon="8.4421167"><ele>122.0</ele><time>2026-04-25T08:11:14.988Z</time></trkpt><trkpt lat="45.11152" lon="8.4419717"><ele>121.33333333333333</ele><time>2026-04-25T08:11:15.987Z</time></trkpt><trkpt lat="45.1113883" lon="8.4418267"><ele>120.66666666666666</ele><time>2026-04-25T08:11:16.987Z</time></trkpt><trkpt lat="45.111265" lon="8.4416967"><ele>120.0</ele><time>2026-04-25T08:11:17.987Z</time></trkpt><trkpt lat="45.1111317" lon="8.4415617"><ele>120.0</ele><time>2026-04-25T08:11:18.988Z</time></trkpt><trkpt lat="45.11101" lon="8.4414233"><ele>120.0</ele><time>2026-04-25T08:11:19.987Z</time></trkpt><trkpt lat="45.11088" lon="8.44129"><ele>120.0</ele><time>2026-04-25T08:11:20.988Z</time></trkpt><trkpt lat="45.11075" lon="8.44116"><ele>121.0</ele><time>2026-04-25T08:11:21.988Z</time></trkpt><trkpt lat="45.1106267" lon="8.4410233"><ele>122.0</ele><time>2026-04-25T08:11:22.987Z</time></trkpt><trkpt lat="45.1104983" lon="8.4408983"><ele>123.0</ele><time>2026-04-25T08:11:23.987Z</time></trkpt><trkpt lat="45.1103767" lon="8.44078"><ele>123.0</ele><time>2026-04-25T08:11:24.987Z</time></trkpt><trkpt lat="45.11025" lon="8.4406533"><ele>123.0</ele><time>2026-04-25T08:11:25.987Z</time></trkpt><trkpt lat="45.1101267" lon="8.4405233"><ele>123.0</ele><time>2026-04-25T08:11:26.987Z</time></trkpt><trkpt lat="45.1099983" lon="8.44039"><ele>124.0</ele><time>2026-04-25T08:11:27.988Z</time></trkpt><trkpt lat="45.1098717" lon="8.44025"><ele>125.0</ele><time>2026-04-25T08:11:28.988Z</time></trkpt><trkpt lat="45.1097367" lon="8.44011"><ele>126.0</ele><time>2026-04-25T08:11:29.987Z</time></trkpt><trkpt lat="45.1096" lon="8.43997"><ele>126.0</ele><time>2026-04-25T08:11:30.988Z</time></trkpt><trkpt lat="45.109465" lon="8.439845"><ele>126.0</ele><time>2026-04-25T08:11:31.986Z</time></trkpt><trkpt lat="45.1093367" lon="8.43972"><ele>126.0</ele><time>2026-04-25T08:11:32.986Z</time></trkpt><trkpt lat="45.1092017" lon="8.4395717"><ele>126.0</ele><time>2026-04-25T08:11:33.986Z</time></trkpt><trkpt lat="45.109045" lon="8.43942"><ele>126.0</ele><time>2026-04-25T08:11:34.986Z</time></trkpt><trkpt lat="45.1088733" lon="8.4392533"><ele>126.0</ele><time>2026-04-25T08:11:35.986Z</time></trkpt><trkpt lat="45.1086917" lon="8.4390617"><ele>126.0</ele><time>2026-04-25T08:11:36.986Z</time></trkpt><trkpt lat="45.1085233" lon="8.4388533"><ele>126.0</ele><time>2026-04-25T08:11:37.986Z</time></trkpt><trkpt lat="45.1083233" lon="8.4386617"><ele>127.0</ele><time>2026-04-25T08:11:38.986Z</time></trkpt><trkpt lat="45.1081367" lon="8.438475"><ele>128.0</ele><time>2026-04-25T08:11:39.987Z</time></trkpt><trkpt lat="45.107955" lon="8.438295"><ele>128.0</ele><time>2026-04-25T08:11:40.987Z</time></trkpt><trkpt lat="45.1077833" lon="8.4381133"><ele>128.0</ele><time>2026-04-25T08:11:41.986Z</time></trkpt><trkpt lat="45.1076183" lon="8.4379367"><ele>128.0</ele><time>2026-04-25T08:11:42.987Z</time></trkpt><trkpt lat="45.1074667" lon="8.4377683"><ele>127.0</ele><time>2026-04-25T08:11:43.987Z</time></trkpt><trkpt lat="45.1073117" lon="8.437605"><ele>126.0</ele><time>2026-04-25T08:11:44.986Z</time></trkpt><trkpt lat="45.1071633" lon="8.4374633"><ele>125.0</ele><time>2026-04-25T08:11:45.987Z</time></trkpt><trkpt lat="45.1070267" lon="8.43733"><ele>125.0</ele><time>2026-04-25T08:11:46.986Z</time></trkpt><trkpt lat="45.1069" lon="8.4371917"><ele>125.0</ele><time>2026-04-25T08:11:47.987Z</time></trkpt><trkpt lat="45.1068" lon="8.43706"><ele>125.0</ele><time>2026-04-25T08:11:48.986Z</time></trkpt><trkpt lat="45.106685" lon="8.4369633"><ele>125.0</ele><time>2026-04-25T08:11:49.986Z</time></trkpt><trkpt lat="45.1065717" lon="8.43686"><ele>125.5</ele><time>2026-04-25T08:11:50.987Z</time></trkpt><trkpt lat="45.106465" lon="8.4367567"><ele>126.0</ele><time>2026-04-25T08:11:51.986Z</time></trkpt><trkpt lat="45.10637" lon="8.43666"><ele>126.5</ele><time>2026-04-25T08:11:52.987Z</time></trkpt><trkpt lat="45.10627" lon="8.4365583"><ele>127.0</ele><time>2026-04-25T08:11:53.987Z</time></trkpt><trkpt lat="45.10617" lon="8.43645"><ele>127.0</ele><time>2026-04-25T08:11:54.986Z</time></trkpt><trkpt lat="45.106075" lon="8.43634"><ele>127.0</ele><time>2026-04-25T08:11:55.987Z</time></trkpt><trkpt lat="45.10597" lon="8.4362433"><ele>127.0</ele><time>2026-04-25T08:11:56.986Z</time></trkpt><trkpt lat="45.1058717" lon="8.436135"><ele>127.0</ele><time>2026-04-25T08:11:57.986Z</time></trkpt><trkpt lat="45.1057617" lon="8.4360367"><ele>127.0</ele><time>2026-04-25T08:11:58.986Z</time></trkpt><trkpt lat="45.1056617" lon="8.4359217"><ele>127.0</ele><time>2026-04-25T08:11:59.986Z</time></trkpt><trkpt lat="45.1055683" lon="8.4358233"><ele>127.0</ele><time>2026-04-25T08:12:00.986Z</time></trkpt><trkpt lat="45.105475" lon="8.4357283"><ele>127.0</ele><time>2026-04-25T08:12:01.986Z</time></trkpt><trkpt lat="45.1053883" lon="8.4356367"><ele>127.0</ele><time>2026-04-25T08:12:02.986Z</time></trkpt><trkpt lat="45.1052917" lon="8.4355483"><ele>127.0</ele><time>2026-04-25T08:12:03.986Z</time></trkpt><trkpt lat="45.105205" lon="8.435455"><ele>127.0</ele><time>2026-04-25T08:12:04.986Z</time></trkpt><trkpt lat="45.1051167" lon="8.4353467"><ele>127.0</ele><time>2026-04-25T08:12:05.986Z</time></trkpt><trkpt lat="45.1050283" lon="8.4352533"><ele>127.19999999999999</ele><time>2026-04-25T08:12:06.986Z</time></trkpt><trkpt lat="45.10494" lon="8.4351633"><ele>127.39999999999999</ele><time>2026-04-25T08:12:07.986Z</time></trkpt><trkpt lat="45.1048583" lon="8.4350717"><ele>127.60000000000001</ele><time>2026-04-25T08:12:08.986Z</time></trkpt><trkpt lat="45.1047667" lon="8.4349867"><ele>127.80000000000001</ele><time>2026-04-25T08:12:09.987Z</time></trkpt><trkpt lat="45.1046767" lon="8.4349033"><ele>128.0</ele><time>2026-04-25T08:12:10.987Z</time></trkpt><trkpt lat="45.10459" lon="8.4348067"><ele>128.0</ele><time>2026-04-25T08:12:11.986Z</time></trkpt><trkpt lat="45.1044983" lon="8.4347117"><ele>128.0</ele><time>2026-04-25T08:12:12.986Z</time></trkpt><trkpt lat="45.1044" lon="8.4346117"><ele>128.0</ele><time>2026-04-25T08:12:13.986Z</time></trkpt><trkpt lat="45.104295" lon="8.4345067"><ele>128.0</ele><time>2026-04-25T08:12:14.986Z</time></trkpt><trkpt lat="45.10418" lon="8.43439"><ele>128.0</ele><time>2026-04-25T08:12:15.986Z</time></trkpt><trkpt lat="45.1040567" lon="8.4342617"><ele>128.0</ele><time>2026-04-25T08:12:16.986Z</time></trkpt><trkpt lat="45.10394" lon="8.4341383"><ele>128.0</ele><time>2026-04-25T08:12:17.986Z</time></trkpt><trkpt lat="45.10382" lon="8.4340067"><ele>128.0</ele><time>2026-04-25T08:12:18.987Z</time></trkpt><trkpt lat="45.10371" lon="8.433915"><ele>128.0</ele><time>2026-04-25T08:12:19.987Z</time></trkpt><trkpt lat="45.1036033" lon="8.433815"><ele>128.0</ele><time>2026-04-25T08:12:20.986Z</time></trkpt><trkpt lat="45.1035133" lon="8.43373"><ele>128.0</ele><time>2026-04-25T08:12:21.987Z</time></trkpt><trkpt lat="45.10345" lon="8.4336783"><ele>128.0</ele><time>2026-04-25T08:12:22.986Z</time></trkpt><trkpt lat="45.1033833" lon="8.4336033"><ele>128.0</ele><time>2026-04-25T08:12:24.986Z</time></trkpt><trkpt lat="45.1032733" lon="8.4337183"><ele>128.0</ele><time>2026-04-25T08:12:34.986Z</time></trkpt><trkpt lat="45.1032" lon="8.4338167"><ele>128.0</ele><time>2026-04-25T08:12:35.987Z</time></trkpt><trkpt lat="45.10312" lon="8.4339233"><ele>128.0</ele><time>2026-04-25T08:12:36.986Z</time></trkpt><trkpt lat="45.1030367" lon="8.4340417"><ele>127.99999999999999</ele><time>2026-04-25T08:12:37.987Z</time></trkpt><trkpt lat="45.10296" lon="8.4341517"><ele>128.0</ele><time>2026-04-25T08:12:38.987Z</time></trkpt><trkpt lat="45.10289" lon="8.43425"><ele>128.0</ele><time>2026-04-25T08:12:39.986Z</time></trkpt><trkpt lat="45.1028267" lon="8.43433"><ele>128.0</ele><time>2026-04-25T08:12:40.987Z</time></trkpt><trkpt lat="45.10278" lon="8.4344017"><ele>127.99999999999999</ele><time>2026-04-25T08:12:41.986Z</time></trkpt><trkpt lat="45.10273" lon="8.4344633"><ele>128.0</ele><time>2026-04-25T08:12:42.986Z</time></trkpt><trkpt lat="45.1026817" lon="8.434535"><ele>128.0</ele><time>2026-04-25T08:12:43.987Z</time></trkpt><trkpt lat="45.10262" lon="8.4346117"><ele>128.0</ele><time>2026-04-25T08:12:44.986Z</time></trkpt><trkpt lat="45.1025383" lon="8.43467"><ele>128.0</ele><time>2026-04-25T08:12:45.987Z</time></trkpt><trkpt lat="45.102425" lon="8.4346917"><ele>128.0</ele><time>2026-04-25T08:12:46.987Z</time></trkpt><trkpt lat="45.1022917" lon="8.43466"><ele>128.0</ele><time>2026-04-25T08:12:47.987Z</time></trkpt><trkpt lat="45.1021233" lon="8.4345533"><ele>131.0</ele><time>2026-04-25T08:12:48.986Z</time></trkpt><trkpt lat="45.101925" lon="8.4343817"><ele>134.0</ele><time>2026-04-25T08:12:49.987Z</time></trkpt><trkpt lat="45.1017233" lon="8.4341967"><ele>141.5</ele><time>2026-04-25T08:12:50.986Z</time></trkpt><trkpt lat="45.1015317" lon="8.434025"><ele>149.0</ele><time>2026-04-25T08:12:51.987Z</time></trkpt><trkpt lat="45.101325" lon="8.4338867"><ele>145.0</ele><time>2026-04-25T08:12:52.986Z</time></trkpt><trkpt lat="45.1011033" lon="8.4337783"><ele>141.0</ele><time>2026-04-25T08:12:53.987Z</time></trkpt><trkpt lat="45.10088" lon="8.433695"><ele>143.0</ele><time>2026-04-25T08:12:54.986Z</time></trkpt><trkpt lat="45.10063" lon="8.4336217"><ele>145.0</ele><time>2026-04-25T08:12:55.987Z</time></trkpt><trkpt lat="45.1003717" lon="8.4335467"><ele>145.0</ele><time>2026-04-25T08:12:56.986Z</time></trkpt><trkpt lat="45.100135" lon="8.43347"><ele>145.0</ele><time>2026-04-25T08:12:57.987Z</time></trkpt><trkpt lat="45.0999167" lon="8.433415"><ele>145.5</ele><time>2026-04-25T08:12:58.986Z</time></trkpt><trkpt lat="45.0996783" lon="8.433365"><ele>146.0</ele><time>2026-04-25T08:12:59.986Z</time></trkpt><trkpt lat="45.0994433" lon="8.4333517"><ele>146.0</ele><time>2026-04-25T08:13:00.986Z</time></trkpt><trkpt lat="45.099215" lon="8.433345"><ele>146.0</ele><time>2026-04-25T08:13:01.987Z</time></trkpt><trkpt lat="45.0989983" lon="8.43333"><ele>146.0</ele><time>2026-04-25T08:13:02.986Z</time></trkpt><trkpt lat="45.0988317" lon="8.4332717"><ele>146.66666666666666</ele><time>2026-04-25T08:13:03.986Z</time></trkpt><trkpt lat="45.09871" lon="8.4331417"><ele>147.33333333333334</ele><time>2026-04-25T08:13:04.986Z</time></trkpt><trkpt lat="45.0986117" lon="8.43296"><ele>148.0</ele><time>2026-04-25T08:13:05.987Z</time></trkpt><trkpt lat="45.098515" lon="8.4327717"><ele>148.0</ele><time>2026-04-25T08:13:06.987Z</time></trkpt><trkpt lat="45.098395" lon="8.432625"><ele>148.0</ele><time>2026-04-25T08:13:07.987Z</time></trkpt><trkpt lat="45.0982567" lon="8.4325217"><ele>148.0</ele><time>2026-04-25T08:13:08.986Z</time></trkpt><trkpt lat="45.0980883" lon="8.4324633"><ele>150.33333333333334</ele><time>2026-04-25T08:13:09.986Z</time></trkpt><trkpt lat="45.0978883" lon="8.4324367"><ele>152.66666666666666</ele><time>2026-04-25T08:13:10.986Z</time></trkpt><trkpt lat="45.0976633" lon="8.4324133"><ele>155.0</ele><time>2026-04-25T08:13:11.986Z</time></trkpt><trkpt lat="45.0974383" lon="8.4323833"><ele>159.0</ele><time>2026-04-25T08:13:12.987Z</time></trkpt><trkpt lat="45.09721" lon="8.4323467"><ele>163.0</ele><time>2026-04-25T08:13:13.986Z</time></trkpt><trkpt lat="45.0969817" lon="8.4323"><ele>163.0</ele><time>2026-04-25T08:13:14.986Z</time></trkpt><trkpt lat="45.096755" lon="8.432245"><ele>163.0</ele><time>2026-04-25T08:13:15.986Z</time></trkpt><trkpt lat="45.09652" lon="8.4321717"><ele>162.5</ele><time>2026-04-25T08:13:16.987Z</time></trkpt><trkpt lat="45.0962833" lon="8.4320767"><ele>162.0</ele><time>2026-04-25T08:13:17.986Z</time></trkpt><trkpt lat="45.0960533" lon="8.4319633"><ele>162.0</ele><time>2026-04-25T08:13:18.987Z</time></trkpt><trkpt lat="45.09583" lon="8.431835"><ele>162.0</ele><time>2026-04-25T08:13:19.986Z</time></trkpt><trkpt lat="45.0956017" lon="8.4316833"><ele>165.5</ele><time>2026-04-25T08:13:20.986Z</time></trkpt><trkpt lat="45.095375" lon="8.431545"><ele>169.0</ele><time>2026-04-25T08:13:21.987Z</time></trkpt><trkpt lat="45.0951483" lon="8.4314117"><ele>168.33333333333334</ele><time>2026-04-25T08:13:22.986Z</time></trkpt><trkpt lat="45.094935" lon="8.431295"><ele>167.66666666666666</ele><time>2026-04-25T08:13:23.986Z</time></trkpt><trkpt lat="45.0947517" lon="8.4311867"><ele>167.0</ele><time>2026-04-25T08:13:24.986Z</time></trkpt><trkpt lat="45.0945917" lon="8.431095"><ele>167.0</ele><time>2026-04-25T08:13:25.987Z</time></trkpt><trkpt lat="45.094435" lon="8.431045"><ele>167.0</ele><time>2026-04-25T08:13:26.987Z</time></trkpt><trkpt lat="45.0942683" lon="8.431045"><ele>167.0</ele><time>2026-04-25T08:13:27.986Z</time></trkpt><trkpt lat="45.0940883" lon="8.431105"><ele>168.33333333333331</ele><time>2026-04-25T08:13:28.986Z</time></trkpt><trkpt lat="45.0939017" lon="8.431185"><ele>169.66666666666666</ele><time>2026-04-25T08:13:29.987Z</time></trkpt><trkpt lat="45.0937217" lon="8.4312783"><ele>171.0</ele><time>2026-04-25T08:13:30.987Z</time></trkpt><trkpt lat="45.09357" lon="8.4313367"><ele>171.0</ele><time>2026-04-25T08:13:31.986Z</time></trkpt><trkpt lat="45.0934283" lon="8.4313517"><ele>171.0</ele><time>2026-04-25T08:13:32.987Z</time></trkpt><trkpt lat="45.0932983" lon="8.431295"><ele>171.0</ele><time>2026-04-25T08:13:33.986Z</time></trkpt><trkpt lat="45.09319" lon="8.4311733"><ele>171.0</ele><time>2026-04-25T08:13:34.986Z</time></trkpt><trkpt lat="45.093095" lon="8.4310083"><ele>173.0</ele><time>2026-04-25T08:13:35.986Z</time></trkpt><trkpt lat="45.0930217" lon="8.430825"><ele>175.0</ele><time>2026-04-25T08:13:36.986Z</time></trkpt><trkpt lat="45.0929433" lon="8.43062"><ele>177.0</ele><time>2026-04-25T08:13:37.986Z</time></trkpt><trkpt lat="45.0928517" lon="8.4304267"><ele>177.0</ele><time>2026-04-25T08:13:38.987Z</time></trkpt><trkpt lat="45.09274" lon="8.4302617"><ele>177.0</ele><time>2026-04-25T08:13:39.986Z</time></trkpt><trkpt lat="45.09261" lon="8.4301533"><ele>177.0</ele><time>2026-04-25T08:13:40.986Z</time></trkpt><trkpt lat="45.0924583" lon="8.4300883"><ele>180.0</ele><time>2026-04-25T08:13:41.987Z</time></trkpt><trkpt lat="45.09228" lon="8.4300733"><ele>183.0</ele><time>2026-04-25T08:13:42.986Z</time></trkpt><trkpt lat="45.0920967" lon="8.4300733"><ele>186.0</ele><time>2026-04-25T08:13:43.986Z</time></trkpt><trkpt lat="45.0919167" lon="8.4300283"><ele>186.0</ele><time>2026-04-25T08:13:44.986Z</time></trkpt><trkpt lat="45.09177" lon="8.4299467"><ele>186.0</ele><time>2026-04-25T08:13:45.986Z</time></trkpt><trkpt lat="45.0916367" lon="8.4298217"><ele>186.0</ele><time>2026-04-25T08:13:46.987Z</time></trkpt><trkpt lat="45.0915117" lon="8.4296433"><ele>190.0</ele><time>2026-04-25T08:13:47.986Z</time></trkpt><trkpt lat="45.0914033" lon="8.4294567"><ele>194.0</ele><time>2026-04-25T08:13:48.986Z</time></trkpt><trkpt lat="45.0913333" lon="8.4292583"><ele>198.0</ele><time>2026-04-25T08:13:49.987Z</time></trkpt><trkpt lat="45.091285" lon="8.42905"><ele>198.0</ele><time>2026-04-25T08:13:50.987Z</time></trkpt><trkpt lat="45.0912617" lon="8.42882"><ele>198.0</ele><time>2026-04-25T08:13:51.986Z</time></trkpt><trkpt lat="45.0912617" lon="8.4285717"><ele>198.0</ele><time>2026-04-25T08:13:52.987Z</time></trkpt><trkpt lat="45.091285" lon="8.428305"><ele>197.66666666666669</ele><time>2026-04-25T08:13:53.986Z</time></trkpt><trkpt lat="45.0913533" lon="8.428045"><ele>197.33333333333334</ele><time>2026-04-25T08:13:54.986Z</time></trkpt><trkpt lat="45.0914367" lon="8.42778"><ele>197.0</ele><time>2026-04-25T08:13:55.987Z</time></trkpt><trkpt lat="45.0915233" lon="8.427525"><ele>197.66666666666669</ele><time>2026-04-25T08:13:56.986Z</time></trkpt><trkpt lat="45.0916333" lon="8.4273233"><ele>198.33333333333331</ele><time>2026-04-25T08:13:57.987Z</time></trkpt><trkpt lat="45.0917317" lon="8.42715"><ele>199.0</ele><time>2026-04-25T08:13:58.986Z</time></trkpt><trkpt lat="45.0918183" lon="8.426975"><ele>199.0</ele><time>2026-04-25T08:13:59.986Z</time></trkpt><trkpt lat="45.0918717" lon="8.4267967"><ele>199.0</ele><time>2026-04-25T08:14:00.987Z</time></trkpt><trkpt lat="45.0918833" lon="8.4265717"><ele>199.0</ele><time>2026-04-25T08:14:01.987Z</time></trkpt><trkpt lat="45.091885" lon="8.4263533"><ele>199.0</ele><time>2026-04-25T08:14:02.986Z</time></trkpt><trkpt lat="45.0918467" lon="8.4261317"><ele>199.0</ele><time>2026-04-25T08:14:03.986Z</time></trkpt><trkpt lat="45.0918183" lon="8.4259317"><ele>199.0</ele><time>2026-04-25T08:14:04.986Z</time></trkpt><trkpt lat="45.0918033" lon="8.42572"><ele>199.0</ele><time>2026-04-25T08:14:05.986Z</time></trkpt><trkpt lat="45.09182" lon="8.4254867"><ele>199.0</ele><time>2026-04-25T08:14:06.986Z</time></trkpt><trkpt lat="45.0918483" lon="8.4252533"><ele>199.0</ele><time>2026-04-25T08:14:07.987Z</time></trkpt><trkpt lat="45.0918967" lon="8.4250083"><ele>198.66666666666666</ele><time>2026-04-25T08:14:08.986Z</time></trkpt><trkpt lat="45.091955" lon="8.4247633"><ele>198.33333333333331</ele><time>2026-04-25T08:14:09.986Z</time></trkpt><trkpt lat="45.0920183" lon="8.4245133"><ele>198.0</ele><time>2026-04-25T08:14:10.987Z</time></trkpt><trkpt lat="45.0920917" lon="8.4242533"><ele>198.0</ele><time>2026-04-25T08:14:11.986Z</time></trkpt><trkpt lat="45.092165" lon="8.42399"><ele>198.0</ele><time>2026-04-25T08:14:12.986Z</time></trkpt><trkpt lat="45.0922383" lon="8.4237267"><ele>198.0</ele><time>2026-04-25T08:14:13.986Z</time></trkpt><trkpt lat="45.0923133" lon="8.4234733"><ele>198.33333333333331</ele><time>2026-04-25T08:14:14.987Z</time></trkpt><trkpt lat="45.0923817" lon="8.4232217"><ele>198.66666666666666</ele><time>2026-04-25T08:14:15.986Z</time></trkpt><trkpt lat="45.0924533" lon="8.42297"><ele>199.0</ele><time>2026-04-25T08:14:16.987Z</time></trkpt><trkpt lat="45.092495" lon="8.4226967"><ele>200.33333333333331</ele><time>2026-04-25T08:14:17.986Z</time></trkpt><trkpt lat="45.09251" lon="8.4224"><ele>201.66666666666669</ele><time>2026-04-25T08:14:18.986Z</time></trkpt><trkpt lat="45.0924983" lon="8.4220867"><ele>203.0</ele><time>2026-04-25T08:14:19.986Z</time></trkpt><trkpt lat="45.0924867" lon="8.4217767"><ele>203.0</ele><time>2026-04-25T08:14:20.986Z</time></trkpt><trkpt lat="45.0924817" lon="8.4214967"><ele>203.0</ele><time>2026-04-25T08:14:21.986Z</time></trkpt><trkpt lat="45.0924583" lon="8.4211967"><ele>203.0</ele><time>2026-04-25T08:14:22.986Z</time></trkpt><trkpt lat="45.0924033" lon="8.4208983"><ele>202.66666666666669</ele><time>2026-04-25T08:14:23.987Z</time></trkpt><trkpt lat="45.092335" lon="8.4206183"><ele>202.33333333333331</ele><time>2026-04-25T08:14:24.987Z</time></trkpt><trkpt lat="45.09226" lon="8.4203367"><ele>202.0</ele><time>2026-04-25T08:14:25.986Z</time></trkpt><trkpt lat="45.0921933" lon="8.420085"><ele>202.0</ele><time>2026-04-25T08:14:26.986Z</time></trkpt><trkpt lat="45.0921267" lon="8.41984"><ele>202.0</ele><time>2026-04-25T08:14:27.986Z</time></trkpt><trkpt lat="45.0920667" lon="8.4196333"><ele>202.0</ele><time>2026-04-25T08:14:28.986Z</time></trkpt><trkpt lat="45.0920183" lon="8.41943"><ele>203.5</ele><time>2026-04-25T08:14:29.986Z</time></trkpt><trkpt lat="45.09197" lon="8.41925"><ele>205.0</ele><time>2026-04-25T08:14:30.986Z</time></trkpt><trkpt lat="45.0919217" lon="8.4190767"><ele>206.5</ele><time>2026-04-25T08:14:31.986Z</time></trkpt><trkpt lat="45.09188" lon="8.4189017"><ele>208.0</ele><time>2026-04-25T08:14:32.986Z</time></trkpt><trkpt lat="45.0918467" lon="8.4186983"><ele>210.33333333333331</ele><time>2026-04-25T08:14:33.986Z</time></trkpt><trkpt lat="45.091795" lon="8.4185117"><ele>212.66666666666669</ele><time>2026-04-25T08:14:34.987Z</time></trkpt><trkpt lat="45.0917283" lon="8.4183067"><ele>215.0</ele><time>2026-04-25T08:14:35.986Z</time></trkpt><trkpt lat="45.091655" lon="8.418085"><ele>216.0</ele><time>2026-04-25T08:14:36.986Z</time></trkpt><trkpt lat="45.0915917" lon="8.4178533"><ele>217.0</ele><time>2026-04-25T08:14:37.986Z</time></trkpt><trkpt lat="45.0915317" lon="8.4176383"><ele>218.0</ele><time>2026-04-25T08:14:38.987Z</time></trkpt><trkpt lat="45.0914683" lon="8.4174083"><ele>217.0</ele><time>2026-04-25T08:14:39.986Z</time></trkpt><trkpt lat="45.0914033" lon="8.4171783"><ele>216.0</ele><time>2026-04-25T08:14:40.987Z</time></trkpt><trkpt lat="45.0913317" lon="8.416965"><ele>215.0</ele><time>2026-04-25T08:14:41.986Z</time></trkpt><trkpt lat="45.0912333" lon="8.4167783"><ele>215.0</ele><time>2026-04-25T08:14:42.987Z</time></trkpt><trkpt lat="45.0911017" lon="8.4166133"><ele>215.0</ele><time>2026-04-25T08:14:43.987Z</time></trkpt><trkpt lat="45.0909367" lon="8.4164567"><ele>215.0</ele><time>2026-04-25T08:14:44.987Z</time></trkpt><trkpt lat="45.0907483" lon="8.4162717"><ele>217.33333333333334</ele><time>2026-04-25T08:14:45.986Z</time></trkpt><trkpt lat="45.0905583" lon="8.4161033"><ele>219.66666666666669</ele><time>2026-04-25T08:14:46.986Z</time></trkpt><trkpt lat="45.0903867" lon="8.4159183"><ele>222.0</ele><time>2026-04-25T08:14:47.987Z</time></trkpt><trkpt lat="45.0902233" lon="8.4157517"><ele>222.0</ele><time>2026-04-25T08:14:48.987Z</time></trkpt><trkpt lat="45.0900617" lon="8.41559"><ele>222.0</ele><time>2026-04-25T08:14:49.987Z</time></trkpt><trkpt lat="45.0898883" lon="8.415415"><ele>222.0</ele><time>2026-04-25T08:14:50.986Z</time></trkpt><trkpt lat="45.0896983" lon="8.4152233"><ele>228.0</ele><time>2026-04-25T08:14:51.987Z</time></trkpt><trkpt lat="45.0895017" lon="8.4149967"><ele>234.0</ele><time>2026-04-25T08:14:52.987Z</time></trkpt><trkpt lat="45.0893033" lon="8.4147633"><ele>235.66666666666669</ele><time>2026-04-25T08:14:53.987Z</time></trkpt><trkpt lat="45.089135" lon="8.4145167"><ele>237.33333333333334</ele><time>2026-04-25T08:14:54.987Z</time></trkpt><trkpt lat="45.089005" lon="8.4142883"><ele>239.0</ele><time>2026-04-25T08:14:55.986Z</time></trkpt><trkpt lat="45.0888817" lon="8.4140617"><ele>239.0</ele><time>2026-04-25T08:14:56.986Z</time></trkpt><trkpt lat="45.08876" lon="8.4138467"><ele>239.0</ele><time>2026-04-25T08:14:57.987Z</time></trkpt><trkpt lat="45.0886433" lon="8.4136317"><ele>239.0</ele><time>2026-04-25T08:14:58.986Z</time></trkpt><trkpt lat="45.0884983" lon="8.4134467"><ele>239.0</ele><time>2026-04-25T08:14:59.986Z</time></trkpt><trkpt lat="45.0883433" lon="8.4132917"><ele>239.0</ele><time>2026-04-25T08:15:00.987Z</time></trkpt><trkpt lat="45.0881833" lon="8.4131583"><ele>239.0</ele><time>2026-04-25T08:15:01.986Z</time></trkpt><trkpt lat="45.08801" lon="8.4130717"><ele>239.0</ele><time>2026-04-25T08:15:02.986Z</time></trkpt><trkpt lat="45.087845" lon="8.4130167"><ele>239.0</ele><time>2026-04-25T08:15:03.986Z</time></trkpt><trkpt lat="45.087655" lon="8.4130233"><ele>239.0</ele><time>2026-04-25T08:15:04.986Z</time></trkpt><trkpt lat="45.087455" lon="8.41306"><ele>237.66666666666669</ele><time>2026-04-25T08:15:05.986Z</time></trkpt><trkpt lat="45.0872467" lon="8.41312"><ele>236.33333333333331</ele><time>2026-04-25T08:15:06.986Z</time></trkpt><trkpt lat="45.08705" lon="8.4131983"><ele>235.0</ele><time>2026-04-25T08:15:07.987Z</time></trkpt><trkpt lat="45.0868483" lon="8.41328"><ele>235.0</ele><time>2026-04-25T08:15:08.987Z</time></trkpt><trkpt lat="45.0866333" lon="8.4133333"><ele>235.0</ele><time>2026-04-25T08:15:09.986Z</time></trkpt><trkpt lat="45.0864233" lon="8.41339"><ele>235.0</ele><time>2026-04-25T08:15:10.986Z</time></trkpt><trkpt lat="45.0862317" lon="8.4134533"><ele>234.33333333333331</ele><time>2026-04-25T08:15:11.986Z</time></trkpt><trkpt lat="45.08605" lon="8.4134933"><ele>233.66666666666669</ele><time>2026-04-25T08:15:12.987Z</time></trkpt><trkpt lat="45.0858833" lon="8.4134983"><ele>233.0</ele><time>2026-04-25T08:15:13.987Z</time></trkpt><trkpt lat="45.085745" lon="8.4134817"><ele>230.0</ele><time>2026-04-25T08:15:14.986Z</time></trkpt><trkpt lat="45.085615" lon="8.4134133"><ele>227.0</ele><time>2026-04-25T08:15:15.986Z</time></trkpt><trkpt lat="45.0854983" lon="8.413255"><ele>224.0</ele><time>2026-04-25T08:15:16.987Z</time></trkpt><trkpt lat="45.0853967" lon="8.4130633"><ele>227.66666666666669</ele><time>2026-04-25T08:15:17.987Z</time></trkpt><trkpt lat="45.08527" lon="8.4128867"><ele>231.33333333333331</ele><time>2026-04-25T08:15:18.987Z</time></trkpt><trkpt lat="45.0851133" lon="8.412775"><ele>235.0</ele><time>2026-04-25T08:15:19.986Z</time></trkpt><trkpt lat="45.084935" lon="8.412725"><ele>234.33333333333331</ele><time>2026-04-25T08:15:20.986Z</time></trkpt><trkpt lat="45.0847383" lon="8.412735"><ele>233.66666666666669</ele><time>2026-04-25T08:15:21.986Z</time></trkpt><trkpt lat="45.0845383" lon="8.4127467"><ele>233.0</ele><time>2026-04-25T08:15:22.987Z</time></trkpt><trkpt lat="45.084335" lon="8.4127383"><ele>233.0</ele><time>2026-04-25T08:15:23.986Z</time></trkpt><trkpt lat="45.084135" lon="8.4127133"><ele>233.0</ele><time>2026-04-25T08:15:24.986Z</time></trkpt><trkpt lat="45.0839267" lon="8.412665"><ele>233.0</ele><time>2026-04-25T08:15:25.986Z</time></trkpt><trkpt lat="45.0837167" lon="8.41262"><ele>231.0</ele><time>2026-04-25T08:15:26.987Z</time></trkpt><trkpt lat="45.0835117" lon="8.41258"><ele>229.0</ele><time>2026-04-25T08:15:27.987Z</time></trkpt><trkpt lat="45.0832983" lon="8.4125333"><ele>227.0</ele><time>2026-04-25T08:15:28.986Z</time></trkpt><trkpt lat="45.083085" lon="8.4124917"><ele>227.0</ele><time>2026-04-25T08:15:29.987Z</time></trkpt><trkpt lat="45.0828833" lon="8.412445"><ele>227.0</ele><time>2026-04-25T08:15:30.986Z</time></trkpt><trkpt lat="45.0826883" lon="8.41241"><ele>227.0</ele><time>2026-04-25T08:15:31.986Z</time></trkpt><trkpt lat="45.0824867" lon="8.4123667"><ele>227.33333333333334</ele><time>2026-04-25T08:15:32.987Z</time></trkpt><trkpt lat="45.0822917" lon="8.412315"><ele>227.66666666666669</ele><time>2026-04-25T08:15:33.987Z</time></trkpt><trkpt lat="45.0820883" lon="8.4122467"><ele>228.0</ele><time>2026-04-25T08:15:34.986Z</time></trkpt><trkpt lat="45.08192" lon="8.412165"><ele>226.66666666666669</ele><time>2026-04-25T08:15:35.986Z</time></trkpt><trkpt lat="45.0817783" lon="8.4120517"><ele>225.33333333333334</ele><time>2026-04-25T08:15:36.987Z</time></trkpt><trkpt lat="45.0816283" lon="8.4119283"><ele>224.0</ele><time>2026-04-25T08:15:37.986Z</time></trkpt><trkpt lat="45.0815" lon="8.4117633"><ele>224.0</ele><time>2026-04-25T08:15:38.986Z</time></trkpt><trkpt lat="45.0813867" lon="8.4115933"><ele>224.0</ele><time>2026-04-25T08:15:39.986Z</time></trkpt><trkpt lat="45.0812833" lon="8.4114317"><ele>224.0</ele><time>2026-04-25T08:15:40.986Z</time></trkpt><trkpt lat="45.08117" lon="8.4112717"><ele>221.0</ele><time>2026-04-25T08:15:41.986Z</time></trkpt><trkpt lat="45.0810383" lon="8.4111283"><ele>218.0</ele><time>2026-04-25T08:15:42.986Z</time></trkpt><trkpt lat="45.0809017" lon="8.4110683"><ele>215.0</ele><time>2026-04-25T08:15:43.986Z</time></trkpt><trkpt lat="45.0807417" lon="8.411065"><ele>214.33333333333334</ele><time>2026-04-25T08:15:44.986Z</time></trkpt><trkpt lat="45.0805733" lon="8.41109"><ele>213.66666666666669</ele><time>2026-04-25T08:15:45.987Z</time></trkpt><trkpt lat="45.080395" lon="8.4111317"><ele>213.0</ele><time>2026-04-25T08:15:46.986Z</time></trkpt><trkpt lat="45.08023" lon="8.4111467"><ele>213.0</ele><time>2026-04-25T08:15:47.986Z</time></trkpt><trkpt lat="45.08008" lon="8.4110717"><ele>213.0</ele><time>2026-04-25T08:15:48.986Z</time></trkpt><trkpt lat="45.0799383" lon="8.410945"><ele>213.0</ele><time>2026-04-25T08:15:49.987Z</time></trkpt><trkpt lat="45.079805" lon="8.41078"><ele>214.0</ele><time>2026-04-25T08:15:50.986Z</time></trkpt><trkpt lat="45.0796717" lon="8.410605"><ele>215.0</ele><time>2026-04-25T08:15:51.986Z</time></trkpt><trkpt lat="45.0795383" lon="8.4104733"><ele>216.0</ele><time>2026-04-25T08:15:52.986Z</time></trkpt><trkpt lat="45.0793717" lon="8.410395"><ele>213.33333333333331</ele><time>2026-04-25T08:15:53.987Z</time></trkpt><trkpt lat="45.0791867" lon="8.4103783"><ele>210.66666666666666</ele><time>2026-04-25T08:15:54.986Z</time></trkpt><trkpt lat="45.0790033" lon="8.41038"><ele>208.0</ele><time>2026-04-25T08:15:55.986Z</time></trkpt><trkpt lat="45.07883" lon="8.4103517"><ele>208.0</ele><time>2026-04-25T08:15:56.987Z</time></trkpt><trkpt lat="45.0786767" lon="8.4102883"><ele>208.0</ele><time>2026-04-25T08:15:57.986Z</time></trkpt><trkpt lat="45.0785367" lon="8.4101633"><ele>208.0</ele><time>2026-04-25T08:15:58.987Z</time></trkpt><trkpt lat="45.07843" lon="8.40998"><ele>208.0</ele><time>2026-04-25T08:15:59.987Z</time></trkpt><trkpt lat="45.078345" lon="8.409765"><ele>208.0</ele><time>2026-04-25T08:16:00.986Z</time></trkpt><trkpt lat="45.0782533" lon="8.4095483"><ele>208.0</ele><time>2026-04-25T08:16:01.986Z</time></trkpt><trkpt lat="45.07815" lon="8.4093317"><ele>208.0</ele><time>2026-04-25T08:16:02.986Z</time></trkpt><trkpt lat="45.0780217" lon="8.409145"><ele>208.0</ele><time>2026-04-25T08:16:03.987Z</time></trkpt><trkpt lat="45.0778617" lon="8.4089983"><ele>208.0</ele><time>2026-04-25T08:16:04.986Z</time></trkpt><trkpt lat="45.0776733" lon="8.4088933"><ele>206.0</ele><time>2026-04-25T08:16:05.986Z</time></trkpt><trkpt lat="45.07747" lon="8.4087967"><ele>204.0</ele><time>2026-04-25T08:16:06.987Z</time></trkpt><trkpt lat="45.07726" lon="8.408705"><ele>202.0</ele><time>2026-04-25T08:16:07.986Z</time></trkpt><trkpt lat="45.0770467" lon="8.4086167"><ele>202.0</ele><time>2026-04-25T08:16:08.986Z</time></trkpt><trkpt lat="45.0768283" lon="8.408525"><ele>202.0</ele><time>2026-04-25T08:16:09.986Z</time></trkpt><trkpt lat="45.07663" lon="8.40844"><ele>202.0</ele><time>2026-04-25T08:16:10.986Z</time></trkpt><trkpt lat="45.0764433" lon="8.4083633"><ele>202.0</ele><time>2026-04-25T08:16:11.986Z</time></trkpt><trkpt lat="45.0762583" lon="8.4082783"><ele>202.0</ele><time>2026-04-25T08:16:12.986Z</time></trkpt><trkpt lat="45.0760817" lon="8.40819"><ele>202.0</ele><time>2026-04-25T08:16:13.987Z</time></trkpt><trkpt lat="45.0759067" lon="8.4080667"><ele>201.66666666666666</ele><time>2026-04-25T08:16:14.987Z</time></trkpt><trkpt lat="45.0757417" lon="8.407925"><ele>201.33333333333331</ele><time>2026-04-25T08:16:15.986Z</time></trkpt><trkpt lat="45.075585" lon="8.4077567"><ele>201.0</ele><time>2026-04-25T08:16:16.986Z</time></trkpt><trkpt lat="45.075435" lon="8.407555"><ele>201.0</ele><time>2026-04-25T08:16:17.986Z</time></trkpt><trkpt lat="45.0752833" lon="8.407355"><ele>201.0</ele><time>2026-04-25T08:16:18.987Z</time></trkpt><trkpt lat="45.0751533" lon="8.4071617"><ele>201.0</ele><time>2026-04-25T08:16:19.987Z</time></trkpt><trkpt lat="45.0750067" lon="8.406955"><ele>199.33333333333331</ele><time>2026-04-25T08:16:20.986Z</time></trkpt><trkpt lat="45.0748467" lon="8.406755"><ele>197.66666666666666</ele><time>2026-04-25T08:16:21.986Z</time></trkpt><trkpt lat="45.074685" lon="8.4065533"><ele>196.0</ele><time>2026-04-25T08:16:22.987Z</time></trkpt><trkpt lat="45.07452" lon="8.4063333"><ele>194.0</ele><time>2026-04-25T08:16:23.987Z</time></trkpt><trkpt lat="45.07436" lon="8.4061117"><ele>192.0</ele><time>2026-04-25T08:16:24.986Z</time></trkpt><trkpt lat="45.0742" lon="8.40588"><ele>193.33333333333331</ele><time>2026-04-25T08:16:25.986Z</time></trkpt><trkpt lat="45.0740467" lon="8.4056567"><ele>194.66666666666666</ele><time>2026-04-25T08:16:26.986Z</time></trkpt><trkpt lat="45.07389" lon="8.4054383"><ele>196.0</ele><time>2026-04-25T08:16:27.987Z</time></trkpt><trkpt lat="45.0737317" lon="8.4052317"><ele>193.0</ele><time>2026-04-25T08:16:28.986Z</time></trkpt><trkpt lat="45.0735833" lon="8.4050217"><ele>190.0</ele><time>2026-04-25T08:16:29.986Z</time></trkpt><trkpt lat="45.0734517" lon="8.404825"><ele>187.0</ele><time>2026-04-25T08:16:30.987Z</time></trkpt><trkpt lat="45.0733067" lon="8.4046517"><ele>183.33333333333334</ele><time>2026-04-25T08:16:31.986Z</time></trkpt><trkpt lat="45.0731533" lon="8.4044983"><ele>179.66666666666666</ele><time>2026-04-25T08:16:32.987Z</time></trkpt><trkpt lat="45.0729933" lon="8.4044217"><ele>176.0</ele><time>2026-04-25T08:16:33.986Z</time></trkpt><trkpt lat="45.0728067" lon="8.4043733"><ele>176.0</ele><time>2026-04-25T08:16:34.986Z</time></trkpt><trkpt lat="45.0726083" lon="8.4043567"><ele>176.0</ele><time>2026-04-25T08:16:35.986Z</time></trkpt><trkpt lat="45.0724" lon="8.404345"><ele>176.0</ele><time>2026-04-25T08:16:36.986Z</time></trkpt><trkpt lat="45.0721767" lon="8.4043383"><ele>174.5</ele><time>2026-04-25T08:16:37.987Z</time></trkpt><trkpt lat="45.071945" lon="8.4043183"><ele>173.0</ele><time>2026-04-25T08:16:38.986Z</time></trkpt><trkpt lat="45.07172" lon="8.4043083"><ele>172.66666666666666</ele><time>2026-04-25T08:16:39.986Z</time></trkpt><trkpt lat="45.0714983" lon="8.4043133"><ele>172.33333333333334</ele><time>2026-04-25T08:16:40.986Z</time></trkpt><trkpt lat="45.0712917" lon="8.4043067"><ele>172.0</ele><time>2026-04-25T08:16:41.987Z</time></trkpt><trkpt lat="45.0710817" lon="8.4042983"><ele>172.0</ele><time>2026-04-25T08:16:42.986Z</time></trkpt><trkpt lat="45.07088" lon="8.404295"><ele>172.0</ele><time>2026-04-25T08:16:43.987Z</time></trkpt><trkpt lat="45.0706867" lon="8.404275"><ele>172.0</ele><time>2026-04-25T08:16:44.986Z</time></trkpt><trkpt lat="45.070505" lon="8.4042533"><ele>171.33333333333334</ele><time>2026-04-25T08:16:45.986Z</time></trkpt><trkpt lat="45.0703333" lon="8.4042433"><ele>170.66666666666666</ele><time>2026-04-25T08:16:46.986Z</time></trkpt><trkpt lat="45.07014" lon="8.4042283"><ele>170.0</ele><time>2026-04-25T08:16:47.986Z</time></trkpt><trkpt lat="45.0699567" lon="8.4041917"><ele>171.66666666666666</ele><time>2026-04-25T08:16:48.986Z</time></trkpt><trkpt lat="45.06976" lon="8.4041233"><ele>173.33333333333334</ele><time>2026-04-25T08:16:49.987Z</time></trkpt><trkpt lat="45.0695667" lon="8.4040333"><ele>175.0</ele><time>2026-04-25T08:16:50.987Z</time></trkpt><trkpt lat="45.0693783" lon="8.4039017"><ele>172.66666666666669</ele><time>2026-04-25T08:16:51.986Z</time></trkpt><trkpt lat="45.0692033" lon="8.403755"><ele>170.33333333333334</ele><time>2026-04-25T08:16:52.985Z</time></trkpt><trkpt lat="45.069015" lon="8.40359"><ele>168.0</ele><time>2026-04-25T08:16:53.986Z</time></trkpt><trkpt lat="45.0688317" lon="8.4034317"><ele>168.0</ele><time>2026-04-25T08:16:54.986Z</time></trkpt><trkpt lat="45.0686433" lon="8.4032733"><ele>168.0</ele><time>2026-04-25T08:16:55.985Z</time></trkpt><trkpt lat="45.06846" lon="8.4031117"><ele>168.0</ele><time>2026-04-25T08:16:56.985Z</time></trkpt><trkpt lat="45.0682633" lon="8.4029517"><ele>167.0</ele><time>2026-04-25T08:16:57.986Z</time></trkpt><trkpt lat="45.068075" lon="8.4028033"><ele>166.0</ele><time>2026-04-25T08:16:58.985Z</time></trkpt><trkpt lat="45.06789" lon="8.40268"><ele>165.0</ele><time>2026-04-25T08:16:59.985Z</time></trkpt><trkpt lat="45.0677067" lon="8.4025483"><ele>165.0</ele><time>2026-04-25T08:17:00.985Z</time></trkpt><trkpt lat="45.06754" lon="8.4024567"><ele>165.0</ele><time>2026-04-25T08:17:01.986Z</time></trkpt><trkpt lat="45.0673517" lon="8.402375"><ele>165.0</ele><time>2026-04-25T08:17:02.986Z</time></trkpt><trkpt lat="45.0671633" lon="8.4023183"><ele>165.33333333333334</ele><time>2026-04-25T08:17:03.985Z</time></trkpt><trkpt lat="45.066955" lon="8.4022667"><ele>165.66666666666669</ele><time>2026-04-25T08:17:04.985Z</time></trkpt><trkpt lat="45.0667333" lon="8.4022167"><ele>166.0</ele><time>2026-04-25T08:17:05.986Z</time></trkpt><trkpt lat="45.06651" lon="8.40216"><ele>163.0</ele><time>2026-04-25T08:17:06.986Z</time></trkpt><trkpt lat="45.0662783" lon="8.402105"><ele>160.0</ele><time>2026-04-25T08:17:07.986Z</time></trkpt><trkpt lat="45.0660267" lon="8.4020467"><ele>160.0</ele><time>2026-04-25T08:17:08.985Z</time></trkpt><trkpt lat="45.06582" lon="8.40204"><ele>160.0</ele><time>2026-04-25T08:17:09.985Z</time></trkpt><trkpt lat="45.0656" lon="8.4019867"><ele>160.0</ele><time>2026-04-25T08:17:10.986Z</time></trkpt><trkpt lat="45.0653817" lon="8.4019417"><ele>159.0</ele><time>2026-04-25T08:17:11.986Z</time></trkpt><trkpt lat="45.0651633" lon="8.4018917"><ele>158.0</ele><time>2026-04-25T08:17:12.985Z</time></trkpt><trkpt lat="45.06495" lon="8.4018483"><ele>157.0</ele><time>2026-04-25T08:17:13.985Z</time></trkpt><trkpt lat="45.0647283" lon="8.4018133"><ele>157.0</ele><time>2026-04-25T08:17:14.985Z</time></trkpt><trkpt lat="45.0645017" lon="8.4017783"><ele>157.0</ele><time>2026-04-25T08:17:15.985Z</time></trkpt><trkpt lat="45.0642817" lon="8.4017267"><ele>158.0</ele><time>2026-04-25T08:17:16.985Z</time></trkpt><trkpt lat="45.0640733" lon="8.4016683"><ele>159.0</ele><time>2026-04-25T08:17:17.986Z</time></trkpt><trkpt lat="45.063895" lon="8.40161"><ele>160.0</ele><time>2026-04-25T08:17:18.986Z</time></trkpt><trkpt lat="45.0637333" lon="8.40155"><ele>160.0</ele><time>2026-04-25T08:17:19.985Z</time></trkpt><trkpt lat="45.063565" lon="8.4014367"><ele>160.0</ele><time>2026-04-25T08:17:20.985Z</time></trkpt><trkpt lat="45.0633783" lon="8.4012883"><ele>160.0</ele><time>2026-04-25T08:17:21.985Z</time></trkpt><trkpt lat="45.06318" lon="8.4011283"><ele>158.33333333333334</ele><time>2026-04-25T08:17:22.986Z</time></trkpt><trkpt lat="45.06299" lon="8.4009533"><ele>156.66666666666666</ele><time>2026-04-25T08:17:23.985Z</time></trkpt><trkpt lat="45.0628017" lon="8.40079"><ele>155.0</ele><time>2026-04-25T08:17:24.985Z</time></trkpt><trkpt lat="45.0626083" lon="8.4006233"><ele>155.0</ele><time>2026-04-25T08:17:25.985Z</time></trkpt><trkpt lat="45.0624167" lon="8.400455"><ele>155.0</ele><time>2026-04-25T08:17:26.985Z</time></trkpt><trkpt lat="45.0622267" lon="8.4003117"><ele>155.0</ele><time>2026-04-25T08:17:27.985Z</time></trkpt><trkpt lat="45.0620183" lon="8.4001683"><ele>155.0</ele><time>2026-04-25T08:17:28.985Z</time></trkpt><trkpt lat="45.0618033" lon="8.4000317"><ele>155.0</ele><time>2026-04-25T08:17:29.985Z</time></trkpt><trkpt lat="45.061585" lon="8.3999167"><ele>157.0</ele><time>2026-04-25T08:17:30.985Z</time></trkpt><trkpt lat="45.061355" lon="8.3998067"><ele>159.0</ele><time>2026-04-25T08:17:31.985Z</time></trkpt><trkpt lat="45.0611383" lon="8.3996983"><ele>156.0</ele><time>2026-04-25T08:17:32.985Z</time></trkpt><trkpt lat="45.0609217" lon="8.3995817"><ele>153.0</ele><time>2026-04-25T08:17:33.986Z</time></trkpt><trkpt lat="45.0607" lon="8.39945"><ele>153.0</ele><time>2026-04-25T08:17:34.985Z</time></trkpt><trkpt lat="45.0604767" lon="8.3993483"><ele>153.0</ele><time>2026-04-25T08:17:35.985Z</time></trkpt><trkpt lat="45.0602683" lon="8.3992367"><ele>153.0</ele><time>2026-04-25T08:17:36.986Z</time></trkpt><trkpt lat="45.0600483" lon="8.3991133"><ele>153.0</ele><time>2026-04-25T08:17:37.986Z</time></trkpt><trkpt lat="45.0598267" lon="8.398995"><ele>152.5</ele><time>2026-04-25T08:17:38.985Z</time></trkpt><trkpt lat="45.0596083" lon="8.3988783"><ele>152.0</ele><time>2026-04-25T08:17:39.985Z</time></trkpt><trkpt lat="45.059385" lon="8.39877"><ele>151.0</ele><time>2026-04-25T08:17:40.985Z</time></trkpt><trkpt lat="45.0591733" lon="8.3986633"><ele>150.0</ele><time>2026-04-25T08:17:41.985Z</time></trkpt><trkpt lat="45.0589583" lon="8.3985467"><ele>149.66666666666666</ele><time>2026-04-25T08:17:42.986Z</time></trkpt><trkpt lat="45.05875" lon="8.3984283"><ele>149.33333333333331</ele><time>2026-04-25T08:17:43.986Z</time></trkpt><trkpt lat="45.0585467" lon="8.3983183"><ele>149.0</ele><time>2026-04-25T08:17:44.985Z</time></trkpt><trkpt lat="45.05834" lon="8.3982067"><ele>149.0</ele><time>2026-04-25T08:17:45.985Z</time></trkpt><trkpt lat="45.05813" lon="8.3980933"><ele>149.0</ele><time>2026-04-25T08:17:46.985Z</time></trkpt><trkpt lat="45.0579167" lon="8.397985"><ele>148.0</ele><time>2026-04-25T08:17:47.985Z</time></trkpt><trkpt lat="45.057705" lon="8.3978833"><ele>147.0</ele><time>2026-04-25T08:17:48.985Z</time></trkpt><trkpt lat="45.05749" lon="8.3977683"><ele>147.0</ele><time>2026-04-25T08:17:49.986Z</time></trkpt><trkpt lat="45.0572833" lon="8.3976617"><ele>147.0</ele><time>2026-04-25T08:17:50.985Z</time></trkpt><trkpt lat="45.0570617" lon="8.3975533"><ele>147.0</ele><time>2026-04-25T08:17:51.985Z</time></trkpt><trkpt lat="45.0568483" lon="8.397435"><ele>147.0</ele><time>2026-04-25T08:17:52.986Z</time></trkpt><trkpt lat="45.05664" lon="8.397315"><ele>147.0</ele><time>2026-04-25T08:17:53.986Z</time></trkpt><trkpt lat="45.0564183" lon="8.3971983"><ele>147.0</ele><time>2026-04-25T08:17:54.986Z</time></trkpt><trkpt lat="45.0561983" lon="8.39708"><ele>147.5</ele><time>2026-04-25T08:17:55.985Z</time></trkpt><trkpt lat="45.0559833" lon="8.3969683"><ele>148.0</ele><time>2026-04-25T08:17:56.986Z</time></trkpt><trkpt lat="45.0557733" lon="8.3968583"><ele>148.33333333333334</ele><time>2026-04-25T08:17:57.985Z</time></trkpt><trkpt lat="45.05557" lon="8.3967633"><ele>148.66666666666666</ele><time>2026-04-25T08:17:58.985Z</time></trkpt><trkpt lat="45.05535" lon="8.3966517"><ele>149.0</ele><time>2026-04-25T08:17:59.986Z</time></trkpt><trkpt lat="45.0551483" lon="8.3965383"><ele>148.66666666666666</ele><time>2026-04-25T08:18:00.986Z</time></trkpt><trkpt lat="45.05495" lon="8.3964533"><ele>148.33333333333334</ele><time>2026-04-25T08:18:01.986Z</time></trkpt><trkpt lat="45.0547533" lon="8.3963333"><ele>148.0</ele><time>2026-04-25T08:18:02.985Z</time></trkpt><trkpt lat="45.0545417" lon="8.3962167"><ele>147.33333333333334</ele><time>2026-04-25T08:18:03.985Z</time></trkpt><trkpt lat="45.054335" lon="8.3961067"><ele>146.66666666666666</ele><time>2026-04-25T08:18:04.985Z</time></trkpt><trkpt lat="45.054125" lon="8.395995"><ele>146.0</ele><time>2026-04-25T08:18:05.985Z</time></trkpt><trkpt lat="45.0539183" lon="8.3958967"><ele>148.0</ele><time>2026-04-25T08:18:06.986Z</time></trkpt><trkpt lat="45.0537033" lon="8.3957833"><ele>150.0</ele><time>2026-04-25T08:18:07.985Z</time></trkpt><trkpt lat="45.0534933" lon="8.395675"><ele>151.0</ele><time>2026-04-25T08:18:08.985Z</time></trkpt><trkpt lat="45.053285" lon="8.3955767"><ele>152.0</ele><time>2026-04-25T08:18:09.986Z</time></trkpt><trkpt lat="45.0530717" lon="8.3954617"><ele>153.0</ele><time>2026-04-25T08:18:10.985Z</time></trkpt><trkpt lat="45.0528817" lon="8.3953517"><ele>153.0</ele><time>2026-04-25T08:18:11.985Z</time></trkpt><trkpt lat="45.052665" lon="8.3952317"><ele>153.0</ele><time>2026-04-25T08:18:12.985Z</time></trkpt><trkpt lat="45.0524717" lon="8.39513"><ele>153.0</ele><time>2026-04-25T08:18:13.985Z</time></trkpt><trkpt lat="45.0522467" lon="8.3950133"><ele>151.5</ele><time>2026-04-25T08:18:14.986Z</time></trkpt><trkpt lat="45.05203" lon="8.3948983"><ele>150.0</ele><time>2026-04-25T08:18:15.985Z</time></trkpt><trkpt lat="45.0518067" lon="8.3947817"><ele>148.66666666666666</ele><time>2026-04-25T08:18:16.985Z</time></trkpt><trkpt lat="45.0516" lon="8.3946783"><ele>147.33333333333331</ele><time>2026-04-25T08:18:17.985Z</time></trkpt><trkpt lat="45.05139" lon="8.39456"><ele>146.0</ele><time>2026-04-25T08:18:18.985Z</time></trkpt><trkpt lat="45.0511733" lon="8.3944567"><ele>146.0</ele><time>2026-04-25T08:18:19.985Z</time></trkpt><trkpt lat="45.0509533" lon="8.3943467"><ele>146.0</ele><time>2026-04-25T08:18:20.986Z</time></trkpt><trkpt lat="45.0507417" lon="8.3942233"><ele>146.0</ele><time>2026-04-25T08:18:21.985Z</time></trkpt><trkpt lat="45.0505317" lon="8.3941017"><ele>146.0</ele><time>2026-04-25T08:18:22.986Z</time></trkpt><trkpt lat="45.0503117" lon="8.3939817"><ele>146.0</ele><time>2026-04-25T08:18:23.986Z</time></trkpt><trkpt lat="45.0501" lon="8.3938683"><ele>146.0</ele><time>2026-04-25T08:18:24.985Z</time></trkpt><trkpt lat="45.0498883" lon="8.3937533"><ele>146.5</ele><time>2026-04-25T08:18:25.985Z</time></trkpt><trkpt lat="45.04967" lon="8.393635"><ele>147.0</ele><time>2026-04-25T08:18:26.986Z</time></trkpt><trkpt lat="45.0494633" lon="8.3935383"><ele>147.0</ele><time>2026-04-25T08:18:27.986Z</time></trkpt><trkpt lat="45.0492483" lon="8.3934283"><ele>147.0</ele><time>2026-04-25T08:18:28.985Z</time></trkpt><trkpt lat="45.0490233" lon="8.393305"><ele>148.0</ele><time>2026-04-25T08:18:29.986Z</time></trkpt><trkpt lat="45.0488117" lon="8.3931817"><ele>149.0</ele><time>2026-04-25T08:18:30.986Z</time></trkpt><trkpt lat="45.0486117" lon="8.3930433"><ele>148.66666666666666</ele><time>2026-04-25T08:18:31.986Z</time></trkpt><trkpt lat="45.04842" lon="8.3928783"><ele>148.33333333333334</ele><time>2026-04-25T08:18:32.986Z</time></trkpt><trkpt lat="45.0482383" lon="8.39271"><ele>148.0</ele><time>2026-04-25T08:18:33.985Z</time></trkpt><trkpt lat="45.0480867" lon="8.3925317"><ele>148.5</ele><time>2026-04-25T08:18:34.985Z</time></trkpt><trkpt lat="45.0479067" lon="8.3923233"><ele>149.0</ele><time>2026-04-25T08:18:35.986Z</time></trkpt><trkpt lat="45.0477183" lon="8.3921267"><ele>149.0</ele><time>2026-04-25T08:18:36.985Z</time></trkpt><trkpt lat="45.047525" lon="8.391945"><ele>149.0</ele><time>2026-04-25T08:18:37.986Z</time></trkpt><trkpt lat="45.0473367" lon="8.3917683"><ele>149.66666666666666</ele><time>2026-04-25T08:18:38.985Z</time></trkpt><trkpt lat="45.0471483" lon="8.3915733"><ele>150.33333333333334</ele><time>2026-04-25T08:18:39.985Z</time></trkpt><trkpt lat="45.0469783" lon="8.391395"><ele>151.0</ele><time>2026-04-25T08:18:40.985Z</time></trkpt><trkpt lat="45.0468033" lon="8.391215"><ele>151.0</ele><time>2026-04-25T08:18:41.985Z</time></trkpt><trkpt lat="45.0466283" lon="8.3910233"><ele>151.0</ele><time>2026-04-25T08:18:42.985Z</time></trkpt><trkpt lat="45.04645" lon="8.3908317"><ele>151.0</ele><time>2026-04-25T08:18:43.985Z</time></trkpt><trkpt lat="45.0462617" lon="8.3906467"><ele>154.0</ele><time>2026-04-25T08:18:44.985Z</time></trkpt><trkpt lat="45.046075" lon="8.3904567"><ele>157.0</ele><time>2026-04-25T08:18:45.985Z</time></trkpt><trkpt lat="45.0458867" lon="8.3902817"><ele>158.66666666666669</ele><time>2026-04-25T08:18:46.985Z</time></trkpt><trkpt lat="45.045725" lon="8.3901"><ele>160.33333333333334</ele><time>2026-04-25T08:18:47.985Z</time></trkpt><trkpt lat="45.0455583" lon="8.38989"><ele>162.0</ele><time>2026-04-25T08:18:48.985Z</time></trkpt><trkpt lat="45.0454067" lon="8.3896667"><ele>162.0</ele><time>2026-04-25T08:18:49.985Z</time></trkpt><trkpt lat="45.045245" lon="8.38942"><ele>162.0</ele><time>2026-04-25T08:18:50.985Z</time></trkpt><trkpt lat="45.0450967" lon="8.3891867"><ele>162.66666666666666</ele><time>2026-04-25T08:18:51.986Z</time></trkpt><trkpt lat="45.0449533" lon="8.388945"><ele>163.33333333333331</ele><time>2026-04-25T08:18:52.985Z</time></trkpt><trkpt lat="45.04481" lon="8.3887067"><ele>164.0</ele><time>2026-04-25T08:18:53.985Z</time></trkpt><trkpt lat="45.044675" lon="8.388475"><ele>164.0</ele><time>2026-04-25T08:18:54.986Z</time></trkpt><trkpt lat="45.0445183" lon="8.38823"><ele>164.0</ele><time>2026-04-25T08:18:55.985Z</time></trkpt><trkpt lat="45.044375" lon="8.388"><ele>164.5</ele><time>2026-04-25T08:18:56.985Z</time></trkpt><trkpt lat="45.044225" lon="8.3877617"><ele>165.0</ele><time>2026-04-25T08:18:57.985Z</time></trkpt><trkpt lat="45.0440717" lon="8.3875233"><ele>168.5</ele><time>2026-04-25T08:18:58.985Z</time></trkpt><trkpt lat="45.043925" lon="8.3872917"><ele>172.0</ele><time>2026-04-25T08:18:59.985Z</time></trkpt><trkpt lat="45.0437683" lon="8.3870517"><ele>172.0</ele><time>2026-04-25T08:19:00.985Z</time></trkpt><trkpt lat="45.0436333" lon="8.3868283"><ele>172.0</ele><time>2026-04-25T08:19:01.985Z</time></trkpt><trkpt lat="45.04348" lon="8.3866167"><ele>172.0</ele><time>2026-04-25T08:19:02.985Z</time></trkpt><trkpt lat="45.04335" lon="8.386395"><ele>174.33333333333334</ele><time>2026-04-25T08:19:03.985Z</time></trkpt><trkpt lat="45.0432333" lon="8.3861833"><ele>176.66666666666666</ele><time>2026-04-25T08:19:04.985Z</time></trkpt><trkpt lat="45.043115" lon="8.3859767"><ele>179.0</ele><time>2026-04-25T08:19:05.986Z</time></trkpt><trkpt lat="45.0430283" lon="8.38578"><ele>179.0</ele><time>2026-04-25T08:19:06.985Z</time></trkpt><trkpt lat="45.0429767" lon="8.3855717"><ele>179.0</ele><time>2026-04-25T08:19:07.985Z</time></trkpt><trkpt lat="45.0429917" lon="8.38533"><ele>179.0</ele><time>2026-04-25T08:19:08.986Z</time></trkpt><trkpt lat="45.0430417" lon="8.385125"><ele>178.5</ele><time>2026-04-25T08:19:09.986Z</time></trkpt><trkpt lat="45.0430517" lon="8.3849133"><ele>178.0</ele><time>2026-04-25T08:19:10.985Z</time></trkpt><trkpt lat="45.0430233" lon="8.3847283"><ele>177.5</ele><time>2026-04-25T08:19:11.986Z</time></trkpt><trkpt lat="45.0429383" lon="8.3845817"><ele>177.0</ele><time>2026-04-25T08:19:12.985Z</time></trkpt><trkpt lat="45.0428283" lon="8.3844633"><ele>177.33333333333334</ele><time>2026-04-25T08:19:13.985Z</time></trkpt><trkpt lat="45.042685" lon="8.3844033"><ele>177.66666666666669</ele><time>2026-04-25T08:19:14.986Z</time></trkpt><trkpt lat="45.04251" lon="8.3843633"><ele>178.0</ele><time>2026-04-25T08:19:15.985Z</time></trkpt><trkpt lat="45.0423167" lon="8.3843333"><ele>178.0</ele><time>2026-04-25T08:19:16.985Z</time></trkpt><trkpt lat="45.0421183" lon="8.384305"><ele>178.0</ele><time>2026-04-25T08:19:17.986Z</time></trkpt><trkpt lat="45.041925" lon="8.3842683"><ele>178.0</ele><time>2026-04-25T08:19:18.986Z</time></trkpt><trkpt lat="45.0417483" lon="8.3842067"><ele>179.33333333333334</ele><time>2026-04-25T08:19:19.985Z</time></trkpt><trkpt lat="45.0415833" lon="8.3841133"><ele>180.66666666666666</ele><time>2026-04-25T08:19:20.985Z</time></trkpt><trkpt lat="45.0414483" lon="8.38399"><ele>182.0</ele><time>2026-04-25T08:19:21.985Z</time></trkpt><trkpt lat="45.0413483" lon="8.383785"><ele>182.0</ele><time>2026-04-25T08:19:22.985Z</time></trkpt><trkpt lat="45.0412433" lon="8.383555"><ele>182.0</ele><time>2026-04-25T08:19:23.985Z</time></trkpt><trkpt lat="45.0411333" lon="8.3832983"><ele>182.0</ele><time>2026-04-25T08:19:24.985Z</time></trkpt><trkpt lat="45.04101" lon="8.383035"><ele>182.33333333333331</ele><time>2026-04-25T08:19:25.985Z</time></trkpt><trkpt lat="45.0408967" lon="8.3827783"><ele>182.66666666666666</ele><time>2026-04-25T08:19:26.985Z</time></trkpt><trkpt lat="45.0407917" lon="8.3825217"><ele>183.0</ele><time>2026-04-25T08:19:27.986Z</time></trkpt><trkpt lat="45.04069" lon="8.3822983"><ele>186.66666666666669</ele><time>2026-04-25T08:19:28.986Z</time></trkpt><trkpt lat="45.0406" lon="8.3820717"><ele>190.33333333333334</ele><time>2026-04-25T08:19:29.985Z</time></trkpt><trkpt lat="45.0405583" lon="8.3818583"><ele>194.0</ele><time>2026-04-25T08:19:30.985Z</time></trkpt><trkpt lat="45.0405533" lon="8.3816133"><ele>194.0</ele><time>2026-04-25T08:19:31.985Z</time></trkpt><trkpt lat="45.0405933" lon="8.3813533"><ele>194.0</ele><time>2026-04-25T08:19:32.986Z</time></trkpt><trkpt lat="45.0406617" lon="8.3810983"><ele>194.0</ele><time>2026-04-25T08:19:33.986Z</time></trkpt><trkpt lat="45.040735" lon="8.3808383"><ele>194.33333333333334</ele><time>2026-04-25T08:19:34.985Z</time></trkpt><trkpt lat="45.0408083" lon="8.380575"><ele>194.66666666666669</ele><time>2026-04-25T08:19:35.985Z</time></trkpt><trkpt lat="45.0408817" lon="8.380325"><ele>195.0</ele><time>2026-04-25T08:19:36.985Z</time></trkpt><trkpt lat="45.04096" lon="8.3800717"><ele>195.0</ele><time>2026-04-25T08:19:37.985Z</time></trkpt><trkpt lat="45.04104" lon="8.3798367"><ele>195.0</ele><time>2026-04-25T08:19:38.985Z</time></trkpt><trkpt lat="45.0411133" lon="8.3796133"><ele>195.0</ele><time>2026-04-25T08:19:39.986Z</time></trkpt><trkpt lat="45.0411833" lon="8.3794033"><ele>195.75</ele><time>2026-04-25T08:19:40.985Z</time></trkpt><trkpt lat="45.04122" lon="8.3792067"><ele>196.5</ele><time>2026-04-25T08:19:41.985Z</time></trkpt><trkpt lat="45.0412067" lon="8.379015"><ele>197.25</ele><time>2026-04-25T08:19:42.985Z</time></trkpt><trkpt lat="45.041145" lon="8.37882"><ele>198.0</ele><time>2026-04-25T08:19:43.985Z</time></trkpt><trkpt lat="45.0410483" lon="8.37865"><ele>198.25</ele><time>2026-04-25T08:19:44.985Z</time></trkpt><trkpt lat="45.0409233" lon="8.3785333"><ele>198.5</ele><time>2026-04-25T08:19:45.985Z</time></trkpt><trkpt lat="45.040785" lon="8.3784983"><ele>198.75</ele><time>2026-04-25T08:19:46.986Z</time></trkpt><trkpt lat="45.0406517" lon="8.3785383"><ele>199.0</ele><time>2026-04-25T08:19:47.985Z</time></trkpt><trkpt lat="45.0405183" lon="8.3786267"><ele>201.66666666666666</ele><time>2026-04-25T08:19:48.985Z</time></trkpt><trkpt lat="45.040405" lon="8.37877"><ele>204.33333333333331</ele><time>2026-04-25T08:19:49.985Z</time></trkpt><trkpt lat="45.04033" lon="8.3789733"><ele>207.0</ele><time>2026-04-25T08:19:50.985Z</time></trkpt><trkpt lat="45.0402933" lon="8.379205"><ele>207.0</ele><time>2026-04-25T08:19:51.986Z</time></trkpt><trkpt lat="45.0402583" lon="8.3794317"><ele>207.0</ele><time>2026-04-25T08:19:52.986Z</time></trkpt><trkpt lat="45.0402017" lon="8.3796083"><ele>207.0</ele><time>2026-04-25T08:19:53.985Z</time></trkpt><trkpt lat="45.0401" lon="8.3797583"><ele>207.0</ele><time>2026-04-25T08:19:54.985Z</time></trkpt><trkpt lat="45.0399467" lon="8.37987"><ele>208.66666666666669</ele><time>2026-04-25T08:19:55.986Z</time></trkpt><trkpt lat="45.039785" lon="8.3799567"><ele>210.33333333333334</ele><time>2026-04-25T08:19:56.986Z</time></trkpt><trkpt lat="45.0396083" lon="8.3800333"><ele>212.0</ele><time>2026-04-25T08:19:57.986Z</time></trkpt><trkpt lat="45.0394517" lon="8.3801183"><ele>212.0</ele><time>2026-04-25T08:19:58.985Z</time></trkpt><trkpt lat="45.0392967" lon="8.3802217"><ele>212.0</ele><time>2026-04-25T08:19:59.985Z</time></trkpt><trkpt lat="45.03915" lon="8.380305"><ele>212.0</ele><time>2026-04-25T08:20:00.985Z</time></trkpt><trkpt lat="45.0390117" lon="8.380375"><ele>212.39999999999998</ele><time>2026-04-25T08:20:01.986Z</time></trkpt><trkpt lat="45.038905" lon="8.3804367"><ele>212.79999999999998</ele><time>2026-04-25T08:20:02.986Z</time></trkpt><trkpt lat="45.038805" lon="8.380485"><ele>213.2</ele><time>2026-04-25T08:20:03.985Z</time></trkpt><trkpt lat="45.0387183" lon="8.3805267"><ele>213.6</ele><time>2026-04-25T08:20:04.985Z</time></trkpt><trkpt lat="45.0386467" lon="8.3805633"><ele>214.0</ele><time>2026-04-25T08:20:05.986Z</time></trkpt><trkpt lat="45.03858" lon="8.380565"><ele>214.0</ele><time>2026-04-25T08:20:06.986Z</time></trkpt><trkpt lat="45.038475" lon="8.3805967"><ele>214.0</ele><time>2026-04-25T08:20:08.985Z</time></trkpt><trkpt lat="45.0384067" lon="8.38066"><ele>214.0</ele><time>2026-04-25T08:20:09.986Z</time></trkpt><trkpt lat="45.0383283" lon="8.3807617"><ele>214.0</ele><time>2026-04-25T08:20:10.985Z</time></trkpt><trkpt lat="45.03822" lon="8.38092"><ele>214.33333333333331</ele><time>2026-04-25T08:20:11.985Z</time></trkpt><trkpt lat="45.03811" lon="8.3810817"><ele>214.66666666666669</ele><time>2026-04-25T08:20:12.985Z</time></trkpt><trkpt lat="45.037995" lon="8.3812633"><ele>215.0</ele><time>2026-04-25T08:20:13.986Z</time></trkpt><trkpt lat="45.03789" lon="8.3814517"><ele>215.0</ele><time>2026-04-25T08:20:14.985Z</time></trkpt><trkpt lat="45.0377583" lon="8.3816333"><ele>215.0</ele><time>2026-04-25T08:20:15.986Z</time></trkpt><trkpt lat="45.0376433" lon="8.381835"><ele>215.0</ele><time>2026-04-25T08:20:16.985Z</time></trkpt><trkpt lat="45.037525" lon="8.3820283"><ele>215.0</ele><time>2026-04-25T08:20:17.985Z</time></trkpt><trkpt lat="45.0373867" lon="8.3822317"><ele>215.0</ele><time>2026-04-25T08:20:18.985Z</time></trkpt><trkpt lat="45.0372517" lon="8.38243"><ele>215.0</ele><time>2026-04-25T08:20:19.985Z</time></trkpt><trkpt lat="45.037105" lon="8.3826333"><ele>215.0</ele><time>2026-04-25T08:20:20.985Z</time></trkpt><trkpt lat="45.0369617" lon="8.382855"><ele>215.0</ele><time>2026-04-25T08:20:21.986Z</time></trkpt><trkpt lat="45.036815" lon="8.38308"><ele>215.0</ele><time>2026-04-25T08:20:22.985Z</time></trkpt><trkpt lat="45.0366683" lon="8.3833"><ele>213.66666666666669</ele><time>2026-04-25T08:20:23.986Z</time></trkpt><trkpt lat="45.036525" lon="8.3835217"><ele>212.33333333333331</ele><time>2026-04-25T08:20:24.986Z</time></trkpt><trkpt lat="45.0363867" lon="8.3837433"><ele>211.0</ele><time>2026-04-25T08:20:25.986Z</time></trkpt><trkpt lat="45.0362483" lon="8.383965"><ele>214.0</ele><time>2026-04-25T08:20:26.985Z</time></trkpt><trkpt lat="45.0361183" lon="8.3841817"><ele>217.0</ele><time>2026-04-25T08:20:27.985Z</time></trkpt><trkpt lat="45.035985" lon="8.3844067"><ele>220.0</ele><time>2026-04-25T08:20:28.986Z</time></trkpt><trkpt lat="45.0358583" lon="8.384605"><ele>224.33333333333331</ele><time>2026-04-25T08:20:29.986Z</time></trkpt><trkpt lat="45.0357267" lon="8.3848167"><ele>228.66666666666669</ele><time>2026-04-25T08:20:30.986Z</time></trkpt><trkpt lat="45.0355933" lon="8.38502"><ele>233.0</ele><time>2026-04-25T08:20:31.985Z</time></trkpt><trkpt lat="45.035465" lon="8.3851933"><ele>233.0</ele><time>2026-04-25T08:20:32.985Z</time></trkpt><trkpt lat="45.0353483" lon="8.38538"><ele>233.0</ele><time>2026-04-25T08:20:33.986Z</time></trkpt><trkpt lat="45.0352167" lon="8.38556"><ele>233.0</ele><time>2026-04-25T08:20:34.986Z</time></trkpt><trkpt lat="45.0350667" lon="8.385715"><ele>236.33333333333334</ele><time>2026-04-25T08:20:35.985Z</time></trkpt><trkpt lat="45.0349267" lon="8.3858783"><ele>239.66666666666669</ele><time>2026-04-25T08:20:36.985Z</time></trkpt><trkpt lat="45.0347717" lon="8.386065"><ele>243.0</ele><time>2026-04-25T08:20:37.985Z</time></trkpt><trkpt lat="45.034615" lon="8.3862367"><ele>242.0</ele><time>2026-04-25T08:20:38.985Z</time></trkpt><trkpt lat="45.0344667" lon="8.3863833"><ele>241.0</ele><time>2026-04-25T08:20:39.986Z</time></trkpt><trkpt lat="45.0343233" lon="8.3864867"><ele>240.0</ele><time>2026-04-25T08:20:40.985Z</time></trkpt><trkpt lat="45.0341867" lon="8.3865567"><ele>240.0</ele><time>2026-04-25T08:20:41.985Z</time></trkpt><trkpt lat="45.0340667" lon="8.3865917"><ele>240.0</ele><time>2026-04-25T08:20:42.985Z</time></trkpt><trkpt lat="45.0339583" lon="8.386585"><ele>240.0</ele><time>2026-04-25T08:20:43.985Z</time></trkpt><trkpt lat="45.0338633" lon="8.3865517"><ele>240.0</ele><time>2026-04-25T08:20:44.986Z</time></trkpt><trkpt lat="45.0337883" lon="8.386525"><ele>240.0</ele><time>2026-04-25T08:20:45.985Z</time></trkpt><trkpt lat="45.0337167" lon="8.3865117"><ele>240.0</ele><time>2026-04-25T08:20:46.985Z</time></trkpt><trkpt lat="45.03364" lon="8.3864967"><ele>240.0</ele><time>2026-04-25T08:20:47.986Z</time></trkpt><trkpt lat="45.0335517" lon="8.3864533"><ele>240.0</ele><time>2026-04-25T08:20:48.986Z</time></trkpt><trkpt lat="45.0334733" lon="8.386425"><ele>240.0</ele><time>2026-04-25T08:20:49.985Z</time></trkpt><trkpt lat="45.0334133" lon="8.3863667"><ele>240.0</ele><time>2026-04-25T08:20:52.985Z</time></trkpt><trkpt lat="45.0333483" lon="8.3862517"><ele>240.0</ele><time>2026-04-25T08:20:54.986Z</time></trkpt><trkpt lat="45.0332883" lon="8.3861717"><ele>238.0</ele><time>2026-04-25T08:20:55.986Z</time></trkpt><trkpt lat="45.0332033" lon="8.38607"><ele>236.0</ele><time>2026-04-25T08:20:56.985Z</time></trkpt><trkpt lat="45.0331117" lon="8.3859783"><ele>234.0</ele><time>2026-04-25T08:20:57.985Z</time></trkpt><trkpt lat="45.0330117" lon="8.3859033"><ele>232.0</ele><time>2026-04-25T08:20:58.986Z</time></trkpt><trkpt lat="45.032895" lon="8.3858517"><ele>232.0</ele><time>2026-04-25T08:20:59.985Z</time></trkpt><trkpt lat="45.0327617" lon="8.3858033"><ele>232.0</ele><time>2026-04-25T08:21:00.985Z</time></trkpt><trkpt lat="45.03262" lon="8.3857483"><ele>232.0</ele><time>2026-04-25T08:21:01.985Z</time></trkpt><trkpt lat="45.0324683" lon="8.3856917"><ele>232.0</ele><time>2026-04-25T08:21:02.986Z</time></trkpt><trkpt lat="45.03233" lon="8.385635"><ele>233.0</ele><time>2026-04-25T08:21:03.985Z</time></trkpt><trkpt lat="45.0321817" lon="8.38557"><ele>234.0</ele><time>2026-04-25T08:21:04.986Z</time></trkpt><trkpt lat="45.03203" lon="8.3855"><ele>235.0</ele><time>2026-04-25T08:21:05.986Z</time></trkpt><trkpt lat="45.0318783" lon="8.385445"><ele>231.0</ele><time>2026-04-25T08:21:06.985Z</time></trkpt><trkpt lat="45.0317283" lon="8.3854"><ele>227.0</ele><time>2026-04-25T08:21:07.985Z</time></trkpt><trkpt lat="45.0315733" lon="8.3853867"><ele>223.0</ele><time>2026-04-25T08:21:08.986Z</time></trkpt><trkpt lat="45.03144" lon="8.3853867"><ele>219.0</ele><time>2026-04-25T08:21:09.985Z</time></trkpt><trkpt lat="45.0313217" lon="8.3853867"><ele>218.6</ele><time>2026-04-25T08:21:10.985Z</time></trkpt><trkpt lat="45.0312117" lon="8.385385"><ele>218.2</ele><time>2026-04-25T08:21:11.986Z</time></trkpt><trkpt lat="45.0311083" lon="8.38538"><ele>217.79999999999998</ele><time>2026-04-25T08:21:12.986Z</time></trkpt><trkpt lat="45.0310133" lon="8.38539"><ele>217.39999999999998</ele><time>2026-04-25T08:21:13.985Z</time></trkpt><trkpt lat="45.03093" lon="8.38543"><ele>217.0</ele><time>2026-04-25T08:21:14.985Z</time></trkpt><trkpt lat="45.0308483" lon="8.3855183"><ele>215.25</ele><time>2026-04-25T08:21:15.985Z</time></trkpt><trkpt lat="45.0307617" lon="8.3856417"><ele>213.5</ele><time>2026-04-25T08:21:16.985Z</time></trkpt><trkpt lat="45.0306783" lon="8.38578"><ele>211.75</ele><time>2026-04-25T08:21:17.985Z</time></trkpt><trkpt lat="45.03059" lon="8.3859433"><ele>210.0</ele><time>2026-04-25T08:21:18.985Z</time></trkpt><trkpt lat="45.03051" lon="8.3861033"><ele>210.0</ele><time>2026-04-25T08:21:19.985Z</time></trkpt><trkpt lat="45.0304383" lon="8.3862567"><ele>210.0</ele><time>2026-04-25T08:21:20.986Z</time></trkpt><trkpt lat="45.0303683" lon="8.3863967"><ele>210.0</ele><time>2026-04-25T08:21:21.985Z</time></trkpt><trkpt lat="45.0302967" lon="8.38655"><ele>210.0</ele><time>2026-04-25T08:21:22.985Z</time></trkpt><trkpt lat="45.030255" lon="8.3867533"><ele>210.5</ele><time>2026-04-25T08:21:23.985Z</time></trkpt><trkpt lat="45.0302417" lon="8.38695"><ele>211.0</ele><time>2026-04-25T08:21:24.986Z</time></trkpt><trkpt lat="45.03023" lon="8.3871483"><ele>211.5</ele><time>2026-04-25T08:21:25.985Z</time></trkpt><trkpt lat="45.0302167" lon="8.3873317"><ele>212.0</ele><time>2026-04-25T08:21:26.985Z</time></trkpt><trkpt lat="45.0301933" lon="8.3875017"><ele>212.5</ele><time>2026-04-25T08:21:27.985Z</time></trkpt><trkpt lat="45.030135" lon="8.3876583"><ele>213.0</ele><time>2026-04-25T08:21:28.985Z</time></trkpt><trkpt lat="45.0300233" lon="8.3877883"><ele>213.5</ele><time>2026-04-25T08:21:29.985Z</time></trkpt><trkpt lat="45.029895" lon="8.3878783"><ele>214.0</ele><time>2026-04-25T08:21:30.986Z</time></trkpt><trkpt lat="45.0297483" lon="8.3879133"><ele>211.0</ele><time>2026-04-25T08:21:31.985Z</time></trkpt><trkpt lat="45.0296017" lon="8.3878833"><ele>208.0</ele><time>2026-04-25T08:21:32.985Z</time></trkpt><trkpt lat="45.0294433" lon="8.3878367"><ele>205.0</ele><time>2026-04-25T08:21:33.985Z</time></trkpt><trkpt lat="45.0292767" lon="8.3877917"><ele>203.66666666666666</ele><time>2026-04-25T08:21:34.985Z</time></trkpt><trkpt lat="45.0291217" lon="8.387745"><ele>202.33333333333331</ele><time>2026-04-25T08:21:35.985Z</time></trkpt><trkpt lat="45.02895" lon="8.3876917"><ele>201.0</ele><time>2026-04-25T08:21:36.985Z</time></trkpt><trkpt lat="45.0287767" lon="8.3876417"><ele>201.0</ele><time>2026-04-25T08:21:37.985Z</time></trkpt><trkpt lat="45.0285933" lon="8.3876233"><ele>201.0</ele><time>2026-04-25T08:21:38.985Z</time></trkpt><trkpt lat="45.0284033" lon="8.3876083"><ele>201.0</ele><time>2026-04-25T08:21:39.986Z</time></trkpt><trkpt lat="45.0282167" lon="8.3876083"><ele>199.33333333333331</ele><time>2026-04-25T08:21:40.985Z</time></trkpt><trkpt lat="45.0280433" lon="8.3876217"><ele>197.66666666666666</ele><time>2026-04-25T08:21:41.985Z</time></trkpt><trkpt lat="45.0278783" lon="8.3876267"><ele>196.0</ele><time>2026-04-25T08:21:42.986Z</time></trkpt><trkpt lat="45.0276817" lon="8.3876017"><ele>196.0</ele><time>2026-04-25T08:21:43.985Z</time></trkpt><trkpt lat="45.0274883" lon="8.3875767"><ele>196.0</ele><time>2026-04-25T08:21:44.985Z</time></trkpt><trkpt lat="45.0273083" lon="8.3875467"><ele>196.0</ele><time>2026-04-25T08:21:45.986Z</time></trkpt><trkpt lat="45.027125" lon="8.3875083"><ele>195.66666666666666</ele><time>2026-04-25T08:21:46.985Z</time></trkpt><trkpt lat="45.0269417" lon="8.38743"><ele>195.33333333333331</ele><time>2026-04-25T08:21:47.985Z</time></trkpt><trkpt lat="45.026755" lon="8.3873233"><ele>195.0</ele><time>2026-04-25T08:21:48.986Z</time></trkpt><trkpt lat="45.02657" lon="8.387205"><ele>192.0</ele><time>2026-04-25T08:21:49.985Z</time></trkpt><trkpt lat="45.026385" lon="8.3870817"><ele>189.0</ele><time>2026-04-25T08:21:50.985Z</time></trkpt><trkpt lat="45.02621" lon="8.386935"><ele>186.0</ele><time>2026-04-25T08:21:51.986Z</time></trkpt><trkpt lat="45.0260383" lon="8.3867833"><ele>186.0</ele><time>2026-04-25T08:21:52.985Z</time></trkpt><trkpt lat="45.0258667" lon="8.3866317"><ele>186.0</ele><time>2026-04-25T08:21:53.985Z</time></trkpt><trkpt lat="45.0257" lon="8.386485"><ele>186.0</ele><time>2026-04-25T08:21:54.985Z</time></trkpt><trkpt lat="45.0255417" lon="8.38635"><ele>182.33333333333334</ele><time>2026-04-25T08:21:55.985Z</time></trkpt><trkpt lat="45.0253917" lon="8.386215"><ele>178.66666666666669</ele><time>2026-04-25T08:21:56.986Z</time></trkpt><trkpt lat="45.0252417" lon="8.3861033"><ele>175.0</ele><time>2026-04-25T08:21:57.985Z</time></trkpt><trkpt lat="45.0251017" lon="8.3860083"><ele>170.66666666666669</ele><time>2026-04-25T08:21:58.985Z</time></trkpt><trkpt lat="45.0249433" lon="8.3859283"><ele>166.33333333333334</ele><time>2026-04-25T08:21:59.985Z</time></trkpt><trkpt lat="45.0247883" lon="8.3858933"><ele>162.0</ele><time>2026-04-25T08:22:00.985Z</time></trkpt><trkpt lat="45.0246317" lon="8.385915"><ele>162.0</ele><time>2026-04-25T08:22:01.985Z</time></trkpt><trkpt lat="45.0244833" lon="8.386005"><ele>162.0</ele><time>2026-04-25T08:22:02.985Z</time></trkpt><trkpt lat="45.0243567" lon="8.3861583"><ele>162.0</ele><time>2026-04-25T08:22:03.985Z</time></trkpt><trkpt lat="45.024265" lon="8.3863467"><ele>163.66666666666666</ele><time>2026-04-25T08:22:04.986Z</time></trkpt><trkpt lat="45.0241983" lon="8.3865817"><ele>165.33333333333331</ele><time>2026-04-25T08:22:05.985Z</time></trkpt><trkpt lat="45.024155" lon="8.3868667"><ele>167.0</ele><time>2026-04-25T08:22:06.985Z</time></trkpt><trkpt lat="45.02418" lon="8.3871383"><ele>166.33333333333331</ele><time>2026-04-25T08:22:07.985Z</time></trkpt><trkpt lat="45.0242017" lon="8.3874267"><ele>165.66666666666666</ele><time>2026-04-25T08:22:08.985Z</time></trkpt><trkpt lat="45.0242417" lon="8.3877167"><ele>165.0</ele><time>2026-04-25T08:22:09.985Z</time></trkpt><trkpt lat="45.02427" lon="8.388015"><ele>164.0</ele><time>2026-04-25T08:22:10.985Z</time></trkpt><trkpt lat="45.0242867" lon="8.3883067"><ele>163.0</ele><time>2026-04-25T08:22:11.985Z</time></trkpt><trkpt lat="45.0243067" lon="8.3886"><ele>162.0</ele><time>2026-04-25T08:22:12.986Z</time></trkpt><trkpt lat="45.0242817" lon="8.3888833"><ele>160.66666666666666</ele><time>2026-04-25T08:22:13.986Z</time></trkpt><trkpt lat="45.0242083" lon="8.38915"><ele>159.33333333333331</ele><time>2026-04-25T08:22:14.986Z</time></trkpt><trkpt lat="45.024085" lon="8.3893767"><ele>158.0</ele><time>2026-04-25T08:22:15.985Z</time></trkpt><trkpt lat="45.0239317" lon="8.389565"><ele>156.0</ele><time>2026-04-25T08:22:16.986Z</time></trkpt><trkpt lat="45.023745" lon="8.3896967"><ele>154.0</ele><time>2026-04-25T08:22:17.985Z</time></trkpt><trkpt lat="45.0235383" lon="8.3897867"><ele>152.0</ele><time>2026-04-25T08:22:18.985Z</time></trkpt><trkpt lat="45.0233267" lon="8.3898633"><ele>149.0</ele><time>2026-04-25T08:22:19.985Z</time></trkpt><trkpt lat="45.0231133" lon="8.3899683"><ele>146.0</ele><time>2026-04-25T08:22:20.985Z</time></trkpt><trkpt lat="45.02288" lon="8.39006"><ele>146.0</ele><time>2026-04-25T08:22:21.985Z</time></trkpt><trkpt lat="45.02266" lon="8.3901517"><ele>146.0</ele><time>2026-04-25T08:22:22.985Z</time></trkpt><trkpt lat="45.0224433" lon="8.390245"><ele>147.5</ele><time>2026-04-25T08:22:23.986Z</time></trkpt><trkpt lat="45.0222167" lon="8.3903433"><ele>149.0</ele><time>2026-04-25T08:22:24.986Z</time></trkpt><trkpt lat="45.022005" lon="8.390445"><ele>148.66666666666666</ele><time>2026-04-25T08:22:25.986Z</time></trkpt><trkpt lat="45.0217967" lon="8.3905517"><ele>148.33333333333334</ele><time>2026-04-25T08:22:26.986Z</time></trkpt><trkpt lat="45.0215933" lon="8.3906433"><ele>148.0</ele><time>2026-04-25T08:22:27.985Z</time></trkpt><trkpt lat="45.0213917" lon="8.3907333"><ele>147.0</ele><time>2026-04-25T08:22:28.986Z</time></trkpt><trkpt lat="45.0212117" lon="8.390805"><ele>146.0</ele><time>2026-04-25T08:22:29.985Z</time></trkpt><trkpt lat="45.0210417" lon="8.3908933"><ele>145.0</ele><time>2026-04-25T08:22:30.985Z</time></trkpt><trkpt lat="45.020875" lon="8.3909667"><ele>145.5</ele><time>2026-04-25T08:22:31.986Z</time></trkpt><trkpt lat="45.0207183" lon="8.391025"><ele>146.0</ele><time>2026-04-25T08:22:32.985Z</time></trkpt><trkpt lat="45.0205833" lon="8.3910783"><ele>146.5</ele><time>2026-04-25T08:22:33.986Z</time></trkpt><trkpt lat="45.020455" lon="8.3911117"><ele>147.0</ele><time>2026-04-25T08:22:34.985Z</time></trkpt><trkpt lat="45.020325" lon="8.3911367"><ele>147.0</ele><time>2026-04-25T08:22:35.986Z</time></trkpt><trkpt lat="45.0202233" lon="8.3911417"><ele>147.0</ele><time>2026-04-25T08:22:36.985Z</time></trkpt><trkpt lat="45.0201317" lon="8.3911217"><ele>147.0</ele><time>2026-04-25T08:22:37.986Z</time></trkpt><trkpt lat="45.0200567" lon="8.391075"><ele>147.0</ele><time>2026-04-25T08:22:38.985Z</time></trkpt><trkpt lat="45.019995" lon="8.3910367"><ele>147.0</ele><time>2026-04-25T08:22:39.984Z</time></trkpt><trkpt lat="45.019935" lon="8.3909983"><ele>147.0</ele><time>2026-04-25T08:22:40.984Z</time></trkpt><trkpt lat="45.0198833" lon="8.3909283"><ele>149.0</ele><time>2026-04-25T08:22:41.984Z</time></trkpt><trkpt lat="45.0198383" lon="8.3908383"><ele>151.0</ele><time>2026-04-25T08:22:42.984Z</time></trkpt><trkpt lat="45.01979" lon="8.3907367"><ele>153.0</ele><time>2026-04-25T08:22:43.984Z</time></trkpt><trkpt lat="45.0197283" lon="8.3906367"><ele>155.0</ele><time>2026-04-25T08:22:44.984Z</time></trkpt><trkpt lat="45.0196483" lon="8.3905583"><ele>157.0</ele><time>2026-04-25T08:22:45.984Z</time></trkpt><trkpt lat="45.019565" lon="8.39047"><ele>157.0</ele><time>2026-04-25T08:22:46.984Z</time></trkpt><trkpt lat="45.0194933" lon="8.39035"><ele>157.0</ele><time>2026-04-25T08:22:47.984Z</time></trkpt><trkpt lat="45.0194283" lon="8.3902033"><ele>157.0</ele><time>2026-04-25T08:22:48.985Z</time></trkpt><trkpt lat="45.019355" lon="8.3900333"><ele>157.0</ele><time>2026-04-25T08:22:49.985Z</time></trkpt><trkpt lat="45.019275" lon="8.3898483"><ele>155.0</ele><time>2026-04-25T08:22:50.984Z</time></trkpt><trkpt lat="45.0191917" lon="8.3896683"><ele>153.0</ele><time>2026-04-25T08:22:51.984Z</time></trkpt><trkpt lat="45.0191067" lon="8.389485"><ele>151.0</ele><time>2026-04-25T08:22:52.985Z</time></trkpt><trkpt lat="45.01901" lon="8.3893067"><ele>153.33333333333334</ele><time>2026-04-25T08:22:53.985Z</time></trkpt><trkpt lat="45.0189117" lon="8.3891367"><ele>155.66666666666666</ele><time>2026-04-25T08:22:54.984Z</time></trkpt><trkpt lat="45.0188017" lon="8.38898"><ele>158.0</ele><time>2026-04-25T08:22:55.985Z</time></trkpt><trkpt lat="45.0186883" lon="8.38884"><ele>158.0</ele><time>2026-04-25T08:22:56.985Z</time></trkpt><trkpt lat="45.0185617" lon="8.388715"><ele>158.0</ele><time>2026-04-25T08:22:57.984Z</time></trkpt><trkpt lat="45.0184283" lon="8.3886083"><ele>158.0</ele><time>2026-04-25T08:22:58.985Z</time></trkpt><trkpt lat="45.0182833" lon="8.3885133"><ele>159.33333333333331</ele><time>2026-04-25T08:22:59.985Z</time></trkpt><trkpt lat="45.0181283" lon="8.3884333"><ele>160.66666666666666</ele><time>2026-04-25T08:23:00.985Z</time></trkpt><trkpt lat="45.017965" lon="8.3883717"><ele>162.0</ele><time>2026-04-25T08:23:01.984Z</time></trkpt><trkpt lat="45.017775" lon="8.3883467"><ele>162.0</ele><time>2026-04-25T08:23:02.984Z</time></trkpt><trkpt lat="45.017565" lon="8.3883417"><ele>162.0</ele><time>2026-04-25T08:23:03.985Z</time></trkpt><trkpt lat="45.017345" lon="8.38837"><ele>162.0</ele><time>2026-04-25T08:23:04.984Z</time></trkpt><trkpt lat="45.0171" lon="8.3884117"><ele>162.5</ele><time>2026-04-25T08:23:05.985Z</time></trkpt><trkpt lat="45.0168067" lon="8.3884467"><ele>163.0</ele><time>2026-04-25T08:23:06.984Z</time></trkpt><trkpt lat="45.0164867" lon="8.3884617"><ele>164.0</ele><time>2026-04-25T08:23:07.984Z</time></trkpt><trkpt lat="45.016135" lon="8.3884933"><ele>165.0</ele><time>2026-04-25T08:23:08.984Z</time></trkpt><trkpt lat="45.0157483" lon="8.38853"><ele>166.5</ele><time>2026-04-25T08:23:09.985Z</time></trkpt><trkpt lat="45.015335" lon="8.38856"><ele>168.0</ele><time>2026-04-25T08:23:10.984Z</time></trkpt><trkpt lat="45.0149217" lon="8.3885733"><ele>171.0</ele><time>2026-04-25T08:23:11.985Z</time></trkpt><trkpt lat="45.0145267" lon="8.3886033"><ele>174.0</ele><time>2026-04-25T08:23:12.984Z</time></trkpt><trkpt lat="45.0141633" lon="8.3886333"><ele>175.5</ele><time>2026-04-25T08:23:13.985Z</time></trkpt><trkpt lat="45.01382" lon="8.3886533"><ele>177.0</ele><time>2026-04-25T08:23:14.985Z</time></trkpt><trkpt lat="45.013485" lon="8.3886817"><ele>178.0</ele><time>2026-04-25T08:23:15.984Z</time></trkpt><trkpt lat="45.01316" lon="8.38872"><ele>179.0</ele><time>2026-04-25T08:23:16.984Z</time></trkpt><trkpt lat="45.01287" lon="8.3887483"><ele>179.0</ele><time>2026-04-25T08:23:17.985Z</time></trkpt><trkpt lat="45.012595" lon="8.3887533"><ele>179.0</ele><time>2026-04-25T08:23:18.984Z</time></trkpt><trkpt lat="45.0123283" lon="8.3887517"><ele>183.5</ele><time>2026-04-25T08:23:19.985Z</time></trkpt><trkpt lat="45.0120817" lon="8.3887633"><ele>188.0</ele><time>2026-04-25T08:23:20.985Z</time></trkpt><trkpt lat="45.01184" lon="8.3887817"><ele>191.33333333333331</ele><time>2026-04-25T08:23:21.984Z</time></trkpt><trkpt lat="45.01163" lon="8.388815"><ele>194.66666666666666</ele><time>2026-04-25T08:23:22.985Z</time></trkpt><trkpt lat="45.01143" lon="8.388825"><ele>198.0</ele><time>2026-04-25T08:23:23.985Z</time></trkpt><trkpt lat="45.011235" lon="8.3888233"><ele>198.0</ele><time>2026-04-25T08:23:24.984Z</time></trkpt><trkpt lat="45.0110633" lon="8.3887833"><ele>198.0</ele><time>2026-04-25T08:23:25.985Z</time></trkpt><trkpt lat="45.010905" lon="8.3887233"><ele>198.0</ele><time>2026-04-25T08:23:26.984Z</time></trkpt><trkpt lat="45.0107483" lon="8.3886333"><ele>200.0</ele><time>2026-04-25T08:23:27.984Z</time></trkpt><trkpt lat="45.0106117" lon="8.3885183"><ele>202.0</ele><time>2026-04-25T08:23:28.984Z</time></trkpt><trkpt lat="45.0104967" lon="8.3883983"><ele>204.0</ele><time>2026-04-25T08:23:29.985Z</time></trkpt><trkpt lat="45.0104" lon="8.3882583"><ele>206.0</ele><time>2026-04-25T08:23:30.984Z</time></trkpt><trkpt lat="45.0103217" lon="8.3881133"><ele>205.75</ele><time>2026-04-25T08:23:31.984Z</time></trkpt><trkpt lat="45.010255" lon="8.3879583"><ele>205.5</ele><time>2026-04-25T08:23:32.985Z</time></trkpt><trkpt lat="45.0102017" lon="8.387795"><ele>205.25</ele><time>2026-04-25T08:23:33.985Z</time></trkpt><trkpt lat="45.0101533" lon="8.387635"><ele>205.0</ele><time>2026-04-25T08:23:34.984Z</time></trkpt><trkpt lat="45.0101067" lon="8.387495"><ele>205.0</ele><time>2026-04-25T08:23:35.985Z</time></trkpt><trkpt lat="45.0100583" lon="8.3873633"><ele>205.0</ele><time>2026-04-25T08:23:36.984Z</time></trkpt><trkpt lat="45.0100033" lon="8.3872383"><ele>205.0</ele><time>2026-04-25T08:23:37.984Z</time></trkpt><trkpt lat="45.009955" lon="8.3871267"><ele>205.0</ele><time>2026-04-25T08:23:38.985Z</time></trkpt><trkpt lat="45.0099067" lon="8.3870217"><ele>205.0</ele><time>2026-04-25T08:23:39.984Z</time></trkpt><trkpt lat="45.00986" lon="8.38694"><ele>204.6</ele><time>2026-04-25T08:23:40.985Z</time></trkpt><trkpt lat="45.0098183" lon="8.3868567"><ele>204.2</ele><time>2026-04-25T08:23:41.984Z</time></trkpt><trkpt lat="45.00979" lon="8.3867217"><ele>203.8</ele><time>2026-04-25T08:23:43.984Z</time></trkpt><trkpt lat="45.0097933" lon="8.3866183"><ele>203.4</ele><time>2026-04-25T08:23:44.985Z</time></trkpt><trkpt lat="45.009845" lon="8.3864817"><ele>203.0</ele><time>2026-04-25T08:23:45.984Z</time></trkpt><trkpt lat="45.0099267" lon="8.3863367"><ele>204.0</ele><time>2026-04-25T08:23:46.984Z</time></trkpt><trkpt lat="45.0100267" lon="8.38618"><ele>205.0</ele><time>2026-04-25T08:23:47.984Z</time></trkpt><trkpt lat="45.01014" lon="8.3859917"><ele>206.0</ele><time>2026-04-25T08:23:48.985Z</time></trkpt><trkpt lat="45.0102517" lon="8.3857933"><ele>206.0</ele><time>2026-04-25T08:23:49.985Z</time></trkpt><trkpt lat="45.010385" lon="8.3855717"><ele>206.0</ele><time>2026-04-25T08:23:50.984Z</time></trkpt><trkpt lat="45.0105217" lon="8.38535"><ele>206.0</ele><time>2026-04-25T08:23:51.985Z</time></trkpt><trkpt lat="45.0106667" lon="8.3851183"><ele>205.0</ele><time>2026-04-25T08:23:52.985Z</time></trkpt><trkpt lat="45.0108067" lon="8.384895"><ele>204.0</ele><time>2026-04-25T08:23:53.984Z</time></trkpt><trkpt lat="45.0109433" lon="8.3846767"><ele>203.0</ele><time>2026-04-25T08:23:54.984Z</time></trkpt><trkpt lat="45.0110683" lon="8.3844717"><ele>203.0</ele><time>2026-04-25T08:23:55.985Z</time></trkpt><trkpt lat="45.0111983" lon="8.384285"><ele>203.0</ele><time>2026-04-25T08:23:56.985Z</time></trkpt><trkpt lat="45.0113217" lon="8.3841083"><ele>203.0</ele><time>2026-04-25T08:23:57.984Z</time></trkpt><trkpt lat="45.0114233" lon="8.3839233"><ele>202.66666666666669</ele><time>2026-04-25T08:23:58.984Z</time></trkpt><trkpt lat="45.0115083" lon="8.3836933"><ele>202.33333333333331</ele><time>2026-04-25T08:23:59.984Z</time></trkpt><trkpt lat="45.011585" lon="8.3834517"><ele>202.0</ele><time>2026-04-25T08:24:00.984Z</time></trkpt><trkpt lat="45.0116267" lon="8.383185"><ele>201.66666666666666</ele><time>2026-04-25T08:24:01.985Z</time></trkpt><trkpt lat="45.0116533" lon="8.3829033"><ele>201.33333333333331</ele><time>2026-04-25T08:24:02.984Z</time></trkpt><trkpt lat="45.0116433" lon="8.38262"><ele>201.0</ele><time>2026-04-25T08:24:03.984Z</time></trkpt><trkpt lat="45.011635" lon="8.3823383"><ele>202.0</ele><time>2026-04-25T08:24:04.984Z</time></trkpt><trkpt lat="45.0116317" lon="8.3820567"><ele>203.0</ele><time>2026-04-25T08:24:05.984Z</time></trkpt><trkpt lat="45.011605" lon="8.3817733"><ele>204.0</ele><time>2026-04-25T08:24:06.984Z</time></trkpt><trkpt lat="45.0115867" lon="8.381465"><ele>205.0</ele><time>2026-04-25T08:24:07.984Z</time></trkpt><trkpt lat="45.01158" lon="8.3811633"><ele>206.0</ele><time>2026-04-25T08:24:08.984Z</time></trkpt><trkpt lat="45.0115683" lon="8.38088"><ele>207.0</ele><time>2026-04-25T08:24:09.984Z</time></trkpt><trkpt lat="45.0115533" lon="8.380595"><ele>207.0</ele><time>2026-04-25T08:24:10.984Z</time></trkpt><trkpt lat="45.0115417" lon="8.3802717"><ele>207.0</ele><time>2026-04-25T08:24:11.984Z</time></trkpt><trkpt lat="45.01154" lon="8.3799833"><ele>207.0</ele><time>2026-04-25T08:24:12.984Z</time></trkpt><trkpt lat="45.0115333" lon="8.3796933"><ele>207.33333333333331</ele><time>2026-04-25T08:24:13.984Z</time></trkpt><trkpt lat="45.0115233" lon="8.3794083"><ele>207.66666666666666</ele><time>2026-04-25T08:24:14.984Z</time></trkpt><trkpt lat="45.01151" lon="8.379115"><ele>208.0</ele><time>2026-04-25T08:24:15.985Z</time></trkpt><trkpt lat="45.0115033" lon="8.3788283"><ele>208.33333333333331</ele><time>2026-04-25T08:24:16.984Z</time></trkpt><trkpt lat="45.0114967" lon="8.3785383"><ele>208.66666666666669</ele><time>2026-04-25T08:24:17.984Z</time></trkpt><trkpt lat="45.0114767" lon="8.3782533"><ele>209.0</ele><time>2026-04-25T08:24:18.984Z</time></trkpt><trkpt lat="45.0114633" lon="8.377975"><ele>209.0</ele><time>2026-04-25T08:24:19.984Z</time></trkpt><trkpt lat="45.0114533" lon="8.3776917"><ele>209.0</ele><time>2026-04-25T08:24:20.984Z</time></trkpt><trkpt lat="45.01145" lon="8.3773967"><ele>209.0</ele><time>2026-04-25T08:24:21.984Z</time></trkpt><trkpt lat="45.0114483" lon="8.3771033"><ele>208.0</ele><time>2026-04-25T08:24:22.984Z</time></trkpt><trkpt lat="45.0114467" lon="8.3768033"><ele>207.0</ele><time>2026-04-25T08:24:23.985Z</time></trkpt><trkpt lat="45.011435" lon="8.3765083"><ele>206.0</ele><time>2026-04-25T08:24:24.984Z</time></trkpt><trkpt lat="45.0114567" lon="8.3762117"><ele>205.0</ele><time>2026-04-25T08:24:25.984Z</time></trkpt><trkpt lat="45.0115" lon="8.3759067"><ele>204.0</ele><time>2026-04-25T08:24:26.985Z</time></trkpt><trkpt lat="45.0115483" lon="8.3756167"><ele>203.0</ele><time>2026-04-25T08:24:27.984Z</time></trkpt><trkpt lat="45.0116133" lon="8.375325"><ele>204.0</ele><time>2026-04-25T08:24:28.985Z</time></trkpt><trkpt lat="45.0116933" lon="8.3750467"><ele>205.0</ele><time>2026-04-25T08:24:29.984Z</time></trkpt><trkpt lat="45.0117883" lon="8.374785"><ele>206.0</ele><time>2026-04-25T08:24:30.984Z</time></trkpt><trkpt lat="45.0118917" lon="8.37453"><ele>206.0</ele><time>2026-04-25T08:24:31.985Z</time></trkpt><trkpt lat="45.012005" lon="8.374265"><ele>206.0</ele><time>2026-04-25T08:24:32.985Z</time></trkpt><trkpt lat="45.0121217" lon="8.3740117"><ele>206.0</ele><time>2026-04-25T08:24:33.985Z</time></trkpt><trkpt lat="45.0122317" lon="8.37376"><ele>205.66666666666669</ele><time>2026-04-25T08:24:34.984Z</time></trkpt><trkpt lat="45.0123267" lon="8.3735067"><ele>205.33333333333331</ele><time>2026-04-25T08:24:35.984Z</time></trkpt><trkpt lat="45.0124367" lon="8.373255"><ele>205.0</ele><time>2026-04-25T08:24:36.984Z</time></trkpt><trkpt lat="45.0125433" lon="8.37301"><ele>208.0</ele><time>2026-04-25T08:24:37.985Z</time></trkpt><trkpt lat="45.0126483" lon="8.3727617"><ele>211.0</ele><time>2026-04-25T08:24:38.984Z</time></trkpt><trkpt lat="45.01275" lon="8.3725"><ele>214.0</ele><time>2026-04-25T08:24:39.985Z</time></trkpt><trkpt lat="45.012855" lon="8.37225"><ele>213.33333333333331</ele><time>2026-04-25T08:24:40.985Z</time></trkpt><trkpt lat="45.0129617" lon="8.3720067"><ele>212.66666666666669</ele><time>2026-04-25T08:24:41.984Z</time></trkpt><trkpt lat="45.0130717" lon="8.37175"><ele>212.0</ele><time>2026-04-25T08:24:42.985Z</time></trkpt><trkpt lat="45.0131783" lon="8.371485"><ele>211.33333333333334</ele><time>2026-04-25T08:24:43.985Z</time></trkpt><trkpt lat="45.01329" lon="8.3712267"><ele>210.66666666666669</ele><time>2026-04-25T08:24:44.984Z</time></trkpt><trkpt lat="45.01339" lon="8.3709517"><ele>210.0</ele><time>2026-04-25T08:24:45.985Z</time></trkpt><trkpt lat="45.01349" lon="8.3706867"><ele>213.0</ele><time>2026-04-25T08:24:46.984Z</time></trkpt><trkpt lat="45.0135917" lon="8.3704367"><ele>216.0</ele><time>2026-04-25T08:24:47.984Z</time></trkpt><trkpt lat="45.0137067" lon="8.3701733"><ele>219.0</ele><time>2026-04-25T08:24:48.984Z</time></trkpt><trkpt lat="45.0138117" lon="8.369905"><ele>217.66666666666669</ele><time>2026-04-25T08:24:49.985Z</time></trkpt><trkpt lat="45.0139267" lon="8.369645"><ele>216.33333333333334</ele><time>2026-04-25T08:24:50.985Z</time></trkpt><trkpt lat="45.014035" lon="8.3693883"><ele>215.0</ele><time>2026-04-25T08:24:51.985Z</time></trkpt><trkpt lat="45.0141467" lon="8.3691283"><ele>217.66666666666669</ele><time>2026-04-25T08:24:52.984Z</time></trkpt><trkpt lat="45.0142617" lon="8.368865"><ele>220.33333333333331</ele><time>2026-04-25T08:24:53.984Z</time></trkpt><trkpt lat="45.0143733" lon="8.3686067"><ele>223.0</ele><time>2026-04-25T08:24:54.984Z</time></trkpt><trkpt lat="45.01448" lon="8.36835"><ele>223.33333333333331</ele><time>2026-04-25T08:24:55.985Z</time></trkpt><trkpt lat="45.0145933" lon="8.36809"><ele>223.66666666666669</ele><time>2026-04-25T08:24:56.984Z</time></trkpt><trkpt lat="45.0147033" lon="8.3678267"><ele>224.0</ele><time>2026-04-25T08:24:57.984Z</time></trkpt><trkpt lat="45.0147783" lon="8.3675833"><ele>224.33333333333334</ele><time>2026-04-25T08:24:58.984Z</time></trkpt><trkpt lat="45.014895" lon="8.36732"><ele>224.66666666666669</ele><time>2026-04-25T08:24:59.985Z</time></trkpt><trkpt lat="45.0150183" lon="8.3670567"><ele>225.0</ele><time>2026-04-25T08:25:00.985Z</time></trkpt><trkpt lat="45.0151333" lon="8.366785"><ele>228.0</ele><time>2026-04-25T08:25:01.985Z</time></trkpt><trkpt lat="45.0152417" lon="8.366525"><ele>231.0</ele><time>2026-04-25T08:25:02.984Z</time></trkpt><trkpt lat="45.0153467" lon="8.3662667"><ele>234.0</ele><time>2026-04-25T08:25:03.984Z</time></trkpt><trkpt lat="45.0154567" lon="8.3660267"><ele>236.0</ele><time>2026-04-25T08:25:04.984Z</time></trkpt><trkpt lat="45.0155567" lon="8.36578"><ele>238.0</ele><time>2026-04-25T08:25:05.984Z</time></trkpt><trkpt lat="45.0156617" lon="8.3655233"><ele>240.0</ele><time>2026-04-25T08:25:06.985Z</time></trkpt><trkpt lat="45.0157633" lon="8.3652633"><ele>241.33333333333331</ele><time>2026-04-25T08:25:07.984Z</time></trkpt><trkpt lat="45.0158633" lon="8.3650133"><ele>242.66666666666666</ele><time>2026-04-25T08:25:08.984Z</time></trkpt><trkpt lat="45.015965" lon="8.364785"><ele>244.0</ele><time>2026-04-25T08:25:09.985Z</time></trkpt><trkpt lat="45.016065" lon="8.3645483"><ele>246.33333333333331</ele><time>2026-04-25T08:25:10.985Z</time></trkpt><trkpt lat="45.0161567" lon="8.364305"><ele>248.66666666666669</ele><time>2026-04-25T08:25:11.984Z</time></trkpt><trkpt lat="45.0162483" lon="8.3640717"><ele>251.0</ele><time>2026-04-25T08:25:12.984Z</time></trkpt><trkpt lat="45.0163383" lon="8.3638433"><ele>251.0</ele><time>2026-04-25T08:25:13.984Z</time></trkpt><trkpt lat="45.0164217" lon="8.3636"><ele>251.0</ele><time>2026-04-25T08:25:14.984Z</time></trkpt><trkpt lat="45.016515" lon="8.3633483"><ele>251.0</ele><time>2026-04-25T08:25:15.984Z</time></trkpt><trkpt lat="45.016615" lon="8.3630833"><ele>248.33333333333334</ele><time>2026-04-25T08:25:16.984Z</time></trkpt><trkpt lat="45.0167083" lon="8.36282"><ele>245.66666666666669</ele><time>2026-04-25T08:25:17.984Z</time></trkpt><trkpt lat="45.0168" lon="8.3625617"><ele>243.0</ele><time>2026-04-25T08:25:18.984Z</time></trkpt><trkpt lat="45.016895" lon="8.362305"><ele>243.0</ele><time>2026-04-25T08:25:19.984Z</time></trkpt><trkpt lat="45.01698" lon="8.362055"><ele>243.0</ele><time>2026-04-25T08:25:20.984Z</time></trkpt><trkpt lat="45.01707" lon="8.3618267"><ele>243.0</ele><time>2026-04-25T08:25:21.984Z</time></trkpt><trkpt lat="45.0171583" lon="8.361595"><ele>242.33333333333331</ele><time>2026-04-25T08:25:22.985Z</time></trkpt><trkpt lat="45.0172383" lon="8.3613567"><ele>241.66666666666666</ele><time>2026-04-25T08:25:23.984Z</time></trkpt><trkpt lat="45.0173217" lon="8.361115"><ele>241.0</ele><time>2026-04-25T08:25:24.984Z</time></trkpt><trkpt lat="45.01741" lon="8.3608733"><ele>240.33333333333331</ele><time>2026-04-25T08:25:25.984Z</time></trkpt><trkpt lat="45.0175017" lon="8.36064"><ele>239.66666666666669</ele><time>2026-04-25T08:25:26.984Z</time></trkpt><trkpt lat="45.0175783" lon="8.3603917"><ele>239.0</ele><time>2026-04-25T08:25:27.984Z</time></trkpt><trkpt lat="45.017655" lon="8.360165"><ele>239.0</ele><time>2026-04-25T08:25:28.985Z</time></trkpt><trkpt lat="45.017735" lon="8.359925"><ele>239.0</ele><time>2026-04-25T08:25:29.984Z</time></trkpt><trkpt lat="45.01782" lon="8.35969"><ele>239.0</ele><time>2026-04-25T08:25:30.985Z</time></trkpt><trkpt lat="45.0179067" lon="8.3594467"><ele>238.33333333333334</ele><time>2026-04-25T08:25:31.985Z</time></trkpt><trkpt lat="45.01799" lon="8.359215"><ele>237.66666666666669</ele><time>2026-04-25T08:25:32.985Z</time></trkpt><trkpt lat="45.01807" lon="8.3590183"><ele>237.0</ele><time>2026-04-25T08:25:33.984Z</time></trkpt><trkpt lat="45.0181483" lon="8.3588417"><ele>236.0</ele><time>2026-04-25T08:25:34.985Z</time></trkpt><trkpt lat="45.01821" lon="8.3586883"><ele>235.0</ele><time>2026-04-25T08:25:35.985Z</time></trkpt><trkpt lat="45.018265" lon="8.3585317"><ele>234.0</ele><time>2026-04-25T08:25:36.984Z</time></trkpt><trkpt lat="45.0183167" lon="8.3583833"><ele>233.0</ele><time>2026-04-25T08:25:37.984Z</time></trkpt><trkpt lat="45.0183767" lon="8.3582317"><ele>233.0</ele><time>2026-04-25T08:25:38.985Z</time></trkpt><trkpt lat="45.0184417" lon="8.3580717"><ele>233.0</ele><time>2026-04-25T08:25:39.985Z</time></trkpt><trkpt lat="45.0185217" lon="8.357895"><ele>233.0</ele><time>2026-04-25T08:25:40.984Z</time></trkpt><trkpt lat="45.01861" lon="8.357695"><ele>233.0</ele><time>2026-04-25T08:25:41.985Z</time></trkpt><trkpt lat="45.0187033" lon="8.3574767"><ele>233.0</ele><time>2026-04-25T08:25:42.985Z</time></trkpt><trkpt lat="45.0188033" lon="8.3572483"><ele>233.0</ele><time>2026-04-25T08:25:43.984Z</time></trkpt><trkpt lat="45.0188983" lon="8.3570167"><ele>233.0</ele><time>2026-04-25T08:25:44.984Z</time></trkpt><trkpt lat="45.0190033" lon="8.3567833"><ele>233.0</ele><time>2026-04-25T08:25:45.984Z</time></trkpt><trkpt lat="45.0190917" lon="8.3565683"><ele>233.0</ele><time>2026-04-25T08:25:46.984Z</time></trkpt><trkpt lat="45.019175" lon="8.3563583"><ele>233.0</ele><time>2026-04-25T08:25:47.985Z</time></trkpt><trkpt lat="45.019255" lon="8.3561633"><ele>235.66666666666669</ele><time>2026-04-25T08:25:48.985Z</time></trkpt><trkpt lat="45.01935" lon="8.3559933"><ele>238.33333333333331</ele><time>2026-04-25T08:25:49.985Z</time></trkpt><trkpt lat="45.0194767" lon="8.35585"><ele>241.0</ele><time>2026-04-25T08:25:50.984Z</time></trkpt><trkpt lat="45.0196217" lon="8.3557367"><ele>241.0</ele><time>2026-04-25T08:25:51.985Z</time></trkpt><trkpt lat="45.0197533" lon="8.3556383"><ele>241.0</ele><time>2026-04-25T08:25:52.984Z</time></trkpt><trkpt lat="45.0198467" lon="8.3555083"><ele>241.0</ele><time>2026-04-25T08:25:53.984Z</time></trkpt><trkpt lat="45.0199" lon="8.355325"><ele>241.0</ele><time>2026-04-25T08:25:54.985Z</time></trkpt><trkpt lat="45.0199067" lon="8.3551133"><ele>242.66666666666666</ele><time>2026-04-25T08:25:55.984Z</time></trkpt><trkpt lat="45.0198633" lon="8.354895"><ele>244.33333333333331</ele><time>2026-04-25T08:25:56.985Z</time></trkpt><trkpt lat="45.01978" lon="8.35468"><ele>246.0</ele><time>2026-04-25T08:25:57.984Z</time></trkpt><trkpt lat="45.0196883" lon="8.3544817"><ele>247.0</ele><time>2026-04-25T08:25:58.984Z</time></trkpt><trkpt lat="45.0195667" lon="8.3542833"><ele>248.0</ele><time>2026-04-25T08:25:59.984Z</time></trkpt><trkpt lat="45.0194383" lon="8.3540583"><ele>249.0</ele><time>2026-04-25T08:26:00.985Z</time></trkpt><trkpt lat="45.0193117" lon="8.353815"><ele>251.0</ele><time>2026-04-25T08:26:01.984Z</time></trkpt><trkpt lat="45.0191983" lon="8.353605"><ele>253.0</ele><time>2026-04-25T08:26:02.985Z</time></trkpt><trkpt lat="45.0190817" lon="8.3534083"><ele>255.0</ele><time>2026-04-25T08:26:03.984Z</time></trkpt><trkpt lat="45.0189833" lon="8.3532283"><ele>255.75</ele><time>2026-04-25T08:26:04.984Z</time></trkpt><trkpt lat="45.01892" lon="8.3530283"><ele>256.5</ele><time>2026-04-25T08:26:05.984Z</time></trkpt><trkpt lat="45.0188867" lon="8.3528383"><ele>257.25</ele><time>2026-04-25T08:26:06.984Z</time></trkpt><trkpt lat="45.0188867" lon="8.3526333"><ele>258.0</ele><time>2026-04-25T08:26:07.984Z</time></trkpt><trkpt lat="45.018935" lon="8.3524433"><ele>258.0</ele><time>2026-04-25T08:26:08.984Z</time></trkpt><trkpt lat="45.0190183" lon="8.3522517"><ele>258.0</ele><time>2026-04-25T08:26:09.984Z</time></trkpt><trkpt lat="45.0191167" lon="8.3520533"><ele>258.0</ele><time>2026-04-25T08:26:10.984Z</time></trkpt><trkpt lat="45.0192217" lon="8.3518383"><ele>257.0</ele><time>2026-04-25T08:26:11.985Z</time></trkpt><trkpt lat="45.01932" lon="8.3516117"><ele>256.0</ele><time>2026-04-25T08:26:12.985Z</time></trkpt><trkpt lat="45.0194183" lon="8.3513867"><ele>255.0</ele><time>2026-04-25T08:26:13.985Z</time></trkpt><trkpt lat="45.019525" lon="8.3511617"><ele>253.33333333333331</ele><time>2026-04-25T08:26:14.985Z</time></trkpt><trkpt lat="45.0196317" lon="8.3509467"><ele>251.66666666666666</ele><time>2026-04-25T08:26:15.984Z</time></trkpt><trkpt lat="45.0197283" lon="8.350725"><ele>250.0</ele><time>2026-04-25T08:26:16.984Z</time></trkpt><trkpt lat="45.019825" lon="8.35049"><ele>249.66666666666666</ele><time>2026-04-25T08:26:17.984Z</time></trkpt><trkpt lat="45.0199233" lon="8.3502683"><ele>249.33333333333331</ele><time>2026-04-25T08:26:18.984Z</time></trkpt><trkpt lat="45.0200183" lon="8.3500567"><ele>249.0</ele><time>2026-04-25T08:26:19.984Z</time></trkpt><trkpt lat="45.0201233" lon="8.3498533"><ele>247.33333333333331</ele><time>2026-04-25T08:26:20.984Z</time></trkpt><trkpt lat="45.0202217" lon="8.3496467"><ele>245.66666666666666</ele><time>2026-04-25T08:26:21.984Z</time></trkpt><trkpt lat="45.0203067" lon="8.3494283"><ele>244.0</ele><time>2026-04-25T08:26:22.984Z</time></trkpt><trkpt lat="45.02039" lon="8.3492283"><ele>244.0</ele><time>2026-04-25T08:26:23.985Z</time></trkpt><trkpt lat="45.0204833" lon="8.3490483"><ele>244.0</ele><time>2026-04-25T08:26:24.984Z</time></trkpt><trkpt lat="45.0205667" lon="8.348875"><ele>244.0</ele><time>2026-04-25T08:26:25.984Z</time></trkpt><trkpt lat="45.0206617" lon="8.3486967"><ele>244.0</ele><time>2026-04-25T08:26:26.985Z</time></trkpt><trkpt lat="45.0207317" lon="8.348505"><ele>244.0</ele><time>2026-04-25T08:26:27.984Z</time></trkpt><trkpt lat="45.0207983" lon="8.3483183"><ele>244.0</ele><time>2026-04-25T08:26:28.985Z</time></trkpt><trkpt lat="45.02087" lon="8.3481233"><ele>243.0</ele><time>2026-04-25T08:26:29.985Z</time></trkpt><trkpt lat="45.0209217" lon="8.3479183"><ele>242.0</ele><time>2026-04-25T08:26:30.984Z</time></trkpt><trkpt lat="45.0209467" lon="8.34769"><ele>241.0</ele><time>2026-04-25T08:26:31.984Z</time></trkpt><trkpt lat="45.0209267" lon="8.34743"><ele>242.0</ele><time>2026-04-25T08:26:32.984Z</time></trkpt><trkpt lat="45.02089" lon="8.3471917"><ele>243.0</ele><time>2026-04-25T08:26:33.985Z</time></trkpt><trkpt lat="45.02086" lon="8.3469483"><ele>244.0</ele><time>2026-04-25T08:26:34.984Z</time></trkpt><trkpt lat="45.0208383" lon="8.3466983"><ele>244.0</ele><time>2026-04-25T08:26:35.984Z</time></trkpt><trkpt lat="45.0208183" lon="8.34644"><ele>244.0</ele><time>2026-04-25T08:26:36.985Z</time></trkpt><trkpt lat="45.0207933" lon="8.3461733"><ele>244.0</ele><time>2026-04-25T08:26:37.985Z</time></trkpt><trkpt lat="45.0207683" lon="8.345905"><ele>242.0</ele><time>2026-04-25T08:26:38.984Z</time></trkpt><trkpt lat="45.0207467" lon="8.34564"><ele>240.0</ele><time>2026-04-25T08:26:39.984Z</time></trkpt><trkpt lat="45.0207167" lon="8.3453683"><ele>238.0</ele><time>2026-04-25T08:26:40.984Z</time></trkpt><trkpt lat="45.0206983" lon="8.3450883"><ele>238.0</ele><time>2026-04-25T08:26:41.984Z</time></trkpt><trkpt lat="45.0206733" lon="8.34481"><ele>238.0</ele><time>2026-04-25T08:26:42.985Z</time></trkpt><trkpt lat="45.0206483" lon="8.3445267"><ele>238.0</ele><time>2026-04-25T08:26:43.984Z</time></trkpt><trkpt lat="45.0206267" lon="8.34425"><ele>238.0</ele><time>2026-04-25T08:26:44.985Z</time></trkpt><trkpt lat="45.0206067" lon="8.3439733"><ele>238.0</ele><time>2026-04-25T08:26:45.984Z</time></trkpt><trkpt lat="45.02058" lon="8.343695"><ele>238.0</ele><time>2026-04-25T08:26:46.984Z</time></trkpt><trkpt lat="45.020565" lon="8.3434217"><ele>238.0</ele><time>2026-04-25T08:26:47.985Z</time></trkpt><trkpt lat="45.0205517" lon="8.34316"><ele>238.0</ele><time>2026-04-25T08:26:48.984Z</time></trkpt><trkpt lat="45.0205367" lon="8.3428967"><ele>238.0</ele><time>2026-04-25T08:26:49.984Z</time></trkpt><trkpt lat="45.0205117" lon="8.34265"><ele>239.33333333333331</ele><time>2026-04-25T08:26:50.985Z</time></trkpt><trkpt lat="45.0204567" lon="8.3424133"><ele>240.66666666666669</ele><time>2026-04-25T08:26:51.984Z</time></trkpt><trkpt lat="45.0203883" lon="8.3421683"><ele>242.0</ele><time>2026-04-25T08:26:52.985Z</time></trkpt><trkpt lat="45.0202983" lon="8.34195"><ele>241.33333333333334</ele><time>2026-04-25T08:26:53.984Z</time></trkpt><trkpt lat="45.0201783" lon="8.3417517"><ele>240.66666666666669</ele><time>2026-04-25T08:26:54.985Z</time></trkpt><trkpt lat="45.020045" lon="8.3415683"><ele>240.0</ele><time>2026-04-25T08:26:55.984Z</time></trkpt><trkpt lat="45.01989" lon="8.3413983"><ele>242.0</ele><time>2026-04-25T08:26:56.985Z</time></trkpt><trkpt lat="45.0197467" lon="8.3412217"><ele>244.0</ele><time>2026-04-25T08:26:57.985Z</time></trkpt><trkpt lat="45.0196017" lon="8.341055"><ele>246.0</ele><time>2026-04-25T08:26:58.985Z</time></trkpt><trkpt lat="45.019475" lon="8.3408867"><ele>246.0</ele><time>2026-04-25T08:26:59.984Z</time></trkpt><trkpt lat="45.0193633" lon="8.340745"><ele>246.0</ele><time>2026-04-25T08:27:00.985Z</time></trkpt><trkpt lat="45.0192683" lon="8.34061"><ele>246.0</ele><time>2026-04-25T08:27:01.985Z</time></trkpt><trkpt lat="45.0191867" lon="8.3404983"><ele>246.0</ele><time>2026-04-25T08:27:02.985Z</time></trkpt><trkpt lat="45.019125" lon="8.3403783"><ele>246.0</ele><time>2026-04-25T08:27:03.985Z</time></trkpt><trkpt lat="45.0190767" lon="8.3402517"><ele>246.00000000000003</ele><time>2026-04-25T08:27:04.985Z</time></trkpt><trkpt lat="45.0190717" lon="8.3401033"><ele>246.00000000000003</ele><time>2026-04-25T08:27:05.985Z</time></trkpt><trkpt lat="45.0191017" lon="8.3399583"><ele>246.0</ele><time>2026-04-25T08:27:06.984Z</time></trkpt><trkpt lat="45.0191667" lon="8.3398267"><ele>246.0</ele><time>2026-04-25T08:27:07.985Z</time></trkpt><trkpt lat="45.0192633" lon="8.339735"><ele>245.25</ele><time>2026-04-25T08:27:08.985Z</time></trkpt><trkpt lat="45.01938" lon="8.3396417"><ele>244.5</ele><time>2026-04-25T08:27:09.985Z</time></trkpt><trkpt lat="45.01952" lon="8.3395617"><ele>243.75</ele><time>2026-04-25T08:27:10.985Z</time></trkpt><trkpt lat="45.0196567" lon="8.3394617"><ele>243.0</ele><time>2026-04-25T08:27:11.984Z</time></trkpt><trkpt lat="45.0198" lon="8.339345"><ele>243.0</ele><time>2026-04-25T08:27:12.984Z</time></trkpt><trkpt lat="45.0199383" lon="8.33922"><ele>243.0</ele><time>2026-04-25T08:27:13.984Z</time></trkpt><trkpt lat="45.0200767" lon="8.33909"><ele>243.0</ele><time>2026-04-25T08:27:14.984Z</time></trkpt><trkpt lat="45.0202217" lon="8.3389683"><ele>242.33333333333331</ele><time>2026-04-25T08:27:15.984Z</time></trkpt><trkpt lat="45.02036" lon="8.3388367"><ele>241.66666666666666</ele><time>2026-04-25T08:27:16.984Z</time></trkpt><trkpt lat="45.0204967" lon="8.3387"><ele>241.0</ele><time>2026-04-25T08:27:17.984Z</time></trkpt><trkpt lat="45.0206283" lon="8.3385717"><ele>241.0</ele><time>2026-04-25T08:27:18.984Z</time></trkpt><trkpt lat="45.02075" lon="8.3384433"><ele>241.0</ele><time>2026-04-25T08:27:19.985Z</time></trkpt><trkpt lat="45.0208733" lon="8.33831"><ele>241.0</ele><time>2026-04-25T08:27:20.984Z</time></trkpt><trkpt lat="45.0209883" lon="8.3381883"><ele>241.0</ele><time>2026-04-25T08:27:21.985Z</time></trkpt><trkpt lat="45.021095" lon="8.3380633"><ele>241.0</ele><time>2026-04-25T08:27:22.984Z</time></trkpt><trkpt lat="45.0211967" lon="8.3379367"><ele>241.0</ele><time>2026-04-25T08:27:23.984Z</time></trkpt><trkpt lat="45.0212817" lon="8.33781"><ele>241.0</ele><time>2026-04-25T08:27:24.985Z</time></trkpt><trkpt lat="45.0213717" lon="8.3376817"><ele>241.0</ele><time>2026-04-25T08:27:25.984Z</time></trkpt><trkpt lat="45.021455" lon="8.3375667"><ele>241.0</ele><time>2026-04-25T08:27:26.985Z</time></trkpt><trkpt lat="45.0215283" lon="8.33745"><ele>241.0</ele><time>2026-04-25T08:27:27.984Z</time></trkpt><trkpt lat="45.021585" lon="8.3373"><ele>241.0</ele><time>2026-04-25T08:27:28.984Z</time></trkpt><trkpt lat="45.0216183" lon="8.33713"><ele>239.75</ele><time>2026-04-25T08:27:29.984Z</time></trkpt><trkpt lat="45.0216417" lon="8.3369533"><ele>238.5</ele><time>2026-04-25T08:27:30.984Z</time></trkpt><trkpt lat="45.0216667" lon="8.3367817"><ele>237.25</ele><time>2026-04-25T08:27:31.985Z</time></trkpt><trkpt lat="45.0217017" lon="8.336625"><ele>236.0</ele><time>2026-04-25T08:27:32.985Z</time></trkpt><trkpt lat="45.0217283" lon="8.3364767"><ele>237.50000000000003</ele><time>2026-04-25T08:27:33.984Z</time></trkpt><trkpt lat="45.0217417" lon="8.3363667"><ele>239.0</ele><time>2026-04-25T08:27:34.985Z</time></trkpt><trkpt lat="45.0217617" lon="8.3362667"><ele>240.5</ele><time>2026-04-25T08:27:35.984Z</time></trkpt><trkpt lat="45.0217717" lon="8.3361717"><ele>242.0</ele><time>2026-04-25T08:27:36.984Z</time></trkpt><trkpt lat="45.0217683" lon="8.3360667"><ele>243.50000000000003</ele><time>2026-04-25T08:27:37.984Z</time></trkpt><trkpt lat="45.0217667" lon="8.335965"><ele>245.0</ele><time>2026-04-25T08:27:38.984Z</time></trkpt><trkpt lat="45.0217767" lon="8.3358433"><ele>245.0</ele><time>2026-04-25T08:27:39.984Z</time></trkpt><trkpt lat="45.0217833" lon="8.3357067"><ele>245.0</ele><time>2026-04-25T08:27:40.984Z</time></trkpt><trkpt lat="45.0217817" lon="8.3355417"><ele>245.0</ele><time>2026-04-25T08:27:41.985Z</time></trkpt><trkpt lat="45.0217817" lon="8.3353933"><ele>245.0</ele><time>2026-04-25T08:27:42.985Z</time></trkpt><trkpt lat="45.02177" lon="8.335255"><ele>245.0</ele><time>2026-04-25T08:27:43.984Z</time></trkpt><trkpt lat="45.021765" lon="8.3351"><ele>245.0</ele><time>2026-04-25T08:27:44.984Z</time></trkpt><trkpt lat="45.0217767" lon="8.33494"><ele>245.0</ele><time>2026-04-25T08:27:45.984Z</time></trkpt><trkpt lat="45.0218" lon="8.33477"><ele>245.0</ele><time>2026-04-25T08:27:46.985Z</time></trkpt><trkpt lat="45.0218233" lon="8.3345967"><ele>245.0</ele><time>2026-04-25T08:27:47.984Z</time></trkpt><trkpt lat="45.021845" lon="8.33443"><ele>245.0</ele><time>2026-04-25T08:27:48.984Z</time></trkpt><trkpt lat="45.021865" lon="8.334265"><ele>245.0</ele><time>2026-04-25T08:27:49.985Z</time></trkpt><trkpt lat="45.0218817" lon="8.3341283"><ele>245.0</ele><time>2026-04-25T08:27:50.984Z</time></trkpt><trkpt lat="45.0219" lon="8.3340117"><ele>245.0</ele><time>2026-04-25T08:27:51.984Z</time></trkpt><trkpt lat="45.0219333" lon="8.33389"><ele>245.0</ele><time>2026-04-25T08:27:52.984Z</time></trkpt><trkpt lat="45.0219917" lon="8.3337467"><ele>244.5</ele><time>2026-04-25T08:27:53.985Z</time></trkpt><trkpt lat="45.022055" lon="8.3336067"><ele>244.0</ele><time>2026-04-25T08:27:54.984Z</time></trkpt><trkpt lat="45.022115" lon="8.3334633"><ele>243.5</ele><time>2026-04-25T08:27:55.985Z</time></trkpt><trkpt lat="45.022165" lon="8.3333267"><ele>243.0</ele><time>2026-04-25T08:27:56.984Z</time></trkpt><trkpt lat="45.022225" lon="8.333185"><ele>242.8</ele><time>2026-04-25T08:27:57.984Z</time></trkpt><trkpt lat="45.022275" lon="8.33303"><ele>242.60000000000002</ele><time>2026-04-25T08:27:58.985Z</time></trkpt><trkpt lat="45.0223333" lon="8.33292"><ele>242.39999999999998</ele><time>2026-04-25T08:27:59.985Z</time></trkpt><trkpt lat="45.0223917" lon="8.3327967"><ele>242.2</ele><time>2026-04-25T08:28:00.984Z</time></trkpt><trkpt lat="45.0224467" lon="8.332685"><ele>242.0</ele><time>2026-04-25T08:28:01.984Z</time></trkpt><trkpt lat="45.0224983" lon="8.332575"><ele>241.6</ele><time>2026-04-25T08:28:02.985Z</time></trkpt><trkpt lat="45.0225283" lon="8.3324583"><ele>241.2</ele><time>2026-04-25T08:28:03.985Z</time></trkpt><trkpt lat="45.0225183" lon="8.332305"><ele>240.8</ele><time>2026-04-25T08:28:04.984Z</time></trkpt><trkpt lat="45.022495" lon="8.3321333"><ele>240.4</ele><time>2026-04-25T08:28:05.985Z</time></trkpt><trkpt lat="45.02246" lon="8.3319583"><ele>240.0</ele><time>2026-04-25T08:28:06.984Z</time></trkpt><trkpt lat="45.022425" lon="8.3317683"><ele>240.0</ele><time>2026-04-25T08:28:07.984Z</time></trkpt><trkpt lat="45.0223767" lon="8.3315733"><ele>240.0</ele><time>2026-04-25T08:28:08.984Z</time></trkpt><trkpt lat="45.022335" lon="8.3313533"><ele>240.0</ele><time>2026-04-25T08:28:09.984Z</time></trkpt><trkpt lat="45.0222933" lon="8.3311283"><ele>242.66666666666669</ele><time>2026-04-25T08:28:10.985Z</time></trkpt><trkpt lat="45.022245" lon="8.33091"><ele>245.33333333333334</ele><time>2026-04-25T08:28:11.984Z</time></trkpt><trkpt lat="45.0222133" lon="8.3306817"><ele>248.0</ele><time>2026-04-25T08:28:12.984Z</time></trkpt><trkpt lat="45.0221783" lon="8.3304533"><ele>250.25</ele><time>2026-04-25T08:28:13.984Z</time></trkpt><trkpt lat="45.0221467" lon="8.330235"><ele>252.5</ele><time>2026-04-25T08:28:14.985Z</time></trkpt><trkpt lat="45.0221183" lon="8.33004"><ele>254.75</ele><time>2026-04-25T08:28:15.984Z</time></trkpt><trkpt lat="45.0220933" lon="8.3298467"><ele>257.0</ele><time>2026-04-25T08:28:16.985Z</time></trkpt><trkpt lat="45.0221067" lon="8.3296583"><ele>261.33333333333337</ele><time>2026-04-25T08:28:17.985Z</time></trkpt><trkpt lat="45.0221683" lon="8.3294733"><ele>265.6666666666667</ele><time>2026-04-25T08:28:18.983Z</time></trkpt><trkpt lat="45.022235" lon="8.3292717"><ele>270.0</ele><time>2026-04-25T08:28:19.984Z</time></trkpt><trkpt lat="45.0223" lon="8.329065"><ele>271.0</ele><time>2026-04-25T08:28:20.983Z</time></trkpt><trkpt lat="45.0223583" lon="8.3288533"><ele>272.0</ele><time>2026-04-25T08:28:21.983Z</time></trkpt><trkpt lat="45.022415" lon="8.3286433"><ele>273.0</ele><time>2026-04-25T08:28:22.984Z</time></trkpt><trkpt lat="45.0224683" lon="8.328445"><ele>269.25</ele><time>2026-04-25T08:28:23.984Z</time></trkpt><trkpt lat="45.0225167" lon="8.3282717"><ele>265.5</ele><time>2026-04-25T08:28:24.983Z</time></trkpt><trkpt lat="45.022585" lon="8.3281283"><ele>261.75</ele><time>2026-04-25T08:28:25.983Z</time></trkpt><trkpt lat="45.0226967" lon="8.3280117"><ele>258.0</ele><time>2026-04-25T08:28:26.984Z</time></trkpt><trkpt lat="45.0228417" lon="8.3279567"><ele>258.0</ele><time>2026-04-25T08:28:27.983Z</time></trkpt><trkpt lat="45.023" lon="8.327985"><ele>258.0</ele><time>2026-04-25T08:28:28.983Z</time></trkpt><trkpt lat="45.0231333" lon="8.328035"><ele>258.0</ele><time>2026-04-25T08:28:29.983Z</time></trkpt><trkpt lat="45.0232983" lon="8.32815"><ele>255.66666666666669</ele><time>2026-04-25T08:28:30.984Z</time></trkpt><trkpt lat="45.02348" lon="8.3282767"><ele>253.33333333333334</ele><time>2026-04-25T08:28:31.984Z</time></trkpt><trkpt lat="45.0236667" lon="8.32842"><ele>251.0</ele><time>2026-04-25T08:28:32.983Z</time></trkpt><trkpt lat="45.0238733" lon="8.3285633"><ele>251.0</ele><time>2026-04-25T08:28:33.984Z</time></trkpt><trkpt lat="45.0240833" lon="8.3287017"><ele>251.0</ele><time>2026-04-25T08:28:34.984Z</time></trkpt><trkpt lat="45.024285" lon="8.32884"><ele>249.66666666666669</ele><time>2026-04-25T08:28:35.983Z</time></trkpt><trkpt lat="45.0244817" lon="8.3289717"><ele>248.33333333333331</ele><time>2026-04-25T08:28:36.984Z</time></trkpt><trkpt lat="45.0246767" lon="8.3291033"><ele>247.0</ele><time>2026-04-25T08:28:37.983Z</time></trkpt><trkpt lat="45.02487" lon="8.3292283"><ele>243.0</ele><time>2026-04-25T08:28:38.984Z</time></trkpt><trkpt lat="45.025055" lon="8.3293533"><ele>239.0</ele><time>2026-04-25T08:28:39.983Z</time></trkpt><trkpt lat="45.02523" lon="8.3294767"><ele>235.0</ele><time>2026-04-25T08:28:40.984Z</time></trkpt><trkpt lat="45.0253867" lon="8.3295933"><ele>235.0</ele><time>2026-04-25T08:28:41.984Z</time></trkpt><trkpt lat="45.025535" lon="8.3297"><ele>235.0</ele><time>2026-04-25T08:28:42.983Z</time></trkpt><trkpt lat="45.0256717" lon="8.3297933"><ele>235.0</ele><time>2026-04-25T08:28:43.983Z</time></trkpt><trkpt lat="45.025785" lon="8.3298517"><ele>235.0</ele><time>2026-04-25T08:28:44.983Z</time></trkpt><trkpt lat="45.0258867" lon="8.3298867"><ele>233.5</ele><time>2026-04-25T08:28:45.983Z</time></trkpt><trkpt lat="45.0259883" lon="8.3298617"><ele>232.0</ele><time>2026-04-25T08:28:46.984Z</time></trkpt><trkpt lat="45.02607" lon="8.3297633"><ele>230.5</ele><time>2026-04-25T08:28:47.983Z</time></trkpt><trkpt lat="45.0261283" lon="8.329605"><ele>229.0</ele><time>2026-04-25T08:28:48.984Z</time></trkpt><trkpt lat="45.0261333" lon="8.3293967"><ele>227.66666666666666</ele><time>2026-04-25T08:28:49.984Z</time></trkpt><trkpt lat="45.0261033" lon="8.3291833"><ele>226.33333333333331</ele><time>2026-04-25T08:28:50.984Z</time></trkpt><trkpt lat="45.02605" lon="8.3289367"><ele>225.0</ele><time>2026-04-25T08:28:51.983Z</time></trkpt><trkpt lat="45.0259817" lon="8.3286883"><ele>225.0</ele><time>2026-04-25T08:28:52.984Z</time></trkpt><trkpt lat="45.0259017" lon="8.3284067"><ele>225.0</ele><time>2026-04-25T08:28:53.984Z</time></trkpt><trkpt lat="45.025825" lon="8.3281333"><ele>225.0</ele><time>2026-04-25T08:28:54.983Z</time></trkpt><trkpt lat="45.0257533" lon="8.3278617"><ele>225.0</ele><time>2026-04-25T08:28:55.983Z</time></trkpt><trkpt lat="45.0256767" lon="8.32758"><ele>225.0</ele><time>2026-04-25T08:28:56.983Z</time></trkpt><trkpt lat="45.0255983" lon="8.327295"><ele>225.0</ele><time>2026-04-25T08:28:57.983Z</time></trkpt><trkpt lat="45.02552" lon="8.3269817"><ele>221.5</ele><time>2026-04-25T08:28:58.983Z</time></trkpt><trkpt lat="45.0254417" lon="8.3266833"><ele>218.0</ele><time>2026-04-25T08:28:59.983Z</time></trkpt><trkpt lat="45.0253617" lon="8.32638"><ele>216.66666666666669</ele><time>2026-04-25T08:29:00.983Z</time></trkpt><trkpt lat="45.0252983" lon="8.3260833"><ele>215.33333333333331</ele><time>2026-04-25T08:29:01.984Z</time></trkpt><trkpt lat="45.0252583" lon="8.3258"><ele>214.0</ele><time>2026-04-25T08:29:02.984Z</time></trkpt><trkpt lat="45.025245" lon="8.32553"><ele>211.66666666666666</ele><time>2026-04-25T08:29:03.984Z</time></trkpt><trkpt lat="45.0252683" lon="8.3252383"><ele>209.33333333333331</ele><time>2026-04-25T08:29:04.983Z</time></trkpt><trkpt lat="45.0253467" lon="8.3249517"><ele>207.0</ele><time>2026-04-25T08:29:05.984Z</time></trkpt><trkpt lat="45.0254633" lon="8.3246867"><ele>205.33333333333331</ele><time>2026-04-25T08:29:06.984Z</time></trkpt><trkpt lat="45.0255917" lon="8.3244467"><ele>203.66666666666666</ele><time>2026-04-25T08:29:07.983Z</time></trkpt><trkpt lat="45.0257183" lon="8.3242083"><ele>202.0</ele><time>2026-04-25T08:29:08.983Z</time></trkpt><trkpt lat="45.0258483" lon="8.323935"><ele>202.0</ele><time>2026-04-25T08:29:09.983Z</time></trkpt><trkpt lat="45.0259817" lon="8.323655"><ele>202.0</ele><time>2026-04-25T08:29:10.983Z</time></trkpt><trkpt lat="45.0261233" lon="8.3233883"><ele>202.0</ele><time>2026-04-25T08:29:11.983Z</time></trkpt><trkpt lat="45.0262633" lon="8.3231217"><ele>202.0</ele><time>2026-04-25T08:29:12.983Z</time></trkpt><trkpt lat="45.0264033" lon="8.3228617"><ele>202.66666666666666</ele><time>2026-04-25T08:29:13.983Z</time></trkpt><trkpt lat="45.0265267" lon="8.3226233"><ele>203.33333333333331</ele><time>2026-04-25T08:29:14.984Z</time></trkpt><trkpt lat="45.02669" lon="8.3224233"><ele>204.0</ele><time>2026-04-25T08:29:15.984Z</time></trkpt><trkpt lat="45.0268733" lon="8.3222417"><ele>207.33333333333331</ele><time>2026-04-25T08:29:16.983Z</time></trkpt><trkpt lat="45.0270733" lon="8.3220817"><ele>210.66666666666666</ele><time>2026-04-25T08:29:17.983Z</time></trkpt><trkpt lat="45.02726" lon="8.32194"><ele>214.0</ele><time>2026-04-25T08:29:18.984Z</time></trkpt><trkpt lat="45.0274267" lon="8.3218017"><ele>213.66666666666666</ele><time>2026-04-25T08:29:19.984Z</time></trkpt><trkpt lat="45.027575" lon="8.32166"><ele>213.33333333333331</ele><time>2026-04-25T08:29:20.983Z</time></trkpt><trkpt lat="45.02768" lon="8.3214883"><ele>213.0</ele><time>2026-04-25T08:29:21.983Z</time></trkpt><trkpt lat="45.027755" lon="8.3213"><ele>214.66666666666669</ele><time>2026-04-25T08:29:22.984Z</time></trkpt><trkpt lat="45.0278" lon="8.32108"><ele>216.33333333333334</ele><time>2026-04-25T08:29:23.984Z</time></trkpt><trkpt lat="45.0278217" lon="8.320825"><ele>218.0</ele><time>2026-04-25T08:29:24.984Z</time></trkpt><trkpt lat="45.0278367" lon="8.3205533"><ele>221.0</ele><time>2026-04-25T08:29:25.984Z</time></trkpt><trkpt lat="45.0278483" lon="8.320255"><ele>224.0</ele><time>2026-04-25T08:29:26.983Z</time></trkpt><trkpt lat="45.0278633" lon="8.319945"><ele>227.0</ele><time>2026-04-25T08:29:27.984Z</time></trkpt><trkpt lat="45.0278817" lon="8.3196283"><ele>228.0</ele><time>2026-04-25T08:29:28.983Z</time></trkpt><trkpt lat="45.027895" lon="8.3193367"><ele>229.0</ele><time>2026-04-25T08:29:29.984Z</time></trkpt><trkpt lat="45.0279067" lon="8.3190567"><ele>230.0</ele><time>2026-04-25T08:29:30.984Z</time></trkpt><trkpt lat="45.0279167" lon="8.3187983"><ele>230.66666666666669</ele><time>2026-04-25T08:29:31.984Z</time></trkpt><trkpt lat="45.0279383" lon="8.318565"><ele>231.33333333333331</ele><time>2026-04-25T08:29:32.983Z</time></trkpt><trkpt lat="45.0279833" lon="8.31834"><ele>232.0</ele><time>2026-04-25T08:29:33.984Z</time></trkpt><trkpt lat="45.0280867" lon="8.3181733"><ele>231.66666666666666</ele><time>2026-04-25T08:29:34.983Z</time></trkpt><trkpt lat="45.0282217" lon="8.3180517"><ele>231.33333333333331</ele><time>2026-04-25T08:29:35.983Z</time></trkpt><trkpt lat="45.0283683" lon="8.3179667"><ele>231.0</ele><time>2026-04-25T08:29:36.983Z</time></trkpt><trkpt lat="45.028525" lon="8.3179583"><ele>231.0</ele><time>2026-04-25T08:29:37.983Z</time></trkpt><trkpt lat="45.0286833" lon="8.31803"><ele>231.0</ele><time>2026-04-25T08:29:38.984Z</time></trkpt><trkpt lat="45.02887" lon="8.3181517"><ele>231.0</ele><time>2026-04-25T08:29:39.984Z</time></trkpt><trkpt lat="45.0290467" lon="8.3182967"><ele>230.66666666666669</ele><time>2026-04-25T08:29:40.983Z</time></trkpt><trkpt lat="45.0292033" lon="8.3184317"><ele>230.33333333333334</ele><time>2026-04-25T08:29:41.983Z</time></trkpt><trkpt lat="45.0293467" lon="8.3185133"><ele>230.0</ele><time>2026-04-25T08:29:42.984Z</time></trkpt><trkpt lat="45.0295067" lon="8.31855"><ele>230.0</ele><time>2026-04-25T08:29:43.983Z</time></trkpt><trkpt lat="45.0296817" lon="8.3185317"><ele>230.0</ele><time>2026-04-25T08:29:44.984Z</time></trkpt><trkpt lat="45.029865" lon="8.31848"><ele>230.0</ele><time>2026-04-25T08:29:45.983Z</time></trkpt><trkpt lat="45.0300333" lon="8.318415"><ele>231.0</ele><time>2026-04-25T08:29:46.984Z</time></trkpt><trkpt lat="45.03018" lon="8.31832"><ele>232.0</ele><time>2026-04-25T08:29:47.984Z</time></trkpt><trkpt lat="45.03029" lon="8.3182467"><ele>233.0</ele><time>2026-04-25T08:29:48.983Z</time></trkpt><trkpt lat="45.0303683" lon="8.31819"><ele>234.0</ele><time>2026-04-25T08:29:49.983Z</time></trkpt><trkpt lat="45.030455" lon="8.318125"><ele>235.75</ele><time>2026-04-25T08:29:51.983Z</time></trkpt><trkpt lat="45.0306167" lon="8.3179817"><ele>237.5</ele><time>2026-04-25T08:31:05.984Z</time></trkpt><trkpt lat="45.0306933" lon="8.3179217"><ele>239.25</ele><time>2026-04-25T08:31:06.983Z</time></trkpt><trkpt lat="45.0307767" lon="8.317855"><ele>241.0</ele><time>2026-04-25T08:31:07.984Z</time></trkpt><trkpt lat="45.030865" lon="8.3177883"><ele>241.0</ele><time>2026-04-25T08:31:08.983Z</time></trkpt><trkpt lat="45.0309583" lon="8.317715"><ele>241.00000000000003</ele><time>2026-04-25T08:31:09.983Z</time></trkpt><trkpt lat="45.03105" lon="8.317645"><ele>241.00000000000003</ele><time>2026-04-25T08:31:10.983Z</time></trkpt><trkpt lat="45.0311517" lon="8.3175717"><ele>241.0</ele><time>2026-04-25T08:31:11.983Z</time></trkpt><trkpt lat="45.0312517" lon="8.3174933"><ele>241.0</ele><time>2026-04-25T08:31:12.983Z</time></trkpt><trkpt lat="45.0313583" lon="8.31742"><ele>241.0</ele><time>2026-04-25T08:31:13.984Z</time></trkpt><trkpt lat="45.03147" lon="8.3173317"><ele>241.0</ele><time>2026-04-25T08:31:14.984Z</time></trkpt><trkpt lat="45.0315883" lon="8.31722"><ele>241.0</ele><time>2026-04-25T08:31:15.984Z</time></trkpt><trkpt lat="45.031695" lon="8.3170983"><ele>241.0</ele><time>2026-04-25T08:31:16.983Z</time></trkpt><trkpt lat="45.0317833" lon="8.3169617"><ele>241.5</ele><time>2026-04-25T08:31:17.984Z</time></trkpt><trkpt lat="45.0318533" lon="8.316795"><ele>242.0</ele><time>2026-04-25T08:31:18.983Z</time></trkpt><trkpt lat="45.031915" lon="8.3165983"><ele>242.5</ele><time>2026-04-25T08:31:19.983Z</time></trkpt><trkpt lat="45.0319633" lon="8.3164017"><ele>243.0</ele><time>2026-04-25T08:31:20.984Z</time></trkpt><trkpt lat="45.0320183" lon="8.31621"><ele>244.66666666666669</ele><time>2026-04-25T08:31:21.983Z</time></trkpt><trkpt lat="45.0320833" lon="8.3160067"><ele>246.33333333333334</ele><time>2026-04-25T08:31:22.984Z</time></trkpt><trkpt lat="45.032145" lon="8.3158033"><ele>248.0</ele><time>2026-04-25T08:31:23.983Z</time></trkpt><trkpt lat="45.0322133" lon="8.3156033"><ele>249.33333333333334</ele><time>2026-04-25T08:31:24.984Z</time></trkpt><trkpt lat="45.0322833" lon="8.3153917"><ele>250.66666666666669</ele><time>2026-04-25T08:31:25.983Z</time></trkpt><trkpt lat="45.0323517" lon="8.3151767"><ele>252.0</ele><time>2026-04-25T08:31:26.983Z</time></trkpt><trkpt lat="45.0324233" lon="8.31496"><ele>253.0</ele><time>2026-04-25T08:31:27.983Z</time></trkpt><trkpt lat="45.0324917" lon="8.3147417"><ele>254.0</ele><time>2026-04-25T08:31:28.983Z</time></trkpt><trkpt lat="45.032555" lon="8.3145267"><ele>255.0</ele><time>2026-04-25T08:31:29.983Z</time></trkpt><trkpt lat="45.03262" lon="8.3143217"><ele>255.0</ele><time>2026-04-25T08:31:30.983Z</time></trkpt><trkpt lat="45.032685" lon="8.3141233"><ele>255.0</ele><time>2026-04-25T08:31:31.984Z</time></trkpt><trkpt lat="45.03275" lon="8.3139217"><ele>255.0</ele><time>2026-04-25T08:31:32.983Z</time></trkpt><trkpt lat="45.0328217" lon="8.3137417"><ele>256.3333333333333</ele><time>2026-04-25T08:31:33.983Z</time></trkpt><trkpt lat="45.0329183" lon="8.3135767"><ele>257.66666666666663</ele><time>2026-04-25T08:31:34.983Z</time></trkpt><trkpt lat="45.03305" lon="8.3134217"><ele>259.0</ele><time>2026-04-25T08:31:35.983Z</time></trkpt><trkpt lat="45.0331833" lon="8.3133217"><ele>257.66666666666663</ele><time>2026-04-25T08:31:36.984Z</time></trkpt><trkpt lat="45.0333417" lon="8.3132617"><ele>256.3333333333333</ele><time>2026-04-25T08:31:37.983Z</time></trkpt><trkpt lat="45.03353" lon="8.313245"><ele>255.0</ele><time>2026-04-25T08:31:38.984Z</time></trkpt><trkpt lat="45.0337333" lon="8.313265"><ele>255.0</ele><time>2026-04-25T08:31:39.983Z</time></trkpt><trkpt lat="45.03394" lon="8.3133033"><ele>255.0</ele><time>2026-04-25T08:31:40.983Z</time></trkpt><trkpt lat="45.0341417" lon="8.313355"><ele>255.0</ele><time>2026-04-25T08:31:41.984Z</time></trkpt><trkpt lat="45.03434" lon="8.3134017"><ele>257.6666666666667</ele><time>2026-04-25T08:31:42.983Z</time></trkpt><trkpt lat="45.034535" lon="8.3134283"><ele>260.33333333333337</ele><time>2026-04-25T08:31:43.984Z</time></trkpt><trkpt lat="45.0347383" lon="8.3134517"><ele>263.0</ele><time>2026-04-25T08:31:44.983Z</time></trkpt><trkpt lat="45.0349267" lon="8.3135"><ele>262.0</ele><time>2026-04-25T08:31:45.983Z</time></trkpt><trkpt lat="45.0351167" lon="8.3135333"><ele>261.0</ele><time>2026-04-25T08:31:46.983Z</time></trkpt><trkpt lat="45.035295" lon="8.31357"><ele>260.0</ele><time>2026-04-25T08:31:47.983Z</time></trkpt><trkpt lat="45.0354733" lon="8.313605"><ele>260.0</ele><time>2026-04-25T08:31:48.983Z</time></trkpt><trkpt lat="45.035645" lon="8.313655"><ele>260.0</ele><time>2026-04-25T08:31:49.983Z</time></trkpt><trkpt lat="45.0358083" lon="8.3137217"><ele>260.0</ele><time>2026-04-25T08:31:50.983Z</time></trkpt><trkpt lat="45.0359617" lon="8.3137917"><ele>260.33333333333337</ele><time>2026-04-25T08:31:51.983Z</time></trkpt><trkpt lat="45.0361167" lon="8.3138517"><ele>260.6666666666667</ele><time>2026-04-25T08:31:52.984Z</time></trkpt><trkpt lat="45.0362667" lon="8.3139067"><ele>261.0</ele><time>2026-04-25T08:31:53.983Z</time></trkpt><trkpt lat="45.0364" lon="8.3139467"><ele>264.5</ele><time>2026-04-25T08:31:54.983Z</time></trkpt><trkpt lat="45.03651" lon="8.31397"><ele>268.0</ele><time>2026-04-25T08:31:55.983Z</time></trkpt><trkpt lat="45.0366317" lon="8.3140033"><ele>271.5</ele><time>2026-04-25T08:31:56.984Z</time></trkpt><trkpt lat="45.0367583" lon="8.3140133"><ele>275.0</ele><time>2026-04-25T08:31:57.984Z</time></trkpt><trkpt lat="45.0368967" lon="8.3139817"><ele>275.0</ele><time>2026-04-25T08:31:58.983Z</time></trkpt><trkpt lat="45.0370333" lon="8.3139617"><ele>275.0</ele><time>2026-04-25T08:31:59.983Z</time></trkpt><trkpt lat="45.037175" lon="8.3138983"><ele>275.0</ele><time>2026-04-25T08:32:00.983Z</time></trkpt><trkpt lat="45.0373133" lon="8.313865"><ele>275.0</ele><time>2026-04-25T08:32:01.983Z</time></trkpt><trkpt lat="45.0374433" lon="8.313805"><ele>271.0</ele><time>2026-04-25T08:32:02.983Z</time></trkpt><trkpt lat="45.0375717" lon="8.31378"><ele>267.0</ele><time>2026-04-25T08:32:03.983Z</time></trkpt><trkpt lat="45.037695" lon="8.3137517"><ele>263.0</ele><time>2026-04-25T08:32:04.983Z</time></trkpt><trkpt lat="45.03781" lon="8.3137183"><ele>259.0</ele><time>2026-04-25T08:32:05.983Z</time></trkpt><trkpt lat="45.0379133" lon="8.313675"><ele>259.0</ele><time>2026-04-25T08:32:06.984Z</time></trkpt><trkpt lat="45.0380117" lon="8.3136333"><ele>259.0</ele><time>2026-04-25T08:32:07.984Z</time></trkpt><trkpt lat="45.0381017" lon="8.3135967"><ele>259.0</ele><time>2026-04-25T08:32:08.984Z</time></trkpt><trkpt lat="45.0381933" lon="8.3135867"><ele>259.0</ele><time>2026-04-25T08:32:09.983Z</time></trkpt><trkpt lat="45.0382833" lon="8.31359"><ele>259.0</ele><time>2026-04-25T08:32:10.984Z</time></trkpt><trkpt lat="45.0383667" lon="8.3135967"><ele>260.7142857142857</ele><time>2026-04-25T08:32:11.984Z</time></trkpt><trkpt lat="45.0384433" lon="8.3135983"><ele>262.42857142857144</ele><time>2026-04-25T08:32:12.983Z</time></trkpt><trkpt lat="45.03851" lon="8.3135967"><ele>264.1428571428571</ele><time>2026-04-25T08:32:13.983Z</time></trkpt><trkpt lat="45.0385817" lon="8.3135983"><ele>265.8571428571429</ele><time>2026-04-25T08:32:14.983Z</time></trkpt><trkpt lat="45.03866" lon="8.31358"><ele>267.57142857142856</ele><time>2026-04-25T08:32:15.983Z</time></trkpt><trkpt lat="45.0387267" lon="8.3135167"><ele>269.2857142857143</ele><time>2026-04-25T08:32:16.983Z</time></trkpt><trkpt lat="45.0387717" lon="8.31344"><ele>271.0</ele><time>2026-04-25T08:32:17.983Z</time></trkpt><trkpt lat="45.0388133" lon="8.31336"><ele>271.0</ele><time>2026-04-25T08:32:18.983Z</time></trkpt><trkpt lat="45.0388767" lon="8.3132883"><ele>271.0</ele><time>2026-04-25T08:32:19.984Z</time></trkpt><trkpt lat="45.0389483" lon="8.3132033"><ele>271.0</ele><time>2026-04-25T08:32:20.983Z</time></trkpt><trkpt lat="45.0390317" lon="8.3131467"><ele>271.0</ele><time>2026-04-25T08:32:21.984Z</time></trkpt><trkpt lat="45.0391433" lon="8.3131083"><ele>271.0</ele><time>2026-04-25T08:32:22.983Z</time></trkpt><trkpt lat="45.0392517" lon="8.3130667"><ele>271.40000000000003</ele><time>2026-04-25T08:32:23.983Z</time></trkpt><trkpt lat="45.0393617" lon="8.3130233"><ele>271.8</ele><time>2026-04-25T08:32:24.983Z</time></trkpt><trkpt lat="45.03947" lon="8.3129817"><ele>272.20000000000005</ele><time>2026-04-25T08:32:25.983Z</time></trkpt><trkpt lat="45.039565" lon="8.3129333"><ele>272.6</ele><time>2026-04-25T08:32:26.983Z</time></trkpt><trkpt lat="45.039655" lon="8.3129033"><ele>273.0</ele><time>2026-04-25T08:32:27.984Z</time></trkpt><trkpt lat="45.0397467" lon="8.3128817"><ele>273.0</ele><time>2026-04-25T08:32:28.983Z</time></trkpt><trkpt lat="45.0398233" lon="8.3128517"><ele>273.0</ele><time>2026-04-25T08:32:29.983Z</time></trkpt><trkpt lat="45.0399033" lon="8.3128367"><ele>273.0</ele><time>2026-04-25T08:32:30.983Z</time></trkpt><trkpt lat="45.0399717" lon="8.3128283"><ele>273.0</ele><time>2026-04-25T08:32:31.983Z</time></trkpt><trkpt lat="45.0400433" lon="8.3128"><ele>273.0</ele><time>2026-04-25T08:32:32.984Z</time></trkpt><trkpt lat="45.0401183" lon="8.3127567"><ele>273.0</ele><time>2026-04-25T08:32:33.983Z</time></trkpt><trkpt lat="45.04018" lon="8.312685"><ele>272.25</ele><time>2026-04-25T08:32:34.983Z</time></trkpt><trkpt lat="45.0402533" lon="8.312575"><ele>271.5</ele><time>2026-04-25T08:32:35.984Z</time></trkpt><trkpt lat="45.0403267" lon="8.3124333"><ele>270.75</ele><time>2026-04-25T08:32:36.984Z</time></trkpt><trkpt lat="45.0404017" lon="8.312295"><ele>270.0</ele><time>2026-04-25T08:32:37.984Z</time></trkpt><trkpt lat="45.0404617" lon="8.3121417"><ele>268.0</ele><time>2026-04-25T08:32:38.983Z</time></trkpt><trkpt lat="45.0405333" lon="8.31199"><ele>266.0</ele><time>2026-04-25T08:32:39.984Z</time></trkpt><trkpt lat="45.0405983" lon="8.3118367"><ele>264.0</ele><time>2026-04-25T08:32:40.983Z</time></trkpt><trkpt lat="45.04067" lon="8.3116817"><ele>262.0</ele><time>2026-04-25T08:32:41.983Z</time></trkpt><trkpt lat="45.0407367" lon="8.3115267"><ele>260.8</ele><time>2026-04-25T08:32:42.983Z</time></trkpt><trkpt lat="45.0407967" lon="8.3113883"><ele>259.6</ele><time>2026-04-25T08:32:43.983Z</time></trkpt><trkpt lat="45.0408483" lon="8.31125"><ele>258.40000000000003</ele><time>2026-04-25T08:32:44.983Z</time></trkpt><trkpt lat="45.0408867" lon="8.3111283"><ele>257.2</ele><time>2026-04-25T08:32:45.983Z</time></trkpt><trkpt lat="45.0409167" lon="8.3110217"><ele>256.0</ele><time>2026-04-25T08:32:46.984Z</time></trkpt><trkpt lat="45.0409617" lon="8.3108767"><ele>258.8</ele><time>2026-04-25T08:32:48.983Z</time></trkpt><trkpt lat="45.041075" lon="8.3108617"><ele>261.6</ele><time>2026-04-25T08:32:50.984Z</time></trkpt><trkpt lat="45.0411767" lon="8.3108983"><ele>264.4</ele><time>2026-04-25T08:32:51.983Z</time></trkpt><trkpt lat="45.0412833" lon="8.3108967"><ele>267.2</ele><time>2026-04-25T08:32:52.983Z</time></trkpt><trkpt lat="45.0413983" lon="8.3108767"><ele>270.0</ele><time>2026-04-25T08:32:53.983Z</time></trkpt><trkpt lat="45.04151" lon="8.3108467"><ele>270.0</ele><time>2026-04-25T08:32:54.984Z</time></trkpt><trkpt lat="45.041615" lon="8.3108017"><ele>270.0</ele><time>2026-04-25T08:32:55.983Z</time></trkpt><trkpt lat="45.0417133" lon="8.3107567"><ele>270.0</ele><time>2026-04-25T08:32:56.984Z</time></trkpt><trkpt lat="45.04181" lon="8.3107117"><ele>270.0</ele><time>2026-04-25T08:32:57.983Z</time></trkpt><trkpt lat="45.0419017" lon="8.3106633"><ele>270.0</ele><time>2026-04-25T08:32:58.983Z</time></trkpt><trkpt lat="45.0419933" lon="8.310635"><ele>270.0</ele><time>2026-04-25T08:32:59.984Z</time></trkpt><trkpt lat="45.0420867" lon="8.3106233"><ele>270.0</ele><time>2026-04-25T08:33:00.983Z</time></trkpt><trkpt lat="45.042185" lon="8.3106417"><ele>270.0</ele><time>2026-04-25T08:33:01.984Z</time></trkpt><trkpt lat="45.0422867" lon="8.31068"><ele>270.0</ele><time>2026-04-25T08:33:02.983Z</time></trkpt><trkpt lat="45.0423733" lon="8.310755"><ele>270.0</ele><time>2026-04-25T08:33:03.983Z</time></trkpt><trkpt lat="45.0424783" lon="8.3108467"><ele>270.25</ele><time>2026-04-25T08:33:04.984Z</time></trkpt><trkpt lat="45.0425933" lon="8.3109567"><ele>270.5</ele><time>2026-04-25T08:33:05.983Z</time></trkpt><trkpt lat="45.0427167" lon="8.3110533"><ele>270.75</ele><time>2026-04-25T08:33:06.984Z</time></trkpt><trkpt lat="45.0428417" lon="8.311165"><ele>271.0</ele><time>2026-04-25T08:33:07.983Z</time></trkpt><trkpt lat="45.0429317" lon="8.3112833"><ele>269.5</ele><time>2026-04-25T08:33:08.983Z</time></trkpt><trkpt lat="45.0429917" lon="8.3114367"><ele>268.0</ele><time>2026-04-25T08:33:09.983Z</time></trkpt><trkpt lat="45.0430467" lon="8.3116117"><ele>266.5</ele><time>2026-04-25T08:33:10.984Z</time></trkpt><trkpt lat="45.0431033" lon="8.3117767"><ele>265.0</ele><time>2026-04-25T08:33:11.983Z</time></trkpt><trkpt lat="45.0431833" lon="8.311915"><ele>265.0</ele><time>2026-04-25T08:33:12.983Z</time></trkpt><trkpt lat="45.04326" lon="8.311985"><ele>265.0</ele><time>2026-04-25T08:33:13.983Z</time></trkpt><trkpt lat="45.043355" lon="8.3120117"><ele>265.0</ele><time>2026-04-25T08:33:14.983Z</time></trkpt><trkpt lat="45.0434683" lon="8.31198"><ele>265.0</ele><time>2026-04-25T08:33:15.983Z</time></trkpt><trkpt lat="45.0435933" lon="8.3119067"><ele>265.0</ele><time>2026-04-25T08:33:16.983Z</time></trkpt><trkpt lat="45.0437083" lon="8.3117583"><ele>267.0</ele><time>2026-04-25T08:33:17.984Z</time></trkpt><trkpt lat="45.0438133" lon="8.31156"><ele>269.0</ele><time>2026-04-25T08:33:18.984Z</time></trkpt><trkpt lat="45.0439067" lon="8.3113017"><ele>271.0</ele><time>2026-04-25T08:33:19.984Z</time></trkpt><trkpt lat="45.0439917" lon="8.3110217"><ele>273.3333333333333</ele><time>2026-04-25T08:33:20.983Z</time></trkpt><trkpt lat="45.0440917" lon="8.310745"><ele>275.6666666666667</ele><time>2026-04-25T08:33:21.983Z</time></trkpt><trkpt lat="45.0441917" lon="8.3104833"><ele>278.0</ele><time>2026-04-25T08:33:22.983Z</time></trkpt><trkpt lat="45.044305" lon="8.31025"><ele>278.0</ele><time>2026-04-25T08:33:23.983Z</time></trkpt><trkpt lat="45.044435" lon="8.310035"><ele>278.0</ele><time>2026-04-25T08:33:24.983Z</time></trkpt><trkpt lat="45.0445817" lon="8.3098283"><ele>278.0</ele><time>2026-04-25T08:33:25.983Z</time></trkpt><trkpt lat="45.0447383" lon="8.3096233"><ele>280.0</ele><time>2026-04-25T08:33:26.984Z</time></trkpt><trkpt lat="45.044885" lon="8.3094417"><ele>282.0</ele><time>2026-04-25T08:33:27.982Z</time></trkpt><trkpt lat="45.04499" lon="8.3092367"><ele>284.0</ele><time>2026-04-25T08:33:28.982Z</time></trkpt><trkpt lat="45.0450967" lon="8.3090333"><ele>281.33333333333337</ele><time>2026-04-25T08:33:29.983Z</time></trkpt><trkpt lat="45.0451867" lon="8.3088167"><ele>278.6666666666667</ele><time>2026-04-25T08:33:30.982Z</time></trkpt><trkpt lat="45.04525" lon="8.30857"><ele>276.0</ele><time>2026-04-25T08:33:31.982Z</time></trkpt><trkpt lat="45.0453067" lon="8.3083117"><ele>278.0</ele><time>2026-04-25T08:33:32.983Z</time></trkpt><trkpt lat="45.0453517" lon="8.308025"><ele>280.0</ele><time>2026-04-25T08:33:33.982Z</time></trkpt><trkpt lat="45.0454" lon="8.3077333"><ele>282.0</ele><time>2026-04-25T08:33:34.983Z</time></trkpt><trkpt lat="45.0454467" lon="8.3074417"><ele>283.0</ele><time>2026-04-25T08:33:35.982Z</time></trkpt><trkpt lat="45.0454917" lon="8.3071583"><ele>284.0</ele><time>2026-04-25T08:33:36.983Z</time></trkpt><trkpt lat="45.04553" lon="8.306885"><ele>285.0</ele><time>2026-04-25T08:33:37.982Z</time></trkpt><trkpt lat="45.0455783" lon="8.306635"><ele>284.3333333333333</ele><time>2026-04-25T08:33:38.982Z</time></trkpt><trkpt lat="45.0456283" lon="8.3063867"><ele>283.66666666666663</ele><time>2026-04-25T08:33:39.983Z</time></trkpt><trkpt lat="45.045665" lon="8.3061617"><ele>283.0</ele><time>2026-04-25T08:33:40.982Z</time></trkpt><trkpt lat="45.0457183" lon="8.3059567"><ele>283.0</ele><time>2026-04-25T08:33:41.982Z</time></trkpt><trkpt lat="45.0457783" lon="8.3057533"><ele>283.0</ele><time>2026-04-25T08:33:42.982Z</time></trkpt><trkpt lat="45.0458467" lon="8.3055433"><ele>283.0</ele><time>2026-04-25T08:33:43.982Z</time></trkpt><trkpt lat="45.04592" lon="8.3053367"><ele>279.66666666666663</ele><time>2026-04-25T08:33:44.982Z</time></trkpt><trkpt lat="45.0460317" lon="8.3051317"><ele>276.3333333333333</ele><time>2026-04-25T08:33:45.983Z</time></trkpt><trkpt lat="45.046135" lon="8.3048933"><ele>273.0</ele><time>2026-04-25T08:33:46.982Z</time></trkpt><trkpt lat="45.0462417" lon="8.3046267"><ele>270.0</ele><time>2026-04-25T08:33:47.982Z</time></trkpt><trkpt lat="45.0463533" lon="8.304345"><ele>267.0</ele><time>2026-04-25T08:33:48.982Z</time></trkpt><trkpt lat="45.04647" lon="8.3040617"><ele>264.5</ele><time>2026-04-25T08:33:49.983Z</time></trkpt><trkpt lat="45.0465917" lon="8.303785"><ele>262.0</ele><time>2026-04-25T08:33:50.983Z</time></trkpt><trkpt lat="45.0467117" lon="8.3035067"><ele>262.0</ele><time>2026-04-25T08:33:51.982Z</time></trkpt><trkpt lat="45.04683" lon="8.3032083"><ele>262.0</ele><time>2026-04-25T08:33:52.983Z</time></trkpt><trkpt lat="45.046925" lon="8.3028983"><ele>260.5</ele><time>2026-04-25T08:33:53.982Z</time></trkpt><trkpt lat="45.0470133" lon="8.3025767"><ele>259.0</ele><time>2026-04-25T08:33:54.983Z</time></trkpt><trkpt lat="45.0470817" lon="8.3022383"><ele>259.0</ele><time>2026-04-25T08:33:55.983Z</time></trkpt><trkpt lat="45.04713" lon="8.301915"><ele>259.0</ele><time>2026-04-25T08:33:56.983Z</time></trkpt><trkpt lat="45.0471883" lon="8.30161"><ele>258.66666666666663</ele><time>2026-04-25T08:33:57.983Z</time></trkpt><trkpt lat="45.0472433" lon="8.30133"><ele>258.3333333333333</ele><time>2026-04-25T08:33:58.983Z</time></trkpt><trkpt lat="45.0472883" lon="8.301065"><ele>258.0</ele><time>2026-04-25T08:33:59.983Z</time></trkpt><trkpt lat="45.0473483" lon="8.300805"><ele>259.0</ele><time>2026-04-25T08:34:00.983Z</time></trkpt><trkpt lat="45.0473683" lon="8.3005517"><ele>260.0</ele><time>2026-04-25T08:34:01.983Z</time></trkpt><trkpt lat="45.047365" lon="8.3002983"><ele>261.0</ele><time>2026-04-25T08:34:02.982Z</time></trkpt><trkpt lat="45.0473117" lon="8.3000567"><ele>261.0</ele><time>2026-04-25T08:34:03.982Z</time></trkpt><trkpt lat="45.0472283" lon="8.29982"><ele>261.0</ele><time>2026-04-25T08:34:04.983Z</time></trkpt><trkpt lat="45.04711" lon="8.2995933"><ele>261.0</ele><time>2026-04-25T08:34:05.982Z</time></trkpt><trkpt lat="45.046995" lon="8.29937"><ele>263.0</ele><time>2026-04-25T08:34:06.982Z</time></trkpt><trkpt lat="45.0468783" lon="8.2991367"><ele>265.0</ele><time>2026-04-25T08:34:07.982Z</time></trkpt><trkpt lat="45.04676" lon="8.2989067"><ele>267.0</ele><time>2026-04-25T08:34:08.983Z</time></trkpt><trkpt lat="45.0466433" lon="8.2986633"><ele>272.0</ele><time>2026-04-25T08:34:09.982Z</time></trkpt><trkpt lat="45.046535" lon="8.2984167"><ele>277.0</ele><time>2026-04-25T08:34:10.982Z</time></trkpt><trkpt lat="45.046435" lon="8.298145"><ele>282.0</ele><time>2026-04-25T08:34:11.982Z</time></trkpt><trkpt lat="45.04635" lon="8.2978617"><ele>282.0</ele><time>2026-04-25T08:34:12.983Z</time></trkpt><trkpt lat="45.046275" lon="8.29757"><ele>282.0</ele><time>2026-04-25T08:34:13.983Z</time></trkpt><trkpt lat="45.0462067" lon="8.2972683"><ele>282.0</ele><time>2026-04-25T08:34:14.982Z</time></trkpt><trkpt lat="45.0461383" lon="8.29697"><ele>279.5</ele><time>2026-04-25T08:34:15.983Z</time></trkpt><trkpt lat="45.046055" lon="8.296665"><ele>277.0</ele><time>2026-04-25T08:34:16.982Z</time></trkpt><trkpt lat="45.0459817" lon="8.29635"><ele>275.3333333333333</ele><time>2026-04-25T08:34:17.982Z</time></trkpt><trkpt lat="45.045915" lon="8.296055"><ele>273.6666666666667</ele><time>2026-04-25T08:34:18.982Z</time></trkpt><trkpt lat="45.0458533" lon="8.2957733"><ele>272.0</ele><time>2026-04-25T08:34:19.982Z</time></trkpt><trkpt lat="45.04579" lon="8.2954983"><ele>269.33333333333337</ele><time>2026-04-25T08:34:20.982Z</time></trkpt><trkpt lat="45.0457167" lon="8.2952267"><ele>266.6666666666667</ele><time>2026-04-25T08:34:21.982Z</time></trkpt><trkpt lat="45.0456483" lon="8.2949267"><ele>264.0</ele><time>2026-04-25T08:34:22.983Z</time></trkpt><trkpt lat="45.0455683" lon="8.2946283"><ele>264.0</ele><time>2026-04-25T08:34:23.982Z</time></trkpt><trkpt lat="45.0455067" lon="8.2943167"><ele>264.0</ele><time>2026-04-25T08:34:24.982Z</time></trkpt><trkpt lat="45.045425" lon="8.2940083"><ele>264.5</ele><time>2026-04-25T08:34:25.982Z</time></trkpt><trkpt lat="45.045345" lon="8.2937"><ele>265.0</ele><time>2026-04-25T08:34:26.983Z</time></trkpt><trkpt lat="45.045255" lon="8.2933733"><ele>267.0</ele><time>2026-04-25T08:34:27.983Z</time></trkpt><trkpt lat="45.0451617" lon="8.2930383"><ele>269.0</ele><time>2026-04-25T08:34:28.982Z</time></trkpt><trkpt lat="45.045055" lon="8.2926817"><ele>270.5</ele><time>2026-04-25T08:34:29.983Z</time></trkpt><trkpt lat="45.0449617" lon="8.2923533"><ele>272.0</ele><time>2026-04-25T08:34:30.982Z</time></trkpt><trkpt lat="45.0448583" lon="8.292035"><ele>272.0</ele><time>2026-04-25T08:34:31.983Z</time></trkpt><trkpt lat="45.044765" lon="8.29172"><ele>272.0</ele><time>2026-04-25T08:34:32.982Z</time></trkpt><trkpt lat="45.0446917" lon="8.2914233"><ele>274.0</ele><time>2026-04-25T08:34:33.982Z</time></trkpt><trkpt lat="45.0446383" lon="8.2911383"><ele>276.0</ele><time>2026-04-25T08:34:34.982Z</time></trkpt><trkpt lat="45.04459" lon="8.2908733"><ele>278.0</ele><time>2026-04-25T08:34:35.982Z</time></trkpt><trkpt lat="45.044575" lon="8.290595"><ele>275.0</ele><time>2026-04-25T08:34:36.982Z</time></trkpt><trkpt lat="45.0445883" lon="8.2902983"><ele>272.0</ele><time>2026-04-25T08:34:37.982Z</time></trkpt><trkpt lat="45.04463" lon="8.28999"><ele>269.0</ele><time>2026-04-25T08:34:38.983Z</time></trkpt><trkpt lat="45.0446933" lon="8.2896917"><ele>267.5</ele><time>2026-04-25T08:34:39.983Z</time></trkpt><trkpt lat="45.0447683" lon="8.2893867"><ele>266.0</ele><time>2026-04-25T08:34:40.983Z</time></trkpt><trkpt lat="45.0448283" lon="8.2890783"><ele>271.0</ele><time>2026-04-25T08:34:41.983Z</time></trkpt><trkpt lat="45.04488" lon="8.28876"><ele>276.0</ele><time>2026-04-25T08:34:42.982Z</time></trkpt><trkpt lat="45.0449317" lon="8.2884583"><ele>275.0</ele><time>2026-04-25T08:34:43.983Z</time></trkpt><trkpt lat="45.044965" lon="8.2881733"><ele>274.0</ele><time>2026-04-25T08:34:44.982Z</time></trkpt><trkpt lat="45.0449867" lon="8.2879167"><ele>273.0</ele><time>2026-04-25T08:34:45.982Z</time></trkpt><trkpt lat="45.0449617" lon="8.2876783"><ele>276.3333333333333</ele><time>2026-04-25T08:34:46.982Z</time></trkpt><trkpt lat="45.04489" lon="8.287445"><ele>279.66666666666663</ele><time>2026-04-25T08:34:47.983Z</time></trkpt><trkpt lat="45.0448017" lon="8.28721"><ele>283.0</ele><time>2026-04-25T08:34:48.983Z</time></trkpt><trkpt lat="45.0447083" lon="8.28698"><ele>283.0</ele><time>2026-04-25T08:34:49.982Z</time></trkpt><trkpt lat="45.0446283" lon="8.28674"><ele>283.0</ele><time>2026-04-25T08:34:50.983Z</time></trkpt><trkpt lat="45.044575" lon="8.2865067"><ele>283.0</ele><time>2026-04-25T08:34:51.982Z</time></trkpt><trkpt lat="45.0445383" lon="8.28626"><ele>281.66666666666663</ele><time>2026-04-25T08:34:52.982Z</time></trkpt><trkpt lat="45.04452" lon="8.2859683"><ele>280.3333333333333</ele><time>2026-04-25T08:34:53.982Z</time></trkpt><trkpt lat="45.0445133" lon="8.2856967"><ele>279.0</ele><time>2026-04-25T08:34:54.983Z</time></trkpt><trkpt lat="45.044515" lon="8.285405"><ele>278.6666666666667</ele><time>2026-04-25T08:34:55.982Z</time></trkpt><trkpt lat="45.0445167" lon="8.285085"><ele>278.33333333333337</ele><time>2026-04-25T08:34:56.983Z</time></trkpt><trkpt lat="45.0445133" lon="8.2847717"><ele>278.0</ele><time>2026-04-25T08:34:57.982Z</time></trkpt><trkpt lat="45.04452" lon="8.284455"><ele>277.5</ele><time>2026-04-25T08:34:58.982Z</time></trkpt><trkpt lat="45.0445233" lon="8.2841317"><ele>277.0</ele><time>2026-04-25T08:34:59.982Z</time></trkpt><trkpt lat="45.0445117" lon="8.2838133"><ele>275.5</ele><time>2026-04-25T08:35:00.983Z</time></trkpt><trkpt lat="45.0445117" lon="8.2835017"><ele>274.0</ele><time>2026-04-25T08:35:01.983Z</time></trkpt><trkpt lat="45.04453" lon="8.2831667"><ele>274.0</ele><time>2026-04-25T08:35:02.983Z</time></trkpt><trkpt lat="45.0445517" lon="8.28286"><ele>274.0</ele><time>2026-04-25T08:35:03.982Z</time></trkpt><trkpt lat="45.0445733" lon="8.282555"><ele>274.0</ele><time>2026-04-25T08:35:04.982Z</time></trkpt><trkpt lat="45.0445733" lon="8.2822667"><ele>276.0</ele><time>2026-04-25T08:35:05.982Z</time></trkpt><trkpt lat="45.0445533" lon="8.28197"><ele>278.0</ele><time>2026-04-25T08:35:06.982Z</time></trkpt><trkpt lat="45.0445233" lon="8.2816833"><ele>280.0</ele><time>2026-04-25T08:35:07.982Z</time></trkpt><trkpt lat="45.0444883" lon="8.2814083"><ele>283.3333333333333</ele><time>2026-04-25T08:35:08.982Z</time></trkpt><trkpt lat="45.0444733" lon="8.2811617"><ele>286.6666666666667</ele><time>2026-04-25T08:35:09.983Z</time></trkpt><trkpt lat="45.044495" lon="8.2809467"><ele>290.0</ele><time>2026-04-25T08:35:10.982Z</time></trkpt><trkpt lat="45.044565" lon="8.2807283"><ele>287.33333333333337</ele><time>2026-04-25T08:35:11.982Z</time></trkpt><trkpt lat="45.0446683" lon="8.2805183"><ele>284.6666666666667</ele><time>2026-04-25T08:35:12.983Z</time></trkpt><trkpt lat="45.0447983" lon="8.280325"><ele>282.0</ele><time>2026-04-25T08:35:13.983Z</time></trkpt><trkpt lat="45.04493" lon="8.2801167"><ele>282.0</ele><time>2026-04-25T08:35:14.982Z</time></trkpt><trkpt lat="45.0450833" lon="8.2799317"><ele>282.0</ele><time>2026-04-25T08:35:15.983Z</time></trkpt><trkpt lat="45.045205" lon="8.279765"><ele>282.0</ele><time>2026-04-25T08:35:16.982Z</time></trkpt><trkpt lat="45.0452933" lon="8.2795883"><ele>279.3333333333333</ele><time>2026-04-25T08:35:17.982Z</time></trkpt><trkpt lat="45.04537" lon="8.2794167"><ele>276.66666666666663</ele><time>2026-04-25T08:35:18.982Z</time></trkpt><trkpt lat="45.0453883" lon="8.2792017"><ele>274.0</ele><time>2026-04-25T08:35:19.983Z</time></trkpt><trkpt lat="45.0453433" lon="8.27898"><ele>274.0</ele><time>2026-04-25T08:35:20.982Z</time></trkpt><trkpt lat="45.0452633" lon="8.278765"><ele>274.0</ele><time>2026-04-25T08:35:21.983Z</time></trkpt><trkpt lat="45.0451733" lon="8.2785317"><ele>274.0</ele><time>2026-04-25T08:35:22.983Z</time></trkpt><trkpt lat="45.0450533" lon="8.27828"><ele>273.0</ele><time>2026-04-25T08:35:23.982Z</time></trkpt><trkpt lat="45.04497" lon="8.2780117"><ele>272.0</ele><time>2026-04-25T08:35:24.982Z</time></trkpt><trkpt lat="45.0448833" lon="8.2777383"><ele>271.0</ele><time>2026-04-25T08:35:25.983Z</time></trkpt><trkpt lat="45.0447783" lon="8.2774633"><ele>272.0</ele><time>2026-04-25T08:35:26.982Z</time></trkpt><trkpt lat="45.0446683" lon="8.2772117"><ele>273.0</ele><time>2026-04-25T08:35:27.982Z</time></trkpt><trkpt lat="45.04457" lon="8.276945"><ele>274.0</ele><time>2026-04-25T08:35:28.982Z</time></trkpt><trkpt lat="45.0444783" lon="8.2766833"><ele>274.66666666666663</ele><time>2026-04-25T08:35:29.983Z</time></trkpt><trkpt lat="45.0443833" lon="8.276435"><ele>275.3333333333333</ele><time>2026-04-25T08:35:30.982Z</time></trkpt><trkpt lat="45.04429" lon="8.27621"><ele>276.0</ele><time>2026-04-25T08:35:31.982Z</time></trkpt><trkpt lat="45.0441967" lon="8.2759967"><ele>275.5</ele><time>2026-04-25T08:35:32.982Z</time></trkpt><trkpt lat="45.0441233" lon="8.2757983"><ele>275.0</ele><time>2026-04-25T08:35:33.982Z</time></trkpt><trkpt lat="45.0440567" lon="8.275615"><ele>274.5</ele><time>2026-04-25T08:35:34.983Z</time></trkpt><trkpt lat="45.04402" lon="8.2754267"><ele>274.0</ele><time>2026-04-25T08:35:35.982Z</time></trkpt><trkpt lat="45.0440133" lon="8.2752217"><ele>275.66666666666663</ele><time>2026-04-25T08:35:36.983Z</time></trkpt><trkpt lat="45.0440567" lon="8.2750183"><ele>277.3333333333333</ele><time>2026-04-25T08:35:37.982Z</time></trkpt><trkpt lat="45.0441333" lon="8.2747917"><ele>279.0</ele><time>2026-04-25T08:35:38.983Z</time></trkpt><trkpt lat="45.0442117" lon="8.2745283"><ele>279.0</ele><time>2026-04-25T08:35:39.983Z</time></trkpt><trkpt lat="45.044295" lon="8.274275"><ele>279.0</ele><time>2026-04-25T08:35:40.983Z</time></trkpt><trkpt lat="45.0443567" lon="8.2740133"><ele>279.0</ele><time>2026-04-25T08:35:41.982Z</time></trkpt><trkpt lat="45.0444117" lon="8.2737617"><ele>276.6666666666667</ele><time>2026-04-25T08:35:42.982Z</time></trkpt><trkpt lat="45.0444583" lon="8.2735317"><ele>274.33333333333337</ele><time>2026-04-25T08:35:43.982Z</time></trkpt><trkpt lat="45.0444883" lon="8.273295"><ele>272.0</ele><time>2026-04-25T08:35:44.982Z</time></trkpt><trkpt lat="45.04449" lon="8.2730317"><ele>269.0</ele><time>2026-04-25T08:35:45.982Z</time></trkpt><trkpt lat="45.0444683" lon="8.2727617"><ele>266.0</ele><time>2026-04-25T08:35:46.982Z</time></trkpt><trkpt lat="45.0444317" lon="8.272495"><ele>263.0</ele><time>2026-04-25T08:35:47.982Z</time></trkpt><trkpt lat="45.0443783" lon="8.2722417"><ele>262.33333333333337</ele><time>2026-04-25T08:35:48.982Z</time></trkpt><trkpt lat="45.0443217" lon="8.2720017"><ele>261.6666666666667</ele><time>2026-04-25T08:35:49.982Z</time></trkpt><trkpt lat="45.0442683" lon="8.2717933"><ele>261.0</ele><time>2026-04-25T08:35:50.982Z</time></trkpt><trkpt lat="45.0442267" lon="8.2715833"><ele>259.3333333333333</ele><time>2026-04-25T08:35:51.982Z</time></trkpt><trkpt lat="45.0442083" lon="8.2713717"><ele>257.66666666666663</ele><time>2026-04-25T08:35:52.982Z</time></trkpt><trkpt lat="45.0442217" lon="8.2711633"><ele>256.0</ele><time>2026-04-25T08:35:53.983Z</time></trkpt><trkpt lat="45.0442583" lon="8.27094"><ele>256.0</ele><time>2026-04-25T08:35:54.982Z</time></trkpt><trkpt lat="45.0443067" lon="8.2707217"><ele>256.0</ele><time>2026-04-25T08:35:55.983Z</time></trkpt><trkpt lat="45.0443883" lon="8.270515"><ele>256.0</ele><time>2026-04-25T08:35:56.983Z</time></trkpt><trkpt lat="45.0444717" lon="8.27032"><ele>255.0</ele><time>2026-04-25T08:35:57.982Z</time></trkpt><trkpt lat="45.0445617" lon="8.2701517"><ele>254.0</ele><time>2026-04-25T08:35:58.983Z</time></trkpt><trkpt lat="45.0446417" lon="8.2699733"><ele>253.0</ele><time>2026-04-25T08:35:59.982Z</time></trkpt><trkpt lat="45.044715" lon="8.26981"><ele>252.0</ele><time>2026-04-25T08:36:00.982Z</time></trkpt><trkpt lat="45.0447833" lon="8.2696583"><ele>251.25</ele><time>2026-04-25T08:36:01.983Z</time></trkpt><trkpt lat="45.04485" lon="8.269515"><ele>250.5</ele><time>2026-04-25T08:36:02.983Z</time></trkpt><trkpt lat="45.0449317" lon="8.2693917"><ele>249.75</ele><time>2026-04-25T08:36:03.982Z</time></trkpt><trkpt lat="45.0450167" lon="8.2692817"><ele>249.0</ele><time>2026-04-25T08:36:04.983Z</time></trkpt><trkpt lat="45.0451167" lon="8.26916"><ele>250.66666666666669</ele><time>2026-04-25T08:36:05.982Z</time></trkpt><trkpt lat="45.0452333" lon="8.26904"><ele>252.33333333333334</ele><time>2026-04-25T08:36:06.983Z</time></trkpt><trkpt lat="45.0453617" lon="8.2689133"><ele>254.0</ele><time>2026-04-25T08:36:07.983Z</time></trkpt><trkpt lat="45.0455067" lon="8.2687867"><ele>254.0</ele><time>2026-04-25T08:36:08.982Z</time></trkpt><trkpt lat="45.0456433" lon="8.2686483"><ele>254.0</ele><time>2026-04-25T08:36:09.982Z</time></trkpt><trkpt lat="45.0457817" lon="8.268505"><ele>254.0</ele><time>2026-04-25T08:36:10.982Z</time></trkpt><trkpt lat="45.0459117" lon="8.2683683"><ele>255.25</ele><time>2026-04-25T08:36:11.982Z</time></trkpt><trkpt lat="45.046045" lon="8.2682467"><ele>256.5</ele><time>2026-04-25T08:36:12.983Z</time></trkpt><trkpt lat="45.046165" lon="8.2681483"><ele>257.75</ele><time>2026-04-25T08:36:13.982Z</time></trkpt><trkpt lat="45.0462867" lon="8.26803"><ele>259.0</ele><time>2026-04-25T08:36:14.983Z</time></trkpt><trkpt lat="45.0464117" lon="8.2679167"><ele>259.0</ele><time>2026-04-25T08:36:15.983Z</time></trkpt><trkpt lat="45.0465433" lon="8.2677967"><ele>259.0</ele><time>2026-04-25T08:36:16.983Z</time></trkpt><trkpt lat="45.046675" lon="8.267695"><ele>259.0</ele><time>2026-04-25T08:36:17.983Z</time></trkpt><trkpt lat="45.0467867" lon="8.2675867"><ele>259.0</ele><time>2026-04-25T08:36:18.982Z</time></trkpt><trkpt lat="45.0468967" lon="8.26748"><ele>260.25</ele><time>2026-04-25T08:36:19.983Z</time></trkpt><trkpt lat="45.0469833" lon="8.2673467"><ele>261.5</ele><time>2026-04-25T08:36:20.982Z</time></trkpt><trkpt lat="45.0470867" lon="8.2672117"><ele>262.75</ele><time>2026-04-25T08:36:21.983Z</time></trkpt><trkpt lat="45.0471783" lon="8.2671233"><ele>264.0</ele><time>2026-04-25T08:36:22.982Z</time></trkpt><trkpt lat="45.0472617" lon="8.26705"><ele>264.0</ele><time>2026-04-25T08:36:23.982Z</time></trkpt><trkpt lat="45.0473433" lon="8.266975"><ele>264.0</ele><time>2026-04-25T08:36:24.982Z</time></trkpt><trkpt lat="45.04743" lon="8.26689"><ele>264.0</ele><time>2026-04-25T08:36:25.982Z</time></trkpt><trkpt lat="45.047525" lon="8.266795"><ele>264.0</ele><time>2026-04-25T08:36:26.982Z</time></trkpt><trkpt lat="45.0476167" lon="8.266685"><ele>264.0</ele><time>2026-04-25T08:36:27.983Z</time></trkpt><trkpt lat="45.0477283" lon="8.2665683"><ele>267.6666666666667</ele><time>2026-04-25T08:36:28.982Z</time></trkpt><trkpt lat="45.047855" lon="8.2664483"><ele>271.33333333333337</ele><time>2026-04-25T08:36:29.982Z</time></trkpt><trkpt lat="45.0479917" lon="8.2663233"><ele>275.0</ele><time>2026-04-25T08:36:30.982Z</time></trkpt><trkpt lat="45.0481367" lon="8.2661917"><ele>275.0</ele><time>2026-04-25T08:36:31.983Z</time></trkpt><trkpt lat="45.0482633" lon="8.2660667"><ele>275.0</ele><time>2026-04-25T08:36:32.983Z</time></trkpt><trkpt lat="45.0483867" lon="8.265945"><ele>275.0</ele><time>2026-04-25T08:36:33.982Z</time></trkpt><trkpt lat="45.0485067" lon="8.2658533"><ele>275.0</ele><time>2026-04-25T08:36:34.983Z</time></trkpt><trkpt lat="45.04862" lon="8.2657417"><ele>275.0</ele><time>2026-04-25T08:36:35.982Z</time></trkpt><trkpt lat="45.0487183" lon="8.2656317"><ele>275.0</ele><time>2026-04-25T08:36:36.982Z</time></trkpt><trkpt lat="45.04883" lon="8.2655383"><ele>275.0</ele><time>2026-04-25T08:36:37.983Z</time></trkpt><trkpt lat="45.0489517" lon="8.265465"><ele>275.0</ele><time>2026-04-25T08:36:38.982Z</time></trkpt><trkpt lat="45.0490633" lon="8.265415"><ele>277.0</ele><time>2026-04-25T08:36:39.982Z</time></trkpt><trkpt lat="45.0491633" lon="8.265405"><ele>279.0</ele><time>2026-04-25T08:36:40.982Z</time></trkpt><trkpt lat="45.0492567" lon="8.265415"><ele>281.0</ele><time>2026-04-25T08:36:41.982Z</time></trkpt><trkpt lat="45.04934" lon="8.2654617"><ele>283.0</ele><time>2026-04-25T08:36:42.982Z</time></trkpt><trkpt lat="45.049425" lon="8.265525"><ele>285.0</ele><time>2026-04-25T08:36:43.982Z</time></trkpt><trkpt lat="45.0495083" lon="8.2656117"><ele>287.4</ele><time>2026-04-25T08:36:44.982Z</time></trkpt><trkpt lat="45.0495867" lon="8.2657167"><ele>289.8</ele><time>2026-04-25T08:36:45.982Z</time></trkpt><trkpt lat="45.0496467" lon="8.2658433"><ele>292.2</ele><time>2026-04-25T08:36:46.982Z</time></trkpt><trkpt lat="45.0496867" lon="8.2659717"><ele>294.6</ele><time>2026-04-25T08:36:47.982Z</time></trkpt><trkpt lat="45.0497083" lon="8.2660933"><ele>297.0</ele><time>2026-04-25T08:36:48.982Z</time></trkpt><trkpt lat="45.0497217" lon="8.2662"><ele>297.0</ele><time>2026-04-25T08:36:49.982Z</time></trkpt><trkpt lat="45.0497333" lon="8.2663033"><ele>297.0</ele><time>2026-04-25T08:36:50.982Z</time></trkpt><trkpt lat="45.0497517" lon="8.2663983"><ele>297.0</ele><time>2026-04-25T08:36:51.983Z</time></trkpt><trkpt lat="45.0497967" lon="8.266475"><ele>297.0</ele><time>2026-04-25T08:36:52.982Z</time></trkpt><trkpt lat="45.049915" lon="8.2665067"><ele>297.0</ele><time>2026-04-25T08:36:53.982Z</time></trkpt><trkpt lat="45.0500217" lon="8.2665633"><ele>297.0</ele><time>2026-04-25T08:36:54.982Z</time></trkpt><trkpt lat="45.0501283" lon="8.2666167"><ele>296.6</ele><time>2026-04-25T08:36:55.982Z</time></trkpt><trkpt lat="45.0502367" lon="8.26669"><ele>296.2</ele><time>2026-04-25T08:36:56.983Z</time></trkpt><trkpt lat="45.0503183" lon="8.266765"><ele>295.8</ele><time>2026-04-25T08:36:57.982Z</time></trkpt><trkpt lat="45.050395" lon="8.266845"><ele>295.4</ele><time>2026-04-25T08:36:58.982Z</time></trkpt><trkpt lat="45.0504683" lon="8.266915"><ele>295.0</ele><time>2026-04-25T08:36:59.983Z</time></trkpt><trkpt lat="45.05055" lon="8.266975"><ele>295.0</ele><time>2026-04-25T08:37:00.982Z</time></trkpt><trkpt lat="45.0506367" lon="8.2670317"><ele>295.0</ele><time>2026-04-25T08:37:01.983Z</time></trkpt><trkpt lat="45.0507183" lon="8.2671017"><ele>295.0</ele><time>2026-04-25T08:37:02.982Z</time></trkpt><trkpt lat="45.0508067" lon="8.2671733"><ele>295.0</ele><time>2026-04-25T08:37:03.982Z</time></trkpt><trkpt lat="45.0509083" lon="8.2672033"><ele>295.0</ele><time>2026-04-25T08:37:04.982Z</time></trkpt><trkpt lat="45.0510133" lon="8.267215"><ele>297.0</ele><time>2026-04-25T08:37:05.982Z</time></trkpt><trkpt lat="45.0511183" lon="8.2671867"><ele>299.0</ele><time>2026-04-25T08:37:06.983Z</time></trkpt><trkpt lat="45.0512267" lon="8.2671517"><ele>301.0</ele><time>2026-04-25T08:37:07.982Z</time></trkpt><trkpt lat="45.05132" lon="8.2671167"><ele>303.0</ele><time>2026-04-25T08:37:08.982Z</time></trkpt><trkpt lat="45.0514167" lon="8.2670983"><ele>305.0</ele><time>2026-04-25T08:37:09.982Z</time></trkpt><trkpt lat="45.0514967" lon="8.2670667"><ele>305.0</ele><time>2026-04-25T08:37:10.983Z</time></trkpt><trkpt lat="45.0515633" lon="8.26704"><ele>305.0</ele><time>2026-04-25T08:37:11.983Z</time></trkpt><trkpt lat="45.05163" lon="8.2670233"><ele>305.0</ele><time>2026-04-25T08:37:12.982Z</time></trkpt><trkpt lat="45.0517" lon="8.2669417"><ele>305.0</ele><time>2026-04-25T08:37:14.982Z</time></trkpt><trkpt lat="45.0515583" lon="8.2667917"><ele>305.0</ele><time>2026-04-25T08:37:16.983Z</time></trkpt><trkpt lat="45.051415" lon="8.2667117"><ele>305.0</ele><time>2026-04-25T08:37:17.982Z</time></trkpt><trkpt lat="45.0512917" lon="8.2666183"><ele>305.0</ele><time>2026-04-25T08:37:18.983Z</time></trkpt><trkpt lat="45.0511933" lon="8.266535"><ele>305.0</ele><time>2026-04-25T08:37:19.982Z</time></trkpt><trkpt lat="45.0511233" lon="8.26646"><ele>305.0</ele><time>2026-04-25T08:37:20.983Z</time></trkpt><trkpt lat="45.0510983" lon="8.2663767"><ele>305.0</ele><time>2026-04-25T08:37:21.983Z</time></trkpt><trkpt lat="45.0511183" lon="8.2662867"><ele>306.5</ele><time>2026-04-25T08:37:23.982Z</time></trkpt><trkpt lat="45.0511883" lon="8.2663233"><ele>308.0</ele><time>2026-04-25T08:37:27.982Z</time></trkpt><trkpt lat="45.0512933" lon="8.266375"><ele>309.5</ele><time>2026-04-25T08:55:52.98Z</time></trkpt><trkpt lat="45.0513183" lon="8.2662733"><ele>311.0</ele><time>2026-04-25T08:55:55.98Z</time></trkpt><trkpt lat="45.0512717" lon="8.266205"><ele>312.5</ele><time>2026-04-25T08:55:58.98Z</time></trkpt><trkpt lat="45.0512133" lon="8.26617"><ele>314.0</ele><time>2026-04-25T08:56:00.981Z</time></trkpt><trkpt lat="45.051125" lon="8.2661817"><ele>314.0</ele><time>2026-04-25T08:56:03.981Z</time></trkpt><trkpt lat="45.051055" lon="8.266255"><ele>314.0</ele><time>2026-04-25T08:56:06.98Z</time></trkpt><trkpt lat="45.0510383" lon="8.2663517"><ele>314.0</ele><time>2026-04-25T08:56:08.98Z</time></trkpt><trkpt lat="45.0510817" lon="8.2664867"><ele>314.0</ele><time>2026-04-25T08:56:10.98Z</time></trkpt><trkpt lat="45.0511583" lon="8.2666067"><ele>314.0</ele><time>2026-04-25T08:56:12.98Z</time></trkpt><trkpt lat="45.05121" lon="8.2666667"><ele>314.0</ele><time>2026-04-25T08:56:13.98Z</time></trkpt><trkpt lat="45.0513217" lon="8.266745"><ele>312.2</ele><time>2026-04-25T08:56:15.98Z</time></trkpt><trkpt lat="45.0514267" lon="8.266815"><ele>310.4</ele><time>2026-04-25T08:56:17.98Z</time></trkpt><trkpt lat="45.0515283" lon="8.2668783"><ele>308.6</ele><time>2026-04-25T08:56:19.98Z</time></trkpt><trkpt lat="45.05159" lon="8.26695"><ele>306.8</ele><time>2026-04-25T08:56:21.981Z</time></trkpt><trkpt lat="45.0515183" lon="8.2670317"><ele>305.0</ele><time>2026-04-25T08:56:24.98Z</time></trkpt><trkpt lat="45.051455" lon="8.267035"><ele>305.0</ele><time>2026-04-25T08:56:25.98Z</time></trkpt><trkpt lat="45.051385" lon="8.2670417"><ele>305.0</ele><time>2026-04-25T08:56:26.98Z</time></trkpt><trkpt lat="45.0513167" lon="8.26704"><ele>305.0</ele><time>2026-04-25T08:56:27.98Z</time></trkpt><trkpt lat="45.0512317" lon="8.2670467"><ele>305.0</ele><time>2026-04-25T08:56:28.98Z</time></trkpt><trkpt lat="45.0511517" lon="8.2670417"><ele>305.0</ele><time>2026-04-25T08:56:29.98Z</time></trkpt><trkpt lat="45.051085" lon="8.2670383"><ele>305.0</ele><time>2026-04-25T08:56:30.98Z</time></trkpt><trkpt lat="45.051005" lon="8.2670517"><ele>305.0</ele><time>2026-04-25T08:56:31.98Z</time></trkpt><trkpt lat="45.0509317" lon="8.26706"><ele>305.0</ele><time>2026-04-25T08:56:32.98Z</time></trkpt><trkpt lat="45.0508683" lon="8.26704"><ele>305.0</ele><time>2026-04-25T08:56:33.98Z</time></trkpt><trkpt lat="45.050805" lon="8.2670267"><ele>305.0</ele><time>2026-04-25T08:56:34.981Z</time></trkpt><trkpt lat="45.0507033" lon="8.266965"><ele>305.0</ele><time>2026-04-25T08:56:36.981Z</time></trkpt><trkpt lat="45.0506133" lon="8.2668867"><ele>305.0</ele><time>2026-04-25T08:56:38.98Z</time></trkpt><trkpt lat="45.0505567" lon="8.2668433"><ele>305.0</ele><time>2026-04-25T08:56:40.98Z</time></trkpt><trkpt lat="45.050505" lon="8.2667917"><ele>305.0</ele><time>2026-04-25T08:56:43.98Z</time></trkpt><trkpt lat="45.0505783" lon="8.2668783"><ele>305.0</ele><time>2026-04-25T08:57:05.979Z</time></trkpt><trkpt lat="45.050695" lon="8.2669383"><ele>305.0</ele><time>2026-04-25T08:57:07.979Z</time></trkpt><trkpt lat="45.0508067" lon="8.2670367"><ele>305.0</ele><time>2026-04-25T08:57:09.979Z</time></trkpt><trkpt lat="45.0508583" lon="8.2671033"><ele>305.0</ele><time>2026-04-25T08:57:10.979Z</time></trkpt><trkpt lat="45.050955" lon="8.267225"><ele>305.0</ele><time>2026-04-25T08:57:12.98Z</time></trkpt><trkpt lat="45.0510067" lon="8.267295"><ele>305.0</ele><time>2026-04-25T08:57:13.979Z</time></trkpt><trkpt lat="45.0510783" lon="8.2673467"><ele>305.0</ele><time>2026-04-25T08:57:14.98Z</time></trkpt><trkpt lat="45.05115" lon="8.2674067"><ele>305.0</ele><time>2026-04-25T08:57:15.98Z</time></trkpt><trkpt lat="45.0512167" lon="8.2674633"><ele>305.0</ele><time>2026-04-25T08:57:16.979Z</time></trkpt><trkpt lat="45.0512883" lon="8.2675267"><ele>303.0</ele><time>2026-04-25T08:57:17.98Z</time></trkpt><trkpt lat="45.0513633" lon="8.267585"><ele>301.0</ele><time>2026-04-25T08:57:18.98Z</time></trkpt><trkpt lat="45.0514333" lon="8.2676567"><ele>299.0</ele><time>2026-04-25T08:57:19.979Z</time></trkpt><trkpt lat="45.0515067" lon="8.2677333"><ele>297.0</ele><time>2026-04-25T08:57:20.979Z</time></trkpt><trkpt lat="45.05158" lon="8.2678067"><ele>295.0</ele><time>2026-04-25T08:57:21.98Z</time></trkpt><trkpt lat="45.05166" lon="8.2678983"><ele>295.0</ele><time>2026-04-25T08:57:22.979Z</time></trkpt><trkpt lat="45.05174" lon="8.2679867"><ele>295.0</ele><time>2026-04-25T08:57:23.979Z</time></trkpt><trkpt lat="45.0518283" lon="8.2680833"><ele>295.0</ele><time>2026-04-25T08:57:24.98Z</time></trkpt><trkpt lat="45.0519217" lon="8.2681717"><ele>295.0</ele><time>2026-04-25T08:57:25.979Z</time></trkpt><trkpt lat="45.0520217" lon="8.2682483"><ele>295.0</ele><time>2026-04-25T08:57:26.979Z</time></trkpt><trkpt lat="45.0521133" lon="8.26834"><ele>290.6</ele><time>2026-04-25T08:57:27.979Z</time></trkpt><trkpt lat="45.05222" lon="8.268415"><ele>286.2</ele><time>2026-04-25T08:57:28.98Z</time></trkpt><trkpt lat="45.05232" lon="8.2685"><ele>281.8</ele><time>2026-04-25T08:57:29.979Z</time></trkpt><trkpt lat="45.052385" lon="8.26859"><ele>277.4</ele><time>2026-04-25T08:57:30.979Z</time></trkpt><trkpt lat="45.0524033" lon="8.2687067"><ele>273.0</ele><time>2026-04-25T08:57:31.979Z</time></trkpt><trkpt lat="45.0523667" lon="8.2688317"><ele>273.0</ele><time>2026-04-25T08:57:32.979Z</time></trkpt><trkpt lat="45.05228" lon="8.26892"><ele>273.0</ele><time>2026-04-25T08:57:33.979Z</time></trkpt><trkpt lat="45.0521517" lon="8.2689817"><ele>273.0</ele><time>2026-04-25T08:57:34.98Z</time></trkpt><trkpt lat="45.052035" lon="8.2690283"><ele>273.0</ele><time>2026-04-25T08:57:35.979Z</time></trkpt><trkpt lat="45.0519233" lon="8.269085"><ele>271.1666666666667</ele><time>2026-04-25T08:57:36.979Z</time></trkpt><trkpt lat="45.0518283" lon="8.2691367"><ele>269.3333333333333</ele><time>2026-04-25T08:57:37.979Z</time></trkpt><trkpt lat="45.0517367" lon="8.2691933"><ele>267.5</ele><time>2026-04-25T08:57:38.98Z</time></trkpt><trkpt lat="45.0516667" lon="8.26925"><ele>265.66666666666663</ele><time>2026-04-25T08:57:39.98Z</time></trkpt><trkpt lat="45.0516117" lon="8.2693367"><ele>263.8333333333333</ele><time>2026-04-25T08:57:40.98Z</time></trkpt><trkpt lat="45.0515767" lon="8.2694267"><ele>262.0</ele><time>2026-04-25T08:57:41.98Z</time></trkpt><trkpt lat="45.0515417" lon="8.2695633"><ele>260.8</ele><time>2026-04-25T08:57:43.979Z</time></trkpt><trkpt lat="45.0515167" lon="8.2696933"><ele>259.6</ele><time>2026-04-25T08:57:46.979Z</time></trkpt><trkpt lat="45.0515333" lon="8.2698017"><ele>258.40000000000003</ele><time>2026-04-25T08:57:47.979Z</time></trkpt><trkpt lat="45.0515783" lon="8.2699333"><ele>257.2</ele><time>2026-04-25T08:57:48.98Z</time></trkpt><trkpt lat="45.051635" lon="8.270075"><ele>256.0</ele><time>2026-04-25T08:57:49.979Z</time></trkpt><trkpt lat="45.0516967" lon="8.2702317"><ele>255.5</ele><time>2026-04-25T08:57:50.979Z</time></trkpt><trkpt lat="45.0517533" lon="8.2704033"><ele>255.0</ele><time>2026-04-25T08:57:51.98Z</time></trkpt><trkpt lat="45.0518133" lon="8.2705883"><ele>254.5</ele><time>2026-04-25T08:57:52.979Z</time></trkpt><trkpt lat="45.0518767" lon="8.2707817"><ele>254.0</ele><time>2026-04-25T08:57:53.979Z</time></trkpt><trkpt lat="45.0519483" lon="8.2709867"><ele>252.0</ele><time>2026-04-25T08:57:54.98Z</time></trkpt><trkpt lat="45.0520133" lon="8.2712017"><ele>250.0</ele><time>2026-04-25T08:57:55.979Z</time></trkpt><trkpt lat="45.052085" lon="8.271405"><ele>248.0</ele><time>2026-04-25T08:57:56.979Z</time></trkpt><trkpt lat="45.0521533" lon="8.2715983"><ele>246.66666666666669</ele><time>2026-04-25T08:57:57.98Z</time></trkpt><trkpt lat="45.0522267" lon="8.2718133"><ele>245.33333333333331</ele><time>2026-04-25T08:57:58.979Z</time></trkpt><trkpt lat="45.0523083" lon="8.2720333"><ele>244.0</ele><time>2026-04-25T08:57:59.979Z</time></trkpt><trkpt lat="45.0523783" lon="8.27225"><ele>241.33333333333331</ele><time>2026-04-25T08:58:00.98Z</time></trkpt><trkpt lat="45.0524583" lon="8.2724767"><ele>238.66666666666669</ele><time>2026-04-25T08:58:01.979Z</time></trkpt><trkpt lat="45.0525367" lon="8.2727067"><ele>236.0</ele><time>2026-04-25T08:58:02.979Z</time></trkpt><trkpt lat="45.0526217" lon="8.272935"><ele>235.0</ele><time>2026-04-25T08:58:03.98Z</time></trkpt><trkpt lat="45.052715" lon="8.2731817"><ele>234.0</ele><time>2026-04-25T08:58:04.98Z</time></trkpt><trkpt lat="45.0527983" lon="8.2734433"><ele>233.0</ele><time>2026-04-25T08:58:05.98Z</time></trkpt><trkpt lat="45.0528783" lon="8.2736967"><ele>232.66666666666669</ele><time>2026-04-25T08:58:06.979Z</time></trkpt><trkpt lat="45.052965" lon="8.27395"><ele>232.33333333333331</ele><time>2026-04-25T08:58:07.979Z</time></trkpt><trkpt lat="45.0530567" lon="8.2742"><ele>232.0</ele><time>2026-04-25T08:58:08.979Z</time></trkpt><trkpt lat="45.0531317" lon="8.2744483"><ele>232.0</ele><time>2026-04-25T08:58:09.979Z</time></trkpt><trkpt lat="45.05321" lon="8.2746933"><ele>232.0</ele><time>2026-04-25T08:58:10.979Z</time></trkpt><trkpt lat="45.053275" lon="8.2749217"><ele>232.0</ele><time>2026-04-25T08:58:11.979Z</time></trkpt><trkpt lat="45.0533433" lon="8.2751417"><ele>230.33333333333331</ele><time>2026-04-25T08:58:12.979Z</time></trkpt><trkpt lat="45.0534233" lon="8.275375"><ele>228.66666666666669</ele><time>2026-04-25T08:58:13.979Z</time></trkpt><trkpt lat="45.053495" lon="8.2755933"><ele>227.0</ele><time>2026-04-25T08:58:14.979Z</time></trkpt><trkpt lat="45.0535533" lon="8.2758183"><ele>227.0</ele><time>2026-04-25T08:58:15.98Z</time></trkpt><trkpt lat="45.0536167" lon="8.2760383"><ele>227.0</ele><time>2026-04-25T08:58:16.979Z</time></trkpt><trkpt lat="45.0536933" lon="8.2762567"><ele>227.0</ele><time>2026-04-25T08:58:17.98Z</time></trkpt><trkpt lat="45.0537767" lon="8.2764567"><ele>228.0</ele><time>2026-04-25T08:58:18.979Z</time></trkpt><trkpt lat="45.0538533" lon="8.276665"><ele>229.0</ele><time>2026-04-25T08:58:19.98Z</time></trkpt><trkpt lat="45.0539183" lon="8.2768933"><ele>230.0</ele><time>2026-04-25T08:58:20.98Z</time></trkpt><trkpt lat="45.05397" lon="8.27711"><ele>227.5</ele><time>2026-04-25T08:58:21.979Z</time></trkpt><trkpt lat="45.0540383" lon="8.2773083"><ele>225.0</ele><time>2026-04-25T08:58:22.98Z</time></trkpt><trkpt lat="45.0540983" lon="8.2774967"><ele>222.5</ele><time>2026-04-25T08:58:23.98Z</time></trkpt><trkpt lat="45.0541717" lon="8.277675"><ele>220.0</ele><time>2026-04-25T08:58:24.98Z</time></trkpt><trkpt lat="45.0542583" lon="8.27783"><ele>218.25</ele><time>2026-04-25T08:58:25.979Z</time></trkpt><trkpt lat="45.054355" lon="8.2779517"><ele>216.5</ele><time>2026-04-25T08:58:26.979Z</time></trkpt><trkpt lat="45.0544867" lon="8.2780067"><ele>214.75</ele><time>2026-04-25T08:58:27.979Z</time></trkpt><trkpt lat="45.0546233" lon="8.2779767"><ele>213.0</ele><time>2026-04-25T08:58:28.979Z</time></trkpt><trkpt lat="45.0547717" lon="8.2778783"><ele>213.0</ele><time>2026-04-25T08:58:29.98Z</time></trkpt><trkpt lat="45.0549317" lon="8.2777417"><ele>213.0</ele><time>2026-04-25T08:58:30.979Z</time></trkpt><trkpt lat="45.0550883" lon="8.2776"><ele>213.0</ele><time>2026-04-25T08:58:31.979Z</time></trkpt><trkpt lat="45.055245" lon="8.2774583"><ele>209.33333333333331</ele><time>2026-04-25T08:58:32.98Z</time></trkpt><trkpt lat="45.0553967" lon="8.27733"><ele>205.66666666666666</ele><time>2026-04-25T08:58:33.98Z</time></trkpt><trkpt lat="45.0555383" lon="8.2772067"><ele>202.0</ele><time>2026-04-25T08:58:34.979Z</time></trkpt><trkpt lat="45.0556817" lon="8.2770833"><ele>198.66666666666666</ele><time>2026-04-25T08:58:35.979Z</time></trkpt><trkpt lat="45.0558117" lon="8.2769683"><ele>195.33333333333331</ele><time>2026-04-25T08:58:36.979Z</time></trkpt><trkpt lat="45.0559417" lon="8.2768433"><ele>192.0</ele><time>2026-04-25T08:58:37.979Z</time></trkpt><trkpt lat="45.05608" lon="8.2767233"><ele>192.0</ele><time>2026-04-25T08:58:38.98Z</time></trkpt><trkpt lat="45.0562233" lon="8.276615"><ele>192.0</ele><time>2026-04-25T08:58:39.979Z</time></trkpt><trkpt lat="45.0563667" lon="8.2765083"><ele>192.0</ele><time>2026-04-25T08:58:40.979Z</time></trkpt><trkpt lat="45.05652" lon="8.2764267"><ele>189.66666666666666</ele><time>2026-04-25T08:58:41.98Z</time></trkpt><trkpt lat="45.05668" lon="8.2763633"><ele>187.33333333333331</ele><time>2026-04-25T08:58:42.979Z</time></trkpt><trkpt lat="45.056835" lon="8.276325"><ele>185.0</ele><time>2026-04-25T08:58:43.979Z</time></trkpt><trkpt lat="45.0569767" lon="8.276325"><ele>185.0</ele><time>2026-04-25T08:58:44.98Z</time></trkpt><trkpt lat="45.05713" lon="8.27635"><ele>185.0</ele><time>2026-04-25T08:58:45.98Z</time></trkpt><trkpt lat="45.0572783" lon="8.2763917"><ele>185.0</ele><time>2026-04-25T08:58:46.979Z</time></trkpt><trkpt lat="45.0574167" lon="8.2764633"><ele>183.75</ele><time>2026-04-25T08:58:47.979Z</time></trkpt><trkpt lat="45.05755" lon="8.2765567"><ele>182.5</ele><time>2026-04-25T08:58:48.98Z</time></trkpt><trkpt lat="45.0576733" lon="8.2766367"><ele>181.25</ele><time>2026-04-25T08:58:49.979Z</time></trkpt><trkpt lat="45.0577817" lon="8.2766983"><ele>180.0</ele><time>2026-04-25T08:58:50.98Z</time></trkpt><trkpt lat="45.05786" lon="8.2767483"><ele>180.0</ele><time>2026-04-25T08:58:51.98Z</time></trkpt><trkpt lat="45.0579517" lon="8.2767967"><ele>180.0</ele><time>2026-04-25T08:58:53.98Z</time></trkpt><trkpt lat="45.05805" lon="8.2767917"><ele>180.0</ele><time>2026-04-25T08:58:56.979Z</time></trkpt><trkpt lat="45.058105" lon="8.276655"><ele>180.0</ele><time>2026-04-25T08:58:58.979Z</time></trkpt><trkpt lat="45.0581133" lon="8.27653"><ele>180.0</ele><time>2026-04-25T08:58:59.98Z</time></trkpt><trkpt lat="45.0580983" lon="8.2763267"><ele>180.0</ele><time>2026-04-25T08:59:00.979Z</time></trkpt><trkpt lat="45.0581167" lon="8.2760917"><ele>180.0</ele><time>2026-04-25T08:59:01.98Z</time></trkpt><trkpt lat="45.0581783" lon="8.27582"><ele>180.0</ele><time>2026-04-25T08:59:02.979Z</time></trkpt><trkpt lat="45.05827" lon="8.2755"><ele>181.0</ele><time>2026-04-25T08:59:03.98Z</time></trkpt><trkpt lat="45.0583783" lon="8.275155"><ele>182.0</ele><time>2026-04-25T08:59:04.979Z</time></trkpt><trkpt lat="45.0584933" lon="8.2747883"><ele>184.0</ele><time>2026-04-25T08:59:05.98Z</time></trkpt><trkpt lat="45.0586133" lon="8.2744033"><ele>186.0</ele><time>2026-04-25T08:59:06.98Z</time></trkpt><trkpt lat="45.0587367" lon="8.2740067"><ele>189.0</ele><time>2026-04-25T08:59:07.979Z</time></trkpt><trkpt lat="45.0588567" lon="8.2736083"><ele>192.0</ele><time>2026-04-25T08:59:08.98Z</time></trkpt><trkpt lat="45.05897" lon="8.2732333"><ele>194.0</ele><time>2026-04-25T08:59:09.98Z</time></trkpt><trkpt lat="45.0590717" lon="8.272895"><ele>196.0</ele><time>2026-04-25T08:59:10.98Z</time></trkpt><trkpt lat="45.059165" lon="8.2725583"><ele>192.0</ele><time>2026-04-25T08:59:11.98Z</time></trkpt><trkpt lat="45.05925" lon="8.2722283"><ele>188.0</ele><time>2026-04-25T08:59:12.979Z</time></trkpt><trkpt lat="45.0593183" lon="8.2719117"><ele>188.0</ele><time>2026-04-25T08:59:13.979Z</time></trkpt><trkpt lat="45.0593733" lon="8.2716217"><ele>188.0</ele><time>2026-04-25T08:59:14.979Z</time></trkpt><trkpt lat="45.0594433" lon="8.2713417"><ele>188.0</ele><time>2026-04-25T08:59:15.98Z</time></trkpt><trkpt lat="45.059505" lon="8.271085"><ele>188.33333333333331</ele><time>2026-04-25T08:59:16.979Z</time></trkpt><trkpt lat="45.0595533" lon="8.270805"><ele>188.66666666666666</ele><time>2026-04-25T08:59:17.98Z</time></trkpt><trkpt lat="45.0596083" lon="8.2705217"><ele>189.0</ele><time>2026-04-25T08:59:18.979Z</time></trkpt><trkpt lat="45.0596733" lon="8.2702117"><ele>190.0</ele><time>2026-04-25T08:59:19.98Z</time></trkpt><trkpt lat="45.0597217" lon="8.26989"><ele>191.0</ele><time>2026-04-25T08:59:20.979Z</time></trkpt><trkpt lat="45.0597483" lon="8.26956"><ele>191.5</ele><time>2026-04-25T08:59:21.979Z</time></trkpt><trkpt lat="45.059765" lon="8.2692133"><ele>192.0</ele><time>2026-04-25T08:59:22.979Z</time></trkpt><trkpt lat="45.0597833" lon="8.2688683"><ele>192.5</ele><time>2026-04-25T08:59:23.98Z</time></trkpt><trkpt lat="45.0597967" lon="8.26851"><ele>193.0</ele><time>2026-04-25T08:59:24.979Z</time></trkpt><trkpt lat="45.0597983" lon="8.26814"><ele>195.0</ele><time>2026-04-25T08:59:25.98Z</time></trkpt><trkpt lat="45.0597867" lon="8.2677717"><ele>197.0</ele><time>2026-04-25T08:59:26.979Z</time></trkpt><trkpt lat="45.059765" lon="8.26742"><ele>197.0</ele><time>2026-04-25T08:59:27.979Z</time></trkpt><trkpt lat="45.0597367" lon="8.2671017"><ele>197.0</ele><time>2026-04-25T08:59:28.979Z</time></trkpt><trkpt lat="45.0597083" lon="8.2668067"><ele>197.0</ele><time>2026-04-25T08:59:29.979Z</time></trkpt><trkpt lat="45.059685" lon="8.26651"><ele>196.66666666666669</ele><time>2026-04-25T08:59:30.98Z</time></trkpt><trkpt lat="45.0596733" lon="8.2662067"><ele>196.33333333333331</ele><time>2026-04-25T08:59:31.979Z</time></trkpt><trkpt lat="45.0596483" lon="8.2659017"><ele>196.0</ele><time>2026-04-25T08:59:32.979Z</time></trkpt><trkpt lat="45.0596167" lon="8.2656067"><ele>195.66666666666666</ele><time>2026-04-25T08:59:33.979Z</time></trkpt><trkpt lat="45.0595967" lon="8.2653133"><ele>195.33333333333331</ele><time>2026-04-25T08:59:34.979Z</time></trkpt><trkpt lat="45.05956" lon="8.2650417"><ele>195.0</ele><time>2026-04-25T08:59:35.98Z</time></trkpt><trkpt lat="45.0595283" lon="8.2647683"><ele>195.0</ele><time>2026-04-25T08:59:36.979Z</time></trkpt><trkpt lat="45.0594833" lon="8.264505"><ele>195.0</ele><time>2026-04-25T08:59:37.98Z</time></trkpt><trkpt lat="45.059415" lon="8.2642433"><ele>195.0</ele><time>2026-04-25T08:59:38.979Z</time></trkpt><trkpt lat="45.0593467" lon="8.2639733"><ele>194.0</ele><time>2026-04-25T08:59:39.98Z</time></trkpt><trkpt lat="45.0592967" lon="8.2637017"><ele>193.0</ele><time>2026-04-25T08:59:40.979Z</time></trkpt><trkpt lat="45.0592667" lon="8.2634383"><ele>192.0</ele><time>2026-04-25T08:59:41.979Z</time></trkpt><trkpt lat="45.0592483" lon="8.2631733"><ele>191.66666666666666</ele><time>2026-04-25T08:59:42.98Z</time></trkpt><trkpt lat="45.0592467" lon="8.262935"><ele>191.33333333333331</ele><time>2026-04-25T08:59:43.979Z</time></trkpt><trkpt lat="45.05924" lon="8.262705"><ele>191.0</ele><time>2026-04-25T08:59:44.979Z</time></trkpt><trkpt lat="45.0592383" lon="8.2624883"><ele>191.0</ele><time>2026-04-25T08:59:45.979Z</time></trkpt><trkpt lat="45.0592267" lon="8.2622767"><ele>191.0</ele><time>2026-04-25T08:59:46.979Z</time></trkpt><trkpt lat="45.05923" lon="8.262055"><ele>191.0</ele><time>2026-04-25T08:59:47.979Z</time></trkpt><trkpt lat="45.05925" lon="8.2618283"><ele>191.0</ele><time>2026-04-25T08:59:48.979Z</time></trkpt><trkpt lat="45.059255" lon="8.2616017"><ele>191.0</ele><time>2026-04-25T08:59:49.979Z</time></trkpt><trkpt lat="45.059265" lon="8.2613783"><ele>191.0</ele><time>2026-04-25T08:59:50.979Z</time></trkpt><trkpt lat="45.05929" lon="8.2611483"><ele>191.25</ele><time>2026-04-25T08:59:51.979Z</time></trkpt><trkpt lat="45.05931" lon="8.2609333"><ele>191.5</ele><time>2026-04-25T08:59:52.98Z</time></trkpt><trkpt lat="45.0593317" lon="8.260725"><ele>191.75</ele><time>2026-04-25T08:59:53.98Z</time></trkpt><trkpt lat="45.0593417" lon="8.2605433"><ele>192.0</ele><time>2026-04-25T08:59:54.98Z</time></trkpt><trkpt lat="45.0593483" lon="8.260365"><ele>192.2</ele><time>2026-04-25T08:59:55.979Z</time></trkpt><trkpt lat="45.0593533" lon="8.2601917"><ele>192.39999999999998</ele><time>2026-04-25T08:59:56.979Z</time></trkpt><trkpt lat="45.05936" lon="8.2600383"><ele>192.60000000000002</ele><time>2026-04-25T08:59:57.98Z</time></trkpt><trkpt lat="45.0593667" lon="8.25992"><ele>192.8</ele><time>2026-04-25T08:59:58.979Z</time></trkpt><trkpt lat="45.059395" lon="8.25978"><ele>193.0</ele><time>2026-04-25T09:00:00.98Z</time></trkpt><trkpt lat="45.05947" lon="8.25978"><ele>193.0</ele><time>2026-04-25T09:00:02.979Z</time></trkpt><trkpt lat="45.05953" lon="8.25981"><ele>193.0</ele><time>2026-04-25T09:00:03.979Z</time></trkpt><trkpt lat="45.05961" lon="8.2598333"><ele>193.0</ele><time>2026-04-25T09:00:04.979Z</time></trkpt><trkpt lat="45.0596883" lon="8.259855"><ele>193.0</ele><time>2026-04-25T09:00:05.979Z</time></trkpt><trkpt lat="45.0597917" lon="8.259845"><ele>193.0</ele><time>2026-04-25T09:00:06.979Z</time></trkpt><trkpt lat="45.05992" lon="8.2598533"><ele>192.25</ele><time>2026-04-25T09:00:07.979Z</time></trkpt><trkpt lat="45.0600517" lon="8.25987"><ele>191.5</ele><time>2026-04-25T09:00:08.979Z</time></trkpt><trkpt lat="45.06019" lon="8.259915"><ele>190.75</ele><time>2026-04-25T09:00:09.979Z</time></trkpt><trkpt lat="45.06033" lon="8.2599317"><ele>190.0</ele><time>2026-04-25T09:00:10.979Z</time></trkpt><trkpt lat="45.0604583" lon="8.2599533"><ele>190.0</ele><time>2026-04-25T09:00:11.979Z</time></trkpt><trkpt lat="45.0605933" lon="8.25997"><ele>190.0</ele><time>2026-04-25T09:00:12.979Z</time></trkpt><trkpt lat="45.0607217" lon="8.2599967"><ele>190.0</ele><time>2026-04-25T09:00:13.979Z</time></trkpt><trkpt lat="45.0608583" lon="8.259995"><ele>190.0</ele><time>2026-04-25T09:00:14.979Z</time></trkpt><trkpt lat="45.06099" lon="8.260015"><ele>189.5</ele><time>2026-04-25T09:00:15.979Z</time></trkpt><trkpt lat="45.0611167" lon="8.2600383"><ele>189.0</ele><time>2026-04-25T09:00:16.979Z</time></trkpt><trkpt lat="45.0612433" lon="8.2600617"><ele>188.5</ele><time>2026-04-25T09:00:17.979Z</time></trkpt><trkpt lat="45.0613533" lon="8.26009"><ele>188.0</ele><time>2026-04-25T09:00:18.979Z</time></trkpt><trkpt lat="45.0614417" lon="8.2600983"><ele>188.0</ele><time>2026-04-25T09:00:19.979Z</time></trkpt><trkpt lat="45.0615233" lon="8.2600767"><ele>188.0</ele><time>2026-04-25T09:00:20.98Z</time></trkpt><trkpt lat="45.0616017" lon="8.2600083"><ele>188.0</ele><time>2026-04-25T09:00:21.979Z</time></trkpt><trkpt lat="45.061665" lon="8.259885"><ele>188.0</ele><time>2026-04-25T09:00:22.98Z</time></trkpt><trkpt lat="45.0616983" lon="8.2596933"><ele>188.0</ele><time>2026-04-25T09:00:23.98Z</time></trkpt><trkpt lat="45.0617283" lon="8.2594567"><ele>188.33333333333331</ele><time>2026-04-25T09:00:24.979Z</time></trkpt><trkpt lat="45.061765" lon="8.2592033"><ele>188.66666666666666</ele><time>2026-04-25T09:00:25.979Z</time></trkpt><trkpt lat="45.0618033" lon="8.258965"><ele>189.0</ele><time>2026-04-25T09:00:26.98Z</time></trkpt><trkpt lat="45.06185" lon="8.25871"><ele>189.0</ele><time>2026-04-25T09:00:27.979Z</time></trkpt><trkpt lat="45.0618967" lon="8.2584383"><ele>189.0</ele><time>2026-04-25T09:00:28.98Z</time></trkpt><trkpt lat="45.0619467" lon="8.258165"><ele>189.0</ele><time>2026-04-25T09:00:29.98Z</time></trkpt><trkpt lat="45.062" lon="8.257885"><ele>189.0</ele><time>2026-04-25T09:00:30.98Z</time></trkpt><trkpt lat="45.0620533" lon="8.2575817"><ele>189.0</ele><time>2026-04-25T09:00:31.98Z</time></trkpt><trkpt lat="45.0621167" lon="8.2572817"><ele>189.0</ele><time>2026-04-25T09:00:32.979Z</time></trkpt><trkpt lat="45.0621683" lon="8.2569767"><ele>190.0</ele><time>2026-04-25T09:00:33.979Z</time></trkpt><trkpt lat="45.0622217" lon="8.2566717"><ele>191.0</ele><time>2026-04-25T09:00:34.979Z</time></trkpt><trkpt lat="45.0622783" lon="8.25636"><ele>192.0</ele><time>2026-04-25T09:00:35.979Z</time></trkpt><trkpt lat="45.0623333" lon="8.25606"><ele>192.0</ele><time>2026-04-25T09:00:36.979Z</time></trkpt><trkpt lat="45.0623867" lon="8.2557583"><ele>192.0</ele><time>2026-04-25T09:00:37.979Z</time></trkpt><trkpt lat="45.0624417" lon="8.25547"><ele>192.0</ele><time>2026-04-25T09:00:38.979Z</time></trkpt><trkpt lat="45.0625017" lon="8.2551833"><ele>191.66666666666666</ele><time>2026-04-25T09:00:39.979Z</time></trkpt><trkpt lat="45.062545" lon="8.254885"><ele>191.33333333333331</ele><time>2026-04-25T09:00:40.979Z</time></trkpt><trkpt lat="45.0626067" lon="8.2545967"><ele>191.0</ele><time>2026-04-25T09:00:41.979Z</time></trkpt><trkpt lat="45.0626467" lon="8.25431"><ele>191.0</ele><time>2026-04-25T09:00:42.98Z</time></trkpt><trkpt lat="45.062685" lon="8.2540117"><ele>191.0</ele><time>2026-04-25T09:00:43.979Z</time></trkpt><trkpt lat="45.0627167" lon="8.253715"><ele>191.0</ele><time>2026-04-25T09:00:44.98Z</time></trkpt><trkpt lat="45.0627417" lon="8.2534333"><ele>191.0</ele><time>2026-04-25T09:00:45.979Z</time></trkpt><trkpt lat="45.06276" lon="8.2531767"><ele>191.0</ele><time>2026-04-25T09:00:46.979Z</time></trkpt><trkpt lat="45.0627667" lon="8.2529217"><ele>191.0</ele><time>2026-04-25T09:00:47.98Z</time></trkpt><trkpt lat="45.0627783" lon="8.252685"><ele>191.0</ele><time>2026-04-25T09:00:48.979Z</time></trkpt><trkpt lat="45.0627733" lon="8.2524517"><ele>191.0</ele><time>2026-04-25T09:00:49.98Z</time></trkpt><trkpt lat="45.0627817" lon="8.2522283"><ele>191.0</ele><time>2026-04-25T09:00:50.979Z</time></trkpt><trkpt lat="45.06279" lon="8.2520233"><ele>192.66666666666666</ele><time>2026-04-25T09:00:51.98Z</time></trkpt><trkpt lat="45.0628083" lon="8.251815"><ele>194.33333333333331</ele><time>2026-04-25T09:00:52.979Z</time></trkpt><trkpt lat="45.0628267" lon="8.2516"><ele>196.0</ele><time>2026-04-25T09:00:53.98Z</time></trkpt><trkpt lat="45.0628617" lon="8.2513833"><ele>196.66666666666666</ele><time>2026-04-25T09:00:54.98Z</time></trkpt><trkpt lat="45.0629167" lon="8.251155"><ele>197.33333333333331</ele><time>2026-04-25T09:00:55.979Z</time></trkpt><trkpt lat="45.06298" lon="8.2509483"><ele>198.0</ele><time>2026-04-25T09:00:56.979Z</time></trkpt><trkpt lat="45.0630383" lon="8.250735"><ele>198.66666666666669</ele><time>2026-04-25T09:00:57.979Z</time></trkpt><trkpt lat="45.0630917" lon="8.2505283"><ele>199.33333333333334</ele><time>2026-04-25T09:00:58.979Z</time></trkpt><trkpt lat="45.063145" lon="8.2503233"><ele>200.0</ele><time>2026-04-25T09:00:59.98Z</time></trkpt><trkpt lat="45.0631967" lon="8.2501283"><ele>200.0</ele><time>2026-04-25T09:01:00.979Z</time></trkpt><trkpt lat="45.06324" lon="8.249925"><ele>200.0</ele><time>2026-04-25T09:01:01.979Z</time></trkpt><trkpt lat="45.0632933" lon="8.249715"><ele>200.0</ele><time>2026-04-25T09:01:02.979Z</time></trkpt><trkpt lat="45.0633483" lon="8.2495183"><ele>199.66666666666669</ele><time>2026-04-25T09:01:03.979Z</time></trkpt><trkpt lat="45.0633983" lon="8.2493067"><ele>199.33333333333331</ele><time>2026-04-25T09:01:04.979Z</time></trkpt><trkpt lat="45.0634533" lon="8.2490983"><ele>199.0</ele><time>2026-04-25T09:01:05.979Z</time></trkpt><trkpt lat="45.0635117" lon="8.248885"><ele>199.0</ele><time>2026-04-25T09:01:06.979Z</time></trkpt><trkpt lat="45.063565" lon="8.248685"><ele>199.0</ele><time>2026-04-25T09:01:07.979Z</time></trkpt><trkpt lat="45.0636117" lon="8.2485017"><ele>199.0</ele><time>2026-04-25T09:01:08.979Z</time></trkpt><trkpt lat="45.0636617" lon="8.2483017"><ele>199.0</ele><time>2026-04-25T09:01:09.98Z</time></trkpt><trkpt lat="45.0637233" lon="8.24807"><ele>199.0</ele><time>2026-04-25T09:01:10.979Z</time></trkpt><trkpt lat="45.0637767" lon="8.24783"><ele>199.0</ele><time>2026-04-25T09:01:11.98Z</time></trkpt><trkpt lat="45.0638333" lon="8.2475733"><ele>199.0</ele><time>2026-04-25T09:01:12.979Z</time></trkpt><trkpt lat="45.0638917" lon="8.2473167"><ele>199.66666666666666</ele><time>2026-04-25T09:01:13.979Z</time></trkpt><trkpt lat="45.0639583" lon="8.2470483"><ele>200.33333333333331</ele><time>2026-04-25T09:01:14.979Z</time></trkpt><trkpt lat="45.06403" lon="8.2467783"><ele>201.0</ele><time>2026-04-25T09:01:15.979Z</time></trkpt><trkpt lat="45.064105" lon="8.2465033"><ele>201.66666666666669</ele><time>2026-04-25T09:01:16.98Z</time></trkpt><trkpt lat="45.0641917" lon="8.2462217"><ele>202.33333333333334</ele><time>2026-04-25T09:01:17.979Z</time></trkpt><trkpt lat="45.0642617" lon="8.2459233"><ele>203.0</ele><time>2026-04-25T09:01:18.979Z</time></trkpt><trkpt lat="45.0643383" lon="8.2456317"><ele>203.33333333333334</ele><time>2026-04-25T09:01:19.98Z</time></trkpt><trkpt lat="45.0644117" lon="8.2453433"><ele>203.66666666666669</ele><time>2026-04-25T09:01:20.98Z</time></trkpt><trkpt lat="45.06449" lon="8.245055"><ele>204.0</ele><time>2026-04-25T09:01:21.979Z</time></trkpt><trkpt lat="45.0645567" lon="8.2447617"><ele>204.0</ele><time>2026-04-25T09:01:22.98Z</time></trkpt><trkpt lat="45.0646183" lon="8.244495"><ele>204.0</ele><time>2026-04-25T09:01:23.979Z</time></trkpt><trkpt lat="45.0646783" lon="8.244255"><ele>204.0</ele><time>2026-04-25T09:01:24.979Z</time></trkpt><trkpt lat="45.0647317" lon="8.2440333"><ele>204.0</ele><time>2026-04-25T09:01:25.979Z</time></trkpt><trkpt lat="45.0647817" lon="8.2438267"><ele>204.0</ele><time>2026-04-25T09:01:26.979Z</time></trkpt><trkpt lat="45.064835" lon="8.24363"><ele>204.0</ele><time>2026-04-25T09:01:27.979Z</time></trkpt><trkpt lat="45.0648883" lon="8.2434417"><ele>204.0</ele><time>2026-04-25T09:01:28.979Z</time></trkpt><trkpt lat="45.0649417" lon="8.2432417"><ele>204.0</ele><time>2026-04-25T09:01:29.979Z</time></trkpt><trkpt lat="45.0649867" lon="8.24305"><ele>204.0</ele><time>2026-04-25T09:01:30.979Z</time></trkpt><trkpt lat="45.06504" lon="8.2429067"><ele>204.0</ele><time>2026-04-25T09:01:31.979Z</time></trkpt><trkpt lat="45.0650717" lon="8.24279"><ele>204.0</ele><time>2026-04-25T09:01:32.979Z</time></trkpt><trkpt lat="45.06506" lon="8.242695"><ele>204.0</ele><time>2026-04-25T09:01:33.979Z</time></trkpt><trkpt lat="45.06501" lon="8.2426067"><ele>204.25</ele><time>2026-04-25T09:01:34.979Z</time></trkpt><trkpt lat="45.0649083" lon="8.24256"><ele>204.5</ele><time>2026-04-25T09:01:35.98Z</time></trkpt><trkpt lat="45.06477" lon="8.2425183"><ele>204.75</ele><time>2026-04-25T09:01:36.979Z</time></trkpt><trkpt lat="45.064595" lon="8.2424517"><ele>205.0</ele><time>2026-04-25T09:01:37.98Z</time></trkpt><trkpt lat="45.064405" lon="8.2423433"><ele>204.5</ele><time>2026-04-25T09:01:38.98Z</time></trkpt><trkpt lat="45.0642033" lon="8.2421917"><ele>204.0</ele><time>2026-04-25T09:01:39.979Z</time></trkpt><trkpt lat="45.06401" lon="8.2420033"><ele>205.0</ele><time>2026-04-25T09:01:40.979Z</time></trkpt><trkpt lat="45.063825" lon="8.2417767"><ele>206.0</ele><time>2026-04-25T09:01:41.979Z</time></trkpt><trkpt lat="45.0636567" lon="8.2415217"><ele>208.5</ele><time>2026-04-25T09:01:42.979Z</time></trkpt><trkpt lat="45.0634967" lon="8.2412683"><ele>211.0</ele><time>2026-04-25T09:01:43.98Z</time></trkpt><trkpt lat="45.06334" lon="8.2410133"><ele>213.33333333333331</ele><time>2026-04-25T09:01:44.979Z</time></trkpt><trkpt lat="45.0631983" lon="8.2407817"><ele>215.66666666666669</ele><time>2026-04-25T09:01:45.979Z</time></trkpt><trkpt lat="45.06307" lon="8.2405733"><ele>218.0</ele><time>2026-04-25T09:01:46.979Z</time></trkpt><trkpt lat="45.062955" lon="8.240385"><ele>218.0</ele><time>2026-04-25T09:01:47.979Z</time></trkpt><trkpt lat="45.0628617" lon="8.2402417"><ele>218.0</ele><time>2026-04-25T09:01:48.979Z</time></trkpt><trkpt lat="45.062805" lon="8.240135"><ele>218.0</ele><time>2026-04-25T09:01:49.979Z</time></trkpt><trkpt lat="45.062775" lon="8.2400533"><ele>218.0</ele><time>2026-04-25T09:01:50.98Z</time></trkpt><trkpt lat="45.0628217" lon="8.239885"><ele>218.0</ele><time>2026-04-25T09:01:52.979Z</time></trkpt><trkpt lat="45.0629067" lon="8.239785"><ele>217.33333333333334</ele><time>2026-04-25T09:01:53.979Z</time></trkpt><trkpt lat="45.0630167" lon="8.239665"><ele>216.66666666666669</ele><time>2026-04-25T09:01:54.979Z</time></trkpt><trkpt lat="45.0631567" lon="8.2395317"><ele>216.0</ele><time>2026-04-25T09:01:55.979Z</time></trkpt><trkpt lat="45.0633117" lon="8.23939"><ele>216.66666666666669</ele><time>2026-04-25T09:01:56.979Z</time></trkpt><trkpt lat="45.06349" lon="8.239235"><ele>217.33333333333334</ele><time>2026-04-25T09:01:57.98Z</time></trkpt><trkpt lat="45.0636767" lon="8.2390733"><ele>218.0</ele><time>2026-04-25T09:01:58.979Z</time></trkpt><trkpt lat="45.0638683" lon="8.2388983"><ele>218.0</ele><time>2026-04-25T09:01:59.979Z</time></trkpt><trkpt lat="45.0640617" lon="8.2387167"><ele>218.0</ele><time>2026-04-25T09:02:00.979Z</time></trkpt><trkpt lat="45.0642417" lon="8.2385267"><ele>221.33333333333334</ele><time>2026-04-25T09:02:01.979Z</time></trkpt><trkpt lat="45.0644167" lon="8.238345"><ele>224.66666666666669</ele><time>2026-04-25T09:02:02.979Z</time></trkpt><trkpt lat="45.06457" lon="8.2381417"><ele>228.0</ele><time>2026-04-25T09:02:03.979Z</time></trkpt><trkpt lat="45.0646983" lon="8.237935"><ele>228.33333333333331</ele><time>2026-04-25T09:02:04.98Z</time></trkpt><trkpt lat="45.064815" lon="8.2376883"><ele>228.66666666666666</ele><time>2026-04-25T09:02:05.98Z</time></trkpt><trkpt lat="45.0649317" lon="8.23743"><ele>229.0</ele><time>2026-04-25T09:02:06.979Z</time></trkpt><trkpt lat="45.0650533" lon="8.23719"><ele>231.33333333333331</ele><time>2026-04-25T09:02:07.979Z</time></trkpt><trkpt lat="45.0651633" lon="8.2369483"><ele>233.66666666666669</ele><time>2026-04-25T09:02:08.98Z</time></trkpt><trkpt lat="45.065275" lon="8.2367183"><ele>236.0</ele><time>2026-04-25T09:02:09.979Z</time></trkpt><trkpt lat="45.0653767" lon="8.236475"><ele>235.33333333333334</ele><time>2026-04-25T09:02:10.979Z</time></trkpt><trkpt lat="45.0654667" lon="8.23623"><ele>234.66666666666669</ele><time>2026-04-25T09:02:11.979Z</time></trkpt><trkpt lat="45.0655433" lon="8.23596"><ele>234.0</ele><time>2026-04-25T09:02:12.98Z</time></trkpt><trkpt lat="45.0656067" lon="8.2356733"><ele>234.33333333333331</ele><time>2026-04-25T09:02:13.979Z</time></trkpt><trkpt lat="45.0656767" lon="8.23539"><ele>234.66666666666666</ele><time>2026-04-25T09:02:14.979Z</time></trkpt><trkpt lat="45.06574" lon="8.2351083"><ele>235.0</ele><time>2026-04-25T09:02:15.979Z</time></trkpt><trkpt lat="45.0658117" lon="8.2348267"><ele>239.0</ele><time>2026-04-25T09:02:16.98Z</time></trkpt><trkpt lat="45.06589" lon="8.234545"><ele>243.0</ele><time>2026-04-25T09:02:17.979Z</time></trkpt><trkpt lat="45.0659683" lon="8.234265"><ele>247.0</ele><time>2026-04-25T09:02:18.979Z</time></trkpt><trkpt lat="45.0660417" lon="8.2339867"><ele>246.66666666666666</ele><time>2026-04-25T09:02:19.979Z</time></trkpt><trkpt lat="45.066115" lon="8.2337033"><ele>246.33333333333331</ele><time>2026-04-25T09:02:20.979Z</time></trkpt><trkpt lat="45.06619" lon="8.2333983"><ele>246.0</ele><time>2026-04-25T09:02:21.979Z</time></trkpt><trkpt lat="45.0662733" lon="8.23309"><ele>248.0</ele><time>2026-04-25T09:02:22.979Z</time></trkpt><trkpt lat="45.066365" lon="8.232785"><ele>250.0</ele><time>2026-04-25T09:02:23.979Z</time></trkpt><trkpt lat="45.066445" lon="8.2324883"><ele>249.33333333333331</ele><time>2026-04-25T09:02:24.98Z</time></trkpt><trkpt lat="45.0665167" lon="8.2322117"><ele>248.66666666666669</ele><time>2026-04-25T09:02:25.98Z</time></trkpt><trkpt lat="45.0665833" lon="8.2319417"><ele>248.0</ele><time>2026-04-25T09:02:26.98Z</time></trkpt><trkpt lat="45.0666483" lon="8.23169"><ele>253.66666666666669</ele><time>2026-04-25T09:02:27.979Z</time></trkpt><trkpt lat="45.0667" lon="8.231455"><ele>259.3333333333333</ele><time>2026-04-25T09:02:28.98Z</time></trkpt><trkpt lat="45.0667483" lon="8.23125"><ele>265.0</ele><time>2026-04-25T09:02:29.979Z</time></trkpt><trkpt lat="45.0667883" lon="8.2310583"><ele>265.0</ele><time>2026-04-25T09:02:30.979Z</time></trkpt><trkpt lat="45.0668117" lon="8.2308667"><ele>265.0</ele><time>2026-04-25T09:02:31.98Z</time></trkpt><trkpt lat="45.0668067" lon="8.2306633"><ele>265.0</ele><time>2026-04-25T09:02:32.979Z</time></trkpt><trkpt lat="45.0667767" lon="8.2304367"><ele>265.0</ele><time>2026-04-25T09:02:33.978Z</time></trkpt><trkpt lat="45.066705" lon="8.2302183"><ele>265.0</ele><time>2026-04-25T09:02:34.978Z</time></trkpt><trkpt lat="45.0665783" lon="8.2300167"><ele>265.0</ele><time>2026-04-25T09:02:35.978Z</time></trkpt><trkpt lat="45.066475" lon="8.2298667"><ele>265.0</ele><time>2026-04-25T09:02:36.978Z</time></trkpt><trkpt lat="45.0663783" lon="8.2297367"><ele>265.0</ele><time>2026-04-25T09:02:37.978Z</time></trkpt><trkpt lat="45.0662967" lon="8.2296167"><ele>265.0</ele><time>2026-04-25T09:02:38.978Z</time></trkpt><trkpt lat="45.066225" lon="8.2295233"><ele>265.0</ele><time>2026-04-25T09:02:39.978Z</time></trkpt><trkpt lat="45.0661617" lon="8.229445"><ele>265.0</ele><time>2026-04-25T09:02:40.978Z</time></trkpt><trkpt lat="45.06611" lon="8.2293783"><ele>265.0</ele><time>2026-04-25T09:02:41.979Z</time></trkpt><trkpt lat="45.0660433" lon="8.2293133"><ele>265.0</ele><time>2026-04-25T09:02:42.978Z</time></trkpt><trkpt lat="45.0659783" lon="8.229225"><ele>265.0</ele><time>2026-04-25T09:02:43.978Z</time></trkpt><trkpt lat="45.0658967" lon="8.22909"><ele>265.0</ele><time>2026-04-25T09:02:44.978Z</time></trkpt><trkpt lat="45.065795" lon="8.2289367"><ele>265.0</ele><time>2026-04-25T09:02:45.979Z</time></trkpt><trkpt lat="45.065685" lon="8.2287717"><ele>265.75</ele><time>2026-04-25T09:02:46.978Z</time></trkpt><trkpt lat="45.0655683" lon="8.22862"><ele>266.5</ele><time>2026-04-25T09:02:47.978Z</time></trkpt><trkpt lat="45.0654717" lon="8.228465"><ele>267.25</ele><time>2026-04-25T09:02:48.979Z</time></trkpt><trkpt lat="45.0653683" lon="8.2283283"><ele>268.0</ele><time>2026-04-25T09:02:49.978Z</time></trkpt><trkpt lat="45.0652617" lon="8.228205"><ele>268.6</ele><time>2026-04-25T09:02:50.979Z</time></trkpt><trkpt lat="45.0651517" lon="8.228105"><ele>269.20000000000005</ele><time>2026-04-25T09:02:51.979Z</time></trkpt><trkpt lat="45.06506" lon="8.228025"><ele>269.8</ele><time>2026-04-25T09:02:52.978Z</time></trkpt><trkpt lat="45.064985" lon="8.22797"><ele>270.40000000000003</ele><time>2026-04-25T09:02:53.979Z</time></trkpt><trkpt lat="45.0649083" lon="8.2278967"><ele>271.0</ele><time>2026-04-25T09:02:54.979Z</time></trkpt><trkpt lat="45.0648417" lon="8.2278033"><ele>271.0</ele><time>2026-04-25T09:02:55.979Z</time></trkpt><trkpt lat="45.064795" lon="8.2276833"><ele>271.0</ele><time>2026-04-25T09:02:56.978Z</time></trkpt><trkpt lat="45.0647983" lon="8.2275267"><ele>271.0</ele><time>2026-04-25T09:02:57.978Z</time></trkpt><trkpt lat="45.0648117" lon="8.2273267"><ele>271.0</ele><time>2026-04-25T09:02:58.978Z</time></trkpt><trkpt lat="45.064845" lon="8.2271217"><ele>271.0</ele><time>2026-04-25T09:02:59.978Z</time></trkpt><trkpt lat="45.0648867" lon="8.226915"><ele>271.0</ele><time>2026-04-25T09:03:00.979Z</time></trkpt><trkpt lat="45.0649383" lon="8.2267233"><ele>271.0</ele><time>2026-04-25T09:03:01.979Z</time></trkpt><trkpt lat="45.0649733" lon="8.2265667"><ele>271.0</ele><time>2026-04-25T09:03:02.979Z</time></trkpt><trkpt lat="45.0650233" lon="8.2264133"><ele>268.5</ele><time>2026-04-25T09:03:03.978Z</time></trkpt><trkpt lat="45.0650917" lon="8.226295"><ele>266.0</ele><time>2026-04-25T09:03:04.979Z</time></trkpt><trkpt lat="45.06519" lon="8.2262083"><ele>263.5</ele><time>2026-04-25T09:03:05.978Z</time></trkpt><trkpt lat="45.0653283" lon="8.2261517"><ele>261.0</ele><time>2026-04-25T09:03:06.978Z</time></trkpt><trkpt lat="45.0654933" lon="8.2261083"><ele>261.0</ele><time>2026-04-25T09:03:07.978Z</time></trkpt><trkpt lat="45.06567" lon="8.2260717"><ele>261.0</ele><time>2026-04-25T09:03:08.978Z</time></trkpt><trkpt lat="45.0658483" lon="8.2260283"><ele>261.0</ele><time>2026-04-25T09:03:09.978Z</time></trkpt><trkpt lat="45.066035" lon="8.22598"><ele>261.3333333333333</ele><time>2026-04-25T09:03:10.978Z</time></trkpt><trkpt lat="45.0662233" lon="8.2259283"><ele>261.66666666666663</ele><time>2026-04-25T09:03:11.979Z</time></trkpt><trkpt lat="45.0664333" lon="8.2258617"><ele>262.0</ele><time>2026-04-25T09:03:12.978Z</time></trkpt><trkpt lat="45.066655" lon="8.225805"><ele>260.5</ele><time>2026-04-25T09:03:13.978Z</time></trkpt><trkpt lat="45.066885" lon="8.22573"><ele>259.0</ele><time>2026-04-25T09:03:14.978Z</time></trkpt><trkpt lat="45.0671133" lon="8.2256617"><ele>257.0</ele><time>2026-04-25T09:03:15.979Z</time></trkpt><trkpt lat="45.067345" lon="8.2256117"><ele>255.0</ele><time>2026-04-25T09:03:16.979Z</time></trkpt><trkpt lat="45.0675783" lon="8.2255417"><ele>255.0</ele><time>2026-04-25T09:03:17.978Z</time></trkpt><trkpt lat="45.0677933" lon="8.2254733"><ele>255.0</ele><time>2026-04-25T09:03:18.978Z</time></trkpt><trkpt lat="45.067985" lon="8.22542"><ele>255.0</ele><time>2026-04-25T09:03:19.979Z</time></trkpt><trkpt lat="45.0681617" lon="8.22536"><ele>257.3333333333333</ele><time>2026-04-25T09:03:20.979Z</time></trkpt><trkpt lat="45.06831" lon="8.22529"><ele>259.66666666666663</ele><time>2026-04-25T09:03:21.978Z</time></trkpt><trkpt lat="45.0684417" lon="8.22517"><ele>262.0</ele><time>2026-04-25T09:03:22.978Z</time></trkpt><trkpt lat="45.06857" lon="8.225"><ele>260.0</ele><time>2026-04-25T09:03:23.978Z</time></trkpt><trkpt lat="45.0686967" lon="8.2248033"><ele>258.0</ele><time>2026-04-25T09:03:24.978Z</time></trkpt><trkpt lat="45.0688367" lon="8.224595"><ele>256.0</ele><time>2026-04-25T09:03:25.978Z</time></trkpt><trkpt lat="45.0689767" lon="8.2243783"><ele>259.0</ele><time>2026-04-25T09:03:26.978Z</time></trkpt><trkpt lat="45.069135" lon="8.2241667"><ele>262.0</ele><time>2026-04-25T09:03:27.978Z</time></trkpt><trkpt lat="45.0692883" lon="8.223935"><ele>265.0</ele><time>2026-04-25T09:03:28.978Z</time></trkpt><trkpt lat="45.0694367" lon="8.223705"><ele>265.0</ele><time>2026-04-25T09:03:29.978Z</time></trkpt><trkpt lat="45.0695933" lon="8.2234933"><ele>265.0</ele><time>2026-04-25T09:03:30.979Z</time></trkpt><trkpt lat="45.0697383" lon="8.2232917"><ele>265.0</ele><time>2026-04-25T09:03:31.978Z</time></trkpt><trkpt lat="45.0698633" lon="8.2230967"><ele>267.0</ele><time>2026-04-25T09:03:32.979Z</time></trkpt><trkpt lat="45.069975" lon="8.2229133"><ele>269.0</ele><time>2026-04-25T09:03:33.978Z</time></trkpt><trkpt lat="45.0700517" lon="8.2227083"><ele>271.0</ele><time>2026-04-25T09:03:34.978Z</time></trkpt><trkpt lat="45.070075" lon="8.2224417"><ele>271.3333333333333</ele><time>2026-04-25T09:03:35.978Z</time></trkpt><trkpt lat="45.0700767" lon="8.222145"><ele>271.6666666666667</ele><time>2026-04-25T09:03:36.978Z</time></trkpt><trkpt lat="45.0700933" lon="8.2218483"><ele>272.0</ele><time>2026-04-25T09:03:37.978Z</time></trkpt><trkpt lat="45.0701133" lon="8.22154"><ele>272.33333333333337</ele><time>2026-04-25T09:03:38.979Z</time></trkpt><trkpt lat="45.0701283" lon="8.2212317"><ele>272.6666666666667</ele><time>2026-04-25T09:03:39.979Z</time></trkpt><trkpt lat="45.0701417" lon="8.2209267"><ele>273.0</ele><time>2026-04-25T09:03:40.979Z</time></trkpt><trkpt lat="45.0701667" lon="8.2206383"><ele>273.0</ele><time>2026-04-25T09:03:41.979Z</time></trkpt><trkpt lat="45.0701917" lon="8.2203767"><ele>273.0</ele><time>2026-04-25T09:03:42.979Z</time></trkpt><trkpt lat="45.0701867" lon="8.220125"><ele>273.0</ele><time>2026-04-25T09:03:43.979Z</time></trkpt><trkpt lat="45.0701633" lon="8.2198683"><ele>276.0</ele><time>2026-04-25T09:03:44.979Z</time></trkpt><trkpt lat="45.0701417" lon="8.219585"><ele>279.0</ele><time>2026-04-25T09:03:45.978Z</time></trkpt><trkpt lat="45.0701267" lon="8.2192867"><ele>282.0</ele><time>2026-04-25T09:03:46.979Z</time></trkpt><trkpt lat="45.0701233" lon="8.21899"><ele>284.0</ele><time>2026-04-25T09:03:47.978Z</time></trkpt><trkpt lat="45.0701133" lon="8.2186967"><ele>286.0</ele><time>2026-04-25T09:03:48.978Z</time></trkpt><trkpt lat="45.0701033" lon="8.218415"><ele>288.0</ele><time>2026-04-25T09:03:49.978Z</time></trkpt><trkpt lat="45.0700867" lon="8.2181383"><ele>290.6666666666667</ele><time>2026-04-25T09:03:50.978Z</time></trkpt><trkpt lat="45.0700783" lon="8.217875"><ele>293.33333333333337</ele><time>2026-04-25T09:03:51.978Z</time></trkpt><trkpt lat="45.070075" lon="8.2176017"><ele>296.0</ele><time>2026-04-25T09:03:52.978Z</time></trkpt><trkpt lat="45.0700817" lon="8.2173417"><ele>297.0</ele><time>2026-04-25T09:03:53.978Z</time></trkpt><trkpt lat="45.0700867" lon="8.2171183"><ele>298.0</ele><time>2026-04-25T09:03:54.978Z</time></trkpt><trkpt lat="45.0701033" lon="8.216905"><ele>299.0</ele><time>2026-04-25T09:03:55.978Z</time></trkpt><trkpt lat="45.07013" lon="8.2167233"><ele>300.0</ele><time>2026-04-25T09:03:56.979Z</time></trkpt><trkpt lat="45.0701533" lon="8.21654"><ele>299.0</ele><time>2026-04-25T09:03:57.978Z</time></trkpt><trkpt lat="45.0701833" lon="8.2163733"><ele>298.0</ele><time>2026-04-25T09:03:58.978Z</time></trkpt><trkpt lat="45.070235" lon="8.2161833"><ele>297.0</ele><time>2026-04-25T09:03:59.979Z</time></trkpt><trkpt lat="45.0703117" lon="8.216045"><ele>296.0</ele><time>2026-04-25T09:04:00.978Z</time></trkpt><trkpt lat="45.0704117" lon="8.21593"><ele>296.0</ele><time>2026-04-25T09:04:01.979Z</time></trkpt><trkpt lat="45.0705417" lon="8.2158483"><ele>296.0</ele><time>2026-04-25T09:04:02.978Z</time></trkpt><trkpt lat="45.0706783" lon="8.2157417"><ele>296.0</ele><time>2026-04-25T09:04:03.978Z</time></trkpt><trkpt lat="45.0707983" lon="8.2155967"><ele>293.75</ele><time>2026-04-25T09:04:04.978Z</time></trkpt><trkpt lat="45.070885" lon="8.21541"><ele>291.5</ele><time>2026-04-25T09:04:05.978Z</time></trkpt><trkpt lat="45.070935" lon="8.21523"><ele>289.25</ele><time>2026-04-25T09:04:06.978Z</time></trkpt><trkpt lat="45.070955" lon="8.21502"><ele>287.0</ele><time>2026-04-25T09:04:07.978Z</time></trkpt><trkpt lat="45.0709367" lon="8.2148083"><ele>285.0</ele><time>2026-04-25T09:04:08.979Z</time></trkpt><trkpt lat="45.0709" lon="8.2146117"><ele>283.0</ele><time>2026-04-25T09:04:09.978Z</time></trkpt><trkpt lat="45.0708583" lon="8.2143933"><ele>281.0</ele><time>2026-04-25T09:04:10.978Z</time></trkpt><trkpt lat="45.0708633" lon="8.2141833"><ele>279.0</ele><time>2026-04-25T09:04:11.979Z</time></trkpt><trkpt lat="45.0709267" lon="8.2139483"><ele>277.0</ele><time>2026-04-25T09:04:12.978Z</time></trkpt><trkpt lat="45.0710151" lon="8.2137034"><ele>275.0</ele><time>2026-04-25T09:04:13.979Z</time></trkpt><trkpt lat="45.0711118" lon="8.2134497"><ele>275.0</ele><time>2026-04-25T09:04:14.978Z</time></trkpt><trkpt lat="45.0712084" lon="8.2132113"><ele>275.0</ele><time>2026-04-25T09:04:15.978Z</time></trkpt><trkpt lat="45.0712945" lon="8.212988"><ele>275.0</ele><time>2026-04-25T09:04:16.978Z</time></trkpt><trkpt lat="45.071371" lon="8.2127805"><ele>272.6666666666667</ele><time>2026-04-25T09:04:17.978Z</time></trkpt><trkpt lat="45.0714408" lon="8.2125779"><ele>270.3333333333333</ele><time>2026-04-25T09:04:18.979Z</time></trkpt><trkpt lat="45.0715168" lon="8.2123904"><ele>268.0</ele><time>2026-04-25T09:04:19.979Z</time></trkpt><trkpt lat="45.0715923" lon="8.2122178"><ele>270.66666666666663</ele><time>2026-04-25T09:04:20.978Z</time></trkpt><trkpt lat="45.0716965" lon="8.2120552"><ele>273.3333333333333</ele><time>2026-04-25T09:04:21.978Z</time></trkpt><trkpt lat="45.071813" lon="8.2119145"><ele>276.0</ele><time>2026-04-25T09:04:22.978Z</time></trkpt><trkpt lat="45.0719098" lon="8.211743"><ele>276.0</ele><time>2026-04-25T09:04:23.979Z</time></trkpt><trkpt lat="45.0719583" lon="8.2115509"><ele>276.0</ele><time>2026-04-25T09:04:24.978Z</time></trkpt><trkpt lat="45.0719473" lon="8.2113425"><ele>276.0</ele><time>2026-04-25T09:04:25.979Z</time></trkpt><trkpt lat="45.0718748" lon="8.2111122"><ele>277.0</ele><time>2026-04-25T09:04:26.978Z</time></trkpt><trkpt lat="45.0717837" lon="8.210874"><ele>278.0</ele><time>2026-04-25T09:04:27.978Z</time></trkpt><trkpt lat="45.0716941" lon="8.2106288"><ele>279.0</ele><time>2026-04-25T09:04:28.979Z</time></trkpt><trkpt lat="45.0716217" lon="8.2103892"><ele>277.3333333333333</ele><time>2026-04-25T09:04:29.978Z</time></trkpt><trkpt lat="45.0715732" lon="8.2101539"><ele>275.66666666666663</ele><time>2026-04-25T09:04:30.978Z</time></trkpt><trkpt lat="45.0715573" lon="8.2099246"><ele>274.0</ele><time>2026-04-25T09:04:31.978Z</time></trkpt><trkpt lat="45.0715851" lon="8.2096918"><ele>277.3333333333333</ele><time>2026-04-25T09:04:32.978Z</time></trkpt><trkpt lat="45.0716241" lon="8.2094456"><ele>280.6666666666667</ele><time>2026-04-25T09:04:33.978Z</time></trkpt><trkpt lat="45.0716638" lon="8.20919"><ele>284.0</ele><time>2026-04-25T09:04:34.979Z</time></trkpt><trkpt lat="45.0717027" lon="8.208925"><ele>284.33333333333337</ele><time>2026-04-25T09:04:35.978Z</time></trkpt><trkpt lat="45.0717382" lon="8.2086496"><ele>284.6666666666667</ele><time>2026-04-25T09:04:36.978Z</time></trkpt><trkpt lat="45.0717719" lon="8.2083625"><ele>285.0</ele><time>2026-04-25T09:04:37.978Z</time></trkpt><trkpt lat="45.0718052" lon="8.2080887"><ele>285.6666666666667</ele><time>2026-04-25T09:04:38.979Z</time></trkpt><trkpt lat="45.071832" lon="8.2078239"><ele>286.33333333333337</ele><time>2026-04-25T09:04:39.979Z</time></trkpt><trkpt lat="45.0718325" lon="8.2075703"><ele>287.0</ele><time>2026-04-25T09:04:40.979Z</time></trkpt><trkpt lat="45.0718009" lon="8.2073337"><ele>288.0</ele><time>2026-04-25T09:04:41.978Z</time></trkpt><trkpt lat="45.0717413" lon="8.2071138"><ele>289.0</ele><time>2026-04-25T09:04:42.979Z</time></trkpt><trkpt lat="45.0716723" lon="8.2069021"><ele>290.0</ele><time>2026-04-25T09:04:43.978Z</time></trkpt><trkpt lat="45.0715939" lon="8.2067013"><ele>287.0</ele><time>2026-04-25T09:04:44.978Z</time></trkpt><trkpt lat="45.0714923" lon="8.2065"><ele>284.0</ele><time>2026-04-25T09:04:45.978Z</time></trkpt><trkpt lat="45.0713707" lon="8.2063096"><ele>281.0</ele><time>2026-04-25T09:04:46.978Z</time></trkpt><trkpt lat="45.0712452" lon="8.2061531"><ele>281.0</ele><time>2026-04-25T09:04:47.978Z</time></trkpt><trkpt lat="45.0711314" lon="8.2060136"><ele>281.0</ele><time>2026-04-25T09:04:48.979Z</time></trkpt><trkpt lat="45.071036" lon="8.2058931"><ele>281.0</ele><time>2026-04-25T09:04:49.978Z</time></trkpt><trkpt lat="45.0709707" lon="8.2057763"><ele>281.0</ele><time>2026-04-25T09:04:50.978Z</time></trkpt><trkpt lat="45.0709391" lon="8.205638"><ele>280.40000000000003</ele><time>2026-04-25T09:04:51.978Z</time></trkpt><trkpt lat="45.0709394" lon="8.2054701"><ele>279.8</ele><time>2026-04-25T09:04:52.979Z</time></trkpt><trkpt lat="45.0709495" lon="8.2053215"><ele>279.20000000000005</ele><time>2026-04-25T09:04:53.978Z</time></trkpt><trkpt lat="45.0709898" lon="8.2052068"><ele>278.6</ele><time>2026-04-25T09:04:54.978Z</time></trkpt><trkpt lat="45.071044" lon="8.205109"><ele>278.0</ele><time>2026-04-25T09:04:55.978Z</time></trkpt><trkpt lat="45.0711301" lon="8.2050627"><ele>278.0</ele><time>2026-04-25T09:04:56.978Z</time></trkpt><trkpt lat="45.0712438" lon="8.2050427"><ele>278.0</ele><time>2026-04-25T09:04:57.979Z</time></trkpt><trkpt lat="45.0713989" lon="8.2050695"><ele>278.0</ele><time>2026-04-25T09:04:58.979Z</time></trkpt><trkpt lat="45.0715999" lon="8.2051374"><ele>277.33333333333337</ele><time>2026-04-25T09:04:59.978Z</time></trkpt><trkpt lat="45.0718108" lon="8.2052094"><ele>276.6666666666667</ele><time>2026-04-25T09:05:00.978Z</time></trkpt><trkpt lat="45.072012" lon="8.2052513"><ele>276.0</ele><time>2026-04-25T09:05:01.979Z</time></trkpt><trkpt lat="45.0721985" lon="8.2052442"><ele>276.0</ele><time>2026-04-25T09:05:02.979Z</time></trkpt><trkpt lat="45.0723709" lon="8.2051537"><ele>276.0</ele><time>2026-04-25T09:05:03.978Z</time></trkpt><trkpt lat="45.0725445" lon="8.2050165"><ele>276.0</ele><time>2026-04-25T09:05:04.978Z</time></trkpt><trkpt lat="45.0727146" lon="8.2048801"><ele>273.6666666666667</ele><time>2026-04-25T09:05:05.978Z</time></trkpt><trkpt lat="45.0728639" lon="8.2047709"><ele>271.33333333333337</ele><time>2026-04-25T09:05:06.978Z</time></trkpt><trkpt lat="45.0730154" lon="8.2046909"><ele>269.0</ele><time>2026-04-25T09:05:07.978Z</time></trkpt><trkpt lat="45.0731715" lon="8.2046488"><ele>268.0</ele><time>2026-04-25T09:05:08.978Z</time></trkpt><trkpt lat="45.0733337" lon="8.2046434"><ele>267.0</ele><time>2026-04-25T09:05:09.978Z</time></trkpt><trkpt lat="45.0735029" lon="8.2046724"><ele>266.0</ele><time>2026-04-25T09:05:10.979Z</time></trkpt><trkpt lat="45.0736606" lon="8.204719"><ele>266.0</ele><time>2026-04-25T09:05:11.978Z</time></trkpt><trkpt lat="45.0738054" lon="8.2048042"><ele>266.0</ele><time>2026-04-25T09:05:12.978Z</time></trkpt><trkpt lat="45.0739404" lon="8.2049135"><ele>266.0</ele><time>2026-04-25T09:05:13.979Z</time></trkpt><trkpt lat="45.074065" lon="8.2049838"><ele>266.0</ele><time>2026-04-25T09:05:14.978Z</time></trkpt><trkpt lat="45.0741778" lon="8.2050011"><ele>268.25</ele><time>2026-04-25T09:05:15.978Z</time></trkpt><trkpt lat="45.0742651" lon="8.2049519"><ele>270.5</ele><time>2026-04-25T09:05:16.979Z</time></trkpt><trkpt lat="45.0743256" lon="8.2048338"><ele>272.75</ele><time>2026-04-25T09:05:17.979Z</time></trkpt><trkpt lat="45.0743586" lon="8.2046696"><ele>275.0</ele><time>2026-04-25T09:05:18.978Z</time></trkpt><trkpt lat="45.0743407" lon="8.204444"><ele>275.0</ele><time>2026-04-25T09:05:19.978Z</time></trkpt><trkpt lat="45.0742903" lon="8.2042191"><ele>275.0</ele><time>2026-04-25T09:05:20.979Z</time></trkpt><trkpt lat="45.0741964" lon="8.2040136"><ele>275.0</ele><time>2026-04-25T09:05:21.979Z</time></trkpt><trkpt lat="45.0740638" lon="8.2038255"><ele>271.33333333333337</ele><time>2026-04-25T09:05:22.979Z</time></trkpt><trkpt lat="45.0739191" lon="8.2036353"><ele>267.6666666666667</ele><time>2026-04-25T09:05:23.978Z</time></trkpt><trkpt lat="45.0737764" lon="8.203428"><ele>264.0</ele><time>2026-04-25T09:05:24.978Z</time></trkpt><trkpt lat="45.0736415" lon="8.2031924"><ele>267.3333333333333</ele><time>2026-04-25T09:05:25.978Z</time></trkpt><trkpt lat="45.0735237" lon="8.2029405"><ele>270.66666666666663</ele><time>2026-04-25T09:05:26.979Z</time></trkpt><trkpt lat="45.0734338" lon="8.2026828"><ele>274.0</ele><time>2026-04-25T09:05:27.978Z</time></trkpt><trkpt lat="45.0733794" lon="8.2024294"><ele>274.66666666666663</ele><time>2026-04-25T09:05:28.979Z</time></trkpt><trkpt lat="45.0733572" lon="8.2021543"><ele>275.3333333333333</ele><time>2026-04-25T09:05:29.978Z</time></trkpt><trkpt lat="45.0733523" lon="8.2018741"><ele>276.0</ele><time>2026-04-25T09:05:30.978Z</time></trkpt><trkpt lat="45.0733389" lon="8.2015984"><ele>277.3333333333333</ele><time>2026-04-25T09:05:31.978Z</time></trkpt><trkpt lat="45.0733078" lon="8.2013389"><ele>278.66666666666663</ele><time>2026-04-25T09:05:32.978Z</time></trkpt><trkpt lat="45.0732509" lon="8.2010809"><ele>280.0</ele><time>2026-04-25T09:05:33.979Z</time></trkpt><trkpt lat="45.0731638" lon="8.2008245"><ele>277.66666666666663</ele><time>2026-04-25T09:05:34.979Z</time></trkpt><trkpt lat="45.0730547" lon="8.2005699"><ele>275.3333333333333</ele><time>2026-04-25T09:05:35.978Z</time></trkpt><trkpt lat="45.0729386" lon="8.2003093"><ele>273.0</ele><time>2026-04-25T09:05:36.978Z</time></trkpt><trkpt lat="45.0728178" lon="8.2000407"><ele>275.0</ele><time>2026-04-25T09:05:37.978Z</time></trkpt><trkpt lat="45.0727094" lon="8.1997891"><ele>277.0</ele><time>2026-04-25T09:05:38.978Z</time></trkpt><trkpt lat="45.0726102" lon="8.1995512"><ele>279.0</ele><time>2026-04-25T09:05:39.978Z</time></trkpt><trkpt lat="45.0725188" lon="8.1993509"><ele>274.25</ele><time>2026-04-25T09:05:40.978Z</time></trkpt><trkpt lat="45.0724391" lon="8.1991686"><ele>269.5</ele><time>2026-04-25T09:05:41.978Z</time></trkpt><trkpt lat="45.0723628" lon="8.1990124"><ele>264.75</ele><time>2026-04-25T09:05:42.978Z</time></trkpt><trkpt lat="45.0722987" lon="8.1988835"><ele>260.0</ele><time>2026-04-25T09:05:43.978Z</time></trkpt><trkpt lat="45.0722604" lon="8.198732"><ele>260.5</ele><time>2026-04-25T09:05:44.978Z</time></trkpt><trkpt lat="45.07226" lon="8.1985708"><ele>261.0</ele><time>2026-04-25T09:05:45.978Z</time></trkpt><trkpt lat="45.0723132" lon="8.1984235"><ele>261.5</ele><time>2026-04-25T09:05:46.979Z</time></trkpt><trkpt lat="45.0724124" lon="8.1982877"><ele>262.0</ele><time>2026-04-25T09:05:47.978Z</time></trkpt><trkpt lat="45.0725409" lon="8.1981498"><ele>262.0</ele><time>2026-04-25T09:05:48.978Z</time></trkpt><trkpt lat="45.0726905" lon="8.1979976"><ele>262.0</ele><time>2026-04-25T09:05:49.978Z</time></trkpt><trkpt lat="45.0728587" lon="8.1978409"><ele>262.0</ele><time>2026-04-25T09:05:50.978Z</time></trkpt><trkpt lat="45.0730332" lon="8.197692"><ele>262.0</ele><time>2026-04-25T09:05:51.979Z</time></trkpt><trkpt lat="45.0732032" lon="8.1975807"><ele>262.0</ele><time>2026-04-25T09:05:52.978Z</time></trkpt><trkpt lat="45.0733873" lon="8.197519"><ele>262.0</ele><time>2026-04-25T09:05:53.978Z</time></trkpt><trkpt lat="45.0736083" lon="8.1975533"><ele>264.66666666666663</ele><time>2026-04-25T09:05:54.978Z</time></trkpt><trkpt lat="45.0738017" lon="8.197615"><ele>267.3333333333333</ele><time>2026-04-25T09:05:55.979Z</time></trkpt><trkpt lat="45.0739933" lon="8.197615"><ele>270.0</ele><time>2026-04-25T09:05:56.978Z</time></trkpt><trkpt lat="45.074155" lon="8.1975383"><ele>271.3333333333333</ele><time>2026-04-25T09:05:57.979Z</time></trkpt><trkpt lat="45.0743017" lon="8.1974333"><ele>272.66666666666663</ele><time>2026-04-25T09:05:58.979Z</time></trkpt><trkpt lat="45.0744617" lon="8.1973367"><ele>274.0</ele><time>2026-04-25T09:05:59.978Z</time></trkpt><trkpt lat="45.0746367" lon="8.197275"><ele>273.0</ele><time>2026-04-25T09:06:00.978Z</time></trkpt><trkpt lat="45.07481" lon="8.19725"><ele>272.0</ele><time>2026-04-25T09:06:01.978Z</time></trkpt><trkpt lat="45.0749983" lon="8.197215"><ele>271.0</ele><time>2026-04-25T09:06:02.978Z</time></trkpt><trkpt lat="45.075145" lon="8.1971817"><ele>271.0</ele><time>2026-04-25T09:06:03.978Z</time></trkpt><trkpt lat="45.0752517" lon="8.19716"><ele>271.0</ele><time>2026-04-25T09:06:04.978Z</time></trkpt><trkpt lat="45.075335" lon="8.197085"><ele>271.0</ele><time>2026-04-25T09:06:05.978Z</time></trkpt><trkpt lat="45.0753917" lon="8.1969383"><ele>271.0</ele><time>2026-04-25T09:06:06.978Z</time></trkpt><trkpt lat="45.07542" lon="8.196745"><ele>271.0</ele><time>2026-04-25T09:06:07.979Z</time></trkpt><trkpt lat="45.0754283" lon="8.1965217"><ele>271.0</ele><time>2026-04-25T09:06:08.979Z</time></trkpt><trkpt lat="45.075465" lon="8.1962917"><ele>271.0</ele><time>2026-04-25T09:06:09.979Z</time></trkpt><trkpt lat="45.075545" lon="8.1960433"><ele>270.0</ele><time>2026-04-25T09:06:10.979Z</time></trkpt><trkpt lat="45.0756683" lon="8.1958317"><ele>269.0</ele><time>2026-04-25T09:06:11.978Z</time></trkpt><trkpt lat="45.0758033" lon="8.19564"><ele>268.0</ele><time>2026-04-25T09:06:12.979Z</time></trkpt><trkpt lat="45.0759317" lon="8.1954617"><ele>268.0</ele><time>2026-04-25T09:06:13.979Z</time></trkpt><trkpt lat="45.0760633" lon="8.1953367"><ele>268.0</ele><time>2026-04-25T09:06:14.979Z</time></trkpt><trkpt lat="45.0762083" lon="8.19529"><ele>268.0</ele><time>2026-04-25T09:06:15.978Z</time></trkpt><trkpt lat="45.0763617" lon="8.1952917"><ele>268.0</ele><time>2026-04-25T09:06:16.979Z</time></trkpt><trkpt lat="45.07652" lon="8.1953633"><ele>268.0</ele><time>2026-04-25T09:06:17.979Z</time></trkpt><trkpt lat="45.076665" lon="8.19547"><ele>268.0</ele><time>2026-04-25T09:06:18.978Z</time></trkpt><trkpt lat="45.0767883" lon="8.1955033"><ele>269.75</ele><time>2026-04-25T09:06:19.979Z</time></trkpt><trkpt lat="45.0768967" lon="8.1955083"><ele>271.5</ele><time>2026-04-25T09:06:20.978Z</time></trkpt><trkpt lat="45.0769967" lon="8.1954"><ele>273.25</ele><time>2026-04-25T09:06:21.979Z</time></trkpt><trkpt lat="45.0770817" lon="8.1952233"><ele>275.0</ele><time>2026-04-25T09:06:22.978Z</time></trkpt><trkpt lat="45.07718" lon="8.1950067"><ele>275.5</ele><time>2026-04-25T09:06:23.979Z</time></trkpt><trkpt lat="45.0772967" lon="8.19475"><ele>276.0</ele><time>2026-04-25T09:06:24.978Z</time></trkpt><trkpt lat="45.0774383" lon="8.194465"><ele>276.0</ele><time>2026-04-25T09:06:25.978Z</time></trkpt><trkpt lat="45.0775817" lon="8.1942067"><ele>276.0</ele><time>2026-04-25T09:06:26.979Z</time></trkpt><trkpt lat="45.077715" lon="8.1939817"><ele>276.0</ele><time>2026-04-25T09:06:27.978Z</time></trkpt><trkpt lat="45.0778633" lon="8.1938"><ele>275.6666666666667</ele><time>2026-04-25T09:06:28.979Z</time></trkpt><trkpt lat="45.0780183" lon="8.1936467"><ele>275.33333333333337</ele><time>2026-04-25T09:06:29.979Z</time></trkpt><trkpt lat="45.0781733" lon="8.1935067"><ele>275.0</ele><time>2026-04-25T09:06:30.978Z</time></trkpt><trkpt lat="45.07831" lon="8.193385"><ele>276.5</ele><time>2026-04-25T09:06:31.979Z</time></trkpt><trkpt lat="45.0784267" lon="8.1932633"><ele>278.0</ele><time>2026-04-25T09:06:32.978Z</time></trkpt><trkpt lat="45.07855" lon="8.193175"><ele>279.5</ele><time>2026-04-25T09:06:33.978Z</time></trkpt><trkpt lat="45.0787" lon="8.1931483"><ele>281.0</ele><time>2026-04-25T09:06:34.978Z</time></trkpt><trkpt lat="45.0788683" lon="8.1931733"><ele>282.0</ele><time>2026-04-25T09:06:35.979Z</time></trkpt><trkpt lat="45.07907" lon="8.193245"><ele>283.0</ele><time>2026-04-25T09:06:36.978Z</time></trkpt><trkpt lat="45.079295" lon="8.1933233"><ele>284.0</ele><time>2026-04-25T09:06:37.978Z</time></trkpt><trkpt lat="45.0795567" lon="8.193405"><ele>289.0</ele><time>2026-04-25T09:06:38.978Z</time></trkpt><trkpt lat="45.0798383" lon="8.1935067"><ele>294.0</ele><time>2026-04-25T09:06:39.979Z</time></trkpt><trkpt lat="45.0800883" lon="8.1935933"><ele>295.0</ele><time>2026-04-25T09:06:40.979Z</time></trkpt><trkpt lat="45.0803233" lon="8.19368"><ele>296.0</ele><time>2026-04-25T09:06:41.979Z</time></trkpt><trkpt lat="45.08054" lon="8.1937667"><ele>296.0</ele><time>2026-04-25T09:06:42.978Z</time></trkpt><trkpt lat="45.0807233" lon="8.1938367"><ele>296.0</ele><time>2026-04-25T09:06:43.978Z</time></trkpt><trkpt lat="45.0808817" lon="8.1938833"><ele>296.0</ele><time>2026-04-25T09:06:44.978Z</time></trkpt><trkpt lat="45.08103" lon="8.1938933"><ele>297.75</ele><time>2026-04-25T09:06:45.979Z</time></trkpt><trkpt lat="45.081155" lon="8.193865"><ele>299.5</ele><time>2026-04-25T09:06:46.978Z</time></trkpt><trkpt lat="45.0812467" lon="8.1937533"><ele>301.25</ele><time>2026-04-25T09:06:47.978Z</time></trkpt><trkpt lat="45.0813233" lon="8.1936067"><ele>303.0</ele><time>2026-04-25T09:06:48.978Z</time></trkpt><trkpt lat="45.0813833" lon="8.19342"><ele>303.0</ele><time>2026-04-25T09:06:49.978Z</time></trkpt><trkpt lat="45.0814183" lon="8.19322"><ele>303.0</ele><time>2026-04-25T09:06:50.979Z</time></trkpt><trkpt lat="45.0814183" lon="8.1930183"><ele>303.0</ele><time>2026-04-25T09:06:51.978Z</time></trkpt><trkpt lat="45.0814167" lon="8.1928283"><ele>303.0</ele><time>2026-04-25T09:06:52.979Z</time></trkpt><trkpt lat="45.0813933" lon="8.19266"><ele>303.5</ele><time>2026-04-25T09:06:53.979Z</time></trkpt><trkpt lat="45.081325" lon="8.19253"><ele>304.0</ele><time>2026-04-25T09:06:54.978Z</time></trkpt><trkpt lat="45.081225" lon="8.192405"><ele>304.5</ele><time>2026-04-25T09:06:55.979Z</time></trkpt><trkpt lat="45.081115" lon="8.192265"><ele>305.0</ele><time>2026-04-25T09:06:56.978Z</time></trkpt><trkpt lat="45.08102" lon="8.1920933"><ele>305.25</ele><time>2026-04-25T09:06:57.979Z</time></trkpt><trkpt lat="45.0809533" lon="8.1919167"><ele>305.5</ele><time>2026-04-25T09:06:58.978Z</time></trkpt><trkpt lat="45.0808817" lon="8.19175"><ele>305.75</ele><time>2026-04-25T09:06:59.978Z</time></trkpt><trkpt lat="45.0808" lon="8.1916567"><ele>306.0</ele><time>2026-04-25T09:07:00.978Z</time></trkpt><trkpt lat="45.08071" lon="8.1916133"><ele>306.0</ele><time>2026-04-25T09:07:01.979Z</time></trkpt><trkpt lat="45.0806083" lon="8.191615"><ele>306.0</ele><time>2026-04-25T09:07:02.979Z</time></trkpt><trkpt lat="45.080505" lon="8.1916167"><ele>306.0</ele><time>2026-04-25T09:07:03.979Z</time></trkpt><trkpt lat="45.0804033" lon="8.1915883"><ele>306.0</ele><time>2026-04-25T09:07:04.978Z</time></trkpt><trkpt lat="45.0803117" lon="8.1914867"><ele>306.0</ele><time>2026-04-25T09:07:05.979Z</time></trkpt><trkpt lat="45.0802367" lon="8.1913417"><ele>306.2</ele><time>2026-04-25T09:07:06.979Z</time></trkpt><trkpt lat="45.0802117" lon="8.19118"><ele>306.40000000000003</ele><time>2026-04-25T09:07:07.978Z</time></trkpt><trkpt lat="45.080175" lon="8.191055"><ele>306.6</ele><time>2026-04-25T09:07:08.979Z</time></trkpt><trkpt lat="45.0801117" lon="8.19097"><ele>306.8</ele><time>2026-04-25T09:07:09.978Z</time></trkpt><trkpt lat="45.0800067" lon="8.1909267"><ele>307.0</ele><time>2026-04-25T09:07:10.979Z</time></trkpt><trkpt lat="45.0798867" lon="8.190905"><ele>307.0</ele><time>2026-04-25T09:07:11.978Z</time></trkpt><trkpt lat="45.0797667" lon="8.1908917"><ele>307.0</ele><time>2026-04-25T09:07:12.978Z</time></trkpt><trkpt lat="45.0796767" lon="8.1908467"><ele>307.0</ele><time>2026-04-25T09:07:13.978Z</time></trkpt><trkpt lat="45.07961" lon="8.1907833"><ele>307.0</ele><time>2026-04-25T09:07:14.978Z</time></trkpt><trkpt lat="45.0796133" lon="8.1906217"><ele>307.0</ele><time>2026-04-25T09:07:15.978Z</time></trkpt><trkpt lat="45.079615" lon="8.1904133"><ele>308.3333333333333</ele><time>2026-04-25T09:07:16.978Z</time></trkpt><trkpt lat="45.0796267" lon="8.1901367"><ele>309.6666666666667</ele><time>2026-04-25T09:07:17.978Z</time></trkpt><trkpt lat="45.07963" lon="8.1898417"><ele>311.0</ele><time>2026-04-25T09:07:18.978Z</time></trkpt><trkpt lat="45.079635" lon="8.1895567"><ele>311.33333333333337</ele><time>2026-04-25T09:07:19.979Z</time></trkpt><trkpt lat="45.07964" lon="8.1893017"><ele>311.6666666666667</ele><time>2026-04-25T09:07:20.978Z</time></trkpt><trkpt lat="45.0796633" lon="8.1890667"><ele>312.0</ele><time>2026-04-25T09:07:21.978Z</time></trkpt><trkpt lat="45.079725" lon="8.1888133"><ele>313.3333333333333</ele><time>2026-04-25T09:07:22.978Z</time></trkpt><trkpt lat="45.0798067" lon="8.1885367"><ele>314.66666666666663</ele><time>2026-04-25T09:07:23.979Z</time></trkpt><trkpt lat="45.0798817" lon="8.1882683"><ele>316.0</ele><time>2026-04-25T09:07:24.978Z</time></trkpt><trkpt lat="45.0799783" lon="8.18805"><ele>317.75</ele><time>2026-04-25T09:07:25.978Z</time></trkpt><trkpt lat="45.08002" lon="8.18785"><ele>319.5</ele><time>2026-04-25T09:07:26.978Z</time></trkpt><trkpt lat="45.0800433" lon="8.18765"><ele>321.25</ele><time>2026-04-25T09:07:27.978Z</time></trkpt><trkpt lat="45.0800467" lon="8.18743"><ele>323.0</ele><time>2026-04-25T09:07:28.979Z</time></trkpt><trkpt lat="45.08008" lon="8.1872333"><ele>323.0</ele><time>2026-04-25T09:07:29.979Z</time></trkpt><trkpt lat="45.08011" lon="8.187075"><ele>323.0</ele><time>2026-04-25T09:07:30.978Z</time></trkpt><trkpt lat="45.0801083" lon="8.18689"><ele>323.0</ele><time>2026-04-25T09:07:31.978Z</time></trkpt><trkpt lat="45.0800583" lon="8.1866933"><ele>323.0</ele><time>2026-04-25T09:07:32.979Z</time></trkpt><trkpt lat="45.0799783" lon="8.1864667"><ele>325.6666666666667</ele><time>2026-04-25T09:07:33.978Z</time></trkpt><trkpt lat="45.0799083" lon="8.1862133"><ele>328.3333333333333</ele><time>2026-04-25T09:07:34.979Z</time></trkpt><trkpt lat="45.07986" lon="8.1859467"><ele>331.0</ele><time>2026-04-25T09:07:35.978Z</time></trkpt><trkpt lat="45.0798467" lon="8.1857"><ele>326.3333333333333</ele><time>2026-04-25T09:07:36.979Z</time></trkpt><trkpt lat="45.07987" lon="8.1854617"><ele>321.6666666666667</ele><time>2026-04-25T09:07:37.979Z</time></trkpt><trkpt lat="45.0799217" lon="8.1852483"><ele>317.0</ele><time>2026-04-25T09:07:38.978Z</time></trkpt><trkpt lat="45.0800117" lon="8.1850783"><ele>315.0</ele><time>2026-04-25T09:07:39.978Z</time></trkpt><trkpt lat="45.0801533" lon="8.1849383"><ele>313.0</ele><time>2026-04-25T09:07:40.978Z</time></trkpt><trkpt lat="45.0803317" lon="8.1848483"><ele>311.0</ele><time>2026-04-25T09:07:41.978Z</time></trkpt><trkpt lat="45.08052" lon="8.1847517"><ele>306.6666666666667</ele><time>2026-04-25T09:07:42.978Z</time></trkpt><trkpt lat="45.0806867" lon="8.18462"><ele>302.3333333333333</ele><time>2026-04-25T09:07:43.979Z</time></trkpt><trkpt lat="45.0808167" lon="8.1844883"><ele>298.0</ele><time>2026-04-25T09:07:44.979Z</time></trkpt><trkpt lat="45.080935" lon="8.184365"><ele>298.0</ele><time>2026-04-25T09:07:45.978Z</time></trkpt><trkpt lat="45.0810467" lon="8.1842867"><ele>298.0</ele><time>2026-04-25T09:07:46.979Z</time></trkpt><trkpt lat="45.08116" lon="8.18426"><ele>298.0</ele><time>2026-04-25T09:07:47.979Z</time></trkpt><trkpt lat="45.0813033" lon="8.1842883"><ele>298.0</ele><time>2026-04-25T09:07:48.978Z</time></trkpt><trkpt lat="45.08146" lon="8.18431"><ele>298.0</ele><time>2026-04-25T09:07:49.978Z</time></trkpt><trkpt lat="45.08159" lon="8.18429"><ele>298.0</ele><time>2026-04-25T09:07:50.978Z</time></trkpt><trkpt lat="45.081705" lon="8.184175"><ele>298.0</ele><time>2026-04-25T09:07:51.978Z</time></trkpt><trkpt lat="45.0818183" lon="8.184025"><ele>298.0</ele><time>2026-04-25T09:07:52.977Z</time></trkpt><trkpt lat="45.0819467" lon="8.183875"><ele>293.66666666666663</ele><time>2026-04-25T09:07:53.977Z</time></trkpt><trkpt lat="45.082095" lon="8.183745"><ele>289.3333333333333</ele><time>2026-04-25T09:07:54.978Z</time></trkpt><trkpt lat="45.082235" lon="8.183635"><ele>285.0</ele><time>2026-04-25T09:07:55.977Z</time></trkpt><trkpt lat="45.082355" lon="8.18354"><ele>285.0</ele><time>2026-04-25T09:07:56.977Z</time></trkpt><trkpt lat="45.0824533" lon="8.18346"><ele>285.0</ele><time>2026-04-25T09:07:57.978Z</time></trkpt><trkpt lat="45.0825133" lon="8.1833667"><ele>285.0</ele><time>2026-04-25T09:07:58.977Z</time></trkpt><trkpt lat="45.08254" lon="8.1832667"><ele>285.0</ele><time>2026-04-25T09:07:59.978Z</time></trkpt><trkpt lat="45.0824867" lon="8.1831917"><ele>285.0</ele><time>2026-04-25T09:08:00.978Z</time></trkpt><trkpt lat="45.0823233" lon="8.1832417"><ele>285.0</ele><time>2026-04-25T09:08:02.977Z</time></trkpt><trkpt lat="45.0822033" lon="8.1833533"><ele>285.0</ele><time>2026-04-25T09:08:03.977Z</time></trkpt><trkpt lat="45.0820533" lon="8.18349"><ele>285.0</ele><time>2026-04-25T09:08:04.977Z</time></trkpt><trkpt lat="45.0819033" lon="8.1836183"><ele>285.0</ele><time>2026-04-25T09:08:05.977Z</time></trkpt><trkpt lat="45.0817533" lon="8.1837383"><ele>285.0</ele><time>2026-04-25T09:08:06.977Z</time></trkpt><trkpt lat="45.0816067" lon="8.1838333"><ele>285.0</ele><time>2026-04-25T09:08:07.977Z</time></trkpt><trkpt lat="45.0814583" lon="8.1838633"><ele>284.0</ele><time>2026-04-25T09:08:08.977Z</time></trkpt><trkpt lat="45.0813433" lon="8.1838383"><ele>283.0</ele><time>2026-04-25T09:08:09.977Z</time></trkpt><trkpt lat="45.0812333" lon="8.1837917"><ele>282.0</ele><time>2026-04-25T09:08:10.977Z</time></trkpt><trkpt lat="45.0811567" lon="8.183705"><ele>281.0</ele><time>2026-04-25T09:08:11.978Z</time></trkpt><trkpt lat="45.0811067" lon="8.1835967"><ele>280.0</ele><time>2026-04-25T09:08:12.977Z</time></trkpt><trkpt lat="45.0810517" lon="8.1835067"><ele>280.0</ele><time>2026-04-25T09:08:13.977Z</time></trkpt><trkpt lat="45.080975" lon="8.1834667"><ele>280.0</ele><time>2026-04-25T09:08:14.977Z</time></trkpt><trkpt lat="45.0808683" lon="8.1834983"><ele>280.0</ele><time>2026-04-25T09:08:15.978Z</time></trkpt><trkpt lat="45.08076" lon="8.1835783"><ele>280.0</ele><time>2026-04-25T09:08:16.977Z</time></trkpt><trkpt lat="45.080645" lon="8.1836883"><ele>278.0</ele><time>2026-04-25T09:08:17.977Z</time></trkpt><trkpt lat="45.0805267" lon="8.18381"><ele>276.0</ele><time>2026-04-25T09:08:18.977Z</time></trkpt><trkpt lat="45.0804133" lon="8.1839017"><ele>274.0</ele><time>2026-04-25T09:08:19.978Z</time></trkpt><trkpt lat="45.08027" lon="8.1839083"><ele>272.0</ele><time>2026-04-25T09:08:20.977Z</time></trkpt><trkpt lat="45.0801317" lon="8.1838483"><ele>272.0</ele><time>2026-04-25T09:08:21.977Z</time></trkpt><trkpt lat="45.08001" lon="8.1837417"><ele>272.0</ele><time>2026-04-25T09:08:22.977Z</time></trkpt><trkpt lat="45.0799" lon="8.1835983"><ele>272.0</ele><time>2026-04-25T09:08:23.977Z</time></trkpt><trkpt lat="45.0797933" lon="8.1834417"><ele>272.0</ele><time>2026-04-25T09:08:24.978Z</time></trkpt><trkpt lat="45.07971" lon="8.183315"><ele>272.33333333333337</ele><time>2026-04-25T09:08:25.978Z</time></trkpt><trkpt lat="45.0796367" lon="8.183235"><ele>272.6666666666667</ele><time>2026-04-25T09:08:26.977Z</time></trkpt><trkpt lat="45.0795567" lon="8.18322"><ele>273.0</ele><time>2026-04-25T09:08:27.977Z</time></trkpt><trkpt lat="45.07948" lon="8.183265"><ele>273.3333333333333</ele><time>2026-04-25T09:08:28.977Z</time></trkpt><trkpt lat="45.079415" lon="8.18335"><ele>273.66666666666663</ele><time>2026-04-25T09:08:29.977Z</time></trkpt><trkpt lat="45.0793617" lon="8.1834"><ele>274.0</ele><time>2026-04-25T09:08:30.978Z</time></trkpt><trkpt lat="45.0792733" lon="8.1833367"><ele>274.0</ele><time>2026-04-25T09:08:32.978Z</time></trkpt><trkpt lat="45.0792783" lon="8.18324"><ele>274.0</ele><time>2026-04-25T09:08:33.978Z</time></trkpt><trkpt lat="45.0793267" lon="8.1831217"><ele>274.0</ele><time>2026-04-25T09:08:34.977Z</time></trkpt><trkpt lat="45.0793967" lon="8.18297"><ele>274.0</ele><time>2026-04-25T09:08:35.977Z</time></trkpt><trkpt lat="45.07948" lon="8.182845"><ele>274.0</ele><time>2026-04-25T09:08:36.978Z</time></trkpt><trkpt lat="45.07956" lon="8.18278"><ele>271.4</ele><time>2026-04-25T09:08:37.977Z</time></trkpt><trkpt lat="45.0796483" lon="8.1828067"><ele>268.79999999999995</ele><time>2026-04-25T09:08:38.978Z</time></trkpt><trkpt lat="45.0797233" lon="8.182875"><ele>266.20000000000005</ele><time>2026-04-25T09:08:39.977Z</time></trkpt><trkpt lat="45.0798033" lon="8.1829767"><ele>263.6</ele><time>2026-04-25T09:08:40.978Z</time></trkpt><trkpt lat="45.079905" lon="8.1830683"><ele>261.0</ele><time>2026-04-25T09:08:41.978Z</time></trkpt><trkpt lat="45.0800133" lon="8.1831033"><ele>261.0</ele><time>2026-04-25T09:08:42.977Z</time></trkpt><trkpt lat="45.0801383" lon="8.1830533"><ele>261.0</ele><time>2026-04-25T09:08:43.977Z</time></trkpt><trkpt lat="45.0802517" lon="8.1829533"><ele>261.0</ele><time>2026-04-25T09:08:44.977Z</time></trkpt><trkpt lat="45.080335" lon="8.1828"><ele>261.0</ele><time>2026-04-25T09:08:45.978Z</time></trkpt><trkpt lat="45.080395" lon="8.1825967"><ele>261.0</ele><time>2026-04-25T09:08:46.977Z</time></trkpt><trkpt lat="45.0804467" lon="8.18238"><ele>261.0</ele><time>2026-04-25T09:08:47.977Z</time></trkpt><trkpt lat="45.08051" lon="8.18219"><ele>261.0</ele><time>2026-04-25T09:08:48.978Z</time></trkpt><trkpt lat="45.0805867" lon="8.1820267"><ele>261.0</ele><time>2026-04-25T09:08:49.978Z</time></trkpt><trkpt lat="45.080665" lon="8.1818967"><ele>258.25</ele><time>2026-04-25T09:08:50.977Z</time></trkpt><trkpt lat="45.080755" lon="8.1818333"><ele>255.5</ele><time>2026-04-25T09:08:51.977Z</time></trkpt><trkpt lat="45.0808633" lon="8.1818417"><ele>252.75</ele><time>2026-04-25T09:08:52.978Z</time></trkpt><trkpt lat="45.08099" lon="8.1818917"><ele>250.0</ele><time>2026-04-25T09:08:53.977Z</time></trkpt><trkpt lat="45.08112" lon="8.1819517"><ele>249.5</ele><time>2026-04-25T09:08:54.977Z</time></trkpt><trkpt lat="45.08125" lon="8.1819883"><ele>249.0</ele><time>2026-04-25T09:08:55.978Z</time></trkpt><trkpt lat="45.0813667" lon="8.1819267"><ele>248.5</ele><time>2026-04-25T09:08:56.978Z</time></trkpt><trkpt lat="45.08148" lon="8.1817917"><ele>248.0</ele><time>2026-04-25T09:08:57.978Z</time></trkpt><trkpt lat="45.0815717" lon="8.18162"><ele>245.33333333333334</ele><time>2026-04-25T09:08:58.977Z</time></trkpt><trkpt lat="45.08167" lon="8.1814733"><ele>242.66666666666669</ele><time>2026-04-25T09:08:59.977Z</time></trkpt><trkpt lat="45.0818" lon="8.181355"><ele>240.0</ele><time>2026-04-25T09:09:00.977Z</time></trkpt><trkpt lat="45.081955" lon="8.1812467"><ele>240.0</ele><time>2026-04-25T09:09:01.978Z</time></trkpt><trkpt lat="45.08212" lon="8.181145"><ele>240.0</ele><time>2026-04-25T09:09:02.978Z</time></trkpt><trkpt lat="45.08223" lon="8.1810033"><ele>240.0</ele><time>2026-04-25T09:09:03.978Z</time></trkpt><trkpt lat="45.0823133" lon="8.1807883"><ele>237.66666666666669</ele><time>2026-04-25T09:09:04.977Z</time></trkpt><trkpt lat="45.08239" lon="8.1805133"><ele>235.33333333333334</ele><time>2026-04-25T09:09:05.977Z</time></trkpt><trkpt lat="45.0824433" lon="8.1802317"><ele>233.0</ele><time>2026-04-25T09:09:06.977Z</time></trkpt><trkpt lat="45.0824967" lon="8.1799783"><ele>229.75</ele><time>2026-04-25T09:09:07.977Z</time></trkpt><trkpt lat="45.08257" lon="8.1797817"><ele>226.5</ele><time>2026-04-25T09:09:08.977Z</time></trkpt><trkpt lat="45.0826683" lon="8.1796567"><ele>223.25</ele><time>2026-04-25T09:09:09.977Z</time></trkpt><trkpt lat="45.0827967" lon="8.1795833"><ele>220.0</ele><time>2026-04-25T09:09:10.977Z</time></trkpt><trkpt lat="45.0829367" lon="8.1795433"><ele>220.0</ele><time>2026-04-25T09:09:11.977Z</time></trkpt><trkpt lat="45.08308" lon="8.1795233"><ele>220.0</ele><time>2026-04-25T09:09:12.977Z</time></trkpt><trkpt lat="45.08321" lon="8.1795833"><ele>220.0</ele><time>2026-04-25T09:09:13.977Z</time></trkpt><trkpt lat="45.0833383" lon="8.17972"><ele>220.0</ele><time>2026-04-25T09:09:14.978Z</time></trkpt><trkpt lat="45.083465" lon="8.179895"><ele>223.33333333333331</ele><time>2026-04-25T09:09:15.977Z</time></trkpt><trkpt lat="45.0835833" lon="8.1800617"><ele>226.66666666666669</ele><time>2026-04-25T09:09:16.977Z</time></trkpt><trkpt lat="45.083675" lon="8.1802333"><ele>230.0</ele><time>2026-04-25T09:09:17.977Z</time></trkpt><trkpt lat="45.08372" lon="8.1804083"><ele>230.0</ele><time>2026-04-25T09:09:18.977Z</time></trkpt><trkpt lat="45.0837083" lon="8.180565"><ele>230.0</ele><time>2026-04-25T09:09:19.978Z</time></trkpt><trkpt lat="45.0836417" lon="8.1807367"><ele>230.0</ele><time>2026-04-25T09:09:20.978Z</time></trkpt><trkpt lat="45.0835667" lon="8.1809"><ele>230.0</ele><time>2026-04-25T09:09:21.977Z</time></trkpt><trkpt lat="45.0835433" lon="8.181055"><ele>230.6</ele><time>2026-04-25T09:09:22.977Z</time></trkpt><trkpt lat="45.08358" lon="8.18122"><ele>231.2</ele><time>2026-04-25T09:09:23.977Z</time></trkpt><trkpt lat="45.0836667" lon="8.1813367"><ele>231.8</ele><time>2026-04-25T09:09:24.977Z</time></trkpt><trkpt lat="45.08376" lon="8.1813867"><ele>232.4</ele><time>2026-04-25T09:09:25.977Z</time></trkpt><trkpt lat="45.0838583" lon="8.181385"><ele>233.0</ele><time>2026-04-25T09:09:26.977Z</time></trkpt><trkpt lat="45.08394" lon="8.1812983"><ele>233.0</ele><time>2026-04-25T09:09:27.978Z</time></trkpt><trkpt lat="45.084005" lon="8.1811383"><ele>233.0</ele><time>2026-04-25T09:09:28.977Z</time></trkpt><trkpt lat="45.0840483" lon="8.1809633"><ele>233.0</ele><time>2026-04-25T09:09:29.977Z</time></trkpt><trkpt lat="45.0840917" lon="8.1807817"><ele>233.0</ele><time>2026-04-25T09:09:30.978Z</time></trkpt><trkpt lat="45.0841533" lon="8.180685"><ele>229.60000000000002</ele><time>2026-04-25T09:09:31.978Z</time></trkpt><trkpt lat="45.0842283" lon="8.1806633"><ele>226.20000000000002</ele><time>2026-04-25T09:09:32.977Z</time></trkpt><trkpt lat="45.0843083" lon="8.1807283"><ele>222.8</ele><time>2026-04-25T09:09:33.977Z</time></trkpt><trkpt lat="45.0843783" lon="8.18086"><ele>219.4</ele><time>2026-04-25T09:09:34.977Z</time></trkpt><trkpt lat="45.0844283" lon="8.1810717"><ele>216.0</ele><time>2026-04-25T09:09:35.978Z</time></trkpt><trkpt lat="45.0844617" lon="8.1813183"><ele>216.25</ele><time>2026-04-25T09:09:36.978Z</time></trkpt><trkpt lat="45.0845033" lon="8.1815367"><ele>216.5</ele><time>2026-04-25T09:09:37.977Z</time></trkpt><trkpt lat="45.084585" lon="8.181715"><ele>216.75</ele><time>2026-04-25T09:09:38.977Z</time></trkpt><trkpt lat="45.0846817" lon="8.1818033"><ele>217.0</ele><time>2026-04-25T09:09:39.977Z</time></trkpt><trkpt lat="45.084815" lon="8.1818317"><ele>214.0</ele><time>2026-04-25T09:09:40.977Z</time></trkpt><trkpt lat="45.0849633" lon="8.1818"><ele>211.0</ele><time>2026-04-25T09:09:41.978Z</time></trkpt><trkpt lat="45.0851233" lon="8.181675"><ele>208.0</ele><time>2026-04-25T09:09:42.977Z</time></trkpt><trkpt lat="45.08528" lon="8.1815067"><ele>206.33333333333331</ele><time>2026-04-25T09:09:43.977Z</time></trkpt><trkpt lat="45.0854333" lon="8.1813067"><ele>204.66666666666669</ele><time>2026-04-25T09:09:44.978Z</time></trkpt><trkpt lat="45.0855633" lon="8.181045"><ele>203.0</ele><time>2026-04-25T09:09:45.977Z</time></trkpt><trkpt lat="45.085695" lon="8.18074"><ele>200.0</ele><time>2026-04-25T09:09:46.978Z</time></trkpt><trkpt lat="45.0858367" lon="8.18043"><ele>197.0</ele><time>2026-04-25T09:09:47.978Z</time></trkpt><trkpt lat="45.0859683" lon="8.18011"><ele>196.5</ele><time>2026-04-25T09:09:48.977Z</time></trkpt><trkpt lat="45.086105" lon="8.1797917"><ele>196.0</ele><time>2026-04-25T09:09:49.977Z</time></trkpt><trkpt lat="45.0862317" lon="8.1794817"><ele>196.0</ele><time>2026-04-25T09:09:50.978Z</time></trkpt><trkpt lat="45.0863533" lon="8.1791783"><ele>196.0</ele><time>2026-04-25T09:09:51.978Z</time></trkpt><trkpt lat="45.08647" lon="8.17888"><ele>196.0</ele><time>2026-04-25T09:09:52.978Z</time></trkpt><trkpt lat="45.0865983" lon="8.17859"><ele>196.0</ele><time>2026-04-25T09:09:53.978Z</time></trkpt><trkpt lat="45.0867267" lon="8.1783067"><ele>196.0</ele><time>2026-04-25T09:09:54.977Z</time></trkpt><trkpt lat="45.0868333" lon="8.178035"><ele>196.0</ele><time>2026-04-25T09:09:55.977Z</time></trkpt><trkpt lat="45.08695" lon="8.1777883"><ele>196.0</ele><time>2026-04-25T09:09:56.978Z</time></trkpt><trkpt lat="45.087065" lon="8.177545"><ele>196.33333333333331</ele><time>2026-04-25T09:09:57.977Z</time></trkpt><trkpt lat="45.0871767" lon="8.17732"><ele>196.66666666666669</ele><time>2026-04-25T09:09:58.978Z</time></trkpt><trkpt lat="45.0872617" lon="8.1770883"><ele>197.0</ele><time>2026-04-25T09:09:59.977Z</time></trkpt><trkpt lat="45.0873367" lon="8.1769083"><ele>197.0</ele><time>2026-04-25T09:10:00.977Z</time></trkpt><trkpt lat="45.0874017" lon="8.17676"><ele>197.0</ele><time>2026-04-25T09:10:01.978Z</time></trkpt><trkpt lat="45.0874533" lon="8.1766517"><ele>197.0</ele><time>2026-04-25T09:10:02.977Z</time></trkpt><trkpt lat="45.0874917" lon="8.17658"><ele>197.0</ele><time>2026-04-25T09:10:03.977Z</time></trkpt><trkpt lat="45.0875533" lon="8.1764733"><ele>197.0</ele><time>2026-04-25T09:10:05.978Z</time></trkpt><trkpt lat="45.087655" lon="8.1765433"><ele>197.5</ele><time>2026-04-25T09:10:08.978Z</time></trkpt><trkpt lat="45.0877167" lon="8.176625"><ele>198.0</ele><time>2026-04-25T09:10:09.977Z</time></trkpt><trkpt lat="45.08779" lon="8.176725"><ele>198.5</ele><time>2026-04-25T09:10:10.978Z</time></trkpt><trkpt lat="45.0878867" lon="8.1768433"><ele>199.0</ele><time>2026-04-25T09:10:11.977Z</time></trkpt><trkpt lat="45.0879833" lon="8.176995"><ele>199.0</ele><time>2026-04-25T09:10:12.978Z</time></trkpt><trkpt lat="45.088085" lon="8.1771633"><ele>199.0</ele><time>2026-04-25T09:10:13.978Z</time></trkpt><trkpt lat="45.0882017" lon="8.1773267"><ele>199.0</ele><time>2026-04-25T09:10:14.978Z</time></trkpt><trkpt lat="45.08833" lon="8.1774883"><ele>198.33333333333331</ele><time>2026-04-25T09:10:15.977Z</time></trkpt><trkpt lat="45.088465" lon="8.1776567"><ele>197.66666666666669</ele><time>2026-04-25T09:10:16.978Z</time></trkpt><trkpt lat="45.0886017" lon="8.177815"><ele>197.0</ele><time>2026-04-25T09:10:17.977Z</time></trkpt><trkpt lat="45.0887283" lon="8.1779617"><ele>197.0</ele><time>2026-04-25T09:10:18.977Z</time></trkpt><trkpt lat="45.0888567" lon="8.178125"><ele>197.0</ele><time>2026-04-25T09:10:19.978Z</time></trkpt><trkpt lat="45.0889783" lon="8.1782767"><ele>197.0</ele><time>2026-04-25T09:10:20.977Z</time></trkpt><trkpt lat="45.0890867" lon="8.1784233"><ele>197.0</ele><time>2026-04-25T09:10:21.977Z</time></trkpt><trkpt lat="45.0892017" lon="8.1785633"><ele>197.0</ele><time>2026-04-25T09:10:22.977Z</time></trkpt><trkpt lat="45.0893233" lon="8.1787167"><ele>197.0</ele><time>2026-04-25T09:10:23.978Z</time></trkpt><trkpt lat="45.0894517" lon="8.1788867"><ele>196.66666666666669</ele><time>2026-04-25T09:10:24.977Z</time></trkpt><trkpt lat="45.0895833" lon="8.1790583"><ele>196.33333333333331</ele><time>2026-04-25T09:10:25.978Z</time></trkpt><trkpt lat="45.089715" lon="8.1792433"><ele>196.0</ele><time>2026-04-25T09:10:26.978Z</time></trkpt><trkpt lat="45.0898567" lon="8.179425"><ele>195.66666666666666</ele><time>2026-04-25T09:10:27.977Z</time></trkpt><trkpt lat="45.08999" lon="8.1796083"><ele>195.33333333333331</ele><time>2026-04-25T09:10:28.977Z</time></trkpt><trkpt lat="45.09012" lon="8.1797733"><ele>195.0</ele><time>2026-04-25T09:10:29.977Z</time></trkpt><trkpt lat="45.090245" lon="8.1799283"><ele>194.75</ele><time>2026-04-25T09:10:30.978Z</time></trkpt><trkpt lat="45.0903583" lon="8.1800633"><ele>194.5</ele><time>2026-04-25T09:10:31.977Z</time></trkpt><trkpt lat="45.0904683" lon="8.1801967"><ele>194.25</ele><time>2026-04-25T09:10:32.978Z</time></trkpt><trkpt lat="45.0905733" lon="8.1803383"><ele>194.0</ele><time>2026-04-25T09:10:33.977Z</time></trkpt><trkpt lat="45.0906883" lon="8.1804883"><ele>193.66666666666669</ele><time>2026-04-25T09:10:34.977Z</time></trkpt><trkpt lat="45.0908017" lon="8.180645"><ele>193.33333333333331</ele><time>2026-04-25T09:10:35.978Z</time></trkpt><trkpt lat="45.090925" lon="8.1808167"><ele>193.0</ele><time>2026-04-25T09:10:36.978Z</time></trkpt><trkpt lat="45.0910517" lon="8.1809933"><ele>192.66666666666666</ele><time>2026-04-25T09:10:37.977Z</time></trkpt><trkpt lat="45.0911917" lon="8.1811633"><ele>192.33333333333331</ele><time>2026-04-25T09:10:38.977Z</time></trkpt><trkpt lat="45.0913283" lon="8.1813317"><ele>192.0</ele><time>2026-04-25T09:10:39.977Z</time></trkpt><trkpt lat="45.0914633" lon="8.18151"><ele>193.0</ele><time>2026-04-25T09:10:40.977Z</time></trkpt><trkpt lat="45.0916133" lon="8.181695"><ele>194.0</ele><time>2026-04-25T09:10:41.977Z</time></trkpt><trkpt lat="45.0917633" lon="8.18188"><ele>195.0</ele><time>2026-04-25T09:10:42.977Z</time></trkpt><trkpt lat="45.0919117" lon="8.1820817"><ele>195.0</ele><time>2026-04-25T09:10:43.977Z</time></trkpt><trkpt lat="45.0920633" lon="8.1822833"><ele>195.0</ele><time>2026-04-25T09:10:44.977Z</time></trkpt><trkpt lat="45.0922133" lon="8.1824767"><ele>195.0</ele><time>2026-04-25T09:10:45.977Z</time></trkpt><trkpt lat="45.0923667" lon="8.1826683"><ele>194.33333333333331</ele><time>2026-04-25T09:10:46.978Z</time></trkpt><trkpt lat="45.0925183" lon="8.1828633"><ele>193.66666666666666</ele><time>2026-04-25T09:10:47.977Z</time></trkpt><trkpt lat="45.0926733" lon="8.1830683"><ele>193.0</ele><time>2026-04-25T09:10:48.977Z</time></trkpt><trkpt lat="45.0928283" lon="8.183265"><ele>193.0</ele><time>2026-04-25T09:10:49.977Z</time></trkpt><trkpt lat="45.09298" lon="8.1834617"><ele>193.0</ele><time>2026-04-25T09:10:50.977Z</time></trkpt><trkpt lat="45.09313" lon="8.1836533"><ele>193.0</ele><time>2026-04-25T09:10:51.977Z</time></trkpt><trkpt lat="45.0932817" lon="8.18385"><ele>192.0</ele><time>2026-04-25T09:10:52.977Z</time></trkpt><trkpt lat="45.0934367" lon="8.18405"><ele>191.0</ele><time>2026-04-25T09:10:53.977Z</time></trkpt><trkpt lat="45.0935867" lon="8.1842433"><ele>190.0</ele><time>2026-04-25T09:10:54.977Z</time></trkpt><trkpt lat="45.0937283" lon="8.18442"><ele>190.0</ele><time>2026-04-25T09:10:55.977Z</time></trkpt><trkpt lat="45.093855" lon="8.1845867"><ele>190.0</ele><time>2026-04-25T09:10:56.977Z</time></trkpt><trkpt lat="45.0939767" lon="8.18475"><ele>190.0</ele><time>2026-04-25T09:10:57.977Z</time></trkpt><trkpt lat="45.0940867" lon="8.1849033"><ele>190.33333333333334</ele><time>2026-04-25T09:10:58.977Z</time></trkpt><trkpt lat="45.0942" lon="8.1850417"><ele>190.66666666666666</ele><time>2026-04-25T09:10:59.978Z</time></trkpt><trkpt lat="45.0943033" lon="8.1852"><ele>191.0</ele><time>2026-04-25T09:11:00.977Z</time></trkpt><trkpt lat="45.0944217" lon="8.1853717"><ele>191.0</ele><time>2026-04-25T09:11:01.977Z</time></trkpt><trkpt lat="45.0945517" lon="8.18552"><ele>191.0</ele><time>2026-04-25T09:11:02.977Z</time></trkpt><trkpt lat="45.09468" lon="8.1856867"><ele>191.0</ele><time>2026-04-25T09:11:03.978Z</time></trkpt><trkpt lat="45.0948217" lon="8.185865"><ele>191.33333333333331</ele><time>2026-04-25T09:11:04.978Z</time></trkpt><trkpt lat="45.0949817" lon="8.18606"><ele>191.66666666666666</ele><time>2026-04-25T09:11:05.977Z</time></trkpt><trkpt lat="45.09515" lon="8.1862683"><ele>192.0</ele><time>2026-04-25T09:11:06.977Z</time></trkpt><trkpt lat="45.095315" lon="8.186465"><ele>192.5</ele><time>2026-04-25T09:11:07.978Z</time></trkpt><trkpt lat="45.095485" lon="8.186685"><ele>193.0</ele><time>2026-04-25T09:11:08.978Z</time></trkpt><trkpt lat="45.0956667" lon="8.1869217"><ele>193.5</ele><time>2026-04-25T09:11:09.978Z</time></trkpt><trkpt lat="45.095845" lon="8.18715"><ele>194.0</ele><time>2026-04-25T09:11:10.977Z</time></trkpt><trkpt lat="45.0960283" lon="8.18738"><ele>191.5</ele><time>2026-04-25T09:11:11.977Z</time></trkpt><trkpt lat="45.0962133" lon="8.18762"><ele>189.0</ele><time>2026-04-25T09:11:12.978Z</time></trkpt><trkpt lat="45.096395" lon="8.1878583"><ele>189.0</ele><time>2026-04-25T09:11:13.977Z</time></trkpt><trkpt lat="45.0965767" lon="8.1880867"><ele>189.0</ele><time>2026-04-25T09:11:14.978Z</time></trkpt><trkpt lat="45.0967567" lon="8.1883233"><ele>190.0</ele><time>2026-04-25T09:11:15.978Z</time></trkpt><trkpt lat="45.0969333" lon="8.1885783"><ele>191.0</ele><time>2026-04-25T09:11:16.977Z</time></trkpt><trkpt lat="45.0971183" lon="8.188805"><ele>191.0</ele><time>2026-04-25T09:11:17.977Z</time></trkpt><trkpt lat="45.0973" lon="8.1890517"><ele>191.0</ele><time>2026-04-25T09:11:18.977Z</time></trkpt><trkpt lat="45.097475" lon="8.1892983"><ele>191.0</ele><time>2026-04-25T09:11:19.977Z</time></trkpt><trkpt lat="45.0976617" lon="8.18952"><ele>191.0</ele><time>2026-04-25T09:11:20.977Z</time></trkpt><trkpt lat="45.097845" lon="8.18975"><ele>190.0</ele><time>2026-04-25T09:11:21.978Z</time></trkpt><trkpt lat="45.0980267" lon="8.1899833"><ele>189.0</ele><time>2026-04-25T09:11:22.978Z</time></trkpt><trkpt lat="45.098215" lon="8.1902217"><ele>189.0</ele><time>2026-04-25T09:11:23.978Z</time></trkpt><trkpt lat="45.0984" lon="8.190455"><ele>189.0</ele><time>2026-04-25T09:11:24.977Z</time></trkpt><trkpt lat="45.0985717" lon="8.1906933"><ele>189.0</ele><time>2026-04-25T09:11:25.977Z</time></trkpt><trkpt lat="45.0987533" lon="8.1909283"><ele>189.0</ele><time>2026-04-25T09:11:26.978Z</time></trkpt><trkpt lat="45.098935" lon="8.1911517"><ele>189.5</ele><time>2026-04-25T09:11:27.977Z</time></trkpt><trkpt lat="45.09912" lon="8.1913867"><ele>190.0</ele><time>2026-04-25T09:11:28.978Z</time></trkpt><trkpt lat="45.0993033" lon="8.1916133"><ele>189.0</ele><time>2026-04-25T09:11:29.978Z</time></trkpt><trkpt lat="45.09948" lon="8.1918567"><ele>188.0</ele><time>2026-04-25T09:11:30.977Z</time></trkpt><trkpt lat="45.09966" lon="8.1920967"><ele>188.0</ele><time>2026-04-25T09:11:31.977Z</time></trkpt><trkpt lat="45.0998467" lon="8.1923283"><ele>188.0</ele><time>2026-04-25T09:11:32.978Z</time></trkpt><trkpt lat="45.1000333" lon="8.1925667"><ele>186.5</ele><time>2026-04-25T09:11:33.977Z</time></trkpt><trkpt lat="45.1002083" lon="8.1928017"><ele>185.0</ele><time>2026-04-25T09:11:34.977Z</time></trkpt><trkpt lat="45.100395" lon="8.1930383"><ele>185.0</ele><time>2026-04-25T09:11:35.978Z</time></trkpt><trkpt lat="45.1005733" lon="8.19327"><ele>185.0</ele><time>2026-04-25T09:11:36.977Z</time></trkpt><trkpt lat="45.1007517" lon="8.1935083"><ele>186.5</ele><time>2026-04-25T09:11:37.977Z</time></trkpt><trkpt lat="45.10093" lon="8.1937367"><ele>188.0</ele><time>2026-04-25T09:11:38.978Z</time></trkpt><trkpt lat="45.1011117" lon="8.1939833"><ele>186.5</ele><time>2026-04-25T09:11:39.978Z</time></trkpt><trkpt lat="45.1012983" lon="8.1942233"><ele>185.0</ele><time>2026-04-25T09:11:40.978Z</time></trkpt><trkpt lat="45.1014817" lon="8.194475"><ele>185.5</ele><time>2026-04-25T09:11:41.977Z</time></trkpt><trkpt lat="45.101655" lon="8.19471"><ele>186.0</ele><time>2026-04-25T09:11:42.978Z</time></trkpt><trkpt lat="45.1018283" lon="8.19495"><ele>186.0</ele><time>2026-04-25T09:11:43.978Z</time></trkpt><trkpt lat="45.10202" lon="8.19517"><ele>186.0</ele><time>2026-04-25T09:11:44.977Z</time></trkpt><trkpt lat="45.1022117" lon="8.1954133"><ele>186.0</ele><time>2026-04-25T09:11:45.977Z</time></trkpt><trkpt lat="45.1023967" lon="8.19565"><ele>186.0</ele><time>2026-04-25T09:11:46.977Z</time></trkpt><trkpt lat="45.10258" lon="8.1958867"><ele>184.0</ele><time>2026-04-25T09:11:47.977Z</time></trkpt><trkpt lat="45.1027683" lon="8.1961217"><ele>182.0</ele><time>2026-04-25T09:11:48.978Z</time></trkpt><trkpt lat="45.1029583" lon="8.1963683"><ele>183.0</ele><time>2026-04-25T09:11:49.977Z</time></trkpt><trkpt lat="45.103145" lon="8.1966133"><ele>184.0</ele><time>2026-04-25T09:11:50.977Z</time></trkpt><trkpt lat="45.1033317" lon="8.1968567"><ele>184.5</ele><time>2026-04-25T09:11:51.977Z</time></trkpt><trkpt lat="45.10352" lon="8.1971067"><ele>185.0</ele><time>2026-04-25T09:11:52.978Z</time></trkpt><trkpt lat="45.1037133" lon="8.1973433"><ele>185.0</ele><time>2026-04-25T09:11:53.977Z</time></trkpt><trkpt lat="45.103895" lon="8.197595"><ele>185.0</ele><time>2026-04-25T09:11:54.977Z</time></trkpt><trkpt lat="45.10407" lon="8.1978433"><ele>184.0</ele><time>2026-04-25T09:11:55.978Z</time></trkpt><trkpt lat="45.1042583" lon="8.1980783"><ele>183.0</ele><time>2026-04-25T09:11:56.977Z</time></trkpt><trkpt lat="45.10444" lon="8.198335"><ele>181.5</ele><time>2026-04-25T09:11:57.977Z</time></trkpt><trkpt lat="45.1046283" lon="8.1985717"><ele>180.0</ele><time>2026-04-25T09:11:58.977Z</time></trkpt><trkpt lat="45.1048217" lon="8.1988067"><ele>181.0</ele><time>2026-04-25T09:11:59.977Z</time></trkpt><trkpt lat="45.105015" lon="8.1990467"><ele>182.0</ele><time>2026-04-25T09:12:00.978Z</time></trkpt><trkpt lat="45.1052033" lon="8.1993"><ele>182.0</ele><time>2026-04-25T09:12:01.977Z</time></trkpt><trkpt lat="45.105395" lon="8.1995383"><ele>182.0</ele><time>2026-04-25T09:12:02.977Z</time></trkpt><trkpt lat="45.1055783" lon="8.1997717"><ele>181.0</ele><time>2026-04-25T09:12:03.977Z</time></trkpt><trkpt lat="45.1057633" lon="8.199995"><ele>180.0</ele><time>2026-04-25T09:12:04.977Z</time></trkpt><trkpt lat="45.1059417" lon="8.20022"><ele>180.0</ele><time>2026-04-25T09:12:05.977Z</time></trkpt><trkpt lat="45.1061167" lon="8.2004533"><ele>180.0</ele><time>2026-04-25T09:12:06.977Z</time></trkpt><trkpt lat="45.10629" lon="8.2006817"><ele>180.0</ele><time>2026-04-25T09:12:07.978Z</time></trkpt><trkpt lat="45.1064633" lon="8.2009033"><ele>180.0</ele><time>2026-04-25T09:12:08.977Z</time></trkpt><trkpt lat="45.1066433" lon="8.201135"><ele>179.5</ele><time>2026-04-25T09:12:09.977Z</time></trkpt><trkpt lat="45.1068167" lon="8.201355"><ele>179.0</ele><time>2026-04-25T09:12:10.977Z</time></trkpt><trkpt lat="45.1069817" lon="8.2015733"><ele>178.0</ele><time>2026-04-25T09:12:11.977Z</time></trkpt><trkpt lat="45.1071483" lon="8.2018017"><ele>177.0</ele><time>2026-04-25T09:12:12.977Z</time></trkpt><trkpt lat="45.10732" lon="8.2020267"><ele>177.0</ele><time>2026-04-25T09:12:13.977Z</time></trkpt><trkpt lat="45.107495" lon="8.2022517"><ele>177.0</ele><time>2026-04-25T09:12:14.977Z</time></trkpt><trkpt lat="45.1076667" lon="8.2024683"><ele>177.0</ele><time>2026-04-25T09:12:15.977Z</time></trkpt><trkpt lat="45.1078383" lon="8.2026767"><ele>177.0</ele><time>2026-04-25T09:12:16.977Z</time></trkpt><trkpt lat="45.1080083" lon="8.2028933"><ele>177.0</ele><time>2026-04-25T09:12:17.977Z</time></trkpt><trkpt lat="45.1081767" lon="8.203115"><ele>177.0</ele><time>2026-04-25T09:12:18.977Z</time></trkpt><trkpt lat="45.10834" lon="8.2033367"><ele>174.5</ele><time>2026-04-25T09:12:19.977Z</time></trkpt><trkpt lat="45.108515" lon="8.203555"><ele>172.0</ele><time>2026-04-25T09:12:20.977Z</time></trkpt><trkpt lat="45.1086883" lon="8.2037767"><ele>172.0</ele><time>2026-04-25T09:12:21.977Z</time></trkpt><trkpt lat="45.1088567" lon="8.2039817"><ele>172.0</ele><time>2026-04-25T09:12:22.977Z</time></trkpt><trkpt lat="45.1090283" lon="8.2042117"><ele>172.5</ele><time>2026-04-25T09:12:23.977Z</time></trkpt><trkpt lat="45.1091933" lon="8.204445"><ele>173.0</ele><time>2026-04-25T09:12:24.978Z</time></trkpt><trkpt lat="45.1093517" lon="8.204665"><ele>173.0</ele><time>2026-04-25T09:12:25.977Z</time></trkpt><trkpt lat="45.1095" lon="8.20492"><ele>173.0</ele><time>2026-04-25T09:12:26.977Z</time></trkpt><trkpt lat="45.10962" lon="8.2051917"><ele>173.0</ele><time>2026-04-25T09:12:27.977Z</time></trkpt><trkpt lat="45.109735" lon="8.2054683"><ele>173.0</ele><time>2026-04-25T09:12:28.977Z</time></trkpt><trkpt lat="45.1098217" lon="8.2057783"><ele>172.5</ele><time>2026-04-25T09:12:29.977Z</time></trkpt><trkpt lat="45.10989" lon="8.2060933"><ele>172.0</ele><time>2026-04-25T09:12:30.977Z</time></trkpt><trkpt lat="45.1099567" lon="8.206405"><ele>172.66666666666669</ele><time>2026-04-25T09:12:31.977Z</time></trkpt><trkpt lat="45.10999" lon="8.2067033"><ele>173.33333333333334</ele><time>2026-04-25T09:12:32.977Z</time></trkpt><trkpt lat="45.1100433" lon="8.2070183"><ele>174.0</ele><time>2026-04-25T09:12:33.977Z</time></trkpt><trkpt lat="45.11012" lon="8.2073217"><ele>173.66666666666666</ele><time>2026-04-25T09:12:34.978Z</time></trkpt><trkpt lat="45.1102183" lon="8.2076017"><ele>173.33333333333331</ele><time>2026-04-25T09:12:35.977Z</time></trkpt><trkpt lat="45.1103467" lon="8.2078683"><ele>173.0</ele><time>2026-04-25T09:12:36.978Z</time></trkpt><trkpt lat="45.1104717" lon="8.2081083"><ele>173.0</ele><time>2026-04-25T09:12:37.977Z</time></trkpt><trkpt lat="45.11062" lon="8.2083267"><ele>173.0</ele><time>2026-04-25T09:12:38.978Z</time></trkpt><trkpt lat="45.1107817" lon="8.2085333"><ele>173.0</ele><time>2026-04-25T09:12:39.977Z</time></trkpt><trkpt lat="45.1109467" lon="8.20873"><ele>172.33333333333331</ele><time>2026-04-25T09:12:40.977Z</time></trkpt><trkpt lat="45.111115" lon="8.2089283"><ele>171.66666666666666</ele><time>2026-04-25T09:12:41.978Z</time></trkpt><trkpt lat="45.111305" lon="8.2091133"><ele>171.0</ele><time>2026-04-25T09:12:42.977Z</time></trkpt><trkpt lat="45.1114817" lon="8.209315"><ele>171.33333333333334</ele><time>2026-04-25T09:12:43.977Z</time></trkpt><trkpt lat="45.11165" lon="8.2094917"><ele>171.66666666666669</ele><time>2026-04-25T09:12:44.978Z</time></trkpt><trkpt lat="45.111815" lon="8.2096567"><ele>172.0</ele><time>2026-04-25T09:12:45.978Z</time></trkpt><trkpt lat="45.1119617" lon="8.2098033"><ele>171.33333333333334</ele><time>2026-04-25T09:12:46.977Z</time></trkpt><trkpt lat="45.1121017" lon="8.2099533"><ele>170.66666666666666</ele><time>2026-04-25T09:12:47.977Z</time></trkpt><trkpt lat="45.112235" lon="8.210085"><ele>170.0</ele><time>2026-04-25T09:12:48.977Z</time></trkpt><trkpt lat="45.11237" lon="8.2102167"><ele>170.0</ele><time>2026-04-25T09:12:49.977Z</time></trkpt><trkpt lat="45.112495" lon="8.210355"><ele>170.0</ele><time>2026-04-25T09:12:50.978Z</time></trkpt><trkpt lat="45.1126233" lon="8.2105017"><ele>170.0</ele><time>2026-04-25T09:12:51.977Z</time></trkpt><trkpt lat="45.1127517" lon="8.210635"><ele>169.75</ele><time>2026-04-25T09:12:52.977Z</time></trkpt><trkpt lat="45.1128683" lon="8.2107617"><ele>169.5</ele><time>2026-04-25T09:12:53.978Z</time></trkpt><trkpt lat="45.112975" lon="8.21089"><ele>169.25</ele><time>2026-04-25T09:12:54.977Z</time></trkpt><trkpt lat="45.1130767" lon="8.21101"><ele>169.0</ele><time>2026-04-25T09:12:55.978Z</time></trkpt><trkpt lat="45.11318" lon="8.2111083"><ele>169.75</ele><time>2026-04-25T09:12:56.977Z</time></trkpt><trkpt lat="45.1132733" lon="8.2112183"><ele>170.5</ele><time>2026-04-25T09:12:57.977Z</time></trkpt><trkpt lat="45.1133867" lon="8.2113117"><ele>171.25</ele><time>2026-04-25T09:12:58.977Z</time></trkpt><trkpt lat="45.1134733" lon="8.211425"><ele>172.0</ele><time>2026-04-25T09:12:59.977Z</time></trkpt><trkpt lat="45.11357" lon="8.2115533"><ele>172.25</ele><time>2026-04-25T09:13:00.977Z</time></trkpt><trkpt lat="45.11367" lon="8.2116783"><ele>172.5</ele><time>2026-04-25T09:13:01.977Z</time></trkpt><trkpt lat="45.113765" lon="8.2118"><ele>172.75</ele><time>2026-04-25T09:13:02.978Z</time></trkpt><trkpt lat="45.1138667" lon="8.211915"><ele>173.0</ele><time>2026-04-25T09:13:03.978Z</time></trkpt><trkpt lat="45.11397" lon="8.2120167"><ele>172.75</ele><time>2026-04-25T09:13:04.978Z</time></trkpt><trkpt lat="45.114075" lon="8.2121333"><ele>172.5</ele><time>2026-04-25T09:13:05.977Z</time></trkpt><trkpt lat="45.1141967" lon="8.2122267"><ele>172.25</ele><time>2026-04-25T09:13:06.977Z</time></trkpt><trkpt lat="45.1142867" lon="8.212355"><ele>172.0</ele><time>2026-04-25T09:13:07.978Z</time></trkpt><trkpt lat="45.1143783" lon="8.212455"><ele>171.6</ele><time>2026-04-25T09:13:08.977Z</time></trkpt><trkpt lat="45.1144633" lon="8.2125467"><ele>171.2</ele><time>2026-04-25T09:13:09.978Z</time></trkpt><trkpt lat="45.1145483" lon="8.2126083"><ele>170.8</ele><time>2026-04-25T09:13:10.977Z</time></trkpt><trkpt lat="45.1146133" lon="8.2126733"><ele>170.4</ele><time>2026-04-25T09:13:11.976Z</time></trkpt><trkpt lat="45.11467" lon="8.2127333"><ele>170.0</ele><time>2026-04-25T09:13:12.977Z</time></trkpt><trkpt lat="45.1147733" lon="8.2127433"><ele>170.0</ele><time>2026-04-25T09:13:14.977Z</time></trkpt><trkpt lat="45.1148367" lon="8.21271"><ele>170.0</ele><time>2026-04-25T09:13:15.977Z</time></trkpt><trkpt lat="45.1149383" lon="8.2126383"><ele>170.0</ele><time>2026-04-25T09:13:16.976Z</time></trkpt><trkpt lat="45.115055" lon="8.2125417"><ele>170.0</ele><time>2026-04-25T09:13:17.976Z</time></trkpt><trkpt lat="45.1151933" lon="8.21247"><ele>171.0</ele><time>2026-04-25T09:13:18.976Z</time></trkpt><trkpt lat="45.1153333" lon="8.2123867"><ele>172.0</ele><time>2026-04-25T09:13:19.976Z</time></trkpt><trkpt lat="45.1154917" lon="8.2122983"><ele>173.0</ele><time>2026-04-25T09:13:20.977Z</time></trkpt><trkpt lat="45.11565" lon="8.2122117"><ele>175.0</ele><time>2026-04-25T09:13:21.976Z</time></trkpt><trkpt lat="45.115815" lon="8.2121233"><ele>177.0</ele><time>2026-04-25T09:13:22.977Z</time></trkpt><trkpt lat="45.1159967" lon="8.2120333"><ele>179.0</ele><time>2026-04-25T09:13:23.977Z</time></trkpt><trkpt lat="45.1161867" lon="8.21194"><ele>179.0</ele><time>2026-04-25T09:13:24.977Z</time></trkpt><trkpt lat="45.11637" lon="8.2118467"><ele>179.0</ele><time>2026-04-25T09:13:25.976Z</time></trkpt><trkpt lat="45.116555" lon="8.2117567"><ele>179.0</ele><time>2026-04-25T09:13:26.976Z</time></trkpt><trkpt lat="45.1167367" lon="8.21167"><ele>180.33333333333331</ele><time>2026-04-25T09:13:27.977Z</time></trkpt><trkpt lat="45.11691" lon="8.2115817"><ele>181.66666666666666</ele><time>2026-04-25T09:13:28.977Z</time></trkpt><trkpt lat="45.1170833" lon="8.2114933"><ele>183.0</ele><time>2026-04-25T09:13:29.977Z</time></trkpt><trkpt lat="45.11725" lon="8.211405"><ele>185.0</ele><time>2026-04-25T09:13:30.976Z</time></trkpt><trkpt lat="45.1174117" lon="8.2113167"><ele>187.0</ele><time>2026-04-25T09:13:31.976Z</time></trkpt><trkpt lat="45.117565" lon="8.21124"><ele>189.0</ele><time>2026-04-25T09:13:32.976Z</time></trkpt><trkpt lat="45.1177217" lon="8.2111583"><ele>189.0</ele><time>2026-04-25T09:13:33.976Z</time></trkpt><trkpt lat="45.11786" lon="8.21108"><ele>189.0</ele><time>2026-04-25T09:13:34.976Z</time></trkpt><trkpt lat="45.118025" lon="8.211005"><ele>189.0</ele><time>2026-04-25T09:13:35.976Z</time></trkpt><trkpt lat="45.1181967" lon="8.2109433"><ele>187.66666666666666</ele><time>2026-04-25T09:13:36.976Z</time></trkpt><trkpt lat="45.11838" lon="8.2109317"><ele>186.33333333333331</ele><time>2026-04-25T09:13:37.976Z</time></trkpt><trkpt lat="45.1185667" lon="8.210985"><ele>185.0</ele><time>2026-04-25T09:13:38.976Z</time></trkpt><trkpt lat="45.1187367" lon="8.21108"><ele>185.0</ele><time>2026-04-25T09:13:39.976Z</time></trkpt><trkpt lat="45.1189033" lon="8.2111967"><ele>185.0</ele><time>2026-04-25T09:13:40.977Z</time></trkpt><trkpt lat="45.1190583" lon="8.2112717"><ele>185.0</ele><time>2026-04-25T09:13:41.977Z</time></trkpt><trkpt lat="45.1192117" lon="8.2113083"><ele>184.66666666666666</ele><time>2026-04-25T09:13:42.976Z</time></trkpt><trkpt lat="45.11938" lon="8.2113067"><ele>184.33333333333334</ele><time>2026-04-25T09:13:43.977Z</time></trkpt><trkpt lat="45.11955" lon="8.21125"><ele>184.0</ele><time>2026-04-25T09:13:44.977Z</time></trkpt><trkpt lat="45.1197" lon="8.211135"><ele>184.0</ele><time>2026-04-25T09:13:45.976Z</time></trkpt><trkpt lat="45.1198383" lon="8.2109683"><ele>184.0</ele><time>2026-04-25T09:13:46.977Z</time></trkpt><trkpt lat="45.1199417" lon="8.2107683"><ele>184.0</ele><time>2026-04-25T09:13:47.977Z</time></trkpt><trkpt lat="45.1200167" lon="8.2105717"><ele>185.6</ele><time>2026-04-25T09:13:48.976Z</time></trkpt><trkpt lat="45.120075" lon="8.21039"><ele>187.2</ele><time>2026-04-25T09:13:49.976Z</time></trkpt><trkpt lat="45.1201133" lon="8.2102183"><ele>188.79999999999998</ele><time>2026-04-25T09:13:50.977Z</time></trkpt><trkpt lat="45.120165" lon="8.2100917"><ele>190.39999999999998</ele><time>2026-04-25T09:13:51.976Z</time></trkpt><trkpt lat="45.1202217" lon="8.210015"><ele>192.0</ele><time>2026-04-25T09:13:52.976Z</time></trkpt><trkpt lat="45.1202883" lon="8.20997"><ele>192.0</ele><time>2026-04-25T09:13:53.976Z</time></trkpt><trkpt lat="45.120365" lon="8.2099233"><ele>192.0</ele><time>2026-04-25T09:13:54.976Z</time></trkpt><trkpt lat="45.1204433" lon="8.209905"><ele>192.0</ele><time>2026-04-25T09:13:55.976Z</time></trkpt><trkpt lat="45.1205317" lon="8.2099217"><ele>192.0</ele><time>2026-04-25T09:13:56.977Z</time></trkpt><trkpt lat="45.120605" lon="8.209965"><ele>192.0</ele><time>2026-04-25T09:13:57.976Z</time></trkpt><trkpt lat="45.12068" lon="8.2100333"><ele>192.0</ele><time>2026-04-25T09:13:58.977Z</time></trkpt><trkpt lat="45.1207417" lon="8.2101117"><ele>195.25</ele><time>2026-04-25T09:13:59.976Z</time></trkpt><trkpt lat="45.1207617" lon="8.2102717"><ele>198.5</ele><time>2026-04-25T09:14:00.976Z</time></trkpt><trkpt lat="45.120775" lon="8.21044"><ele>201.75</ele><time>2026-04-25T09:14:01.977Z</time></trkpt><trkpt lat="45.1207683" lon="8.2106417"><ele>205.0</ele><time>2026-04-25T09:14:02.976Z</time></trkpt><trkpt lat="45.1207533" lon="8.2108383"><ele>203.0</ele><time>2026-04-25T09:14:03.976Z</time></trkpt><trkpt lat="45.1207183" lon="8.2110733"><ele>201.0</ele><time>2026-04-25T09:14:04.976Z</time></trkpt><trkpt lat="45.1207033" lon="8.2112967"><ele>199.0</ele><time>2026-04-25T09:14:05.977Z</time></trkpt><trkpt lat="45.1206833" lon="8.21152"><ele>199.0</ele><time>2026-04-25T09:14:06.977Z</time></trkpt><trkpt lat="45.1206717" lon="8.2117517"><ele>199.0</ele><time>2026-04-25T09:14:07.976Z</time></trkpt><trkpt lat="45.1206567" lon="8.211975"><ele>199.0</ele><time>2026-04-25T09:14:08.976Z</time></trkpt><trkpt lat="45.1206433" lon="8.2122183"><ele>200.33333333333331</ele><time>2026-04-25T09:14:09.976Z</time></trkpt><trkpt lat="45.1206333" lon="8.21245"><ele>201.66666666666669</ele><time>2026-04-25T09:14:10.976Z</time></trkpt><trkpt lat="45.12061" lon="8.2127017"><ele>203.0</ele><time>2026-04-25T09:14:11.977Z</time></trkpt><trkpt lat="45.1206" lon="8.2129383"><ele>204.25</ele><time>2026-04-25T09:14:12.977Z</time></trkpt><trkpt lat="45.1205833" lon="8.2131583"><ele>205.5</ele><time>2026-04-25T09:14:13.976Z</time></trkpt><trkpt lat="45.120565" lon="8.213375"><ele>206.75</ele><time>2026-04-25T09:14:14.977Z</time></trkpt><trkpt lat="45.1205617" lon="8.21357"><ele>208.0</ele><time>2026-04-25T09:14:15.976Z</time></trkpt><trkpt lat="45.12055" lon="8.213775"><ele>208.0</ele><time>2026-04-25T09:14:16.976Z</time></trkpt><trkpt lat="45.1205417" lon="8.213965"><ele>208.0</ele><time>2026-04-25T09:14:17.976Z</time></trkpt><trkpt lat="45.1205167" lon="8.2141467"><ele>208.0</ele><time>2026-04-25T09:14:18.976Z</time></trkpt><trkpt lat="45.120485" lon="8.2143167"><ele>208.0</ele><time>2026-04-25T09:14:19.977Z</time></trkpt><trkpt lat="45.12046" lon="8.214465"><ele>209.49999999999997</ele><time>2026-04-25T09:14:20.976Z</time></trkpt><trkpt lat="45.1204367" lon="8.2145817"><ele>211.0</ele><time>2026-04-25T09:14:21.976Z</time></trkpt><trkpt lat="45.1204467" lon="8.2146967"><ele>212.5</ele><time>2026-04-25T09:14:22.976Z</time></trkpt><trkpt lat="45.1204817" lon="8.2148033"><ele>214.0</ele><time>2026-04-25T09:14:23.977Z</time></trkpt><trkpt lat="45.120565" lon="8.214865"><ele>215.49999999999997</ele><time>2026-04-25T09:14:24.977Z</time></trkpt><trkpt lat="45.1206267" lon="8.21491"><ele>217.0</ele><time>2026-04-25T09:14:25.977Z</time></trkpt><trkpt lat="45.1207033" lon="8.2149383"><ele>219.0</ele><time>2026-04-25T09:14:27.976Z</time></trkpt><trkpt lat="45.1207933" lon="8.214855"><ele>221.0</ele><time>2026-04-25T09:14:29.976Z</time></trkpt><trkpt lat="45.120845" lon="8.2147717"><ele>223.0</ele><time>2026-04-25T09:14:30.977Z</time></trkpt><trkpt lat="45.1209083" lon="8.2146417"><ele>225.0</ele><time>2026-04-25T09:14:31.976Z</time></trkpt><trkpt lat="45.120955" lon="8.2145"><ele>227.0</ele><time>2026-04-25T09:14:32.976Z</time></trkpt><trkpt lat="45.121005" lon="8.2143483"><ele>227.0</ele><time>2026-04-25T09:14:33.977Z</time></trkpt><trkpt lat="45.1210617" lon="8.214185"><ele>227.0</ele><time>2026-04-25T09:14:34.977Z</time></trkpt><trkpt lat="45.1211233" lon="8.2139967"><ele>227.0</ele><time>2026-04-25T09:14:35.976Z</time></trkpt><trkpt lat="45.1212067" lon="8.2138067"><ele>227.0</ele><time>2026-04-25T09:14:36.976Z</time></trkpt><trkpt lat="45.121285" lon="8.2135817"><ele>226.0</ele><time>2026-04-25T09:14:37.976Z</time></trkpt><trkpt lat="45.1213683" lon="8.2133433"><ele>225.0</ele><time>2026-04-25T09:14:38.976Z</time></trkpt><trkpt lat="45.1214533" lon="8.2131067"><ele>224.0</ele><time>2026-04-25T09:14:39.976Z</time></trkpt><trkpt lat="45.121545" lon="8.21288"><ele>227.0</ele><time>2026-04-25T09:14:40.977Z</time></trkpt><trkpt lat="45.12162" lon="8.2126633"><ele>230.0</ele><time>2026-04-25T09:14:41.976Z</time></trkpt><trkpt lat="45.1216967" lon="8.2124417"><ele>233.0</ele><time>2026-04-25T09:14:42.976Z</time></trkpt><trkpt lat="45.121785" lon="8.2122083"><ele>233.0</ele><time>2026-04-25T09:14:43.976Z</time></trkpt><trkpt lat="45.1218667" lon="8.2119917"><ele>233.0</ele><time>2026-04-25T09:14:44.976Z</time></trkpt><trkpt lat="45.1219433" lon="8.2117767"><ele>233.0</ele><time>2026-04-25T09:14:45.977Z</time></trkpt><trkpt lat="45.1220117" lon="8.2115633"><ele>231.66666666666669</ele><time>2026-04-25T09:14:46.976Z</time></trkpt><trkpt lat="45.1220533" lon="8.2113433"><ele>230.33333333333331</ele><time>2026-04-25T09:14:47.976Z</time></trkpt><trkpt lat="45.122095" lon="8.2111383"><ele>229.0</ele><time>2026-04-25T09:14:48.976Z</time></trkpt><trkpt lat="45.1221433" lon="8.2109067"><ele>229.0</ele><time>2026-04-25T09:14:49.976Z</time></trkpt><trkpt lat="45.122195" lon="8.2106817"><ele>229.0</ele><time>2026-04-25T09:14:50.977Z</time></trkpt><trkpt lat="45.1222533" lon="8.2104633"><ele>229.0</ele><time>2026-04-25T09:14:51.977Z</time></trkpt><trkpt lat="45.1223133" lon="8.2102617"><ele>228.0</ele><time>2026-04-25T09:14:52.976Z</time></trkpt><trkpt lat="45.1223817" lon="8.210065"><ele>227.0</ele><time>2026-04-25T09:14:53.976Z</time></trkpt><trkpt lat="45.122475" lon="8.2098817"><ele>226.0</ele><time>2026-04-25T09:14:54.976Z</time></trkpt><trkpt lat="45.122565" lon="8.2096917"><ele>230.66666666666666</ele><time>2026-04-25T09:14:55.977Z</time></trkpt><trkpt lat="45.1226717" lon="8.2095067"><ele>235.33333333333331</ele><time>2026-04-25T09:14:56.976Z</time></trkpt><trkpt lat="45.12278" lon="8.20932"><ele>240.0</ele><time>2026-04-25T09:14:57.976Z</time></trkpt><trkpt lat="45.1228883" lon="8.2091483"><ele>239.33333333333331</ele><time>2026-04-25T09:14:58.976Z</time></trkpt><trkpt lat="45.1230033" lon="8.2089767"><ele>238.66666666666666</ele><time>2026-04-25T09:14:59.977Z</time></trkpt><trkpt lat="45.1231333" lon="8.2087783"><ele>238.0</ele><time>2026-04-25T09:15:00.976Z</time></trkpt><trkpt lat="45.12327" lon="8.208595"><ele>240.66666666666666</ele><time>2026-04-25T09:15:01.977Z</time></trkpt><trkpt lat="45.123395" lon="8.2084117"><ele>243.33333333333331</ele><time>2026-04-25T09:15:02.977Z</time></trkpt><trkpt lat="45.1235317" lon="8.20824"><ele>246.0</ele><time>2026-04-25T09:15:03.977Z</time></trkpt><trkpt lat="45.1236617" lon="8.2080733"><ele>248.66666666666669</ele><time>2026-04-25T09:15:04.977Z</time></trkpt><trkpt lat="45.1238033" lon="8.2079133"><ele>251.33333333333334</ele><time>2026-04-25T09:15:05.976Z</time></trkpt><trkpt lat="45.12394" lon="8.2077683"><ele>254.0</ele><time>2026-04-25T09:15:06.976Z</time></trkpt><trkpt lat="45.1240667" lon="8.2076117"><ele>254.0</ele><time>2026-04-25T09:15:07.977Z</time></trkpt><trkpt lat="45.1241833" lon="8.2074367"><ele>254.0</ele><time>2026-04-25T09:15:08.976Z</time></trkpt><trkpt lat="45.1242617" lon="8.20721"><ele>254.0</ele><time>2026-04-25T09:15:09.977Z</time></trkpt><trkpt lat="45.12431" lon="8.2069483"><ele>256.33333333333337</ele><time>2026-04-25T09:15:10.977Z</time></trkpt><trkpt lat="45.1243467" lon="8.206665"><ele>258.6666666666667</ele><time>2026-04-25T09:15:11.976Z</time></trkpt><trkpt lat="45.1243983" lon="8.2063767"><ele>261.0</ele><time>2026-04-25T09:15:12.977Z</time></trkpt><trkpt lat="45.1244667" lon="8.2060883"><ele>262.3333333333333</ele><time>2026-04-25T09:15:13.976Z</time></trkpt><trkpt lat="45.124535" lon="8.2058267"><ele>263.66666666666663</ele><time>2026-04-25T09:15:14.977Z</time></trkpt><trkpt lat="45.1245817" lon="8.205605"><ele>265.0</ele><time>2026-04-25T09:15:15.977Z</time></trkpt><trkpt lat="45.1246117" lon="8.2054067"><ele>265.0</ele><time>2026-04-25T09:15:16.976Z</time></trkpt><trkpt lat="45.1245983" lon="8.2052233"><ele>265.0</ele><time>2026-04-25T09:15:17.977Z</time></trkpt><trkpt lat="45.1245367" lon="8.205065"><ele>265.0</ele><time>2026-04-25T09:15:18.977Z</time></trkpt><trkpt lat="45.12441" lon="8.2049133"><ele>265.0</ele><time>2026-04-25T09:15:19.976Z</time></trkpt><trkpt lat="45.1242933" lon="8.2047633"><ele>265.3333333333333</ele><time>2026-04-25T09:15:20.977Z</time></trkpt><trkpt lat="45.12421" lon="8.20458"><ele>265.6666666666667</ele><time>2026-04-25T09:15:21.976Z</time></trkpt><trkpt lat="45.1241883" lon="8.20438"><ele>266.0</ele><time>2026-04-25T09:15:22.977Z</time></trkpt><trkpt lat="45.1241817" lon="8.204145"><ele>266.33333333333337</ele><time>2026-04-25T09:15:23.977Z</time></trkpt><trkpt lat="45.1241817" lon="8.203875"><ele>266.6666666666667</ele><time>2026-04-25T09:15:24.976Z</time></trkpt><trkpt lat="45.1241883" lon="8.2035867"><ele>267.0</ele><time>2026-04-25T09:15:25.976Z</time></trkpt><trkpt lat="45.1242083" lon="8.2033067"><ele>266.3333333333333</ele><time>2026-04-25T09:15:26.976Z</time></trkpt><trkpt lat="45.1242467" lon="8.2030167"><ele>265.66666666666663</ele><time>2026-04-25T09:15:27.977Z</time></trkpt><trkpt lat="45.12431" lon="8.20271"><ele>265.0</ele><time>2026-04-25T09:15:28.977Z</time></trkpt><trkpt lat="45.12439" lon="8.202415"><ele>264.0</ele><time>2026-04-25T09:15:29.976Z</time></trkpt><trkpt lat="45.1244883" lon="8.2021367"><ele>263.0</ele><time>2026-04-25T09:15:30.977Z</time></trkpt><trkpt lat="45.12458" lon="8.2018733"><ele>262.0</ele><time>2026-04-25T09:15:31.977Z</time></trkpt><trkpt lat="45.1246383" lon="8.2016333"><ele>264.0</ele><time>2026-04-25T09:15:32.976Z</time></trkpt><trkpt lat="45.124675" lon="8.2013683"><ele>266.0</ele><time>2026-04-25T09:15:33.977Z</time></trkpt><trkpt lat="45.1246817" lon="8.20109"><ele>268.0</ele><time>2026-04-25T09:15:34.977Z</time></trkpt><trkpt lat="45.124665" lon="8.2008367"><ele>269.75</ele><time>2026-04-25T09:15:35.977Z</time></trkpt><trkpt lat="45.12463" lon="8.2006167"><ele>271.5</ele><time>2026-04-25T09:15:36.976Z</time></trkpt><trkpt lat="45.1246133" lon="8.200435"><ele>273.25</ele><time>2026-04-25T09:15:37.976Z</time></trkpt><trkpt lat="45.1246017" lon="8.2002683"><ele>275.0</ele><time>2026-04-25T09:15:38.977Z</time></trkpt><trkpt lat="45.124585" lon="8.20008"><ele>275.0</ele><time>2026-04-25T09:15:39.976Z</time></trkpt><trkpt lat="45.1245683" lon="8.199865"><ele>275.0</ele><time>2026-04-25T09:15:40.977Z</time></trkpt><trkpt lat="45.1245533" lon="8.1996233"><ele>275.0</ele><time>2026-04-25T09:15:41.976Z</time></trkpt><trkpt lat="45.1245317" lon="8.1993667"><ele>277.0</ele><time>2026-04-25T09:15:42.976Z</time></trkpt><trkpt lat="45.124515" lon="8.19909"><ele>279.0</ele><time>2026-04-25T09:15:43.977Z</time></trkpt><trkpt lat="45.1245117" lon="8.1988117"><ele>281.0</ele><time>2026-04-25T09:15:44.976Z</time></trkpt><trkpt lat="45.1245083" lon="8.1985483"><ele>280.6666666666667</ele><time>2026-04-25T09:15:45.977Z</time></trkpt><trkpt lat="45.124515" lon="8.19831"><ele>280.3333333333333</ele><time>2026-04-25T09:15:46.976Z</time></trkpt><trkpt lat="45.124515" lon="8.198075"><ele>280.0</ele><time>2026-04-25T09:15:47.977Z</time></trkpt><trkpt lat="45.1244933" lon="8.1978417"><ele>280.0</ele><time>2026-04-25T09:15:48.976Z</time></trkpt><trkpt lat="45.1244517" lon="8.1976133"><ele>280.0</ele><time>2026-04-25T09:15:49.976Z</time></trkpt><trkpt lat="45.1243767" lon="8.1974033"><ele>280.0</ele><time>2026-04-25T09:15:50.977Z</time></trkpt><trkpt lat="45.12431" lon="8.1972083"><ele>279.0</ele><time>2026-04-25T09:15:51.977Z</time></trkpt><trkpt lat="45.124295" lon="8.1970367"><ele>278.0</ele><time>2026-04-25T09:15:52.976Z</time></trkpt><trkpt lat="45.1242767" lon="8.1968583"><ele>277.0</ele><time>2026-04-25T09:15:53.976Z</time></trkpt><trkpt lat="45.1243133" lon="8.1966767"><ele>276.0</ele><time>2026-04-25T09:15:54.976Z</time></trkpt><trkpt lat="45.1243833" lon="8.196455"><ele>273.6666666666667</ele><time>2026-04-25T09:15:55.976Z</time></trkpt><trkpt lat="45.1244583" lon="8.1962567"><ele>271.33333333333337</ele><time>2026-04-25T09:15:56.976Z</time></trkpt><trkpt lat="45.1245783" lon="8.1960817"><ele>269.0</ele><time>2026-04-25T09:15:57.977Z</time></trkpt><trkpt lat="45.12462" lon="8.1959017"><ele>269.0</ele><time>2026-04-25T09:15:58.976Z</time></trkpt><trkpt lat="45.12463" lon="8.1957483"><ele>269.0</ele><time>2026-04-25T09:15:59.977Z</time></trkpt><trkpt lat="45.1246217" lon="8.1956"><ele>269.0</ele><time>2026-04-25T09:16:00.977Z</time></trkpt><trkpt lat="45.1245667" lon="8.1954217"><ele>269.0</ele><time>2026-04-25T09:16:01.976Z</time></trkpt><trkpt lat="45.124495" lon="8.1952117"><ele>267.25</ele><time>2026-04-25T09:16:02.977Z</time></trkpt><trkpt lat="45.12442" lon="8.1949933"><ele>265.5</ele><time>2026-04-25T09:16:03.976Z</time></trkpt><trkpt lat="45.1243867" lon="8.1948283"><ele>263.75</ele><time>2026-04-25T09:16:04.976Z</time></trkpt><trkpt lat="45.1243733" lon="8.1946867"><ele>262.0</ele><time>2026-04-25T09:16:05.977Z</time></trkpt><trkpt lat="45.1243867" lon="8.19459"><ele>258.75</ele><time>2026-04-25T09:16:06.977Z</time></trkpt><trkpt lat="45.12444" lon="8.1944883"><ele>255.5</ele><time>2026-04-25T09:16:07.977Z</time></trkpt><trkpt lat="45.1245567" lon="8.1944133"><ele>252.25</ele><time>2026-04-25T09:16:08.976Z</time></trkpt><trkpt lat="45.1246767" lon="8.1943467"><ele>249.0</ele><time>2026-04-25T09:16:09.976Z</time></trkpt><trkpt lat="45.124795" lon="8.194285"><ele>249.0</ele><time>2026-04-25T09:16:10.977Z</time></trkpt><trkpt lat="45.1248917" lon="8.19422"><ele>248.99999999999997</ele><time>2026-04-25T09:16:11.976Z</time></trkpt><trkpt lat="45.1249683" lon="8.1941667"><ele>248.99999999999997</ele><time>2026-04-25T09:16:12.976Z</time></trkpt><trkpt lat="45.1250333" lon="8.1941233"><ele>249.0</ele><time>2026-04-25T09:16:13.977Z</time></trkpt><trkpt lat="45.1251467" lon="8.1940367"><ele>249.0</ele><time>2026-04-25T09:16:15.976Z</time></trkpt><trkpt lat="45.125205" lon="8.1939683"><ele>249.75</ele><time>2026-04-25T09:16:16.976Z</time></trkpt><trkpt lat="45.12528" lon="8.1938983"><ele>250.5</ele><time>2026-04-25T09:16:17.976Z</time></trkpt><trkpt lat="45.1253717" lon="8.19381"><ele>251.25</ele><time>2026-04-25T09:16:18.976Z</time></trkpt><trkpt lat="45.1254767" lon="8.19371"><ele>252.0</ele><time>2026-04-25T09:16:19.976Z</time></trkpt><trkpt lat="45.12561" lon="8.1936067"><ele>257.6666666666667</ele><time>2026-04-25T09:16:20.976Z</time></trkpt><trkpt lat="45.1257383" lon="8.1934767"><ele>263.33333333333337</ele><time>2026-04-25T09:16:21.976Z</time></trkpt><trkpt lat="45.1258683" lon="8.1933383"><ele>269.0</ele><time>2026-04-25T09:16:22.976Z</time></trkpt><trkpt lat="45.1259967" lon="8.19317"><ele>269.0</ele><time>2026-04-25T09:16:23.976Z</time></trkpt><trkpt lat="45.126095" lon="8.1929633"><ele>269.0</ele><time>2026-04-25T09:16:24.977Z</time></trkpt><trkpt lat="45.1261867" lon="8.1927617"><ele>269.0</ele><time>2026-04-25T09:16:25.977Z</time></trkpt><trkpt lat="45.1262717" lon="8.192575"><ele>269.0</ele><time>2026-04-25T09:16:26.976Z</time></trkpt><trkpt lat="45.126355" lon="8.1923733"><ele>269.0</ele><time>2026-04-25T09:16:27.977Z</time></trkpt><trkpt lat="45.126445" lon="8.1921483"><ele>269.0</ele><time>2026-04-25T09:16:28.976Z</time></trkpt><trkpt lat="45.12655" lon="8.1919333"><ele>273.33333333333337</ele><time>2026-04-25T09:16:29.976Z</time></trkpt><trkpt lat="45.1266783" lon="8.1917183"><ele>277.6666666666667</ele><time>2026-04-25T09:16:30.977Z</time></trkpt><trkpt lat="45.12681" lon="8.1914917"><ele>282.0</ele><time>2026-04-25T09:16:31.977Z</time></trkpt><trkpt lat="45.12696" lon="8.1912733"><ele>284.6666666666667</ele><time>2026-04-25T09:16:32.976Z</time></trkpt><trkpt lat="45.1271017" lon="8.1910567"><ele>287.33333333333337</ele><time>2026-04-25T09:16:33.977Z</time></trkpt><trkpt lat="45.1272417" lon="8.1908417"><ele>290.0</ele><time>2026-04-25T09:16:34.976Z</time></trkpt><trkpt lat="45.1273933" lon="8.1906383"><ele>292.6666666666667</ele><time>2026-04-25T09:16:35.976Z</time></trkpt><trkpt lat="45.1275333" lon="8.190465"><ele>295.3333333333333</ele><time>2026-04-25T09:16:36.976Z</time></trkpt><trkpt lat="45.1276783" lon="8.190315"><ele>298.0</ele><time>2026-04-25T09:16:37.976Z</time></trkpt><trkpt lat="45.127845" lon="8.19025"><ele>298.0</ele><time>2026-04-25T09:16:38.976Z</time></trkpt><trkpt lat="45.1280367" lon="8.190175"><ele>298.0</ele><time>2026-04-25T09:16:39.976Z</time></trkpt><trkpt lat="45.1282083" lon="8.1901167"><ele>298.0</ele><time>2026-04-25T09:16:40.976Z</time></trkpt><trkpt lat="45.1283967" lon="8.1900667"><ele>299.0</ele><time>2026-04-25T09:16:41.977Z</time></trkpt><trkpt lat="45.128565" lon="8.1900083"><ele>300.0</ele><time>2026-04-25T09:16:42.976Z</time></trkpt><trkpt lat="45.1287133" lon="8.1899667"><ele>301.0</ele><time>2026-04-25T09:16:43.976Z</time></trkpt><trkpt lat="45.128845" lon="8.189955"><ele>301.0</ele><time>2026-04-25T09:16:44.976Z</time></trkpt><trkpt lat="45.1289683" lon="8.1899633"><ele>301.0</ele><time>2026-04-25T09:16:45.977Z</time></trkpt><trkpt lat="45.1290667" lon="8.1900383"><ele>301.0</ele><time>2026-04-25T09:16:46.976Z</time></trkpt><trkpt lat="45.12918" lon="8.1901467"><ele>301.0</ele><time>2026-04-25T09:16:47.977Z</time></trkpt><trkpt lat="45.1293133" lon="8.19028"><ele>301.25</ele><time>2026-04-25T09:16:48.976Z</time></trkpt><trkpt lat="45.129445" lon="8.1904133"><ele>301.5</ele><time>2026-04-25T09:16:49.976Z</time></trkpt><trkpt lat="45.129575" lon="8.1905117"><ele>301.75</ele><time>2026-04-25T09:16:50.977Z</time></trkpt><trkpt lat="45.1297" lon="8.1905617"><ele>302.0</ele><time>2026-04-25T09:16:51.976Z</time></trkpt><trkpt lat="45.12983" lon="8.190555"><ele>299.5</ele><time>2026-04-25T09:16:52.976Z</time></trkpt><trkpt lat="45.1299583" lon="8.190495"><ele>297.0</ele><time>2026-04-25T09:16:53.977Z</time></trkpt><trkpt lat="45.1300683" lon="8.1903767"><ele>294.5</ele><time>2026-04-25T09:16:54.977Z</time></trkpt><trkpt lat="45.1301967" lon="8.190235"><ele>292.0</ele><time>2026-04-25T09:16:55.976Z</time></trkpt><trkpt lat="45.13033" lon="8.1901117"><ele>292.0</ele><time>2026-04-25T09:16:56.976Z</time></trkpt><trkpt lat="45.130485" lon="8.1900033"><ele>292.0</ele><time>2026-04-25T09:16:57.976Z</time></trkpt><trkpt lat="45.1306533" lon="8.1899567"><ele>292.0</ele><time>2026-04-25T09:16:58.977Z</time></trkpt><trkpt lat="45.1308483" lon="8.1899433"><ele>294.66666666666663</ele><time>2026-04-25T09:16:59.976Z</time></trkpt><trkpt lat="45.1310467" lon="8.190005"><ele>297.3333333333333</ele><time>2026-04-25T09:17:00.976Z</time></trkpt><trkpt lat="45.131225" lon="8.1900417"><ele>300.0</ele><time>2026-04-25T09:17:01.977Z</time></trkpt><trkpt lat="45.1314017" lon="8.19001"><ele>299.3333333333333</ele><time>2026-04-25T09:17:02.976Z</time></trkpt><trkpt lat="45.1315617" lon="8.1899117"><ele>298.66666666666663</ele><time>2026-04-25T09:17:03.976Z</time></trkpt><trkpt lat="45.13171" lon="8.1897667"><ele>298.0</ele><time>2026-04-25T09:17:04.977Z</time></trkpt><trkpt lat="45.1318517" lon="8.189605"><ele>296.66666666666663</ele><time>2026-04-25T09:17:05.976Z</time></trkpt><trkpt lat="45.1319867" lon="8.189445"><ele>295.3333333333333</ele><time>2026-04-25T09:17:06.976Z</time></trkpt><trkpt lat="45.132105" lon="8.1893"><ele>294.0</ele><time>2026-04-25T09:17:07.976Z</time></trkpt><trkpt lat="45.13222" lon="8.1891783"><ele>294.0</ele><time>2026-04-25T09:17:08.977Z</time></trkpt><trkpt lat="45.1323433" lon="8.18907"><ele>294.0</ele><time>2026-04-25T09:17:09.977Z</time></trkpt><trkpt lat="45.1324733" lon="8.189015"><ele>294.0</ele><time>2026-04-25T09:17:10.977Z</time></trkpt><trkpt lat="45.1326083" lon="8.189005"><ele>294.0</ele><time>2026-04-25T09:17:11.977Z</time></trkpt><trkpt lat="45.1327233" lon="8.189015"><ele>296.0</ele><time>2026-04-25T09:17:12.976Z</time></trkpt><trkpt lat="45.1328733" lon="8.18906"><ele>298.0</ele><time>2026-04-25T09:17:13.976Z</time></trkpt><trkpt lat="45.1330317" lon="8.1891067"><ele>300.0</ele><time>2026-04-25T09:17:14.976Z</time></trkpt><trkpt lat="45.1332083" lon="8.1891567"><ele>301.0</ele><time>2026-04-25T09:17:15.976Z</time></trkpt><trkpt lat="45.1333817" lon="8.1892117"><ele>302.0</ele><time>2026-04-25T09:17:16.976Z</time></trkpt><trkpt lat="45.1335567" lon="8.1892817"><ele>303.0</ele><time>2026-04-25T09:17:17.976Z</time></trkpt><trkpt lat="45.1337117" lon="8.1893467"><ele>303.0</ele><time>2026-04-25T09:17:18.977Z</time></trkpt><trkpt lat="45.1338267" lon="8.1894317"><ele>303.0</ele><time>2026-04-25T09:17:19.977Z</time></trkpt><trkpt lat="45.1339267" lon="8.18949"><ele>303.0</ele><time>2026-04-25T09:17:20.977Z</time></trkpt><trkpt lat="45.1340167" lon="8.189535"><ele>303.0</ele><time>2026-04-25T09:17:21.977Z</time></trkpt><trkpt lat="45.134085" lon="8.1895283"><ele>303.0</ele><time>2026-04-25T09:17:22.976Z</time></trkpt><trkpt lat="45.134145" lon="8.189485"><ele>301.75</ele><time>2026-04-25T09:17:23.976Z</time></trkpt><trkpt lat="45.1341767" lon="8.18935"><ele>300.5</ele><time>2026-04-25T09:17:24.977Z</time></trkpt><trkpt lat="45.1341967" lon="8.1891717"><ele>299.25</ele><time>2026-04-25T09:17:25.976Z</time></trkpt><trkpt lat="45.134215" lon="8.1889967"><ele>298.0</ele><time>2026-04-25T09:17:26.977Z</time></trkpt><trkpt lat="45.1342233" lon="8.188775"><ele>298.0</ele><time>2026-04-25T09:17:27.976Z</time></trkpt><trkpt lat="45.13425" lon="8.18857"><ele>298.0</ele><time>2026-04-25T09:17:28.977Z</time></trkpt><trkpt lat="45.1342867" lon="8.1883633"><ele>298.0</ele><time>2026-04-25T09:17:29.976Z</time></trkpt><trkpt lat="45.134365" lon="8.18816"><ele>299.0</ele><time>2026-04-25T09:17:30.977Z</time></trkpt><trkpt lat="45.134475" lon="8.1879817"><ele>300.0</ele><time>2026-04-25T09:17:31.976Z</time></trkpt><trkpt lat="45.1346133" lon="8.18781"><ele>301.0</ele><time>2026-04-25T09:17:32.976Z</time></trkpt><trkpt lat="45.1347733" lon="8.1876383"><ele>296.3333333333333</ele><time>2026-04-25T09:17:33.976Z</time></trkpt><trkpt lat="45.1349483" lon="8.1874817"><ele>291.6666666666667</ele><time>2026-04-25T09:17:34.976Z</time></trkpt><trkpt lat="45.1351167" lon="8.187325"><ele>287.0</ele><time>2026-04-25T09:17:35.976Z</time></trkpt><trkpt lat="45.1352783" lon="8.1871567"><ele>287.0</ele><time>2026-04-25T09:17:36.976Z</time></trkpt><trkpt lat="45.1354217" lon="8.1869967"><ele>287.0</ele><time>2026-04-25T09:17:37.977Z</time></trkpt><trkpt lat="45.1355517" lon="8.18688"><ele>287.0</ele><time>2026-04-25T09:17:38.977Z</time></trkpt><trkpt lat="45.1356733" lon="8.18678"><ele>283.0</ele><time>2026-04-25T09:17:39.976Z</time></trkpt><trkpt lat="45.13582" lon="8.186715"><ele>279.0</ele><time>2026-04-25T09:17:40.976Z</time></trkpt><trkpt lat="45.1359933" lon="8.18669"><ele>275.0</ele><time>2026-04-25T09:17:41.976Z</time></trkpt><trkpt lat="45.1361567" lon="8.1867033"><ele>275.0</ele><time>2026-04-25T09:17:42.976Z</time></trkpt><trkpt lat="45.1363333" lon="8.1867583"><ele>275.0</ele><time>2026-04-25T09:17:43.976Z</time></trkpt><trkpt lat="45.1364883" lon="8.186865"><ele>275.0</ele><time>2026-04-25T09:17:44.976Z</time></trkpt><trkpt lat="45.136645" lon="8.1869567"><ele>273.0</ele><time>2026-04-25T09:17:45.977Z</time></trkpt><trkpt lat="45.1367967" lon="8.18703"><ele>271.0</ele><time>2026-04-25T09:17:46.977Z</time></trkpt><trkpt lat="45.1369533" lon="8.187055"><ele>269.0</ele><time>2026-04-25T09:17:47.977Z</time></trkpt><trkpt lat="45.1371217" lon="8.1870533"><ele>269.0</ele><time>2026-04-25T09:17:48.976Z</time></trkpt><trkpt lat="45.1373117" lon="8.1870267"><ele>269.0</ele><time>2026-04-25T09:17:49.977Z</time></trkpt><trkpt lat="45.1375033" lon="8.1869933"><ele>269.0</ele><time>2026-04-25T09:17:50.976Z</time></trkpt><trkpt lat="45.1376833" lon="8.18697"><ele>265.0</ele><time>2026-04-25T09:17:51.976Z</time></trkpt><trkpt lat="45.1378583" lon="8.1869267"><ele>261.0</ele><time>2026-04-25T09:17:52.976Z</time></trkpt><trkpt lat="45.13803" lon="8.1868367"><ele>257.0</ele><time>2026-04-25T09:17:53.977Z</time></trkpt><trkpt lat="45.13821" lon="8.18671"><ele>256.33333333333337</ele><time>2026-04-25T09:17:54.976Z</time></trkpt><trkpt lat="45.1383867" lon="8.186555"><ele>255.66666666666669</ele><time>2026-04-25T09:17:55.976Z</time></trkpt><trkpt lat="45.13859" lon="8.186395"><ele>255.0</ele><time>2026-04-25T09:17:56.976Z</time></trkpt><trkpt lat="45.1387983" lon="8.1862317"><ele>253.33333333333331</ele><time>2026-04-25T09:17:57.976Z</time></trkpt><trkpt lat="45.1390017" lon="8.186075"><ele>251.66666666666666</ele><time>2026-04-25T09:17:58.977Z</time></trkpt><trkpt lat="45.1391883" lon="8.185945"><ele>250.0</ele><time>2026-04-25T09:17:59.977Z</time></trkpt><trkpt lat="45.139375" lon="8.1858383"><ele>250.0</ele><time>2026-04-25T09:18:00.977Z</time></trkpt><trkpt lat="45.1395783" lon="8.1857567"><ele>250.0</ele><time>2026-04-25T09:18:01.977Z</time></trkpt><trkpt lat="45.1397883" lon="8.185705"><ele>250.0</ele><time>2026-04-25T09:18:02.976Z</time></trkpt><trkpt lat="45.1399883" lon="8.1856717"><ele>251.0</ele><time>2026-04-25T09:18:03.977Z</time></trkpt><trkpt lat="45.14017" lon="8.185665"><ele>252.0</ele><time>2026-04-25T09:18:04.976Z</time></trkpt><trkpt lat="45.1403433" lon="8.1856833"><ele>253.0</ele><time>2026-04-25T09:18:05.977Z</time></trkpt><trkpt lat="45.1405033" lon="8.1857567"><ele>254.66666666666666</ele><time>2026-04-25T09:18:06.977Z</time></trkpt><trkpt lat="45.14067" lon="8.1858817"><ele>256.3333333333333</ele><time>2026-04-25T09:18:07.977Z</time></trkpt><trkpt lat="45.1408367" lon="8.186"><ele>258.0</ele><time>2026-04-25T09:18:08.977Z</time></trkpt><trkpt lat="45.14101" lon="8.186115"><ele>259.3333333333333</ele><time>2026-04-25T09:18:09.977Z</time></trkpt><trkpt lat="45.14119" lon="8.1861933"><ele>260.66666666666663</ele><time>2026-04-25T09:18:10.976Z</time></trkpt><trkpt lat="45.1413967" lon="8.18624"><ele>262.0</ele><time>2026-04-25T09:18:11.977Z</time></trkpt><trkpt lat="45.1415967" lon="8.1862817"><ele>259.0</ele><time>2026-04-25T09:18:12.977Z</time></trkpt><trkpt lat="45.141795" lon="8.1863533"><ele>256.0</ele><time>2026-04-25T09:18:13.976Z</time></trkpt><trkpt lat="45.1419933" lon="8.18643"><ele>253.0</ele><time>2026-04-25T09:18:14.976Z</time></trkpt><trkpt lat="45.1421833" lon="8.1865083"><ele>253.66666666666666</ele><time>2026-04-25T09:18:15.976Z</time></trkpt><trkpt lat="45.142365" lon="8.186585"><ele>254.33333333333331</ele><time>2026-04-25T09:18:16.977Z</time></trkpt><trkpt lat="45.1425267" lon="8.18667"><ele>255.0</ele><time>2026-04-25T09:18:17.976Z</time></trkpt><trkpt lat="45.1426733" lon="8.1867917"><ele>255.0</ele><time>2026-04-25T09:18:18.976Z</time></trkpt><trkpt lat="45.14282" lon="8.18692"><ele>255.0</ele><time>2026-04-25T09:18:19.977Z</time></trkpt><trkpt lat="45.142965" lon="8.1870417"><ele>255.0</ele><time>2026-04-25T09:18:20.976Z</time></trkpt><trkpt lat="45.1431067" lon="8.1871483"><ele>252.66666666666669</ele><time>2026-04-25T09:18:21.976Z</time></trkpt><trkpt lat="45.14325" lon="8.1872583"><ele>250.33333333333334</ele><time>2026-04-25T09:18:22.977Z</time></trkpt><trkpt lat="45.1434083" lon="8.1873667"><ele>248.0</ele><time>2026-04-25T09:18:23.976Z</time></trkpt><trkpt lat="45.14358" lon="8.187455"><ele>247.0</ele><time>2026-04-25T09:18:24.976Z</time></trkpt><trkpt lat="45.1437683" lon="8.187555"><ele>246.0</ele><time>2026-04-25T09:18:25.976Z</time></trkpt><trkpt lat="45.1439183" lon="8.1876417"><ele>245.0</ele><time>2026-04-25T09:18:26.977Z</time></trkpt><trkpt lat="45.1440633" lon="8.1877567"><ele>243.5</ele><time>2026-04-25T09:18:27.976Z</time></trkpt><trkpt lat="45.1441767" lon="8.187875"><ele>242.0</ele><time>2026-04-25T09:18:28.976Z</time></trkpt><trkpt lat="45.1442683" lon="8.188"><ele>240.5</ele><time>2026-04-25T09:18:29.976Z</time></trkpt><trkpt lat="45.1443317" lon="8.1881833"><ele>239.0</ele><time>2026-04-25T09:18:30.976Z</time></trkpt><trkpt lat="45.1443933" lon="8.1883867"><ele>239.0</ele><time>2026-04-25T09:18:31.977Z</time></trkpt><trkpt lat="45.1444567" lon="8.1885567"><ele>239.0</ele><time>2026-04-25T09:18:32.976Z</time></trkpt><trkpt lat="45.1445417" lon="8.1886967"><ele>239.0</ele><time>2026-04-25T09:18:33.976Z</time></trkpt><trkpt lat="45.1446467" lon="8.188835"><ele>239.0</ele><time>2026-04-25T09:18:34.976Z</time></trkpt><trkpt lat="45.1447667" lon="8.1889567"><ele>238.5</ele><time>2026-04-25T09:18:35.975Z</time></trkpt><trkpt lat="45.1448767" lon="8.18906"><ele>238.0</ele><time>2026-04-25T09:18:36.976Z</time></trkpt><trkpt lat="45.1450017" lon="8.1891483"><ele>237.5</ele><time>2026-04-25T09:18:37.975Z</time></trkpt><trkpt lat="45.1451233" lon="8.1892117"><ele>237.0</ele><time>2026-04-25T09:18:38.975Z</time></trkpt><trkpt lat="45.1452633" lon="8.189265"><ele>237.0</ele><time>2026-04-25T09:18:39.975Z</time></trkpt><trkpt lat="45.1453983" lon="8.1893167"><ele>237.0</ele><time>2026-04-25T09:18:40.975Z</time></trkpt><trkpt lat="45.1455317" lon="8.18934"><ele>237.0</ele><time>2026-04-25T09:18:41.976Z</time></trkpt><trkpt lat="45.1456683" lon="8.1893133"><ele>237.0</ele><time>2026-04-25T09:18:42.976Z</time></trkpt><trkpt lat="45.1457967" lon="8.18929"><ele>236.75</ele><time>2026-04-25T09:18:43.975Z</time></trkpt><trkpt lat="45.1459233" lon="8.189255"><ele>236.5</ele><time>2026-04-25T09:18:44.975Z</time></trkpt><trkpt lat="45.1460283" lon="8.18924"><ele>236.25</ele><time>2026-04-25T09:18:45.975Z</time></trkpt><trkpt lat="45.146135" lon="8.1892467"><ele>236.0</ele><time>2026-04-25T09:18:46.976Z</time></trkpt><trkpt lat="45.1462467" lon="8.18927"><ele>236.0</ele><time>2026-04-25T09:18:47.975Z</time></trkpt><trkpt lat="45.1463617" lon="8.189315"><ele>236.0</ele><time>2026-04-25T09:18:48.975Z</time></trkpt><trkpt lat="45.1464567" lon="8.1893883"><ele>236.0</ele><time>2026-04-25T09:18:49.976Z</time></trkpt><trkpt lat="45.14658" lon="8.189475"><ele>236.0</ele><time>2026-04-25T09:18:50.975Z</time></trkpt><trkpt lat="45.1467217" lon="8.189565"><ele>235.33333333333334</ele><time>2026-04-25T09:18:51.975Z</time></trkpt><trkpt lat="45.1468517" lon="8.1896433"><ele>234.66666666666669</ele><time>2026-04-25T09:18:52.975Z</time></trkpt><trkpt lat="45.1469933" lon="8.1897483"><ele>234.0</ele><time>2026-04-25T09:18:53.975Z</time></trkpt><trkpt lat="45.1471317" lon="8.1898433"><ele>234.0</ele><time>2026-04-25T09:18:54.975Z</time></trkpt><trkpt lat="45.147275" lon="8.18992"><ele>234.0</ele><time>2026-04-25T09:18:55.976Z</time></trkpt><trkpt lat="45.147425" lon="8.1899683"><ele>234.0</ele><time>2026-04-25T09:18:56.975Z</time></trkpt><trkpt lat="45.1475983" lon="8.1899733"><ele>233.66666666666669</ele><time>2026-04-25T09:18:57.975Z</time></trkpt><trkpt lat="45.1477783" lon="8.1899783"><ele>233.33333333333334</ele><time>2026-04-25T09:18:58.976Z</time></trkpt><trkpt lat="45.147975" lon="8.18998"><ele>233.0</ele><time>2026-04-25T09:18:59.975Z</time></trkpt><trkpt lat="45.1481633" lon="8.1899533"><ele>231.33333333333334</ele><time>2026-04-25T09:19:00.976Z</time></trkpt><trkpt lat="45.1483533" lon="8.1899383"><ele>229.66666666666669</ele><time>2026-04-25T09:19:01.975Z</time></trkpt><trkpt lat="45.1485283" lon="8.1899383"><ele>228.0</ele><time>2026-04-25T09:19:02.976Z</time></trkpt><trkpt lat="45.1487017" lon="8.1899417"><ele>228.0</ele><time>2026-04-25T09:19:03.975Z</time></trkpt><trkpt lat="45.1488733" lon="8.189865"><ele>228.0</ele><time>2026-04-25T09:19:04.975Z</time></trkpt><trkpt lat="45.1490233" lon="8.1897283"><ele>228.0</ele><time>2026-04-25T09:19:05.975Z</time></trkpt><trkpt lat="45.149175" lon="8.189555"><ele>227.33333333333331</ele><time>2026-04-25T09:19:06.976Z</time></trkpt><trkpt lat="45.1493333" lon="8.1893867"><ele>226.66666666666666</ele><time>2026-04-25T09:19:07.975Z</time></trkpt><trkpt lat="45.149495" lon="8.189225"><ele>226.0</ele><time>2026-04-25T09:19:08.975Z</time></trkpt><trkpt lat="45.14966" lon="8.1890917"><ele>225.0</ele><time>2026-04-25T09:19:09.975Z</time></trkpt><trkpt lat="45.1498183" lon="8.1890033"><ele>224.0</ele><time>2026-04-25T09:19:10.975Z</time></trkpt><trkpt lat="45.1499967" lon="8.188955"><ele>223.0</ele><time>2026-04-25T09:19:11.976Z</time></trkpt><trkpt lat="45.1501867" lon="8.1889517"><ele>223.0</ele><time>2026-04-25T09:19:12.976Z</time></trkpt><trkpt lat="45.1503817" lon="8.1889917"><ele>223.0</ele><time>2026-04-25T09:19:13.975Z</time></trkpt><trkpt lat="45.15057" lon="8.1890467"><ele>223.0</ele><time>2026-04-25T09:19:14.976Z</time></trkpt><trkpt lat="45.15078" lon="8.1890933"><ele>224.5</ele><time>2026-04-25T09:19:15.976Z</time></trkpt><trkpt lat="45.151005" lon="8.18914"><ele>226.0</ele><time>2026-04-25T09:19:16.975Z</time></trkpt><trkpt lat="45.15124" lon="8.1891617"><ele>226.0</ele><time>2026-04-25T09:19:17.975Z</time></trkpt><trkpt lat="45.15147" lon="8.1891767"><ele>226.0</ele><time>2026-04-25T09:19:18.975Z</time></trkpt><trkpt lat="45.151685" lon="8.1891917"><ele>226.0</ele><time>2026-04-25T09:19:19.975Z</time></trkpt><trkpt lat="45.1518833" lon="8.1891817"><ele>226.66666666666666</ele><time>2026-04-25T09:19:20.975Z</time></trkpt><trkpt lat="45.1520867" lon="8.189195"><ele>227.33333333333331</ele><time>2026-04-25T09:19:21.975Z</time></trkpt><trkpt lat="45.1522683" lon="8.1892167"><ele>228.0</ele><time>2026-04-25T09:19:22.975Z</time></trkpt><trkpt lat="45.1524333" lon="8.1892433"><ele>228.0</ele><time>2026-04-25T09:19:23.975Z</time></trkpt><trkpt lat="45.152605" lon="8.1892783"><ele>228.0</ele><time>2026-04-25T09:19:24.975Z</time></trkpt><trkpt lat="45.152775" lon="8.1893267"><ele>228.0</ele><time>2026-04-25T09:19:25.976Z</time></trkpt><trkpt lat="45.15293" lon="8.1893467"><ele>228.0</ele><time>2026-04-25T09:19:26.975Z</time></trkpt><trkpt lat="45.1530817" lon="8.1893667"><ele>228.0</ele><time>2026-04-25T09:19:27.976Z</time></trkpt><trkpt lat="45.153245" lon="8.1893617"><ele>228.0</ele><time>2026-04-25T09:19:28.975Z</time></trkpt><trkpt lat="45.1534" lon="8.1893567"><ele>226.75</ele><time>2026-04-25T09:19:29.975Z</time></trkpt><trkpt lat="45.1535483" lon="8.1893533"><ele>225.5</ele><time>2026-04-25T09:19:30.975Z</time></trkpt><trkpt lat="45.1536917" lon="8.1893433"><ele>224.25</ele><time>2026-04-25T09:19:31.975Z</time></trkpt><trkpt lat="45.1538267" lon="8.1893433"><ele>223.0</ele><time>2026-04-25T09:19:32.976Z</time></trkpt><trkpt lat="45.153955" lon="8.1893583"><ele>222.60000000000002</ele><time>2026-04-25T09:19:33.975Z</time></trkpt><trkpt lat="45.154075" lon="8.1893967"><ele>222.20000000000002</ele><time>2026-04-25T09:19:34.976Z</time></trkpt><trkpt lat="45.15416" lon="8.1895067"><ele>221.8</ele><time>2026-04-25T09:19:35.976Z</time></trkpt><trkpt lat="45.15423" lon="8.1896183"><ele>221.4</ele><time>2026-04-25T09:19:36.975Z</time></trkpt><trkpt lat="45.154285" lon="8.1897"><ele>221.0</ele><time>2026-04-25T09:19:37.976Z</time></trkpt><trkpt lat="45.154375" lon="8.1897917"><ele>221.0</ele><time>2026-04-25T09:19:39.976Z</time></trkpt><trkpt lat="45.1544383" lon="8.1898133"><ele>221.00000000000003</ele><time>2026-04-25T09:19:40.976Z</time></trkpt><trkpt lat="45.1545233" lon="8.1898217"><ele>221.00000000000003</ele><time>2026-04-25T09:19:41.975Z</time></trkpt><trkpt lat="45.1546283" lon="8.1898083"><ele>221.0</ele><time>2026-04-25T09:19:42.976Z</time></trkpt><trkpt lat="45.1547483" lon="8.1897767"><ele>221.0</ele><time>2026-04-25T09:19:43.976Z</time></trkpt><trkpt lat="45.1548667" lon="8.18975"><ele>220.5</ele><time>2026-04-25T09:19:44.976Z</time></trkpt><trkpt lat="45.1549917" lon="8.1897383"><ele>220.0</ele><time>2026-04-25T09:19:45.975Z</time></trkpt><trkpt lat="45.1551167" lon="8.1897317"><ele>219.5</ele><time>2026-04-25T09:19:46.975Z</time></trkpt><trkpt lat="45.1552467" lon="8.1897083"><ele>219.0</ele><time>2026-04-25T09:19:47.975Z</time></trkpt><trkpt lat="45.155365" lon="8.1896883"><ele>219.0</ele><time>2026-04-25T09:19:48.975Z</time></trkpt><trkpt lat="45.1554733" lon="8.18967"><ele>219.0</ele><time>2026-04-25T09:19:49.975Z</time></trkpt><trkpt lat="45.1555833" lon="8.1896667"><ele>219.0</ele><time>2026-04-25T09:19:50.975Z</time></trkpt><trkpt lat="45.155695" lon="8.1896633"><ele>219.0</ele><time>2026-04-25T09:19:51.976Z</time></trkpt><trkpt lat="45.15582" lon="8.18969"><ele>217.75</ele><time>2026-04-25T09:19:52.975Z</time></trkpt><trkpt lat="45.15593" lon="8.1897567"><ele>216.5</ele><time>2026-04-25T09:19:53.976Z</time></trkpt><trkpt lat="45.1560433" lon="8.1898533"><ele>215.25</ele><time>2026-04-25T09:19:54.976Z</time></trkpt><trkpt lat="45.1561667" lon="8.1899783"><ele>214.0</ele><time>2026-04-25T09:19:55.975Z</time></trkpt><trkpt lat="45.1562983" lon="8.1901067"><ele>217.66666666666666</ele><time>2026-04-25T09:19:56.975Z</time></trkpt><trkpt lat="45.15644" lon="8.1902233"><ele>221.33333333333331</ele><time>2026-04-25T09:19:57.975Z</time></trkpt><trkpt lat="45.1565817" lon="8.19033"><ele>225.0</ele><time>2026-04-25T09:19:58.976Z</time></trkpt><trkpt lat="45.1567" lon="8.1904267"><ele>225.0</ele><time>2026-04-25T09:19:59.976Z</time></trkpt><trkpt lat="45.1568117" lon="8.1905217"><ele>225.0</ele><time>2026-04-25T09:20:00.976Z</time></trkpt><trkpt lat="45.1568867" lon="8.190625"><ele>225.0</ele><time>2026-04-25T09:20:01.976Z</time></trkpt><trkpt lat="45.1569367" lon="8.19074"><ele>225.0</ele><time>2026-04-25T09:20:02.975Z</time></trkpt><trkpt lat="45.1569367" lon="8.19088"><ele>225.0</ele><time>2026-04-25T09:20:03.976Z</time></trkpt><trkpt lat="45.1568883" lon="8.1910333"><ele>228.66666666666669</ele><time>2026-04-25T09:20:04.975Z</time></trkpt><trkpt lat="45.1568217" lon="8.1912417"><ele>232.33333333333334</ele><time>2026-04-25T09:20:05.975Z</time></trkpt><trkpt lat="45.1567483" lon="8.1914333"><ele>236.0</ele><time>2026-04-25T09:20:06.975Z</time></trkpt><trkpt lat="45.15664" lon="8.1916733"><ele>232.0</ele><time>2026-04-25T09:20:07.975Z</time></trkpt><trkpt lat="45.156535" lon="8.1919383"><ele>228.0</ele><time>2026-04-25T09:20:08.975Z</time></trkpt><trkpt lat="45.15642" lon="8.1922317"><ele>230.5</ele><time>2026-04-25T09:20:09.976Z</time></trkpt><trkpt lat="45.1562917" lon="8.1925433"><ele>233.0</ele><time>2026-04-25T09:20:10.976Z</time></trkpt><trkpt lat="45.15617" lon="8.192855"><ele>233.0</ele><time>2026-04-25T09:20:11.976Z</time></trkpt><trkpt lat="45.1560567" lon="8.1931367"><ele>233.0</ele><time>2026-04-25T09:20:12.976Z</time></trkpt><trkpt lat="45.15596" lon="8.19337"><ele>233.0</ele><time>2026-04-25T09:20:13.976Z</time></trkpt><trkpt lat="45.155875" lon="8.193575"><ele>235.33333333333334</ele><time>2026-04-25T09:20:14.975Z</time></trkpt><trkpt lat="45.1558133" lon="8.1937767"><ele>237.66666666666669</ele><time>2026-04-25T09:20:15.975Z</time></trkpt><trkpt lat="45.155775" lon="8.1939917"><ele>240.0</ele><time>2026-04-25T09:20:16.976Z</time></trkpt><trkpt lat="45.15577" lon="8.1942167"><ele>241.33333333333331</ele><time>2026-04-25T09:20:17.975Z</time></trkpt><trkpt lat="45.155805" lon="8.19446"><ele>242.66666666666666</ele><time>2026-04-25T09:20:18.975Z</time></trkpt><trkpt lat="45.1558517" lon="8.19473"><ele>244.0</ele><time>2026-04-25T09:20:19.975Z</time></trkpt><trkpt lat="45.1559033" lon="8.1950033"><ele>246.0</ele><time>2026-04-25T09:20:20.975Z</time></trkpt><trkpt lat="45.1559433" lon="8.1952517"><ele>248.0</ele><time>2026-04-25T09:20:21.976Z</time></trkpt><trkpt lat="45.1559867" lon="8.195465"><ele>250.0</ele><time>2026-04-25T09:20:22.976Z</time></trkpt><trkpt lat="45.1560333" lon="8.195645"><ele>250.75</ele><time>2026-04-25T09:20:23.975Z</time></trkpt><trkpt lat="45.1560817" lon="8.1958333"><ele>251.5</ele><time>2026-04-25T09:20:24.976Z</time></trkpt><trkpt lat="45.1561517" lon="8.19598"><ele>252.25</ele><time>2026-04-25T09:20:25.976Z</time></trkpt><trkpt lat="45.156235" lon="8.1960833"><ele>253.0</ele><time>2026-04-25T09:20:26.976Z</time></trkpt><trkpt lat="45.15631" lon="8.19616"><ele>253.0</ele><time>2026-04-25T09:20:27.976Z</time></trkpt><trkpt lat="45.1564033" lon="8.1961683"><ele>253.0</ele><time>2026-04-25T09:20:28.975Z</time></trkpt><trkpt lat="45.1564933" lon="8.1961367"><ele>253.0</ele><time>2026-04-25T09:20:29.975Z</time></trkpt><trkpt lat="45.1565783" lon="8.1960833"><ele>253.0</ele><time>2026-04-25T09:20:30.975Z</time></trkpt><trkpt lat="45.156655" lon="8.195995"><ele>253.0</ele><time>2026-04-25T09:20:31.976Z</time></trkpt><trkpt lat="45.1567383" lon="8.1959067"><ele>254.8</ele><time>2026-04-25T09:20:32.976Z</time></trkpt><trkpt lat="45.15682" lon="8.1958233"><ele>256.6</ele><time>2026-04-25T09:20:33.975Z</time></trkpt><trkpt lat="45.1569133" lon="8.1957533"><ele>258.4</ele><time>2026-04-25T09:20:34.975Z</time></trkpt><trkpt lat="45.15702" lon="8.1957067"><ele>260.2</ele><time>2026-04-25T09:20:35.975Z</time></trkpt><trkpt lat="45.1571233" lon="8.195685"><ele>262.0</ele><time>2026-04-25T09:20:36.975Z</time></trkpt><trkpt lat="45.15724" lon="8.19571"><ele>262.0</ele><time>2026-04-25T09:20:37.976Z</time></trkpt><trkpt lat="45.1573483" lon="8.1957533"><ele>262.0</ele><time>2026-04-25T09:20:38.976Z</time></trkpt><trkpt lat="45.15745" lon="8.195815"><ele>262.0</ele><time>2026-04-25T09:20:39.976Z</time></trkpt><trkpt lat="45.15755" lon="8.1958867"><ele>262.0</ele><time>2026-04-25T09:20:40.975Z</time></trkpt><trkpt lat="45.1576517" lon="8.1959467"><ele>262.0</ele><time>2026-04-25T09:20:41.976Z</time></trkpt><trkpt lat="45.1577533" lon="8.196015"><ele>261.0</ele><time>2026-04-25T09:20:42.975Z</time></trkpt><trkpt lat="45.1578467" lon="8.196105"><ele>260.0</ele><time>2026-04-25T09:20:43.975Z</time></trkpt><trkpt lat="45.1579183" lon="8.196205"><ele>259.0</ele><time>2026-04-25T09:20:44.975Z</time></trkpt><trkpt lat="45.157985" lon="8.1963117"><ele>258.0</ele><time>2026-04-25T09:20:45.976Z</time></trkpt><trkpt lat="45.1580467" lon="8.196425"><ele>257.0</ele><time>2026-04-25T09:20:46.975Z</time></trkpt><trkpt lat="45.1580967" lon="8.1965333"><ele>257.0</ele><time>2026-04-25T09:20:47.976Z</time></trkpt><trkpt lat="45.1581333" lon="8.19662"><ele>257.0</ele><time>2026-04-25T09:20:48.976Z</time></trkpt><trkpt lat="45.158185" lon="8.1966733"><ele>257.0</ele><time>2026-04-25T09:20:49.975Z</time></trkpt><trkpt lat="45.1582633" lon="8.1966933"><ele>257.0</ele><time>2026-04-25T09:20:50.976Z</time></trkpt><trkpt lat="45.15834" lon="8.1966867"><ele>257.0</ele><time>2026-04-25T09:20:51.976Z</time></trkpt><trkpt lat="45.1584233" lon="8.1966683"><ele>257.0</ele><time>2026-04-25T09:20:52.976Z</time></trkpt><trkpt lat="45.1585133" lon="8.1966467"><ele>260.8</ele><time>2026-04-25T09:20:53.976Z</time></trkpt><trkpt lat="45.1586083" lon="8.1966033"><ele>264.6</ele><time>2026-04-25T09:20:54.975Z</time></trkpt><trkpt lat="45.158695" lon="8.1965617"><ele>268.40000000000003</ele><time>2026-04-25T09:20:55.976Z</time></trkpt><trkpt lat="45.1587733" lon="8.1964917"><ele>272.2</ele><time>2026-04-25T09:20:56.976Z</time></trkpt><trkpt lat="45.1588417" lon="8.1964233"><ele>276.0</ele><time>2026-04-25T09:20:57.976Z</time></trkpt><trkpt lat="45.1588983" lon="8.1963267"><ele>277.8</ele><time>2026-04-25T09:20:58.975Z</time></trkpt><trkpt lat="45.1589317" lon="8.1962033"><ele>279.6</ele><time>2026-04-25T09:20:59.975Z</time></trkpt><trkpt lat="45.158935" lon="8.1960617"><ele>281.4</ele><time>2026-04-25T09:21:00.975Z</time></trkpt><trkpt lat="45.1589017" lon="8.1959267"><ele>283.2</ele><time>2026-04-25T09:21:01.976Z</time></trkpt><trkpt lat="45.158845" lon="8.1958167"><ele>285.0</ele><time>2026-04-25T09:21:02.975Z</time></trkpt><trkpt lat="45.1587717" lon="8.1956983"><ele>285.6</ele><time>2026-04-25T09:21:03.975Z</time></trkpt><trkpt lat="45.1586917" lon="8.1956033"><ele>286.2</ele><time>2026-04-25T09:21:04.975Z</time></trkpt><trkpt lat="45.15862" lon="8.195485"><ele>286.8</ele><time>2026-04-25T09:21:05.976Z</time></trkpt><trkpt lat="45.1585567" lon="8.195365"><ele>287.4</ele><time>2026-04-25T09:21:06.976Z</time></trkpt><trkpt lat="45.1585133" lon="8.195235"><ele>288.0</ele><time>2026-04-25T09:21:07.976Z</time></trkpt><trkpt lat="45.1584967" lon="8.1951033"><ele>288.0</ele><time>2026-04-25T09:21:08.975Z</time></trkpt><trkpt lat="45.15851" lon="8.194965"><ele>288.0</ele><time>2026-04-25T09:21:09.976Z</time></trkpt><trkpt lat="45.1585317" lon="8.1948433"><ele>288.0</ele><time>2026-04-25T09:21:10.976Z</time></trkpt><trkpt lat="45.1585417" lon="8.19472"><ele>288.0</ele><time>2026-04-25T09:21:11.975Z</time></trkpt><trkpt lat="45.158555" lon="8.1946133"><ele>288.0</ele><time>2026-04-25T09:21:12.975Z</time></trkpt><trkpt lat="45.1585817" lon="8.1945033"><ele>288.0</ele><time>2026-04-25T09:21:13.975Z</time></trkpt><trkpt lat="45.1586083" lon="8.1943967"><ele>288.00000000000006</ele><time>2026-04-25T09:21:14.975Z</time></trkpt><trkpt lat="45.15863" lon="8.1943067"><ele>288.0</ele><time>2026-04-25T09:21:15.976Z</time></trkpt><trkpt lat="45.1586667" lon="8.1942267"><ele>288.0</ele><time>2026-04-25T09:21:16.976Z</time></trkpt><trkpt lat="45.158695" lon="8.1941283"><ele>288.0</ele><time>2026-04-25T09:21:17.975Z</time></trkpt><trkpt lat="45.1587417" lon="8.194055"><ele>288.0</ele><time>2026-04-25T09:21:18.975Z</time></trkpt><trkpt lat="45.15878" lon="8.1939783"><ele>288.00000000000006</ele><time>2026-04-25T09:21:19.975Z</time></trkpt><trkpt lat="45.1588217" lon="8.19389"><ele>288.0</ele><time>2026-04-25T09:21:20.976Z</time></trkpt><trkpt lat="45.1588467" lon="8.1938033"><ele>288.0</ele><time>2026-04-25T09:21:21.975Z</time></trkpt><trkpt lat="45.1589083" lon="8.193695"><ele>288.0</ele><time>2026-04-25T09:21:23.975Z</time></trkpt><trkpt lat="45.1589167" lon="8.1935983"><ele>288.0</ele><time>2026-04-25T09:21:25.975Z</time></trkpt><trkpt lat="45.158825" lon="8.1937833"><ele>288.0</ele><time>2026-04-25T09:21:52.976Z</time></trkpt><trkpt lat="45.1587533" lon="8.193965"><ele>288.75</ele><time>2026-04-25T09:21:56.975Z</time></trkpt><trkpt lat="45.1587117" lon="8.194075"><ele>289.5</ele><time>2026-04-25T09:21:57.975Z</time></trkpt><trkpt lat="45.15865" lon="8.19421"><ele>290.25</ele><time>2026-04-25T09:21:58.975Z</time></trkpt><trkpt lat="45.1585867" lon="8.19437"><ele>291.0</ele><time>2026-04-25T09:21:59.975Z</time></trkpt><trkpt lat="45.15854" lon="8.1945583"><ele>291.0</ele><time>2026-04-25T09:22:00.976Z</time></trkpt><trkpt lat="45.158515" lon="8.1947433"><ele>291.0</ele><time>2026-04-25T09:22:01.975Z</time></trkpt><trkpt lat="45.1584933" lon="8.19494"><ele>291.0</ele><time>2026-04-25T09:22:02.976Z</time></trkpt><trkpt lat="45.1584767" lon="8.1951083"><ele>291.0</ele><time>2026-04-25T09:22:03.975Z</time></trkpt><trkpt lat="45.1584783" lon="8.1952667"><ele>290.25</ele><time>2026-04-25T09:22:04.975Z</time></trkpt><trkpt lat="45.1585117" lon="8.1954067"><ele>289.5</ele><time>2026-04-25T09:22:05.975Z</time></trkpt><trkpt lat="45.1585717" lon="8.1955383"><ele>288.75</ele><time>2026-04-25T09:22:06.975Z</time></trkpt><trkpt lat="45.1586467" lon="8.19567"><ele>288.0</ele><time>2026-04-25T09:22:07.975Z</time></trkpt><trkpt lat="45.158725" lon="8.1957983"><ele>287.4</ele><time>2026-04-25T09:22:08.976Z</time></trkpt><trkpt lat="45.158805" lon="8.19591"><ele>286.8</ele><time>2026-04-25T09:22:09.975Z</time></trkpt><trkpt lat="45.1588767" lon="8.1960383"><ele>286.2</ele><time>2026-04-25T09:22:10.976Z</time></trkpt><trkpt lat="45.1589217" lon="8.1961617"><ele>285.6</ele><time>2026-04-25T09:22:11.975Z</time></trkpt><trkpt lat="45.1589167" lon="8.1962667"><ele>285.0</ele><time>2026-04-25T09:22:12.975Z</time></trkpt><trkpt lat="45.1588683" lon="8.1963717"><ele>285.0</ele><time>2026-04-25T09:22:13.975Z</time></trkpt><trkpt lat="45.1587767" lon="8.1964667"><ele>285.0</ele><time>2026-04-25T09:22:14.975Z</time></trkpt><trkpt lat="45.1586633" lon="8.19654"><ele>285.0</ele><time>2026-04-25T09:22:15.975Z</time></trkpt><trkpt lat="45.1585383" lon="8.1965967"><ele>285.0</ele><time>2026-04-25T09:22:16.975Z</time></trkpt><trkpt lat="45.158435" lon="8.19663"><ele>283.2</ele><time>2026-04-25T09:22:17.975Z</time></trkpt><trkpt lat="45.15834" lon="8.1966517"><ele>281.4</ele><time>2026-04-25T09:22:18.975Z</time></trkpt><trkpt lat="45.1582517" lon="8.1966383"><ele>279.6</ele><time>2026-04-25T09:22:19.975Z</time></trkpt><trkpt lat="45.1581633" lon="8.1966"><ele>277.8</ele><time>2026-04-25T09:22:21.976Z</time></trkpt><trkpt lat="45.15812" lon="8.1966883"><ele>276.0</ele><time>2026-04-25T09:22:25.975Z</time></trkpt><trkpt lat="45.1581567" lon="8.1968417"><ele>276.0</ele><time>2026-04-25T09:22:27.975Z</time></trkpt><trkpt lat="45.1581817" lon="8.1969283"><ele>276.0</ele><time>2026-04-25T09:22:28.976Z</time></trkpt><trkpt lat="45.158205" lon="8.1970317"><ele>276.0</ele><time>2026-04-25T09:22:29.975Z</time></trkpt><trkpt lat="45.1582333" lon="8.1971317"><ele>276.0</ele><time>2026-04-25T09:22:30.975Z</time></trkpt><trkpt lat="45.1582567" lon="8.197235"><ele>276.0</ele><time>2026-04-25T09:22:31.975Z</time></trkpt><trkpt lat="45.15828" lon="8.19735"><ele>276.0</ele><time>2026-04-25T09:22:32.976Z</time></trkpt><trkpt lat="45.15831" lon="8.1974617"><ele>275.40000000000003</ele><time>2026-04-25T09:22:33.976Z</time></trkpt><trkpt lat="45.1583433" lon="8.1975767"><ele>274.8</ele><time>2026-04-25T09:22:34.975Z</time></trkpt><trkpt lat="45.158365" lon="8.1977083"><ele>274.20000000000005</ele><time>2026-04-25T09:22:35.976Z</time></trkpt><trkpt lat="45.1583833" lon="8.1978333"><ele>273.6</ele><time>2026-04-25T09:22:36.976Z</time></trkpt><trkpt lat="45.15841" lon="8.197965"><ele>273.0</ele><time>2026-04-25T09:22:37.975Z</time></trkpt><trkpt lat="45.1584467" lon="8.198115"><ele>272.0</ele><time>2026-04-25T09:22:38.976Z</time></trkpt><trkpt lat="45.1584967" lon="8.1982717"><ele>271.0</ele><time>2026-04-25T09:22:39.976Z</time></trkpt><trkpt lat="45.15856" lon="8.1984267"><ele>270.0</ele><time>2026-04-25T09:22:40.976Z</time></trkpt><trkpt lat="45.158605" lon="8.1986083"><ele>269.0</ele><time>2026-04-25T09:22:41.975Z</time></trkpt><trkpt lat="45.1586633" lon="8.1988217"><ele>268.0</ele><time>2026-04-25T09:22:42.975Z</time></trkpt><trkpt lat="45.1587033" lon="8.1990583"><ele>267.0</ele><time>2026-04-25T09:22:43.975Z</time></trkpt><trkpt lat="45.1587033" lon="8.19932"><ele>266.0</ele><time>2026-04-25T09:22:44.976Z</time></trkpt><trkpt lat="45.15867" lon="8.1995733"><ele>267.33333333333337</ele><time>2026-04-25T09:22:45.975Z</time></trkpt><trkpt lat="45.1585967" lon="8.199845"><ele>268.6666666666667</ele><time>2026-04-25T09:22:46.975Z</time></trkpt><trkpt lat="45.158535" lon="8.2001067"><ele>270.0</ele><time>2026-04-25T09:22:47.975Z</time></trkpt><trkpt lat="45.1584683" lon="8.20036"><ele>270.0</ele><time>2026-04-25T09:22:48.975Z</time></trkpt><trkpt lat="45.1583883" lon="8.2005883"><ele>270.0</ele><time>2026-04-25T09:22:49.975Z</time></trkpt><trkpt lat="45.1583033" lon="8.2008117"><ele>270.0</ele><time>2026-04-25T09:22:50.975Z</time></trkpt><trkpt lat="45.1581933" lon="8.2010517"><ele>271.0</ele><time>2026-04-25T09:22:51.975Z</time></trkpt><trkpt lat="45.1580717" lon="8.2012633"><ele>272.0</ele><time>2026-04-25T09:22:52.975Z</time></trkpt><trkpt lat="45.1579433" lon="8.201495"><ele>273.0</ele><time>2026-04-25T09:22:53.975Z</time></trkpt><trkpt lat="45.1578133" lon="8.201725"><ele>273.0</ele><time>2026-04-25T09:22:54.975Z</time></trkpt><trkpt lat="45.1576783" lon="8.201945"><ele>273.0</ele><time>2026-04-25T09:22:55.975Z</time></trkpt><trkpt lat="45.1575483" lon="8.2021667"><ele>273.0</ele><time>2026-04-25T09:22:56.975Z</time></trkpt><trkpt lat="45.1574367" lon="8.2023633"><ele>270.3333333333333</ele><time>2026-04-25T09:22:57.975Z</time></trkpt><trkpt lat="45.1573183" lon="8.20253"><ele>267.66666666666663</ele><time>2026-04-25T09:22:58.975Z</time></trkpt><trkpt lat="45.157195" lon="8.202665"><ele>265.0</ele><time>2026-04-25T09:22:59.975Z</time></trkpt><trkpt lat="45.1570517" lon="8.2027717"><ele>265.0</ele><time>2026-04-25T09:23:00.976Z</time></trkpt><trkpt lat="45.15691" lon="8.2029067"><ele>265.0</ele><time>2026-04-25T09:23:01.975Z</time></trkpt><trkpt lat="45.15678" lon="8.2030517"><ele>265.0</ele><time>2026-04-25T09:23:02.975Z</time></trkpt><trkpt lat="45.1566567" lon="8.20321"><ele>268.3333333333333</ele><time>2026-04-25T09:23:03.975Z</time></trkpt><trkpt lat="45.156545" lon="8.203405"><ele>271.6666666666667</ele><time>2026-04-25T09:23:04.975Z</time></trkpt><trkpt lat="45.1564333" lon="8.2036067"><ele>275.0</ele><time>2026-04-25T09:23:05.975Z</time></trkpt><trkpt lat="45.1563233" lon="8.2038183"><ele>271.0</ele><time>2026-04-25T09:23:06.975Z</time></trkpt><trkpt lat="45.15622" lon="8.204025"><ele>267.0</ele><time>2026-04-25T09:23:07.975Z</time></trkpt><trkpt lat="45.156105" lon="8.20423"><ele>263.0</ele><time>2026-04-25T09:23:08.975Z</time></trkpt><trkpt lat="45.1559517" lon="8.20441"><ele>263.0</ele><time>2026-04-25T09:23:09.976Z</time></trkpt><trkpt lat="45.1557867" lon="8.204535"><ele>263.0</ele><time>2026-04-25T09:23:10.975Z</time></trkpt><trkpt lat="45.155615" lon="8.2046317"><ele>263.0</ele><time>2026-04-25T09:23:11.976Z</time></trkpt><trkpt lat="45.1554617" lon="8.204725"><ele>263.2</ele><time>2026-04-25T09:23:12.976Z</time></trkpt><trkpt lat="45.155345" lon="8.204795"><ele>263.4</ele><time>2026-04-25T09:23:13.975Z</time></trkpt><trkpt lat="45.1552567" lon="8.2048883"><ele>263.59999999999997</ele><time>2026-04-25T09:23:14.976Z</time></trkpt><trkpt lat="45.1552183" lon="8.2050117"><ele>263.8</ele><time>2026-04-25T09:23:15.975Z</time></trkpt><trkpt lat="45.15525" lon="8.2051533"><ele>264.0</ele><time>2026-04-25T09:23:16.975Z</time></trkpt><trkpt lat="45.1553117" lon="8.2052533"><ele>264.0</ele><time>2026-04-25T09:23:17.975Z</time></trkpt><trkpt lat="45.1554183" lon="8.205325"><ele>264.0</ele><time>2026-04-25T09:23:18.975Z</time></trkpt><trkpt lat="45.1555533" lon="8.20539"><ele>264.0</ele><time>2026-04-25T09:23:19.975Z</time></trkpt><trkpt lat="45.1556933" lon="8.2054567"><ele>264.0</ele><time>2026-04-25T09:23:20.976Z</time></trkpt><trkpt lat="45.1558233" lon="8.2055617"><ele>264.75</ele><time>2026-04-25T09:23:21.975Z</time></trkpt><trkpt lat="45.155935" lon="8.2056933"><ele>265.5</ele><time>2026-04-25T09:23:22.975Z</time></trkpt><trkpt lat="45.15603" lon="8.2058617"><ele>266.25</ele><time>2026-04-25T09:23:23.975Z</time></trkpt><trkpt lat="45.1561383" lon="8.2060083"><ele>267.0</ele><time>2026-04-25T09:23:24.975Z</time></trkpt><trkpt lat="45.1562633" lon="8.2061533"><ele>267.0</ele><time>2026-04-25T09:23:25.975Z</time></trkpt><trkpt lat="45.1563883" lon="8.206275"><ele>267.0</ele><time>2026-04-25T09:23:26.976Z</time></trkpt><trkpt lat="45.1565267" lon="8.2063983"><ele>267.0</ele><time>2026-04-25T09:23:27.975Z</time></trkpt><trkpt lat="45.15665" lon="8.20652"><ele>267.0</ele><time>2026-04-25T09:23:28.975Z</time></trkpt><trkpt lat="45.156765" lon="8.2066317"><ele>267.0</ele><time>2026-04-25T09:23:29.975Z</time></trkpt><trkpt lat="45.156855" lon="8.2067667"><ele>267.0</ele><time>2026-04-25T09:23:30.975Z</time></trkpt><trkpt lat="45.1568967" lon="8.20694"><ele>267.0</ele><time>2026-04-25T09:23:31.975Z</time></trkpt><trkpt lat="45.1569" lon="8.2071767"><ele>266.3333333333333</ele><time>2026-04-25T09:23:32.976Z</time></trkpt><trkpt lat="45.1568883" lon="8.2074333"><ele>265.66666666666663</ele><time>2026-04-25T09:23:33.975Z</time></trkpt><trkpt lat="45.1568667" lon="8.2077017"><ele>265.0</ele><time>2026-04-25T09:23:34.975Z</time></trkpt><trkpt lat="45.1568283" lon="8.2079867"><ele>267.0</ele><time>2026-04-25T09:23:35.975Z</time></trkpt><trkpt lat="45.1567817" lon="8.2082767"><ele>269.0</ele><time>2026-04-25T09:23:36.976Z</time></trkpt><trkpt lat="45.15672" lon="8.20858"><ele>271.0</ele><time>2026-04-25T09:23:37.975Z</time></trkpt><trkpt lat="45.156665" lon="8.2088717"><ele>273.3333333333333</ele><time>2026-04-25T09:23:38.975Z</time></trkpt><trkpt lat="45.1566133" lon="8.2091467"><ele>275.6666666666667</ele><time>2026-04-25T09:23:39.975Z</time></trkpt><trkpt lat="45.1565683" lon="8.2094267"><ele>278.0</ele><time>2026-04-25T09:23:40.975Z</time></trkpt><trkpt lat="45.15651" lon="8.209705"><ele>274.0</ele><time>2026-04-25T09:23:41.975Z</time></trkpt><trkpt lat="45.1564367" lon="8.2099733"><ele>270.0</ele><time>2026-04-25T09:23:42.974Z</time></trkpt><trkpt lat="45.15635" lon="8.21022"><ele>266.0</ele><time>2026-04-25T09:23:43.974Z</time></trkpt><trkpt lat="45.1562633" lon="8.2104683"><ele>269.6666666666667</ele><time>2026-04-25T09:23:44.974Z</time></trkpt><trkpt lat="45.15618" lon="8.2107233"><ele>273.3333333333333</ele><time>2026-04-25T09:23:45.975Z</time></trkpt><trkpt lat="45.1561083" lon="8.2109667"><ele>277.0</ele><time>2026-04-25T09:23:46.975Z</time></trkpt><trkpt lat="45.156045" lon="8.2111833"><ele>277.0</ele><time>2026-04-25T09:23:47.974Z</time></trkpt><trkpt lat="45.1559817" lon="8.2113917"><ele>277.0</ele><time>2026-04-25T09:23:48.974Z</time></trkpt><trkpt lat="45.1559417" lon="8.211565"><ele>277.0</ele><time>2026-04-25T09:23:49.974Z</time></trkpt><trkpt lat="45.155955" lon="8.211755"><ele>277.0</ele><time>2026-04-25T09:23:50.975Z</time></trkpt><trkpt lat="45.1559983" lon="8.2119617"><ele>282.66666666666663</ele><time>2026-04-25T09:23:51.974Z</time></trkpt><trkpt lat="45.156075" lon="8.2121817"><ele>288.3333333333333</ele><time>2026-04-25T09:23:52.974Z</time></trkpt><trkpt lat="45.156135" lon="8.2124217"><ele>294.0</ele><time>2026-04-25T09:23:53.974Z</time></trkpt><trkpt lat="45.1562183" lon="8.21265"><ele>296.6666666666667</ele><time>2026-04-25T09:23:54.975Z</time></trkpt><trkpt lat="45.1563167" lon="8.2128717"><ele>299.33333333333337</ele><time>2026-04-25T09:23:55.975Z</time></trkpt><trkpt lat="45.1564217" lon="8.2130833"><ele>302.0</ele><time>2026-04-25T09:23:56.975Z</time></trkpt><trkpt lat="45.15651" lon="8.2133017"><ele>299.0</ele><time>2026-04-25T09:23:57.975Z</time></trkpt><trkpt lat="45.15658" lon="8.2135333"><ele>296.0</ele><time>2026-04-25T09:23:58.974Z</time></trkpt><trkpt lat="45.1566333" lon="8.213785"><ele>293.0</ele><time>2026-04-25T09:23:59.974Z</time></trkpt><trkpt lat="45.15667" lon="8.2140317"><ele>293.0</ele><time>2026-04-25T09:24:00.974Z</time></trkpt><trkpt lat="45.156665" lon="8.2143"><ele>293.0</ele><time>2026-04-25T09:24:01.974Z</time></trkpt><trkpt lat="45.1566267" lon="8.214555"><ele>293.0</ele><time>2026-04-25T09:24:02.974Z</time></trkpt><trkpt lat="45.1565567" lon="8.2148133"><ele>289.0</ele><time>2026-04-25T09:24:03.974Z</time></trkpt><trkpt lat="45.1565067" lon="8.2150767"><ele>285.0</ele><time>2026-04-25T09:24:04.974Z</time></trkpt><trkpt lat="45.1564783" lon="8.2153283"><ele>281.0</ele><time>2026-04-25T09:24:05.974Z</time></trkpt><trkpt lat="45.156475" lon="8.2155567"><ele>282.75</ele><time>2026-04-25T09:24:06.975Z</time></trkpt><trkpt lat="45.156485" lon="8.215755"><ele>284.5</ele><time>2026-04-25T09:24:07.974Z</time></trkpt><trkpt lat="45.15653" lon="8.2159317"><ele>286.25</ele><time>2026-04-25T09:24:08.974Z</time></trkpt><trkpt lat="45.15659" lon="8.2161"><ele>288.0</ele><time>2026-04-25T09:24:09.974Z</time></trkpt><trkpt lat="45.1566717" lon="8.2162317"><ele>293.0</ele><time>2026-04-25T09:24:10.974Z</time></trkpt><trkpt lat="45.1567833" lon="8.2163533"><ele>298.0</ele><time>2026-04-25T09:24:11.974Z</time></trkpt><trkpt lat="45.1568967" lon="8.2164833"><ele>303.0</ele><time>2026-04-25T09:24:12.974Z</time></trkpt><trkpt lat="45.1570033" lon="8.2166267"><ele>308.0</ele><time>2026-04-25T09:24:13.975Z</time></trkpt><trkpt lat="45.1571117" lon="8.216775"><ele>308.75</ele><time>2026-04-25T09:24:14.974Z</time></trkpt><trkpt lat="45.1572217" lon="8.21689"><ele>309.5</ele><time>2026-04-25T09:24:15.974Z</time></trkpt><trkpt lat="45.1573383" lon="8.2169967"><ele>310.25</ele><time>2026-04-25T09:24:16.974Z</time></trkpt><trkpt lat="45.1574833" lon="8.2170867"><ele>311.0</ele><time>2026-04-25T09:24:17.975Z</time></trkpt><trkpt lat="45.1576367" lon="8.217105"><ele>311.0</ele><time>2026-04-25T09:24:18.974Z</time></trkpt><trkpt lat="45.157805" lon="8.2171367"><ele>311.0</ele><time>2026-04-25T09:24:19.974Z</time></trkpt><trkpt lat="45.1579683" lon="8.21717"><ele>311.0</ele><time>2026-04-25T09:24:20.975Z</time></trkpt><trkpt lat="45.15811" lon="8.2172433"><ele>314.0</ele><time>2026-04-25T09:24:21.975Z</time></trkpt><trkpt lat="45.1582367" lon="8.2173283"><ele>317.0</ele><time>2026-04-25T09:24:22.974Z</time></trkpt><trkpt lat="45.1583567" lon="8.2174433"><ele>320.0</ele><time>2026-04-25T09:24:23.975Z</time></trkpt><trkpt lat="45.1584933" lon="8.2175167"><ele>323.0</ele><time>2026-04-25T09:24:24.974Z</time></trkpt><trkpt lat="45.1586217" lon="8.2175767"><ele>323.0</ele><time>2026-04-25T09:24:25.974Z</time></trkpt><trkpt lat="45.15875" lon="8.2176283"><ele>323.0</ele><time>2026-04-25T09:24:26.975Z</time></trkpt><trkpt lat="45.15889" lon="8.21771"><ele>323.0</ele><time>2026-04-25T09:24:27.974Z</time></trkpt><trkpt lat="45.15903" lon="8.21776"><ele>323.0</ele><time>2026-04-25T09:24:28.974Z</time></trkpt><trkpt lat="45.1591783" lon="8.21781"><ele>321.75</ele><time>2026-04-25T09:24:29.974Z</time></trkpt><trkpt lat="45.159305" lon="8.2178333"><ele>320.5</ele><time>2026-04-25T09:24:30.974Z</time></trkpt><trkpt lat="45.1594133" lon="8.2178917"><ele>319.25</ele><time>2026-04-25T09:24:31.975Z</time></trkpt><trkpt lat="45.159505" lon="8.2179833"><ele>318.0</ele><time>2026-04-25T09:24:32.975Z</time></trkpt><trkpt lat="45.1595733" lon="8.2181333"><ele>318.75</ele><time>2026-04-25T09:24:33.975Z</time></trkpt><trkpt lat="45.1596417" lon="8.21829"><ele>319.5</ele><time>2026-04-25T09:24:34.975Z</time></trkpt><trkpt lat="45.1596983" lon="8.2184533"><ele>320.25</ele><time>2026-04-25T09:24:35.975Z</time></trkpt><trkpt lat="45.15973" lon="8.2186167"><ele>321.0</ele><time>2026-04-25T09:24:36.975Z</time></trkpt><trkpt lat="45.1597417" lon="8.2188217"><ele>319.25</ele><time>2026-04-25T09:24:37.974Z</time></trkpt><trkpt lat="45.1597567" lon="8.219025"><ele>317.5</ele><time>2026-04-25T09:24:38.975Z</time></trkpt><trkpt lat="45.1597417" lon="8.2192333"><ele>315.75</ele><time>2026-04-25T09:24:39.974Z</time></trkpt><trkpt lat="45.1597317" lon="8.2194233"><ele>314.0</ele><time>2026-04-25T09:24:40.974Z</time></trkpt><trkpt lat="45.1597283" lon="8.219595"><ele>314.0</ele><time>2026-04-25T09:24:41.975Z</time></trkpt><trkpt lat="45.1597217" lon="8.2197567"><ele>314.0</ele><time>2026-04-25T09:24:42.974Z</time></trkpt><trkpt lat="45.1596817" lon="8.2198983"><ele>314.0</ele><time>2026-04-25T09:24:43.974Z</time></trkpt><trkpt lat="45.1596217" lon="8.2200217"><ele>314.0</ele><time>2026-04-25T09:24:44.974Z</time></trkpt><trkpt lat="45.1595317" lon="8.22015"><ele>314.0</ele><time>2026-04-25T09:24:45.975Z</time></trkpt><trkpt lat="45.159435" lon="8.2202817"><ele>314.0</ele><time>2026-04-25T09:24:46.974Z</time></trkpt><trkpt lat="45.15934" lon="8.220425"><ele>314.0</ele><time>2026-04-25T09:24:47.974Z</time></trkpt><trkpt lat="45.1592567" lon="8.220565"><ele>314.0</ele><time>2026-04-25T09:24:48.974Z</time></trkpt><trkpt lat="45.1591817" lon="8.2206967"><ele>314.0</ele><time>2026-04-25T09:24:49.975Z</time></trkpt><trkpt lat="45.1591467" lon="8.2208383"><ele>314.0</ele><time>2026-04-25T09:24:50.975Z</time></trkpt><trkpt lat="45.15913" lon="8.220995"><ele>314.0</ele><time>2026-04-25T09:24:51.975Z</time></trkpt><trkpt lat="45.1591367" lon="8.2211683"><ele>314.0</ele><time>2026-04-25T09:24:52.975Z</time></trkpt><trkpt lat="45.1591717" lon="8.2213633"><ele>313.25</ele><time>2026-04-25T09:24:53.974Z</time></trkpt><trkpt lat="45.159215" lon="8.221555"><ele>312.5</ele><time>2026-04-25T09:24:54.974Z</time></trkpt><trkpt lat="45.1592217" lon="8.2217517"><ele>311.75</ele><time>2026-04-25T09:24:55.975Z</time></trkpt><trkpt lat="45.1592433" lon="8.2219383"><ele>311.0</ele><time>2026-04-25T09:24:56.974Z</time></trkpt><trkpt lat="45.1592867" lon="8.22212"><ele>311.0</ele><time>2026-04-25T09:24:57.975Z</time></trkpt><trkpt lat="45.159375" lon="8.2223067"><ele>311.0</ele><time>2026-04-25T09:24:58.975Z</time></trkpt><trkpt lat="45.1594683" lon="8.2225133"><ele>311.0</ele><time>2026-04-25T09:24:59.974Z</time></trkpt><trkpt lat="45.1595783" lon="8.2227433"><ele>312.0</ele><time>2026-04-25T09:25:00.974Z</time></trkpt><trkpt lat="45.1597033" lon="8.2229367"><ele>313.0</ele><time>2026-04-25T09:25:01.974Z</time></trkpt><trkpt lat="45.1598117" lon="8.2231433"><ele>314.0</ele><time>2026-04-25T09:25:02.974Z</time></trkpt><trkpt lat="45.15991" lon="8.2233283"><ele>314.5</ele><time>2026-04-25T09:25:03.974Z</time></trkpt><trkpt lat="45.16" lon="8.22351"><ele>315.0</ele><time>2026-04-25T09:25:04.974Z</time></trkpt><trkpt lat="45.16004" lon="8.2236983"><ele>315.5</ele><time>2026-04-25T09:25:05.975Z</time></trkpt><trkpt lat="45.160025" lon="8.2238683"><ele>316.0</ele><time>2026-04-25T09:25:06.974Z</time></trkpt><trkpt lat="45.1599683" lon="8.22404"><ele>318.25</ele><time>2026-04-25T09:25:07.974Z</time></trkpt><trkpt lat="45.15992" lon="8.2241967"><ele>320.5</ele><time>2026-04-25T09:25:08.974Z</time></trkpt><trkpt lat="45.1599433" lon="8.22437"><ele>322.75</ele><time>2026-04-25T09:25:09.975Z</time></trkpt><trkpt lat="45.1599667" lon="8.2245717"><ele>325.0</ele><time>2026-04-25T09:25:10.975Z</time></trkpt><trkpt lat="45.15998" lon="8.2247867"><ele>325.66666666666663</ele><time>2026-04-25T09:25:11.974Z</time></trkpt><trkpt lat="45.1599667" lon="8.2250017"><ele>326.3333333333333</ele><time>2026-04-25T09:25:12.974Z</time></trkpt><trkpt lat="45.1599183" lon="8.225225"><ele>327.0</ele><time>2026-04-25T09:25:13.974Z</time></trkpt><trkpt lat="45.159855" lon="8.2254667"><ele>324.0</ele><time>2026-04-25T09:25:14.975Z</time></trkpt><trkpt lat="45.1597583" lon="8.22572"><ele>321.0</ele><time>2026-04-25T09:25:15.974Z</time></trkpt><trkpt lat="45.15966" lon="8.22597"><ele>318.0</ele><time>2026-04-25T09:25:16.974Z</time></trkpt><trkpt lat="45.1595433" lon="8.2261883"><ele>318.0</ele><time>2026-04-25T09:25:17.974Z</time></trkpt><trkpt lat="45.1594317" lon="8.2263833"><ele>318.0</ele><time>2026-04-25T09:25:18.974Z</time></trkpt><trkpt lat="45.15933" lon="8.226565"><ele>318.0</ele><time>2026-04-25T09:25:19.975Z</time></trkpt><trkpt lat="45.15924" lon="8.226725"><ele>316.5</ele><time>2026-04-25T09:25:20.974Z</time></trkpt><trkpt lat="45.15917" lon="8.2268717"><ele>315.0</ele><time>2026-04-25T09:25:21.975Z</time></trkpt><trkpt lat="45.1590983" lon="8.2270167"><ele>313.5</ele><time>2026-04-25T09:25:22.975Z</time></trkpt><trkpt lat="45.1590183" lon="8.2271533"><ele>312.0</ele><time>2026-04-25T09:25:23.975Z</time></trkpt><trkpt lat="45.1589467" lon="8.2272967"><ele>316.25</ele><time>2026-04-25T09:25:24.974Z</time></trkpt><trkpt lat="45.1588817" lon="8.2274483"><ele>320.5</ele><time>2026-04-25T09:25:25.975Z</time></trkpt><trkpt lat="45.158835" lon="8.2276017"><ele>324.75</ele><time>2026-04-25T09:25:26.974Z</time></trkpt><trkpt lat="45.158775" lon="8.2277417"><ele>329.0</ele><time>2026-04-25T09:25:27.974Z</time></trkpt><trkpt lat="45.15873" lon="8.2278783"><ele>329.0</ele><time>2026-04-25T09:25:28.975Z</time></trkpt><trkpt lat="45.15866" lon="8.228"><ele>329.0</ele><time>2026-04-25T09:25:29.974Z</time></trkpt><trkpt lat="45.1585733" lon="8.22812"><ele>329.0</ele><time>2026-04-25T09:25:30.975Z</time></trkpt><trkpt lat="45.158475" lon="8.228225"><ele>329.0</ele><time>2026-04-25T09:25:31.974Z</time></trkpt><trkpt lat="45.1583517" lon="8.22833"><ele>325.6666666666667</ele><time>2026-04-25T09:25:32.975Z</time></trkpt><trkpt lat="45.1581817" lon="8.2284267"><ele>322.3333333333333</ele><time>2026-04-25T09:25:33.974Z</time></trkpt><trkpt lat="45.15802" lon="8.228535"><ele>319.0</ele><time>2026-04-25T09:25:34.975Z</time></trkpt><trkpt lat="45.1578783" lon="8.228645"><ele>319.0</ele><time>2026-04-25T09:25:35.975Z</time></trkpt><trkpt lat="45.1577517" lon="8.2287717"><ele>319.0</ele><time>2026-04-25T09:25:36.974Z</time></trkpt><trkpt lat="45.1576267" lon="8.2289067"><ele>319.0</ele><time>2026-04-25T09:25:37.974Z</time></trkpt><trkpt lat="45.1574967" lon="8.2290333"><ele>321.0</ele><time>2026-04-25T09:25:38.974Z</time></trkpt><trkpt lat="45.1573483" lon="8.2291633"><ele>323.0</ele><time>2026-04-25T09:25:39.974Z</time></trkpt><trkpt lat="45.1572017" lon="8.2292933"><ele>325.0</ele><time>2026-04-25T09:25:40.975Z</time></trkpt><trkpt lat="45.157055" lon="8.2293933"><ele>325.0</ele><time>2026-04-25T09:25:41.975Z</time></trkpt><trkpt lat="45.1569017" lon="8.22947"><ele>325.0</ele><time>2026-04-25T09:25:42.975Z</time></trkpt><trkpt lat="45.15676" lon="8.229535"><ele>325.0</ele><time>2026-04-25T09:25:43.975Z</time></trkpt><trkpt lat="45.1566067" lon="8.229595"><ele>322.25</ele><time>2026-04-25T09:25:44.974Z</time></trkpt><trkpt lat="45.1564783" lon="8.2295967"><ele>319.5</ele><time>2026-04-25T09:25:45.975Z</time></trkpt><trkpt lat="45.1563517" lon="8.2295967"><ele>316.75</ele><time>2026-04-25T09:25:46.974Z</time></trkpt><trkpt lat="45.1562317" lon="8.2296217"><ele>314.0</ele><time>2026-04-25T09:25:47.974Z</time></trkpt><trkpt lat="45.15619" lon="8.2297483"><ele>314.5</ele><time>2026-04-25T09:25:48.975Z</time></trkpt><trkpt lat="45.1561667" lon="8.2298917"><ele>315.0</ele><time>2026-04-25T09:25:49.974Z</time></trkpt><trkpt lat="45.1561583" lon="8.230045"><ele>315.5</ele><time>2026-04-25T09:25:50.975Z</time></trkpt><trkpt lat="45.1561733" lon="8.23024"><ele>316.0</ele><time>2026-04-25T09:25:51.974Z</time></trkpt><trkpt lat="45.1561833" lon="8.2304583"><ele>317.66666666666663</ele><time>2026-04-25T09:25:52.975Z</time></trkpt><trkpt lat="45.1561633" lon="8.2306867"><ele>319.3333333333333</ele><time>2026-04-25T09:25:53.975Z</time></trkpt><trkpt lat="45.156115" lon="8.2309167"><ele>321.0</ele><time>2026-04-25T09:25:54.975Z</time></trkpt><trkpt lat="45.1560383" lon="8.2311467"><ele>321.0</ele><time>2026-04-25T09:25:55.974Z</time></trkpt><trkpt lat="45.1559417" lon="8.231355"><ele>321.0</ele><time>2026-04-25T09:25:56.974Z</time></trkpt><trkpt lat="45.1558283" lon="8.2315817"><ele>321.0</ele><time>2026-04-25T09:25:57.975Z</time></trkpt><trkpt lat="45.1557283" lon="8.2318017"><ele>321.0</ele><time>2026-04-25T09:25:58.975Z</time></trkpt><trkpt lat="45.1555883" lon="8.23199"><ele>321.0</ele><time>2026-04-25T09:25:59.974Z</time></trkpt><trkpt lat="45.1554383" lon="8.2321533"><ele>321.0</ele><time>2026-04-25T09:26:00.975Z</time></trkpt><trkpt lat="45.1552883" lon="8.2322817"><ele>328.3333333333333</ele><time>2026-04-25T09:26:01.975Z</time></trkpt><trkpt lat="45.155115" lon="8.2323083"><ele>335.66666666666663</ele><time>2026-04-25T09:26:02.975Z</time></trkpt><trkpt lat="45.15495" lon="8.232365"><ele>343.0</ele><time>2026-04-25T09:26:03.975Z</time></trkpt><trkpt lat="45.1547733" lon="8.2324067"><ele>344.0</ele><time>2026-04-25T09:26:04.974Z</time></trkpt><trkpt lat="45.1546017" lon="8.2324433"><ele>345.0</ele><time>2026-04-25T09:26:05.974Z</time></trkpt><trkpt lat="45.1544367" lon="8.23247"><ele>346.0</ele><time>2026-04-25T09:26:06.974Z</time></trkpt><trkpt lat="45.15429" lon="8.232475"><ele>346.0</ele><time>2026-04-25T09:26:07.974Z</time></trkpt><trkpt lat="45.154165" lon="8.2324817"><ele>346.0</ele><time>2026-04-25T09:26:08.975Z</time></trkpt><trkpt lat="45.154035" lon="8.2324967"><ele>346.0</ele><time>2026-04-25T09:26:09.975Z</time></trkpt><trkpt lat="45.1539217" lon="8.2325233"><ele>346.0</ele><time>2026-04-25T09:26:10.974Z</time></trkpt><trkpt lat="45.153815" lon="8.23254"><ele>345.16666666666663</ele><time>2026-04-25T09:26:11.974Z</time></trkpt><trkpt lat="45.1537183" lon="8.2325533"><ele>344.3333333333333</ele><time>2026-04-25T09:26:12.974Z</time></trkpt><trkpt lat="45.1536333" lon="8.2325583"><ele>343.5</ele><time>2026-04-25T09:26:13.974Z</time></trkpt><trkpt lat="45.1535567" lon="8.2325433"><ele>342.6666666666667</ele><time>2026-04-25T09:26:14.974Z</time></trkpt><trkpt lat="45.1534767" lon="8.23253"><ele>341.83333333333337</ele><time>2026-04-25T09:26:15.975Z</time></trkpt><trkpt lat="45.1534067" lon="8.23252"><ele>341.0</ele><time>2026-04-25T09:26:16.975Z</time></trkpt><trkpt lat="45.1533383" lon="8.2325183"><ele>341.0</ele><time>2026-04-25T09:26:17.974Z</time></trkpt><trkpt lat="45.1532417" lon="8.2325717"><ele>341.0</ele><time>2026-04-25T09:26:19.975Z</time></trkpt><trkpt lat="45.1532183" lon="8.2327117"><ele>341.0</ele><time>2026-04-25T09:26:21.974Z</time></trkpt><trkpt lat="45.153275" lon="8.232805"><ele>341.0</ele><time>2026-04-25T09:26:22.975Z</time></trkpt><trkpt lat="45.153345" lon="8.2328917"><ele>341.0</ele><time>2026-04-25T09:26:23.974Z</time></trkpt><trkpt lat="45.153415" lon="8.232985"><ele>341.0</ele><time>2026-04-25T09:26:24.975Z</time></trkpt><trkpt lat="45.1535133" lon="8.2331333"><ele>341.0</ele><time>2026-04-25T09:26:25.974Z</time></trkpt><trkpt lat="45.1536167" lon="8.2333133"><ele>341.0</ele><time>2026-04-25T09:26:26.974Z</time></trkpt><trkpt lat="45.1537517" lon="8.233515"><ele>341.33333333333337</ele><time>2026-04-25T09:26:27.974Z</time></trkpt><trkpt lat="45.1538717" lon="8.233715"><ele>341.6666666666667</ele><time>2026-04-25T09:26:28.974Z</time></trkpt><trkpt lat="45.153975" lon="8.2339083"><ele>342.0</ele><time>2026-04-25T09:26:29.974Z</time></trkpt><trkpt lat="45.1540683" lon="8.2340767"><ele>340.0</ele><time>2026-04-25T09:26:30.974Z</time></trkpt><trkpt lat="45.154115" lon="8.2342383"><ele>338.0</ele><time>2026-04-25T09:26:31.974Z</time></trkpt><trkpt lat="45.1541217" lon="8.2344033"><ele>336.0</ele><time>2026-04-25T09:26:32.974Z</time></trkpt><trkpt lat="45.1540883" lon="8.23455"><ele>334.0</ele><time>2026-04-25T09:26:33.974Z</time></trkpt><trkpt lat="45.1539983" lon="8.2347033"><ele>335.0</ele><time>2026-04-25T09:26:34.974Z</time></trkpt><trkpt lat="45.1539017" lon="8.23486"><ele>336.0</ele><time>2026-04-25T09:26:35.974Z</time></trkpt><trkpt lat="45.1537867" lon="8.2350267"><ele>337.0</ele><time>2026-04-25T09:26:36.975Z</time></trkpt><trkpt lat="45.1536667" lon="8.2352217"><ele>337.0</ele><time>2026-04-25T09:26:37.975Z</time></trkpt><trkpt lat="45.1535433" lon="8.2354433"><ele>337.0</ele><time>2026-04-25T09:26:38.974Z</time></trkpt><trkpt lat="45.153435" lon="8.2356617"><ele>337.0</ele><time>2026-04-25T09:26:39.974Z</time></trkpt><trkpt lat="45.15334" lon="8.23587"><ele>335.0</ele><time>2026-04-25T09:26:40.975Z</time></trkpt><trkpt lat="45.153245" lon="8.2360817"><ele>333.0</ele><time>2026-04-25T09:26:41.975Z</time></trkpt><trkpt lat="45.1531683" lon="8.2362483"><ele>331.0</ele><time>2026-04-25T09:26:42.974Z</time></trkpt><trkpt lat="45.153115" lon="8.23638"><ele>329.0</ele><time>2026-04-25T09:26:43.974Z</time></trkpt><trkpt lat="45.1530883" lon="8.236505"><ele>335.0</ele><time>2026-04-25T09:26:44.975Z</time></trkpt><trkpt lat="45.153085" lon="8.2366533"><ele>341.0</ele><time>2026-04-25T09:26:45.974Z</time></trkpt><trkpt lat="45.1531167" lon="8.2368283"><ele>347.0</ele><time>2026-04-25T09:26:46.975Z</time></trkpt><trkpt lat="45.1531583" lon="8.2370233"><ele>353.0</ele><time>2026-04-25T09:26:47.974Z</time></trkpt><trkpt lat="45.1531767" lon="8.237245"><ele>355.0</ele><time>2026-04-25T09:26:48.974Z</time></trkpt><trkpt lat="45.1531533" lon="8.2374983"><ele>357.0</ele><time>2026-04-25T09:26:49.975Z</time></trkpt><trkpt lat="45.153125" lon="8.23773"><ele>359.0</ele><time>2026-04-25T09:26:50.974Z</time></trkpt><trkpt lat="45.153035" lon="8.23794"><ele>353.6666666666667</ele><time>2026-04-25T09:26:51.974Z</time></trkpt><trkpt lat="45.1529367" lon="8.238165"><ele>348.3333333333333</ele><time>2026-04-25T09:26:52.974Z</time></trkpt><trkpt lat="45.1528483" lon="8.2384117"><ele>343.0</ele><time>2026-04-25T09:26:53.975Z</time></trkpt><trkpt lat="45.152785" lon="8.2386817"><ele>341.3333333333333</ele><time>2026-04-25T09:26:54.974Z</time></trkpt><trkpt lat="45.1527367" lon="8.2389717"><ele>339.6666666666667</ele><time>2026-04-25T09:26:55.974Z</time></trkpt><trkpt lat="45.1527017" lon="8.2392217"><ele>338.0</ele><time>2026-04-25T09:26:56.975Z</time></trkpt><trkpt lat="45.1526883" lon="8.2394317"><ele>338.0</ele><time>2026-04-25T09:26:57.975Z</time></trkpt><trkpt lat="45.152705" lon="8.239635"><ele>338.0</ele><time>2026-04-25T09:26:58.974Z</time></trkpt><trkpt lat="45.1527633" lon="8.2398233"><ele>338.0</ele><time>2026-04-25T09:26:59.974Z</time></trkpt><trkpt lat="45.1528717" lon="8.240005"><ele>338.0</ele><time>2026-04-25T09:27:00.975Z</time></trkpt><trkpt lat="45.1530083" lon="8.24015"><ele>338.0</ele><time>2026-04-25T09:27:01.974Z</time></trkpt><trkpt lat="45.1531583" lon="8.2402817"><ele>338.0</ele><time>2026-04-25T09:27:02.974Z</time></trkpt><trkpt lat="45.1533133" lon="8.2404217"><ele>338.0</ele><time>2026-04-25T09:27:03.974Z</time></trkpt><trkpt lat="45.15345" lon="8.2405683"><ele>338.0</ele><time>2026-04-25T09:27:04.975Z</time></trkpt><trkpt lat="45.1535717" lon="8.2407033"><ele>338.0</ele><time>2026-04-25T09:27:05.974Z</time></trkpt><trkpt lat="45.15371" lon="8.2407867"><ele>338.33333333333337</ele><time>2026-04-25T09:27:06.974Z</time></trkpt><trkpt lat="45.15386" lon="8.2408133"><ele>338.6666666666667</ele><time>2026-04-25T09:27:07.974Z</time></trkpt><trkpt lat="45.15401" lon="8.2408467"><ele>339.0</ele><time>2026-04-25T09:27:08.974Z</time></trkpt><trkpt lat="45.1541533" lon="8.2409317"><ele>339.0</ele><time>2026-04-25T09:27:09.974Z</time></trkpt><trkpt lat="45.1542817" lon="8.2410317"><ele>339.0</ele><time>2026-04-25T09:27:10.974Z</time></trkpt><trkpt lat="45.1544083" lon="8.2410817"><ele>339.0</ele><time>2026-04-25T09:27:11.974Z</time></trkpt><trkpt lat="45.1545467" lon="8.2410567"><ele>339.0</ele><time>2026-04-25T09:27:12.975Z</time></trkpt><trkpt lat="45.1546833" lon="8.2409917"><ele>339.0</ele><time>2026-04-25T09:27:13.974Z</time></trkpt><trkpt lat="45.154795" lon="8.2409317"><ele>339.0</ele><time>2026-04-25T09:27:14.974Z</time></trkpt><trkpt lat="45.1548833" lon="8.24092"><ele>339.0</ele><time>2026-04-25T09:27:15.974Z</time></trkpt><trkpt lat="45.15499" lon="8.24096"><ele>339.0</ele><time>2026-04-25T09:27:16.974Z</time></trkpt><trkpt lat="45.1550883" lon="8.24111"><ele>336.3333333333333</ele><time>2026-04-25T09:27:17.974Z</time></trkpt><trkpt lat="45.1552" lon="8.2412833"><ele>333.66666666666663</ele><time>2026-04-25T09:27:18.974Z</time></trkpt><trkpt lat="45.1553183" lon="8.2414183"><ele>331.0</ele><time>2026-04-25T09:27:19.975Z</time></trkpt><trkpt lat="45.1554567" lon="8.2414867"><ele>331.0</ele><time>2026-04-25T09:27:20.975Z</time></trkpt><trkpt lat="45.1556167" lon="8.2415067"><ele>331.0</ele><time>2026-04-25T09:27:21.974Z</time></trkpt><trkpt lat="45.1557967" lon="8.2414917"><ele>331.0</ele><time>2026-04-25T09:27:22.975Z</time></trkpt><trkpt lat="45.1559933" lon="8.2414617"><ele>329.0</ele><time>2026-04-25T09:27:23.975Z</time></trkpt><trkpt lat="45.15619" lon="8.2414667"><ele>327.0</ele><time>2026-04-25T09:27:24.974Z</time></trkpt><trkpt lat="45.1563733" lon="8.2415267"><ele>325.0</ele><time>2026-04-25T09:27:25.975Z</time></trkpt><trkpt lat="45.1565517" lon="8.241615"><ele>325.0</ele><time>2026-04-25T09:27:26.974Z</time></trkpt><trkpt lat="45.1567233" lon="8.2417083"><ele>325.0</ele><time>2026-04-25T09:27:27.975Z</time></trkpt><trkpt lat="45.15689" lon="8.2418117"><ele>325.0</ele><time>2026-04-25T09:27:28.975Z</time></trkpt><trkpt lat="45.1570433" lon="8.2419467"><ele>325.0</ele><time>2026-04-25T09:27:29.975Z</time></trkpt><trkpt lat="45.1571933" lon="8.2420967"><ele>325.0</ele><time>2026-04-25T09:27:30.974Z</time></trkpt><trkpt lat="45.1573267" lon="8.2423167"><ele>325.0</ele><time>2026-04-25T09:27:31.974Z</time></trkpt><trkpt lat="45.15746" lon="8.24253"><ele>323.0</ele><time>2026-04-25T09:27:32.974Z</time></trkpt><trkpt lat="45.1575883" lon="8.242745"><ele>321.0</ele><time>2026-04-25T09:27:33.974Z</time></trkpt><trkpt lat="45.157705" lon="8.2429467"><ele>319.0</ele><time>2026-04-25T09:27:34.975Z</time></trkpt><trkpt lat="45.157805" lon="8.2431517"><ele>316.0</ele><time>2026-04-25T09:27:35.975Z</time></trkpt><trkpt lat="45.1579067" lon="8.2433333"><ele>313.0</ele><time>2026-04-25T09:27:36.974Z</time></trkpt><trkpt lat="45.15801" lon="8.2435083"><ele>310.0</ele><time>2026-04-25T09:27:37.974Z</time></trkpt><trkpt lat="45.1581467" lon="8.2436717"><ele>309.66666666666663</ele><time>2026-04-25T09:27:38.974Z</time></trkpt><trkpt lat="45.1583067" lon="8.243815"><ele>309.3333333333333</ele><time>2026-04-25T09:27:39.974Z</time></trkpt><trkpt lat="45.1584617" lon="8.2439633"><ele>309.0</ele><time>2026-04-25T09:27:40.974Z</time></trkpt><trkpt lat="45.158615" lon="8.2440933"><ele>309.0</ele><time>2026-04-25T09:27:41.975Z</time></trkpt><trkpt lat="45.1587433" lon="8.2442117"><ele>309.0</ele><time>2026-04-25T09:27:42.975Z</time></trkpt><trkpt lat="45.15885" lon="8.2443367"><ele>309.0</ele><time>2026-04-25T09:27:43.974Z</time></trkpt><trkpt lat="45.15892" lon="8.244475"><ele>309.0</ele><time>2026-04-25T09:27:44.974Z</time></trkpt><trkpt lat="45.158965" lon="8.244645"><ele>304.3333333333333</ele><time>2026-04-25T09:27:45.975Z</time></trkpt><trkpt lat="45.1589933" lon="8.2448317"><ele>299.66666666666663</ele><time>2026-04-25T09:27:46.974Z</time></trkpt><trkpt lat="45.1589567" lon="8.245075"><ele>295.0</ele><time>2026-04-25T09:27:47.974Z</time></trkpt><trkpt lat="45.15894" lon="8.2452983"><ele>295.0</ele><time>2026-04-25T09:27:48.974Z</time></trkpt><trkpt lat="45.1589267" lon="8.2454983"><ele>295.0</ele><time>2026-04-25T09:27:49.974Z</time></trkpt><trkpt lat="45.1589117" lon="8.24567"><ele>295.0</ele><time>2026-04-25T09:27:50.974Z</time></trkpt><trkpt lat="45.1589267" lon="8.2458"><ele>295.0</ele><time>2026-04-25T09:27:51.974Z</time></trkpt><trkpt lat="45.15899" lon="8.2459083"><ele>294.2</ele><time>2026-04-25T09:27:52.974Z</time></trkpt><trkpt lat="45.159055" lon="8.24599"><ele>293.4</ele><time>2026-04-25T09:27:53.974Z</time></trkpt><trkpt lat="45.159105" lon="8.2460783"><ele>292.6</ele><time>2026-04-25T09:27:54.974Z</time></trkpt><trkpt lat="45.1590833" lon="8.2462083"><ele>291.8</ele><time>2026-04-25T09:27:55.974Z</time></trkpt><trkpt lat="45.1590183" lon="8.246365"><ele>291.0</ele><time>2026-04-25T09:27:56.974Z</time></trkpt><trkpt lat="45.1589383" lon="8.2464917"><ele>291.0</ele><time>2026-04-25T09:27:57.974Z</time></trkpt><trkpt lat="45.1588433" lon="8.246585"><ele>291.0</ele><time>2026-04-25T09:27:58.975Z</time></trkpt><trkpt lat="45.1587233" lon="8.2466233"><ele>291.0</ele><time>2026-04-25T09:27:59.974Z</time></trkpt><trkpt lat="45.15862" lon="8.246605"><ele>291.0</ele><time>2026-04-25T09:28:00.974Z</time></trkpt><trkpt lat="45.1585533" lon="8.2465433"><ele>291.0</ele><time>2026-04-25T09:28:01.975Z</time></trkpt><trkpt lat="45.1585317" lon="8.2464117"><ele>291.0</ele><time>2026-04-25T09:28:02.974Z</time></trkpt><trkpt lat="45.1585183" lon="8.2462567"><ele>291.0</ele><time>2026-04-25T09:28:03.975Z</time></trkpt><trkpt lat="45.158505" lon="8.24605"><ele>291.0</ele><time>2026-04-25T09:28:04.974Z</time></trkpt><trkpt lat="45.158475" lon="8.2457833"><ele>291.0</ele><time>2026-04-25T09:28:05.974Z</time></trkpt><trkpt lat="45.158445" lon="8.24553"><ele>292.3333333333333</ele><time>2026-04-25T09:28:06.974Z</time></trkpt><trkpt lat="45.1584333" lon="8.2452633"><ele>293.66666666666663</ele><time>2026-04-25T09:28:07.974Z</time></trkpt><trkpt lat="45.158405" lon="8.245035"><ele>295.0</ele><time>2026-04-25T09:28:08.974Z</time></trkpt><trkpt lat="45.15839" lon="8.24484"><ele>294.75</ele><time>2026-04-25T09:28:09.974Z</time></trkpt><trkpt lat="45.1583283" lon="8.2446817"><ele>294.5</ele><time>2026-04-25T09:28:10.974Z</time></trkpt><trkpt lat="45.1582083" lon="8.244605"><ele>294.25</ele><time>2026-04-25T09:28:11.974Z</time></trkpt><trkpt lat="45.158075" lon="8.2446017"><ele>294.0</ele><time>2026-04-25T09:28:12.974Z</time></trkpt><trkpt lat="45.1579217" lon="8.2446333"><ele>294.0</ele><time>2026-04-25T09:28:13.974Z</time></trkpt><trkpt lat="45.1577467" lon="8.2446917"><ele>294.0</ele><time>2026-04-25T09:28:14.974Z</time></trkpt><trkpt lat="45.1575717" lon="8.2447583"><ele>294.0</ele><time>2026-04-25T09:28:15.974Z</time></trkpt><trkpt lat="45.1573867" lon="8.2447917"><ele>291.3333333333333</ele><time>2026-04-25T09:28:16.974Z</time></trkpt><trkpt lat="45.1572183" lon="8.244815"><ele>288.66666666666663</ele><time>2026-04-25T09:28:17.974Z</time></trkpt><trkpt lat="45.1570617" lon="8.244825"><ele>286.0</ele><time>2026-04-25T09:28:18.974Z</time></trkpt><trkpt lat="45.1569367" lon="8.2448883"><ele>286.0</ele><time>2026-04-25T09:28:19.975Z</time></trkpt><trkpt lat="45.156825" lon="8.2449867"><ele>286.0</ele><time>2026-04-25T09:28:20.974Z</time></trkpt><trkpt lat="45.1567667" lon="8.245165"><ele>286.0</ele><time>2026-04-25T09:28:21.974Z</time></trkpt><trkpt lat="45.156755" lon="8.2453517"><ele>286.0</ele><time>2026-04-25T09:28:22.974Z</time></trkpt><trkpt lat="45.1567817" lon="8.2455217"><ele>284.75</ele><time>2026-04-25T09:28:23.974Z</time></trkpt><trkpt lat="45.1568333" lon="8.2456467"><ele>283.5</ele><time>2026-04-25T09:28:24.974Z</time></trkpt><trkpt lat="45.1569367" lon="8.2457317"><ele>282.25</ele><time>2026-04-25T09:28:25.975Z</time></trkpt><trkpt lat="45.1570717" lon="8.245785"><ele>281.0</ele><time>2026-04-25T09:28:26.974Z</time></trkpt><trkpt lat="45.157205" lon="8.2458533"><ele>281.0</ele><time>2026-04-25T09:28:27.975Z</time></trkpt><trkpt lat="45.1573117" lon="8.2459817"><ele>281.0</ele><time>2026-04-25T09:28:28.974Z</time></trkpt><trkpt lat="45.1573733" lon="8.2461617"><ele>281.0</ele><time>2026-04-25T09:28:29.974Z</time></trkpt><trkpt lat="45.1574033" lon="8.2463917"><ele>281.0</ele><time>2026-04-25T09:28:30.974Z</time></trkpt><trkpt lat="45.1574217" lon="8.2466467"><ele>279.0</ele><time>2026-04-25T09:28:31.974Z</time></trkpt><trkpt lat="45.1574617" lon="8.246905"><ele>277.0</ele><time>2026-04-25T09:28:32.974Z</time></trkpt><trkpt lat="45.1574817" lon="8.2471383"><ele>275.0</ele><time>2026-04-25T09:28:33.974Z</time></trkpt><trkpt lat="45.1575283" lon="8.2473683"><ele>272.33333333333337</ele><time>2026-04-25T09:28:34.974Z</time></trkpt><trkpt lat="45.15761" lon="8.2475933"><ele>269.6666666666667</ele><time>2026-04-25T09:28:35.974Z</time></trkpt><trkpt lat="45.1577" lon="8.24781"><ele>267.0</ele><time>2026-04-25T09:28:36.974Z</time></trkpt><trkpt lat="45.15779" lon="8.24802"><ele>264.0</ele><time>2026-04-25T09:28:37.974Z</time></trkpt><trkpt lat="45.15787" lon="8.248255"><ele>261.0</ele><time>2026-04-25T09:28:38.974Z</time></trkpt><trkpt lat="45.15789" lon="8.24851"><ele>258.0</ele><time>2026-04-25T09:28:39.974Z</time></trkpt><trkpt lat="45.1578617" lon="8.2487767"><ele>257.0</ele><time>2026-04-25T09:28:40.974Z</time></trkpt><trkpt lat="45.1577967" lon="8.24905"><ele>256.0</ele><time>2026-04-25T09:28:41.974Z</time></trkpt><trkpt lat="45.1577117" lon="8.2493383"><ele>255.0</ele><time>2026-04-25T09:28:42.974Z</time></trkpt><trkpt lat="45.1576167" lon="8.2496383"><ele>254.5</ele><time>2026-04-25T09:28:43.974Z</time></trkpt><trkpt lat="45.15752" lon="8.2499417"><ele>254.0</ele><time>2026-04-25T09:28:44.974Z</time></trkpt><trkpt lat="45.1574333" lon="8.2502267"><ele>250.0</ele><time>2026-04-25T09:28:45.974Z</time></trkpt><trkpt lat="45.157345" lon="8.2505233"><ele>246.0</ele><time>2026-04-25T09:28:46.974Z</time></trkpt><trkpt lat="45.1572633" lon="8.2508033"><ele>242.0</ele><time>2026-04-25T09:28:47.975Z</time></trkpt><trkpt lat="45.1571967" lon="8.2510717"><ele>241.0</ele><time>2026-04-25T09:28:48.975Z</time></trkpt><trkpt lat="45.1571283" lon="8.25133"><ele>240.0</ele><time>2026-04-25T09:28:49.974Z</time></trkpt><trkpt lat="45.1570817" lon="8.251575"><ele>239.0</ele><time>2026-04-25T09:28:50.974Z</time></trkpt><trkpt lat="45.157055" lon="8.2517967"><ele>239.0</ele><time>2026-04-25T09:28:51.975Z</time></trkpt><trkpt lat="45.1570467" lon="8.2519917"><ele>239.0</ele><time>2026-04-25T09:28:52.974Z</time></trkpt><trkpt lat="45.1570283" lon="8.2521383"><ele>239.0</ele><time>2026-04-25T09:28:53.975Z</time></trkpt><trkpt lat="45.1569783" lon="8.2522717"><ele>239.0</ele><time>2026-04-25T09:28:54.975Z</time></trkpt><trkpt lat="45.1568933" lon="8.252395"><ele>240.33333333333334</ele><time>2026-04-25T09:28:55.974Z</time></trkpt><trkpt lat="45.1567617" lon="8.2525033"><ele>241.66666666666669</ele><time>2026-04-25T09:28:56.974Z</time></trkpt><trkpt lat="45.156605" lon="8.2526283"><ele>243.0</ele><time>2026-04-25T09:28:57.975Z</time></trkpt><trkpt lat="45.15646" lon="8.252785"><ele>238.66666666666669</ele><time>2026-04-25T09:28:58.975Z</time></trkpt><trkpt lat="45.15632" lon="8.2529617"><ele>234.33333333333334</ele><time>2026-04-25T09:28:59.975Z</time></trkpt><trkpt lat="45.1561983" lon="8.2531817"><ele>230.0</ele><time>2026-04-25T09:29:00.975Z</time></trkpt><trkpt lat="45.1561117" lon="8.253385"><ele>230.0</ele><time>2026-04-25T09:29:01.974Z</time></trkpt><trkpt lat="45.1560583" lon="8.25357"><ele>230.0</ele><time>2026-04-25T09:29:02.975Z</time></trkpt><trkpt lat="45.1560367" lon="8.25375"><ele>230.0</ele><time>2026-04-25T09:29:03.975Z</time></trkpt><trkpt lat="45.1560733" lon="8.2539317"><ele>230.0</ele><time>2026-04-25T09:29:04.975Z</time></trkpt><trkpt lat="45.1560967" lon="8.2540933"><ele>230.0</ele><time>2026-04-25T09:29:05.975Z</time></trkpt><trkpt lat="45.15607" lon="8.2542383"><ele>230.0</ele><time>2026-04-25T09:29:06.973Z</time></trkpt><trkpt lat="45.1559883" lon="8.2543517"><ele>230.0</ele><time>2026-04-25T09:29:07.973Z</time></trkpt><trkpt lat="45.1559" lon="8.2545"><ele>230.0</ele><time>2026-04-25T09:29:08.973Z</time></trkpt><trkpt lat="45.155835" lon="8.254675"><ele>230.66666666666669</ele><time>2026-04-25T09:29:09.973Z</time></trkpt><trkpt lat="45.1558017" lon="8.2548967"><ele>231.33333333333331</ele><time>2026-04-25T09:29:10.973Z</time></trkpt><trkpt lat="45.15581" lon="8.2551867"><ele>232.0</ele><time>2026-04-25T09:29:11.974Z</time></trkpt><trkpt lat="45.15583" lon="8.2555183"><ele>229.5</ele><time>2026-04-25T09:29:12.973Z</time></trkpt><trkpt lat="45.1558367" lon="8.2558517"><ele>227.0</ele><time>2026-04-25T09:29:13.973Z</time></trkpt><trkpt lat="45.1558533" lon="8.25618"><ele>224.33333333333334</ele><time>2026-04-25T09:29:14.974Z</time></trkpt><trkpt lat="45.1558483" lon="8.2564583"><ele>221.66666666666669</ele><time>2026-04-25T09:29:15.974Z</time></trkpt><trkpt lat="45.1558267" lon="8.256735"><ele>219.0</ele><time>2026-04-25T09:29:16.974Z</time></trkpt><trkpt lat="45.1557833" lon="8.2570033"><ele>219.33333333333331</ele><time>2026-04-25T09:29:17.974Z</time></trkpt><trkpt lat="45.1557017" lon="8.25725"><ele>219.66666666666666</ele><time>2026-04-25T09:29:18.973Z</time></trkpt><trkpt lat="45.1555867" lon="8.25749"><ele>220.0</ele><time>2026-04-25T09:29:19.973Z</time></trkpt><trkpt lat="45.1554433" lon="8.2577317"><ele>220.0</ele><time>2026-04-25T09:29:20.974Z</time></trkpt><trkpt lat="45.155275" lon="8.25799"><ele>220.0</ele><time>2026-04-25T09:29:21.973Z</time></trkpt><trkpt lat="45.155095" lon="8.2582317"><ele>221.0</ele><time>2026-04-25T09:29:22.973Z</time></trkpt><trkpt lat="45.1549017" lon="8.258445"><ele>222.0</ele><time>2026-04-25T09:29:23.974Z</time></trkpt><trkpt lat="45.15471" lon="8.2586417"><ele>218.5</ele><time>2026-04-25T09:29:24.974Z</time></trkpt><trkpt lat="45.1544983" lon="8.2588183"><ele>215.0</ele><time>2026-04-25T09:29:25.974Z</time></trkpt><trkpt lat="45.154275" lon="8.2589667"><ele>215.0</ele><time>2026-04-25T09:29:26.974Z</time></trkpt><trkpt lat="45.1540517" lon="8.2590617"><ele>215.0</ele><time>2026-04-25T09:29:27.973Z</time></trkpt><trkpt lat="45.1538333" lon="8.2591617"><ele>212.0</ele><time>2026-04-25T09:29:28.973Z</time></trkpt><trkpt lat="45.153625" lon="8.2592633"><ele>209.0</ele><time>2026-04-25T09:29:29.974Z</time></trkpt><trkpt lat="45.15343" lon="8.2593617"><ele>206.0</ele><time>2026-04-25T09:29:30.973Z</time></trkpt><trkpt lat="45.153265" lon="8.2594867"><ele>206.66666666666669</ele><time>2026-04-25T09:29:31.973Z</time></trkpt><trkpt lat="45.1531017" lon="8.2596367"><ele>207.33333333333331</ele><time>2026-04-25T09:29:32.974Z</time></trkpt><trkpt lat="45.1529733" lon="8.25986"><ele>208.0</ele><time>2026-04-25T09:29:33.973Z</time></trkpt><trkpt lat="45.1528517" lon="8.260145"><ele>205.5</ele><time>2026-04-25T09:29:34.974Z</time></trkpt><trkpt lat="45.1527233" lon="8.2604467"><ele>203.0</ele><time>2026-04-25T09:29:35.973Z</time></trkpt><trkpt lat="45.1525833" lon="8.2607483"><ele>202.66666666666669</ele><time>2026-04-25T09:29:36.974Z</time></trkpt><trkpt lat="45.1524617" lon="8.2610233"><ele>202.33333333333331</ele><time>2026-04-25T09:29:37.973Z</time></trkpt><trkpt lat="45.1523533" lon="8.2612717"><ele>202.0</ele><time>2026-04-25T09:29:38.973Z</time></trkpt><trkpt lat="45.15227" lon="8.2615317"><ele>201.66666666666666</ele><time>2026-04-25T09:29:39.973Z</time></trkpt><trkpt lat="45.1522167" lon="8.261825"><ele>201.33333333333331</ele><time>2026-04-25T09:29:40.973Z</time></trkpt><trkpt lat="45.1521867" lon="8.2621567"><ele>201.0</ele><time>2026-04-25T09:29:41.974Z</time></trkpt><trkpt lat="45.152175" lon="8.26252"><ele>200.0</ele><time>2026-04-25T09:29:42.973Z</time></trkpt><trkpt lat="45.1521583" lon="8.262895"><ele>199.0</ele><time>2026-04-25T09:29:43.973Z</time></trkpt><trkpt lat="45.1521317" lon="8.2632983"><ele>199.0</ele><time>2026-04-25T09:29:44.973Z</time></trkpt><trkpt lat="45.1521" lon="8.26371"><ele>199.0</ele><time>2026-04-25T09:29:45.974Z</time></trkpt><trkpt lat="45.1520683" lon="8.26412"><ele>198.5</ele><time>2026-04-25T09:29:46.974Z</time></trkpt><trkpt lat="45.1520383" lon="8.2645467"><ele>198.0</ele><time>2026-04-25T09:29:47.973Z</time></trkpt><trkpt lat="45.152015" lon="8.2649667"><ele>197.5</ele><time>2026-04-25T09:29:48.973Z</time></trkpt><trkpt lat="45.1519917" lon="8.2653833"><ele>197.0</ele><time>2026-04-25T09:29:49.973Z</time></trkpt><trkpt lat="45.151965" lon="8.2658133"><ele>197.0</ele><time>2026-04-25T09:29:50.973Z</time></trkpt><trkpt lat="45.1519283" lon="8.2662467"><ele>197.0</ele><time>2026-04-25T09:29:51.973Z</time></trkpt><trkpt lat="45.1518983" lon="8.26669"><ele>196.5</ele><time>2026-04-25T09:29:52.973Z</time></trkpt><trkpt lat="45.1518683" lon="8.26714"><ele>196.0</ele><time>2026-04-25T09:29:53.973Z</time></trkpt><trkpt lat="45.151835" lon="8.26757"><ele>196.0</ele><time>2026-04-25T09:29:54.973Z</time></trkpt><trkpt lat="45.1518017" lon="8.2680033"><ele>196.0</ele><time>2026-04-25T09:29:55.973Z</time></trkpt><trkpt lat="45.1517717" lon="8.2684183"><ele>194.5</ele><time>2026-04-25T09:29:56.974Z</time></trkpt><trkpt lat="45.1517483" lon="8.2688033"><ele>193.0</ele><time>2026-04-25T09:29:57.973Z</time></trkpt><trkpt lat="45.1517217" lon="8.26918"><ele>193.0</ele><time>2026-04-25T09:29:58.973Z</time></trkpt><trkpt lat="45.1517" lon="8.269565"><ele>193.0</ele><time>2026-04-25T09:29:59.974Z</time></trkpt><trkpt lat="45.1516783" lon="8.26993"><ele>193.0</ele><time>2026-04-25T09:30:00.973Z</time></trkpt><trkpt lat="45.1516467" lon="8.270285"><ele>193.0</ele><time>2026-04-25T09:30:01.974Z</time></trkpt><trkpt lat="45.1515983" lon="8.27064"><ele>191.0</ele><time>2026-04-25T09:30:02.973Z</time></trkpt><trkpt lat="45.1515217" lon="8.2709683"><ele>189.0</ele><time>2026-04-25T09:30:03.974Z</time></trkpt><trkpt lat="45.1514017" lon="8.2713233"><ele>188.5</ele><time>2026-04-25T09:30:04.974Z</time></trkpt><trkpt lat="45.1512767" lon="8.2716933"><ele>188.0</ele><time>2026-04-25T09:30:05.973Z</time></trkpt><trkpt lat="45.1511467" lon="8.2720717"><ele>189.0</ele><time>2026-04-25T09:30:06.973Z</time></trkpt><trkpt lat="45.1510117" lon="8.2724367"><ele>190.0</ele><time>2026-04-25T09:30:07.974Z</time></trkpt><trkpt lat="45.1509" lon="8.272795"><ele>192.5</ele><time>2026-04-25T09:30:08.974Z</time></trkpt><trkpt lat="45.1507867" lon="8.2731383"><ele>195.0</ele><time>2026-04-25T09:30:09.973Z</time></trkpt><trkpt lat="45.15069" lon="8.2734433"><ele>190.0</ele><time>2026-04-25T09:30:10.974Z</time></trkpt><trkpt lat="45.1505867" lon="8.27375"><ele>185.0</ele><time>2026-04-25T09:30:11.973Z</time></trkpt><trkpt lat="45.1505117" lon="8.2740483"><ele>185.0</ele><time>2026-04-25T09:30:12.973Z</time></trkpt><trkpt lat="45.150455" lon="8.274365"><ele>185.0</ele><time>2026-04-25T09:30:13.973Z</time></trkpt><trkpt lat="45.1504217" lon="8.27472"><ele>184.5</ele><time>2026-04-25T09:30:14.973Z</time></trkpt><trkpt lat="45.1503883" lon="8.2750933"><ele>184.0</ele><time>2026-04-25T09:30:15.973Z</time></trkpt><trkpt lat="45.1503467" lon="8.2754933"><ele>184.0</ele><time>2026-04-25T09:30:16.974Z</time></trkpt><trkpt lat="45.15031" lon="8.27588"><ele>184.0</ele><time>2026-04-25T09:30:17.973Z</time></trkpt><trkpt lat="45.1502717" lon="8.2762517"><ele>182.5</ele><time>2026-04-25T09:30:18.973Z</time></trkpt><trkpt lat="45.15024" lon="8.2766183"><ele>181.0</ele><time>2026-04-25T09:30:19.973Z</time></trkpt><trkpt lat="45.1502317" lon="8.27698"><ele>182.0</ele><time>2026-04-25T09:30:20.974Z</time></trkpt><trkpt lat="45.1502367" lon="8.2773533"><ele>183.0</ele><time>2026-04-25T09:30:21.973Z</time></trkpt><trkpt lat="45.1502367" lon="8.2777583"><ele>182.5</ele><time>2026-04-25T09:30:22.973Z</time></trkpt><trkpt lat="45.1502267" lon="8.2781567"><ele>182.0</ele><time>2026-04-25T09:30:23.973Z</time></trkpt><trkpt lat="45.1502117" lon="8.278525"><ele>182.0</ele><time>2026-04-25T09:30:24.973Z</time></trkpt><trkpt lat="45.1501917" lon="8.2788683"><ele>182.0</ele><time>2026-04-25T09:30:25.973Z</time></trkpt><trkpt lat="45.1501883" lon="8.2791683"><ele>181.33333333333331</ele><time>2026-04-25T09:30:26.973Z</time></trkpt><trkpt lat="45.1502017" lon="8.2794667"><ele>180.66666666666666</ele><time>2026-04-25T09:30:27.973Z</time></trkpt><trkpt lat="45.1502483" lon="8.2797667"><ele>180.0</ele><time>2026-04-25T09:30:28.973Z</time></trkpt><trkpt lat="45.150335" lon="8.2800867"><ele>179.0</ele><time>2026-04-25T09:30:29.974Z</time></trkpt><trkpt lat="45.1504267" lon="8.280435"><ele>178.0</ele><time>2026-04-25T09:30:30.973Z</time></trkpt><trkpt lat="45.150525" lon="8.2808017"><ele>177.0</ele><time>2026-04-25T09:30:31.973Z</time></trkpt><trkpt lat="45.1506183" lon="8.2811917"><ele>176.0</ele><time>2026-04-25T09:30:32.973Z</time></trkpt><trkpt lat="45.1507033" lon="8.281595"><ele>176.0</ele><time>2026-04-25T09:30:33.973Z</time></trkpt><trkpt lat="45.15079" lon="8.2819833"><ele>176.0</ele><time>2026-04-25T09:30:34.973Z</time></trkpt><trkpt lat="45.1508783" lon="8.28237"><ele>176.5</ele><time>2026-04-25T09:30:35.973Z</time></trkpt><trkpt lat="45.1509617" lon="8.2827683"><ele>177.0</ele><time>2026-04-25T09:30:36.974Z</time></trkpt><trkpt lat="45.1510467" lon="8.2831583"><ele>177.0</ele><time>2026-04-25T09:30:37.974Z</time></trkpt><trkpt lat="45.1511333" lon="8.2835483"><ele>177.0</ele><time>2026-04-25T09:30:38.973Z</time></trkpt><trkpt lat="45.15122" lon="8.2839367"><ele>175.5</ele><time>2026-04-25T09:30:39.974Z</time></trkpt><trkpt lat="45.15132" lon="8.2843233"><ele>174.0</ele><time>2026-04-25T09:30:40.974Z</time></trkpt><trkpt lat="45.151405" lon="8.28472"><ele>173.5</ele><time>2026-04-25T09:30:41.973Z</time></trkpt><trkpt lat="45.1515033" lon="8.2851033"><ele>173.0</ele><time>2026-04-25T09:30:42.973Z</time></trkpt><trkpt lat="45.151585" lon="8.28548"><ele>174.0</ele><time>2026-04-25T09:30:43.973Z</time></trkpt><trkpt lat="45.1516733" lon="8.285845"><ele>175.0</ele><time>2026-04-25T09:30:44.974Z</time></trkpt><trkpt lat="45.15176" lon="8.2862183"><ele>173.5</ele><time>2026-04-25T09:30:45.973Z</time></trkpt><trkpt lat="45.1518417" lon="8.286585"><ele>172.0</ele><time>2026-04-25T09:30:46.973Z</time></trkpt><trkpt lat="45.1519233" lon="8.2869467"><ele>171.5</ele><time>2026-04-25T09:30:47.973Z</time></trkpt><trkpt lat="45.151995" lon="8.2873233"><ele>171.0</ele><time>2026-04-25T09:30:48.973Z</time></trkpt><trkpt lat="45.1520667" lon="8.287695"><ele>171.0</ele><time>2026-04-25T09:30:49.973Z</time></trkpt><trkpt lat="45.1521333" lon="8.288045"><ele>171.0</ele><time>2026-04-25T09:30:50.973Z</time></trkpt><trkpt lat="45.1522083" lon="8.2883533"><ele>170.33333333333334</ele><time>2026-04-25T09:30:51.973Z</time></trkpt><trkpt lat="45.1522683" lon="8.2886417"><ele>169.66666666666669</ele><time>2026-04-25T09:30:52.974Z</time></trkpt><trkpt lat="45.15232" lon="8.2889217"><ele>169.0</ele><time>2026-04-25T09:30:53.973Z</time></trkpt><trkpt lat="45.1523683" lon="8.2892017"><ele>169.66666666666669</ele><time>2026-04-25T09:30:54.974Z</time></trkpt><trkpt lat="45.152405" lon="8.2894883"><ele>170.33333333333334</ele><time>2026-04-25T09:30:55.974Z</time></trkpt><trkpt lat="45.1524267" lon="8.2897983"><ele>171.0</ele><time>2026-04-25T09:30:56.973Z</time></trkpt><trkpt lat="45.1524567" lon="8.2901083"><ele>170.0</ele><time>2026-04-25T09:30:57.973Z</time></trkpt><trkpt lat="45.1524817" lon="8.2903933"><ele>169.0</ele><time>2026-04-25T09:30:58.973Z</time></trkpt><trkpt lat="45.1524983" lon="8.2906533"><ele>168.0</ele><time>2026-04-25T09:30:59.973Z</time></trkpt><trkpt lat="45.1525017" lon="8.29089"><ele>168.0</ele><time>2026-04-25T09:31:00.973Z</time></trkpt><trkpt lat="45.1524667" lon="8.2911117"><ele>168.0</ele><time>2026-04-25T09:31:01.973Z</time></trkpt><trkpt lat="45.1523933" lon="8.29133"><ele>168.0</ele><time>2026-04-25T09:31:02.973Z</time></trkpt><trkpt lat="45.1523017" lon="8.291545"><ele>169.5</ele><time>2026-04-25T09:31:03.973Z</time></trkpt><trkpt lat="45.1521583" lon="8.2918333"><ele>171.0</ele><time>2026-04-25T09:31:04.973Z</time></trkpt><trkpt lat="45.1520233" lon="8.2921533"><ele>169.0</ele><time>2026-04-25T09:31:05.973Z</time></trkpt><trkpt lat="45.1519067" lon="8.2925083"><ele>167.0</ele><time>2026-04-25T09:31:06.974Z</time></trkpt><trkpt lat="45.1518017" lon="8.2928367"><ele>166.0</ele><time>2026-04-25T09:31:07.973Z</time></trkpt><trkpt lat="45.151705" lon="8.2931467"><ele>165.0</ele><time>2026-04-25T09:31:08.973Z</time></trkpt><trkpt lat="45.15161" lon="8.2934517"><ele>165.0</ele><time>2026-04-25T09:31:09.974Z</time></trkpt><trkpt lat="45.151525" lon="8.29372"><ele>165.0</ele><time>2026-04-25T09:31:10.974Z</time></trkpt><trkpt lat="45.1514617" lon="8.2939733"><ele>165.0</ele><time>2026-04-25T09:31:11.973Z</time></trkpt><trkpt lat="45.151425" lon="8.294245"><ele>163.66666666666666</ele><time>2026-04-25T09:31:12.973Z</time></trkpt><trkpt lat="45.1514283" lon="8.2945117"><ele>162.33333333333331</ele><time>2026-04-25T09:31:13.973Z</time></trkpt><trkpt lat="45.151435" lon="8.2947517"><ele>161.0</ele><time>2026-04-25T09:31:14.973Z</time></trkpt><trkpt lat="45.1514133" lon="8.2949883"><ele>161.0</ele><time>2026-04-25T09:31:15.974Z</time></trkpt><trkpt lat="45.151355" lon="8.2952117"><ele>161.0</ele><time>2026-04-25T09:31:16.973Z</time></trkpt><trkpt lat="45.15129" lon="8.2954517"><ele>161.0</ele><time>2026-04-25T09:31:17.973Z</time></trkpt><trkpt lat="45.15118" lon="8.2956817"><ele>161.5</ele><time>2026-04-25T09:31:18.973Z</time></trkpt><trkpt lat="45.1510283" lon="8.2959333"><ele>162.0</ele><time>2026-04-25T09:31:19.974Z</time></trkpt><trkpt lat="45.150875" lon="8.2961767"><ele>162.5</ele><time>2026-04-25T09:31:20.973Z</time></trkpt><trkpt lat="45.1507167" lon="8.2964417"><ele>163.0</ele><time>2026-04-25T09:31:21.974Z</time></trkpt><trkpt lat="45.1505667" lon="8.2967467"><ele>162.5</ele><time>2026-04-25T09:31:22.974Z</time></trkpt><trkpt lat="45.1504233" lon="8.2970833"><ele>162.0</ele><time>2026-04-25T09:31:23.974Z</time></trkpt><trkpt lat="45.1502767" lon="8.29742"><ele>162.0</ele><time>2026-04-25T09:31:24.973Z</time></trkpt><trkpt lat="45.1501283" lon="8.29776"><ele>162.0</ele><time>2026-04-25T09:31:25.974Z</time></trkpt><trkpt lat="45.1499717" lon="8.2980967"><ele>162.0</ele><time>2026-04-25T09:31:26.973Z</time></trkpt><trkpt lat="45.1498133" lon="8.2984317"><ele>162.0</ele><time>2026-04-25T09:31:27.973Z</time></trkpt><trkpt lat="45.1496533" lon="8.298775"><ele>160.5</ele><time>2026-04-25T09:31:28.974Z</time></trkpt><trkpt lat="45.149505" lon="8.299115"><ele>159.0</ele><time>2026-04-25T09:31:29.973Z</time></trkpt><trkpt lat="45.1493517" lon="8.29944"><ele>160.0</ele><time>2026-04-25T09:31:30.973Z</time></trkpt><trkpt lat="45.149195" lon="8.299765"><ele>161.0</ele><time>2026-04-25T09:31:31.974Z</time></trkpt><trkpt lat="45.1490467" lon="8.300075"><ele>160.5</ele><time>2026-04-25T09:31:32.974Z</time></trkpt><trkpt lat="45.1488867" lon="8.3003917"><ele>160.0</ele><time>2026-04-25T09:31:33.973Z</time></trkpt><trkpt lat="45.1487283" lon="8.3006983"><ele>160.0</ele><time>2026-04-25T09:31:34.974Z</time></trkpt><trkpt lat="45.1485533" lon="8.3009783"><ele>160.0</ele><time>2026-04-25T09:31:35.974Z</time></trkpt><trkpt lat="45.1483733" lon="8.30124"><ele>160.5</ele><time>2026-04-25T09:31:36.974Z</time></trkpt><trkpt lat="45.1481933" lon="8.3015167"><ele>161.0</ele><time>2026-04-25T09:31:37.973Z</time></trkpt><trkpt lat="45.14799" lon="8.3017683"><ele>161.0</ele><time>2026-04-25T09:31:38.973Z</time></trkpt><trkpt lat="45.1477833" lon="8.3020067"><ele>161.0</ele><time>2026-04-25T09:31:39.974Z</time></trkpt><trkpt lat="45.1475883" lon="8.3022367"><ele>160.0</ele><time>2026-04-25T09:31:40.974Z</time></trkpt><trkpt lat="45.1474117" lon="8.302445"><ele>159.0</ele><time>2026-04-25T09:31:41.974Z</time></trkpt><trkpt lat="45.14724" lon="8.3026683"><ele>159.0</ele><time>2026-04-25T09:31:42.974Z</time></trkpt><trkpt lat="45.1470933" lon="8.3028717"><ele>159.0</ele><time>2026-04-25T09:31:43.974Z</time></trkpt><trkpt lat="45.14696" lon="8.3030883"><ele>159.0</ele><time>2026-04-25T09:31:44.974Z</time></trkpt><trkpt lat="45.1468233" lon="8.3033183"><ele>159.0</ele><time>2026-04-25T09:31:45.974Z</time></trkpt><trkpt lat="45.1466867" lon="8.3035817"><ele>159.0</ele><time>2026-04-25T09:31:46.974Z</time></trkpt><trkpt lat="45.14656" lon="8.3038717"><ele>156.5</ele><time>2026-04-25T09:31:47.973Z</time></trkpt><trkpt lat="45.1464433" lon="8.3041883"><ele>154.0</ele><time>2026-04-25T09:31:48.974Z</time></trkpt><trkpt lat="45.1463367" lon="8.3045383"><ele>154.5</ele><time>2026-04-25T09:31:49.974Z</time></trkpt><trkpt lat="45.1462267" lon="8.3049"><ele>155.0</ele><time>2026-04-25T09:31:50.973Z</time></trkpt><trkpt lat="45.146115" lon="8.3052733"><ele>155.0</ele><time>2026-04-25T09:31:51.974Z</time></trkpt><trkpt lat="45.1460117" lon="8.3056483"><ele>155.0</ele><time>2026-04-25T09:31:52.974Z</time></trkpt><trkpt lat="45.1459083" lon="8.3060033"><ele>155.0</ele><time>2026-04-25T09:31:53.973Z</time></trkpt><trkpt lat="45.1458067" lon="8.3063683"><ele>155.0</ele><time>2026-04-25T09:31:54.974Z</time></trkpt><trkpt lat="45.1457183" lon="8.3066983"><ele>154.33333333333331</ele><time>2026-04-25T09:31:55.973Z</time></trkpt><trkpt lat="45.1456417" lon="8.3069983"><ele>153.66666666666666</ele><time>2026-04-25T09:31:56.973Z</time></trkpt><trkpt lat="45.1455583" lon="8.3072767"><ele>153.0</ele><time>2026-04-25T09:31:57.973Z</time></trkpt><trkpt lat="45.1454467" lon="8.3075317"><ele>153.0</ele><time>2026-04-25T09:31:58.974Z</time></trkpt><trkpt lat="45.1452967" lon="8.3077633"><ele>153.0</ele><time>2026-04-25T09:31:59.973Z</time></trkpt><trkpt lat="45.1451017" lon="8.30796"><ele>153.5</ele><time>2026-04-25T09:32:00.974Z</time></trkpt><trkpt lat="45.1449067" lon="8.3081867"><ele>154.0</ele><time>2026-04-25T09:32:01.973Z</time></trkpt><trkpt lat="45.144695" lon="8.3084383"><ele>155.0</ele><time>2026-04-25T09:32:02.973Z</time></trkpt><trkpt lat="45.14448" lon="8.308695"><ele>156.0</ele><time>2026-04-25T09:32:03.973Z</time></trkpt><trkpt lat="45.1442567" lon="8.3089583"><ele>153.0</ele><time>2026-04-25T09:32:04.974Z</time></trkpt><trkpt lat="45.1440383" lon="8.309225"><ele>150.0</ele><time>2026-04-25T09:32:05.973Z</time></trkpt><trkpt lat="45.1438267" lon="8.3094883"><ele>151.0</ele><time>2026-04-25T09:32:06.973Z</time></trkpt><trkpt lat="45.1436217" lon="8.3097533"><ele>152.0</ele><time>2026-04-25T09:32:07.973Z</time></trkpt><trkpt lat="45.1434233" lon="8.3100067"><ele>152.0</ele><time>2026-04-25T09:32:08.974Z</time></trkpt><trkpt lat="45.14322" lon="8.3102417"><ele>152.0</ele><time>2026-04-25T09:32:09.974Z</time></trkpt><trkpt lat="45.1430033" lon="8.3104783"><ele>150.0</ele><time>2026-04-25T09:32:10.973Z</time></trkpt><trkpt lat="45.1428167" lon="8.310725"><ele>148.0</ele><time>2026-04-25T09:32:11.973Z</time></trkpt><trkpt lat="45.142645" lon="8.3109833"><ele>148.0</ele><time>2026-04-25T09:32:12.973Z</time></trkpt><trkpt lat="45.14249" lon="8.31128"><ele>148.0</ele><time>2026-04-25T09:32:13.973Z</time></trkpt><trkpt lat="45.14235" lon="8.3116033"><ele>147.0</ele><time>2026-04-25T09:32:14.973Z</time></trkpt><trkpt lat="45.1422333" lon="8.3119517"><ele>146.0</ele><time>2026-04-25T09:32:15.973Z</time></trkpt><trkpt lat="45.14213" lon="8.312305"><ele>146.0</ele><time>2026-04-25T09:32:16.974Z</time></trkpt><trkpt lat="45.1420217" lon="8.3126633"><ele>146.0</ele><time>2026-04-25T09:32:17.973Z</time></trkpt><trkpt lat="45.1418983" lon="8.3130267"><ele>146.0</ele><time>2026-04-25T09:32:18.973Z</time></trkpt><trkpt lat="45.141765" lon="8.3133983"><ele>146.0</ele><time>2026-04-25T09:32:19.973Z</time></trkpt><trkpt lat="45.141625" lon="8.31378"><ele>146.5</ele><time>2026-04-25T09:32:20.973Z</time></trkpt><trkpt lat="45.1414933" lon="8.31417"><ele>147.0</ele><time>2026-04-25T09:32:21.974Z</time></trkpt><trkpt lat="45.1413617" lon="8.3145533"><ele>146.5</ele><time>2026-04-25T09:32:22.973Z</time></trkpt><trkpt lat="45.14122" lon="8.3149317"><ele>146.0</ele><time>2026-04-25T09:32:23.973Z</time></trkpt><trkpt lat="45.1410833" lon="8.315315"><ele>146.0</ele><time>2026-04-25T09:32:24.973Z</time></trkpt><trkpt lat="45.1409533" lon="8.3156833"><ele>146.0</ele><time>2026-04-25T09:32:25.973Z</time></trkpt><trkpt lat="45.140815" lon="8.3160617"><ele>146.0</ele><time>2026-04-25T09:32:26.974Z</time></trkpt><trkpt lat="45.1406767" lon="8.3164367"><ele>146.0</ele><time>2026-04-25T09:32:27.973Z</time></trkpt><trkpt lat="45.1405533" lon="8.3168017"><ele>146.0</ele><time>2026-04-25T09:32:28.974Z</time></trkpt><trkpt lat="45.1404383" lon="8.3171967"><ele>146.0</ele><time>2026-04-25T09:32:29.973Z</time></trkpt><trkpt lat="45.1403367" lon="8.3175817"><ele>144.5</ele><time>2026-04-25T09:32:30.973Z</time></trkpt><trkpt lat="45.140245" lon="8.3179483"><ele>143.0</ele><time>2026-04-25T09:32:31.973Z</time></trkpt><trkpt lat="45.1401767" lon="8.3183317"><ele>143.0</ele><time>2026-04-25T09:32:32.973Z</time></trkpt><trkpt lat="45.140125" lon="8.3187133"><ele>143.0</ele><time>2026-04-25T09:32:33.974Z</time></trkpt><trkpt lat="45.14008" lon="8.3191017"><ele>142.0</ele><time>2026-04-25T09:32:34.973Z</time></trkpt><trkpt lat="45.1400567" lon="8.31949"><ele>141.0</ele><time>2026-04-25T09:32:35.974Z</time></trkpt><trkpt lat="45.1400517" lon="8.319895"><ele>141.0</ele><time>2026-04-25T09:32:36.973Z</time></trkpt><trkpt lat="45.14005" lon="8.3203033"><ele>141.0</ele><time>2026-04-25T09:32:37.974Z</time></trkpt><trkpt lat="45.14006" lon="8.3207017"><ele>141.0</ele><time>2026-04-25T09:32:38.974Z</time></trkpt><trkpt lat="45.140075" lon="8.3211033"><ele>141.0</ele><time>2026-04-25T09:32:39.974Z</time></trkpt><trkpt lat="45.140095" lon="8.3214933"><ele>140.5</ele><time>2026-04-25T09:32:40.974Z</time></trkpt><trkpt lat="45.1401083" lon="8.3218967"><ele>140.0</ele><time>2026-04-25T09:32:41.974Z</time></trkpt><trkpt lat="45.1401267" lon="8.3222883"><ele>139.5</ele><time>2026-04-25T09:32:42.974Z</time></trkpt><trkpt lat="45.1401317" lon="8.32266"><ele>139.0</ele><time>2026-04-25T09:32:43.973Z</time></trkpt><trkpt lat="45.1401367" lon="8.323015"><ele>139.0</ele><time>2026-04-25T09:32:44.973Z</time></trkpt><trkpt lat="45.14014" lon="8.3233567"><ele>139.0</ele><time>2026-04-25T09:32:45.973Z</time></trkpt><trkpt lat="45.1401517" lon="8.3236717"><ele>139.66666666666669</ele><time>2026-04-25T09:32:46.973Z</time></trkpt><trkpt lat="45.140165" lon="8.3239933"><ele>140.33333333333334</ele><time>2026-04-25T09:32:47.973Z</time></trkpt><trkpt lat="45.1402033" lon="8.3243017"><ele>141.0</ele><time>2026-04-25T09:32:48.974Z</time></trkpt><trkpt lat="45.1402533" lon="8.324585"><ele>141.0</ele><time>2026-04-25T09:32:49.973Z</time></trkpt><trkpt lat="45.1403" lon="8.3248517"><ele>141.0</ele><time>2026-04-25T09:32:50.973Z</time></trkpt><trkpt lat="45.1403467" lon="8.3251117"><ele>141.0</ele><time>2026-04-25T09:32:51.974Z</time></trkpt><trkpt lat="45.14039" lon="8.3253567"><ele>140.66666666666666</ele><time>2026-04-25T09:32:52.973Z</time></trkpt><trkpt lat="45.1404283" lon="8.32557"><ele>140.33333333333331</ele><time>2026-04-25T09:32:53.973Z</time></trkpt><trkpt lat="45.1404633" lon="8.3257733"><ele>140.0</ele><time>2026-04-25T09:32:54.974Z</time></trkpt><trkpt lat="45.1404983" lon="8.3259783"><ele>140.0</ele><time>2026-04-25T09:32:55.974Z</time></trkpt><trkpt lat="45.140535" lon="8.326185"><ele>140.0</ele><time>2026-04-25T09:32:56.973Z</time></trkpt><trkpt lat="45.1405917" lon="8.326405"><ele>140.0</ele><time>2026-04-25T09:32:57.973Z</time></trkpt><trkpt lat="45.140665" lon="8.3266217"><ele>141.66666666666666</ele><time>2026-04-25T09:32:58.973Z</time></trkpt><trkpt lat="45.140755" lon="8.3268383"><ele>143.33333333333334</ele><time>2026-04-25T09:32:59.974Z</time></trkpt><trkpt lat="45.1408533" lon="8.32704"><ele>145.0</ele><time>2026-04-25T09:33:00.973Z</time></trkpt><trkpt lat="45.140955" lon="8.3272333"><ele>145.0</ele><time>2026-04-25T09:33:01.973Z</time></trkpt><trkpt lat="45.1410567" lon="8.32742"><ele>145.0</ele><time>2026-04-25T09:33:02.974Z</time></trkpt><trkpt lat="45.141165" lon="8.3276067"><ele>145.0</ele><time>2026-04-25T09:33:03.973Z</time></trkpt><trkpt lat="45.141275" lon="8.32779"><ele>145.0</ele><time>2026-04-25T09:33:04.974Z</time></trkpt><trkpt lat="45.1413717" lon="8.32798"><ele>145.0</ele><time>2026-04-25T09:33:05.974Z</time></trkpt><trkpt lat="45.1414717" lon="8.3281683"><ele>145.0</ele><time>2026-04-25T09:33:06.974Z</time></trkpt><trkpt lat="45.14156" lon="8.3283483"><ele>145.25</ele><time>2026-04-25T09:33:07.974Z</time></trkpt><trkpt lat="45.14165" lon="8.32851"><ele>145.5</ele><time>2026-04-25T09:33:08.973Z</time></trkpt><trkpt lat="45.141735" lon="8.3286733"><ele>145.75</ele><time>2026-04-25T09:33:09.973Z</time></trkpt><trkpt lat="45.1418067" lon="8.3288517"><ele>146.0</ele><time>2026-04-25T09:33:10.973Z</time></trkpt><trkpt lat="45.1418917" lon="8.3289967"><ele>146.0</ele><time>2026-04-25T09:33:11.973Z</time></trkpt><trkpt lat="45.1419817" lon="8.329125"><ele>146.0</ele><time>2026-04-25T09:33:12.973Z</time></trkpt><trkpt lat="45.1420633" lon="8.32926"><ele>146.0</ele><time>2026-04-25T09:33:13.973Z</time></trkpt><trkpt lat="45.14214" lon="8.329375"><ele>146.0</ele><time>2026-04-25T09:33:14.973Z</time></trkpt><trkpt lat="45.142195" lon="8.3294733"><ele>146.0</ele><time>2026-04-25T09:33:15.974Z</time></trkpt><trkpt lat="45.142255" lon="8.3295917"><ele>146.0</ele><time>2026-04-25T09:33:17.974Z</time></trkpt><trkpt lat="45.1421833" lon="8.3297167"><ele>146.0</ele><time>2026-04-25T09:33:19.973Z</time></trkpt><trkpt lat="45.14209" lon="8.3297883"><ele>146.0</ele><time>2026-04-25T09:33:20.974Z</time></trkpt><trkpt lat="45.141945" lon="8.3298783"><ele>145.75</ele><time>2026-04-25T09:33:21.974Z</time></trkpt><trkpt lat="45.141835" lon="8.32998"><ele>145.5</ele><time>2026-04-25T09:33:22.973Z</time></trkpt><trkpt lat="45.14174" lon="8.3300967"><ele>145.25</ele><time>2026-04-25T09:33:23.974Z</time></trkpt><trkpt lat="45.1416333" lon="8.3302383"><ele>145.0</ele><time>2026-04-25T09:33:24.973Z</time></trkpt><trkpt lat="45.1415533" lon="8.3304117"><ele>143.66666666666669</ele><time>2026-04-25T09:33:25.973Z</time></trkpt><trkpt lat="45.1415183" lon="8.3306283"><ele>142.33333333333334</ele><time>2026-04-25T09:33:26.973Z</time></trkpt><trkpt lat="45.1415183" lon="8.3308367"><ele>141.0</ele><time>2026-04-25T09:33:27.973Z</time></trkpt><trkpt lat="45.14153" lon="8.3310467"><ele>141.66666666666666</ele><time>2026-04-25T09:33:28.973Z</time></trkpt><trkpt lat="45.1415683" lon="8.3312483"><ele>142.33333333333331</ele><time>2026-04-25T09:33:29.973Z</time></trkpt><trkpt lat="45.1415883" lon="8.3314717"><ele>143.0</ele><time>2026-04-25T09:33:30.974Z</time></trkpt><trkpt lat="45.1416283" lon="8.3317067"><ele>143.0</ele><time>2026-04-25T09:33:31.973Z</time></trkpt><trkpt lat="45.1416667" lon="8.3319383"><ele>143.0</ele><time>2026-04-25T09:33:32.974Z</time></trkpt><trkpt lat="45.1417183" lon="8.33217"><ele>143.0</ele><time>2026-04-25T09:33:33.973Z</time></trkpt><trkpt lat="45.1417583" lon="8.3324"><ele>142.66666666666666</ele><time>2026-04-25T09:33:34.973Z</time></trkpt><trkpt lat="45.141805" lon="8.3326217"><ele>142.33333333333334</ele><time>2026-04-25T09:33:35.973Z</time></trkpt><trkpt lat="45.1418483" lon="8.3328333"><ele>142.0</ele><time>2026-04-25T09:33:36.974Z</time></trkpt><trkpt lat="45.1418817" lon="8.3330467"><ele>141.66666666666669</ele><time>2026-04-25T09:33:37.973Z</time></trkpt><trkpt lat="45.1419133" lon="8.333265"><ele>141.33333333333334</ele><time>2026-04-25T09:33:38.973Z</time></trkpt><trkpt lat="45.1419417" lon="8.3334767"><ele>141.0</ele><time>2026-04-25T09:33:39.973Z</time></trkpt><trkpt lat="45.1419767" lon="8.3336883"><ele>140.5</ele><time>2026-04-25T09:33:40.974Z</time></trkpt><trkpt lat="45.14202" lon="8.33389"><ele>140.0</ele><time>2026-04-25T09:33:41.973Z</time></trkpt><trkpt lat="45.14206" lon="8.3341017"><ele>139.5</ele><time>2026-04-25T09:33:42.974Z</time></trkpt><trkpt lat="45.1421033" lon="8.3342967"><ele>139.0</ele><time>2026-04-25T09:33:43.974Z</time></trkpt><trkpt lat="45.14214" lon="8.3344883"><ele>139.0</ele><time>2026-04-25T09:33:44.973Z</time></trkpt><trkpt lat="45.142175" lon="8.33464"><ele>139.0</ele><time>2026-04-25T09:33:45.974Z</time></trkpt><trkpt lat="45.1422017" lon="8.334745"><ele>139.0</ele><time>2026-04-25T09:33:46.973Z</time></trkpt><trkpt lat="45.14225" lon="8.334885"><ele>139.0</ele><time>2026-04-25T09:33:48.974Z</time></trkpt><trkpt lat="45.1422983" lon="8.3350483"><ele>139.0</ele><time>2026-04-25T09:33:50.973Z</time></trkpt><trkpt lat="45.1423283" lon="8.335165"><ele>139.0</ele><time>2026-04-25T09:33:51.973Z</time></trkpt><trkpt lat="45.1423567" lon="8.3353083"><ele>139.0</ele><time>2026-04-25T09:33:52.973Z</time></trkpt><trkpt lat="45.1423817" lon="8.3355033"><ele>139.0</ele><time>2026-04-25T09:33:53.973Z</time></trkpt><trkpt lat="45.1424" lon="8.3357367"><ele>139.0</ele><time>2026-04-25T09:33:54.973Z</time></trkpt><trkpt lat="45.142365" lon="8.33597"><ele>138.33333333333334</ele><time>2026-04-25T09:33:55.974Z</time></trkpt><trkpt lat="45.1423417" lon="8.336205"><ele>137.66666666666666</ele><time>2026-04-25T09:33:56.973Z</time></trkpt><trkpt lat="45.1422817" lon="8.3364333"><ele>137.0</ele><time>2026-04-25T09:33:57.973Z</time></trkpt><trkpt lat="45.1422067" lon="8.3366583"><ele>136.33333333333331</ele><time>2026-04-25T09:33:58.974Z</time></trkpt><trkpt lat="45.142145" lon="8.3369"><ele>135.66666666666666</ele><time>2026-04-25T09:33:59.973Z</time></trkpt><trkpt lat="45.1420817" lon="8.33714"><ele>135.0</ele><time>2026-04-25T09:34:00.973Z</time></trkpt><trkpt lat="45.142015" lon="8.3373833"><ele>134.0</ele><time>2026-04-25T09:34:01.973Z</time></trkpt><trkpt lat="45.1419467" lon="8.3376233"><ele>133.0</ele><time>2026-04-25T09:34:02.973Z</time></trkpt><trkpt lat="45.1418867" lon="8.3378667"><ele>132.0</ele><time>2026-04-25T09:34:03.973Z</time></trkpt><trkpt lat="45.1418183" lon="8.3381117"><ele>131.66666666666666</ele><time>2026-04-25T09:34:04.973Z</time></trkpt><trkpt lat="45.14175" lon="8.3383633"><ele>131.33333333333331</ele><time>2026-04-25T09:34:05.973Z</time></trkpt><trkpt lat="45.1417067" lon="8.3386267"><ele>131.0</ele><time>2026-04-25T09:34:06.973Z</time></trkpt><trkpt lat="45.1416317" lon="8.3388733"><ele>131.33333333333331</ele><time>2026-04-25T09:34:07.973Z</time></trkpt><trkpt lat="45.1415633" lon="8.3391167"><ele>131.66666666666666</ele><time>2026-04-25T09:34:08.973Z</time></trkpt><trkpt lat="45.1414933" lon="8.3393583"><ele>132.0</ele><time>2026-04-25T09:34:09.973Z</time></trkpt><trkpt lat="45.1414267" lon="8.3396083"><ele>130.66666666666666</ele><time>2026-04-25T09:34:10.973Z</time></trkpt><trkpt lat="45.1413633" lon="8.339865"><ele>129.33333333333331</ele><time>2026-04-25T09:34:11.973Z</time></trkpt><trkpt lat="45.141295" lon="8.3401133"><ele>128.0</ele><time>2026-04-25T09:34:12.973Z</time></trkpt><trkpt lat="45.141235" lon="8.3403383"><ele>128.0</ele><time>2026-04-25T09:34:13.973Z</time></trkpt><trkpt lat="45.1411733" lon="8.34057"><ele>128.0</ele><time>2026-04-25T09:34:14.973Z</time></trkpt><trkpt lat="45.1411133" lon="8.3407983"><ele>128.0</ele><time>2026-04-25T09:34:15.973Z</time></trkpt><trkpt lat="45.1410533" lon="8.3410033"><ele>128.0</ele><time>2026-04-25T09:34:16.974Z</time></trkpt><trkpt lat="45.1409983" lon="8.3411917"><ele>128.0</ele><time>2026-04-25T09:34:17.973Z</time></trkpt><trkpt lat="45.1409483" lon="8.3413683"><ele>128.0</ele><time>2026-04-25T09:34:18.973Z</time></trkpt><trkpt lat="45.1409133" lon="8.34151"><ele>128.0</ele><time>2026-04-25T09:34:19.973Z</time></trkpt><trkpt lat="45.140885" lon="8.3416233"><ele>128.0</ele><time>2026-04-25T09:34:20.973Z</time></trkpt><trkpt lat="45.140875" lon="8.3417133"><ele>128.0</ele><time>2026-04-25T09:34:21.973Z</time></trkpt><trkpt lat="45.1409583" lon="8.3418383"><ele>128.0</ele><time>2026-04-25T09:34:23.973Z</time></trkpt><trkpt lat="45.14105" lon="8.341865"><ele>128.0</ele><time>2026-04-25T09:34:24.974Z</time></trkpt><trkpt lat="45.1411683" lon="8.3418983"><ele>128.0</ele><time>2026-04-25T09:34:25.974Z</time></trkpt><trkpt lat="45.1413333" lon="8.341955"><ele>128.0</ele><time>2026-04-25T09:34:26.973Z</time></trkpt><trkpt lat="45.14149" lon="8.34206"><ele>128.0</ele><time>2026-04-25T09:34:27.974Z</time></trkpt><trkpt lat="45.14161" lon="8.3422383"><ele>128.0</ele><time>2026-04-25T09:34:28.973Z</time></trkpt><trkpt lat="45.1416767" lon="8.3424583"><ele>128.0</ele><time>2026-04-25T09:34:29.973Z</time></trkpt><trkpt lat="45.1416867" lon="8.342695"><ele>128.0</ele><time>2026-04-25T09:34:30.974Z</time></trkpt><trkpt lat="45.14167" lon="8.342925"><ele>128.0</ele><time>2026-04-25T09:34:31.973Z</time></trkpt><trkpt lat="45.1416183" lon="8.3431567"><ele>128.33333333333331</ele><time>2026-04-25T09:34:32.973Z</time></trkpt><trkpt lat="45.1415267" lon="8.3433883"><ele>128.66666666666666</ele><time>2026-04-25T09:34:33.973Z</time></trkpt><trkpt lat="45.1414033" lon="8.3435833"><ele>129.0</ele><time>2026-04-25T09:34:34.973Z</time></trkpt><trkpt lat="45.1412417" lon="8.3437467"><ele>129.0</ele><time>2026-04-25T09:34:35.974Z</time></trkpt><trkpt lat="45.14107" lon="8.343875"><ele>129.0</ele><time>2026-04-25T09:34:36.974Z</time></trkpt><trkpt lat="45.1408767" lon="8.3439967"><ele>129.0</ele><time>2026-04-25T09:34:37.974Z</time></trkpt><trkpt lat="45.1406633" lon="8.3440733"><ele>128.66666666666666</ele><time>2026-04-25T09:34:38.973Z</time></trkpt><trkpt lat="45.1404433" lon="8.3441333"><ele>128.33333333333331</ele><time>2026-04-25T09:34:39.973Z</time></trkpt><trkpt lat="45.1402283" lon="8.3442133"><ele>128.0</ele><time>2026-04-25T09:34:40.973Z</time></trkpt><trkpt lat="45.14" lon="8.3442933"><ele>127.5</ele><time>2026-04-25T09:34:41.974Z</time></trkpt><trkpt lat="45.1397533" lon="8.34435"><ele>127.0</ele><time>2026-04-25T09:34:42.973Z</time></trkpt><trkpt lat="45.139495" lon="8.3443817"><ele>127.0</ele><time>2026-04-25T09:34:43.974Z</time></trkpt><trkpt lat="45.1392533" lon="8.3443833"><ele>127.0</ele><time>2026-04-25T09:34:44.974Z</time></trkpt><trkpt lat="45.1390167" lon="8.3443833"><ele>126.33333333333334</ele><time>2026-04-25T09:34:45.973Z</time></trkpt><trkpt lat="45.1387917" lon="8.34438"><ele>125.66666666666666</ele><time>2026-04-25T09:34:46.973Z</time></trkpt><trkpt lat="45.1385717" lon="8.3443583"><ele>125.0</ele><time>2026-04-25T09:34:47.973Z</time></trkpt><trkpt lat="45.13835" lon="8.344325"><ele>125.0</ele><time>2026-04-25T09:34:48.973Z</time></trkpt><trkpt lat="45.13813" lon="8.3442917"><ele>125.0</ele><time>2026-04-25T09:34:49.973Z</time></trkpt><trkpt lat="45.13791" lon="8.3442517"><ele>125.0</ele><time>2026-04-25T09:34:50.973Z</time></trkpt><trkpt lat="45.1377033" lon="8.3441783"><ele>125.0</ele><time>2026-04-25T09:34:51.973Z</time></trkpt><trkpt lat="45.1375" lon="8.344115"><ele>125.0</ele><time>2026-04-25T09:34:52.974Z</time></trkpt><trkpt lat="45.1372983" lon="8.3440283"><ele>125.0</ele><time>2026-04-25T09:34:53.974Z</time></trkpt><trkpt lat="45.1371017" lon="8.3439367"><ele>125.66666666666666</ele><time>2026-04-25T09:34:54.973Z</time></trkpt><trkpt lat="45.1369067" lon="8.3438483"><ele>126.33333333333334</ele><time>2026-04-25T09:34:55.973Z</time></trkpt><trkpt lat="45.1367133" lon="8.343755"><ele>127.0</ele><time>2026-04-25T09:34:56.972Z</time></trkpt><trkpt lat="45.136525" lon="8.3436517"><ele>127.0</ele><time>2026-04-25T09:34:57.972Z</time></trkpt><trkpt lat="45.136345" lon="8.3435367"><ele>127.0</ele><time>2026-04-25T09:34:58.973Z</time></trkpt><trkpt lat="45.1361567" lon="8.343415"><ele>127.0</ele><time>2026-04-25T09:34:59.973Z</time></trkpt><trkpt lat="45.135945" lon="8.343275"><ele>127.0</ele><time>2026-04-25T09:35:00.972Z</time></trkpt><trkpt lat="45.1357267" lon="8.343115"><ele>127.0</ele><time>2026-04-25T09:35:01.973Z</time></trkpt><trkpt lat="45.1355017" lon="8.342925"><ele>127.0</ele><time>2026-04-25T09:35:02.972Z</time></trkpt><trkpt lat="45.13528" lon="8.3427133"><ele>127.0</ele><time>2026-04-25T09:35:03.972Z</time></trkpt><trkpt lat="45.13507" lon="8.3424967"><ele>127.0</ele><time>2026-04-25T09:35:04.972Z</time></trkpt><trkpt lat="45.13486" lon="8.3422567"><ele>127.0</ele><time>2026-04-25T09:35:05.972Z</time></trkpt><trkpt lat="45.1346583" lon="8.3420083"><ele>127.0</ele><time>2026-04-25T09:35:06.973Z</time></trkpt><trkpt lat="45.13445" lon="8.3417483"><ele>127.0</ele><time>2026-04-25T09:35:07.972Z</time></trkpt><trkpt lat="45.1342483" lon="8.3414817"><ele>128.0</ele><time>2026-04-25T09:35:08.972Z</time></trkpt><trkpt lat="45.1340417" lon="8.3412133"><ele>129.0</ele><time>2026-04-25T09:35:09.972Z</time></trkpt><trkpt lat="45.13384" lon="8.340955"><ele>129.0</ele><time>2026-04-25T09:35:10.972Z</time></trkpt><trkpt lat="45.1336417" lon="8.3407033"><ele>129.0</ele><time>2026-04-25T09:35:11.972Z</time></trkpt><trkpt lat="45.1334383" lon="8.3404567"><ele>130.0</ele><time>2026-04-25T09:35:12.972Z</time></trkpt><trkpt lat="45.1332333" lon="8.3401967"><ele>131.0</ele><time>2026-04-25T09:35:13.972Z</time></trkpt><trkpt lat="45.1330267" lon="8.3399367"><ele>131.5</ele><time>2026-04-25T09:35:14.973Z</time></trkpt><trkpt lat="45.1328217" lon="8.339675"><ele>132.0</ele><time>2026-04-25T09:35:15.972Z</time></trkpt><trkpt lat="45.1326167" lon="8.33942"><ele>132.0</ele><time>2026-04-25T09:35:16.972Z</time></trkpt><trkpt lat="45.1324083" lon="8.3391817"><ele>132.0</ele><time>2026-04-25T09:35:17.972Z</time></trkpt><trkpt lat="45.1321983" lon="8.3389367"><ele>131.0</ele><time>2026-04-25T09:35:18.972Z</time></trkpt><trkpt lat="45.132" lon="8.3386833"><ele>130.0</ele><time>2026-04-25T09:35:19.972Z</time></trkpt><trkpt lat="45.1318017" lon="8.33844"><ele>130.0</ele><time>2026-04-25T09:35:20.972Z</time></trkpt><trkpt lat="45.1315967" lon="8.3381833"><ele>130.0</ele><time>2026-04-25T09:35:21.972Z</time></trkpt><trkpt lat="45.1313917" lon="8.33793"><ele>130.0</ele><time>2026-04-25T09:35:22.972Z</time></trkpt><trkpt lat="45.13118" lon="8.3376883"><ele>130.0</ele><time>2026-04-25T09:35:23.973Z</time></trkpt><trkpt lat="45.1309617" lon="8.33746"><ele>130.0</ele><time>2026-04-25T09:35:24.972Z</time></trkpt><trkpt lat="45.1307367" lon="8.3372417"><ele>130.0</ele><time>2026-04-25T09:35:25.973Z</time></trkpt><trkpt lat="45.13051" lon="8.3370333"><ele>130.0</ele><time>2026-04-25T09:35:26.973Z</time></trkpt><trkpt lat="45.13027" lon="8.3368367"><ele>130.0</ele><time>2026-04-25T09:35:27.972Z</time></trkpt><trkpt lat="45.1300333" lon="8.3366317"><ele>130.0</ele><time>2026-04-25T09:35:28.972Z</time></trkpt><trkpt lat="45.1298083" lon="8.3364133"><ele>130.0</ele><time>2026-04-25T09:35:29.972Z</time></trkpt><trkpt lat="45.1295817" lon="8.3362017"><ele>130.5</ele><time>2026-04-25T09:35:30.972Z</time></trkpt><trkpt lat="45.1293617" lon="8.335975"><ele>131.0</ele><time>2026-04-25T09:35:31.972Z</time></trkpt><trkpt lat="45.1291317" lon="8.3357533"><ele>133.0</ele><time>2026-04-25T09:35:32.973Z</time></trkpt><trkpt lat="45.1289033" lon="8.3355367"><ele>135.0</ele><time>2026-04-25T09:35:33.973Z</time></trkpt><trkpt lat="45.1286767" lon="8.3353267"><ele>135.0</ele><time>2026-04-25T09:35:34.972Z</time></trkpt><trkpt lat="45.1284483" lon="8.3351183"><ele>135.0</ele><time>2026-04-25T09:35:35.972Z</time></trkpt><trkpt lat="45.12822" lon="8.3348883"><ele>136.0</ele><time>2026-04-25T09:35:36.972Z</time></trkpt><trkpt lat="45.1279933" lon="8.3346767"><ele>137.0</ele><time>2026-04-25T09:35:37.972Z</time></trkpt><trkpt lat="45.127755" lon="8.334475"><ele>137.0</ele><time>2026-04-25T09:35:38.972Z</time></trkpt><trkpt lat="45.127535" lon="8.3342633"><ele>137.0</ele><time>2026-04-25T09:35:39.973Z</time></trkpt><trkpt lat="45.1273067" lon="8.3340433"><ele>137.5</ele><time>2026-04-25T09:35:40.972Z</time></trkpt><trkpt lat="45.1270767" lon="8.3338283"><ele>138.0</ele><time>2026-04-25T09:35:41.972Z</time></trkpt><trkpt lat="45.1268583" lon="8.3336017"><ele>138.0</ele><time>2026-04-25T09:35:42.973Z</time></trkpt><trkpt lat="45.12663" lon="8.33338"><ele>138.0</ele><time>2026-04-25T09:35:43.972Z</time></trkpt><trkpt lat="45.1264067" lon="8.333175"><ele>137.5</ele><time>2026-04-25T09:35:44.973Z</time></trkpt><trkpt lat="45.1261833" lon="8.33296"><ele>137.0</ele><time>2026-04-25T09:35:45.973Z</time></trkpt><trkpt lat="45.1259517" lon="8.3327533"><ele>137.5</ele><time>2026-04-25T09:35:46.972Z</time></trkpt><trkpt lat="45.1257283" lon="8.3325517"><ele>138.0</ele><time>2026-04-25T09:35:47.972Z</time></trkpt><trkpt lat="45.1254983" lon="8.3323383"><ele>138.5</ele><time>2026-04-25T09:35:48.973Z</time></trkpt><trkpt lat="45.125275" lon="8.3321283"><ele>139.0</ele><time>2026-04-25T09:35:49.972Z</time></trkpt><trkpt lat="45.1250533" lon="8.331925"><ele>138.5</ele><time>2026-04-25T09:35:50.972Z</time></trkpt><trkpt lat="45.1248217" lon="8.3317083"><ele>138.0</ele><time>2026-04-25T09:35:51.972Z</time></trkpt><trkpt lat="45.1245917" lon="8.331505"><ele>138.5</ele><time>2026-04-25T09:35:52.972Z</time></trkpt><trkpt lat="45.1243583" lon="8.3312883"><ele>139.0</ele><time>2026-04-25T09:35:53.973Z</time></trkpt><trkpt lat="45.12412" lon="8.3310717"><ele>138.5</ele><time>2026-04-25T09:35:54.972Z</time></trkpt><trkpt lat="45.1239" lon="8.330855"><ele>138.0</ele><time>2026-04-25T09:35:55.972Z</time></trkpt><trkpt lat="45.1236733" lon="8.3306383"><ele>138.5</ele><time>2026-04-25T09:35:56.972Z</time></trkpt><trkpt lat="45.1234433" lon="8.3304267"><ele>139.0</ele><time>2026-04-25T09:35:57.972Z</time></trkpt><trkpt lat="45.1232267" lon="8.3302083"><ele>139.0</ele><time>2026-04-25T09:35:58.973Z</time></trkpt><trkpt lat="45.1230017" lon="8.3299883"><ele>139.0</ele><time>2026-04-25T09:35:59.972Z</time></trkpt><trkpt lat="45.122765" lon="8.329795"><ele>139.5</ele><time>2026-04-25T09:36:00.972Z</time></trkpt><trkpt lat="45.1225433" lon="8.3295967"><ele>140.0</ele><time>2026-04-25T09:36:01.972Z</time></trkpt><trkpt lat="45.1223117" lon="8.3293817"><ele>140.0</ele><time>2026-04-25T09:36:02.972Z</time></trkpt><trkpt lat="45.1220783" lon="8.3291667"><ele>140.0</ele><time>2026-04-25T09:36:03.973Z</time></trkpt><trkpt lat="45.121855" lon="8.328945"><ele>141.0</ele><time>2026-04-25T09:36:04.972Z</time></trkpt><trkpt lat="45.1216267" lon="8.3287283"><ele>142.0</ele><time>2026-04-25T09:36:05.972Z</time></trkpt><trkpt lat="45.12141" lon="8.32851"><ele>142.0</ele><time>2026-04-25T09:36:06.972Z</time></trkpt><trkpt lat="45.1211867" lon="8.3282967"><ele>142.0</ele><time>2026-04-25T09:36:07.972Z</time></trkpt><trkpt lat="45.12096" lon="8.328085"><ele>142.0</ele><time>2026-04-25T09:36:08.973Z</time></trkpt><trkpt lat="45.12073" lon="8.32787"><ele>142.0</ele><time>2026-04-25T09:36:09.973Z</time></trkpt><trkpt lat="45.1205033" lon="8.327665"><ele>142.0</ele><time>2026-04-25T09:36:10.972Z</time></trkpt><trkpt lat="45.1202717" lon="8.327455"><ele>142.0</ele><time>2026-04-25T09:36:11.972Z</time></trkpt><trkpt lat="45.1200333" lon="8.32725"><ele>140.5</ele><time>2026-04-25T09:36:12.972Z</time></trkpt><trkpt lat="45.1198083" lon="8.32702"><ele>139.0</ele><time>2026-04-25T09:36:13.972Z</time></trkpt><trkpt lat="45.1195867" lon="8.3267983"><ele>139.0</ele><time>2026-04-25T09:36:14.973Z</time></trkpt><trkpt lat="45.1193517" lon="8.32659"><ele>139.0</ele><time>2026-04-25T09:36:15.972Z</time></trkpt><trkpt lat="45.119125" lon="8.3263817"><ele>138.0</ele><time>2026-04-25T09:36:16.972Z</time></trkpt><trkpt lat="45.1188917" lon="8.32617"><ele>137.0</ele><time>2026-04-25T09:36:17.972Z</time></trkpt><trkpt lat="45.11866" lon="8.325955"><ele>137.0</ele><time>2026-04-25T09:36:18.972Z</time></trkpt><trkpt lat="45.118435" lon="8.3257367"><ele>137.0</ele><time>2026-04-25T09:36:19.973Z</time></trkpt><trkpt lat="45.1182117" lon="8.32552"><ele>136.5</ele><time>2026-04-25T09:36:20.972Z</time></trkpt><trkpt lat="45.1179867" lon="8.3253133"><ele>136.0</ele><time>2026-04-25T09:36:21.972Z</time></trkpt><trkpt lat="45.1177583" lon="8.3250967"><ele>136.0</ele><time>2026-04-25T09:36:22.972Z</time></trkpt><trkpt lat="45.11753" lon="8.3248867"><ele>136.0</ele><time>2026-04-25T09:36:23.972Z</time></trkpt><trkpt lat="45.117295" lon="8.324675"><ele>136.0</ele><time>2026-04-25T09:36:24.973Z</time></trkpt><trkpt lat="45.1170733" lon="8.3244617"><ele>136.0</ele><time>2026-04-25T09:36:25.972Z</time></trkpt><trkpt lat="45.1168567" lon="8.3242583"><ele>136.0</ele><time>2026-04-25T09:36:26.973Z</time></trkpt><trkpt lat="45.11663" lon="8.3240467"><ele>136.0</ele><time>2026-04-25T09:36:27.972Z</time></trkpt><trkpt lat="45.1164117" lon="8.3238317"><ele>135.5</ele><time>2026-04-25T09:36:28.972Z</time></trkpt><trkpt lat="45.1161867" lon="8.3236217"><ele>135.0</ele><time>2026-04-25T09:36:29.973Z</time></trkpt><trkpt lat="45.11596" lon="8.32341"><ele>135.0</ele><time>2026-04-25T09:36:30.973Z</time></trkpt><trkpt lat="45.1157217" lon="8.3232017"><ele>135.0</ele><time>2026-04-25T09:36:31.972Z</time></trkpt><trkpt lat="45.11549" lon="8.3229817"><ele>135.5</ele><time>2026-04-25T09:36:32.972Z</time></trkpt><trkpt lat="45.1152633" lon="8.3227683"><ele>136.0</ele><time>2026-04-25T09:36:33.972Z</time></trkpt><trkpt lat="45.1150367" lon="8.3225617"><ele>135.5</ele><time>2026-04-25T09:36:34.973Z</time></trkpt><trkpt lat="45.1148083" lon="8.3223567"><ele>135.0</ele><time>2026-04-25T09:36:35.972Z</time></trkpt><trkpt lat="45.1145783" lon="8.3221383"><ele>135.0</ele><time>2026-04-25T09:36:36.972Z</time></trkpt><trkpt lat="45.1143583" lon="8.3219283"><ele>135.0</ele><time>2026-04-25T09:36:37.972Z</time></trkpt><trkpt lat="45.1141317" lon="8.3217167"><ele>137.0</ele><time>2026-04-25T09:36:38.973Z</time></trkpt><trkpt lat="45.1138983" lon="8.3215"><ele>139.0</ele><time>2026-04-25T09:36:39.972Z</time></trkpt><trkpt lat="45.1136667" lon="8.3212933"><ele>139.0</ele><time>2026-04-25T09:36:40.972Z</time></trkpt><trkpt lat="45.1134383" lon="8.3210883"><ele>139.0</ele><time>2026-04-25T09:36:41.972Z</time></trkpt><trkpt lat="45.11321" lon="8.3208683"><ele>139.0</ele><time>2026-04-25T09:36:42.972Z</time></trkpt><trkpt lat="45.1129767" lon="8.3206583"><ele>139.0</ele><time>2026-04-25T09:36:43.973Z</time></trkpt><trkpt lat="45.11274" lon="8.3204583"><ele>139.5</ele><time>2026-04-25T09:36:44.973Z</time></trkpt><trkpt lat="45.1125133" lon="8.3202333"><ele>140.0</ele><time>2026-04-25T09:36:45.973Z</time></trkpt><trkpt lat="45.1122867" lon="8.3200133"><ele>139.0</ele><time>2026-04-25T09:36:46.972Z</time></trkpt><trkpt lat="45.11207" lon="8.3198067"><ele>138.0</ele><time>2026-04-25T09:36:47.972Z</time></trkpt><trkpt lat="45.1118483" lon="8.31958"><ele>138.0</ele><time>2026-04-25T09:36:48.972Z</time></trkpt><trkpt lat="45.11163" lon="8.3193617"><ele>138.0</ele><time>2026-04-25T09:36:49.973Z</time></trkpt><trkpt lat="45.1114083" lon="8.3191467"><ele>139.0</ele><time>2026-04-25T09:36:50.972Z</time></trkpt><trkpt lat="45.1111867" lon="8.31892"><ele>140.0</ele><time>2026-04-25T09:36:51.973Z</time></trkpt><trkpt lat="45.110965" lon="8.3187067"><ele>140.5</ele><time>2026-04-25T09:36:52.973Z</time></trkpt><trkpt lat="45.1107383" lon="8.31848"><ele>141.0</ele><time>2026-04-25T09:36:53.973Z</time></trkpt><trkpt lat="45.11051" lon="8.318255"><ele>140.0</ele><time>2026-04-25T09:36:54.973Z</time></trkpt><trkpt lat="45.1102867" lon="8.3180383"><ele>139.0</ele><time>2026-04-25T09:36:55.972Z</time></trkpt><trkpt lat="45.1100517" lon="8.3178033"><ele>138.5</ele><time>2026-04-25T09:36:56.972Z</time></trkpt><trkpt lat="45.1098317" lon="8.3175883"><ele>138.0</ele><time>2026-04-25T09:36:57.973Z</time></trkpt><trkpt lat="45.1096133" lon="8.3173617"><ele>137.5</ele><time>2026-04-25T09:36:58.972Z</time></trkpt><trkpt lat="45.1093983" lon="8.3171467"><ele>137.0</ele><time>2026-04-25T09:36:59.972Z</time></trkpt><trkpt lat="45.10918" lon="8.3169233"><ele>137.0</ele><time>2026-04-25T09:37:00.972Z</time></trkpt><trkpt lat="45.10896" lon="8.316695"><ele>137.0</ele><time>2026-04-25T09:37:01.972Z</time></trkpt><trkpt lat="45.1087383" lon="8.31649"><ele>137.5</ele><time>2026-04-25T09:37:02.972Z</time></trkpt><trkpt lat="45.1085117" lon="8.316275"><ele>138.0</ele><time>2026-04-25T09:37:03.973Z</time></trkpt><trkpt lat="45.1082867" lon="8.316045"><ele>139.0</ele><time>2026-04-25T09:37:04.973Z</time></trkpt><trkpt lat="45.1080567" lon="8.3158217"><ele>140.0</ele><time>2026-04-25T09:37:05.972Z</time></trkpt><trkpt lat="45.10783" lon="8.3156017"><ele>139.5</ele><time>2026-04-25T09:37:06.972Z</time></trkpt><trkpt lat="45.1076017" lon="8.3153717"><ele>139.0</ele><time>2026-04-25T09:37:07.972Z</time></trkpt><trkpt lat="45.10738" lon="8.3151483"><ele>139.0</ele><time>2026-04-25T09:37:08.972Z</time></trkpt><trkpt lat="45.1071617" lon="8.31492"><ele>139.0</ele><time>2026-04-25T09:37:09.973Z</time></trkpt><trkpt lat="45.106935" lon="8.3146933"><ele>139.5</ele><time>2026-04-25T09:37:10.973Z</time></trkpt><trkpt lat="45.1067133" lon="8.3144767"><ele>140.0</ele><time>2026-04-25T09:37:11.972Z</time></trkpt><trkpt lat="45.10649" lon="8.3142433"><ele>140.5</ele><time>2026-04-25T09:37:12.973Z</time></trkpt><trkpt lat="45.1062533" lon="8.3140183"><ele>141.0</ele><time>2026-04-25T09:37:13.972Z</time></trkpt><trkpt lat="45.1060317" lon="8.31379"><ele>141.0</ele><time>2026-04-25T09:37:14.973Z</time></trkpt><trkpt lat="45.1058167" lon="8.3135783"><ele>141.0</ele><time>2026-04-25T09:37:15.972Z</time></trkpt><trkpt lat="45.10559" lon="8.3133617"><ele>141.0</ele><time>2026-04-25T09:37:16.973Z</time></trkpt><trkpt lat="45.105365" lon="8.3131483"><ele>141.0</ele><time>2026-04-25T09:37:17.973Z</time></trkpt><trkpt lat="45.1051467" lon="8.3129167"><ele>140.5</ele><time>2026-04-25T09:37:18.973Z</time></trkpt><trkpt lat="45.1049333" lon="8.3126967"><ele>140.0</ele><time>2026-04-25T09:37:19.972Z</time></trkpt><trkpt lat="45.104715" lon="8.31248"><ele>142.0</ele><time>2026-04-25T09:37:20.973Z</time></trkpt><trkpt lat="45.1044917" lon="8.312255"><ele>144.0</ele><time>2026-04-25T09:37:21.973Z</time></trkpt><trkpt lat="45.1042667" lon="8.3120233"><ele>144.0</ele><time>2026-04-25T09:37:22.972Z</time></trkpt><trkpt lat="45.10404" lon="8.3118083"><ele>144.0</ele><time>2026-04-25T09:37:23.972Z</time></trkpt><trkpt lat="45.103825" lon="8.3115883"><ele>144.0</ele><time>2026-04-25T09:37:24.973Z</time></trkpt><trkpt lat="45.103605" lon="8.311365"><ele>144.0</ele><time>2026-04-25T09:37:25.973Z</time></trkpt><trkpt lat="45.1033867" lon="8.3111267"><ele>146.5</ele><time>2026-04-25T09:37:26.973Z</time></trkpt><trkpt lat="45.1031667" lon="8.3108967"><ele>149.0</ele><time>2026-04-25T09:37:27.972Z</time></trkpt><trkpt lat="45.1029267" lon="8.31069"><ele>147.5</ele><time>2026-04-25T09:37:28.972Z</time></trkpt><trkpt lat="45.1027" lon="8.310505"><ele>146.0</ele><time>2026-04-25T09:37:29.972Z</time></trkpt><trkpt lat="45.1024517" lon="8.310345"><ele>150.5</ele><time>2026-04-25T09:37:30.973Z</time></trkpt><trkpt lat="45.1021917" lon="8.3101983"><ele>155.0</ele><time>2026-04-25T09:37:31.972Z</time></trkpt><trkpt lat="45.101935" lon="8.3100983"><ele>155.0</ele><time>2026-04-25T09:37:32.972Z</time></trkpt><trkpt lat="45.1016717" lon="8.3100117"><ele>155.0</ele><time>2026-04-25T09:37:33.972Z</time></trkpt><trkpt lat="45.1014083" lon="8.30996"><ele>159.0</ele><time>2026-04-25T09:37:34.972Z</time></trkpt><trkpt lat="45.10115" lon="8.3099283"><ele>163.0</ele><time>2026-04-25T09:37:35.972Z</time></trkpt><trkpt lat="45.10086" lon="8.3099167"><ele>163.0</ele><time>2026-04-25T09:37:36.972Z</time></trkpt><trkpt lat="45.1005917" lon="8.3099533"><ele>163.0</ele><time>2026-04-25T09:37:37.972Z</time></trkpt><trkpt lat="45.10033" lon="8.31001"><ele>163.0</ele><time>2026-04-25T09:37:38.972Z</time></trkpt><trkpt lat="45.1000667" lon="8.3100883"><ele>163.0</ele><time>2026-04-25T09:37:39.972Z</time></trkpt><trkpt lat="45.0998" lon="8.3101817"><ele>162.5</ele><time>2026-04-25T09:37:40.972Z</time></trkpt><trkpt lat="45.0995467" lon="8.3102717"><ele>162.0</ele><time>2026-04-25T09:37:41.973Z</time></trkpt><trkpt lat="45.099285" lon="8.3103483"><ele>161.0</ele><time>2026-04-25T09:37:42.973Z</time></trkpt><trkpt lat="45.0990217" lon="8.31042"><ele>160.0</ele><time>2026-04-25T09:37:43.973Z</time></trkpt><trkpt lat="45.09876" lon="8.310485"><ele>160.0</ele><time>2026-04-25T09:37:44.972Z</time></trkpt><trkpt lat="45.098495" lon="8.310525"><ele>160.0</ele><time>2026-04-25T09:37:45.972Z</time></trkpt><trkpt lat="45.098225" lon="8.3105433"><ele>156.5</ele><time>2026-04-25T09:37:46.972Z</time></trkpt><trkpt lat="45.097965" lon="8.31052"><ele>153.0</ele><time>2026-04-25T09:37:47.972Z</time></trkpt><trkpt lat="45.0977167" lon="8.3104867"><ele>153.0</ele><time>2026-04-25T09:37:48.972Z</time></trkpt><trkpt lat="45.09746" lon="8.3104383"><ele>153.0</ele><time>2026-04-25T09:37:49.973Z</time></trkpt><trkpt lat="45.097225" lon="8.3103817"><ele>153.0</ele><time>2026-04-25T09:37:50.972Z</time></trkpt><trkpt lat="45.097" lon="8.3103283"><ele>153.0</ele><time>2026-04-25T09:37:51.973Z</time></trkpt><trkpt lat="45.0967617" lon="8.31028"><ele>153.0</ele><time>2026-04-25T09:37:52.972Z</time></trkpt><trkpt lat="45.0965183" lon="8.3102467"><ele>153.0</ele><time>2026-04-25T09:37:53.972Z</time></trkpt><trkpt lat="45.0962667" lon="8.3102017"><ele>153.0</ele><time>2026-04-25T09:37:54.973Z</time></trkpt><trkpt lat="45.0959967" lon="8.3101533"><ele>153.0</ele><time>2026-04-25T09:37:55.972Z</time></trkpt><trkpt lat="45.0957467" lon="8.3100933"><ele>152.5</ele><time>2026-04-25T09:37:56.972Z</time></trkpt><trkpt lat="45.0954833" lon="8.3100217"><ele>152.0</ele><time>2026-04-25T09:37:57.972Z</time></trkpt><trkpt lat="45.0952183" lon="8.30996"><ele>152.0</ele><time>2026-04-25T09:37:58.972Z</time></trkpt><trkpt lat="45.0949733" lon="8.3099167"><ele>152.0</ele><time>2026-04-25T09:37:59.972Z</time></trkpt><trkpt lat="45.0947233" lon="8.30987"><ele>151.0</ele><time>2026-04-25T09:38:00.972Z</time></trkpt><trkpt lat="45.0944683" lon="8.3098317"><ele>150.0</ele><time>2026-04-25T09:38:01.972Z</time></trkpt><trkpt lat="45.0942017" lon="8.3097967"><ele>149.5</ele><time>2026-04-25T09:38:02.973Z</time></trkpt><trkpt lat="45.0939283" lon="8.309785"><ele>149.0</ele><time>2026-04-25T09:38:03.973Z</time></trkpt><trkpt lat="45.0936583" lon="8.30978"><ele>149.0</ele><time>2026-04-25T09:38:04.972Z</time></trkpt><trkpt lat="45.093385" lon="8.309795"><ele>149.0</ele><time>2026-04-25T09:38:05.972Z</time></trkpt><trkpt lat="45.0931133" lon="8.3098133"><ele>150.0</ele><time>2026-04-25T09:38:06.972Z</time></trkpt><trkpt lat="45.09284" lon="8.3098433"><ele>151.0</ele><time>2026-04-25T09:38:07.972Z</time></trkpt><trkpt lat="45.0925733" lon="8.3098617"><ele>151.5</ele><time>2026-04-25T09:38:08.972Z</time></trkpt><trkpt lat="45.0923033" lon="8.3098917"><ele>152.0</ele><time>2026-04-25T09:38:09.973Z</time></trkpt><trkpt lat="45.0920367" lon="8.3099083"><ele>152.0</ele><time>2026-04-25T09:38:10.973Z</time></trkpt><trkpt lat="45.0917667" lon="8.3099333"><ele>152.0</ele><time>2026-04-25T09:38:11.973Z</time></trkpt><trkpt lat="45.0914883" lon="8.3099617"><ele>151.0</ele><time>2026-04-25T09:38:12.973Z</time></trkpt><trkpt lat="45.0912183" lon="8.3099967"><ele>150.0</ele><time>2026-04-25T09:38:13.972Z</time></trkpt><trkpt lat="45.0909483" lon="8.31004"><ele>150.0</ele><time>2026-04-25T09:38:14.972Z</time></trkpt><trkpt lat="45.0906833" lon="8.3100683"><ele>150.0</ele><time>2026-04-25T09:38:15.972Z</time></trkpt><trkpt lat="45.0904083" lon="8.310095"><ele>150.0</ele><time>2026-04-25T09:38:16.972Z</time></trkpt><trkpt lat="45.0901333" lon="8.310135"><ele>150.0</ele><time>2026-04-25T09:38:17.972Z</time></trkpt><trkpt lat="45.08986" lon="8.310165"><ele>152.0</ele><time>2026-04-25T09:38:18.972Z</time></trkpt><trkpt lat="45.0895817" lon="8.3101933"><ele>154.0</ele><time>2026-04-25T09:38:19.973Z</time></trkpt><trkpt lat="45.089305" lon="8.3102167"><ele>154.0</ele><time>2026-04-25T09:38:20.973Z</time></trkpt><trkpt lat="45.0890383" lon="8.3102433"><ele>154.0</ele><time>2026-04-25T09:38:21.972Z</time></trkpt><trkpt lat="45.08877" lon="8.3102667"><ele>154.0</ele><time>2026-04-25T09:38:22.973Z</time></trkpt><trkpt lat="45.0884933" lon="8.3102867"><ele>154.0</ele><time>2026-04-25T09:38:23.972Z</time></trkpt><trkpt lat="45.0882217" lon="8.31031"><ele>153.5</ele><time>2026-04-25T09:38:24.972Z</time></trkpt><trkpt lat="45.0879433" lon="8.3103317"><ele>153.0</ele><time>2026-04-25T09:38:25.972Z</time></trkpt><trkpt lat="45.0876667" lon="8.3103567"><ele>154.0</ele><time>2026-04-25T09:38:26.972Z</time></trkpt><trkpt lat="45.0874" lon="8.31037"><ele>155.0</ele><time>2026-04-25T09:38:27.972Z</time></trkpt><trkpt lat="45.0871367" lon="8.31037"><ele>155.0</ele><time>2026-04-25T09:38:28.972Z</time></trkpt><trkpt lat="45.086865" lon="8.3103533"><ele>155.0</ele><time>2026-04-25T09:38:29.972Z</time></trkpt><trkpt lat="45.0865983" lon="8.3103017"><ele>156.0</ele><time>2026-04-25T09:38:30.972Z</time></trkpt><trkpt lat="45.0863283" lon="8.310235"><ele>157.0</ele><time>2026-04-25T09:38:31.972Z</time></trkpt><trkpt lat="45.08607" lon="8.3101283"><ele>157.0</ele><time>2026-04-25T09:38:32.973Z</time></trkpt><trkpt lat="45.0858117" lon="8.3100183"><ele>157.0</ele><time>2026-04-25T09:38:33.972Z</time></trkpt><trkpt lat="45.0855517" lon="8.3098967"><ele>157.0</ele><time>2026-04-25T09:38:34.973Z</time></trkpt><trkpt lat="45.0852867" lon="8.3097717"><ele>157.0</ele><time>2026-04-25T09:38:35.972Z</time></trkpt><trkpt lat="45.0850233" lon="8.3096517"><ele>155.0</ele><time>2026-04-25T09:38:36.972Z</time></trkpt><trkpt lat="45.0847667" lon="8.30954"><ele>153.0</ele><time>2026-04-25T09:38:37.972Z</time></trkpt><trkpt lat="45.0845" lon="8.309435"><ele>153.0</ele><time>2026-04-25T09:38:38.973Z</time></trkpt><trkpt lat="45.0842383" lon="8.3093283"><ele>153.0</ele><time>2026-04-25T09:38:39.973Z</time></trkpt><trkpt lat="45.0839767" lon="8.3092133"><ele>154.5</ele><time>2026-04-25T09:38:40.972Z</time></trkpt><trkpt lat="45.0837217" lon="8.3090883"><ele>156.0</ele><time>2026-04-25T09:38:41.972Z</time></trkpt><trkpt lat="45.0834567" lon="8.308975"><ele>155.5</ele><time>2026-04-25T09:38:42.972Z</time></trkpt><trkpt lat="45.0831933" lon="8.308865"><ele>155.0</ele><time>2026-04-25T09:38:43.972Z</time></trkpt><trkpt lat="45.08293" lon="8.3087467"><ele>155.0</ele><time>2026-04-25T09:38:44.973Z</time></trkpt><trkpt lat="45.0826767" lon="8.3086283"><ele>155.0</ele><time>2026-04-25T09:38:45.972Z</time></trkpt><trkpt lat="45.0824117" lon="8.3085133"><ele>156.5</ele><time>2026-04-25T09:38:46.973Z</time></trkpt><trkpt lat="45.08215" lon="8.3084"><ele>158.0</ele><time>2026-04-25T09:38:47.972Z</time></trkpt><trkpt lat="45.081885" lon="8.30827"><ele>158.0</ele><time>2026-04-25T09:38:48.972Z</time></trkpt><trkpt lat="45.0816183" lon="8.3081533"><ele>158.0</ele><time>2026-04-25T09:38:49.972Z</time></trkpt><trkpt lat="45.0813567" lon="8.3080383"><ele>159.5</ele><time>2026-04-25T09:38:50.972Z</time></trkpt><trkpt lat="45.0811" lon="8.307925"><ele>161.0</ele><time>2026-04-25T09:38:51.972Z</time></trkpt><trkpt lat="45.08085" lon="8.3078117"><ele>161.0</ele><time>2026-04-25T09:38:52.972Z</time></trkpt><trkpt lat="45.0805917" lon="8.3076933"><ele>161.0</ele><time>2026-04-25T09:38:53.973Z</time></trkpt><trkpt lat="45.080325" lon="8.30757"><ele>161.0</ele><time>2026-04-25T09:38:54.972Z</time></trkpt><trkpt lat="45.0800583" lon="8.3074483"><ele>161.0</ele><time>2026-04-25T09:38:55.973Z</time></trkpt><trkpt lat="45.0798033" lon="8.3073333"><ele>159.5</ele><time>2026-04-25T09:38:56.972Z</time></trkpt><trkpt lat="45.07954" lon="8.30722"><ele>158.0</ele><time>2026-04-25T09:38:57.972Z</time></trkpt><trkpt lat="45.0792867" lon="8.3071167"><ele>157.0</ele><time>2026-04-25T09:38:58.973Z</time></trkpt><trkpt lat="45.079035" lon="8.3070083"><ele>156.0</ele><time>2026-04-25T09:38:59.972Z</time></trkpt><trkpt lat="45.0787833" lon="8.3068917"><ele>156.0</ele><time>2026-04-25T09:39:00.972Z</time></trkpt><trkpt lat="45.0785217" lon="8.306755"><ele>156.0</ele><time>2026-04-25T09:39:01.972Z</time></trkpt><trkpt lat="45.0782683" lon="8.3066067"><ele>157.0</ele><time>2026-04-25T09:39:02.973Z</time></trkpt><trkpt lat="45.0780333" lon="8.3064417"><ele>158.0</ele><time>2026-04-25T09:39:03.972Z</time></trkpt><trkpt lat="45.077795" lon="8.3062617"><ele>158.0</ele><time>2026-04-25T09:39:04.973Z</time></trkpt><trkpt lat="45.0775683" lon="8.3060517"><ele>158.0</ele><time>2026-04-25T09:39:05.972Z</time></trkpt><trkpt lat="45.077365" lon="8.3057983"><ele>158.5</ele><time>2026-04-25T09:39:06.973Z</time></trkpt><trkpt lat="45.0771767" lon="8.3055167"><ele>159.0</ele><time>2026-04-25T09:39:07.972Z</time></trkpt><trkpt lat="45.0770017" lon="8.305215"><ele>159.0</ele><time>2026-04-25T09:39:08.972Z</time></trkpt><trkpt lat="45.07684" lon="8.3049283"><ele>159.0</ele><time>2026-04-25T09:39:09.973Z</time></trkpt><trkpt lat="45.0766683" lon="8.3046283"><ele>160.0</ele><time>2026-04-25T09:39:10.972Z</time></trkpt><trkpt lat="45.0764883" lon="8.304345"><ele>161.0</ele><time>2026-04-25T09:39:11.973Z</time></trkpt><trkpt lat="45.0762967" lon="8.304055"><ele>160.0</ele><time>2026-04-25T09:39:12.973Z</time></trkpt><trkpt lat="45.0761167" lon="8.3037583"><ele>159.0</ele><time>2026-04-25T09:39:13.973Z</time></trkpt><trkpt lat="45.0759483" lon="8.3034567"><ele>159.5</ele><time>2026-04-25T09:39:14.972Z</time></trkpt><trkpt lat="45.07577" lon="8.303175"><ele>160.0</ele><time>2026-04-25T09:39:15.972Z</time></trkpt><trkpt lat="45.0755967" lon="8.302885"><ele>160.0</ele><time>2026-04-25T09:39:16.973Z</time></trkpt><trkpt lat="45.07542" lon="8.3025917"><ele>160.0</ele><time>2026-04-25T09:39:17.972Z</time></trkpt><trkpt lat="45.0752367" lon="8.3022983"><ele>159.5</ele><time>2026-04-25T09:39:18.972Z</time></trkpt><trkpt lat="45.0750567" lon="8.3019933"><ele>159.0</ele><time>2026-04-25T09:39:19.972Z</time></trkpt><trkpt lat="45.074865" lon="8.301705"><ele>159.0</ele><time>2026-04-25T09:39:20.972Z</time></trkpt><trkpt lat="45.0746817" lon="8.3014233"><ele>159.0</ele><time>2026-04-25T09:39:21.972Z</time></trkpt><trkpt lat="45.0745067" lon="8.3011383"><ele>159.0</ele><time>2026-04-25T09:39:22.973Z</time></trkpt><trkpt lat="45.074335" lon="8.3008533"><ele>159.0</ele><time>2026-04-25T09:39:23.972Z</time></trkpt><trkpt lat="45.0741483" lon="8.3005667"><ele>161.5</ele><time>2026-04-25T09:39:24.972Z</time></trkpt><trkpt lat="45.073975" lon="8.3002633"><ele>164.0</ele><time>2026-04-25T09:39:25.972Z</time></trkpt><trkpt lat="45.0738" lon="8.299975"><ele>162.5</ele><time>2026-04-25T09:39:26.973Z</time></trkpt><trkpt lat="45.07362" lon="8.2996917"><ele>161.0</ele><time>2026-04-25T09:39:27.972Z</time></trkpt><trkpt lat="45.0734433" lon="8.2994067"><ele>160.5</ele><time>2026-04-25T09:39:28.972Z</time></trkpt><trkpt lat="45.073265" lon="8.2991183"><ele>160.0</ele><time>2026-04-25T09:39:29.972Z</time></trkpt><trkpt lat="45.0730867" lon="8.2988183"><ele>160.0</ele><time>2026-04-25T09:39:30.972Z</time></trkpt><trkpt lat="45.0729117" lon="8.2985383"><ele>160.0</ele><time>2026-04-25T09:39:31.972Z</time></trkpt><trkpt lat="45.0727333" lon="8.2982433"><ele>160.5</ele><time>2026-04-25T09:39:32.973Z</time></trkpt><trkpt lat="45.0725583" lon="8.2979533"><ele>161.0</ele><time>2026-04-25T09:39:33.972Z</time></trkpt><trkpt lat="45.0723817" lon="8.297655"><ele>162.0</ele><time>2026-04-25T09:39:34.972Z</time></trkpt><trkpt lat="45.07219" lon="8.2973717"><ele>163.0</ele><time>2026-04-25T09:39:35.972Z</time></trkpt><trkpt lat="45.072" lon="8.2970883"><ele>163.0</ele><time>2026-04-25T09:39:36.973Z</time></trkpt><trkpt lat="45.07182" lon="8.2968"><ele>163.0</ele><time>2026-04-25T09:39:37.972Z</time></trkpt><trkpt lat="45.0716267" lon="8.296505"><ele>163.0</ele><time>2026-04-25T09:39:38.973Z</time></trkpt><trkpt lat="45.0714583" lon="8.2962067"><ele>163.0</ele><time>2026-04-25T09:39:39.972Z</time></trkpt><trkpt lat="45.0712883" lon="8.2959133"><ele>163.0</ele><time>2026-04-25T09:39:40.972Z</time></trkpt><trkpt lat="45.0711183" lon="8.2956133"><ele>163.0</ele><time>2026-04-25T09:39:41.972Z</time></trkpt><trkpt lat="45.0709533" lon="8.2953133"><ele>163.5</ele><time>2026-04-25T09:39:42.972Z</time></trkpt><trkpt lat="45.0708017" lon="8.2949883"><ele>164.0</ele><time>2026-04-25T09:39:43.972Z</time></trkpt><trkpt lat="45.0706433" lon="8.2946667"><ele>164.5</ele><time>2026-04-25T09:39:44.973Z</time></trkpt><trkpt lat="45.0704933" lon="8.2943467"><ele>165.0</ele><time>2026-04-25T09:39:45.973Z</time></trkpt><trkpt lat="45.0703583" lon="8.2940117"><ele>166.5</ele><time>2026-04-25T09:39:46.972Z</time></trkpt><trkpt lat="45.0702183" lon="8.2936817"><ele>168.0</ele><time>2026-04-25T09:39:47.973Z</time></trkpt><trkpt lat="45.07007" lon="8.293355"><ele>171.0</ele><time>2026-04-25T09:39:48.972Z</time></trkpt><trkpt lat="45.0699233" lon="8.2930267"><ele>174.0</ele><time>2026-04-25T09:39:49.972Z</time></trkpt><trkpt lat="45.06979" lon="8.2927017"><ele>174.0</ele><time>2026-04-25T09:39:50.973Z</time></trkpt><trkpt lat="45.0696517" lon="8.2923717"><ele>174.0</ele><time>2026-04-25T09:39:51.972Z</time></trkpt><trkpt lat="45.0695183" lon="8.29204"><ele>172.5</ele><time>2026-04-25T09:39:52.972Z</time></trkpt><trkpt lat="45.0693817" lon="8.2917033"><ele>171.0</ele><time>2026-04-25T09:39:53.972Z</time></trkpt><trkpt lat="45.0692433" lon="8.29136"><ele>175.0</ele><time>2026-04-25T09:39:54.972Z</time></trkpt><trkpt lat="45.069105" lon="8.2910283"><ele>179.0</ele><time>2026-04-25T09:39:55.972Z</time></trkpt><trkpt lat="45.06897" lon="8.2906917"><ele>179.0</ele><time>2026-04-25T09:39:56.973Z</time></trkpt><trkpt lat="45.0688317" lon="8.2903567"><ele>179.0</ele><time>2026-04-25T09:39:57.973Z</time></trkpt><trkpt lat="45.068695" lon="8.2900117"><ele>178.5</ele><time>2026-04-25T09:39:58.973Z</time></trkpt><trkpt lat="45.06856" lon="8.2896767"><ele>178.0</ele><time>2026-04-25T09:39:59.973Z</time></trkpt><trkpt lat="45.0684217" lon="8.2893483"><ele>178.0</ele><time>2026-04-25T09:40:00.972Z</time></trkpt><trkpt lat="45.0682917" lon="8.2890233"><ele>178.0</ele><time>2026-04-25T09:40:01.973Z</time></trkpt><trkpt lat="45.0681617" lon="8.288695"><ele>181.0</ele><time>2026-04-25T09:40:02.972Z</time></trkpt><trkpt lat="45.0680383" lon="8.2883617"><ele>184.0</ele><time>2026-04-25T09:40:03.973Z</time></trkpt><trkpt lat="45.067905" lon="8.2880383"><ele>184.0</ele><time>2026-04-25T09:40:04.972Z</time></trkpt><trkpt lat="45.0677583" lon="8.287695"><ele>184.0</ele><time>2026-04-25T09:40:05.972Z</time></trkpt><trkpt lat="45.0676183" lon="8.287355"><ele>181.5</ele><time>2026-04-25T09:40:06.972Z</time></trkpt><trkpt lat="45.067475" lon="8.287005"><ele>179.0</ele><time>2026-04-25T09:40:07.972Z</time></trkpt><trkpt lat="45.0673533" lon="8.28669"><ele>182.5</ele><time>2026-04-25T09:40:08.972Z</time></trkpt><trkpt lat="45.0672267" lon="8.286365"><ele>186.0</ele><time>2026-04-25T09:40:09.972Z</time></trkpt><trkpt lat="45.0670933" lon="8.2860183"><ele>186.0</ele><time>2026-04-25T09:40:10.972Z</time></trkpt><trkpt lat="45.0669633" lon="8.285675"><ele>186.0</ele><time>2026-04-25T09:40:11.972Z</time></trkpt><trkpt lat="45.06682" lon="8.2853317"><ele>180.5</ele><time>2026-04-25T09:40:12.972Z</time></trkpt><trkpt lat="45.06668" lon="8.2849967"><ele>175.0</ele><time>2026-04-25T09:40:13.972Z</time></trkpt><trkpt lat="45.066535" lon="8.28467"><ele>175.0</ele><time>2026-04-25T09:40:14.972Z</time></trkpt><trkpt lat="45.066405" lon="8.28432"><ele>175.0</ele><time>2026-04-25T09:40:15.972Z</time></trkpt><trkpt lat="45.0662783" lon="8.2839833"><ele>173.0</ele><time>2026-04-25T09:40:16.973Z</time></trkpt><trkpt lat="45.0661517" lon="8.2836567"><ele>171.0</ele><time>2026-04-25T09:40:17.972Z</time></trkpt><trkpt lat="45.066005" lon="8.2833317"><ele>171.0</ele><time>2026-04-25T09:40:18.973Z</time></trkpt><trkpt lat="45.065865" lon="8.2829883"><ele>171.0</ele><time>2026-04-25T09:40:19.972Z</time></trkpt><trkpt lat="45.0657217" lon="8.282665"><ele>172.0</ele><time>2026-04-25T09:40:20.972Z</time></trkpt><trkpt lat="45.0655783" lon="8.2823633"><ele>173.0</ele><time>2026-04-25T09:40:21.972Z</time></trkpt><trkpt lat="45.0654217" lon="8.2820817"><ele>173.0</ele><time>2026-04-25T09:40:22.972Z</time></trkpt><trkpt lat="45.0652633" lon="8.2818083"><ele>173.0</ele><time>2026-04-25T09:40:23.973Z</time></trkpt><trkpt lat="45.0651033" lon="8.28156"><ele>173.0</ele><time>2026-04-25T09:40:24.972Z</time></trkpt><trkpt lat="45.0649417" lon="8.28133"><ele>173.0</ele><time>2026-04-25T09:40:25.973Z</time></trkpt><trkpt lat="45.0647717" lon="8.28112"><ele>173.0</ele><time>2026-04-25T09:40:26.972Z</time></trkpt><trkpt lat="45.0645933" lon="8.28095"><ele>173.0</ele><time>2026-04-25T09:40:27.973Z</time></trkpt><trkpt lat="45.06441" lon="8.2807867"><ele>173.0</ele><time>2026-04-25T09:40:28.972Z</time></trkpt><trkpt lat="45.06423" lon="8.2806367"><ele>173.33333333333331</ele><time>2026-04-25T09:40:29.973Z</time></trkpt><trkpt lat="45.064055" lon="8.2804967"><ele>173.66666666666666</ele><time>2026-04-25T09:40:30.972Z</time></trkpt><trkpt lat="45.0638817" lon="8.2803633"><ele>174.0</ele><time>2026-04-25T09:40:31.972Z</time></trkpt><trkpt lat="45.0637017" lon="8.2802517"><ele>174.0</ele><time>2026-04-25T09:40:32.972Z</time></trkpt><trkpt lat="45.0635117" lon="8.280145"><ele>174.0</ele><time>2026-04-25T09:40:33.973Z</time></trkpt><trkpt lat="45.06333" lon="8.2800217"><ele>174.0</ele><time>2026-04-25T09:40:34.973Z</time></trkpt><trkpt lat="45.063155" lon="8.27991"><ele>174.0</ele><time>2026-04-25T09:40:35.972Z</time></trkpt><trkpt lat="45.0629783" lon="8.2798017"><ele>174.0</ele><time>2026-04-25T09:40:36.973Z</time></trkpt><trkpt lat="45.0628183" lon="8.2797083"><ele>174.0</ele><time>2026-04-25T09:40:37.973Z</time></trkpt><trkpt lat="45.06265" lon="8.2796133"><ele>174.0</ele><time>2026-04-25T09:40:38.973Z</time></trkpt><trkpt lat="45.0624983" lon="8.2795133"><ele>174.0</ele><time>2026-04-25T09:40:39.972Z</time></trkpt><trkpt lat="45.06235" lon="8.2794333"><ele>174.0</ele><time>2026-04-25T09:40:40.972Z</time></trkpt><trkpt lat="45.0622067" lon="8.2793483"><ele>174.5</ele><time>2026-04-25T09:40:41.973Z</time></trkpt><trkpt lat="45.062075" lon="8.2792583"><ele>175.0</ele><time>2026-04-25T09:40:42.973Z</time></trkpt><trkpt lat="45.061955" lon="8.279185"><ele>175.5</ele><time>2026-04-25T09:40:43.972Z</time></trkpt><trkpt lat="45.0618333" lon="8.279115"><ele>176.0</ele><time>2026-04-25T09:40:44.973Z</time></trkpt><trkpt lat="45.06172" lon="8.279055"><ele>176.0</ele><time>2026-04-25T09:40:45.973Z</time></trkpt><trkpt lat="45.0616067" lon="8.2789817"><ele>176.0</ele><time>2026-04-25T09:40:46.972Z</time></trkpt><trkpt lat="45.06149" lon="8.2789117"><ele>176.0</ele><time>2026-04-25T09:40:47.973Z</time></trkpt><trkpt lat="45.06137" lon="8.2788433"><ele>176.0</ele><time>2026-04-25T09:40:48.972Z</time></trkpt><trkpt lat="45.06126" lon="8.2787767"><ele>176.20000000000002</ele><time>2026-04-25T09:40:49.971Z</time></trkpt><trkpt lat="45.0611583" lon="8.2787117"><ele>176.4</ele><time>2026-04-25T09:40:50.971Z</time></trkpt><trkpt lat="45.06106" lon="8.2786533"><ele>176.6</ele><time>2026-04-25T09:40:51.972Z</time></trkpt><trkpt lat="45.0609717" lon="8.2786033"><ele>176.8</ele><time>2026-04-25T09:40:52.971Z</time></trkpt><trkpt lat="45.0608783" lon="8.2785467"><ele>177.0</ele><time>2026-04-25T09:40:53.971Z</time></trkpt><trkpt lat="45.0607783" lon="8.2784933"><ele>177.0</ele><time>2026-04-25T09:40:54.971Z</time></trkpt><trkpt lat="45.0606817" lon="8.2784383"><ele>177.0</ele><time>2026-04-25T09:40:55.971Z</time></trkpt><trkpt lat="45.0605683" lon="8.2783633"><ele>177.0</ele><time>2026-04-25T09:40:56.971Z</time></trkpt><trkpt lat="45.0604583" lon="8.278285"><ele>177.0</ele><time>2026-04-25T09:40:57.972Z</time></trkpt><trkpt lat="45.06034" lon="8.2782117"><ele>177.0</ele><time>2026-04-25T09:40:58.971Z</time></trkpt><trkpt lat="45.0602167" lon="8.2781367"><ele>177.0</ele><time>2026-04-25T09:40:59.971Z</time></trkpt><trkpt lat="45.06008" lon="8.2780567"><ele>177.0</ele><time>2026-04-25T09:41:00.971Z</time></trkpt><trkpt lat="45.0599533" lon="8.2779767"><ele>177.0</ele><time>2026-04-25T09:41:01.971Z</time></trkpt><trkpt lat="45.059825" lon="8.2779"><ele>177.25</ele><time>2026-04-25T09:41:02.971Z</time></trkpt><trkpt lat="45.05969" lon="8.277825"><ele>177.5</ele><time>2026-04-25T09:41:03.972Z</time></trkpt><trkpt lat="45.05956" lon="8.27774"><ele>177.75</ele><time>2026-04-25T09:41:04.971Z</time></trkpt><trkpt lat="45.05944" lon="8.2776533"><ele>178.0</ele><time>2026-04-25T09:41:05.971Z</time></trkpt><trkpt lat="45.0593217" lon="8.277585"><ele>178.0</ele><time>2026-04-25T09:41:06.971Z</time></trkpt><trkpt lat="45.0592033" lon="8.2775117"><ele>178.0</ele><time>2026-04-25T09:41:07.972Z</time></trkpt><trkpt lat="45.0590883" lon="8.27744"><ele>178.0</ele><time>2026-04-25T09:41:08.972Z</time></trkpt><trkpt lat="45.05897" lon="8.27738"><ele>178.0</ele><time>2026-04-25T09:41:09.972Z</time></trkpt><trkpt lat="45.0588533" lon="8.277315"><ele>178.5</ele><time>2026-04-25T09:41:10.971Z</time></trkpt><trkpt lat="45.0587533" lon="8.27725"><ele>179.0</ele><time>2026-04-25T09:41:11.971Z</time></trkpt><trkpt lat="45.0586583" lon="8.2771883"><ele>179.5</ele><time>2026-04-25T09:41:12.971Z</time></trkpt><trkpt lat="45.0585517" lon="8.2771267"><ele>180.0</ele><time>2026-04-25T09:41:13.971Z</time></trkpt><trkpt lat="45.05844" lon="8.27706"><ele>180.0</ele><time>2026-04-25T09:41:14.972Z</time></trkpt><trkpt lat="45.0583317" lon="8.27699"><ele>180.0</ele><time>2026-04-25T09:41:15.972Z</time></trkpt><trkpt lat="45.0582117" lon="8.2769167"><ele>180.0</ele><time>2026-04-25T09:41:16.971Z</time></trkpt><trkpt lat="45.0580867" lon="8.276845"><ele>180.0</ele><time>2026-04-25T09:41:17.971Z</time></trkpt><trkpt lat="45.05795" lon="8.2767583"><ele>180.0</ele><time>2026-04-25T09:41:18.972Z</time></trkpt><trkpt lat="45.0578067" lon="8.2766667"><ele>180.0</ele><time>2026-04-25T09:41:19.971Z</time></trkpt><trkpt lat="45.0576433" lon="8.27658"><ele>180.0</ele><time>2026-04-25T09:41:20.972Z</time></trkpt><trkpt lat="45.057485" lon="8.27649"><ele>181.66666666666666</ele><time>2026-04-25T09:41:21.972Z</time></trkpt><trkpt lat="45.0573167" lon="8.2764083"><ele>183.33333333333331</ele><time>2026-04-25T09:41:22.972Z</time></trkpt><trkpt lat="45.0571367" lon="8.276345"><ele>185.0</ele><time>2026-04-25T09:41:23.972Z</time></trkpt><trkpt lat="45.05696" lon="8.2763067"><ele>185.0</ele><time>2026-04-25T09:41:24.971Z</time></trkpt><trkpt lat="45.0567667" lon="8.2763117"><ele>185.0</ele><time>2026-04-25T09:41:25.971Z</time></trkpt><trkpt lat="45.05656" lon="8.276375"><ele>185.0</ele><time>2026-04-25T09:41:26.972Z</time></trkpt><trkpt lat="45.05636" lon="8.2764817"><ele>187.33333333333331</ele><time>2026-04-25T09:41:27.971Z</time></trkpt><trkpt lat="45.0561633" lon="8.2766317"><ele>189.66666666666666</ele><time>2026-04-25T09:41:28.972Z</time></trkpt><trkpt lat="45.05597" lon="8.2767933"><ele>192.0</ele><time>2026-04-25T09:41:29.972Z</time></trkpt><trkpt lat="45.0557633" lon="8.27697"><ele>195.33333333333331</ele><time>2026-04-25T09:41:30.971Z</time></trkpt><trkpt lat="45.0555717" lon="8.2771333"><ele>198.66666666666666</ele><time>2026-04-25T09:41:31.971Z</time></trkpt><trkpt lat="45.0554017" lon="8.2772933"><ele>202.0</ele><time>2026-04-25T09:41:32.971Z</time></trkpt><trkpt lat="45.0552467" lon="8.2774317"><ele>202.0</ele><time>2026-04-25T09:41:33.972Z</time></trkpt><trkpt lat="45.055105" lon="8.2775467"><ele>202.0</ele><time>2026-04-25T09:41:34.971Z</time></trkpt><trkpt lat="45.05498" lon="8.2776467"><ele>202.0</ele><time>2026-04-25T09:41:35.971Z</time></trkpt><trkpt lat="45.0548683" lon="8.2777417"><ele>202.0</ele><time>2026-04-25T09:41:36.971Z</time></trkpt><trkpt lat="45.05474" lon="8.27784"><ele>204.75</ele><time>2026-04-25T09:41:37.972Z</time></trkpt><trkpt lat="45.0546067" lon="8.2779083"><ele>207.5</ele><time>2026-04-25T09:41:38.971Z</time></trkpt><trkpt lat="45.0544817" lon="8.277935"><ele>210.25</ele><time>2026-04-25T09:41:39.972Z</time></trkpt><trkpt lat="45.05437" lon="8.2779033"><ele>213.0</ele><time>2026-04-25T09:41:40.971Z</time></trkpt><trkpt lat="45.0542783" lon="8.2778183"><ele>213.0</ele><time>2026-04-25T09:41:41.972Z</time></trkpt><trkpt lat="45.0542017" lon="8.2776817"><ele>213.0</ele><time>2026-04-25T09:41:42.972Z</time></trkpt><trkpt lat="45.0541483" lon="8.2775133"><ele>213.0</ele><time>2026-04-25T09:41:43.972Z</time></trkpt><trkpt lat="45.0540917" lon="8.277325"><ele>213.0</ele><time>2026-04-25T09:41:44.971Z</time></trkpt><trkpt lat="45.0540283" lon="8.277115"><ele>217.66666666666669</ele><time>2026-04-25T09:41:45.971Z</time></trkpt><trkpt lat="45.0539333" lon="8.27688"><ele>222.33333333333334</ele><time>2026-04-25T09:41:46.971Z</time></trkpt><trkpt lat="45.0538567" lon="8.2766283"><ele>227.0</ele><time>2026-04-25T09:41:47.971Z</time></trkpt><trkpt lat="45.05377" lon="8.2763417"><ele>227.0</ele><time>2026-04-25T09:41:48.972Z</time></trkpt><trkpt lat="45.0536733" lon="8.2760483"><ele>227.0</ele><time>2026-04-25T09:41:49.971Z</time></trkpt><trkpt lat="45.0535683" lon="8.27575"><ele>225.5</ele><time>2026-04-25T09:41:50.972Z</time></trkpt><trkpt lat="45.0534567" lon="8.2754333"><ele>224.0</ele><time>2026-04-25T09:41:51.972Z</time></trkpt><trkpt lat="45.05337" lon="8.2750983"><ele>228.0</ele><time>2026-04-25T09:41:52.971Z</time></trkpt><trkpt lat="45.0532733" lon="8.27476"><ele>232.0</ele><time>2026-04-25T09:41:53.971Z</time></trkpt><trkpt lat="45.0531617" lon="8.274425"><ele>232.0</ele><time>2026-04-25T09:41:54.971Z</time></trkpt><trkpt lat="45.053045" lon="8.2741"><ele>232.0</ele><time>2026-04-25T09:41:55.971Z</time></trkpt><trkpt lat="45.0529533" lon="8.2737783"><ele>232.5</ele><time>2026-04-25T09:41:56.971Z</time></trkpt><trkpt lat="45.0528617" lon="8.273465"><ele>233.0</ele><time>2026-04-25T09:41:57.971Z</time></trkpt><trkpt lat="45.052755" lon="8.27316"><ele>234.5</ele><time>2026-04-25T09:41:58.971Z</time></trkpt><trkpt lat="45.0526483" lon="8.2728667"><ele>236.0</ele><time>2026-04-25T09:41:59.971Z</time></trkpt><trkpt lat="45.0525283" lon="8.2725567"><ele>240.0</ele><time>2026-04-25T09:42:00.971Z</time></trkpt><trkpt lat="45.0524317" lon="8.27225"><ele>244.0</ele><time>2026-04-25T09:42:01.972Z</time></trkpt><trkpt lat="45.05233" lon="8.2719483"><ele>244.0</ele><time>2026-04-25T09:42:02.971Z</time></trkpt><trkpt lat="45.0522267" lon="8.2716517"><ele>244.0</ele><time>2026-04-25T09:42:03.971Z</time></trkpt><trkpt lat="45.05212" lon="8.27135"><ele>246.0</ele><time>2026-04-25T09:42:04.972Z</time></trkpt><trkpt lat="45.05203" lon="8.2710533"><ele>248.0</ele><time>2026-04-25T09:42:05.971Z</time></trkpt><trkpt lat="45.0519417" lon="8.270755"><ele>250.0</ele><time>2026-04-25T09:42:06.971Z</time></trkpt><trkpt lat="45.051865" lon="8.2705"><ele>252.0</ele><time>2026-04-25T09:42:07.972Z</time></trkpt><trkpt lat="45.0517717" lon="8.270275"><ele>254.0</ele><time>2026-04-25T09:42:08.971Z</time></trkpt><trkpt lat="45.0517" lon="8.27004"><ele>254.66666666666669</ele><time>2026-04-25T09:42:09.972Z</time></trkpt><trkpt lat="45.0516217" lon="8.2697933"><ele>255.33333333333331</ele><time>2026-04-25T09:42:10.972Z</time></trkpt><trkpt lat="45.0515517" lon="8.26954"><ele>256.0</ele><time>2026-04-25T09:42:11.972Z</time></trkpt><trkpt lat="45.051465" lon="8.2693017"><ele>256.0</ele><time>2026-04-25T09:42:12.971Z</time></trkpt><trkpt lat="45.051365" lon="8.2690483"><ele>256.0</ele><time>2026-04-25T09:42:13.971Z</time></trkpt><trkpt lat="45.0512383" lon="8.268835"><ele>256.0</ele><time>2026-04-25T09:42:14.971Z</time></trkpt><trkpt lat="45.0510783" lon="8.2686283"><ele>259.0</ele><time>2026-04-25T09:42:15.971Z</time></trkpt><trkpt lat="45.05092" lon="8.26843"><ele>262.0</ele><time>2026-04-25T09:42:16.971Z</time></trkpt><trkpt lat="45.0507583" lon="8.268245"><ele>265.0</ele><time>2026-04-25T09:42:17.971Z</time></trkpt><trkpt lat="45.0505867" lon="8.268085"><ele>270.0</ele><time>2026-04-25T09:42:18.971Z</time></trkpt><trkpt lat="45.050395" lon="8.2679667"><ele>275.0</ele><time>2026-04-25T09:42:19.971Z</time></trkpt><trkpt lat="45.0501967" lon="8.2679133"><ele>280.0</ele><time>2026-04-25T09:42:20.971Z</time></trkpt><trkpt lat="45.0499867" lon="8.2679233"><ele>284.0</ele><time>2026-04-25T09:42:21.971Z</time></trkpt><trkpt lat="45.049765" lon="8.2679683"><ele>288.0</ele><time>2026-04-25T09:42:22.972Z</time></trkpt><trkpt lat="45.04954" lon="8.2680017"><ele>288.0</ele><time>2026-04-25T09:42:23.972Z</time></trkpt><trkpt lat="45.0493317" lon="8.2680117"><ele>288.0</ele><time>2026-04-25T09:42:24.971Z</time></trkpt><trkpt lat="45.0491283" lon="8.2679733"><ele>288.0</ele><time>2026-04-25T09:42:25.971Z</time></trkpt><trkpt lat="45.0489333" lon="8.2678983"><ele>293.3333333333333</ele><time>2026-04-25T09:42:26.971Z</time></trkpt><trkpt lat="45.0487367" lon="8.2678017"><ele>298.66666666666663</ele><time>2026-04-25T09:42:27.972Z</time></trkpt><trkpt lat="45.0485417" lon="8.267705"><ele>304.0</ele><time>2026-04-25T09:42:28.971Z</time></trkpt><trkpt lat="45.0483483" lon="8.2676133"><ele>298.3333333333333</ele><time>2026-04-25T09:42:29.971Z</time></trkpt><trkpt lat="45.0481533" lon="8.2675217"><ele>292.6666666666667</ele><time>2026-04-25T09:42:30.972Z</time></trkpt><trkpt lat="45.0479467" lon="8.2674233"><ele>287.0</ele><time>2026-04-25T09:42:31.972Z</time></trkpt><trkpt lat="45.047765" lon="8.2673317"><ele>284.75</ele><time>2026-04-25T09:42:32.972Z</time></trkpt><trkpt lat="45.047595" lon="8.2672467"><ele>282.5</ele><time>2026-04-25T09:42:33.971Z</time></trkpt><trkpt lat="45.0475033" lon="8.2671317"><ele>280.25</ele><time>2026-04-25T09:42:34.971Z</time></trkpt><trkpt lat="45.04746" lon="8.2670183"><ele>278.0</ele><time>2026-04-25T09:42:35.971Z</time></trkpt><trkpt lat="45.0473717" lon="8.26699"><ele>276.2</ele><time>2026-04-25T09:42:36.971Z</time></trkpt><trkpt lat="45.047305" lon="8.267015"><ele>274.4</ele><time>2026-04-25T09:42:37.972Z</time></trkpt><trkpt lat="45.0472" lon="8.26707"><ele>272.59999999999997</ele><time>2026-04-25T09:42:38.971Z</time></trkpt><trkpt lat="45.0470883" lon="8.2671317"><ele>270.8</ele><time>2026-04-25T09:42:39.972Z</time></trkpt><trkpt lat="45.0469717" lon="8.2672083"><ele>269.0</ele><time>2026-04-25T09:42:40.972Z</time></trkpt><trkpt lat="45.046855" lon="8.2673733"><ele>269.0</ele><time>2026-04-25T09:42:41.971Z</time></trkpt><trkpt lat="45.04672" lon="8.2675233"><ele>269.0</ele><time>2026-04-25T09:42:42.971Z</time></trkpt><trkpt lat="45.0465833" lon="8.2676717"><ele>269.0</ele><time>2026-04-25T09:42:43.972Z</time></trkpt><trkpt lat="45.0464467" lon="8.26781"><ele>267.33333333333337</ele><time>2026-04-25T09:42:44.971Z</time></trkpt><trkpt lat="45.0463033" lon="8.26797"><ele>265.6666666666667</ele><time>2026-04-25T09:42:45.971Z</time></trkpt><trkpt lat="45.0461733" lon="8.2681383"><ele>264.0</ele><time>2026-04-25T09:42:46.971Z</time></trkpt><trkpt lat="45.046035" lon="8.2682633"><ele>264.0</ele><time>2026-04-25T09:42:47.971Z</time></trkpt><trkpt lat="45.0459017" lon="8.2683833"><ele>264.0</ele><time>2026-04-25T09:42:48.972Z</time></trkpt><trkpt lat="45.045775" lon="8.2685167"><ele>264.0</ele><time>2026-04-25T09:42:49.971Z</time></trkpt><trkpt lat="45.0456433" lon="8.2686483"><ele>262.5</ele><time>2026-04-25T09:42:50.971Z</time></trkpt><trkpt lat="45.0455067" lon="8.2687617"><ele>261.0</ele><time>2026-04-25T09:42:51.971Z</time></trkpt><trkpt lat="45.045385" lon="8.268885"><ele>259.5</ele><time>2026-04-25T09:42:52.972Z</time></trkpt><trkpt lat="45.04527" lon="8.2689917"><ele>258.0</ele><time>2026-04-25T09:42:53.971Z</time></trkpt><trkpt lat="45.0451617" lon="8.2691183"><ele>258.0</ele><time>2026-04-25T09:42:54.971Z</time></trkpt><trkpt lat="45.04505" lon="8.2692183"><ele>258.0</ele><time>2026-04-25T09:42:55.971Z</time></trkpt><trkpt lat="45.0449483" lon="8.2693317"><ele>258.0</ele><time>2026-04-25T09:42:56.972Z</time></trkpt><trkpt lat="45.0448467" lon="8.2694367"><ele>258.0</ele><time>2026-04-25T09:42:57.971Z</time></trkpt><trkpt lat="45.0447483" lon="8.2695617"><ele>256.0</ele><time>2026-04-25T09:42:58.972Z</time></trkpt><trkpt lat="45.0446267" lon="8.269675"><ele>254.0</ele><time>2026-04-25T09:42:59.971Z</time></trkpt><trkpt lat="45.0444967" lon="8.2698"><ele>252.0</ele><time>2026-04-25T09:43:00.971Z</time></trkpt><trkpt lat="45.044345" lon="8.2699333"><ele>252.0</ele><time>2026-04-25T09:43:01.971Z</time></trkpt><trkpt lat="45.0441683" lon="8.2700533"><ele>252.0</ele><time>2026-04-25T09:43:02.972Z</time></trkpt><trkpt lat="45.0439783" lon="8.2701417"><ele>252.0</ele><time>2026-04-25T09:43:03.972Z</time></trkpt><trkpt lat="45.0437533" lon="8.270195"><ele>246.5</ele><time>2026-04-25T09:43:04.971Z</time></trkpt><trkpt lat="45.0435167" lon="8.2702533"><ele>241.0</ele><time>2026-04-25T09:43:05.971Z</time></trkpt><trkpt lat="45.0432983" lon="8.2702783"><ele>237.0</ele><time>2026-04-25T09:43:06.972Z</time></trkpt><trkpt lat="45.0430667" lon="8.2702733"><ele>233.0</ele><time>2026-04-25T09:43:07.972Z</time></trkpt><trkpt lat="45.042835" lon="8.2702417"><ele>233.0</ele><time>2026-04-25T09:43:08.972Z</time></trkpt><trkpt lat="45.0425933" lon="8.2701717"><ele>233.0</ele><time>2026-04-25T09:43:09.971Z</time></trkpt><trkpt lat="45.04236" lon="8.2700867"><ele>232.0</ele><time>2026-04-25T09:43:10.971Z</time></trkpt><trkpt lat="45.0421133" lon="8.2699767"><ele>231.0</ele><time>2026-04-25T09:43:11.972Z</time></trkpt><trkpt lat="45.04186" lon="8.269855"><ele>230.0</ele><time>2026-04-25T09:43:12.971Z</time></trkpt><trkpt lat="45.04159" lon="8.269735"><ele>229.0</ele><time>2026-04-25T09:43:13.972Z</time></trkpt><trkpt lat="45.041345" lon="8.269615"><ele>229.0</ele><time>2026-04-25T09:43:14.971Z</time></trkpt><trkpt lat="45.0410967" lon="8.2695033"><ele>229.0</ele><time>2026-04-25T09:43:15.971Z</time></trkpt><trkpt lat="45.0408383" lon="8.2693867"><ele>230.0</ele><time>2026-04-25T09:43:16.971Z</time></trkpt><trkpt lat="45.040595" lon="8.2692667"><ele>231.0</ele><time>2026-04-25T09:43:17.972Z</time></trkpt><trkpt lat="45.0403433" lon="8.269135"><ele>231.0</ele><time>2026-04-25T09:43:18.972Z</time></trkpt><trkpt lat="45.0400783" lon="8.269"><ele>231.0</ele><time>2026-04-25T09:43:19.971Z</time></trkpt><trkpt lat="45.03982" lon="8.268875"><ele>228.0</ele><time>2026-04-25T09:43:20.971Z</time></trkpt><trkpt lat="45.039565" lon="8.2687483"><ele>225.0</ele><time>2026-04-25T09:43:21.972Z</time></trkpt><trkpt lat="45.03931" lon="8.2686383"><ele>226.5</ele><time>2026-04-25T09:43:22.972Z</time></trkpt><trkpt lat="45.03907" lon="8.2685317"><ele>228.0</ele><time>2026-04-25T09:43:23.971Z</time></trkpt><trkpt lat="45.0388567" lon="8.2684183"><ele>228.0</ele><time>2026-04-25T09:43:24.971Z</time></trkpt><trkpt lat="45.0386417" lon="8.2683317"><ele>228.0</ele><time>2026-04-25T09:43:25.971Z</time></trkpt><trkpt lat="45.0384417" lon="8.2682283"><ele>228.0</ele><time>2026-04-25T09:43:26.972Z</time></trkpt><trkpt lat="45.0382517" lon="8.2681383"><ele>225.66666666666669</ele><time>2026-04-25T09:43:27.971Z</time></trkpt><trkpt lat="45.03806" lon="8.26806"><ele>223.33333333333334</ele><time>2026-04-25T09:43:28.972Z</time></trkpt><trkpt lat="45.0378967" lon="8.2679933"><ele>221.0</ele><time>2026-04-25T09:43:29.971Z</time></trkpt><trkpt lat="45.03776" lon="8.2679267"><ele>221.0</ele><time>2026-04-25T09:43:30.971Z</time></trkpt><trkpt lat="45.03763" lon="8.267875"><ele>221.0</ele><time>2026-04-25T09:43:31.972Z</time></trkpt><trkpt lat="45.037515" lon="8.2678317"><ele>221.0</ele><time>2026-04-25T09:43:32.971Z</time></trkpt><trkpt lat="45.03738" lon="8.2677733"><ele>221.0</ele><time>2026-04-25T09:43:33.972Z</time></trkpt><trkpt lat="45.0372383" lon="8.2676933"><ele>221.0</ele><time>2026-04-25T09:43:34.971Z</time></trkpt><trkpt lat="45.0370783" lon="8.2676133"><ele>221.0</ele><time>2026-04-25T09:43:35.972Z</time></trkpt><trkpt lat="45.0368983" lon="8.2675317"><ele>221.0</ele><time>2026-04-25T09:43:36.971Z</time></trkpt><trkpt lat="45.0366983" lon="8.2674233"><ele>221.33333333333334</ele><time>2026-04-25T09:43:37.972Z</time></trkpt><trkpt lat="45.0364983" lon="8.26733"><ele>221.66666666666669</ele><time>2026-04-25T09:43:38.972Z</time></trkpt><trkpt lat="45.036295" lon="8.2672483"><ele>222.0</ele><time>2026-04-25T09:43:39.971Z</time></trkpt><trkpt lat="45.03609" lon="8.2671567"><ele>220.5</ele><time>2026-04-25T09:43:40.971Z</time></trkpt><trkpt lat="45.0358633" lon="8.267055"><ele>219.0</ele><time>2026-04-25T09:43:41.972Z</time></trkpt><trkpt lat="45.0356333" lon="8.2669433"><ele>218.0</ele><time>2026-04-25T09:43:42.972Z</time></trkpt><trkpt lat="45.0354067" lon="8.266835"><ele>217.0</ele><time>2026-04-25T09:43:43.972Z</time></trkpt><trkpt lat="45.0351817" lon="8.2667217"><ele>218.0</ele><time>2026-04-25T09:43:44.972Z</time></trkpt><trkpt lat="45.0349333" lon="8.2665933"><ele>219.0</ele><time>2026-04-25T09:43:45.972Z</time></trkpt><trkpt lat="45.0346817" lon="8.26649"><ele>220.5</ele><time>2026-04-25T09:43:46.971Z</time></trkpt><trkpt lat="45.0344267" lon="8.266375"><ele>222.0</ele><time>2026-04-25T09:43:47.972Z</time></trkpt><trkpt lat="45.0341767" lon="8.2662767"><ele>219.5</ele><time>2026-04-25T09:43:48.971Z</time></trkpt><trkpt lat="45.03393" lon="8.2661467"><ele>217.0</ele><time>2026-04-25T09:43:49.972Z</time></trkpt><trkpt lat="45.0336733" lon="8.2660183"><ele>217.0</ele><time>2026-04-25T09:43:50.972Z</time></trkpt><trkpt lat="45.0334217" lon="8.2659"><ele>217.0</ele><time>2026-04-25T09:43:51.971Z</time></trkpt><trkpt lat="45.03318" lon="8.2657783"><ele>216.0</ele><time>2026-04-25T09:43:52.972Z</time></trkpt><trkpt lat="45.0329333" lon="8.2656717"><ele>215.0</ele><time>2026-04-25T09:43:53.971Z</time></trkpt><trkpt lat="45.0326933" lon="8.2655567"><ele>216.5</ele><time>2026-04-25T09:43:54.972Z</time></trkpt><trkpt lat="45.0324483" lon="8.2654217"><ele>218.0</ele><time>2026-04-25T09:43:55.972Z</time></trkpt><trkpt lat="45.0321967" lon="8.2652883"><ele>218.0</ele><time>2026-04-25T09:43:56.971Z</time></trkpt><trkpt lat="45.0319617" lon="8.2651517"><ele>218.0</ele><time>2026-04-25T09:43:57.971Z</time></trkpt><trkpt lat="45.0317317" lon="8.2650117"><ele>215.5</ele><time>2026-04-25T09:43:58.972Z</time></trkpt><trkpt lat="45.0315367" lon="8.264845"><ele>213.0</ele><time>2026-04-25T09:43:59.972Z</time></trkpt><trkpt lat="45.03135" lon="8.2646533"><ele>213.0</ele><time>2026-04-25T09:44:00.971Z</time></trkpt><trkpt lat="45.0311733" lon="8.264405"><ele>213.0</ele><time>2026-04-25T09:44:01.971Z</time></trkpt><trkpt lat="45.03101" lon="8.2641333"><ele>214.5</ele><time>2026-04-25T09:44:02.972Z</time></trkpt><trkpt lat="45.0308433" lon="8.2638617"><ele>216.0</ele><time>2026-04-25T09:44:03.972Z</time></trkpt><trkpt lat="45.030695" lon="8.2635417"><ele>213.0</ele><time>2026-04-25T09:44:04.972Z</time></trkpt><trkpt lat="45.0305367" lon="8.2632417"><ele>210.0</ele><time>2026-04-25T09:44:05.972Z</time></trkpt><trkpt lat="45.03037" lon="8.2629433"><ele>210.0</ele><time>2026-04-25T09:44:06.971Z</time></trkpt><trkpt lat="45.0302067" lon="8.262645"><ele>210.0</ele><time>2026-04-25T09:44:07.972Z</time></trkpt><trkpt lat="45.030035" lon="8.2623483"><ele>210.0</ele><time>2026-04-25T09:44:08.972Z</time></trkpt><trkpt lat="45.0298633" lon="8.2620567"><ele>210.0</ele><time>2026-04-25T09:44:09.972Z</time></trkpt><trkpt lat="45.0297117" lon="8.2617667"><ele>210.0</ele><time>2026-04-25T09:44:10.971Z</time></trkpt><trkpt lat="45.0295483" lon="8.2614717"><ele>210.0</ele><time>2026-04-25T09:44:11.971Z</time></trkpt><trkpt lat="45.0293867" lon="8.261175"><ele>211.0</ele><time>2026-04-25T09:44:12.971Z</time></trkpt><trkpt lat="45.0292167" lon="8.2608917"><ele>212.0</ele><time>2026-04-25T09:44:13.971Z</time></trkpt><trkpt lat="45.0290667" lon="8.2606033"><ele>210.0</ele><time>2026-04-25T09:44:14.972Z</time></trkpt><trkpt lat="45.0288967" lon="8.2603"><ele>208.0</ele><time>2026-04-25T09:44:15.971Z</time></trkpt><trkpt lat="45.02875" lon="8.26002"><ele>208.5</ele><time>2026-04-25T09:44:16.972Z</time></trkpt><trkpt lat="45.0285967" lon="8.2597467"><ele>209.0</ele><time>2026-04-25T09:44:17.972Z</time></trkpt><trkpt lat="45.0284483" lon="8.2594883"><ele>208.5</ele><time>2026-04-25T09:44:18.971Z</time></trkpt><trkpt lat="45.0283067" lon="8.2591933"><ele>208.0</ele><time>2026-04-25T09:44:19.971Z</time></trkpt><trkpt lat="45.028155" lon="8.2589317"><ele>207.5</ele><time>2026-04-25T09:44:20.972Z</time></trkpt><trkpt lat="45.0280267" lon="8.2586683"><ele>207.0</ele><time>2026-04-25T09:44:21.971Z</time></trkpt><trkpt lat="45.0278883" lon="8.258395"><ele>207.0</ele><time>2026-04-25T09:44:22.972Z</time></trkpt><trkpt lat="45.0277483" lon="8.258115"><ele>207.0</ele><time>2026-04-25T09:44:23.972Z</time></trkpt><trkpt lat="45.0276017" lon="8.2578533"><ele>207.0</ele><time>2026-04-25T09:44:24.971Z</time></trkpt><trkpt lat="45.0274533" lon="8.2576017"><ele>207.0</ele><time>2026-04-25T09:44:25.971Z</time></trkpt><trkpt lat="45.02729" lon="8.25738"><ele>210.5</ele><time>2026-04-25T09:44:26.971Z</time></trkpt><trkpt lat="45.0271" lon="8.2571983"><ele>214.0</ele><time>2026-04-25T09:44:27.971Z</time></trkpt><trkpt lat="45.026905" lon="8.2570483"><ele>214.0</ele><time>2026-04-25T09:44:28.972Z</time></trkpt><trkpt lat="45.0266817" lon="8.2569317"><ele>214.0</ele><time>2026-04-25T09:44:29.972Z</time></trkpt><trkpt lat="45.0264383" lon="8.2568367"><ele>214.0</ele><time>2026-04-25T09:44:30.972Z</time></trkpt><trkpt lat="45.0261933" lon="8.2567683"><ele>214.0</ele><time>2026-04-25T09:44:31.971Z</time></trkpt><trkpt lat="45.0259317" lon="8.2567383"><ele>215.5</ele><time>2026-04-25T09:44:32.971Z</time></trkpt><trkpt lat="45.025685" lon="8.256755"><ele>217.0</ele><time>2026-04-25T09:44:33.971Z</time></trkpt><trkpt lat="45.0254283" lon="8.2567617"><ele>217.0</ele><time>2026-04-25T09:44:34.971Z</time></trkpt><trkpt lat="45.02516" lon="8.256755"><ele>217.0</ele><time>2026-04-25T09:44:35.972Z</time></trkpt><trkpt lat="45.024885" lon="8.2567483"><ele>217.5</ele><time>2026-04-25T09:44:36.971Z</time></trkpt><trkpt lat="45.024605" lon="8.2567333"><ele>218.0</ele><time>2026-04-25T09:44:37.971Z</time></trkpt><trkpt lat="45.0243017" lon="8.256725"><ele>219.0</ele><time>2026-04-25T09:44:38.971Z</time></trkpt><trkpt lat="45.0240033" lon="8.2567083"><ele>220.0</ele><time>2026-04-25T09:44:39.972Z</time></trkpt><trkpt lat="45.0237" lon="8.256705"><ele>220.0</ele><time>2026-04-25T09:44:40.971Z</time></trkpt><trkpt lat="45.0234083" lon="8.2567133"><ele>220.0</ele><time>2026-04-25T09:44:41.971Z</time></trkpt><trkpt lat="45.0231117" lon="8.2567183"><ele>219.5</ele><time>2026-04-25T09:44:42.972Z</time></trkpt><trkpt lat="45.0228267" lon="8.2567067"><ele>219.0</ele><time>2026-04-25T09:44:43.972Z</time></trkpt><trkpt lat="45.0225417" lon="8.2567167"><ele>218.5</ele><time>2026-04-25T09:44:44.971Z</time></trkpt><trkpt lat="45.022255" lon="8.2567183"><ele>218.0</ele><time>2026-04-25T09:44:45.972Z</time></trkpt><trkpt lat="45.0219683" lon="8.25675"><ele>218.0</ele><time>2026-04-25T09:44:46.971Z</time></trkpt><trkpt lat="45.021695" lon="8.2568317"><ele>218.0</ele><time>2026-04-25T09:44:47.971Z</time></trkpt><trkpt lat="45.0214317" lon="8.2569467"><ele>219.5</ele><time>2026-04-25T09:44:48.972Z</time></trkpt><trkpt lat="45.02117" lon="8.2570933"><ele>221.0</ele><time>2026-04-25T09:44:49.971Z</time></trkpt><trkpt lat="45.02093" lon="8.2572433"><ele>223.5</ele><time>2026-04-25T09:44:50.972Z</time></trkpt><trkpt lat="45.0207133" lon="8.257385"><ele>226.0</ele><time>2026-04-25T09:44:51.972Z</time></trkpt><trkpt lat="45.020495" lon="8.2575183"><ele>226.0</ele><time>2026-04-25T09:44:52.972Z</time></trkpt><trkpt lat="45.0202933" lon="8.2576383"><ele>226.0</ele><time>2026-04-25T09:44:53.972Z</time></trkpt><trkpt lat="45.0200917" lon="8.2577533"><ele>226.0</ele><time>2026-04-25T09:44:54.971Z</time></trkpt><trkpt lat="45.0198967" lon="8.2578717"><ele>227.0</ele><time>2026-04-25T09:44:55.971Z</time></trkpt><trkpt lat="45.019705" lon="8.2579867"><ele>228.0</ele><time>2026-04-25T09:44:56.971Z</time></trkpt><trkpt lat="45.0195217" lon="8.2580983"><ele>229.0</ele><time>2026-04-25T09:44:57.971Z</time></trkpt><trkpt lat="45.0193333" lon="8.2582067"><ele>229.0</ele><time>2026-04-25T09:44:58.972Z</time></trkpt><trkpt lat="45.0191483" lon="8.258285"><ele>229.0</ele><time>2026-04-25T09:44:59.971Z</time></trkpt><trkpt lat="45.0189617" lon="8.2583083"><ele>229.0</ele><time>2026-04-25T09:45:00.971Z</time></trkpt><trkpt lat="45.018755" lon="8.2582767"><ele>229.0</ele><time>2026-04-25T09:45:01.971Z</time></trkpt><trkpt lat="45.018565" lon="8.2581783"><ele>229.0</ele><time>2026-04-25T09:45:02.971Z</time></trkpt><trkpt lat="45.0183833" lon="8.2580383"><ele>229.0</ele><time>2026-04-25T09:45:03.971Z</time></trkpt><trkpt lat="45.018215" lon="8.2578833"><ele>229.66666666666666</ele><time>2026-04-25T09:45:04.971Z</time></trkpt><trkpt lat="45.01806" lon="8.2577067"><ele>230.33333333333331</ele><time>2026-04-25T09:45:05.971Z</time></trkpt><trkpt lat="45.0179283" lon="8.257495"><ele>231.0</ele><time>2026-04-25T09:45:06.971Z</time></trkpt><trkpt lat="45.0178" lon="8.2572667"><ele>231.0</ele><time>2026-04-25T09:45:07.971Z</time></trkpt><trkpt lat="45.0176683" lon="8.2570067"><ele>231.0</ele><time>2026-04-25T09:45:08.972Z</time></trkpt><trkpt lat="45.0175317" lon="8.2566983"><ele>228.5</ele><time>2026-04-25T09:45:09.971Z</time></trkpt><trkpt lat="45.01739" lon="8.2563533"><ele>226.0</ele><time>2026-04-25T09:45:10.972Z</time></trkpt><trkpt lat="45.0172533" lon="8.2560033"><ele>226.0</ele><time>2026-04-25T09:45:11.971Z</time></trkpt><trkpt lat="45.0171133" lon="8.255665"><ele>226.0</ele><time>2026-04-25T09:45:12.971Z</time></trkpt><trkpt lat="45.016975" lon="8.2553333"><ele>229.0</ele><time>2026-04-25T09:45:13.971Z</time></trkpt><trkpt lat="45.0168433" lon="8.2550483"><ele>232.0</ele><time>2026-04-25T09:45:14.972Z</time></trkpt><trkpt lat="45.0167067" lon="8.2547967"><ele>233.0</ele><time>2026-04-25T09:45:15.971Z</time></trkpt><trkpt lat="45.016535" lon="8.2545833"><ele>234.0</ele><time>2026-04-25T09:45:16.972Z</time></trkpt><trkpt lat="45.0163417" lon="8.2544067"><ele>234.0</ele><time>2026-04-25T09:45:17.971Z</time></trkpt><trkpt lat="45.0161317" lon="8.2543017"><ele>234.0</ele><time>2026-04-25T09:45:18.972Z</time></trkpt><trkpt lat="45.0158933" lon="8.2542383"><ele>233.0</ele><time>2026-04-25T09:45:19.971Z</time></trkpt><trkpt lat="45.01565" lon="8.2542233"><ele>232.0</ele><time>2026-04-25T09:45:20.972Z</time></trkpt><trkpt lat="45.0154033" lon="8.2542433"><ele>232.0</ele><time>2026-04-25T09:45:21.971Z</time></trkpt><trkpt lat="45.0151483" lon="8.2542667"><ele>232.0</ele><time>2026-04-25T09:45:22.972Z</time></trkpt><trkpt lat="45.0148717" lon="8.2543"><ele>235.5</ele><time>2026-04-25T09:45:23.971Z</time></trkpt><trkpt lat="45.0145883" lon="8.2543383"><ele>239.0</ele><time>2026-04-25T09:45:24.972Z</time></trkpt><trkpt lat="45.0143" lon="8.25437"><ele>240.5</ele><time>2026-04-25T09:45:25.971Z</time></trkpt><trkpt lat="45.0140167" lon="8.2544033"><ele>242.0</ele><time>2026-04-25T09:45:26.971Z</time></trkpt><trkpt lat="45.01373" lon="8.2544283"><ele>242.0</ele><time>2026-04-25T09:45:27.971Z</time></trkpt><trkpt lat="45.0134567" lon="8.2544583"><ele>242.0</ele><time>2026-04-25T09:45:28.972Z</time></trkpt><trkpt lat="45.0132" lon="8.2544883"><ele>245.0</ele><time>2026-04-25T09:45:29.972Z</time></trkpt><trkpt lat="45.01296" lon="8.2545283"><ele>248.0</ele><time>2026-04-25T09:45:30.971Z</time></trkpt><trkpt lat="45.0127383" lon="8.254595"><ele>248.0</ele><time>2026-04-25T09:45:31.972Z</time></trkpt><trkpt lat="45.012545" lon="8.2546683"><ele>248.0</ele><time>2026-04-25T09:45:32.972Z</time></trkpt><trkpt lat="45.0123817" lon="8.2547483"><ele>248.0</ele><time>2026-04-25T09:45:33.971Z</time></trkpt><trkpt lat="45.0122433" lon="8.2548283"><ele>250.5</ele><time>2026-04-25T09:45:34.971Z</time></trkpt><trkpt lat="45.012115" lon="8.2549017"><ele>253.0</ele><time>2026-04-25T09:45:35.971Z</time></trkpt><trkpt lat="45.0119917" lon="8.2549683"><ele>255.5</ele><time>2026-04-25T09:45:36.971Z</time></trkpt><trkpt lat="45.011895" lon="8.2550567"><ele>258.0</ele><time>2026-04-25T09:45:37.971Z</time></trkpt><trkpt lat="45.0117933" lon="8.2551483"><ele>258.0</ele><time>2026-04-25T09:45:38.971Z</time></trkpt><trkpt lat="45.011685" lon="8.2552167"><ele>258.0</ele><time>2026-04-25T09:45:39.971Z</time></trkpt><trkpt lat="45.01158" lon="8.255285"><ele>258.0</ele><time>2026-04-25T09:45:40.971Z</time></trkpt><trkpt lat="45.0114867" lon="8.2553467"><ele>258.0</ele><time>2026-04-25T09:45:41.972Z</time></trkpt><trkpt lat="45.01141" lon="8.2553933"><ele>258.0</ele><time>2026-04-25T09:45:42.971Z</time></trkpt><trkpt lat="45.0113433" lon="8.2555367"><ele>255.75</ele><time>2026-04-25T09:45:44.972Z</time></trkpt><trkpt lat="45.0113517" lon="8.2556467"><ele>253.5</ele><time>2026-04-25T09:45:45.971Z</time></trkpt><trkpt lat="45.01141" lon="8.2557983"><ele>251.25</ele><time>2026-04-25T09:45:46.971Z</time></trkpt><trkpt lat="45.0114867" lon="8.2559867"><ele>249.0</ele><time>2026-04-25T09:45:47.971Z</time></trkpt><trkpt lat="45.0115767" lon="8.2562367"><ele>249.0</ele><time>2026-04-25T09:45:48.971Z</time></trkpt><trkpt lat="45.0116383" lon="8.2564483"><ele>249.0</ele><time>2026-04-25T09:45:49.971Z</time></trkpt><trkpt lat="45.0116833" lon="8.2566383"><ele>249.0</ele><time>2026-04-25T09:45:50.971Z</time></trkpt><trkpt lat="45.0117233" lon="8.25678"><ele>249.0</ele><time>2026-04-25T09:45:51.972Z</time></trkpt><trkpt lat="45.0117283" lon="8.2569383"><ele>248.39999999999998</ele><time>2026-04-25T09:45:52.971Z</time></trkpt><trkpt lat="45.0116917" lon="8.257055"><ele>247.79999999999998</ele><time>2026-04-25T09:45:53.971Z</time></trkpt><trkpt lat="45.0116117" lon="8.2571033"><ele>247.20000000000002</ele><time>2026-04-25T09:45:54.971Z</time></trkpt><trkpt lat="45.01152" lon="8.2571217"><ele>246.60000000000002</ele><time>2026-04-25T09:45:55.971Z</time></trkpt><trkpt lat="45.0114117" lon="8.25712"><ele>246.0</ele><time>2026-04-25T09:45:56.971Z</time></trkpt><trkpt lat="45.0112817" lon="8.2570433"><ele>244.5</ele><time>2026-04-25T09:45:57.971Z</time></trkpt><trkpt lat="45.0111683" lon="8.256935"><ele>243.0</ele><time>2026-04-25T09:45:58.971Z</time></trkpt><trkpt lat="45.01106" lon="8.2567983"><ele>241.5</ele><time>2026-04-25T09:45:59.971Z</time></trkpt><trkpt lat="45.0109683" lon="8.25666"><ele>240.0</ele><time>2026-04-25T09:46:00.971Z</time></trkpt><trkpt lat="45.010875" lon="8.2565683"><ele>240.5</ele><time>2026-04-25T09:46:01.972Z</time></trkpt><trkpt lat="45.0107817" lon="8.256525"><ele>241.0</ele><time>2026-04-25T09:46:02.971Z</time></trkpt><trkpt lat="45.010655" lon="8.2565317"><ele>241.5</ele><time>2026-04-25T09:46:03.972Z</time></trkpt><trkpt lat="45.0105117" lon="8.2565967"><ele>242.0</ele><time>2026-04-25T09:46:04.971Z</time></trkpt><trkpt lat="45.0103633" lon="8.25668"><ele>242.0</ele><time>2026-04-25T09:46:05.972Z</time></trkpt><trkpt lat="45.01022" lon="8.256775"><ele>242.0</ele><time>2026-04-25T09:46:06.971Z</time></trkpt><trkpt lat="45.0100783" lon="8.2568833"><ele>242.0</ele><time>2026-04-25T09:46:07.972Z</time></trkpt><trkpt lat="45.0099483" lon="8.2569967"><ele>243.0</ele><time>2026-04-25T09:46:08.971Z</time></trkpt><trkpt lat="45.0098233" lon="8.257135"><ele>244.0</ele><time>2026-04-25T09:46:09.971Z</time></trkpt><trkpt lat="45.0097117" lon="8.2573167"><ele>245.0</ele><time>2026-04-25T09:46:10.972Z</time></trkpt><trkpt lat="45.0096067" lon="8.25751"><ele>245.0</ele><time>2026-04-25T09:46:11.971Z</time></trkpt><trkpt lat="45.0095083" lon="8.2577083"><ele>245.0</ele><time>2026-04-25T09:46:12.971Z</time></trkpt><trkpt lat="45.009405" lon="8.2578833"><ele>245.0</ele><time>2026-04-25T09:46:13.972Z</time></trkpt><trkpt lat="45.0093067" lon="8.258035"><ele>244.0</ele><time>2026-04-25T09:46:14.971Z</time></trkpt><trkpt lat="45.00923" lon="8.2581817"><ele>243.0</ele><time>2026-04-25T09:46:15.971Z</time></trkpt><trkpt lat="45.009185" lon="8.2583317"><ele>242.0</ele><time>2026-04-25T09:46:16.972Z</time></trkpt><trkpt lat="45.0091033" lon="8.2584117"><ele>241.0</ele><time>2026-04-25T09:46:17.971Z</time></trkpt><trkpt lat="45.0090317" lon="8.2585067"><ele>240.0</ele><time>2026-04-25T09:46:18.972Z</time></trkpt><trkpt lat="45.0089483" lon="8.258585"><ele>242.8</ele><time>2026-04-25T09:46:19.972Z</time></trkpt><trkpt lat="45.0088617" lon="8.25865"><ele>245.6</ele><time>2026-04-25T09:46:20.971Z</time></trkpt><trkpt lat="45.00879" lon="8.2587383"><ele>248.39999999999998</ele><time>2026-04-25T09:46:21.972Z</time></trkpt><trkpt lat="45.0086883" lon="8.25881"><ele>251.2</ele><time>2026-04-25T09:46:22.971Z</time></trkpt><trkpt lat="45.0085767" lon="8.25886"><ele>254.0</ele><time>2026-04-25T09:46:23.971Z</time></trkpt><trkpt lat="45.0084783" lon="8.2588983"><ele>254.00000000000003</ele><time>2026-04-25T09:46:24.972Z</time></trkpt><trkpt lat="45.008385" lon="8.2589317"><ele>254.0</ele><time>2026-04-25T09:46:25.971Z</time></trkpt><trkpt lat="45.0083133" lon="8.25898"><ele>254.0</ele><time>2026-04-25T09:46:26.972Z</time></trkpt><trkpt lat="45.0082367" lon="8.2589917"><ele>254.0</ele><time>2026-04-25T09:46:27.972Z</time></trkpt><trkpt lat="45.00816" lon="8.2589883"><ele>254.00000000000003</ele><time>2026-04-25T09:46:28.971Z</time></trkpt><trkpt lat="45.0080633" lon="8.2589683"><ele>254.0</ele><time>2026-04-25T09:46:30.971Z</time></trkpt><trkpt lat="45.007955" lon="8.25893"><ele>254.16666666666669</ele><time>2026-04-25T09:46:32.972Z</time></trkpt><trkpt lat="45.0078683" lon="8.258935"><ele>254.33333333333334</ele><time>2026-04-25T09:46:34.971Z</time></trkpt><trkpt lat="45.0077633" lon="8.2588767"><ele>254.5</ele><time>2026-04-25T09:46:36.972Z</time></trkpt><trkpt lat="45.0076917" lon="8.2588533"><ele>254.66666666666669</ele><time>2026-04-25T09:46:37.971Z</time></trkpt><trkpt lat="45.0076183" lon="8.2588567"><ele>254.83333333333334</ele><time>2026-04-25T09:46:38.972Z</time></trkpt><trkpt lat="45.0075433" lon="8.2588667"><ele>255.0</ele><time>2026-04-25T09:46:39.972Z</time></trkpt><trkpt lat="45.007465" lon="8.258855"><ele>253.5</ele><time>2026-04-25T09:46:40.972Z</time></trkpt><trkpt lat="45.0073867" lon="8.25886"><ele>252.0</ele><time>2026-04-25T09:46:41.972Z</time></trkpt><trkpt lat="45.0073133" lon="8.2588483"><ele>250.5</ele><time>2026-04-25T09:46:42.97Z</time></trkpt><trkpt lat="45.0072333" lon="8.25881"><ele>249.0</ele><time>2026-04-25T09:46:43.97Z</time></trkpt><trkpt lat="45.007165" lon="8.2587733"><ele>247.5</ele><time>2026-04-25T09:46:44.97Z</time></trkpt><trkpt lat="45.0071" lon="8.25873"><ele>246.0</ele><time>2026-04-25T09:46:45.97Z</time></trkpt><trkpt lat="45.0070233" lon="8.2586783"><ele>246.0</ele><time>2026-04-25T09:46:46.971Z</time></trkpt><trkpt lat="45.0069367" lon="8.2586283"><ele>246.0</ele><time>2026-04-25T09:46:47.97Z</time></trkpt><trkpt lat="45.00686" lon="8.2585667"><ele>246.0</ele><time>2026-04-25T09:46:48.97Z</time></trkpt><trkpt lat="45.0067883" lon="8.2584983"><ele>246.0</ele><time>2026-04-25T09:46:49.971Z</time></trkpt><trkpt lat="45.0067233" lon="8.258415"><ele>246.0</ele><time>2026-04-25T09:46:50.97Z</time></trkpt><trkpt lat="45.0066667" lon="8.2583583"><ele>246.0</ele><time>2026-04-25T09:46:51.97Z</time></trkpt><trkpt lat="45.0065967" lon="8.2582917"><ele>246.0</ele><time>2026-04-25T09:46:52.971Z</time></trkpt><trkpt lat="45.006525" lon="8.2582017"><ele>246.0</ele><time>2026-04-25T09:46:53.97Z</time></trkpt><trkpt lat="45.0064517" lon="8.2581167"><ele>246.0</ele><time>2026-04-25T09:46:54.97Z</time></trkpt><trkpt lat="45.0063883" lon="8.25804"><ele>246.0</ele><time>2026-04-25T09:46:55.97Z</time></trkpt><trkpt lat="45.0063333" lon="8.2579767"><ele>246.0</ele><time>2026-04-25T09:46:56.97Z</time></trkpt><trkpt lat="45.006275" lon="8.2579283"><ele>246.0</ele><time>2026-04-25T09:46:57.97Z</time></trkpt><trkpt lat="45.0061917" lon="8.2578383"><ele>246.0</ele><time>2026-04-25T09:46:59.97Z</time></trkpt><trkpt lat="45.0061" lon="8.2577583"><ele>246.00000000000003</ele><time>2026-04-25T09:47:01.971Z</time></trkpt><trkpt lat="45.0060133" lon="8.2577167"><ele>246.00000000000003</ele><time>2026-04-25T09:47:03.971Z</time></trkpt><trkpt lat="45.0059233" lon="8.2577067"><ele>246.0</ele><time>2026-04-25T09:47:05.97Z</time></trkpt><trkpt lat="45.0058" lon="8.2576783"><ele>246.0</ele><time>2026-04-25T09:47:07.971Z</time></trkpt><trkpt lat="45.0057267" lon="8.2576633"><ele>245.33333333333334</ele><time>2026-04-25T09:47:08.97Z</time></trkpt><trkpt lat="45.0056517" lon="8.2576433"><ele>244.66666666666669</ele><time>2026-04-25T09:47:09.971Z</time></trkpt><trkpt lat="45.0055783" lon="8.2576233"><ele>244.0</ele><time>2026-04-25T09:47:10.97Z</time></trkpt><trkpt lat="45.0055" lon="8.257605"><ele>243.33333333333334</ele><time>2026-04-25T09:47:11.97Z</time></trkpt><trkpt lat="45.0054217" lon="8.2575867"><ele>242.66666666666669</ele><time>2026-04-25T09:47:12.971Z</time></trkpt><trkpt lat="45.0053483" lon="8.2575717"><ele>242.0</ele><time>2026-04-25T09:47:13.97Z</time></trkpt><trkpt lat="45.0052767" lon="8.25755"><ele>242.0</ele><time>2026-04-25T09:47:14.97Z</time></trkpt><trkpt lat="45.005185" lon="8.25753"><ele>242.0</ele><time>2026-04-25T09:47:15.97Z</time></trkpt><trkpt lat="45.00509" lon="8.2575083"><ele>242.0</ele><time>2026-04-25T09:47:16.97Z</time></trkpt><trkpt lat="45.0049867" lon="8.25749"><ele>242.0</ele><time>2026-04-25T09:47:17.97Z</time></trkpt><trkpt lat="45.00489" lon="8.2574717"><ele>242.0</ele><time>2026-04-25T09:47:18.971Z</time></trkpt><trkpt lat="45.0047867" lon="8.2574567"><ele>242.6</ele><time>2026-04-25T09:47:19.971Z</time></trkpt><trkpt lat="45.0046767" lon="8.2574533"><ele>243.2</ele><time>2026-04-25T09:47:20.97Z</time></trkpt><trkpt lat="45.0045683" lon="8.2574517"><ele>243.8</ele><time>2026-04-25T09:47:21.971Z</time></trkpt><trkpt lat="45.0044583" lon="8.257445"><ele>244.4</ele><time>2026-04-25T09:47:22.97Z</time></trkpt><trkpt lat="45.004355" lon="8.257445"><ele>245.0</ele><time>2026-04-25T09:47:23.971Z</time></trkpt><trkpt lat="45.0042533" lon="8.2574433"><ele>245.8</ele><time>2026-04-25T09:47:24.97Z</time></trkpt><trkpt lat="45.0041583" lon="8.2574417"><ele>246.6</ele><time>2026-04-25T09:47:25.97Z</time></trkpt><trkpt lat="45.0040683" lon="8.257455"><ele>247.39999999999998</ele><time>2026-04-25T09:47:26.97Z</time></trkpt><trkpt lat="45.0039867" lon="8.2574717"><ele>248.2</ele><time>2026-04-25T09:47:27.971Z</time></trkpt><trkpt lat="45.0039117" lon="8.25754"><ele>249.0</ele><time>2026-04-25T09:47:28.97Z</time></trkpt><trkpt lat="45.0038167" lon="8.257595"><ele>249.0</ele><time>2026-04-25T09:47:29.97Z</time></trkpt><trkpt lat="45.0037283" lon="8.25767"><ele>249.0</ele><time>2026-04-25T09:47:30.971Z</time></trkpt><trkpt lat="45.0036367" lon="8.257775"><ele>249.0</ele><time>2026-04-25T09:47:31.97Z</time></trkpt><trkpt lat="45.0035317" lon="8.25792"><ele>249.0</ele><time>2026-04-25T09:47:32.97Z</time></trkpt><trkpt lat="45.0034083" lon="8.2580883"><ele>255.33333333333331</ele><time>2026-04-25T09:47:33.971Z</time></trkpt><trkpt lat="45.0032767" lon="8.2582667"><ele>261.66666666666663</ele><time>2026-04-25T09:47:34.97Z</time></trkpt><trkpt lat="45.0031333" lon="8.258475"><ele>268.0</ele><time>2026-04-25T09:47:35.97Z</time></trkpt><trkpt lat="45.0029933" lon="8.2586883"><ele>268.0</ele><time>2026-04-25T09:47:36.97Z</time></trkpt><trkpt lat="45.0028517" lon="8.25895"><ele>268.0</ele><time>2026-04-25T09:47:37.97Z</time></trkpt><trkpt lat="45.002695" lon="8.2591717"><ele>266.0</ele><time>2026-04-25T09:47:38.97Z</time></trkpt><trkpt lat="45.00254" lon="8.2593967"><ele>264.0</ele><time>2026-04-25T09:47:39.97Z</time></trkpt><trkpt lat="45.002385" lon="8.2596267"><ele>262.0</ele><time>2026-04-25T09:47:40.971Z</time></trkpt><trkpt lat="45.0022533" lon="8.2598367"><ele>260.3333333333333</ele><time>2026-04-25T09:47:41.97Z</time></trkpt><trkpt lat="45.002145" lon="8.260045"><ele>258.6666666666667</ele><time>2026-04-25T09:47:42.971Z</time></trkpt><trkpt lat="45.0020317" lon="8.26021"><ele>257.0</ele><time>2026-04-25T09:47:43.97Z</time></trkpt><trkpt lat="45.0019467" lon="8.2603967"><ele>257.6666666666667</ele><time>2026-04-25T09:47:44.97Z</time></trkpt><trkpt lat="45.0019133" lon="8.260645"><ele>258.3333333333333</ele><time>2026-04-25T09:47:45.971Z</time></trkpt><trkpt lat="45.001905" lon="8.26092"><ele>259.0</ele><time>2026-04-25T09:47:46.971Z</time></trkpt><trkpt lat="45.0019117" lon="8.2612333"><ele>260.0</ele><time>2026-04-25T09:47:47.971Z</time></trkpt><trkpt lat="45.0019233" lon="8.261575"><ele>261.0</ele><time>2026-04-25T09:47:48.97Z</time></trkpt><trkpt lat="45.001935" lon="8.2619017"><ele>261.0</ele><time>2026-04-25T09:47:49.97Z</time></trkpt><trkpt lat="45.001935" lon="8.2622083"><ele>261.0</ele><time>2026-04-25T09:47:50.971Z</time></trkpt><trkpt lat="45.0019217" lon="8.2625"><ele>261.0</ele><time>2026-04-25T09:47:51.97Z</time></trkpt><trkpt lat="45.00188" lon="8.2627933"><ele>262.0</ele><time>2026-04-25T09:47:52.97Z</time></trkpt><trkpt lat="45.001795" lon="8.2630683"><ele>263.0</ele><time>2026-04-25T09:47:53.97Z</time></trkpt><trkpt lat="45.0016617" lon="8.263315"><ele>264.0</ele><time>2026-04-25T09:47:54.971Z</time></trkpt><trkpt lat="45.0015017" lon="8.2635583"><ele>262.0</ele><time>2026-04-25T09:47:55.971Z</time></trkpt><trkpt lat="45.001345" lon="8.2637967"><ele>260.0</ele><time>2026-04-25T09:47:56.97Z</time></trkpt><trkpt lat="45.0011683" lon="8.2640667"><ele>260.0</ele><time>2026-04-25T09:47:57.97Z</time></trkpt><trkpt lat="45.001" lon="8.2643267"><ele>260.0</ele><time>2026-04-25T09:47:58.97Z</time></trkpt><trkpt lat="45.0008267" lon="8.264585"><ele>256.5</ele><time>2026-04-25T09:47:59.97Z</time></trkpt><trkpt lat="45.0006683" lon="8.2648433"><ele>253.0</ele><time>2026-04-25T09:48:00.97Z</time></trkpt><trkpt lat="45.000525" lon="8.265125"><ele>253.0</ele><time>2026-04-25T09:48:01.971Z</time></trkpt><trkpt lat="45.00039" lon="8.26542"><ele>253.0</ele><time>2026-04-25T09:48:02.971Z</time></trkpt><trkpt lat="45.00029" lon="8.26574"><ele>254.5</ele><time>2026-04-25T09:48:03.97Z</time></trkpt><trkpt lat="45.0002067" lon="8.2660883"><ele>256.0</ele><time>2026-04-25T09:48:04.97Z</time></trkpt><trkpt lat="45.0001367" lon="8.2664417"><ele>259.0</ele><time>2026-04-25T09:48:05.971Z</time></trkpt><trkpt lat="45.0000483" lon="8.2667683"><ele>262.0</ele><time>2026-04-25T09:48:06.971Z</time></trkpt><trkpt lat="44.9999383" lon="8.2670433"><ele>262.0</ele><time>2026-04-25T09:48:07.97Z</time></trkpt><trkpt lat="44.9998" lon="8.2672683"><ele>262.0</ele><time>2026-04-25T09:48:08.97Z</time></trkpt><trkpt lat="44.9996867" lon="8.2674583"><ele>262.0</ele><time>2026-04-25T09:48:09.97Z</time></trkpt><trkpt lat="44.9995933" lon="8.26767"><ele>264.3333333333333</ele><time>2026-04-25T09:48:10.971Z</time></trkpt><trkpt lat="44.9995533" lon="8.2678983"><ele>266.6666666666667</ele><time>2026-04-25T09:48:11.971Z</time></trkpt><trkpt lat="44.9995667" lon="8.2681783"><ele>269.0</ele><time>2026-04-25T09:48:12.971Z</time></trkpt><trkpt lat="44.9996033" lon="8.2684967"><ele>270.33333333333337</ele><time>2026-04-25T09:48:13.971Z</time></trkpt><trkpt lat="44.9996483" lon="8.2688167"><ele>271.6666666666667</ele><time>2026-04-25T09:48:14.971Z</time></trkpt><trkpt lat="44.9996917" lon="8.2691083"><ele>273.0</ele><time>2026-04-25T09:48:15.97Z</time></trkpt><trkpt lat="44.999705" lon="8.269395"><ele>273.3333333333333</ele><time>2026-04-25T09:48:16.97Z</time></trkpt><trkpt lat="44.9996817" lon="8.2696583"><ele>273.66666666666663</ele><time>2026-04-25T09:48:17.97Z</time></trkpt><trkpt lat="44.9996033" lon="8.2699167"><ele>274.0</ele><time>2026-04-25T09:48:18.971Z</time></trkpt><trkpt lat="44.9994883" lon="8.2701867"><ele>274.0</ele><time>2026-04-25T09:48:19.971Z</time></trkpt><trkpt lat="44.999365" lon="8.27047"><ele>274.0</ele><time>2026-04-25T09:48:20.97Z</time></trkpt><trkpt lat="44.9992417" lon="8.2707683"><ele>270.0</ele><time>2026-04-25T09:48:21.97Z</time></trkpt><trkpt lat="44.999115" lon="8.2710717"><ele>266.0</ele><time>2026-04-25T09:48:22.97Z</time></trkpt><trkpt lat="44.9989883" lon="8.271395"><ele>270.5</ele><time>2026-04-25T09:48:23.971Z</time></trkpt><trkpt lat="44.9988583" lon="8.2717033"><ele>275.0</ele><time>2026-04-25T09:48:24.97Z</time></trkpt><trkpt lat="44.9987383" lon="8.27199"><ele>275.0</ele><time>2026-04-25T09:48:25.97Z</time></trkpt><trkpt lat="44.99863" lon="8.2722467"><ele>275.0</ele><time>2026-04-25T09:48:26.97Z</time></trkpt><trkpt lat="44.9985183" lon="8.2724533"><ele>275.0</ele><time>2026-04-25T09:48:27.97Z</time></trkpt><trkpt lat="44.9983933" lon="8.2726383"><ele>275.6666666666667</ele><time>2026-04-25T09:48:28.97Z</time></trkpt><trkpt lat="44.99826" lon="8.2728183"><ele>276.3333333333333</ele><time>2026-04-25T09:48:29.97Z</time></trkpt><trkpt lat="44.9981317" lon="8.273005"><ele>277.0</ele><time>2026-04-25T09:48:30.971Z</time></trkpt><trkpt lat="44.9980783" lon="8.273215"><ele>277.0</ele><time>2026-04-25T09:48:31.97Z</time></trkpt><trkpt lat="44.998085" lon="8.2734533"><ele>277.0</ele><time>2026-04-25T09:48:32.971Z</time></trkpt><trkpt lat="44.998105" lon="8.2737167"><ele>277.0</ele><time>2026-04-25T09:48:33.97Z</time></trkpt><trkpt lat="44.9981367" lon="8.2740083"><ele>276.66666666666663</ele><time>2026-04-25T09:48:34.971Z</time></trkpt><trkpt lat="44.9981717" lon="8.2743117"><ele>276.3333333333333</ele><time>2026-04-25T09:48:35.971Z</time></trkpt><trkpt lat="44.998185" lon="8.2746217"><ele>276.0</ele><time>2026-04-25T09:48:36.971Z</time></trkpt><trkpt lat="44.998185" lon="8.2749433"><ele>275.6666666666667</ele><time>2026-04-25T09:48:37.97Z</time></trkpt><trkpt lat="44.9981783" lon="8.275255"><ele>275.33333333333337</ele><time>2026-04-25T09:48:38.971Z</time></trkpt><trkpt lat="44.9981817" lon="8.275545"><ele>275.0</ele><time>2026-04-25T09:48:39.97Z</time></trkpt><trkpt lat="44.9982367" lon="8.2758217"><ele>275.6666666666667</ele><time>2026-04-25T09:48:40.97Z</time></trkpt><trkpt lat="44.9983333" lon="8.2760833"><ele>276.3333333333333</ele><time>2026-04-25T09:48:41.971Z</time></trkpt><trkpt lat="44.99846" lon="8.2763417"><ele>277.0</ele><time>2026-04-25T09:48:42.971Z</time></trkpt><trkpt lat="44.9985867" lon="8.276585"><ele>277.0</ele><time>2026-04-25T09:48:43.97Z</time></trkpt><trkpt lat="44.9987033" lon="8.27683"><ele>277.0</ele><time>2026-04-25T09:48:44.971Z</time></trkpt><trkpt lat="44.9987783" lon="8.2771067"><ele>277.0</ele><time>2026-04-25T09:48:45.971Z</time></trkpt><trkpt lat="44.9988117" lon="8.27741"><ele>276.0</ele><time>2026-04-25T09:48:46.97Z</time></trkpt><trkpt lat="44.9988283" lon="8.2777467"><ele>275.0</ele><time>2026-04-25T09:48:47.97Z</time></trkpt><trkpt lat="44.9988483" lon="8.27808"><ele>273.6666666666667</ele><time>2026-04-25T09:48:48.97Z</time></trkpt><trkpt lat="44.9988683" lon="8.2784"><ele>272.3333333333333</ele><time>2026-04-25T09:48:49.971Z</time></trkpt><trkpt lat="44.9989" lon="8.27871"><ele>271.0</ele><time>2026-04-25T09:48:50.971Z</time></trkpt><trkpt lat="44.99893" lon="8.2790417"><ele>269.0</ele><time>2026-04-25T09:48:51.97Z</time></trkpt><trkpt lat="44.99896" lon="8.279365"><ele>267.0</ele><time>2026-04-25T09:48:52.971Z</time></trkpt><trkpt lat="44.9990033" lon="8.279715"><ele>264.5</ele><time>2026-04-25T09:48:53.97Z</time></trkpt><trkpt lat="44.9990467" lon="8.28008"><ele>262.0</ele><time>2026-04-25T09:48:54.97Z</time></trkpt><trkpt lat="44.9990733" lon="8.2804417"><ele>260.5</ele><time>2026-04-25T09:48:55.97Z</time></trkpt><trkpt lat="44.9991067" lon="8.2807817"><ele>259.0</ele><time>2026-04-25T09:48:56.97Z</time></trkpt><trkpt lat="44.9991367" lon="8.2810983"><ele>259.0</ele><time>2026-04-25T09:48:57.97Z</time></trkpt><trkpt lat="44.999165" lon="8.2813933"><ele>259.0</ele><time>2026-04-25T09:48:58.97Z</time></trkpt><trkpt lat="44.999175" lon="8.2816667"><ele>259.0</ele><time>2026-04-25T09:48:59.97Z</time></trkpt><trkpt lat="44.999155" lon="8.2819283"><ele>257.66666666666663</ele><time>2026-04-25T09:49:00.97Z</time></trkpt><trkpt lat="44.9991083" lon="8.2821767"><ele>256.3333333333333</ele><time>2026-04-25T09:49:01.97Z</time></trkpt><trkpt lat="44.9990783" lon="8.2824017"><ele>255.0</ele><time>2026-04-25T09:49:02.971Z</time></trkpt><trkpt lat="44.9990933" lon="8.282615"><ele>253.66666666666669</ele><time>2026-04-25T09:49:03.971Z</time></trkpt><trkpt lat="44.999165" lon="8.2828017"><ele>252.33333333333334</ele><time>2026-04-25T09:49:04.97Z</time></trkpt><trkpt lat="44.999295" lon="8.28299"><ele>251.0</ele><time>2026-04-25T09:49:05.97Z</time></trkpt><trkpt lat="44.9994683" lon="8.28316"><ele>247.0</ele><time>2026-04-25T09:49:06.971Z</time></trkpt><trkpt lat="44.9996633" lon="8.2833167"><ele>243.0</ele><time>2026-04-25T09:49:07.97Z</time></trkpt><trkpt lat="44.9998667" lon="8.2834533"><ele>239.0</ele><time>2026-04-25T09:49:08.971Z</time></trkpt><trkpt lat="45.000065" lon="8.2835883"><ele>239.0</ele><time>2026-04-25T09:49:09.971Z</time></trkpt><trkpt lat="45.0002367" lon="8.2837817"><ele>239.0</ele><time>2026-04-25T09:49:10.971Z</time></trkpt><trkpt lat="45.0003667" lon="8.284005"><ele>239.0</ele><time>2026-04-25T09:49:11.97Z</time></trkpt><trkpt lat="45.000465" lon="8.2842767"><ele>238.5</ele><time>2026-04-25T09:49:12.97Z</time></trkpt><trkpt lat="45.0005367" lon="8.2845733"><ele>238.0</ele><time>2026-04-25T09:49:13.97Z</time></trkpt><trkpt lat="45.0005667" lon="8.284895"><ele>237.0</ele><time>2026-04-25T09:49:14.971Z</time></trkpt><trkpt lat="45.0005617" lon="8.2852167"><ele>236.0</ele><time>2026-04-25T09:49:15.971Z</time></trkpt><trkpt lat="45.0005133" lon="8.285515"><ele>235.0</ele><time>2026-04-25T09:49:16.971Z</time></trkpt><trkpt lat="45.000405" lon="8.2858033"><ele>235.0</ele><time>2026-04-25T09:49:17.97Z</time></trkpt><trkpt lat="45.00028" lon="8.2860783"><ele>235.0</ele><time>2026-04-25T09:49:18.97Z</time></trkpt><trkpt lat="45.00018" lon="8.2863217"><ele>235.0</ele><time>2026-04-25T09:49:19.97Z</time></trkpt><trkpt lat="45.0000967" lon="8.2865633"><ele>237.0</ele><time>2026-04-25T09:49:20.97Z</time></trkpt><trkpt lat="45.0000517" lon="8.286785"><ele>239.0</ele><time>2026-04-25T09:49:21.97Z</time></trkpt><trkpt lat="45.0000683" lon="8.2870117"><ele>241.0</ele><time>2026-04-25T09:49:22.97Z</time></trkpt><trkpt lat="45.0001317" lon="8.2872567"><ele>241.0</ele><time>2026-04-25T09:49:23.971Z</time></trkpt><trkpt lat="45.0002233" lon="8.2875133"><ele>241.0</ele><time>2026-04-25T09:49:24.971Z</time></trkpt><trkpt lat="45.0003033" lon="8.2878083"><ele>241.0</ele><time>2026-04-25T09:49:25.971Z</time></trkpt><trkpt lat="45.000365" lon="8.2881283"><ele>240.5</ele><time>2026-04-25T09:49:26.97Z</time></trkpt><trkpt lat="45.0003983" lon="8.2884683"><ele>240.0</ele><time>2026-04-25T09:49:27.971Z</time></trkpt><trkpt lat="45.0004" lon="8.2888283"><ele>241.0</ele><time>2026-04-25T09:49:28.971Z</time></trkpt><trkpt lat="45.0003783" lon="8.289145"><ele>242.0</ele><time>2026-04-25T09:49:29.97Z</time></trkpt><trkpt lat="45.0003517" lon="8.2894267"><ele>243.0</ele><time>2026-04-25T09:49:30.971Z</time></trkpt><trkpt lat="45.0002733" lon="8.2896667"><ele>246.0</ele><time>2026-04-25T09:49:31.971Z</time></trkpt><trkpt lat="45.0001517" lon="8.2898683"><ele>249.0</ele><time>2026-04-25T09:49:32.971Z</time></trkpt><trkpt lat="44.9999983" lon="8.2900167"><ele>252.0</ele><time>2026-04-25T09:49:33.97Z</time></trkpt><trkpt lat="44.9998083" lon="8.2901167"><ele>252.0</ele><time>2026-04-25T09:49:34.97Z</time></trkpt><trkpt lat="44.9996333" lon="8.2902117"><ele>252.0</ele><time>2026-04-25T09:49:35.97Z</time></trkpt><trkpt lat="44.9995067" lon="8.2903367"><ele>252.0</ele><time>2026-04-25T09:49:36.971Z</time></trkpt><trkpt lat="44.9994317" lon="8.2905083"><ele>254.75</ele><time>2026-04-25T09:49:37.97Z</time></trkpt><trkpt lat="44.9994267" lon="8.2906833"><ele>257.5</ele><time>2026-04-25T09:49:38.971Z</time></trkpt><trkpt lat="44.9994683" lon="8.2908817"><ele>260.25</ele><time>2026-04-25T09:49:39.971Z</time></trkpt><trkpt lat="44.9995433" lon="8.2911117"><ele>263.0</ele><time>2026-04-25T09:49:40.97Z</time></trkpt><trkpt lat="44.9996417" lon="8.2913533"><ele>263.0</ele><time>2026-04-25T09:49:41.97Z</time></trkpt><trkpt lat="44.9997383" lon="8.2916"><ele>263.0</ele><time>2026-04-25T09:49:42.97Z</time></trkpt><trkpt lat="44.99984" lon="8.2918417"><ele>263.0</ele><time>2026-04-25T09:49:43.97Z</time></trkpt><trkpt lat="44.999935" lon="8.2920633"><ele>260.6666666666667</ele><time>2026-04-25T09:49:44.97Z</time></trkpt><trkpt lat="45.0000267" lon="8.292295"><ele>258.3333333333333</ele><time>2026-04-25T09:49:45.97Z</time></trkpt><trkpt lat="45.0001183" lon="8.2925233"><ele>256.0</ele><time>2026-04-25T09:49:46.971Z</time></trkpt><trkpt lat="45.0002033" lon="8.292745"><ele>256.0</ele><time>2026-04-25T09:49:47.97Z</time></trkpt><trkpt lat="45.000285" lon="8.2929333"><ele>256.0</ele><time>2026-04-25T09:49:48.971Z</time></trkpt><trkpt lat="45.0003733" lon="8.2931167"><ele>256.0</ele><time>2026-04-25T09:49:49.971Z</time></trkpt><trkpt lat="45.0004433" lon="8.293295"><ele>255.4</ele><time>2026-04-25T09:49:50.97Z</time></trkpt><trkpt lat="45.0005067" lon="8.2934533"><ele>254.8</ele><time>2026-04-25T09:49:51.97Z</time></trkpt><trkpt lat="45.0005633" lon="8.2936067"><ele>254.20000000000002</ele><time>2026-04-25T09:49:52.971Z</time></trkpt><trkpt lat="45.0006133" lon="8.2937233"><ele>253.60000000000002</ele><time>2026-04-25T09:49:53.97Z</time></trkpt><trkpt lat="45.000655" lon="8.2938433"><ele>253.0</ele><time>2026-04-25T09:49:54.97Z</time></trkpt><trkpt lat="45.00068" lon="8.2939583"><ele>254.4</ele><time>2026-04-25T09:49:55.97Z</time></trkpt><trkpt lat="45.0006933" lon="8.2940833"><ele>255.8</ele><time>2026-04-25T09:49:56.97Z</time></trkpt><trkpt lat="45.000715" lon="8.2941933"><ele>257.2</ele><time>2026-04-25T09:49:57.97Z</time></trkpt><trkpt lat="45.0007483" lon="8.2943367"><ele>258.6</ele><time>2026-04-25T09:49:58.97Z</time></trkpt><trkpt lat="45.000785" lon="8.2945017"><ele>260.0</ele><time>2026-04-25T09:49:59.971Z</time></trkpt><trkpt lat="45.0008117" lon="8.2947167"><ele>259.0</ele><time>2026-04-25T09:50:00.97Z</time></trkpt><trkpt lat="45.0008417" lon="8.2949583"><ele>258.0</ele><time>2026-04-25T09:50:01.97Z</time></trkpt><trkpt lat="45.0008767" lon="8.2952033"><ele>257.0</ele><time>2026-04-25T09:50:02.97Z</time></trkpt><trkpt lat="45.0008983" lon="8.2954417"><ele>256.0</ele><time>2026-04-25T09:50:03.97Z</time></trkpt><trkpt lat="45.0009333" lon="8.29565"><ele>255.0</ele><time>2026-04-25T09:50:04.971Z</time></trkpt><trkpt lat="45.000945" lon="8.2958567"><ele>254.0</ele><time>2026-04-25T09:50:05.97Z</time></trkpt><trkpt lat="45.00096" lon="8.29605"><ele>253.0</ele><time>2026-04-25T09:50:06.97Z</time></trkpt><trkpt lat="45.0009317" lon="8.2962333"><ele>252.0</ele><time>2026-04-25T09:50:07.97Z</time></trkpt><trkpt lat="45.00097" lon="8.296425"><ele>251.0</ele><time>2026-04-25T09:50:08.971Z</time></trkpt><trkpt lat="45.0010267" lon="8.2966217"><ele>250.0</ele><time>2026-04-25T09:50:09.97Z</time></trkpt><trkpt lat="45.0010717" lon="8.29684"><ele>250.0</ele><time>2026-04-25T09:50:10.97Z</time></trkpt><trkpt lat="45.001125" lon="8.2970517"><ele>250.0</ele><time>2026-04-25T09:50:11.971Z</time></trkpt><trkpt lat="45.0011783" lon="8.297265"><ele>250.0</ele><time>2026-04-25T09:50:12.97Z</time></trkpt><trkpt lat="45.0012417" lon="8.297495"><ele>250.33333333333331</ele><time>2026-04-25T09:50:13.97Z</time></trkpt><trkpt lat="45.0013083" lon="8.29772"><ele>250.66666666666669</ele><time>2026-04-25T09:50:14.97Z</time></trkpt><trkpt lat="45.0013767" lon="8.2979133"><ele>251.0</ele><time>2026-04-25T09:50:15.97Z</time></trkpt><trkpt lat="45.0014283" lon="8.2980983"><ele>251.0</ele><time>2026-04-25T09:50:16.97Z</time></trkpt><trkpt lat="45.0014917" lon="8.2982533"><ele>251.00000000000003</ele><time>2026-04-25T09:50:17.97Z</time></trkpt><trkpt lat="45.0015433" lon="8.2983833"><ele>251.00000000000003</ele><time>2026-04-25T09:50:18.97Z</time></trkpt><trkpt lat="45.0015633" lon="8.2984933"><ele>251.0</ele><time>2026-04-25T09:50:19.97Z</time></trkpt><trkpt lat="45.0015783" lon="8.2986"><ele>251.0</ele><time>2026-04-25T09:50:20.97Z</time></trkpt><trkpt lat="45.00156" lon="8.2986867"><ele>251.0</ele><time>2026-04-25T09:50:21.971Z</time></trkpt><trkpt lat="45.0015217" lon="8.2987633"><ele>251.00000000000003</ele><time>2026-04-25T09:50:22.971Z</time></trkpt><trkpt lat="45.0014783" lon="8.2988333"><ele>251.00000000000003</ele><time>2026-04-25T09:50:23.97Z</time></trkpt><trkpt lat="45.0014117" lon="8.2989067"><ele>251.0</ele><time>2026-04-25T09:50:24.97Z</time></trkpt><trkpt lat="45.0013067" lon="8.2990017"><ele>251.0</ele><time>2026-04-25T09:50:25.971Z</time></trkpt><trkpt lat="45.001205" lon="8.2991067"><ele>252.5</ele><time>2026-04-25T09:50:26.97Z</time></trkpt><trkpt lat="45.001105" lon="8.2992233"><ele>254.0</ele><time>2026-04-25T09:50:27.971Z</time></trkpt><trkpt lat="45.0010083" lon="8.2993233"><ele>255.5</ele><time>2026-04-25T09:50:28.97Z</time></trkpt><trkpt lat="45.0009233" lon="8.299425"><ele>257.0</ele><time>2026-04-25T09:50:29.97Z</time></trkpt><trkpt lat="45.0008317" lon="8.2994867"><ele>259.0</ele><time>2026-04-25T09:50:30.97Z</time></trkpt><trkpt lat="45.00075" lon="8.2995683"><ele>261.0</ele><time>2026-04-25T09:50:31.97Z</time></trkpt><trkpt lat="45.000675" lon="8.2996633"><ele>263.0</ele><time>2026-04-25T09:50:32.97Z</time></trkpt><trkpt lat="45.000605" lon="8.29977"><ele>265.0</ele><time>2026-04-25T09:50:33.971Z</time></trkpt><trkpt lat="45.0005417" lon="8.2998867"><ele>267.0</ele><time>2026-04-25T09:50:34.97Z</time></trkpt><trkpt lat="45.0004733" lon="8.3000133"><ele>267.0</ele><time>2026-04-25T09:50:35.97Z</time></trkpt><trkpt lat="45.0004033" lon="8.3001533"><ele>267.0</ele><time>2026-04-25T09:50:36.97Z</time></trkpt><trkpt lat="45.000325" lon="8.300295"><ele>267.0</ele><time>2026-04-25T09:50:37.97Z</time></trkpt><trkpt lat="45.00025" lon="8.3004217"><ele>267.0</ele><time>2026-04-25T09:50:38.971Z</time></trkpt><trkpt lat="45.000165" lon="8.3005417"><ele>264.25</ele><time>2026-04-25T09:50:39.97Z</time></trkpt><trkpt lat="45.0000667" lon="8.3006567"><ele>261.5</ele><time>2026-04-25T09:50:40.971Z</time></trkpt><trkpt lat="44.99997" lon="8.3007617"><ele>258.75</ele><time>2026-04-25T09:50:41.971Z</time></trkpt><trkpt lat="44.9998767" lon="8.300855"><ele>256.0</ele><time>2026-04-25T09:50:42.97Z</time></trkpt><trkpt lat="44.999775" lon="8.30095"><ele>256.0</ele><time>2026-04-25T09:50:43.97Z</time></trkpt><trkpt lat="44.9996733" lon="8.3010417"><ele>256.0</ele><time>2026-04-25T09:50:44.971Z</time></trkpt><trkpt lat="44.9995633" lon="8.3011483"><ele>256.0</ele><time>2026-04-25T09:50:45.97Z</time></trkpt><trkpt lat="44.99945" lon="8.3012583"><ele>256.0</ele><time>2026-04-25T09:50:46.97Z</time></trkpt><trkpt lat="44.99935" lon="8.3013483"><ele>255.0</ele><time>2026-04-25T09:50:47.971Z</time></trkpt><trkpt lat="44.9992383" lon="8.3014417"><ele>254.0</ele><time>2026-04-25T09:50:48.97Z</time></trkpt><trkpt lat="44.9991233" lon="8.3015333"><ele>253.0</ele><time>2026-04-25T09:50:49.971Z</time></trkpt><trkpt lat="44.9990017" lon="8.30161"><ele>252.0</ele><time>2026-04-25T09:50:50.97Z</time></trkpt><trkpt lat="44.9988767" lon="8.3016733"><ele>252.0</ele><time>2026-04-25T09:50:51.971Z</time></trkpt><trkpt lat="44.9987383" lon="8.3017167"><ele>252.0</ele><time>2026-04-25T09:50:52.97Z</time></trkpt><trkpt lat="44.9985967" lon="8.3017567"><ele>252.0</ele><time>2026-04-25T09:50:53.97Z</time></trkpt><trkpt lat="44.9984667" lon="8.3017817"><ele>252.0</ele><time>2026-04-25T09:50:54.97Z</time></trkpt><trkpt lat="44.998345" lon="8.3017667"><ele>253.0</ele><time>2026-04-25T09:50:55.97Z</time></trkpt><trkpt lat="44.9982417" lon="8.301755"><ele>254.0</ele><time>2026-04-25T09:50:56.97Z</time></trkpt><trkpt lat="44.99815" lon="8.3017217"><ele>255.0</ele><time>2026-04-25T09:50:57.97Z</time></trkpt><trkpt lat="44.99808" lon="8.3016883"><ele>256.0</ele><time>2026-04-25T09:50:58.97Z</time></trkpt><trkpt lat="44.9979983" lon="8.30163"><ele>257.0</ele><time>2026-04-25T09:51:00.97Z</time></trkpt><trkpt lat="44.9979017" lon="8.3016683"><ele>257.0</ele><time>2026-04-25T09:51:02.97Z</time></trkpt><trkpt lat="44.997835" lon="8.3017417"><ele>257.0</ele><time>2026-04-25T09:51:03.97Z</time></trkpt><trkpt lat="44.9977517" lon="8.301825"><ele>257.0</ele><time>2026-04-25T09:51:04.971Z</time></trkpt><trkpt lat="44.99763" lon="8.301935"><ele>257.0</ele><time>2026-04-25T09:51:05.971Z</time></trkpt><trkpt lat="44.9974983" lon="8.3020517"><ele>257.0</ele><time>2026-04-25T09:51:06.97Z</time></trkpt><trkpt lat="44.9973733" lon="8.3021633"><ele>257.0</ele><time>2026-04-25T09:51:07.97Z</time></trkpt><trkpt lat="44.9972333" lon="8.302295"><ele>257.0</ele><time>2026-04-25T09:51:08.971Z</time></trkpt><trkpt lat="44.997085" lon="8.3024083"><ele>256.33333333333337</ele><time>2026-04-25T09:51:09.97Z</time></trkpt><trkpt lat="44.99693" lon="8.3025367"><ele>255.66666666666669</ele><time>2026-04-25T09:51:10.97Z</time></trkpt><trkpt lat="44.996775" lon="8.3026733"><ele>255.0</ele><time>2026-04-25T09:51:11.97Z</time></trkpt><trkpt lat="44.9966167" lon="8.302815"><ele>255.0</ele><time>2026-04-25T09:51:12.971Z</time></trkpt><trkpt lat="44.9964583" lon="8.3029417"><ele>255.0</ele><time>2026-04-25T09:51:13.97Z</time></trkpt><trkpt lat="44.9962967" lon="8.3030817"><ele>255.0</ele><time>2026-04-25T09:51:14.97Z</time></trkpt><trkpt lat="44.99613" lon="8.30323"><ele>253.0</ele><time>2026-04-25T09:51:15.971Z</time></trkpt><trkpt lat="44.9959833" lon="8.3034067"><ele>251.0</ele><time>2026-04-25T09:51:16.971Z</time></trkpt><trkpt lat="44.9958233" lon="8.3035517"><ele>249.0</ele><time>2026-04-25T09:51:17.97Z</time></trkpt><trkpt lat="44.9956717" lon="8.3037233"><ele>249.0</ele><time>2026-04-25T09:51:18.97Z</time></trkpt><trkpt lat="44.9955417" lon="8.3039117"><ele>249.0</ele><time>2026-04-25T09:51:19.97Z</time></trkpt><trkpt lat="44.995445" lon="8.3041117"><ele>249.0</ele><time>2026-04-25T09:51:20.97Z</time></trkpt><trkpt lat="44.9953433" lon="8.3043567"><ele>247.66666666666669</ele><time>2026-04-25T09:51:21.97Z</time></trkpt><trkpt lat="44.9952383" lon="8.304595"><ele>246.33333333333334</ele><time>2026-04-25T09:51:22.97Z</time></trkpt><trkpt lat="44.9951433" lon="8.304815"><ele>245.0</ele><time>2026-04-25T09:51:23.97Z</time></trkpt><trkpt lat="44.99507" lon="8.3050283"><ele>245.0</ele><time>2026-04-25T09:51:24.971Z</time></trkpt><trkpt lat="44.995005" lon="8.3052283"><ele>245.0</ele><time>2026-04-25T09:51:25.97Z</time></trkpt><trkpt lat="44.9949317" lon="8.3054283"><ele>245.0</ele><time>2026-04-25T09:51:26.97Z</time></trkpt><trkpt lat="44.9948567" lon="8.30564"><ele>245.0</ele><time>2026-04-25T09:51:27.97Z</time></trkpt><trkpt lat="44.9947683" lon="8.3058617"><ele>245.0</ele><time>2026-04-25T09:51:28.971Z</time></trkpt><trkpt lat="44.99468" lon="8.3060883"><ele>245.0</ele><time>2026-04-25T09:51:29.97Z</time></trkpt><trkpt lat="44.9945933" lon="8.306335"><ele>242.66666666666669</ele><time>2026-04-25T09:51:30.97Z</time></trkpt><trkpt lat="44.9945017" lon="8.3065817"><ele>240.33333333333331</ele><time>2026-04-25T09:51:31.97Z</time></trkpt><trkpt lat="44.9944083" lon="8.30683"><ele>238.0</ele><time>2026-04-25T09:51:32.971Z</time></trkpt><trkpt lat="44.9943133" lon="8.30707"><ele>236.66666666666666</ele><time>2026-04-25T09:51:33.97Z</time></trkpt><trkpt lat="44.9942167" lon="8.3073067"><ele>235.33333333333331</ele><time>2026-04-25T09:51:34.97Z</time></trkpt><trkpt lat="44.99413" lon="8.30755"><ele>234.0</ele><time>2026-04-25T09:51:35.971Z</time></trkpt><trkpt lat="44.9940317" lon="8.307775"><ele>239.0</ele><time>2026-04-25T09:51:36.97Z</time></trkpt><trkpt lat="44.99394" lon="8.307995"><ele>244.0</ele><time>2026-04-25T09:51:37.97Z</time></trkpt><trkpt lat="44.9938417" lon="8.3081783"><ele>249.0</ele><time>2026-04-25T09:51:38.971Z</time></trkpt><trkpt lat="44.9937017" lon="8.3082867"><ele>249.33333333333331</ele><time>2026-04-25T09:51:39.971Z</time></trkpt><trkpt lat="44.9935233" lon="8.308355"><ele>249.66666666666666</ele><time>2026-04-25T09:51:40.97Z</time></trkpt><trkpt lat="44.9933467" lon="8.3084083"><ele>250.0</ele><time>2026-04-25T09:51:41.97Z</time></trkpt><trkpt lat="44.9931683" lon="8.308445"><ele>251.66666666666666</ele><time>2026-04-25T09:51:42.97Z</time></trkpt><trkpt lat="44.9929833" lon="8.30849"><ele>253.33333333333331</ele><time>2026-04-25T09:51:43.97Z</time></trkpt><trkpt lat="44.9928033" lon="8.3085383"><ele>255.0</ele><time>2026-04-25T09:51:44.97Z</time></trkpt><trkpt lat="44.9926467" lon="8.3085833"><ele>255.0</ele><time>2026-04-25T09:51:45.971Z</time></trkpt><trkpt lat="44.9924867" lon="8.308625"><ele>255.0</ele><time>2026-04-25T09:51:46.97Z</time></trkpt><trkpt lat="44.992345" lon="8.3087"><ele>255.0</ele><time>2026-04-25T09:51:47.97Z</time></trkpt><trkpt lat="44.992215" lon="8.3087983"><ele>256.25</ele><time>2026-04-25T09:51:48.971Z</time></trkpt><trkpt lat="44.9921317" lon="8.308915"><ele>257.5</ele><time>2026-04-25T09:51:49.971Z</time></trkpt><trkpt lat="44.9921" lon="8.3090683"><ele>258.75</ele><time>2026-04-25T09:51:50.97Z</time></trkpt><trkpt lat="44.9921267" lon="8.3092167"><ele>260.0</ele><time>2026-04-25T09:51:51.97Z</time></trkpt><trkpt lat="44.9922133" lon="8.30937"><ele>260.0</ele><time>2026-04-25T09:51:52.97Z</time></trkpt><trkpt lat="44.9923233" lon="8.3095167"><ele>260.0</ele><time>2026-04-25T09:51:53.97Z</time></trkpt><trkpt lat="44.99245" lon="8.309675"><ele>260.0</ele><time>2026-04-25T09:51:54.971Z</time></trkpt><trkpt lat="44.9925833" lon="8.30984"><ele>261.33333333333337</ele><time>2026-04-25T09:51:55.97Z</time></trkpt><trkpt lat="44.9927133" lon="8.3100233"><ele>262.6666666666667</ele><time>2026-04-25T09:51:56.97Z</time></trkpt><trkpt lat="44.9928233" lon="8.3102183"><ele>264.0</ele><time>2026-04-25T09:51:57.97Z</time></trkpt><trkpt lat="44.9929083" lon="8.3104217"><ele>263.6666666666667</ele><time>2026-04-25T09:51:58.97Z</time></trkpt><trkpt lat="44.99298" lon="8.310665"><ele>263.33333333333337</ele><time>2026-04-25T09:51:59.97Z</time></trkpt><trkpt lat="44.9930517" lon="8.3108917"><ele>263.0</ele><time>2026-04-25T09:52:00.97Z</time></trkpt><trkpt lat="44.9931117" lon="8.3110883"><ele>263.0</ele><time>2026-04-25T09:52:01.97Z</time></trkpt><trkpt lat="44.9931733" lon="8.3112617"><ele>263.0</ele><time>2026-04-25T09:52:02.97Z</time></trkpt><trkpt lat="44.99323" lon="8.3114117"><ele>263.0</ele><time>2026-04-25T09:52:03.97Z</time></trkpt><trkpt lat="44.9932817" lon="8.3115567"><ele>263.0</ele><time>2026-04-25T09:52:04.97Z</time></trkpt><trkpt lat="44.9933217" lon="8.31168"><ele>262.2</ele><time>2026-04-25T09:52:05.97Z</time></trkpt><trkpt lat="44.99333" lon="8.3118067"><ele>261.4</ele><time>2026-04-25T09:52:06.971Z</time></trkpt><trkpt lat="44.9933283" lon="8.3119283"><ele>260.59999999999997</ele><time>2026-04-25T09:52:07.97Z</time></trkpt><trkpt lat="44.9932983" lon="8.3120617"><ele>259.8</ele><time>2026-04-25T09:52:08.97Z</time></trkpt><trkpt lat="44.9932467" lon="8.3121817"><ele>259.0</ele><time>2026-04-25T09:52:09.97Z</time></trkpt><trkpt lat="44.993175" lon="8.31229"><ele>257.66666666666663</ele><time>2026-04-25T09:52:10.971Z</time></trkpt><trkpt lat="44.9930617" lon="8.31241"><ele>256.3333333333333</ele><time>2026-04-25T09:52:11.971Z</time></trkpt><trkpt lat="44.9929233" lon="8.31253"><ele>255.0</ele><time>2026-04-25T09:52:12.971Z</time></trkpt><trkpt lat="44.9927567" lon="8.3126267"><ele>255.0</ele><time>2026-04-25T09:52:13.971Z</time></trkpt><trkpt lat="44.9925683" lon="8.312725"><ele>255.0</ele><time>2026-04-25T09:52:14.97Z</time></trkpt><trkpt lat="44.9923617" lon="8.3128383"><ele>255.0</ele><time>2026-04-25T09:52:15.97Z</time></trkpt><trkpt lat="44.99214" lon="8.3129617"><ele>252.0</ele><time>2026-04-25T09:52:16.97Z</time></trkpt><trkpt lat="44.99191" lon="8.3130883"><ele>249.0</ele><time>2026-04-25T09:52:17.97Z</time></trkpt><trkpt lat="44.99168" lon="8.31322"><ele>250.5</ele><time>2026-04-25T09:52:18.97Z</time></trkpt><trkpt lat="44.9914483" lon="8.3133567"><ele>252.0</ele><time>2026-04-25T09:52:19.97Z</time></trkpt><trkpt lat="44.9912267" lon="8.313495"><ele>252.0</ele><time>2026-04-25T09:52:20.97Z</time></trkpt><trkpt lat="44.991005" lon="8.31364"><ele>252.0</ele><time>2026-04-25T09:52:21.971Z</time></trkpt><trkpt lat="44.9907917" lon="8.3137733"><ele>252.66666666666669</ele><time>2026-04-25T09:52:22.97Z</time></trkpt><trkpt lat="44.99059" lon="8.3138867"><ele>253.33333333333334</ele><time>2026-04-25T09:52:23.971Z</time></trkpt><trkpt lat="44.9904133" lon="8.3140033"><ele>254.0</ele><time>2026-04-25T09:52:24.971Z</time></trkpt><trkpt lat="44.99028" lon="8.3141333"><ele>254.0</ele><time>2026-04-25T09:52:25.971Z</time></trkpt><trkpt lat="44.990175" lon="8.3143117"><ele>254.0</ele><time>2026-04-25T09:52:26.969Z</time></trkpt><trkpt lat="44.9900883" lon="8.3145333"><ele>254.0</ele><time>2026-04-25T09:52:27.97Z</time></trkpt><trkpt lat="44.990035" lon="8.314795"><ele>252.33333333333334</ele><time>2026-04-25T09:52:28.969Z</time></trkpt><trkpt lat="44.989975" lon="8.3150917"><ele>250.66666666666669</ele><time>2026-04-25T09:52:29.97Z</time></trkpt><trkpt lat="44.98991" lon="8.3153867"><ele>249.0</ele><time>2026-04-25T09:52:30.969Z</time></trkpt><trkpt lat="44.9898367" lon="8.3156833"><ele>249.0</ele><time>2026-04-25T09:52:31.97Z</time></trkpt><trkpt lat="44.9897617" lon="8.315985"><ele>249.0</ele><time>2026-04-25T09:52:32.969Z</time></trkpt><trkpt lat="44.9896867" lon="8.3162883"><ele>250.0</ele><time>2026-04-25T09:52:33.97Z</time></trkpt><trkpt lat="44.9896183" lon="8.3166017"><ele>251.0</ele><time>2026-04-25T09:52:34.969Z</time></trkpt><trkpt lat="44.989545" lon="8.3168967"><ele>251.0</ele><time>2026-04-25T09:52:35.969Z</time></trkpt><trkpt lat="44.9894633" lon="8.3171933"><ele>251.0</ele><time>2026-04-25T09:52:36.97Z</time></trkpt><trkpt lat="44.989385" lon="8.31747"><ele>251.0</ele><time>2026-04-25T09:52:37.97Z</time></trkpt><trkpt lat="44.9892983" lon="8.317735"><ele>251.66666666666669</ele><time>2026-04-25T09:52:38.97Z</time></trkpt><trkpt lat="44.9891917" lon="8.3179817"><ele>252.33333333333331</ele><time>2026-04-25T09:52:39.969Z</time></trkpt><trkpt lat="44.989055" lon="8.318195"><ele>253.0</ele><time>2026-04-25T09:52:40.969Z</time></trkpt><trkpt lat="44.988895" lon="8.3184017"><ele>249.5</ele><time>2026-04-25T09:52:41.969Z</time></trkpt><trkpt lat="44.9887367" lon="8.318605"><ele>246.0</ele><time>2026-04-25T09:52:42.97Z</time></trkpt><trkpt lat="44.9885517" lon="8.3188183"><ele>242.0</ele><time>2026-04-25T09:52:43.969Z</time></trkpt><trkpt lat="44.988365" lon="8.3190217"><ele>238.0</ele><time>2026-04-25T09:52:44.969Z</time></trkpt><trkpt lat="44.988185" lon="8.3191917"><ele>238.0</ele><time>2026-04-25T09:52:45.97Z</time></trkpt><trkpt lat="44.988" lon="8.319355"><ele>238.0</ele><time>2026-04-25T09:52:46.969Z</time></trkpt><trkpt lat="44.9878083" lon="8.3194917"><ele>238.0</ele><time>2026-04-25T09:52:47.969Z</time></trkpt><trkpt lat="44.98762" lon="8.3196317"><ele>238.0</ele><time>2026-04-25T09:52:48.97Z</time></trkpt><trkpt lat="44.9874183" lon="8.31974"><ele>238.0</ele><time>2026-04-25T09:52:49.969Z</time></trkpt><trkpt lat="44.987215" lon="8.3198583"><ele>238.0</ele><time>2026-04-25T09:52:50.969Z</time></trkpt><trkpt lat="44.987025" lon="8.3199817"><ele>238.0</ele><time>2026-04-25T09:52:51.969Z</time></trkpt><trkpt lat="44.9868467" lon="8.3200967"><ele>238.0</ele><time>2026-04-25T09:52:52.97Z</time></trkpt><trkpt lat="44.98669" lon="8.3202117"><ele>238.0</ele><time>2026-04-25T09:52:53.969Z</time></trkpt><trkpt lat="44.9865533" lon="8.320365"><ele>238.66666666666666</ele><time>2026-04-25T09:52:54.969Z</time></trkpt><trkpt lat="44.986435" lon="8.3205367"><ele>239.33333333333331</ele><time>2026-04-25T09:52:55.969Z</time></trkpt><trkpt lat="44.9863367" lon="8.3207033"><ele>240.0</ele><time>2026-04-25T09:52:56.97Z</time></trkpt><trkpt lat="44.9862517" lon="8.32086"><ele>239.0</ele><time>2026-04-25T09:52:57.969Z</time></trkpt><trkpt lat="44.98617" lon="8.3210417"><ele>238.0</ele><time>2026-04-25T09:52:58.97Z</time></trkpt><trkpt lat="44.98609" lon="8.3212033"><ele>237.0</ele><time>2026-04-25T09:52:59.969Z</time></trkpt><trkpt lat="44.98601" lon="8.3213667"><ele>236.0</ele><time>2026-04-25T09:53:00.97Z</time></trkpt><trkpt lat="44.98592" lon="8.3215233"><ele>237.75</ele><time>2026-04-25T09:53:01.969Z</time></trkpt><trkpt lat="44.98584" lon="8.3216683"><ele>239.5</ele><time>2026-04-25T09:53:02.969Z</time></trkpt><trkpt lat="44.9857567" lon="8.3218167"><ele>241.25</ele><time>2026-04-25T09:53:03.969Z</time></trkpt><trkpt lat="44.9856917" lon="8.3219617"><ele>243.0</ele><time>2026-04-25T09:53:04.969Z</time></trkpt><trkpt lat="44.9856317" lon="8.3221183"><ele>242.5</ele><time>2026-04-25T09:53:05.97Z</time></trkpt><trkpt lat="44.98558" lon="8.3222867"><ele>242.0</ele><time>2026-04-25T09:53:06.97Z</time></trkpt><trkpt lat="44.9855183" lon="8.3224383"><ele>241.5</ele><time>2026-04-25T09:53:07.969Z</time></trkpt><trkpt lat="44.9854583" lon="8.3225817"><ele>241.0</ele><time>2026-04-25T09:53:08.97Z</time></trkpt><trkpt lat="44.9853983" lon="8.3227083"><ele>241.0</ele><time>2026-04-25T09:53:09.97Z</time></trkpt><trkpt lat="44.9853383" lon="8.3228"><ele>241.00000000000003</ele><time>2026-04-25T09:53:10.97Z</time></trkpt><trkpt lat="44.9852733" lon="8.32287"><ele>241.00000000000003</ele><time>2026-04-25T09:53:11.969Z</time></trkpt><trkpt lat="44.98518" lon="8.3229183"><ele>241.0</ele><time>2026-04-25T09:53:12.969Z</time></trkpt><trkpt lat="44.985075" lon="8.3229617"><ele>241.0</ele><time>2026-04-25T09:53:13.97Z</time></trkpt><trkpt lat="44.9849667" lon="8.3230217"><ele>240.75</ele><time>2026-04-25T09:53:14.969Z</time></trkpt><trkpt lat="44.9848583" lon="8.32306"><ele>240.5</ele><time>2026-04-25T09:53:15.97Z</time></trkpt><trkpt lat="44.9847567" lon="8.3231233"><ele>240.25</ele><time>2026-04-25T09:53:16.969Z</time></trkpt><trkpt lat="44.9846383" lon="8.3231667"><ele>240.0</ele><time>2026-04-25T09:53:17.969Z</time></trkpt><trkpt lat="44.984525" lon="8.32321"><ele>241.0</ele><time>2026-04-25T09:53:18.969Z</time></trkpt><trkpt lat="44.984415" lon="8.3232383"><ele>242.0</ele><time>2026-04-25T09:53:19.97Z</time></trkpt><trkpt lat="44.98431" lon="8.32327"><ele>243.0</ele><time>2026-04-25T09:53:20.969Z</time></trkpt><trkpt lat="44.9842117" lon="8.3232983"><ele>244.0</ele><time>2026-04-25T09:53:21.97Z</time></trkpt><trkpt lat="44.9841117" lon="8.3233233"><ele>245.0</ele><time>2026-04-25T09:53:22.97Z</time></trkpt><trkpt lat="44.984005" lon="8.3233467"><ele>245.0</ele><time>2026-04-25T09:53:23.969Z</time></trkpt><trkpt lat="44.9839117" lon="8.3233683"><ele>245.0</ele><time>2026-04-25T09:53:24.97Z</time></trkpt><trkpt lat="44.9838117" lon="8.3233867"><ele>245.0</ele><time>2026-04-25T09:53:25.97Z</time></trkpt><trkpt lat="44.9837283" lon="8.3233933"><ele>245.0</ele><time>2026-04-25T09:53:26.969Z</time></trkpt><trkpt lat="44.9836367" lon="8.32338"><ele>245.0</ele><time>2026-04-25T09:53:27.969Z</time></trkpt><trkpt lat="44.9835517" lon="8.323365"><ele>245.0</ele><time>2026-04-25T09:53:28.97Z</time></trkpt><trkpt lat="44.9834567" lon="8.3233417"><ele>245.0</ele><time>2026-04-25T09:53:29.969Z</time></trkpt><trkpt lat="44.9833667" lon="8.32331"><ele>245.0</ele><time>2026-04-25T09:53:30.97Z</time></trkpt><trkpt lat="44.9832917" lon="8.3232767"><ele>245.0</ele><time>2026-04-25T09:53:31.97Z</time></trkpt><trkpt lat="44.9832283" lon="8.3232417"><ele>245.0</ele><time>2026-04-25T09:53:32.97Z</time></trkpt><trkpt lat="44.9831333" lon="8.3231517"><ele>245.00000000000003</ele><time>2026-04-25T09:53:34.969Z</time></trkpt><trkpt lat="44.98304" lon="8.3230867"><ele>245.0</ele><time>2026-04-25T09:53:36.969Z</time></trkpt><trkpt lat="44.9829367" lon="8.3230417"><ele>245.0</ele><time>2026-04-25T09:53:38.969Z</time></trkpt><trkpt lat="44.9828717" lon="8.3230517"><ele>245.0</ele><time>2026-04-25T09:53:39.969Z</time></trkpt><trkpt lat="44.98281" lon="8.3230883"><ele>245.00000000000003</ele><time>2026-04-25T09:53:40.969Z</time></trkpt><trkpt lat="44.9827483" lon="8.3231367"><ele>245.0</ele><time>2026-04-25T09:53:41.969Z</time></trkpt><trkpt lat="44.9826883" lon="8.323175"><ele>245.00000000000003</ele><time>2026-04-25T09:53:42.969Z</time></trkpt><trkpt lat="44.9826167" lon="8.3232117"><ele>245.0</ele><time>2026-04-25T09:53:43.969Z</time></trkpt><trkpt lat="44.98255" lon="8.3232467"><ele>245.0</ele><time>2026-04-25T09:53:44.97Z</time></trkpt><trkpt lat="44.9824733" lon="8.3232967"><ele>245.0</ele><time>2026-04-25T09:53:45.969Z</time></trkpt><trkpt lat="44.9824" lon="8.323325"><ele>245.00000000000003</ele><time>2026-04-25T09:53:46.969Z</time></trkpt><trkpt lat="44.982285" lon="8.3233417"><ele>245.0</ele><time>2026-04-25T09:53:48.969Z</time></trkpt><trkpt lat="44.982205" lon="8.3232867"><ele>244.66666666666669</ele><time>2026-04-25T09:53:50.97Z</time></trkpt><trkpt lat="44.9822433" lon="8.3234317"><ele>244.33333333333334</ele><time>2026-04-25T09:53:56.97Z</time></trkpt><trkpt lat="44.98227" lon="8.3235283"><ele>244.0</ele><time>2026-04-25T09:53:57.969Z</time></trkpt><trkpt lat="44.98229" lon="8.3236333"><ele>243.66666666666669</ele><time>2026-04-25T09:53:58.969Z</time></trkpt><trkpt lat="44.98231" lon="8.3237433"><ele>243.33333333333334</ele><time>2026-04-25T09:53:59.969Z</time></trkpt><trkpt lat="44.9823367" lon="8.3238517"><ele>243.0</ele><time>2026-04-25T09:54:00.969Z</time></trkpt><trkpt lat="44.9823717" lon="8.32395"><ele>243.0</ele><time>2026-04-25T09:54:01.97Z</time></trkpt><trkpt lat="44.982415" lon="8.3240567"><ele>243.0</ele><time>2026-04-25T09:54:02.969Z</time></trkpt><trkpt lat="44.9824433" lon="8.32416"><ele>243.0</ele><time>2026-04-25T09:54:03.969Z</time></trkpt><trkpt lat="44.9824433" lon="8.3242917"><ele>243.0</ele><time>2026-04-25T09:54:04.97Z</time></trkpt><trkpt lat="44.9824333" lon="8.3244333"><ele>243.0</ele><time>2026-04-25T09:54:05.97Z</time></trkpt><trkpt lat="44.9823967" lon="8.3245817"><ele>243.0</ele><time>2026-04-25T09:54:06.969Z</time></trkpt><trkpt lat="44.982345" lon="8.3247283"><ele>243.0</ele><time>2026-04-25T09:54:07.969Z</time></trkpt><trkpt lat="44.982285" lon="8.3248733"><ele>243.0</ele><time>2026-04-25T09:54:08.969Z</time></trkpt><trkpt lat="44.98221" lon="8.3250183"><ele>243.0</ele><time>2026-04-25T09:54:09.969Z</time></trkpt><trkpt lat="44.982135" lon="8.3251683"><ele>243.75</ele><time>2026-04-25T09:54:10.969Z</time></trkpt><trkpt lat="44.982065" lon="8.325305"><ele>244.5</ele><time>2026-04-25T09:54:11.969Z</time></trkpt><trkpt lat="44.982" lon="8.325445"><ele>245.25</ele><time>2026-04-25T09:54:12.969Z</time></trkpt><trkpt lat="44.98193" lon="8.325595"><ele>246.0</ele><time>2026-04-25T09:54:13.97Z</time></trkpt><trkpt lat="44.9818867" lon="8.32576"><ele>246.25</ele><time>2026-04-25T09:54:14.969Z</time></trkpt><trkpt lat="44.981845" lon="8.3259367"><ele>246.5</ele><time>2026-04-25T09:54:15.969Z</time></trkpt><trkpt lat="44.9818033" lon="8.3261117"><ele>246.75</ele><time>2026-04-25T09:54:16.969Z</time></trkpt><trkpt lat="44.98176" lon="8.32628"><ele>247.0</ele><time>2026-04-25T09:54:17.969Z</time></trkpt><trkpt lat="44.981715" lon="8.3264333"><ele>244.25</ele><time>2026-04-25T09:54:18.969Z</time></trkpt><trkpt lat="44.9816783" lon="8.3265933"><ele>241.5</ele><time>2026-04-25T09:54:19.97Z</time></trkpt><trkpt lat="44.9816417" lon="8.3267333"><ele>238.75</ele><time>2026-04-25T09:54:20.97Z</time></trkpt><trkpt lat="44.9816067" lon="8.3268883"><ele>236.0</ele><time>2026-04-25T09:54:21.969Z</time></trkpt><trkpt lat="44.981565" lon="8.32704"><ele>236.0</ele><time>2026-04-25T09:54:22.969Z</time></trkpt><trkpt lat="44.98153" lon="8.32718"><ele>236.00000000000003</ele><time>2026-04-25T09:54:23.969Z</time></trkpt><trkpt lat="44.981495" lon="8.3272983"><ele>236.00000000000003</ele><time>2026-04-25T09:54:24.97Z</time></trkpt><trkpt lat="44.98148" lon="8.327435"><ele>236.0</ele><time>2026-04-25T09:54:25.969Z</time></trkpt><trkpt lat="44.9814467" lon="8.3275667"><ele>236.0</ele><time>2026-04-25T09:54:26.969Z</time></trkpt><trkpt lat="44.9814183" lon="8.3276567"><ele>235.60000000000002</ele><time>2026-04-25T09:54:27.969Z</time></trkpt><trkpt lat="44.9813633" lon="8.3277767"><ele>235.20000000000002</ele><time>2026-04-25T09:54:29.969Z</time></trkpt><trkpt lat="44.981315" lon="8.32784"><ele>234.79999999999998</ele><time>2026-04-25T09:54:30.969Z</time></trkpt><trkpt lat="44.981255" lon="8.3279233"><ele>234.39999999999998</ele><time>2026-04-25T09:54:31.969Z</time></trkpt><trkpt lat="44.9811767" lon="8.3280417"><ele>234.0</ele><time>2026-04-25T09:54:32.969Z</time></trkpt><trkpt lat="44.9810917" lon="8.328175"><ele>233.25</ele><time>2026-04-25T09:54:33.97Z</time></trkpt><trkpt lat="44.9809967" lon="8.3283133"><ele>232.5</ele><time>2026-04-25T09:54:34.969Z</time></trkpt><trkpt lat="44.9809033" lon="8.3284633"><ele>231.75</ele><time>2026-04-25T09:54:35.969Z</time></trkpt><trkpt lat="44.9807967" lon="8.3286283"><ele>231.0</ele><time>2026-04-25T09:54:36.97Z</time></trkpt><trkpt lat="44.9806967" lon="8.32877"><ele>230.75</ele><time>2026-04-25T09:54:37.969Z</time></trkpt><trkpt lat="44.9805983" lon="8.3289067"><ele>230.5</ele><time>2026-04-25T09:54:38.969Z</time></trkpt><trkpt lat="44.98051" lon="8.3290183"><ele>230.25</ele><time>2026-04-25T09:54:39.969Z</time></trkpt><trkpt lat="44.9804417" lon="8.3291217"><ele>230.0</ele><time>2026-04-25T09:54:40.969Z</time></trkpt><trkpt lat="44.98037" lon="8.3292183"><ele>230.0</ele><time>2026-04-25T09:54:41.969Z</time></trkpt><trkpt lat="44.9802867" lon="8.3293"><ele>230.0</ele><time>2026-04-25T09:54:42.97Z</time></trkpt><trkpt lat="44.980185" lon="8.32938"><ele>230.0</ele><time>2026-04-25T09:54:43.97Z</time></trkpt><trkpt lat="44.9800583" lon="8.3294633"><ele>230.0</ele><time>2026-04-25T09:54:44.97Z</time></trkpt><trkpt lat="44.979925" lon="8.3295317"><ele>231.75</ele><time>2026-04-25T09:54:45.97Z</time></trkpt><trkpt lat="44.9797967" lon="8.329615"><ele>233.5</ele><time>2026-04-25T09:54:46.97Z</time></trkpt><trkpt lat="44.9796767" lon="8.3297033"><ele>235.25</ele><time>2026-04-25T09:54:47.969Z</time></trkpt><trkpt lat="44.9795817" lon="8.3297933"><ele>237.0</ele><time>2026-04-25T09:54:48.97Z</time></trkpt><trkpt lat="44.97945" lon="8.329855"><ele>237.0</ele><time>2026-04-25T09:54:49.97Z</time></trkpt><trkpt lat="44.9793067" lon="8.3299083"><ele>237.0</ele><time>2026-04-25T09:54:50.969Z</time></trkpt><trkpt lat="44.9791667" lon="8.32995"><ele>237.0</ele><time>2026-04-25T09:54:51.969Z</time></trkpt><trkpt lat="44.97903" lon="8.3299917"><ele>237.0</ele><time>2026-04-25T09:54:52.969Z</time></trkpt><trkpt lat="44.978885" lon="8.330015"><ele>238.66666666666669</ele><time>2026-04-25T09:54:53.97Z</time></trkpt><trkpt lat="44.9787367" lon="8.3300483"><ele>240.33333333333334</ele><time>2026-04-25T09:54:54.97Z</time></trkpt><trkpt lat="44.97859" lon="8.3300883"><ele>242.0</ele><time>2026-04-25T09:54:55.969Z</time></trkpt><trkpt lat="44.97844" lon="8.330105"><ele>242.25</ele><time>2026-04-25T09:54:56.969Z</time></trkpt><trkpt lat="44.9783017" lon="8.3301083"><ele>242.5</ele><time>2026-04-25T09:54:57.969Z</time></trkpt><trkpt lat="44.9781633" lon="8.330085"><ele>242.75</ele><time>2026-04-25T09:54:58.97Z</time></trkpt><trkpt lat="44.9780433" lon="8.3300383"><ele>243.0</ele><time>2026-04-25T09:54:59.97Z</time></trkpt><trkpt lat="44.977905" lon="8.3299767"><ele>243.0</ele><time>2026-04-25T09:55:00.969Z</time></trkpt><trkpt lat="44.9777733" lon="8.3299117"><ele>243.0</ele><time>2026-04-25T09:55:01.97Z</time></trkpt><trkpt lat="44.9776317" lon="8.329845"><ele>243.0</ele><time>2026-04-25T09:55:02.969Z</time></trkpt><trkpt lat="44.9775067" lon="8.3297917"><ele>243.0</ele><time>2026-04-25T09:55:03.969Z</time></trkpt><trkpt lat="44.977395" lon="8.3297583"><ele>244.75</ele><time>2026-04-25T09:55:04.969Z</time></trkpt><trkpt lat="44.97728" lon="8.3297367"><ele>246.5</ele><time>2026-04-25T09:55:05.969Z</time></trkpt><trkpt lat="44.977175" lon="8.32973"><ele>248.25</ele><time>2026-04-25T09:55:06.969Z</time></trkpt><trkpt lat="44.9770667" lon="8.329755"><ele>250.0</ele><time>2026-04-25T09:55:07.97Z</time></trkpt><trkpt lat="44.9769467" lon="8.32983"><ele>250.0</ele><time>2026-04-25T09:55:08.969Z</time></trkpt><trkpt lat="44.9768117" lon="8.3299433"><ele>250.0</ele><time>2026-04-25T09:55:09.97Z</time></trkpt><trkpt lat="44.97666" lon="8.330075"><ele>250.0</ele><time>2026-04-25T09:55:10.969Z</time></trkpt><trkpt lat="44.9765183" lon="8.3302167"><ele>249.33333333333331</ele><time>2026-04-25T09:55:11.969Z</time></trkpt><trkpt lat="44.9763783" lon="8.3303917"><ele>248.66666666666669</ele><time>2026-04-25T09:55:12.97Z</time></trkpt><trkpt lat="44.9762333" lon="8.3305617"><ele>248.0</ele><time>2026-04-25T09:55:13.969Z</time></trkpt><trkpt lat="44.9760833" lon="8.330755"><ele>249.33333333333334</ele><time>2026-04-25T09:55:14.97Z</time></trkpt><trkpt lat="44.9759583" lon="8.330995"><ele>250.66666666666669</ele><time>2026-04-25T09:55:15.969Z</time></trkpt><trkpt lat="44.9758233" lon="8.3312283"><ele>252.0</ele><time>2026-04-25T09:55:16.97Z</time></trkpt><trkpt lat="44.975675" lon="8.331465"><ele>246.5</ele><time>2026-04-25T09:55:17.969Z</time></trkpt><trkpt lat="44.9755083" lon="8.3317167"><ele>241.0</ele><time>2026-04-25T09:55:18.97Z</time></trkpt><trkpt lat="44.97533" lon="8.331955"><ele>241.0</ele><time>2026-04-25T09:55:19.97Z</time></trkpt><trkpt lat="44.9751667" lon="8.332175"><ele>241.0</ele><time>2026-04-25T09:55:20.97Z</time></trkpt><trkpt lat="44.9750017" lon="8.332375"><ele>241.0</ele><time>2026-04-25T09:55:21.969Z</time></trkpt><trkpt lat="44.9748433" lon="8.33256"><ele>235.0</ele><time>2026-04-25T09:55:22.969Z</time></trkpt><trkpt lat="44.97467" lon="8.3327483"><ele>229.0</ele><time>2026-04-25T09:55:23.969Z</time></trkpt><trkpt lat="44.9744667" lon="8.3329283"><ele>225.5</ele><time>2026-04-25T09:55:24.97Z</time></trkpt><trkpt lat="44.9742617" lon="8.33309"><ele>222.0</ele><time>2026-04-25T09:55:25.97Z</time></trkpt><trkpt lat="44.9740533" lon="8.3332567"><ele>222.0</ele><time>2026-04-25T09:55:26.969Z</time></trkpt><trkpt lat="44.9738483" lon="8.3334183"><ele>222.0</ele><time>2026-04-25T09:55:27.969Z</time></trkpt><trkpt lat="44.9736617" lon="8.3335867"><ele>222.0</ele><time>2026-04-25T09:55:28.969Z</time></trkpt><trkpt lat="44.9734733" lon="8.33375"><ele>222.0</ele><time>2026-04-25T09:55:29.969Z</time></trkpt><trkpt lat="44.9733017" lon="8.3339117"><ele>222.0</ele><time>2026-04-25T09:55:30.97Z</time></trkpt><trkpt lat="44.973135" lon="8.334075"><ele>223.0</ele><time>2026-04-25T09:55:31.97Z</time></trkpt><trkpt lat="44.9729717" lon="8.33426"><ele>224.0</ele><time>2026-04-25T09:55:32.97Z</time></trkpt><trkpt lat="44.97281" lon="8.3344383"><ele>225.0</ele><time>2026-04-25T09:55:33.969Z</time></trkpt><trkpt lat="44.9726267" lon="8.334635"><ele>224.0</ele><time>2026-04-25T09:55:34.969Z</time></trkpt><trkpt lat="44.9724367" lon="8.3348067"><ele>223.0</ele><time>2026-04-25T09:55:35.969Z</time></trkpt><trkpt lat="44.9722717" lon="8.33497"><ele>222.0</ele><time>2026-04-25T09:55:36.97Z</time></trkpt><trkpt lat="44.9721183" lon="8.33509"><ele>222.0</ele><time>2026-04-25T09:55:37.969Z</time></trkpt><trkpt lat="44.971985" lon="8.3351833"><ele>222.0</ele><time>2026-04-25T09:55:38.97Z</time></trkpt><trkpt lat="44.9718317" lon="8.3352533"><ele>222.0</ele><time>2026-04-25T09:55:39.969Z</time></trkpt><trkpt lat="44.97169" lon="8.33528"><ele>223.66666666666669</ele><time>2026-04-25T09:55:40.97Z</time></trkpt><trkpt lat="44.9715433" lon="8.3352833"><ele>225.33333333333334</ele><time>2026-04-25T09:55:41.969Z</time></trkpt><trkpt lat="44.97137" lon="8.3352533"><ele>227.0</ele><time>2026-04-25T09:55:42.969Z</time></trkpt><trkpt lat="44.971195" lon="8.3352133"><ele>227.0</ele><time>2026-04-25T09:55:43.97Z</time></trkpt><trkpt lat="44.9710167" lon="8.3352217"><ele>227.0</ele><time>2026-04-25T09:55:44.97Z</time></trkpt><trkpt lat="44.9708333" lon="8.3352683"><ele>227.0</ele><time>2026-04-25T09:55:45.97Z</time></trkpt><trkpt lat="44.9706467" lon="8.335325"><ele>227.0</ele><time>2026-04-25T09:55:46.97Z</time></trkpt><trkpt lat="44.9704683" lon="8.3353867"><ele>227.0</ele><time>2026-04-25T09:55:47.97Z</time></trkpt><trkpt lat="44.9703033" lon="8.33544"><ele>227.0</ele><time>2026-04-25T09:55:48.969Z</time></trkpt><trkpt lat="44.970135" lon="8.3354467"><ele>229.66666666666669</ele><time>2026-04-25T09:55:49.97Z</time></trkpt><trkpt lat="44.9699683" lon="8.3354033"><ele>232.33333333333331</ele><time>2026-04-25T09:55:50.969Z</time></trkpt><trkpt lat="44.9698033" lon="8.3353333"><ele>235.0</ele><time>2026-04-25T09:55:51.97Z</time></trkpt><trkpt lat="44.9696217" lon="8.33524"><ele>235.0</ele><time>2026-04-25T09:55:52.97Z</time></trkpt><trkpt lat="44.969435" lon="8.335155"><ele>235.0</ele><time>2026-04-25T09:55:53.969Z</time></trkpt><trkpt lat="44.9692483" lon="8.33506"><ele>235.0</ele><time>2026-04-25T09:55:54.969Z</time></trkpt><trkpt lat="44.9690567" lon="8.3349717"><ele>234.33333333333331</ele><time>2026-04-25T09:55:55.969Z</time></trkpt><trkpt lat="44.968865" lon="8.3348717"><ele>233.66666666666669</ele><time>2026-04-25T09:55:56.969Z</time></trkpt><trkpt lat="44.9686883" lon="8.3347767"><ele>233.0</ele><time>2026-04-25T09:55:57.969Z</time></trkpt><trkpt lat="44.9685267" lon="8.33468"><ele>232.5</ele><time>2026-04-25T09:55:58.969Z</time></trkpt><trkpt lat="44.9683833" lon="8.3346117"><ele>232.0</ele><time>2026-04-25T09:55:59.969Z</time></trkpt><trkpt lat="44.9682483" lon="8.3345233"><ele>231.5</ele><time>2026-04-25T09:56:00.969Z</time></trkpt><trkpt lat="44.9681283" lon="8.334445"><ele>231.0</ele><time>2026-04-25T09:56:01.969Z</time></trkpt><trkpt lat="44.9680333" lon="8.3344017"><ele>231.0</ele><time>2026-04-25T09:56:02.969Z</time></trkpt><trkpt lat="44.96796" lon="8.3344"><ele>231.00000000000003</ele><time>2026-04-25T09:56:03.97Z</time></trkpt><trkpt lat="44.9678733" lon="8.3344483"><ele>231.00000000000003</ele><time>2026-04-25T09:56:04.97Z</time></trkpt><trkpt lat="44.96778" lon="8.3345167"><ele>231.0</ele><time>2026-04-25T09:56:05.969Z</time></trkpt><trkpt lat="44.9676883" lon="8.3346033"><ele>231.0</ele><time>2026-04-25T09:56:06.969Z</time></trkpt><trkpt lat="44.9676017" lon="8.3346883"><ele>231.25</ele><time>2026-04-25T09:56:07.969Z</time></trkpt><trkpt lat="44.9675133" lon="8.3347717"><ele>231.5</ele><time>2026-04-25T09:56:08.97Z</time></trkpt><trkpt lat="44.9674217" lon="8.3348583"><ele>231.75</ele><time>2026-04-25T09:56:09.97Z</time></trkpt><trkpt lat="44.96732" lon="8.334955"><ele>232.0</ele><time>2026-04-25T09:56:10.97Z</time></trkpt><trkpt lat="44.9672017" lon="8.3350367"><ele>232.0</ele><time>2026-04-25T09:56:11.969Z</time></trkpt><trkpt lat="44.9670617" lon="8.335085"><ele>232.0</ele><time>2026-04-25T09:56:12.97Z</time></trkpt><trkpt lat="44.9669033" lon="8.3351033"><ele>232.0</ele><time>2026-04-25T09:56:13.969Z</time></trkpt><trkpt lat="44.9667233" lon="8.33508"><ele>231.66666666666666</ele><time>2026-04-25T09:56:14.97Z</time></trkpt><trkpt lat="44.96654" lon="8.3350567"><ele>231.33333333333331</ele><time>2026-04-25T09:56:15.97Z</time></trkpt><trkpt lat="44.966345" lon="8.3350367"><ele>231.0</ele><time>2026-04-25T09:56:16.969Z</time></trkpt><trkpt lat="44.9661517" lon="8.3350167"><ele>231.0</ele><time>2026-04-25T09:56:17.97Z</time></trkpt><trkpt lat="44.9659633" lon="8.3349867"><ele>231.0</ele><time>2026-04-25T09:56:18.97Z</time></trkpt><trkpt lat="44.96577" lon="8.334955"><ele>231.0</ele><time>2026-04-25T09:56:19.969Z</time></trkpt><trkpt lat="44.96557" lon="8.3349133"><ele>230.0</ele><time>2026-04-25T09:56:20.969Z</time></trkpt><trkpt lat="44.9653767" lon="8.3348683"><ele>229.0</ele><time>2026-04-25T09:56:21.969Z</time></trkpt><trkpt lat="44.965195" lon="8.3348267"><ele>228.0</ele><time>2026-04-25T09:56:22.969Z</time></trkpt><trkpt lat="44.9650367" lon="8.3348117"><ele>226.0</ele><time>2026-04-25T09:56:23.969Z</time></trkpt><trkpt lat="44.9648867" lon="8.3347983"><ele>224.0</ele><time>2026-04-25T09:56:24.969Z</time></trkpt><trkpt lat="44.9647617" lon="8.3348133"><ele>222.0</ele><time>2026-04-25T09:56:25.969Z</time></trkpt><trkpt lat="44.9646467" lon="8.334855"><ele>220.0</ele><time>2026-04-25T09:56:26.969Z</time></trkpt><trkpt lat="44.964545" lon="8.3349467"><ele>220.0</ele><time>2026-04-25T09:56:27.969Z</time></trkpt><trkpt lat="44.9644483" lon="8.3350967"><ele>220.0</ele><time>2026-04-25T09:56:28.969Z</time></trkpt><trkpt lat="44.9643717" lon="8.335305"><ele>220.0</ele><time>2026-04-25T09:56:29.969Z</time></trkpt><trkpt lat="44.964315" lon="8.3355483"><ele>220.0</ele><time>2026-04-25T09:56:30.97Z</time></trkpt><trkpt lat="44.96424" lon="8.3357983"><ele>220.0</ele><time>2026-04-25T09:56:31.97Z</time></trkpt><trkpt lat="44.964155" lon="8.33602"><ele>220.0</ele><time>2026-04-25T09:56:32.97Z</time></trkpt><trkpt lat="44.964045" lon="8.3362"><ele>214.66666666666666</ele><time>2026-04-25T09:56:33.97Z</time></trkpt><trkpt lat="44.963895" lon="8.33639"><ele>209.33333333333331</ele><time>2026-04-25T09:56:34.969Z</time></trkpt><trkpt lat="44.9637417" lon="8.3365833"><ele>204.0</ele><time>2026-04-25T09:56:35.969Z</time></trkpt><trkpt lat="44.963595" lon="8.3367833"><ele>204.0</ele><time>2026-04-25T09:56:36.969Z</time></trkpt><trkpt lat="44.9634567" lon="8.33698"><ele>204.0</ele><time>2026-04-25T09:56:37.969Z</time></trkpt><trkpt lat="44.963325" lon="8.3372"><ele>204.0</ele><time>2026-04-25T09:56:38.97Z</time></trkpt><trkpt lat="44.9631983" lon="8.33743"><ele>205.33333333333331</ele><time>2026-04-25T09:56:39.969Z</time></trkpt><trkpt lat="44.963075" lon="8.3376617"><ele>206.66666666666666</ele><time>2026-04-25T09:56:40.97Z</time></trkpt><trkpt lat="44.9629567" lon="8.3378683"><ele>208.0</ele><time>2026-04-25T09:56:41.969Z</time></trkpt><trkpt lat="44.96285" lon="8.3380883"><ele>208.33333333333331</ele><time>2026-04-25T09:56:42.969Z</time></trkpt><trkpt lat="44.9627467" lon="8.338305"><ele>208.66666666666669</ele><time>2026-04-25T09:56:43.97Z</time></trkpt><trkpt lat="44.96265" lon="8.3385233"><ele>209.0</ele><time>2026-04-25T09:56:44.97Z</time></trkpt><trkpt lat="44.962545" lon="8.33871"><ele>209.0</ele><time>2026-04-25T09:56:45.97Z</time></trkpt><trkpt lat="44.9624267" lon="8.338865"><ele>209.0</ele><time>2026-04-25T09:56:46.97Z</time></trkpt><trkpt lat="44.9622683" lon="8.3390283"><ele>209.0</ele><time>2026-04-25T09:56:47.969Z</time></trkpt><trkpt lat="44.96211" lon="8.33918"><ele>211.66666666666669</ele><time>2026-04-25T09:56:48.969Z</time></trkpt><trkpt lat="44.96197" lon="8.339315"><ele>214.33333333333331</ele><time>2026-04-25T09:56:49.97Z</time></trkpt><trkpt lat="44.961825" lon="8.3394517"><ele>217.0</ele><time>2026-04-25T09:56:50.969Z</time></trkpt><trkpt lat="44.9616733" lon="8.3396217"><ele>215.66666666666666</ele><time>2026-04-25T09:56:51.969Z</time></trkpt><trkpt lat="44.9615167" lon="8.3397867"><ele>214.33333333333331</ele><time>2026-04-25T09:56:52.969Z</time></trkpt><trkpt lat="44.9613983" lon="8.3399283"><ele>213.0</ele><time>2026-04-25T09:56:53.969Z</time></trkpt><trkpt lat="44.9612933" lon="8.3400733"><ele>213.0</ele><time>2026-04-25T09:56:54.969Z</time></trkpt><trkpt lat="44.961225" lon="8.340225"><ele>213.0</ele><time>2026-04-25T09:56:55.969Z</time></trkpt><trkpt lat="44.9612033" lon="8.3404133"><ele>213.0</ele><time>2026-04-25T09:56:56.97Z</time></trkpt><trkpt lat="44.96122" lon="8.340615"><ele>213.0</ele><time>2026-04-25T09:56:57.969Z</time></trkpt><trkpt lat="44.9612483" lon="8.3408367"><ele>208.66666666666669</ele><time>2026-04-25T09:56:58.97Z</time></trkpt><trkpt lat="44.9612733" lon="8.3410767"><ele>204.33333333333334</ele><time>2026-04-25T09:56:59.969Z</time></trkpt><trkpt lat="44.9612767" lon="8.3413133"><ele>200.0</ele><time>2026-04-25T09:57:00.969Z</time></trkpt><trkpt lat="44.9612667" lon="8.3415417"><ele>199.5</ele><time>2026-04-25T09:57:01.97Z</time></trkpt><trkpt lat="44.961235" lon="8.3417517"><ele>199.0</ele><time>2026-04-25T09:57:02.97Z</time></trkpt><trkpt lat="44.9612083" lon="8.341945"><ele>198.5</ele><time>2026-04-25T09:57:03.969Z</time></trkpt><trkpt lat="44.9611833" lon="8.3421267"><ele>198.0</ele><time>2026-04-25T09:57:04.969Z</time></trkpt><trkpt lat="44.9611" lon="8.342265"><ele>197.0</ele><time>2026-04-25T09:57:05.969Z</time></trkpt><trkpt lat="44.9609983" lon="8.3423883"><ele>196.0</ele><time>2026-04-25T09:57:06.97Z</time></trkpt><trkpt lat="44.9608717" lon="8.3425533"><ele>195.0</ele><time>2026-04-25T09:57:07.97Z</time></trkpt><trkpt lat="44.9607433" lon="8.3427083"><ele>198.75</ele><time>2026-04-25T09:57:08.969Z</time></trkpt><trkpt lat="44.9606383" lon="8.3428533"><ele>202.5</ele><time>2026-04-25T09:57:09.969Z</time></trkpt><trkpt lat="44.9605283" lon="8.3429867"><ele>206.25</ele><time>2026-04-25T09:57:10.97Z</time></trkpt><trkpt lat="44.96041" lon="8.343115"><ele>210.0</ele><time>2026-04-25T09:57:11.969Z</time></trkpt><trkpt lat="44.96028" lon="8.3432267"><ele>210.33333333333331</ele><time>2026-04-25T09:57:12.97Z</time></trkpt><trkpt lat="44.9601333" lon="8.34329"><ele>210.66666666666666</ele><time>2026-04-25T09:57:13.969Z</time></trkpt><trkpt lat="44.959975" lon="8.3433217"><ele>211.0</ele><time>2026-04-25T09:57:14.969Z</time></trkpt><trkpt lat="44.9598067" lon="8.3433733"><ele>212.0</ele><time>2026-04-25T09:57:15.97Z</time></trkpt><trkpt lat="44.9596567" lon="8.3434133"><ele>213.0</ele><time>2026-04-25T09:57:16.97Z</time></trkpt><trkpt lat="44.9595183" lon="8.3434567"><ele>214.0</ele><time>2026-04-25T09:57:17.969Z</time></trkpt><trkpt lat="44.9594" lon="8.3434917"><ele>215.0</ele><time>2026-04-25T09:57:18.969Z</time></trkpt><trkpt lat="44.9592883" lon="8.343495"><ele>214.75</ele><time>2026-04-25T09:57:19.97Z</time></trkpt><trkpt lat="44.95916" lon="8.3434783"><ele>214.5</ele><time>2026-04-25T09:57:20.969Z</time></trkpt><trkpt lat="44.95903" lon="8.343435"><ele>214.25</ele><time>2026-04-25T09:57:21.97Z</time></trkpt><trkpt lat="44.958905" lon="8.3433933"><ele>214.0</ele><time>2026-04-25T09:57:22.97Z</time></trkpt><trkpt lat="44.95877" lon="8.3433767"><ele>214.0</ele><time>2026-04-25T09:57:23.969Z</time></trkpt><trkpt lat="44.9586433" lon="8.3433783"><ele>214.0</ele><time>2026-04-25T09:57:24.969Z</time></trkpt><trkpt lat="44.958515" lon="8.3433817"><ele>214.0</ele><time>2026-04-25T09:57:25.97Z</time></trkpt><trkpt lat="44.9583967" lon="8.34339"><ele>214.0</ele><time>2026-04-25T09:57:26.969Z</time></trkpt><trkpt lat="44.9582867" lon="8.3434"><ele>212.79999999999998</ele><time>2026-04-25T09:57:27.97Z</time></trkpt><trkpt lat="44.9581783" lon="8.3433967"><ele>211.59999999999997</ele><time>2026-04-25T09:57:28.97Z</time></trkpt><trkpt lat="44.9580933" lon="8.3434133"><ele>210.4</ele><time>2026-04-25T09:57:29.969Z</time></trkpt><trkpt lat="44.9580017" lon="8.3434467"><ele>209.2</ele><time>2026-04-25T09:57:30.969Z</time></trkpt><trkpt lat="44.9579017" lon="8.3435417"><ele>208.0</ele><time>2026-04-25T09:57:31.969Z</time></trkpt><trkpt lat="44.957795" lon="8.3436583"><ele>208.0</ele><time>2026-04-25T09:57:32.97Z</time></trkpt><trkpt lat="44.9577017" lon="8.3437967"><ele>208.0</ele><time>2026-04-25T09:57:33.969Z</time></trkpt><trkpt lat="44.9576233" lon="8.3439517"><ele>208.0</ele><time>2026-04-25T09:57:34.969Z</time></trkpt><trkpt lat="44.95757" lon="8.344125"><ele>208.0</ele><time>2026-04-25T09:57:35.97Z</time></trkpt><trkpt lat="44.95755" lon="8.34432"><ele>208.0</ele><time>2026-04-25T09:57:36.97Z</time></trkpt><trkpt lat="44.9575533" lon="8.3445267"><ele>208.0</ele><time>2026-04-25T09:57:37.969Z</time></trkpt><trkpt lat="44.9575667" lon="8.344725"><ele>208.0</ele><time>2026-04-25T09:57:38.969Z</time></trkpt><trkpt lat="44.9575983" lon="8.34491"><ele>208.0</ele><time>2026-04-25T09:57:39.969Z</time></trkpt><trkpt lat="44.9576383" lon="8.34509"><ele>208.0</ele><time>2026-04-25T09:57:40.969Z</time></trkpt><trkpt lat="44.957725" lon="8.3452367"><ele>208.0</ele><time>2026-04-25T09:57:41.97Z</time></trkpt><trkpt lat="44.9578233" lon="8.3453933"><ele>208.0</ele><time>2026-04-25T09:57:42.97Z</time></trkpt><trkpt lat="44.9579233" lon="8.3455483"><ele>208.0</ele><time>2026-04-25T09:57:43.969Z</time></trkpt><trkpt lat="44.9580317" lon="8.3456967"><ele>209.33333333333331</ele><time>2026-04-25T09:57:44.97Z</time></trkpt><trkpt lat="44.9581017" lon="8.3459017"><ele>210.66666666666669</ele><time>2026-04-25T09:57:45.969Z</time></trkpt><trkpt lat="44.9581783" lon="8.346105"><ele>212.0</ele><time>2026-04-25T09:57:46.969Z</time></trkpt><trkpt lat="44.9582467" lon="8.3463267"><ele>212.66666666666669</ele><time>2026-04-25T09:57:47.969Z</time></trkpt><trkpt lat="44.9583233" lon="8.3465717"><ele>213.33333333333331</ele><time>2026-04-25T09:57:48.97Z</time></trkpt><trkpt lat="44.9584" lon="8.346815"><ele>214.0</ele><time>2026-04-25T09:57:49.969Z</time></trkpt><trkpt lat="44.9584467" lon="8.34707"><ele>210.33333333333331</ele><time>2026-04-25T09:57:50.969Z</time></trkpt><trkpt lat="44.9584933" lon="8.3473033"><ele>206.66666666666669</ele><time>2026-04-25T09:57:51.969Z</time></trkpt><trkpt lat="44.958555" lon="8.34755"><ele>203.0</ele><time>2026-04-25T09:57:52.969Z</time></trkpt><trkpt lat="44.95862" lon="8.3477667"><ele>203.0</ele><time>2026-04-25T09:57:53.969Z</time></trkpt><trkpt lat="44.9586733" lon="8.3479983"><ele>203.0</ele><time>2026-04-25T09:57:54.969Z</time></trkpt><trkpt lat="44.958765" lon="8.3481783"><ele>203.0</ele><time>2026-04-25T09:57:55.969Z</time></trkpt><trkpt lat="44.9588617" lon="8.3483467"><ele>204.66666666666669</ele><time>2026-04-25T09:57:56.969Z</time></trkpt><trkpt lat="44.9589833" lon="8.3485183"><ele>206.33333333333331</ele><time>2026-04-25T09:57:57.969Z</time></trkpt><trkpt lat="44.9591367" lon="8.348695"><ele>208.0</ele><time>2026-04-25T09:57:58.969Z</time></trkpt><trkpt lat="44.9592833" lon="8.3488417"><ele>204.75</ele><time>2026-04-25T09:57:59.969Z</time></trkpt><trkpt lat="44.9594067" lon="8.3489767"><ele>201.5</ele><time>2026-04-25T09:58:00.97Z</time></trkpt><trkpt lat="44.9594983" lon="8.3491117"><ele>198.25</ele><time>2026-04-25T09:58:01.969Z</time></trkpt><trkpt lat="44.95957" lon="8.3492533"><ele>195.0</ele><time>2026-04-25T09:58:02.969Z</time></trkpt><trkpt lat="44.959625" lon="8.34941"><ele>195.0</ele><time>2026-04-25T09:58:03.97Z</time></trkpt><trkpt lat="44.9596683" lon="8.3496033"><ele>195.0</ele><time>2026-04-25T09:58:04.969Z</time></trkpt><trkpt lat="44.9596867" lon="8.3498433"><ele>195.0</ele><time>2026-04-25T09:58:05.968Z</time></trkpt><trkpt lat="44.959685" lon="8.3501017"><ele>196.66666666666669</ele><time>2026-04-25T09:58:06.968Z</time></trkpt><trkpt lat="44.95967" lon="8.3503583"><ele>198.33333333333334</ele><time>2026-04-25T09:58:07.969Z</time></trkpt><trkpt lat="44.9596467" lon="8.3505933"><ele>200.0</ele><time>2026-04-25T09:58:08.968Z</time></trkpt><trkpt lat="44.9596183" lon="8.3508217"><ele>200.0</ele><time>2026-04-25T09:58:09.969Z</time></trkpt><trkpt lat="44.9595683" lon="8.35105"><ele>200.0</ele><time>2026-04-25T09:58:10.968Z</time></trkpt><trkpt lat="44.9594717" lon="8.3512617"><ele>200.0</ele><time>2026-04-25T09:58:11.968Z</time></trkpt><trkpt lat="44.9593333" lon="8.35143"><ele>196.66666666666669</ele><time>2026-04-25T09:58:12.968Z</time></trkpt><trkpt lat="44.9592017" lon="8.3515983"><ele>193.33333333333334</ele><time>2026-04-25T09:58:13.968Z</time></trkpt><trkpt lat="44.9590717" lon="8.3517783"><ele>190.0</ele><time>2026-04-25T09:58:14.968Z</time></trkpt><trkpt lat="44.9589333" lon="8.35198"><ele>194.33333333333334</ele><time>2026-04-25T09:58:15.969Z</time></trkpt><trkpt lat="44.9588117" lon="8.35218"><ele>198.66666666666669</ele><time>2026-04-25T09:58:16.968Z</time></trkpt><trkpt lat="44.958695" lon="8.352385"><ele>203.0</ele><time>2026-04-25T09:58:17.969Z</time></trkpt><trkpt lat="44.9585817" lon="8.3525533"><ele>203.0</ele><time>2026-04-25T09:58:18.968Z</time></trkpt><trkpt lat="44.9584383" lon="8.3526983"><ele>203.0</ele><time>2026-04-25T09:58:19.969Z</time></trkpt><trkpt lat="44.95829" lon="8.352825"><ele>203.0</ele><time>2026-04-25T09:58:20.968Z</time></trkpt><trkpt lat="44.958115" lon="8.3529417"><ele>201.66666666666669</ele><time>2026-04-25T09:58:21.968Z</time></trkpt><trkpt lat="44.957945" lon="8.35305"><ele>200.33333333333331</ele><time>2026-04-25T09:58:22.968Z</time></trkpt><trkpt lat="44.9577933" lon="8.3531533"><ele>199.0</ele><time>2026-04-25T09:58:23.968Z</time></trkpt><trkpt lat="44.95766" lon="8.3532433"><ele>199.0</ele><time>2026-04-25T09:58:24.969Z</time></trkpt><trkpt lat="44.95757" lon="8.35334"><ele>199.0</ele><time>2026-04-25T09:58:25.968Z</time></trkpt><trkpt lat="44.95751" lon="8.35344"><ele>199.0</ele><time>2026-04-25T09:58:26.968Z</time></trkpt><trkpt lat="44.9574733" lon="8.3535867"><ele>199.0</ele><time>2026-04-25T09:58:27.968Z</time></trkpt><trkpt lat="44.95746" lon="8.353765"><ele>199.0</ele><time>2026-04-25T09:58:28.968Z</time></trkpt><trkpt lat="44.9574517" lon="8.353955"><ele>201.25</ele><time>2026-04-25T09:58:29.968Z</time></trkpt><trkpt lat="44.9574317" lon="8.3541433"><ele>203.5</ele><time>2026-04-25T09:58:30.968Z</time></trkpt><trkpt lat="44.9574283" lon="8.3543367"><ele>205.75</ele><time>2026-04-25T09:58:31.968Z</time></trkpt><trkpt lat="44.9574417" lon="8.3545783"><ele>208.0</ele><time>2026-04-25T09:58:32.968Z</time></trkpt><trkpt lat="44.9574817" lon="8.3548367"><ele>201.66666666666666</ele><time>2026-04-25T09:58:33.969Z</time></trkpt><trkpt lat="44.957555" lon="8.355125"><ele>195.33333333333331</ele><time>2026-04-25T09:58:34.968Z</time></trkpt><trkpt lat="44.9576333" lon="8.355365"><ele>189.0</ele><time>2026-04-25T09:58:35.968Z</time></trkpt><trkpt lat="44.9576733" lon="8.35559"><ele>188.0</ele><time>2026-04-25T09:58:36.968Z</time></trkpt><trkpt lat="44.95769" lon="8.3558183"><ele>187.0</ele><time>2026-04-25T09:58:37.968Z</time></trkpt><trkpt lat="44.95768" lon="8.3560567"><ele>186.0</ele><time>2026-04-25T09:58:38.969Z</time></trkpt><trkpt lat="44.9576483" lon="8.3563067"><ele>182.33333333333334</ele><time>2026-04-25T09:58:39.969Z</time></trkpt><trkpt lat="44.9576017" lon="8.35654"><ele>178.66666666666669</ele><time>2026-04-25T09:58:40.968Z</time></trkpt><trkpt lat="44.9575233" lon="8.35678"><ele>175.0</ele><time>2026-04-25T09:58:41.968Z</time></trkpt><trkpt lat="44.9574233" lon="8.3570117"><ele>181.33333333333334</ele><time>2026-04-25T09:58:42.969Z</time></trkpt><trkpt lat="44.9573167" lon="8.35723"><ele>187.66666666666669</ele><time>2026-04-25T09:58:43.968Z</time></trkpt><trkpt lat="44.957185" lon="8.3574367"><ele>194.0</ele><time>2026-04-25T09:58:44.968Z</time></trkpt><trkpt lat="44.9570617" lon="8.3576417"><ele>194.0</ele><time>2026-04-25T09:58:45.968Z</time></trkpt><trkpt lat="44.9569567" lon="8.3578333"><ele>194.0</ele><time>2026-04-25T09:58:46.968Z</time></trkpt><trkpt lat="44.9568583" lon="8.3580117"><ele>194.0</ele><time>2026-04-25T09:58:47.968Z</time></trkpt><trkpt lat="44.95675" lon="8.3582017"><ele>196.66666666666669</ele><time>2026-04-25T09:58:48.968Z</time></trkpt><trkpt lat="44.9566433" lon="8.3583833"><ele>199.33333333333331</ele><time>2026-04-25T09:58:49.968Z</time></trkpt><trkpt lat="44.95654" lon="8.3585767"><ele>202.0</ele><time>2026-04-25T09:58:50.968Z</time></trkpt><trkpt lat="44.95642" lon="8.358745"><ele>200.66666666666666</ele><time>2026-04-25T09:58:51.968Z</time></trkpt><trkpt lat="44.9562917" lon="8.35888"><ele>199.33333333333331</ele><time>2026-04-25T09:58:52.969Z</time></trkpt><trkpt lat="44.9561533" lon="8.35898"><ele>198.0</ele><time>2026-04-25T09:58:53.968Z</time></trkpt><trkpt lat="44.9559867" lon="8.3590667"><ele>199.66666666666669</ele><time>2026-04-25T09:58:54.968Z</time></trkpt><trkpt lat="44.9558083" lon="8.359095"><ele>201.33333333333334</ele><time>2026-04-25T09:58:55.968Z</time></trkpt><trkpt lat="44.955635" lon="8.3591283"><ele>203.0</ele><time>2026-04-25T09:58:56.968Z</time></trkpt><trkpt lat="44.9554617" lon="8.3591683"><ele>203.0</ele><time>2026-04-25T09:58:57.969Z</time></trkpt><trkpt lat="44.955285" lon="8.3592017"><ele>203.0</ele><time>2026-04-25T09:58:58.968Z</time></trkpt><trkpt lat="44.955105" lon="8.359215"><ele>203.0</ele><time>2026-04-25T09:58:59.968Z</time></trkpt><trkpt lat="44.9549133" lon="8.359235"><ele>203.33333333333334</ele><time>2026-04-25T09:59:00.968Z</time></trkpt><trkpt lat="44.954735" lon="8.3592533"><ele>203.66666666666669</ele><time>2026-04-25T09:59:01.968Z</time></trkpt><trkpt lat="44.954555" lon="8.3592467"><ele>204.0</ele><time>2026-04-25T09:59:02.968Z</time></trkpt><trkpt lat="44.9544033" lon="8.359285"><ele>204.0</ele><time>2026-04-25T09:59:03.969Z</time></trkpt><trkpt lat="44.9542633" lon="8.3593533"><ele>204.0</ele><time>2026-04-25T09:59:04.968Z</time></trkpt><trkpt lat="44.9541383" lon="8.359485"><ele>204.0</ele><time>2026-04-25T09:59:05.969Z</time></trkpt><trkpt lat="44.954035" lon="8.35967"><ele>203.33333333333331</ele><time>2026-04-25T09:59:06.969Z</time></trkpt><trkpt lat="44.9539367" lon="8.359875"><ele>202.66666666666666</ele><time>2026-04-25T09:59:07.968Z</time></trkpt><trkpt lat="44.9538833" lon="8.360105"><ele>202.0</ele><time>2026-04-25T09:59:08.968Z</time></trkpt><trkpt lat="44.953835" lon="8.36032"><ele>202.0</ele><time>2026-04-25T09:59:09.969Z</time></trkpt><trkpt lat="44.95377" lon="8.3604917"><ele>202.0</ele><time>2026-04-25T09:59:10.968Z</time></trkpt><trkpt lat="44.9536833" lon="8.3606417"><ele>202.0</ele><time>2026-04-25T09:59:11.968Z</time></trkpt><trkpt lat="44.9535817" lon="8.360785"><ele>202.0</ele><time>2026-04-25T09:59:12.968Z</time></trkpt><trkpt lat="44.9534533" lon="8.3609117"><ele>199.66666666666666</ele><time>2026-04-25T09:59:13.969Z</time></trkpt><trkpt lat="44.9533017" lon="8.361045"><ele>197.33333333333331</ele><time>2026-04-25T09:59:14.968Z</time></trkpt><trkpt lat="44.9531367" lon="8.3611783"><ele>195.0</ele><time>2026-04-25T09:59:15.968Z</time></trkpt><trkpt lat="44.9529567" lon="8.3613"><ele>194.66666666666669</ele><time>2026-04-25T09:59:16.968Z</time></trkpt><trkpt lat="44.952765" lon="8.3614383"><ele>194.33333333333334</ele><time>2026-04-25T09:59:17.968Z</time></trkpt><trkpt lat="44.95257" lon="8.3615933"><ele>194.0</ele><time>2026-04-25T09:59:18.969Z</time></trkpt><trkpt lat="44.95237" lon="8.3617517"><ele>192.66666666666669</ele><time>2026-04-25T09:59:19.968Z</time></trkpt><trkpt lat="44.9521867" lon="8.3619167"><ele>191.33333333333334</ele><time>2026-04-25T09:59:20.968Z</time></trkpt><trkpt lat="44.952035" lon="8.36207"><ele>190.0</ele><time>2026-04-25T09:59:21.969Z</time></trkpt><trkpt lat="44.95189" lon="8.362215"><ele>189.0</ele><time>2026-04-25T09:59:22.968Z</time></trkpt><trkpt lat="44.9517667" lon="8.362375"><ele>188.0</ele><time>2026-04-25T09:59:23.969Z</time></trkpt><trkpt lat="44.9516517" lon="8.3625233"><ele>187.0</ele><time>2026-04-25T09:59:24.968Z</time></trkpt><trkpt lat="44.9515367" lon="8.362645"><ele>188.75</ele><time>2026-04-25T09:59:25.968Z</time></trkpt><trkpt lat="44.951435" lon="8.3627683"><ele>190.5</ele><time>2026-04-25T09:59:26.968Z</time></trkpt><trkpt lat="44.95135" lon="8.3629033"><ele>192.25</ele><time>2026-04-25T09:59:27.968Z</time></trkpt><trkpt lat="44.9512567" lon="8.3630133"><ele>194.0</ele><time>2026-04-25T09:59:28.968Z</time></trkpt><trkpt lat="44.951205" lon="8.3631283"><ele>194.0</ele><time>2026-04-25T09:59:29.969Z</time></trkpt><trkpt lat="44.95113" lon="8.3631683"><ele>194.0</ele><time>2026-04-25T09:59:30.969Z</time></trkpt><trkpt lat="44.9510417" lon="8.363155"><ele>194.0</ele><time>2026-04-25T09:59:31.968Z</time></trkpt><trkpt lat="44.95096" lon="8.36315"><ele>194.0</ele><time>2026-04-25T09:59:32.968Z</time></trkpt><trkpt lat="44.9508733" lon="8.3631717"><ele>194.0</ele><time>2026-04-25T09:59:33.968Z</time></trkpt><trkpt lat="44.9507717" lon="8.36325"><ele>193.25</ele><time>2026-04-25T09:59:34.969Z</time></trkpt><trkpt lat="44.95066" lon="8.3633817"><ele>192.5</ele><time>2026-04-25T09:59:35.968Z</time></trkpt><trkpt lat="44.95056" lon="8.363525"><ele>191.75</ele><time>2026-04-25T09:59:36.968Z</time></trkpt><trkpt lat="44.9504533" lon="8.363675"><ele>191.0</ele><time>2026-04-25T09:59:37.968Z</time></trkpt><trkpt lat="44.9503667" lon="8.3638367"><ele>188.75</ele><time>2026-04-25T09:59:38.968Z</time></trkpt><trkpt lat="44.9502967" lon="8.36398"><ele>186.5</ele><time>2026-04-25T09:59:39.968Z</time></trkpt><trkpt lat="44.95023" lon="8.364135"><ele>184.25</ele><time>2026-04-25T09:59:40.968Z</time></trkpt><trkpt lat="44.950185" lon="8.3642917"><ele>182.0</ele><time>2026-04-25T09:59:41.968Z</time></trkpt><trkpt lat="44.9501367" lon="8.3644583"><ele>182.0</ele><time>2026-04-25T09:59:42.968Z</time></trkpt><trkpt lat="44.9500917" lon="8.3646017"><ele>182.0</ele><time>2026-04-25T09:59:43.968Z</time></trkpt><trkpt lat="44.950035" lon="8.364715"><ele>182.0</ele><time>2026-04-25T09:59:44.968Z</time></trkpt><trkpt lat="44.949965" lon="8.3648033"><ele>182.0</ele><time>2026-04-25T09:59:45.968Z</time></trkpt><trkpt lat="44.9498783" lon="8.3648917"><ele>182.0</ele><time>2026-04-25T09:59:46.968Z</time></trkpt><trkpt lat="44.9497983" lon="8.3649783"><ele>183.66666666666666</ele><time>2026-04-25T09:59:47.969Z</time></trkpt><trkpt lat="44.94973" lon="8.365055"><ele>185.33333333333331</ele><time>2026-04-25T09:59:48.969Z</time></trkpt><trkpt lat="44.9496617" lon="8.365125"><ele>187.0</ele><time>2026-04-25T09:59:49.969Z</time></trkpt><trkpt lat="44.9496067" lon="8.365185"><ele>188.66666666666666</ele><time>2026-04-25T09:59:50.969Z</time></trkpt><trkpt lat="44.9495633" lon="8.3652683"><ele>190.33333333333334</ele><time>2026-04-25T09:59:51.968Z</time></trkpt><trkpt lat="44.94956" lon="8.365385"><ele>192.0</ele><time>2026-04-25T09:59:52.969Z</time></trkpt><trkpt lat="44.9495483" lon="8.36551"><ele>190.25</ele><time>2026-04-25T09:59:53.968Z</time></trkpt><trkpt lat="44.9495333" lon="8.365675"><ele>188.5</ele><time>2026-04-25T09:59:54.968Z</time></trkpt><trkpt lat="44.94948" lon="8.365865"><ele>186.75</ele><time>2026-04-25T09:59:55.969Z</time></trkpt><trkpt lat="44.9494333" lon="8.3660567"><ele>185.0</ele><time>2026-04-25T09:59:56.968Z</time></trkpt><trkpt lat="44.9493567" lon="8.3662233"><ele>181.66666666666666</ele><time>2026-04-25T09:59:57.969Z</time></trkpt><trkpt lat="44.94925" lon="8.3663667"><ele>178.33333333333334</ele><time>2026-04-25T09:59:58.969Z</time></trkpt><trkpt lat="44.94912" lon="8.366515"><ele>175.0</ele><time>2026-04-25T09:59:59.969Z</time></trkpt><trkpt lat="44.9489817" lon="8.366665"><ele>175.0</ele><time>2026-04-25T10:00:00.969Z</time></trkpt><trkpt lat="44.94884" lon="8.3668367"><ele>175.0</ele><time>2026-04-25T10:00:01.968Z</time></trkpt><trkpt lat="44.9487" lon="8.367"><ele>175.0</ele><time>2026-04-25T10:00:02.968Z</time></trkpt><trkpt lat="44.9485633" lon="8.3671683"><ele>171.33333333333334</ele><time>2026-04-25T10:00:03.969Z</time></trkpt><trkpt lat="44.9484433" lon="8.3673467"><ele>167.66666666666666</ele><time>2026-04-25T10:00:04.968Z</time></trkpt><trkpt lat="44.9482983" lon="8.3675183"><ele>164.0</ele><time>2026-04-25T10:00:05.968Z</time></trkpt><trkpt lat="44.948185" lon="8.367685"><ele>162.33333333333331</ele><time>2026-04-25T10:00:06.968Z</time></trkpt><trkpt lat="44.94807" lon="8.3678333"><ele>160.66666666666666</ele><time>2026-04-25T10:00:07.968Z</time></trkpt><trkpt lat="44.947945" lon="8.3679883"><ele>159.0</ele><time>2026-04-25T10:00:08.969Z</time></trkpt><trkpt lat="44.9478283" lon="8.368145"><ele>156.66666666666666</ele><time>2026-04-25T10:00:09.968Z</time></trkpt><trkpt lat="44.9477117" lon="8.3683"><ele>154.33333333333331</ele><time>2026-04-25T10:00:10.969Z</time></trkpt><trkpt lat="44.9476033" lon="8.3684583"><ele>152.0</ele><time>2026-04-25T10:00:11.969Z</time></trkpt><trkpt lat="44.9474717" lon="8.3685867"><ele>151.2</ele><time>2026-04-25T10:00:12.968Z</time></trkpt><trkpt lat="44.9473433" lon="8.3686883"><ele>150.39999999999998</ele><time>2026-04-25T10:00:13.968Z</time></trkpt><trkpt lat="44.94722" lon="8.368755"><ele>149.60000000000002</ele><time>2026-04-25T10:00:14.969Z</time></trkpt><trkpt lat="44.94713" lon="8.3687967"><ele>148.8</ele><time>2026-04-25T10:00:15.968Z</time></trkpt><trkpt lat="44.9470633" lon="8.368815"><ele>148.0</ele><time>2026-04-25T10:00:16.968Z</time></trkpt><trkpt lat="44.9469917" lon="8.36887"><ele>147.0</ele><time>2026-04-25T10:00:18.968Z</time></trkpt><trkpt lat="44.9469633" lon="8.3689967"><ele>146.0</ele><time>2026-04-25T10:00:20.969Z</time></trkpt><trkpt lat="44.94696" lon="8.3691033"><ele>145.0</ele><time>2026-04-25T10:00:21.968Z</time></trkpt><trkpt lat="44.9469667" lon="8.3692617"><ele>144.0</ele><time>2026-04-25T10:00:22.969Z</time></trkpt><trkpt lat="44.94697" lon="8.3694367"><ele>143.0</ele><time>2026-04-25T10:00:23.968Z</time></trkpt><trkpt lat="44.9469733" lon="8.369635"><ele>142.5</ele><time>2026-04-25T10:00:24.968Z</time></trkpt><trkpt lat="44.946965" lon="8.369845"><ele>142.0</ele><time>2026-04-25T10:00:25.969Z</time></trkpt><trkpt lat="44.9469517" lon="8.3700567"><ele>141.5</ele><time>2026-04-25T10:00:26.968Z</time></trkpt><trkpt lat="44.946945" lon="8.3702533"><ele>141.0</ele><time>2026-04-25T10:00:27.968Z</time></trkpt><trkpt lat="44.9469417" lon="8.3704317"><ele>141.33333333333334</ele><time>2026-04-25T10:00:28.969Z</time></trkpt><trkpt lat="44.94693" lon="8.3705917"><ele>141.66666666666666</ele><time>2026-04-25T10:00:29.968Z</time></trkpt><trkpt lat="44.946915" lon="8.37072"><ele>142.0</ele><time>2026-04-25T10:00:30.969Z</time></trkpt><trkpt lat="44.9469083" lon="8.3708467"><ele>142.33333333333331</ele><time>2026-04-25T10:00:31.968Z</time></trkpt><trkpt lat="44.946895" lon="8.370935"><ele>142.66666666666666</ele><time>2026-04-25T10:00:32.968Z</time></trkpt><trkpt lat="44.94685" lon="8.3710283"><ele>143.0</ele><time>2026-04-25T10:00:34.968Z</time></trkpt><trkpt lat="44.9467517" lon="8.3710483"><ele>143.20000000000002</ele><time>2026-04-25T10:00:36.968Z</time></trkpt><trkpt lat="44.94668" lon="8.37104"><ele>143.4</ele><time>2026-04-25T10:00:37.968Z</time></trkpt><trkpt lat="44.946575" lon="8.3710317"><ele>143.60000000000002</ele><time>2026-04-25T10:00:38.968Z</time></trkpt><trkpt lat="44.9464583" lon="8.371015"><ele>143.8</ele><time>2026-04-25T10:00:39.968Z</time></trkpt><trkpt lat="44.9463283" lon="8.3709883"><ele>144.0</ele><time>2026-04-25T10:00:40.968Z</time></trkpt><trkpt lat="44.9461967" lon="8.3709683"><ele>144.0</ele><time>2026-04-25T10:00:41.968Z</time></trkpt><trkpt lat="44.9460467" lon="8.3709467"><ele>144.0</ele><time>2026-04-25T10:00:42.969Z</time></trkpt><trkpt lat="44.9458917" lon="8.3709233"><ele>144.0</ele><time>2026-04-25T10:00:43.968Z</time></trkpt><trkpt lat="44.9457283" lon="8.37089"><ele>143.33333333333334</ele><time>2026-04-25T10:00:44.968Z</time></trkpt><trkpt lat="44.945555" lon="8.3708567"><ele>142.66666666666669</ele><time>2026-04-25T10:00:45.968Z</time></trkpt><trkpt lat="44.945385" lon="8.3708283"><ele>142.0</ele><time>2026-04-25T10:00:46.968Z</time></trkpt><trkpt lat="44.9452083" lon="8.370815"><ele>141.66666666666669</ele><time>2026-04-25T10:00:47.969Z</time></trkpt><trkpt lat="44.9450267" lon="8.3708017"><ele>141.33333333333334</ele><time>2026-04-25T10:00:48.968Z</time></trkpt><trkpt lat="44.9448367" lon="8.3708017"><ele>141.0</ele><time>2026-04-25T10:00:49.968Z</time></trkpt><trkpt lat="44.944675" lon="8.3708583"><ele>141.0</ele><time>2026-04-25T10:00:50.968Z</time></trkpt><trkpt lat="44.94448" lon="8.3708983"><ele>141.0</ele><time>2026-04-25T10:00:51.969Z</time></trkpt><trkpt lat="44.9442817" lon="8.370975"><ele>141.0</ele><time>2026-04-25T10:00:52.968Z</time></trkpt><trkpt lat="44.9440933" lon="8.371075"><ele>141.66666666666666</ele><time>2026-04-25T10:00:53.969Z</time></trkpt><trkpt lat="44.9439033" lon="8.371195"><ele>142.33333333333331</ele><time>2026-04-25T10:00:54.968Z</time></trkpt><trkpt lat="44.9437333" lon="8.3713367"><ele>143.0</ele><time>2026-04-25T10:00:55.968Z</time></trkpt><trkpt lat="44.9435683" lon="8.37151"><ele>143.0</ele><time>2026-04-25T10:00:56.968Z</time></trkpt><trkpt lat="44.9434133" lon="8.371695"><ele>143.0</ele><time>2026-04-25T10:00:57.969Z</time></trkpt><trkpt lat="44.943265" lon="8.37186"><ele>143.0</ele><time>2026-04-25T10:00:58.968Z</time></trkpt><trkpt lat="44.9431167" lon="8.37204"><ele>142.66666666666666</ele><time>2026-04-25T10:00:59.968Z</time></trkpt><trkpt lat="44.94296" lon="8.3722217"><ele>142.33333333333334</ele><time>2026-04-25T10:01:00.968Z</time></trkpt><trkpt lat="44.9428" lon="8.3724067"><ele>142.0</ele><time>2026-04-25T10:01:01.969Z</time></trkpt><trkpt lat="44.9426417" lon="8.3725933"><ele>141.33333333333334</ele><time>2026-04-25T10:01:02.969Z</time></trkpt><trkpt lat="44.9424733" lon="8.37279"><ele>140.66666666666666</ele><time>2026-04-25T10:01:03.968Z</time></trkpt><trkpt lat="44.9423183" lon="8.3729833"><ele>140.0</ele><time>2026-04-25T10:01:04.968Z</time></trkpt><trkpt lat="44.9421517" lon="8.3731717"><ele>140.33333333333331</ele><time>2026-04-25T10:01:05.968Z</time></trkpt><trkpt lat="44.94199" lon="8.3733617"><ele>140.66666666666666</ele><time>2026-04-25T10:01:06.968Z</time></trkpt><trkpt lat="44.9418267" lon="8.373565"><ele>141.0</ele><time>2026-04-25T10:01:07.968Z</time></trkpt><trkpt lat="44.941665" lon="8.373755"><ele>141.0</ele><time>2026-04-25T10:01:08.968Z</time></trkpt><trkpt lat="44.9414933" lon="8.3739367"><ele>141.0</ele><time>2026-04-25T10:01:09.969Z</time></trkpt><trkpt lat="44.9413267" lon="8.37411"><ele>141.0</ele><time>2026-04-25T10:01:10.968Z</time></trkpt><trkpt lat="44.9411417" lon="8.3742617"><ele>141.0</ele><time>2026-04-25T10:01:11.968Z</time></trkpt><trkpt lat="44.94092" lon="8.37439"><ele>141.0</ele><time>2026-04-25T10:01:12.968Z</time></trkpt><trkpt lat="44.9407083" lon="8.374475"><ele>142.0</ele><time>2026-04-25T10:01:13.968Z</time></trkpt><trkpt lat="44.94049" lon="8.3745417"><ele>143.0</ele><time>2026-04-25T10:01:14.969Z</time></trkpt><trkpt lat="44.94027" lon="8.3746167"><ele>143.5</ele><time>2026-04-25T10:01:15.969Z</time></trkpt><trkpt lat="44.9400533" lon="8.3746983"><ele>144.0</ele><time>2026-04-25T10:01:16.969Z</time></trkpt><trkpt lat="44.9398333" lon="8.3747767"><ele>144.0</ele><time>2026-04-25T10:01:17.968Z</time></trkpt><trkpt lat="44.9396183" lon="8.37486"><ele>144.0</ele><time>2026-04-25T10:01:18.968Z</time></trkpt><trkpt lat="44.9393967" lon="8.3749367"><ele>142.5</ele><time>2026-04-25T10:01:19.968Z</time></trkpt><trkpt lat="44.9391817" lon="8.3750417"><ele>141.0</ele><time>2026-04-25T10:01:20.969Z</time></trkpt><trkpt lat="44.9389717" lon="8.3751467"><ele>141.0</ele><time>2026-04-25T10:01:21.969Z</time></trkpt><trkpt lat="44.938765" lon="8.3752783"><ele>141.0</ele><time>2026-04-25T10:01:22.968Z</time></trkpt><trkpt lat="44.93855" lon="8.3754117"><ele>141.0</ele><time>2026-04-25T10:01:23.969Z</time></trkpt><trkpt lat="44.9383517" lon="8.3755567"><ele>141.0</ele><time>2026-04-25T10:01:24.968Z</time></trkpt><trkpt lat="44.938155" lon="8.3757183"><ele>141.0</ele><time>2026-04-25T10:01:25.969Z</time></trkpt><trkpt lat="44.9379533" lon="8.37587"><ele>141.0</ele><time>2026-04-25T10:01:26.969Z</time></trkpt><trkpt lat="44.937755" lon="8.37604"><ele>140.5</ele><time>2026-04-25T10:01:27.968Z</time></trkpt><trkpt lat="44.9375483" lon="8.3762"><ele>140.0</ele><time>2026-04-25T10:01:28.968Z</time></trkpt><trkpt lat="44.93735" lon="8.3763683"><ele>140.0</ele><time>2026-04-25T10:01:29.969Z</time></trkpt><trkpt lat="44.9371467" lon="8.37651"><ele>140.0</ele><time>2026-04-25T10:01:30.969Z</time></trkpt><trkpt lat="44.9369433" lon="8.37666"><ele>140.0</ele><time>2026-04-25T10:01:31.968Z</time></trkpt><trkpt lat="44.9367317" lon="8.3768067"><ele>140.0</ele><time>2026-04-25T10:01:32.968Z</time></trkpt><trkpt lat="44.9365317" lon="8.3769633"><ele>140.0</ele><time>2026-04-25T10:01:33.969Z</time></trkpt><trkpt lat="44.93633" lon="8.3771017"><ele>140.0</ele><time>2026-04-25T10:01:34.968Z</time></trkpt><trkpt lat="44.9361267" lon="8.3772567"><ele>140.0</ele><time>2026-04-25T10:01:35.968Z</time></trkpt><trkpt lat="44.9359233" lon="8.3774183"><ele>140.0</ele><time>2026-04-25T10:01:36.969Z</time></trkpt><trkpt lat="44.93572" lon="8.3775683"><ele>138.5</ele><time>2026-04-25T10:01:37.968Z</time></trkpt><trkpt lat="44.9355017" lon="8.3776917"><ele>137.0</ele><time>2026-04-25T10:01:38.968Z</time></trkpt><trkpt lat="44.9352783" lon="8.377795"><ele>135.0</ele><time>2026-04-25T10:01:39.969Z</time></trkpt><trkpt lat="44.93505" lon="8.37787"><ele>133.0</ele><time>2026-04-25T10:01:40.968Z</time></trkpt><trkpt lat="44.9348283" lon="8.3779483"><ele>133.0</ele><time>2026-04-25T10:01:41.968Z</time></trkpt><trkpt lat="44.9345933" lon="8.3780183"><ele>133.0</ele><time>2026-04-25T10:01:42.968Z</time></trkpt><trkpt lat="44.9343533" lon="8.3780833"><ele>137.0</ele><time>2026-04-25T10:01:43.968Z</time></trkpt><trkpt lat="44.934135" lon="8.3781433"><ele>141.0</ele><time>2026-04-25T10:01:44.969Z</time></trkpt><trkpt lat="44.93391" lon="8.3781933"><ele>141.0</ele><time>2026-04-25T10:01:45.968Z</time></trkpt><trkpt lat="44.93368" lon="8.3782317"><ele>141.0</ele><time>2026-04-25T10:01:46.968Z</time></trkpt><trkpt lat="44.93346" lon="8.3782867"><ele>139.0</ele><time>2026-04-25T10:01:47.969Z</time></trkpt><trkpt lat="44.933235" lon="8.37835"><ele>137.0</ele><time>2026-04-25T10:01:48.969Z</time></trkpt><trkpt lat="44.9330217" lon="8.3784233"><ele>135.0</ele><time>2026-04-25T10:01:49.968Z</time></trkpt><trkpt lat="44.932795" lon="8.37848"><ele>135.0</ele><time>2026-04-25T10:01:50.968Z</time></trkpt><trkpt lat="44.9325633" lon="8.3785467"><ele>135.0</ele><time>2026-04-25T10:01:51.968Z</time></trkpt><trkpt lat="44.93233" lon="8.3785833"><ele>134.33333333333334</ele><time>2026-04-25T10:01:52.969Z</time></trkpt><trkpt lat="44.93211" lon="8.3786333"><ele>133.66666666666669</ele><time>2026-04-25T10:01:53.969Z</time></trkpt><trkpt lat="44.9318933" lon="8.3786917"><ele>133.0</ele><time>2026-04-25T10:01:54.969Z</time></trkpt><trkpt lat="44.931675" lon="8.3787617"><ele>134.5</ele><time>2026-04-25T10:01:55.968Z</time></trkpt><trkpt lat="44.9314467" lon="8.37885"><ele>136.0</ele><time>2026-04-25T10:01:56.968Z</time></trkpt><trkpt lat="44.93122" lon="8.3789483"><ele>136.0</ele><time>2026-04-25T10:01:57.968Z</time></trkpt><trkpt lat="44.931" lon="8.37904"><ele>136.0</ele><time>2026-04-25T10:01:58.969Z</time></trkpt><trkpt lat="44.9307767" lon="8.3791433"><ele>133.5</ele><time>2026-04-25T10:01:59.968Z</time></trkpt><trkpt lat="44.9305617" lon="8.3792717"><ele>131.0</ele><time>2026-04-25T10:02:00.968Z</time></trkpt><trkpt lat="44.9303483" lon="8.3794233"><ele>131.0</ele><time>2026-04-25T10:02:01.968Z</time></trkpt><trkpt lat="44.9301417" lon="8.3795767"><ele>131.0</ele><time>2026-04-25T10:02:02.969Z</time></trkpt><trkpt lat="44.92992" lon="8.379715"><ele>130.0</ele><time>2026-04-25T10:02:03.968Z</time></trkpt><trkpt lat="44.9296967" lon="8.37985"><ele>129.0</ele><time>2026-04-25T10:02:04.969Z</time></trkpt><trkpt lat="44.929475" lon="8.3799767"><ele>129.0</ele><time>2026-04-25T10:02:05.968Z</time></trkpt><trkpt lat="44.9292533" lon="8.3801"><ele>129.0</ele><time>2026-04-25T10:02:06.968Z</time></trkpt><trkpt lat="44.9290367" lon="8.3802333"><ele>129.5</ele><time>2026-04-25T10:02:07.968Z</time></trkpt><trkpt lat="44.92882" lon="8.3803517"><ele>130.0</ele><time>2026-04-25T10:02:08.968Z</time></trkpt><trkpt lat="44.928595" lon="8.380475"><ele>130.5</ele><time>2026-04-25T10:02:09.969Z</time></trkpt><trkpt lat="44.92837" lon="8.3806033"><ele>131.0</ele><time>2026-04-25T10:02:10.968Z</time></trkpt><trkpt lat="44.92815" lon="8.3807333"><ele>131.0</ele><time>2026-04-25T10:02:11.968Z</time></trkpt><trkpt lat="44.927935" lon="8.3808633"><ele>131.0</ele><time>2026-04-25T10:02:12.969Z</time></trkpt><trkpt lat="44.9277233" lon="8.38099"><ele>131.5</ele><time>2026-04-25T10:02:13.968Z</time></trkpt><trkpt lat="44.9275083" lon="8.381095"><ele>132.0</ele><time>2026-04-25T10:02:14.968Z</time></trkpt><trkpt lat="44.9272967" lon="8.381195"><ele>132.0</ele><time>2026-04-25T10:02:15.968Z</time></trkpt><trkpt lat="44.9270883" lon="8.3812617"><ele>132.0</ele><time>2026-04-25T10:02:16.968Z</time></trkpt><trkpt lat="44.926885" lon="8.3813033"><ele>132.0</ele><time>2026-04-25T10:02:17.968Z</time></trkpt><trkpt lat="44.9266767" lon="8.3813133"><ele>132.0</ele><time>2026-04-25T10:02:18.968Z</time></trkpt><trkpt lat="44.92647" lon="8.38132"><ele>132.0</ele><time>2026-04-25T10:02:19.969Z</time></trkpt><trkpt lat="44.9262633" lon="8.381315"><ele>132.0</ele><time>2026-04-25T10:02:20.969Z</time></trkpt><trkpt lat="44.9260533" lon="8.3813167"><ele>131.0</ele><time>2026-04-25T10:02:21.968Z</time></trkpt><trkpt lat="44.925855" lon="8.3813417"><ele>130.0</ele><time>2026-04-25T10:02:22.968Z</time></trkpt><trkpt lat="44.9256717" lon="8.3814"><ele>129.0</ele><time>2026-04-25T10:02:23.968Z</time></trkpt><trkpt lat="44.9254983" lon="8.3815167"><ele>129.0</ele><time>2026-04-25T10:02:24.968Z</time></trkpt><trkpt lat="44.9253467" lon="8.3816717"><ele>129.0</ele><time>2026-04-25T10:02:25.968Z</time></trkpt><trkpt lat="44.9252267" lon="8.3818833"><ele>129.0</ele><time>2026-04-25T10:02:26.969Z</time></trkpt><trkpt lat="44.9251417" lon="8.3820983"><ele>129.0</ele><time>2026-04-25T10:02:27.969Z</time></trkpt><trkpt lat="44.92507" lon="8.3823033"><ele>129.0</ele><time>2026-04-25T10:02:28.968Z</time></trkpt><trkpt lat="44.9249833" lon="8.382495"><ele>129.0</ele><time>2026-04-25T10:02:29.968Z</time></trkpt><trkpt lat="44.924905" lon="8.38266"><ele>129.0</ele><time>2026-04-25T10:02:30.968Z</time></trkpt><trkpt lat="44.9248517" lon="8.38283"><ele>129.0</ele><time>2026-04-25T10:02:31.969Z</time></trkpt><trkpt lat="44.92482" lon="8.3829933"><ele>129.0</ele><time>2026-04-25T10:02:32.968Z</time></trkpt><trkpt lat="44.9248117" lon="8.3831083"><ele>129.0</ele><time>2026-04-25T10:02:33.968Z</time></trkpt><trkpt lat="44.9248" lon="8.383215"><ele>129.0</ele><time>2026-04-25T10:02:35.968Z</time></trkpt><trkpt lat="44.924755" lon="8.3832967"><ele>129.0</ele><time>2026-04-25T10:02:38.968Z</time></trkpt><trkpt lat="44.9246917" lon="8.3833833"><ele>129.0</ele><time>2026-04-25T10:02:40.968Z</time></trkpt><trkpt lat="44.9246467" lon="8.3834583"><ele>129.0</ele><time>2026-04-25T10:02:41.968Z</time></trkpt><trkpt lat="44.924595" lon="8.38355"><ele>129.0</ele><time>2026-04-25T10:02:42.968Z</time></trkpt><trkpt lat="44.924535" lon="8.3836483"><ele>129.0</ele><time>2026-04-25T10:02:43.969Z</time></trkpt><trkpt lat="44.92446" lon="8.3837517"><ele>129.0</ele><time>2026-04-25T10:02:44.969Z</time></trkpt><trkpt lat="44.92438" lon="8.3838617"><ele>129.0</ele><time>2026-04-25T10:02:45.968Z</time></trkpt><trkpt lat="44.9242883" lon="8.3840033"><ele>129.0</ele><time>2026-04-25T10:02:46.969Z</time></trkpt><trkpt lat="44.9241833" lon="8.3841367"><ele>129.0</ele><time>2026-04-25T10:02:47.968Z</time></trkpt><trkpt lat="44.9240667" lon="8.3842733"><ele>129.0</ele><time>2026-04-25T10:02:48.969Z</time></trkpt><trkpt lat="44.9239433" lon="8.3844083"><ele>129.0</ele><time>2026-04-25T10:02:49.968Z</time></trkpt><trkpt lat="44.9238167" lon="8.3845583"><ele>129.0</ele><time>2026-04-25T10:02:50.968Z</time></trkpt><trkpt lat="44.9236833" lon="8.384725"><ele>129.0</ele><time>2026-04-25T10:02:51.968Z</time></trkpt><trkpt lat="44.9235467" lon="8.3848933"><ele>129.0</ele><time>2026-04-25T10:02:52.968Z</time></trkpt><trkpt lat="44.9234167" lon="8.3850817"><ele>129.0</ele><time>2026-04-25T10:02:53.968Z</time></trkpt><trkpt lat="44.9232817" lon="8.385255"><ele>129.0</ele><time>2026-04-25T10:02:54.969Z</time></trkpt><trkpt lat="44.9231517" lon="8.3854167"><ele>129.66666666666666</ele><time>2026-04-25T10:02:55.968Z</time></trkpt><trkpt lat="44.9230233" lon="8.385585"><ele>130.33333333333331</ele><time>2026-04-25T10:02:56.969Z</time></trkpt><trkpt lat="44.9228933" lon="8.3857483"><ele>131.0</ele><time>2026-04-25T10:02:57.969Z</time></trkpt><trkpt lat="44.92276" lon="8.3859067"><ele>131.0</ele><time>2026-04-25T10:02:58.969Z</time></trkpt><trkpt lat="44.922625" lon="8.386075"><ele>131.0</ele><time>2026-04-25T10:02:59.968Z</time></trkpt><trkpt lat="44.9225017" lon="8.3862567"><ele>131.0</ele><time>2026-04-25T10:03:00.969Z</time></trkpt><trkpt lat="44.92238" lon="8.3864433"><ele>130.66666666666666</ele><time>2026-04-25T10:03:01.968Z</time></trkpt><trkpt lat="44.9222617" lon="8.386625"><ele>130.33333333333334</ele><time>2026-04-25T10:03:02.969Z</time></trkpt><trkpt lat="44.92214" lon="8.3868167"><ele>130.0</ele><time>2026-04-25T10:03:03.968Z</time></trkpt><trkpt lat="44.92203" lon="8.3870083"><ele>131.0</ele><time>2026-04-25T10:03:04.969Z</time></trkpt><trkpt lat="44.92194" lon="8.38721"><ele>132.0</ele><time>2026-04-25T10:03:05.968Z</time></trkpt><trkpt lat="44.9218417" lon="8.3874033"><ele>133.0</ele><time>2026-04-25T10:03:06.968Z</time></trkpt><trkpt lat="44.9217467" lon="8.38759"><ele>131.33333333333334</ele><time>2026-04-25T10:03:07.969Z</time></trkpt><trkpt lat="44.921635" lon="8.3877783"><ele>129.66666666666666</ele><time>2026-04-25T10:03:08.968Z</time></trkpt><trkpt lat="44.921525" lon="8.3879567"><ele>128.0</ele><time>2026-04-25T10:03:09.968Z</time></trkpt><trkpt lat="44.9213933" lon="8.38812"><ele>128.0</ele><time>2026-04-25T10:03:10.969Z</time></trkpt><trkpt lat="44.9212583" lon="8.3882933"><ele>128.0</ele><time>2026-04-25T10:03:11.969Z</time></trkpt><trkpt lat="44.9211283" lon="8.388455"><ele>128.0</ele><time>2026-04-25T10:03:12.969Z</time></trkpt><trkpt lat="44.921" lon="8.38862"><ele>128.33333333333331</ele><time>2026-04-25T10:03:13.968Z</time></trkpt><trkpt lat="44.9208583" lon="8.3887933"><ele>128.66666666666666</ele><time>2026-04-25T10:03:14.969Z</time></trkpt><trkpt lat="44.92071" lon="8.388985"><ele>129.0</ele><time>2026-04-25T10:03:15.968Z</time></trkpt><trkpt lat="44.9205667" lon="8.3891717"><ele>129.0</ele><time>2026-04-25T10:03:16.968Z</time></trkpt><trkpt lat="44.9204333" lon="8.3894283"><ele>129.0</ele><time>2026-04-25T10:03:17.968Z</time></trkpt><trkpt lat="44.9202833" lon="8.3896083"><ele>129.0</ele><time>2026-04-25T10:03:18.968Z</time></trkpt><trkpt lat="44.9201283" lon="8.3897783"><ele>128.33333333333334</ele><time>2026-04-25T10:03:19.968Z</time></trkpt><trkpt lat="44.91996" lon="8.3899367"><ele>127.66666666666667</ele><time>2026-04-25T10:03:20.969Z</time></trkpt><trkpt lat="44.91978" lon="8.3900817"><ele>127.0</ele><time>2026-04-25T10:03:21.969Z</time></trkpt><trkpt lat="44.9195867" lon="8.3902183"><ele>127.0</ele><time>2026-04-25T10:03:22.969Z</time></trkpt><trkpt lat="44.919395" lon="8.3903433"><ele>127.0</ele><time>2026-04-25T10:03:23.968Z</time></trkpt><trkpt lat="44.919195" lon="8.3904717"><ele>127.0</ele><time>2026-04-25T10:03:24.968Z</time></trkpt><trkpt lat="44.91899" lon="8.3905933"><ele>127.0</ele><time>2026-04-25T10:03:25.968Z</time></trkpt><trkpt lat="44.9187867" lon="8.3907283"><ele>127.0</ele><time>2026-04-25T10:03:26.968Z</time></trkpt><trkpt lat="44.9185783" lon="8.3908933"><ele>126.5</ele><time>2026-04-25T10:03:27.968Z</time></trkpt><trkpt lat="44.918385" lon="8.39108"><ele>126.0</ele><time>2026-04-25T10:03:28.969Z</time></trkpt><trkpt lat="44.9181967" lon="8.3912783"><ele>129.0</ele><time>2026-04-25T10:03:29.968Z</time></trkpt><trkpt lat="44.918015" lon="8.3915083"><ele>132.0</ele><time>2026-04-25T10:03:30.969Z</time></trkpt><trkpt lat="44.9178367" lon="8.3917283"><ele>132.0</ele><time>2026-04-25T10:03:31.968Z</time></trkpt><trkpt lat="44.9176583" lon="8.3919567"><ele>132.0</ele><time>2026-04-25T10:03:32.968Z</time></trkpt><trkpt lat="44.9174917" lon="8.39218"><ele>133.0</ele><time>2026-04-25T10:03:33.968Z</time></trkpt><trkpt lat="44.9173167" lon="8.3924083"><ele>134.0</ele><time>2026-04-25T10:03:34.969Z</time></trkpt><trkpt lat="44.9171333" lon="8.392615"><ele>134.0</ele><time>2026-04-25T10:03:35.967Z</time></trkpt><trkpt lat="44.9169317" lon="8.39281"><ele>134.0</ele><time>2026-04-25T10:03:36.968Z</time></trkpt><trkpt lat="44.9167167" lon="8.3929717"><ele>133.5</ele><time>2026-04-25T10:03:37.968Z</time></trkpt><trkpt lat="44.9164983" lon="8.3931133"><ele>133.0</ele><time>2026-04-25T10:03:38.967Z</time></trkpt><trkpt lat="44.91628" lon="8.3932517"><ele>133.0</ele><time>2026-04-25T10:03:39.967Z</time></trkpt><trkpt lat="44.91605" lon="8.3934017"><ele>133.0</ele><time>2026-04-25T10:03:40.967Z</time></trkpt><trkpt lat="44.91581" lon="8.39353"><ele>128.0</ele><time>2026-04-25T10:03:41.967Z</time></trkpt><trkpt lat="44.91558" lon="8.3936617"><ele>123.0</ele><time>2026-04-25T10:03:42.967Z</time></trkpt><trkpt lat="44.9153517" lon="8.39379"><ele>124.5</ele><time>2026-04-25T10:03:43.968Z</time></trkpt><trkpt lat="44.915135" lon="8.393925"><ele>126.0</ele><time>2026-04-25T10:03:44.967Z</time></trkpt><trkpt lat="44.91492" lon="8.3940633"><ele>126.0</ele><time>2026-04-25T10:03:45.968Z</time></trkpt><trkpt lat="44.9147" lon="8.3942017"><ele>126.0</ele><time>2026-04-25T10:03:46.968Z</time></trkpt><trkpt lat="44.9144783" lon="8.3943367"><ele>126.0</ele><time>2026-04-25T10:03:47.967Z</time></trkpt><trkpt lat="44.9142583" lon="8.3944617"><ele>126.0</ele><time>2026-04-25T10:03:48.968Z</time></trkpt><trkpt lat="44.914045" lon="8.3945833"><ele>129.0</ele><time>2026-04-25T10:03:49.967Z</time></trkpt><trkpt lat="44.91383" lon="8.3947117"><ele>132.0</ele><time>2026-04-25T10:03:50.968Z</time></trkpt><trkpt lat="44.9136133" lon="8.39484"><ele>128.5</ele><time>2026-04-25T10:03:51.967Z</time></trkpt><trkpt lat="44.9133967" lon="8.3949617"><ele>125.0</ele><time>2026-04-25T10:03:52.968Z</time></trkpt><trkpt lat="44.9131767" lon="8.3950833"><ele>125.0</ele><time>2026-04-25T10:03:53.968Z</time></trkpt><trkpt lat="44.912965" lon="8.3952017"><ele>125.0</ele><time>2026-04-25T10:03:54.968Z</time></trkpt><trkpt lat="44.912755" lon="8.3953283"><ele>126.5</ele><time>2026-04-25T10:03:55.967Z</time></trkpt><trkpt lat="44.9125633" lon="8.3954983"><ele>128.0</ele><time>2026-04-25T10:03:56.967Z</time></trkpt><trkpt lat="44.9123733" lon="8.395675"><ele>128.0</ele><time>2026-04-25T10:03:57.968Z</time></trkpt><trkpt lat="44.9121917" lon="8.3958667"><ele>128.0</ele><time>2026-04-25T10:03:58.967Z</time></trkpt><trkpt lat="44.9120067" lon="8.3960833"><ele>128.0</ele><time>2026-04-25T10:03:59.967Z</time></trkpt><trkpt lat="44.9118283" lon="8.396305"><ele>128.0</ele><time>2026-04-25T10:04:00.967Z</time></trkpt><trkpt lat="44.911665" lon="8.3965233"><ele>127.0</ele><time>2026-04-25T10:04:01.967Z</time></trkpt><trkpt lat="44.9114917" lon="8.3967417"><ele>126.0</ele><time>2026-04-25T10:04:02.967Z</time></trkpt><trkpt lat="44.9113233" lon="8.396965"><ele>128.5</ele><time>2026-04-25T10:04:03.967Z</time></trkpt><trkpt lat="44.911155" lon="8.3972017"><ele>131.0</ele><time>2026-04-25T10:04:04.967Z</time></trkpt><trkpt lat="44.9109583" lon="8.397405"><ele>127.0</ele><time>2026-04-25T10:04:05.967Z</time></trkpt><trkpt lat="44.9107567" lon="8.39761"><ele>123.0</ele><time>2026-04-25T10:04:06.968Z</time></trkpt><trkpt lat="44.91055" lon="8.3977983"><ele>123.0</ele><time>2026-04-25T10:04:07.967Z</time></trkpt><trkpt lat="44.9103383" lon="8.39798"><ele>123.0</ele><time>2026-04-25T10:04:08.968Z</time></trkpt><trkpt lat="44.9101333" lon="8.398165"><ele>120.0</ele><time>2026-04-25T10:04:09.968Z</time></trkpt><trkpt lat="44.90992" lon="8.39836"><ele>117.0</ele><time>2026-04-25T10:04:10.967Z</time></trkpt><trkpt lat="44.90972" lon="8.3985483"><ele>117.0</ele><time>2026-04-25T10:04:11.967Z</time></trkpt><trkpt lat="44.90952" lon="8.3987383"><ele>117.0</ele><time>2026-04-25T10:04:12.968Z</time></trkpt><trkpt lat="44.9093283" lon="8.398925"><ele>117.5</ele><time>2026-04-25T10:04:13.968Z</time></trkpt><trkpt lat="44.909135" lon="8.3991033"><ele>118.0</ele><time>2026-04-25T10:04:14.967Z</time></trkpt><trkpt lat="44.908945" lon="8.3992817"><ele>118.0</ele><time>2026-04-25T10:04:15.968Z</time></trkpt><trkpt lat="44.908745" lon="8.3994383"><ele>118.0</ele><time>2026-04-25T10:04:16.968Z</time></trkpt><trkpt lat="44.9085467" lon="8.3995917"><ele>118.0</ele><time>2026-04-25T10:04:17.967Z</time></trkpt><trkpt lat="44.9083467" lon="8.39972"><ele>118.0</ele><time>2026-04-25T10:04:18.967Z</time></trkpt><trkpt lat="44.908155" lon="8.3998633"><ele>118.0</ele><time>2026-04-25T10:04:19.968Z</time></trkpt><trkpt lat="44.90794" lon="8.39994"><ele>118.0</ele><time>2026-04-25T10:04:20.967Z</time></trkpt><trkpt lat="44.9077233" lon="8.4000217"><ele>118.0</ele><time>2026-04-25T10:04:21.967Z</time></trkpt><trkpt lat="44.9075067" lon="8.4001217"><ele>117.5</ele><time>2026-04-25T10:04:22.968Z</time></trkpt><trkpt lat="44.9072817" lon="8.40024"><ele>117.0</ele><time>2026-04-25T10:04:23.968Z</time></trkpt><trkpt lat="44.9070667" lon="8.4003817"><ele>116.5</ele><time>2026-04-25T10:04:24.968Z</time></trkpt><trkpt lat="44.90684" lon="8.4005267"><ele>116.0</ele><time>2026-04-25T10:04:25.967Z</time></trkpt><trkpt lat="44.906625" lon="8.4006967"><ele>115.0</ele><time>2026-04-25T10:04:26.968Z</time></trkpt><trkpt lat="44.9064133" lon="8.4008717"><ele>114.0</ele><time>2026-04-25T10:04:27.967Z</time></trkpt><trkpt lat="44.906205" lon="8.4010567"><ele>114.0</ele><time>2026-04-25T10:04:28.967Z</time></trkpt><trkpt lat="44.9060083" lon="8.4012417"><ele>114.0</ele><time>2026-04-25T10:04:29.967Z</time></trkpt><trkpt lat="44.905805" lon="8.4014317"><ele>115.0</ele><time>2026-04-25T10:04:30.968Z</time></trkpt><trkpt lat="44.905605" lon="8.40162"><ele>116.0</ele><time>2026-04-25T10:04:31.967Z</time></trkpt><trkpt lat="44.9054083" lon="8.4018067"><ele>116.0</ele><time>2026-04-25T10:04:32.967Z</time></trkpt><trkpt lat="44.90522" lon="8.4019817"><ele>116.0</ele><time>2026-04-25T10:04:33.967Z</time></trkpt><trkpt lat="44.9050233" lon="8.4021667"><ele>114.0</ele><time>2026-04-25T10:04:34.967Z</time></trkpt><trkpt lat="44.9048417" lon="8.402355"><ele>112.0</ele><time>2026-04-25T10:04:35.968Z</time></trkpt><trkpt lat="44.90465" lon="8.40252"><ele>112.0</ele><time>2026-04-25T10:04:36.968Z</time></trkpt><trkpt lat="44.9044583" lon="8.4026983"><ele>112.0</ele><time>2026-04-25T10:04:37.967Z</time></trkpt><trkpt lat="44.9042717" lon="8.4028667"><ele>113.33333333333334</ele><time>2026-04-25T10:04:38.967Z</time></trkpt><trkpt lat="44.9041" lon="8.4030633"><ele>114.66666666666666</ele><time>2026-04-25T10:04:39.968Z</time></trkpt><trkpt lat="44.9039217" lon="8.4032617"><ele>116.0</ele><time>2026-04-25T10:04:40.968Z</time></trkpt><trkpt lat="44.9037467" lon="8.4034733"><ele>116.0</ele><time>2026-04-25T10:04:41.967Z</time></trkpt><trkpt lat="44.9035733" lon="8.4036883"><ele>116.0</ele><time>2026-04-25T10:04:42.967Z</time></trkpt><trkpt lat="44.9034067" lon="8.4039167"><ele>116.0</ele><time>2026-04-25T10:04:43.967Z</time></trkpt><trkpt lat="44.9032467" lon="8.404155"><ele>116.0</ele><time>2026-04-25T10:04:44.968Z</time></trkpt><trkpt lat="44.9030917" lon="8.4044017"><ele>116.0</ele><time>2026-04-25T10:04:45.968Z</time></trkpt><trkpt lat="44.9029383" lon="8.4046283"><ele>116.0</ele><time>2026-04-25T10:04:46.967Z</time></trkpt><trkpt lat="44.9027817" lon="8.4048517"><ele>116.0</ele><time>2026-04-25T10:04:47.967Z</time></trkpt><trkpt lat="44.9026367" lon="8.4050667"><ele>116.0</ele><time>2026-04-25T10:04:48.968Z</time></trkpt><trkpt lat="44.9024983" lon="8.4052717"><ele>116.0</ele><time>2026-04-25T10:04:49.968Z</time></trkpt><trkpt lat="44.9023567" lon="8.40547"><ele>116.0</ele><time>2026-04-25T10:04:50.967Z</time></trkpt><trkpt lat="44.9022267" lon="8.40567"><ele>116.0</ele><time>2026-04-25T10:04:51.968Z</time></trkpt><trkpt lat="44.902105" lon="8.4058667"><ele>116.0</ele><time>2026-04-25T10:04:52.968Z</time></trkpt><trkpt lat="44.9019817" lon="8.4060867"><ele>116.0</ele><time>2026-04-25T10:04:53.967Z</time></trkpt><trkpt lat="44.90189" lon="8.4063367"><ele>116.33333333333333</ele><time>2026-04-25T10:04:54.968Z</time></trkpt><trkpt lat="44.9018233" lon="8.4066133"><ele>116.66666666666666</ele><time>2026-04-25T10:04:55.968Z</time></trkpt><trkpt lat="44.9017533" lon="8.40687"><ele>117.0</ele><time>2026-04-25T10:04:56.968Z</time></trkpt><trkpt lat="44.9016567" lon="8.4071033"><ele>117.66666666666666</ele><time>2026-04-25T10:04:57.967Z</time></trkpt><trkpt lat="44.901545" lon="8.407315"><ele>118.33333333333333</ele><time>2026-04-25T10:04:58.967Z</time></trkpt><trkpt lat="44.90138" lon="8.4074283"><ele>119.0</ele><time>2026-04-25T10:04:59.968Z</time></trkpt><trkpt lat="44.90121" lon="8.407515"><ele>119.0</ele><time>2026-04-25T10:05:00.968Z</time></trkpt><trkpt lat="44.9010283" lon="8.4075717"><ele>119.0</ele><time>2026-04-25T10:05:01.967Z</time></trkpt><trkpt lat="44.90085" lon="8.407605"><ele>119.0</ele><time>2026-04-25T10:05:02.968Z</time></trkpt><trkpt lat="44.9006583" lon="8.40764"><ele>117.33333333333333</ele><time>2026-04-25T10:05:03.968Z</time></trkpt><trkpt lat="44.90048" lon="8.4077567"><ele>115.66666666666666</ele><time>2026-04-25T10:05:04.967Z</time></trkpt><trkpt lat="44.9003083" lon="8.4078867"><ele>114.0</ele><time>2026-04-25T10:05:05.968Z</time></trkpt><trkpt lat="44.9001467" lon="8.40806"><ele>113.66666666666666</ele><time>2026-04-25T10:05:06.967Z</time></trkpt><trkpt lat="44.9000017" lon="8.4082483"><ele>113.33333333333333</ele><time>2026-04-25T10:05:07.968Z</time></trkpt><trkpt lat="44.899855" lon="8.40844"><ele>113.0</ele><time>2026-04-25T10:05:08.968Z</time></trkpt><trkpt lat="44.899705" lon="8.4086317"><ele>112.66666666666666</ele><time>2026-04-25T10:05:09.968Z</time></trkpt><trkpt lat="44.8995617" lon="8.4088317"><ele>112.33333333333334</ele><time>2026-04-25T10:05:10.967Z</time></trkpt><trkpt lat="44.8994267" lon="8.4090117"><ele>112.0</ele><time>2026-04-25T10:05:11.967Z</time></trkpt><trkpt lat="44.8992833" lon="8.409175"><ele>112.0</ele><time>2026-04-25T10:05:12.967Z</time></trkpt><trkpt lat="44.89914" lon="8.409305"><ele>112.0</ele><time>2026-04-25T10:05:13.967Z</time></trkpt><trkpt lat="44.89899" lon="8.4094183"><ele>112.0</ele><time>2026-04-25T10:05:14.967Z</time></trkpt><trkpt lat="44.8988517" lon="8.4095167"><ele>112.0</ele><time>2026-04-25T10:05:15.968Z</time></trkpt><trkpt lat="44.8987267" lon="8.4095983"><ele>111.99999999999999</ele><time>2026-04-25T10:05:16.968Z</time></trkpt><trkpt lat="44.8986333" lon="8.4096583"><ele>111.99999999999999</ele><time>2026-04-25T10:05:17.967Z</time></trkpt><trkpt lat="44.89857" lon="8.4096767"><ele>112.0</ele><time>2026-04-25T10:05:18.967Z</time></trkpt><trkpt lat="44.8985017" lon="8.4096683"><ele>112.0</ele><time>2026-04-25T10:05:20.967Z</time></trkpt><trkpt lat="44.8984667" lon="8.4095717"><ele>112.0</ele><time>2026-04-25T10:05:22.967Z</time></trkpt><trkpt lat="44.89846" lon="8.409425"><ele>112.0</ele><time>2026-04-25T10:05:23.967Z</time></trkpt><trkpt lat="44.89846" lon="8.40926"><ele>112.0</ele><time>2026-04-25T10:05:24.968Z</time></trkpt><trkpt lat="44.8984617" lon="8.4090467"><ele>112.0</ele><time>2026-04-25T10:05:25.968Z</time></trkpt><trkpt lat="44.89846" lon="8.4088083"><ele>112.33333333333334</ele><time>2026-04-25T10:05:26.967Z</time></trkpt><trkpt lat="44.8984683" lon="8.4085683"><ele>112.66666666666666</ele><time>2026-04-25T10:05:27.967Z</time></trkpt><trkpt lat="44.8984567" lon="8.4083267"><ele>113.0</ele><time>2026-04-25T10:05:28.968Z</time></trkpt><trkpt lat="44.8984317" lon="8.408075"><ele>114.0</ele><time>2026-04-25T10:05:29.968Z</time></trkpt><trkpt lat="44.8984" lon="8.40782"><ele>115.0</ele><time>2026-04-25T10:05:30.968Z</time></trkpt><trkpt lat="44.8983467" lon="8.4075733"><ele>116.0</ele><time>2026-04-25T10:05:31.968Z</time></trkpt><trkpt lat="44.89831" lon="8.4073483"><ele>117.33333333333333</ele><time>2026-04-25T10:05:32.967Z</time></trkpt><trkpt lat="44.8983083" lon="8.4071467"><ele>118.66666666666666</ele><time>2026-04-25T10:05:33.968Z</time></trkpt><trkpt lat="44.8983333" lon="8.4069133"><ele>120.0</ele><time>2026-04-25T10:05:34.967Z</time></trkpt><trkpt lat="44.8983317" lon="8.406685"><ele>120.0</ele><time>2026-04-25T10:05:35.968Z</time></trkpt><trkpt lat="44.8982967" lon="8.40644"><ele>120.0</ele><time>2026-04-25T10:05:36.968Z</time></trkpt><trkpt lat="44.898255" lon="8.4061933"><ele>120.0</ele><time>2026-04-25T10:05:37.967Z</time></trkpt><trkpt lat="44.8981867" lon="8.40598"><ele>120.66666666666666</ele><time>2026-04-25T10:05:38.967Z</time></trkpt><trkpt lat="44.898125" lon="8.405755"><ele>121.33333333333333</ele><time>2026-04-25T10:05:39.967Z</time></trkpt><trkpt lat="44.8980617" lon="8.405535"><ele>122.0</ele><time>2026-04-25T10:05:40.968Z</time></trkpt><trkpt lat="44.897995" lon="8.4052883"><ele>122.33333333333333</ele><time>2026-04-25T10:05:41.968Z</time></trkpt><trkpt lat="44.8979317" lon="8.4050367"><ele>122.66666666666666</ele><time>2026-04-25T10:05:42.967Z</time></trkpt><trkpt lat="44.8978617" lon="8.4048"><ele>123.0</ele><time>2026-04-25T10:05:43.967Z</time></trkpt><trkpt lat="44.8977967" lon="8.404575"><ele>123.66666666666666</ele><time>2026-04-25T10:05:44.968Z</time></trkpt><trkpt lat="44.897735" lon="8.4043533"><ele>124.33333333333333</ele><time>2026-04-25T10:05:45.968Z</time></trkpt><trkpt lat="44.897665" lon="8.40414"><ele>125.0</ele><time>2026-04-25T10:05:46.967Z</time></trkpt><trkpt lat="44.8976" lon="8.403935"><ele>123.75</ele><time>2026-04-25T10:05:47.967Z</time></trkpt><trkpt lat="44.8975467" lon="8.4037433"><ele>122.5</ele><time>2026-04-25T10:05:48.968Z</time></trkpt><trkpt lat="44.8975" lon="8.4035467"><ele>121.25</ele><time>2026-04-25T10:05:49.968Z</time></trkpt><trkpt lat="44.8974533" lon="8.40334"><ele>120.0</ele><time>2026-04-25T10:05:50.967Z</time></trkpt><trkpt lat="44.8974" lon="8.4031217"><ele>120.0</ele><time>2026-04-25T10:05:51.968Z</time></trkpt><trkpt lat="44.897345" lon="8.4028983"><ele>120.0</ele><time>2026-04-25T10:05:52.967Z</time></trkpt><trkpt lat="44.89729" lon="8.4026733"><ele>120.0</ele><time>2026-04-25T10:05:53.968Z</time></trkpt><trkpt lat="44.8972267" lon="8.40243"><ele>120.0</ele><time>2026-04-25T10:05:54.967Z</time></trkpt><trkpt lat="44.8971617" lon="8.40217"><ele>120.0</ele><time>2026-04-25T10:05:55.968Z</time></trkpt><trkpt lat="44.8970883" lon="8.4019"><ele>120.0</ele><time>2026-04-25T10:05:56.967Z</time></trkpt><trkpt lat="44.897025" lon="8.4016467"><ele>120.0</ele><time>2026-04-25T10:05:57.968Z</time></trkpt><trkpt lat="44.8969583" lon="8.4013683"><ele>120.0</ele><time>2026-04-25T10:05:58.967Z</time></trkpt><trkpt lat="44.8968817" lon="8.4010933"><ele>120.0</ele><time>2026-04-25T10:05:59.967Z</time></trkpt><trkpt lat="44.8968033" lon="8.4008133"><ele>118.33333333333334</ele><time>2026-04-25T10:06:00.968Z</time></trkpt><trkpt lat="44.8967267" lon="8.4005267"><ele>116.66666666666667</ele><time>2026-04-25T10:06:01.967Z</time></trkpt><trkpt lat="44.8966567" lon="8.4002267"><ele>115.0</ele><time>2026-04-25T10:06:02.967Z</time></trkpt><trkpt lat="44.8965817" lon="8.3999283"><ele>114.5</ele><time>2026-04-25T10:06:03.968Z</time></trkpt><trkpt lat="44.8965083" lon="8.3996267"><ele>114.0</ele><time>2026-04-25T10:06:04.967Z</time></trkpt><trkpt lat="44.8964333" lon="8.399325"><ele>114.0</ele><time>2026-04-25T10:06:05.967Z</time></trkpt><trkpt lat="44.89636" lon="8.3990417"><ele>114.0</ele><time>2026-04-25T10:06:06.968Z</time></trkpt><trkpt lat="44.8962767" lon="8.3987283"><ele>114.5</ele><time>2026-04-25T10:06:07.967Z</time></trkpt><trkpt lat="44.8962" lon="8.3984117"><ele>115.0</ele><time>2026-04-25T10:06:08.968Z</time></trkpt><trkpt lat="44.8961233" lon="8.3981233"><ele>114.5</ele><time>2026-04-25T10:06:09.968Z</time></trkpt><trkpt lat="44.8960483" lon="8.3978183"><ele>114.0</ele><time>2026-04-25T10:06:10.967Z</time></trkpt><trkpt lat="44.8959683" lon="8.3975167"><ele>116.0</ele><time>2026-04-25T10:06:11.967Z</time></trkpt><trkpt lat="44.8958867" lon="8.3972183"><ele>118.0</ele><time>2026-04-25T10:06:12.968Z</time></trkpt><trkpt lat="44.895795" lon="8.3969117"><ele>118.0</ele><time>2026-04-25T10:06:13.967Z</time></trkpt><trkpt lat="44.8957117" lon="8.3966117"><ele>118.0</ele><time>2026-04-25T10:06:14.968Z</time></trkpt><trkpt lat="44.89564" lon="8.3963017"><ele>119.0</ele><time>2026-04-25T10:06:15.967Z</time></trkpt><trkpt lat="44.8955567" lon="8.3959967"><ele>120.0</ele><time>2026-04-25T10:06:16.967Z</time></trkpt><trkpt lat="44.895475" lon="8.3956883"><ele>119.5</ele><time>2026-04-25T10:06:17.968Z</time></trkpt><trkpt lat="44.8953867" lon="8.3953717"><ele>119.0</ele><time>2026-04-25T10:06:18.967Z</time></trkpt><trkpt lat="44.8952967" lon="8.3950533"><ele>119.0</ele><time>2026-04-25T10:06:19.967Z</time></trkpt><trkpt lat="44.8952133" lon="8.3947283"><ele>119.0</ele><time>2026-04-25T10:06:20.967Z</time></trkpt><trkpt lat="44.89512" lon="8.3944017"><ele>118.5</ele><time>2026-04-25T10:06:21.967Z</time></trkpt><trkpt lat="44.89504" lon="8.39407"><ele>118.0</ele><time>2026-04-25T10:06:22.968Z</time></trkpt><trkpt lat="44.89496" lon="8.3937467"><ele>119.0</ele><time>2026-04-25T10:06:23.968Z</time></trkpt><trkpt lat="44.8948867" lon="8.3934133"><ele>120.0</ele><time>2026-04-25T10:06:24.967Z</time></trkpt><trkpt lat="44.8948067" lon="8.3930817"><ele>118.5</ele><time>2026-04-25T10:06:25.968Z</time></trkpt><trkpt lat="44.89473" lon="8.3927383"><ele>117.0</ele><time>2026-04-25T10:06:26.967Z</time></trkpt><trkpt lat="44.89465" lon="8.392415"><ele>116.0</ele><time>2026-04-25T10:06:27.967Z</time></trkpt><trkpt lat="44.89457" lon="8.3920933"><ele>115.0</ele><time>2026-04-25T10:06:28.967Z</time></trkpt><trkpt lat="44.8944833" lon="8.3917617"><ele>115.0</ele><time>2026-04-25T10:06:29.967Z</time></trkpt><trkpt lat="44.894405" lon="8.391435"><ele>115.0</ele><time>2026-04-25T10:06:30.967Z</time></trkpt><trkpt lat="44.8943283" lon="8.3910967"><ele>114.0</ele><time>2026-04-25T10:06:31.967Z</time></trkpt><trkpt lat="44.8942517" lon="8.3907817"><ele>113.0</ele><time>2026-04-25T10:06:32.967Z</time></trkpt><trkpt lat="44.89417" lon="8.3904583"><ele>113.0</ele><time>2026-04-25T10:06:33.967Z</time></trkpt><trkpt lat="44.8940817" lon="8.39013"><ele>113.0</ele><time>2026-04-25T10:06:34.967Z</time></trkpt><trkpt lat="44.8939917" lon="8.389805"><ele>112.5</ele><time>2026-04-25T10:06:35.968Z</time></trkpt><trkpt lat="44.89391" lon="8.3894867"><ele>112.0</ele><time>2026-04-25T10:06:36.967Z</time></trkpt><trkpt lat="44.8938183" lon="8.3891683"><ele>112.0</ele><time>2026-04-25T10:06:37.967Z</time></trkpt><trkpt lat="44.8937283" lon="8.3888483"><ele>112.0</ele><time>2026-04-25T10:06:38.968Z</time></trkpt><trkpt lat="44.89365" lon="8.3885333"><ele>111.0</ele><time>2026-04-25T10:06:39.967Z</time></trkpt><trkpt lat="44.8935733" lon="8.3882133"><ele>110.0</ele><time>2026-04-25T10:06:40.967Z</time></trkpt><trkpt lat="44.893505" lon="8.3879033"><ele>111.0</ele><time>2026-04-25T10:06:41.967Z</time></trkpt><trkpt lat="44.893425" lon="8.3875933"><ele>112.0</ele><time>2026-04-25T10:06:42.967Z</time></trkpt><trkpt lat="44.8933467" lon="8.387285"><ele>111.5</ele><time>2026-04-25T10:06:43.968Z</time></trkpt><trkpt lat="44.8932483" lon="8.386955"><ele>111.0</ele><time>2026-04-25T10:06:44.968Z</time></trkpt><trkpt lat="44.8931667" lon="8.3866167"><ele>111.5</ele><time>2026-04-25T10:06:45.967Z</time></trkpt><trkpt lat="44.89307" lon="8.38628"><ele>112.0</ele><time>2026-04-25T10:06:46.968Z</time></trkpt><trkpt lat="44.8929833" lon="8.385925"><ele>112.0</ele><time>2026-04-25T10:06:47.967Z</time></trkpt><trkpt lat="44.8929067" lon="8.38557"><ele>112.0</ele><time>2026-04-25T10:06:48.968Z</time></trkpt><trkpt lat="44.8928017" lon="8.385215"><ele>111.5</ele><time>2026-04-25T10:06:49.967Z</time></trkpt><trkpt lat="44.8927033" lon="8.3848617"><ele>111.0</ele><time>2026-04-25T10:06:50.967Z</time></trkpt><trkpt lat="44.8926" lon="8.3845133"><ele>111.0</ele><time>2026-04-25T10:06:51.967Z</time></trkpt><trkpt lat="44.8925167" lon="8.384155"><ele>111.0</ele><time>2026-04-25T10:06:52.968Z</time></trkpt><trkpt lat="44.8924283" lon="8.3838167"><ele>111.0</ele><time>2026-04-25T10:06:53.967Z</time></trkpt><trkpt lat="44.892345" lon="8.3834683"><ele>111.0</ele><time>2026-04-25T10:06:54.967Z</time></trkpt><trkpt lat="44.8922683" lon="8.3831383"><ele>111.0</ele><time>2026-04-25T10:06:55.967Z</time></trkpt><trkpt lat="44.8921783" lon="8.3828067"><ele>111.0</ele><time>2026-04-25T10:06:56.968Z</time></trkpt><trkpt lat="44.8920783" lon="8.3824683"><ele>111.5</ele><time>2026-04-25T10:06:57.967Z</time></trkpt><trkpt lat="44.89198" lon="8.3821383"><ele>112.0</ele><time>2026-04-25T10:06:58.968Z</time></trkpt><trkpt lat="44.8918817" lon="8.3817983"><ele>112.0</ele><time>2026-04-25T10:06:59.967Z</time></trkpt><trkpt lat="44.8918067" lon="8.3814717"><ele>112.0</ele><time>2026-04-25T10:07:00.968Z</time></trkpt><trkpt lat="44.8917267" lon="8.3811367"><ele>112.0</ele><time>2026-04-25T10:07:01.967Z</time></trkpt><trkpt lat="44.8916383" lon="8.3808"><ele>112.0</ele><time>2026-04-25T10:07:02.967Z</time></trkpt><trkpt lat="44.8915467" lon="8.38047"><ele>112.0</ele><time>2026-04-25T10:07:03.967Z</time></trkpt><trkpt lat="44.8914583" lon="8.3801317"><ele>112.0</ele><time>2026-04-25T10:07:04.967Z</time></trkpt><trkpt lat="44.8913717" lon="8.3797983"><ele>112.5</ele><time>2026-04-25T10:07:05.967Z</time></trkpt><trkpt lat="44.8912867" lon="8.3794867"><ele>113.0</ele><time>2026-04-25T10:07:06.967Z</time></trkpt><trkpt lat="44.8912067" lon="8.37916"><ele>114.5</ele><time>2026-04-25T10:07:07.968Z</time></trkpt><trkpt lat="44.8911267" lon="8.3788117"><ele>116.0</ele><time>2026-04-25T10:07:08.967Z</time></trkpt><trkpt lat="44.89106" lon="8.3785017"><ele>116.0</ele><time>2026-04-25T10:07:09.967Z</time></trkpt><trkpt lat="44.890965" lon="8.378155"><ele>116.0</ele><time>2026-04-25T10:07:10.967Z</time></trkpt><trkpt lat="44.8908817" lon="8.3778167"><ele>119.5</ele><time>2026-04-25T10:07:11.968Z</time></trkpt><trkpt lat="44.8908" lon="8.3774767"><ele>123.0</ele><time>2026-04-25T10:07:12.968Z</time></trkpt><trkpt lat="44.8907167" lon="8.37712"><ele>123.0</ele><time>2026-04-25T10:07:13.967Z</time></trkpt><trkpt lat="44.8906267" lon="8.37678"><ele>123.0</ele><time>2026-04-25T10:07:14.967Z</time></trkpt><trkpt lat="44.8905467" lon="8.3764383"><ele>124.5</ele><time>2026-04-25T10:07:15.967Z</time></trkpt><trkpt lat="44.8904583" lon="8.376105"><ele>126.0</ele><time>2026-04-25T10:07:16.967Z</time></trkpt><trkpt lat="44.89037" lon="8.375775"><ele>126.5</ele><time>2026-04-25T10:07:17.968Z</time></trkpt><trkpt lat="44.8902783" lon="8.3754317"><ele>127.0</ele><time>2026-04-25T10:07:18.967Z</time></trkpt><trkpt lat="44.89019" lon="8.37509"><ele>127.0</ele><time>2026-04-25T10:07:19.968Z</time></trkpt><trkpt lat="44.890095" lon="8.3747433"><ele>127.0</ele><time>2026-04-25T10:07:20.967Z</time></trkpt><trkpt lat="44.8900083" lon="8.3743867"><ele>127.0</ele><time>2026-04-25T10:07:21.967Z</time></trkpt><trkpt lat="44.8899117" lon="8.374055"><ele>127.0</ele><time>2026-04-25T10:07:22.968Z</time></trkpt><trkpt lat="44.889815" lon="8.3737217"><ele>125.5</ele><time>2026-04-25T10:07:23.968Z</time></trkpt><trkpt lat="44.8897283" lon="8.373385"><ele>124.0</ele><time>2026-04-25T10:07:24.968Z</time></trkpt><trkpt lat="44.8896417" lon="8.3730483"><ele>123.0</ele><time>2026-04-25T10:07:25.967Z</time></trkpt><trkpt lat="44.88956" lon="8.3727083"><ele>122.0</ele><time>2026-04-25T10:07:26.967Z</time></trkpt><trkpt lat="44.8894833" lon="8.3723733"><ele>121.5</ele><time>2026-04-25T10:07:27.967Z</time></trkpt><trkpt lat="44.8894" lon="8.3720517"><ele>121.0</ele><time>2026-04-25T10:07:28.967Z</time></trkpt><trkpt lat="44.8893167" lon="8.37171"><ele>121.5</ele><time>2026-04-25T10:07:29.968Z</time></trkpt><trkpt lat="44.88922" lon="8.37138"><ele>122.0</ele><time>2026-04-25T10:07:30.968Z</time></trkpt><trkpt lat="44.88914" lon="8.37107"><ele>123.5</ele><time>2026-04-25T10:07:31.967Z</time></trkpt><trkpt lat="44.8890617" lon="8.37075"><ele>125.0</ele><time>2026-04-25T10:07:32.967Z</time></trkpt><trkpt lat="44.888985" lon="8.3704417"><ele>126.0</ele><time>2026-04-25T10:07:33.968Z</time></trkpt><trkpt lat="44.888905" lon="8.3701383"><ele>127.0</ele><time>2026-04-25T10:07:34.967Z</time></trkpt><trkpt lat="44.8888217" lon="8.36983"><ele>127.5</ele><time>2026-04-25T10:07:35.967Z</time></trkpt><trkpt lat="44.88873" lon="8.36952"><ele>128.0</ele><time>2026-04-25T10:07:36.968Z</time></trkpt><trkpt lat="44.8886267" lon="8.3692117"><ele>128.0</ele><time>2026-04-25T10:07:37.967Z</time></trkpt><trkpt lat="44.8885317" lon="8.3688833"><ele>128.0</ele><time>2026-04-25T10:07:38.967Z</time></trkpt><trkpt lat="44.8884483" lon="8.3685483"><ele>128.5</ele><time>2026-04-25T10:07:39.968Z</time></trkpt><trkpt lat="44.8883667" lon="8.3682333"><ele>129.0</ele><time>2026-04-25T10:07:40.968Z</time></trkpt><trkpt lat="44.8882817" lon="8.3678967"><ele>129.0</ele><time>2026-04-25T10:07:41.968Z</time></trkpt><trkpt lat="44.8881867" lon="8.3675767"><ele>129.0</ele><time>2026-04-25T10:07:42.968Z</time></trkpt><trkpt lat="44.8880967" lon="8.367235"><ele>129.0</ele><time>2026-04-25T10:07:43.967Z</time></trkpt><trkpt lat="44.8880033" lon="8.3668983"><ele>129.0</ele><time>2026-04-25T10:07:44.967Z</time></trkpt><trkpt lat="44.887905" lon="8.3665683"><ele>129.5</ele><time>2026-04-25T10:07:45.967Z</time></trkpt><trkpt lat="44.8878117" lon="8.3662267"><ele>130.0</ele><time>2026-04-25T10:07:46.967Z</time></trkpt><trkpt lat="44.88772" lon="8.3658983"><ele>130.0</ele><time>2026-04-25T10:07:47.968Z</time></trkpt><trkpt lat="44.8876317" lon="8.3655517"><ele>130.0</ele><time>2026-04-25T10:07:48.968Z</time></trkpt><trkpt lat="44.8875383" lon="8.36521"><ele>130.0</ele><time>2026-04-25T10:07:49.968Z</time></trkpt><trkpt lat="44.8874383" lon="8.364885"><ele>130.0</ele><time>2026-04-25T10:07:50.968Z</time></trkpt><trkpt lat="44.887345" lon="8.3645567"><ele>129.5</ele><time>2026-04-25T10:07:51.968Z</time></trkpt><trkpt lat="44.88725" lon="8.3642317"><ele>129.0</ele><time>2026-04-25T10:07:52.967Z</time></trkpt><trkpt lat="44.88715" lon="8.3638883"><ele>130.0</ele><time>2026-04-25T10:07:53.968Z</time></trkpt><trkpt lat="44.887055" lon="8.3635567"><ele>131.0</ele><time>2026-04-25T10:07:54.967Z</time></trkpt><trkpt lat="44.8869667" lon="8.3632133"><ele>131.0</ele><time>2026-04-25T10:07:55.968Z</time></trkpt><trkpt lat="44.886875" lon="8.362885"><ele>131.0</ele><time>2026-04-25T10:07:56.967Z</time></trkpt><trkpt lat="44.8867767" lon="8.3625583"><ele>131.5</ele><time>2026-04-25T10:07:57.967Z</time></trkpt><trkpt lat="44.8866867" lon="8.3622333"><ele>132.0</ele><time>2026-04-25T10:07:58.968Z</time></trkpt><trkpt lat="44.8865867" lon="8.3618917"><ele>132.0</ele><time>2026-04-25T10:07:59.967Z</time></trkpt><trkpt lat="44.8865017" lon="8.36156"><ele>132.0</ele><time>2026-04-25T10:08:00.968Z</time></trkpt><trkpt lat="44.8864083" lon="8.361225"><ele>132.5</ele><time>2026-04-25T10:08:01.967Z</time></trkpt><trkpt lat="44.8863167" lon="8.360885"><ele>133.0</ele><time>2026-04-25T10:08:02.967Z</time></trkpt><trkpt lat="44.8862317" lon="8.360555"><ele>134.0</ele><time>2026-04-25T10:08:03.967Z</time></trkpt><trkpt lat="44.8861383" lon="8.36022"><ele>135.0</ele><time>2026-04-25T10:08:04.967Z</time></trkpt><trkpt lat="44.88604" lon="8.3598917"><ele>136.0</ele><time>2026-04-25T10:08:05.968Z</time></trkpt><trkpt lat="44.88594" lon="8.3595733"><ele>137.0</ele><time>2026-04-25T10:08:06.967Z</time></trkpt><trkpt lat="44.885855" lon="8.359255"><ele>137.5</ele><time>2026-04-25T10:08:07.968Z</time></trkpt><trkpt lat="44.88576" lon="8.3589383"><ele>138.0</ele><time>2026-04-25T10:08:08.967Z</time></trkpt><trkpt lat="44.8856717" lon="8.3586117"><ele>138.0</ele><time>2026-04-25T10:08:09.968Z</time></trkpt><trkpt lat="44.8855783" lon="8.3582867"><ele>138.0</ele><time>2026-04-25T10:08:10.967Z</time></trkpt><trkpt lat="44.885495" lon="8.3579467"><ele>138.5</ele><time>2026-04-25T10:08:11.967Z</time></trkpt><trkpt lat="44.885405" lon="8.3576133"><ele>139.0</ele><time>2026-04-25T10:08:12.968Z</time></trkpt><trkpt lat="44.8853117" lon="8.35728"><ele>138.5</ele><time>2026-04-25T10:08:13.967Z</time></trkpt><trkpt lat="44.8852217" lon="8.3569483"><ele>138.0</ele><time>2026-04-25T10:08:14.967Z</time></trkpt><trkpt lat="44.8851283" lon="8.3566233"><ele>137.0</ele><time>2026-04-25T10:08:15.967Z</time></trkpt><trkpt lat="44.8850333" lon="8.35629"><ele>136.0</ele><time>2026-04-25T10:08:16.967Z</time></trkpt><trkpt lat="44.88494" lon="8.3559533"><ele>136.0</ele><time>2026-04-25T10:08:17.967Z</time></trkpt><trkpt lat="44.884845" lon="8.355625"><ele>136.0</ele><time>2026-04-25T10:08:18.967Z</time></trkpt><trkpt lat="44.8847483" lon="8.3552983"><ele>137.0</ele><time>2026-04-25T10:08:19.967Z</time></trkpt><trkpt lat="44.88465" lon="8.3549617"><ele>138.0</ele><time>2026-04-25T10:08:20.968Z</time></trkpt><trkpt lat="44.8845533" lon="8.3546433"><ele>138.0</ele><time>2026-04-25T10:08:21.968Z</time></trkpt><trkpt lat="44.8844533" lon="8.3543033"><ele>138.0</ele><time>2026-04-25T10:08:22.968Z</time></trkpt><trkpt lat="44.884355" lon="8.353945"><ele>137.5</ele><time>2026-04-25T10:08:23.967Z</time></trkpt><trkpt lat="44.8842517" lon="8.3535983"><ele>137.0</ele><time>2026-04-25T10:08:24.967Z</time></trkpt><trkpt lat="44.8841617" lon="8.3532733"><ele>138.0</ele><time>2026-04-25T10:08:25.967Z</time></trkpt><trkpt lat="44.8840767" lon="8.352955"><ele>139.0</ele><time>2026-04-25T10:08:26.967Z</time></trkpt><trkpt lat="44.8839817" lon="8.3526267"><ele>139.0</ele><time>2026-04-25T10:08:27.967Z</time></trkpt><trkpt lat="44.8838933" lon="8.3522983"><ele>139.0</ele><time>2026-04-25T10:08:28.968Z</time></trkpt><trkpt lat="44.8838033" lon="8.3519683"><ele>140.0</ele><time>2026-04-25T10:08:29.967Z</time></trkpt><trkpt lat="44.8837167" lon="8.3516533"><ele>141.0</ele><time>2026-04-25T10:08:30.968Z</time></trkpt><trkpt lat="44.8836217" lon="8.3513233"><ele>141.0</ele><time>2026-04-25T10:08:31.967Z</time></trkpt><trkpt lat="44.8835333" lon="8.3510083"><ele>141.0</ele><time>2026-04-25T10:08:32.968Z</time></trkpt><trkpt lat="44.8834433" lon="8.350685"><ele>140.5</ele><time>2026-04-25T10:08:33.967Z</time></trkpt><trkpt lat="44.883345" lon="8.3503533"><ele>140.0</ele><time>2026-04-25T10:08:34.967Z</time></trkpt><trkpt lat="44.883255" lon="8.3500183"><ele>139.5</ele><time>2026-04-25T10:08:35.967Z</time></trkpt><trkpt lat="44.8831667" lon="8.3496817"><ele>139.0</ele><time>2026-04-25T10:08:36.967Z</time></trkpt><trkpt lat="44.8830717" lon="8.34934"><ele>139.0</ele><time>2026-04-25T10:08:37.967Z</time></trkpt><trkpt lat="44.88297" lon="8.3490033"><ele>139.0</ele><time>2026-04-25T10:08:38.967Z</time></trkpt><trkpt lat="44.882865" lon="8.3486733"><ele>137.5</ele><time>2026-04-25T10:08:39.967Z</time></trkpt><trkpt lat="44.88277" lon="8.3483383"><ele>136.0</ele><time>2026-04-25T10:08:40.968Z</time></trkpt><trkpt lat="44.8826817" lon="8.348"><ele>133.0</ele><time>2026-04-25T10:08:41.967Z</time></trkpt><trkpt lat="44.882585" lon="8.347645"><ele>130.0</ele><time>2026-04-25T10:08:42.968Z</time></trkpt><trkpt lat="44.8824833" lon="8.347295"><ele>127.5</ele><time>2026-04-25T10:08:43.967Z</time></trkpt><trkpt lat="44.8823833" lon="8.3469517"><ele>125.0</ele><time>2026-04-25T10:08:44.967Z</time></trkpt><trkpt lat="44.8822917" lon="8.3466"><ele>124.5</ele><time>2026-04-25T10:08:45.967Z</time></trkpt><trkpt lat="44.88219" lon="8.3462333"><ele>124.0</ele><time>2026-04-25T10:08:46.968Z</time></trkpt><trkpt lat="44.8820933" lon="8.3458817"><ele>124.0</ele><time>2026-04-25T10:08:47.968Z</time></trkpt><trkpt lat="44.882" lon="8.3455183"><ele>124.0</ele><time>2026-04-25T10:08:48.967Z</time></trkpt><trkpt lat="44.881905" lon="8.3451583"><ele>124.0</ele><time>2026-04-25T10:08:49.967Z</time></trkpt><trkpt lat="44.88181" lon="8.3448083"><ele>124.0</ele><time>2026-04-25T10:08:50.967Z</time></trkpt><trkpt lat="44.8816983" lon="8.3444483"><ele>123.5</ele><time>2026-04-25T10:08:51.968Z</time></trkpt><trkpt lat="44.88159" lon="8.3440983"><ele>123.0</ele><time>2026-04-25T10:08:52.967Z</time></trkpt><trkpt lat="44.881495" lon="8.3437467"><ele>120.0</ele><time>2026-04-25T10:08:53.967Z</time></trkpt><trkpt lat="44.8814183" lon="8.3434167"><ele>117.0</ele><time>2026-04-25T10:08:54.968Z</time></trkpt><trkpt lat="44.881335" lon="8.3430933"><ele>116.5</ele><time>2026-04-25T10:08:55.967Z</time></trkpt><trkpt lat="44.881255" lon="8.3427733"><ele>116.0</ele><time>2026-04-25T10:08:56.968Z</time></trkpt><trkpt lat="44.8811767" lon="8.34249"><ele>116.0</ele><time>2026-04-25T10:08:57.967Z</time></trkpt><trkpt lat="44.8811017" lon="8.3422233"><ele>116.0</ele><time>2026-04-25T10:08:58.968Z</time></trkpt><trkpt lat="44.881025" lon="8.3419567"><ele>116.0</ele><time>2026-04-25T10:08:59.968Z</time></trkpt><trkpt lat="44.8809533" lon="8.34171"><ele>116.66666666666666</ele><time>2026-04-25T10:09:00.967Z</time></trkpt><trkpt lat="44.88088" lon="8.34149"><ele>117.33333333333334</ele><time>2026-04-25T10:09:01.968Z</time></trkpt><trkpt lat="44.8808133" lon="8.3412717"><ele>118.0</ele><time>2026-04-25T10:09:02.968Z</time></trkpt><trkpt lat="44.88076" lon="8.3410667"><ele>118.0</ele><time>2026-04-25T10:09:03.966Z</time></trkpt><trkpt lat="44.880705" lon="8.3408733"><ele>118.0</ele><time>2026-04-25T10:09:04.966Z</time></trkpt><trkpt lat="44.8806533" lon="8.3406933"><ele>118.0</ele><time>2026-04-25T10:09:05.967Z</time></trkpt><trkpt lat="44.8806133" lon="8.34051"><ele>118.0</ele><time>2026-04-25T10:09:06.966Z</time></trkpt><trkpt lat="44.880575" lon="8.34033"><ele>118.0</ele><time>2026-04-25T10:09:07.966Z</time></trkpt><trkpt lat="44.880545" lon="8.3401733"><ele>118.00000000000001</ele><time>2026-04-25T10:09:08.966Z</time></trkpt><trkpt lat="44.8805133" lon="8.3400517"><ele>118.00000000000001</ele><time>2026-04-25T10:09:09.966Z</time></trkpt><trkpt lat="44.8804683" lon="8.33998"><ele>118.0</ele><time>2026-04-25T10:09:10.966Z</time></trkpt><trkpt lat="44.8803633" lon="8.33997"><ele>118.0</ele><time>2026-04-25T10:09:12.967Z</time></trkpt><trkpt lat="44.8802783" lon="8.34004"><ele>118.0</ele><time>2026-04-25T10:09:13.966Z</time></trkpt><trkpt lat="44.880175" lon="8.34013"><ele>118.0</ele><time>2026-04-25T10:09:14.967Z</time></trkpt><trkpt lat="44.88005" lon="8.3402317"><ele>118.0</ele><time>2026-04-25T10:09:15.967Z</time></trkpt><trkpt lat="44.8799017" lon="8.3403367"><ele>118.0</ele><time>2026-04-25T10:09:16.966Z</time></trkpt><trkpt lat="44.879745" lon="8.3404567"><ele>118.66666666666667</ele><time>2026-04-25T10:09:17.966Z</time></trkpt><trkpt lat="44.8795733" lon="8.3405633"><ele>119.33333333333334</ele><time>2026-04-25T10:09:18.966Z</time></trkpt><trkpt lat="44.8793917" lon="8.3406817"><ele>120.0</ele><time>2026-04-25T10:09:19.966Z</time></trkpt><trkpt lat="44.8791967" lon="8.3407983"><ele>120.33333333333334</ele><time>2026-04-25T10:09:20.966Z</time></trkpt><trkpt lat="44.8790033" lon="8.34093"><ele>120.66666666666667</ele><time>2026-04-25T10:09:21.966Z</time></trkpt><trkpt lat="44.87881" lon="8.341075"><ele>121.0</ele><time>2026-04-25T10:09:22.966Z</time></trkpt><trkpt lat="44.8785967" lon="8.3412133"><ele>120.5</ele><time>2026-04-25T10:09:23.966Z</time></trkpt><trkpt lat="44.8783867" lon="8.3413583"><ele>120.0</ele><time>2026-04-25T10:09:24.966Z</time></trkpt><trkpt lat="44.8781733" lon="8.3414833"><ele>119.5</ele><time>2026-04-25T10:09:25.966Z</time></trkpt><trkpt lat="44.8779633" lon="8.3416133"><ele>119.0</ele><time>2026-04-25T10:09:26.966Z</time></trkpt><trkpt lat="44.8777517" lon="8.3417417"><ele>116.5</ele><time>2026-04-25T10:09:27.967Z</time></trkpt><trkpt lat="44.8775333" lon="8.3418867"><ele>114.0</ele><time>2026-04-25T10:09:28.967Z</time></trkpt><trkpt lat="44.8773017" lon="8.3420217"><ele>114.0</ele><time>2026-04-25T10:09:29.966Z</time></trkpt><trkpt lat="44.87707" lon="8.3421367"><ele>114.0</ele><time>2026-04-25T10:09:30.967Z</time></trkpt><trkpt lat="44.8768567" lon="8.342255"><ele>114.5</ele><time>2026-04-25T10:09:31.966Z</time></trkpt><trkpt lat="44.8766417" lon="8.34237"><ele>115.0</ele><time>2026-04-25T10:09:32.966Z</time></trkpt><trkpt lat="44.8764333" lon="8.3424933"><ele>115.0</ele><time>2026-04-25T10:09:33.966Z</time></trkpt><trkpt lat="44.8762233" lon="8.3426167"><ele>115.0</ele><time>2026-04-25T10:09:34.966Z</time></trkpt><trkpt lat="44.87601" lon="8.342745"><ele>115.5</ele><time>2026-04-25T10:09:35.966Z</time></trkpt><trkpt lat="44.8757867" lon="8.342865"><ele>116.0</ele><time>2026-04-25T10:09:36.967Z</time></trkpt><trkpt lat="44.8755633" lon="8.3429833"><ele>117.0</ele><time>2026-04-25T10:09:37.966Z</time></trkpt><trkpt lat="44.87534" lon="8.3431067"><ele>118.0</ele><time>2026-04-25T10:09:38.966Z</time></trkpt><trkpt lat="44.8751283" lon="8.34323"><ele>117.5</ele><time>2026-04-25T10:09:39.967Z</time></trkpt><trkpt lat="44.8749117" lon="8.3433317"><ele>117.0</ele><time>2026-04-25T10:09:40.966Z</time></trkpt><trkpt lat="44.874685" lon="8.34343"><ele>117.0</ele><time>2026-04-25T10:09:41.966Z</time></trkpt><trkpt lat="44.874455" lon="8.3435083"><ele>117.0</ele><time>2026-04-25T10:09:42.967Z</time></trkpt><trkpt lat="44.87423" lon="8.34358"><ele>117.5</ele><time>2026-04-25T10:09:43.966Z</time></trkpt><trkpt lat="44.8740067" lon="8.34365"><ele>118.0</ele><time>2026-04-25T10:09:44.966Z</time></trkpt><trkpt lat="44.8737817" lon="8.343705"><ele>118.0</ele><time>2026-04-25T10:09:45.966Z</time></trkpt><trkpt lat="44.8735517" lon="8.3437767"><ele>118.0</ele><time>2026-04-25T10:09:46.967Z</time></trkpt><trkpt lat="44.8733217" lon="8.343855"><ele>117.5</ele><time>2026-04-25T10:09:47.967Z</time></trkpt><trkpt lat="44.8730917" lon="8.3439383"><ele>117.0</ele><time>2026-04-25T10:09:48.966Z</time></trkpt><trkpt lat="44.8728633" lon="8.34401"><ele>117.0</ele><time>2026-04-25T10:09:49.966Z</time></trkpt><trkpt lat="44.872625" lon="8.3440717"><ele>117.0</ele><time>2026-04-25T10:09:50.967Z</time></trkpt><trkpt lat="44.87239" lon="8.3441383"><ele>116.0</ele><time>2026-04-25T10:09:51.966Z</time></trkpt><trkpt lat="44.8721533" lon="8.3441967"><ele>115.0</ele><time>2026-04-25T10:09:52.966Z</time></trkpt><trkpt lat="44.871915" lon="8.34424"><ele>112.0</ele><time>2026-04-25T10:09:53.966Z</time></trkpt><trkpt lat="44.87168" lon="8.34429"><ele>109.0</ele><time>2026-04-25T10:09:54.966Z</time></trkpt><trkpt lat="44.8714417" lon="8.344325"><ele>109.0</ele><time>2026-04-25T10:09:55.967Z</time></trkpt><trkpt lat="44.8711983" lon="8.3443717"><ele>109.0</ele><time>2026-04-25T10:09:56.967Z</time></trkpt><trkpt lat="44.8709517" lon="8.3444217"><ele>107.0</ele><time>2026-04-25T10:09:57.966Z</time></trkpt><trkpt lat="44.87071" lon="8.3444817"><ele>105.0</ele><time>2026-04-25T10:09:58.966Z</time></trkpt><trkpt lat="44.87047" lon="8.344535"><ele>105.0</ele><time>2026-04-25T10:09:59.967Z</time></trkpt><trkpt lat="44.87025" lon="8.34458"><ele>105.0</ele><time>2026-04-25T10:10:00.966Z</time></trkpt><trkpt lat="44.8700517" lon="8.344605"><ele>105.0</ele><time>2026-04-25T10:10:01.966Z</time></trkpt><trkpt lat="44.8698533" lon="8.3446467"><ele>104.33333333333334</ele><time>2026-04-25T10:10:02.966Z</time></trkpt><trkpt lat="44.86966" lon="8.3446833"><ele>103.66666666666667</ele><time>2026-04-25T10:10:03.967Z</time></trkpt><trkpt lat="44.8694667" lon="8.3447367"><ele>103.0</ele><time>2026-04-25T10:10:04.966Z</time></trkpt><trkpt lat="44.86928" lon="8.3447733"><ele>104.0</ele><time>2026-04-25T10:10:05.966Z</time></trkpt><trkpt lat="44.86909" lon="8.3448333"><ele>105.0</ele><time>2026-04-25T10:10:06.966Z</time></trkpt><trkpt lat="44.8689133" lon="8.3449217"><ele>106.0</ele><time>2026-04-25T10:10:07.966Z</time></trkpt><trkpt lat="44.86875" lon="8.3450183"><ele>106.0</ele><time>2026-04-25T10:10:08.967Z</time></trkpt><trkpt lat="44.8686133" lon="8.3451167"><ele>106.0</ele><time>2026-04-25T10:10:09.966Z</time></trkpt><trkpt lat="44.8684983" lon="8.3452217"><ele>106.0</ele><time>2026-04-25T10:10:10.966Z</time></trkpt><trkpt lat="44.8683917" lon="8.3453217"><ele>106.0</ele><time>2026-04-25T10:10:11.966Z</time></trkpt><trkpt lat="44.8682933" lon="8.3454067"><ele>105.6</ele><time>2026-04-25T10:10:12.967Z</time></trkpt><trkpt lat="44.86821" lon="8.3454867"><ele>105.19999999999999</ele><time>2026-04-25T10:10:13.967Z</time></trkpt><trkpt lat="44.868135" lon="8.3455467"><ele>104.80000000000001</ele><time>2026-04-25T10:10:14.966Z</time></trkpt><trkpt lat="44.8680483" lon="8.3456067"><ele>104.4</ele><time>2026-04-25T10:10:16.966Z</time></trkpt><trkpt lat="44.8679917" lon="8.3456833"><ele>104.0</ele><time>2026-04-25T10:10:28.967Z</time></trkpt><trkpt lat="44.8678833" lon="8.34575"><ele>104.0</ele><time>2026-04-25T10:10:30.967Z</time></trkpt><trkpt lat="44.8678017" lon="8.3457567"><ele>104.0</ele><time>2026-04-25T10:10:31.966Z</time></trkpt><trkpt lat="44.86772" lon="8.345755"><ele>104.0</ele><time>2026-04-25T10:10:32.966Z</time></trkpt><trkpt lat="44.8676217" lon="8.3457067"><ele>104.0</ele><time>2026-04-25T10:10:33.966Z</time></trkpt><trkpt lat="44.8675283" lon="8.34564"><ele>104.0</ele><time>2026-04-25T10:10:34.966Z</time></trkpt><trkpt lat="44.867455" lon="8.3455367"><ele>103.80000000000001</ele><time>2026-04-25T10:10:35.967Z</time></trkpt><trkpt lat="44.867395" lon="8.3454117"><ele>103.60000000000001</ele><time>2026-04-25T10:10:36.967Z</time></trkpt><trkpt lat="44.8673483" lon="8.3452933"><ele>103.4</ele><time>2026-04-25T10:10:37.966Z</time></trkpt><trkpt lat="44.8673133" lon="8.34518"><ele>103.2</ele><time>2026-04-25T10:10:38.966Z</time></trkpt><trkpt lat="44.867305" lon="8.3450783"><ele>103.0</ele><time>2026-04-25T10:10:39.966Z</time></trkpt><trkpt lat="44.8672883" lon="8.3449517"><ele>103.0</ele><time>2026-04-25T10:10:41.967Z</time></trkpt><trkpt lat="44.8671883" lon="8.34485"><ele>103.0</ele><time>2026-04-25T10:11:47.966Z</time></trkpt><trkpt lat="44.8671317" lon="8.34481"><ele>103.0</ele><time>2026-04-25T10:11:48.967Z</time></trkpt><trkpt lat="44.8670333" lon="8.3446933"><ele>103.0</ele><time>2026-04-25T10:11:50.966Z</time></trkpt><trkpt lat="44.8669883" lon="8.3446083"><ele>103.0</ele><time>2026-04-25T10:11:51.966Z</time></trkpt><trkpt lat="44.86695" lon="8.3445083"><ele>102.50000000000001</ele><time>2026-04-25T10:11:52.966Z</time></trkpt><trkpt lat="44.86692" lon="8.3443883"><ele>102.0</ele><time>2026-04-25T10:11:53.967Z</time></trkpt><trkpt lat="44.8669067" lon="8.3442717"><ele>101.5</ele><time>2026-04-25T10:11:54.966Z</time></trkpt><trkpt lat="44.8668983" lon="8.344155"><ele>101.0</ele><time>2026-04-25T10:11:55.966Z</time></trkpt><trkpt lat="44.866895" lon="8.3440533"><ele>100.50000000000001</ele><time>2026-04-25T10:11:56.967Z</time></trkpt><trkpt lat="44.866895" lon="8.3439483"><ele>100.0</ele><time>2026-04-25T10:11:57.966Z</time></trkpt><trkpt lat="44.866895" lon="8.3438467"><ele>100.00000000000001</ele><time>2026-04-25T10:11:58.967Z</time></trkpt><trkpt lat="44.8668983" lon="8.3437417"><ele>100.0</ele><time>2026-04-25T10:11:59.967Z</time></trkpt><trkpt lat="44.866895" lon="8.343635"><ele>100.0</ele><time>2026-04-25T10:12:00.966Z</time></trkpt><trkpt lat="44.8668983" lon="8.3435217"><ele>100.0</ele><time>2026-04-25T10:12:01.967Z</time></trkpt><trkpt lat="44.8669033" lon="8.34341"><ele>100.00000000000001</ele><time>2026-04-25T10:12:02.966Z</time></trkpt><trkpt lat="44.8669133" lon="8.3433067"><ele>100.0</ele><time>2026-04-25T10:12:03.966Z</time></trkpt><trkpt lat="44.8669233" lon="8.3432067"><ele>100.00000000000001</ele><time>2026-04-25T10:12:04.966Z</time></trkpt><trkpt lat="44.8669233" lon="8.3431083"><ele>100.0</ele><time>2026-04-25T10:12:05.967Z</time></trkpt><trkpt lat="44.8669117" lon="8.343005"><ele>100.0</ele><time>2026-04-25T10:12:06.966Z</time></trkpt><trkpt lat="44.8669033" lon="8.3428933"><ele>100.0</ele><time>2026-04-25T10:12:07.966Z</time></trkpt><trkpt lat="44.8669033" lon="8.3427667"><ele>100.00000000000001</ele><time>2026-04-25T10:12:08.966Z</time></trkpt><trkpt lat="44.8668983" lon="8.3426217"><ele>100.0</ele><time>2026-04-25T10:12:09.966Z</time></trkpt><trkpt lat="44.8669" lon="8.34248"><ele>100.8</ele><time>2026-04-25T10:12:10.966Z</time></trkpt><trkpt lat="44.8668917" lon="8.34233"><ele>101.6</ele><time>2026-04-25T10:12:11.966Z</time></trkpt><trkpt lat="44.8668733" lon="8.3421683"><ele>102.4</ele><time>2026-04-25T10:12:12.967Z</time></trkpt><trkpt lat="44.8668567" lon="8.3420117"><ele>103.2</ele><time>2026-04-25T10:12:13.966Z</time></trkpt><trkpt lat="44.8668383" lon="8.3418683"><ele>104.0</ele><time>2026-04-25T10:12:14.967Z</time></trkpt><trkpt lat="44.8668183" lon="8.3417283"><ele>104.0</ele><time>2026-04-25T10:12:15.967Z</time></trkpt><trkpt lat="44.8668017" lon="8.3415833"><ele>104.0</ele><time>2026-04-25T10:12:16.966Z</time></trkpt><trkpt lat="44.8667767" lon="8.3414383"><ele>104.0</ele><time>2026-04-25T10:12:17.966Z</time></trkpt><trkpt lat="44.8667083" lon="8.3412933"><ele>104.0</ele><time>2026-04-25T10:12:18.966Z</time></trkpt><trkpt lat="44.866595" lon="8.3411917"><ele>104.33333333333333</ele><time>2026-04-25T10:12:19.966Z</time></trkpt><trkpt lat="44.8664667" lon="8.34111"><ele>104.66666666666666</ele><time>2026-04-25T10:12:20.966Z</time></trkpt><trkpt lat="44.8663217" lon="8.34104"><ele>105.0</ele><time>2026-04-25T10:12:21.966Z</time></trkpt><trkpt lat="44.866165" lon="8.341005"><ele>105.0</ele><time>2026-04-25T10:12:22.967Z</time></trkpt><trkpt lat="44.8659933" lon="8.3409767"><ele>105.0</ele><time>2026-04-25T10:12:23.966Z</time></trkpt><trkpt lat="44.8658267" lon="8.3409767"><ele>105.0</ele><time>2026-04-25T10:12:24.966Z</time></trkpt><trkpt lat="44.865665" lon="8.3410017"><ele>104.66666666666666</ele><time>2026-04-25T10:12:25.966Z</time></trkpt><trkpt lat="44.865505" lon="8.3410617"><ele>104.33333333333333</ele><time>2026-04-25T10:12:26.966Z</time></trkpt><trkpt lat="44.8653533" lon="8.341145"><ele>104.0</ele><time>2026-04-25T10:12:27.966Z</time></trkpt><trkpt lat="44.8652167" lon="8.3412233"><ele>104.0</ele><time>2026-04-25T10:12:28.966Z</time></trkpt><trkpt lat="44.86508" lon="8.341315"><ele>104.0</ele><time>2026-04-25T10:12:29.966Z</time></trkpt><trkpt lat="44.8649433" lon="8.341395"><ele>104.0</ele><time>2026-04-25T10:12:30.967Z</time></trkpt><trkpt lat="44.8648117" lon="8.3414683"><ele>104.0</ele><time>2026-04-25T10:12:31.966Z</time></trkpt><trkpt lat="44.8646833" lon="8.3415383"><ele>104.0</ele><time>2026-04-25T10:12:32.966Z</time></trkpt><trkpt lat="44.864555" lon="8.3416117"><ele>104.0</ele><time>2026-04-25T10:12:33.966Z</time></trkpt><trkpt lat="44.8644433" lon="8.341675"><ele>104.0</ele><time>2026-04-25T10:12:34.966Z</time></trkpt><trkpt lat="44.8643483" lon="8.34173"><ele>104.0</ele><time>2026-04-25T10:12:35.967Z</time></trkpt><trkpt lat="44.8642533" lon="8.341785"><ele>104.33333333333333</ele><time>2026-04-25T10:12:36.966Z</time></trkpt><trkpt lat="44.8641683" lon="8.3418467"><ele>104.66666666666666</ele><time>2026-04-25T10:12:37.966Z</time></trkpt><trkpt lat="44.864095" lon="8.3418917"><ele>105.0</ele><time>2026-04-25T10:12:38.966Z</time></trkpt><trkpt lat="44.86403" lon="8.3419067"><ele>105.33333333333334</ele><time>2026-04-25T10:12:39.966Z</time></trkpt><trkpt lat="44.8639783" lon="8.3418367"><ele>105.66666666666667</ele><time>2026-04-25T10:12:41.966Z</time></trkpt><trkpt lat="44.8640283" lon="8.3416817"><ele>106.0</ele><time>2026-04-25T10:12:43.966Z</time></trkpt><trkpt lat="44.8640817" lon="8.3416033"><ele>106.0</ele><time>2026-04-25T10:12:44.966Z</time></trkpt><trkpt lat="44.8641617" lon="8.3415167"><ele>106.0</ele><time>2026-04-25T10:12:45.966Z</time></trkpt><trkpt lat="44.8642867" lon="8.3413917"><ele>106.0</ele><time>2026-04-25T10:12:46.967Z</time></trkpt><trkpt lat="44.8644233" lon="8.34125"><ele>106.0</ele><time>2026-04-25T10:12:47.967Z</time></trkpt><trkpt lat="44.8645733" lon="8.3411033"><ele>107.0</ele><time>2026-04-25T10:12:48.967Z</time></trkpt><trkpt lat="44.864725" lon="8.3409583"><ele>108.0</ele><time>2026-04-25T10:12:49.966Z</time></trkpt><trkpt lat="44.8648767" lon="8.3408117"><ele>109.0</ele><time>2026-04-25T10:12:50.966Z</time></trkpt><trkpt lat="44.8650333" lon="8.340685"><ele>108.66666666666667</ele><time>2026-04-25T10:12:51.966Z</time></trkpt><trkpt lat="44.8651883" lon="8.3405567"><ele>108.33333333333334</ele><time>2026-04-25T10:12:52.966Z</time></trkpt><trkpt lat="44.8653583" lon="8.3404583"><ele>108.0</ele><time>2026-04-25T10:12:53.967Z</time></trkpt><trkpt lat="44.8655267" lon="8.34036"><ele>108.0</ele><time>2026-04-25T10:12:54.966Z</time></trkpt><trkpt lat="44.8656867" lon="8.34025"><ele>108.0</ele><time>2026-04-25T10:12:55.966Z</time></trkpt><trkpt lat="44.8658417" lon="8.3401167"><ele>108.0</ele><time>2026-04-25T10:12:56.967Z</time></trkpt><trkpt lat="44.8659867" lon="8.3399633"><ele>108.33333333333334</ele><time>2026-04-25T10:12:57.966Z</time></trkpt><trkpt lat="44.8661167" lon="8.3397967"><ele>108.66666666666667</ele><time>2026-04-25T10:12:58.966Z</time></trkpt><trkpt lat="44.86624" lon="8.3396183"><ele>109.0</ele><time>2026-04-25T10:12:59.966Z</time></trkpt><trkpt lat="44.8663617" lon="8.3394367"><ele>109.0</ele><time>2026-04-25T10:13:00.966Z</time></trkpt><trkpt lat="44.8664917" lon="8.33926"><ele>109.0</ele><time>2026-04-25T10:13:01.966Z</time></trkpt><trkpt lat="44.8666233" lon="8.33908"><ele>109.0</ele><time>2026-04-25T10:13:02.966Z</time></trkpt><trkpt lat="44.866745" lon="8.33889"><ele>108.0</ele><time>2026-04-25T10:13:03.966Z</time></trkpt><trkpt lat="44.86684" lon="8.3386883"><ele>107.0</ele><time>2026-04-25T10:13:04.966Z</time></trkpt><trkpt lat="44.8669167" lon="8.3384583"><ele>106.0</ele><time>2026-04-25T10:13:05.967Z</time></trkpt><trkpt lat="44.86698" lon="8.3381917"><ele>106.33333333333334</ele><time>2026-04-25T10:13:06.966Z</time></trkpt><trkpt lat="44.86703" lon="8.3379283"><ele>106.66666666666666</ele><time>2026-04-25T10:13:07.967Z</time></trkpt><trkpt lat="44.8670933" lon="8.3376767"><ele>107.0</ele><time>2026-04-25T10:13:08.967Z</time></trkpt><trkpt lat="44.8671767" lon="8.33742"><ele>108.0</ele><time>2026-04-25T10:13:09.966Z</time></trkpt><trkpt lat="44.8672833" lon="8.3371833"><ele>109.0</ele><time>2026-04-25T10:13:10.966Z</time></trkpt><trkpt lat="44.8674083" lon="8.3369883"><ele>110.0</ele><time>2026-04-25T10:13:11.966Z</time></trkpt><trkpt lat="44.8675567" lon="8.3368183"><ele>109.66666666666666</ele><time>2026-04-25T10:13:12.967Z</time></trkpt><trkpt lat="44.867725" lon="8.3366817"><ele>109.33333333333334</ele><time>2026-04-25T10:13:13.967Z</time></trkpt><trkpt lat="44.86788" lon="8.3365383"><ele>109.0</ele><time>2026-04-25T10:13:14.966Z</time></trkpt><trkpt lat="44.8680133" lon="8.33635"><ele>109.0</ele><time>2026-04-25T10:13:15.967Z</time></trkpt><trkpt lat="44.868135" lon="8.33612"><ele>109.0</ele><time>2026-04-25T10:13:16.967Z</time></trkpt><trkpt lat="44.8682333" lon="8.3358833"><ele>109.0</ele><time>2026-04-25T10:13:17.967Z</time></trkpt><trkpt lat="44.8683317" lon="8.335635"><ele>109.33333333333334</ele><time>2026-04-25T10:13:18.966Z</time></trkpt><trkpt lat="44.86843" lon="8.3353767"><ele>109.66666666666666</ele><time>2026-04-25T10:13:19.967Z</time></trkpt><trkpt lat="44.86853" lon="8.3351267"><ele>110.0</ele><time>2026-04-25T10:13:20.966Z</time></trkpt><trkpt lat="44.8686283" lon="8.3348683"><ele>109.33333333333333</ele><time>2026-04-25T10:13:21.966Z</time></trkpt><trkpt lat="44.8687233" lon="8.3346083"><ele>108.66666666666666</ele><time>2026-04-25T10:13:22.966Z</time></trkpt><trkpt lat="44.86882" lon="8.3343733"><ele>108.0</ele><time>2026-04-25T10:13:23.966Z</time></trkpt><trkpt lat="44.868925" lon="8.3341333"><ele>108.0</ele><time>2026-04-25T10:13:24.967Z</time></trkpt><trkpt lat="44.8690533" lon="8.3338983"><ele>108.0</ele><time>2026-04-25T10:13:25.967Z</time></trkpt><trkpt lat="44.86917" lon="8.3336883"><ele>108.0</ele><time>2026-04-25T10:13:26.967Z</time></trkpt><trkpt lat="44.8692933" lon="8.3334933"><ele>108.33333333333334</ele><time>2026-04-25T10:13:27.967Z</time></trkpt><trkpt lat="44.8694383" lon="8.3333133"><ele>108.66666666666667</ele><time>2026-04-25T10:13:28.966Z</time></trkpt><trkpt lat="44.86961" lon="8.333155"><ele>109.0</ele><time>2026-04-25T10:13:29.966Z</time></trkpt><trkpt lat="44.86977" lon="8.3329917"><ele>108.66666666666667</ele><time>2026-04-25T10:13:30.966Z</time></trkpt><trkpt lat="44.8699217" lon="8.33281"><ele>108.33333333333334</ele><time>2026-04-25T10:13:31.966Z</time></trkpt><trkpt lat="44.87004" lon="8.33256"><ele>108.0</ele><time>2026-04-25T10:13:32.967Z</time></trkpt><trkpt lat="44.8701433" lon="8.33229"><ele>109.33333333333334</ele><time>2026-04-25T10:13:33.966Z</time></trkpt><trkpt lat="44.8702417" lon="8.3320167"><ele>110.66666666666667</ele><time>2026-04-25T10:13:34.966Z</time></trkpt><trkpt lat="44.8703183" lon="8.3317567"><ele>112.0</ele><time>2026-04-25T10:13:35.966Z</time></trkpt><trkpt lat="44.8704067" lon="8.3315083"><ele>112.33333333333334</ele><time>2026-04-25T10:13:36.967Z</time></trkpt><trkpt lat="44.8705017" lon="8.331275"><ele>112.66666666666666</ele><time>2026-04-25T10:13:37.966Z</time></trkpt><trkpt lat="44.8706183" lon="8.3310683"><ele>113.0</ele><time>2026-04-25T10:13:38.966Z</time></trkpt><trkpt lat="44.8707317" lon="8.3309133"><ele>113.0</ele><time>2026-04-25T10:13:39.966Z</time></trkpt><trkpt lat="44.8708617" lon="8.3308"><ele>113.0</ele><time>2026-04-25T10:13:40.966Z</time></trkpt><trkpt lat="44.8710017" lon="8.3307117"><ele>113.0</ele><time>2026-04-25T10:13:41.967Z</time></trkpt><trkpt lat="44.8711267" lon="8.3306317"><ele>113.0</ele><time>2026-04-25T10:13:42.967Z</time></trkpt><trkpt lat="44.8712433" lon="8.3305167"><ele>111.66666666666666</ele><time>2026-04-25T10:13:43.966Z</time></trkpt><trkpt lat="44.8713383" lon="8.3303517"><ele>110.33333333333334</ele><time>2026-04-25T10:13:44.966Z</time></trkpt><trkpt lat="44.8714183" lon="8.33015"><ele>109.0</ele><time>2026-04-25T10:13:45.967Z</time></trkpt><trkpt lat="44.8714983" lon="8.32993"><ele>109.66666666666667</ele><time>2026-04-25T10:13:46.967Z</time></trkpt><trkpt lat="44.8715917" lon="8.3296867"><ele>110.33333333333334</ele><time>2026-04-25T10:13:47.966Z</time></trkpt><trkpt lat="44.8716867" lon="8.329455"><ele>111.0</ele><time>2026-04-25T10:13:48.967Z</time></trkpt><trkpt lat="44.871785" lon="8.329225"><ele>111.33333333333334</ele><time>2026-04-25T10:13:49.966Z</time></trkpt><trkpt lat="44.87185" lon="8.329015"><ele>111.66666666666667</ele><time>2026-04-25T10:13:50.967Z</time></trkpt><trkpt lat="44.871895" lon="8.3287833"><ele>112.0</ele><time>2026-04-25T10:13:51.966Z</time></trkpt><trkpt lat="44.871915" lon="8.328555"><ele>113.33333333333334</ele><time>2026-04-25T10:13:52.966Z</time></trkpt><trkpt lat="44.8719417" lon="8.3283283"><ele>114.66666666666666</ele><time>2026-04-25T10:13:53.966Z</time></trkpt><trkpt lat="44.872" lon="8.328125"><ele>116.0</ele><time>2026-04-25T10:13:54.967Z</time></trkpt><trkpt lat="44.8720867" lon="8.3279317"><ele>116.25</ele><time>2026-04-25T10:13:55.967Z</time></trkpt><trkpt lat="44.8721733" lon="8.3277867"><ele>116.5</ele><time>2026-04-25T10:13:56.966Z</time></trkpt><trkpt lat="44.8722517" lon="8.327665"><ele>116.75</ele><time>2026-04-25T10:13:57.966Z</time></trkpt><trkpt lat="44.8723" lon="8.3275267"><ele>117.0</ele><time>2026-04-25T10:13:58.966Z</time></trkpt><trkpt lat="44.8723167" lon="8.3273967"><ele>117.0</ele><time>2026-04-25T10:13:59.966Z</time></trkpt><trkpt lat="44.8722783" lon="8.32725"><ele>117.0</ele><time>2026-04-25T10:14:00.967Z</time></trkpt><trkpt lat="44.8721783" lon="8.3271117"><ele>117.0</ele><time>2026-04-25T10:14:01.966Z</time></trkpt><trkpt lat="44.87205" lon="8.3269833"><ele>117.0</ele><time>2026-04-25T10:14:02.966Z</time></trkpt><trkpt lat="44.8719217" lon="8.3268533"><ele>116.0</ele><time>2026-04-25T10:14:03.967Z</time></trkpt><trkpt lat="44.8718183" lon="8.32667"><ele>115.0</ele><time>2026-04-25T10:14:04.966Z</time></trkpt><trkpt lat="44.8717317" lon="8.3264317"><ele>114.0</ele><time>2026-04-25T10:14:05.966Z</time></trkpt><trkpt lat="44.8716517" lon="8.3261467"><ele>118.5</ele><time>2026-04-25T10:14:06.967Z</time></trkpt><trkpt lat="44.8715667" lon="8.32584"><ele>123.0</ele><time>2026-04-25T10:14:07.966Z</time></trkpt><trkpt lat="44.8714983" lon="8.3255117"><ele>124.0</ele><time>2026-04-25T10:14:08.966Z</time></trkpt><trkpt lat="44.871405" lon="8.3252167"><ele>125.0</ele><time>2026-04-25T10:14:09.967Z</time></trkpt><trkpt lat="44.871335" lon="8.32495"><ele>126.0</ele><time>2026-04-25T10:14:10.967Z</time></trkpt><trkpt lat="44.8712833" lon="8.3246717"><ele>127.66666666666666</ele><time>2026-04-25T10:14:11.966Z</time></trkpt><trkpt lat="44.871245" lon="8.32438"><ele>129.33333333333331</ele><time>2026-04-25T10:14:12.966Z</time></trkpt><trkpt lat="44.8712183" lon="8.3241117"><ele>131.0</ele><time>2026-04-25T10:14:13.966Z</time></trkpt><trkpt lat="44.87118" lon="8.3238517"><ele>131.0</ele><time>2026-04-25T10:14:14.966Z</time></trkpt><trkpt lat="44.8711067" lon="8.3235817"><ele>131.0</ele><time>2026-04-25T10:14:15.967Z</time></trkpt><trkpt lat="44.8710033" lon="8.3233117"><ele>131.0</ele><time>2026-04-25T10:14:16.966Z</time></trkpt><trkpt lat="44.8708833" lon="8.323065"><ele>135.0</ele><time>2026-04-25T10:14:17.966Z</time></trkpt><trkpt lat="44.8707783" lon="8.3228583"><ele>139.0</ele><time>2026-04-25T10:14:18.965Z</time></trkpt><trkpt lat="44.8706717" lon="8.3227233"><ele>143.0</ele><time>2026-04-25T10:14:19.966Z</time></trkpt><trkpt lat="44.8705433" lon="8.3226817"><ele>143.0</ele><time>2026-04-25T10:14:20.966Z</time></trkpt><trkpt lat="44.8704" lon="8.3226983"><ele>143.0</ele><time>2026-04-25T10:14:21.965Z</time></trkpt><trkpt lat="44.870245" lon="8.3227633"><ele>143.0</ele><time>2026-04-25T10:14:22.965Z</time></trkpt><trkpt lat="44.8700833" lon="8.3228733"><ele>143.33333333333331</ele><time>2026-04-25T10:14:23.966Z</time></trkpt><trkpt lat="44.869905" lon="8.32303"><ele>143.66666666666666</ele><time>2026-04-25T10:14:24.965Z</time></trkpt><trkpt lat="44.8697217" lon="8.3231833"><ele>144.0</ele><time>2026-04-25T10:14:25.966Z</time></trkpt><trkpt lat="44.8695567" lon="8.323305"><ele>144.0</ele><time>2026-04-25T10:14:26.965Z</time></trkpt><trkpt lat="44.8694083" lon="8.3233933"><ele>144.0</ele><time>2026-04-25T10:14:27.965Z</time></trkpt><trkpt lat="44.8692733" lon="8.323405"><ele>144.0</ele><time>2026-04-25T10:14:28.965Z</time></trkpt><trkpt lat="44.8691333" lon="8.3233633"><ele>144.0</ele><time>2026-04-25T10:14:29.965Z</time></trkpt><trkpt lat="44.8689933" lon="8.32326"><ele>145.66666666666666</ele><time>2026-04-25T10:14:30.966Z</time></trkpt><trkpt lat="44.8688417" lon="8.3230917"><ele>147.33333333333331</ele><time>2026-04-25T10:14:31.966Z</time></trkpt><trkpt lat="44.8686733" lon="8.3228717"><ele>149.0</ele><time>2026-04-25T10:14:32.965Z</time></trkpt><trkpt lat="44.8685" lon="8.3226517"><ele>151.33333333333331</ele><time>2026-04-25T10:14:33.965Z</time></trkpt><trkpt lat="44.8683433" lon="8.3224517"><ele>153.66666666666666</ele><time>2026-04-25T10:14:34.966Z</time></trkpt><trkpt lat="44.8682083" lon="8.322275"><ele>156.0</ele><time>2026-04-25T10:14:35.966Z</time></trkpt><trkpt lat="44.868085" lon="8.3221283"><ele>156.25</ele><time>2026-04-25T10:14:36.966Z</time></trkpt><trkpt lat="44.8679683" lon="8.3220033"><ele>156.5</ele><time>2026-04-25T10:14:37.966Z</time></trkpt><trkpt lat="44.86785" lon="8.3219433"><ele>156.75</ele><time>2026-04-25T10:14:38.965Z</time></trkpt><trkpt lat="44.8677317" lon="8.321915"><ele>157.0</ele><time>2026-04-25T10:14:39.965Z</time></trkpt><trkpt lat="44.86759" lon="8.3219217"><ele>157.5</ele><time>2026-04-25T10:14:40.966Z</time></trkpt><trkpt lat="44.8674517" lon="8.3219267"><ele>158.0</ele><time>2026-04-25T10:14:41.966Z</time></trkpt><trkpt lat="44.8673" lon="8.3219167"><ele>158.5</ele><time>2026-04-25T10:14:42.966Z</time></trkpt><trkpt lat="44.8671517" lon="8.321895"><ele>159.0</ele><time>2026-04-25T10:14:43.965Z</time></trkpt><trkpt lat="44.86698" lon="8.3218733"><ele>159.0</ele><time>2026-04-25T10:14:44.965Z</time></trkpt><trkpt lat="44.8668083" lon="8.3218367"><ele>159.0</ele><time>2026-04-25T10:14:45.965Z</time></trkpt><trkpt lat="44.866645" lon="8.3217967"><ele>159.0</ele><time>2026-04-25T10:14:46.965Z</time></trkpt><trkpt lat="44.866475" lon="8.32173"><ele>158.33333333333334</ele><time>2026-04-25T10:14:47.966Z</time></trkpt><trkpt lat="44.86631" lon="8.321655"><ele>157.66666666666669</ele><time>2026-04-25T10:14:48.966Z</time></trkpt><trkpt lat="44.86614" lon="8.3215767"><ele>157.0</ele><time>2026-04-25T10:14:49.965Z</time></trkpt><trkpt lat="44.8659717" lon="8.3215267"><ele>158.0</ele><time>2026-04-25T10:14:50.965Z</time></trkpt><trkpt lat="44.8658083" lon="8.3214483"><ele>159.0</ele><time>2026-04-25T10:14:51.965Z</time></trkpt><trkpt lat="44.8656433" lon="8.3213633"><ele>160.0</ele><time>2026-04-25T10:14:52.965Z</time></trkpt><trkpt lat="44.8654833" lon="8.32127"><ele>160.0</ele><time>2026-04-25T10:14:53.965Z</time></trkpt><trkpt lat="44.8653217" lon="8.3211933"><ele>160.0</ele><time>2026-04-25T10:14:54.965Z</time></trkpt><trkpt lat="44.865155" lon="8.32112"><ele>160.0</ele><time>2026-04-25T10:14:55.965Z</time></trkpt><trkpt lat="44.8649983" lon="8.32107"><ele>161.25</ele><time>2026-04-25T10:14:56.965Z</time></trkpt><trkpt lat="44.864845" lon="8.3210583"><ele>162.5</ele><time>2026-04-25T10:14:57.965Z</time></trkpt><trkpt lat="44.864705" lon="8.3210717"><ele>163.75</ele><time>2026-04-25T10:14:58.966Z</time></trkpt><trkpt lat="44.8645717" lon="8.32109"><ele>165.0</ele><time>2026-04-25T10:14:59.966Z</time></trkpt><trkpt lat="44.864455" lon="8.3210883"><ele>165.0</ele><time>2026-04-25T10:15:00.965Z</time></trkpt><trkpt lat="44.864335" lon="8.3210267"><ele>165.0</ele><time>2026-04-25T10:15:01.965Z</time></trkpt><trkpt lat="44.8642283" lon="8.320915"><ele>165.0</ele><time>2026-04-25T10:15:02.965Z</time></trkpt><trkpt lat="44.8641333" lon="8.3207717"><ele>165.0</ele><time>2026-04-25T10:15:03.966Z</time></trkpt><trkpt lat="44.8640467" lon="8.3206"><ele>169.0</ele><time>2026-04-25T10:15:04.966Z</time></trkpt><trkpt lat="44.8639667" lon="8.3204267"><ele>173.0</ele><time>2026-04-25T10:15:05.965Z</time></trkpt><trkpt lat="44.863895" lon="8.3202783"><ele>177.0</ele><time>2026-04-25T10:15:06.965Z</time></trkpt><trkpt lat="44.8638067" lon="8.320155"><ele>181.0</ele><time>2026-04-25T10:15:07.965Z</time></trkpt><trkpt lat="44.8636833" lon="8.320085"><ele>181.0</ele><time>2026-04-25T10:15:08.966Z</time></trkpt><trkpt lat="44.8635383" lon="8.3200617"><ele>181.0</ele><time>2026-04-25T10:15:09.965Z</time></trkpt><trkpt lat="44.8633917" lon="8.3200733"><ele>181.0</ele><time>2026-04-25T10:15:10.965Z</time></trkpt><trkpt lat="44.8632683" lon="8.3200867"><ele>181.0</ele><time>2026-04-25T10:15:11.965Z</time></trkpt><trkpt lat="44.86316" lon="8.3200933"><ele>182.0</ele><time>2026-04-25T10:15:12.965Z</time></trkpt><trkpt lat="44.863075" lon="8.3200783"><ele>183.0</ele><time>2026-04-25T10:15:13.966Z</time></trkpt><trkpt lat="44.86302" lon="8.320025"><ele>184.0</ele><time>2026-04-25T10:15:14.965Z</time></trkpt><trkpt lat="44.8630433" lon="8.319915"><ele>185.0</ele><time>2026-04-25T10:15:15.965Z</time></trkpt><trkpt lat="44.863115" lon="8.3197167"><ele>186.0</ele><time>2026-04-25T10:15:16.965Z</time></trkpt><trkpt lat="44.86316" lon="8.3195383"><ele>187.33333333333334</ele><time>2026-04-25T10:15:17.966Z</time></trkpt><trkpt lat="44.8632167" lon="8.319325"><ele>188.66666666666669</ele><time>2026-04-25T10:15:18.966Z</time></trkpt><trkpt lat="44.8632717" lon="8.3190983"><ele>190.0</ele><time>2026-04-25T10:15:19.965Z</time></trkpt><trkpt lat="44.8633217" lon="8.3188717"><ele>191.5</ele><time>2026-04-25T10:15:20.965Z</time></trkpt><trkpt lat="44.8633467" lon="8.31867"><ele>193.0</ele><time>2026-04-25T10:15:21.965Z</time></trkpt><trkpt lat="44.8633433" lon="8.3184767"><ele>194.5</ele><time>2026-04-25T10:15:22.965Z</time></trkpt><trkpt lat="44.8632917" lon="8.31826"><ele>196.0</ele><time>2026-04-25T10:15:23.966Z</time></trkpt><trkpt lat="44.8632383" lon="8.3180617"><ele>196.66666666666666</ele><time>2026-04-25T10:15:24.965Z</time></trkpt><trkpt lat="44.8631517" lon="8.3178633"><ele>197.33333333333331</ele><time>2026-04-25T10:15:25.965Z</time></trkpt><trkpt lat="44.8630333" lon="8.31768"><ele>198.0</ele><time>2026-04-25T10:15:26.965Z</time></trkpt><trkpt lat="44.86289" lon="8.31749"><ele>198.0</ele><time>2026-04-25T10:15:27.965Z</time></trkpt><trkpt lat="44.86273" lon="8.3172967"><ele>198.0</ele><time>2026-04-25T10:15:28.965Z</time></trkpt><trkpt lat="44.8625683" lon="8.31711"><ele>198.0</ele><time>2026-04-25T10:15:29.965Z</time></trkpt><trkpt lat="44.862405" lon="8.3169267"><ele>199.33333333333331</ele><time>2026-04-25T10:15:30.966Z</time></trkpt><trkpt lat="44.8622617" lon="8.3167867"><ele>200.66666666666666</ele><time>2026-04-25T10:15:31.965Z</time></trkpt><trkpt lat="44.8621283" lon="8.31665"><ele>202.0</ele><time>2026-04-25T10:15:32.966Z</time></trkpt><trkpt lat="44.8619967" lon="8.31656"><ele>202.0</ele><time>2026-04-25T10:15:33.965Z</time></trkpt><trkpt lat="44.86184" lon="8.3165083"><ele>202.0</ele><time>2026-04-25T10:15:34.965Z</time></trkpt><trkpt lat="44.8616717" lon="8.3165183"><ele>202.0</ele><time>2026-04-25T10:15:35.965Z</time></trkpt><trkpt lat="44.86151" lon="8.3165467"><ele>202.33333333333331</ele><time>2026-04-25T10:15:36.965Z</time></trkpt><trkpt lat="44.8613283" lon="8.3166683"><ele>202.66666666666669</ele><time>2026-04-25T10:15:37.966Z</time></trkpt><trkpt lat="44.86114" lon="8.316795"><ele>203.0</ele><time>2026-04-25T10:15:38.965Z</time></trkpt><trkpt lat="44.8609367" lon="8.3169333"><ele>203.0</ele><time>2026-04-25T10:15:39.966Z</time></trkpt><trkpt lat="44.8607333" lon="8.3170967"><ele>203.0</ele><time>2026-04-25T10:15:40.966Z</time></trkpt><trkpt lat="44.8605367" lon="8.31725"><ele>204.33333333333334</ele><time>2026-04-25T10:15:41.965Z</time></trkpt><trkpt lat="44.8603567" lon="8.31738"><ele>205.66666666666669</ele><time>2026-04-25T10:15:42.965Z</time></trkpt><trkpt lat="44.86018" lon="8.3174983"><ele>207.0</ele><time>2026-04-25T10:15:43.965Z</time></trkpt><trkpt lat="44.8600017" lon="8.3175967"><ele>207.0</ele><time>2026-04-25T10:15:44.965Z</time></trkpt><trkpt lat="44.8598217" lon="8.3176733"><ele>207.0</ele><time>2026-04-25T10:15:45.965Z</time></trkpt><trkpt lat="44.859635" lon="8.3177417"><ele>207.0</ele><time>2026-04-25T10:15:46.965Z</time></trkpt><trkpt lat="44.8594317" lon="8.3178083"><ele>207.33333333333331</ele><time>2026-04-25T10:15:47.965Z</time></trkpt><trkpt lat="44.8592267" lon="8.317845"><ele>207.66666666666666</ele><time>2026-04-25T10:15:48.966Z</time></trkpt><trkpt lat="44.85903" lon="8.317865"><ele>208.0</ele><time>2026-04-25T10:15:49.965Z</time></trkpt><trkpt lat="44.858825" lon="8.3178683"><ele>208.0</ele><time>2026-04-25T10:15:50.965Z</time></trkpt><trkpt lat="44.8586483" lon="8.31788"><ele>208.0</ele><time>2026-04-25T10:15:51.965Z</time></trkpt><trkpt lat="44.8584483" lon="8.3178667"><ele>208.0</ele><time>2026-04-25T10:15:52.966Z</time></trkpt><trkpt lat="44.8582633" lon="8.3178517"><ele>210.0</ele><time>2026-04-25T10:15:53.965Z</time></trkpt><trkpt lat="44.85809" lon="8.3178567"><ele>212.0</ele><time>2026-04-25T10:15:54.965Z</time></trkpt><trkpt lat="44.8579083" lon="8.3178667"><ele>214.0</ele><time>2026-04-25T10:15:55.965Z</time></trkpt><trkpt lat="44.8577283" lon="8.3178917"><ele>214.33333333333331</ele><time>2026-04-25T10:15:56.965Z</time></trkpt><trkpt lat="44.85754" lon="8.3179167"><ele>214.66666666666669</ele><time>2026-04-25T10:15:57.965Z</time></trkpt><trkpt lat="44.8573617" lon="8.3179367"><ele>215.0</ele><time>2026-04-25T10:15:58.965Z</time></trkpt><trkpt lat="44.8572067" lon="8.3179917"><ele>215.0</ele><time>2026-04-25T10:15:59.966Z</time></trkpt><trkpt lat="44.85705" lon="8.31803"><ele>215.0</ele><time>2026-04-25T10:16:00.965Z</time></trkpt><trkpt lat="44.8568833" lon="8.3180567"><ele>215.0</ele><time>2026-04-25T10:16:01.965Z</time></trkpt><trkpt lat="44.8567067" lon="8.3180733"><ele>214.0</ele><time>2026-04-25T10:16:02.965Z</time></trkpt><trkpt lat="44.8565317" lon="8.3180717"><ele>213.0</ele><time>2026-04-25T10:16:03.965Z</time></trkpt><trkpt lat="44.8563583" lon="8.3180717"><ele>212.0</ele><time>2026-04-25T10:16:04.965Z</time></trkpt><trkpt lat="44.8561817" lon="8.3180767"><ele>211.66666666666669</ele><time>2026-04-25T10:16:05.966Z</time></trkpt><trkpt lat="44.856015" lon="8.3180667"><ele>211.33333333333331</ele><time>2026-04-25T10:16:06.966Z</time></trkpt><trkpt lat="44.855845" lon="8.3180417"><ele>211.0</ele><time>2026-04-25T10:16:07.966Z</time></trkpt><trkpt lat="44.8556783" lon="8.31801"><ele>213.33333333333331</ele><time>2026-04-25T10:16:08.965Z</time></trkpt><trkpt lat="44.8555133" lon="8.317955"><ele>215.66666666666669</ele><time>2026-04-25T10:16:09.966Z</time></trkpt><trkpt lat="44.855335" lon="8.3179033"><ele>218.0</ele><time>2026-04-25T10:16:10.966Z</time></trkpt><trkpt lat="44.855155" lon="8.3178367"><ele>219.0</ele><time>2026-04-25T10:16:11.965Z</time></trkpt><trkpt lat="44.85496" lon="8.3177617"><ele>220.0</ele><time>2026-04-25T10:16:12.965Z</time></trkpt><trkpt lat="44.8547567" lon="8.317685"><ele>221.0</ele><time>2026-04-25T10:16:13.966Z</time></trkpt><trkpt lat="44.8545483" lon="8.3175933"><ele>221.0</ele><time>2026-04-25T10:16:14.965Z</time></trkpt><trkpt lat="44.8543533" lon="8.3175033"><ele>221.0</ele><time>2026-04-25T10:16:15.965Z</time></trkpt><trkpt lat="44.8541633" lon="8.317435"><ele>221.0</ele><time>2026-04-25T10:16:16.966Z</time></trkpt><trkpt lat="44.853975" lon="8.3173733"><ele>220.33333333333334</ele><time>2026-04-25T10:16:17.965Z</time></trkpt><trkpt lat="44.8538017" lon="8.3172967"><ele>219.66666666666669</ele><time>2026-04-25T10:16:18.966Z</time></trkpt><trkpt lat="44.85363" lon="8.3172333"><ele>219.0</ele><time>2026-04-25T10:16:19.965Z</time></trkpt><trkpt lat="44.8534883" lon="8.3172017"><ele>219.0</ele><time>2026-04-25T10:16:20.965Z</time></trkpt><trkpt lat="44.853335" lon="8.317185"><ele>219.0</ele><time>2026-04-25T10:16:21.965Z</time></trkpt><trkpt lat="44.8531883" lon="8.3171867"><ele>219.0</ele><time>2026-04-25T10:16:22.965Z</time></trkpt><trkpt lat="44.8530383" lon="8.3172467"><ele>219.33333333333331</ele><time>2026-04-25T10:16:23.965Z</time></trkpt><trkpt lat="44.852855" lon="8.317295"><ele>219.66666666666666</ele><time>2026-04-25T10:16:24.965Z</time></trkpt><trkpt lat="44.8526667" lon="8.3173383"><ele>220.0</ele><time>2026-04-25T10:16:25.965Z</time></trkpt><trkpt lat="44.852475" lon="8.3173917"><ele>220.0</ele><time>2026-04-25T10:16:26.965Z</time></trkpt><trkpt lat="44.8522833" lon="8.3174433"><ele>220.0</ele><time>2026-04-25T10:16:27.966Z</time></trkpt><trkpt lat="44.8520967" lon="8.31751"><ele>220.0</ele><time>2026-04-25T10:16:28.966Z</time></trkpt><trkpt lat="44.8519" lon="8.3175617"><ele>220.33333333333331</ele><time>2026-04-25T10:16:29.965Z</time></trkpt><trkpt lat="44.8517" lon="8.317625"><ele>220.66666666666669</ele><time>2026-04-25T10:16:30.965Z</time></trkpt><trkpt lat="44.8515" lon="8.3176783"><ele>221.0</ele><time>2026-04-25T10:16:31.966Z</time></trkpt><trkpt lat="44.8513" lon="8.317745"><ele>221.0</ele><time>2026-04-25T10:16:32.965Z</time></trkpt><trkpt lat="44.851105" lon="8.3178367"><ele>221.0</ele><time>2026-04-25T10:16:33.965Z</time></trkpt><trkpt lat="44.8509083" lon="8.31795"><ele>221.0</ele><time>2026-04-25T10:16:34.965Z</time></trkpt><trkpt lat="44.850725" lon="8.3180817"><ele>218.0</ele><time>2026-04-25T10:16:35.965Z</time></trkpt><trkpt lat="44.85055" lon="8.3182167"><ele>215.0</ele><time>2026-04-25T10:16:36.966Z</time></trkpt><trkpt lat="44.850375" lon="8.3183333"><ele>212.0</ele><time>2026-04-25T10:16:37.966Z</time></trkpt><trkpt lat="44.8501917" lon="8.31843"><ele>211.0</ele><time>2026-04-25T10:16:38.965Z</time></trkpt><trkpt lat="44.8499933" lon="8.3185167"><ele>210.0</ele><time>2026-04-25T10:16:39.966Z</time></trkpt><trkpt lat="44.849805" lon="8.31858"><ele>209.0</ele><time>2026-04-25T10:16:40.965Z</time></trkpt><trkpt lat="44.8496317" lon="8.31864"><ele>209.0</ele><time>2026-04-25T10:16:41.966Z</time></trkpt><trkpt lat="44.84946" lon="8.318725"><ele>209.0</ele><time>2026-04-25T10:16:42.965Z</time></trkpt><trkpt lat="44.84929" lon="8.3188067"><ele>209.0</ele><time>2026-04-25T10:16:43.966Z</time></trkpt><trkpt lat="44.8491333" lon="8.3188883"><ele>210.33333333333334</ele><time>2026-04-25T10:16:44.965Z</time></trkpt><trkpt lat="44.8489783" lon="8.3189417"><ele>211.66666666666669</ele><time>2026-04-25T10:16:45.965Z</time></trkpt><trkpt lat="44.8488283" lon="8.3189933"><ele>213.0</ele><time>2026-04-25T10:16:46.965Z</time></trkpt><trkpt lat="44.8486817" lon="8.31902"><ele>213.0</ele><time>2026-04-25T10:16:47.965Z</time></trkpt><trkpt lat="44.8485117" lon="8.319035"><ele>213.0</ele><time>2026-04-25T10:16:48.966Z</time></trkpt><trkpt lat="44.84834" lon="8.3190367"><ele>213.0</ele><time>2026-04-25T10:16:49.965Z</time></trkpt><trkpt lat="44.8481883" lon="8.31902"><ele>212.0</ele><time>2026-04-25T10:16:50.965Z</time></trkpt><trkpt lat="44.8480267" lon="8.318995"><ele>211.0</ele><time>2026-04-25T10:16:51.966Z</time></trkpt><trkpt lat="44.8478717" lon="8.3189533"><ele>210.0</ele><time>2026-04-25T10:16:52.966Z</time></trkpt><trkpt lat="44.847715" lon="8.31887"><ele>208.66666666666669</ele><time>2026-04-25T10:16:53.966Z</time></trkpt><trkpt lat="44.8475533" lon="8.3187683"><ele>207.33333333333334</ele><time>2026-04-25T10:16:54.965Z</time></trkpt><trkpt lat="44.847395" lon="8.3186517"><ele>206.0</ele><time>2026-04-25T10:16:55.965Z</time></trkpt><trkpt lat="44.8472467" lon="8.3185433"><ele>206.0</ele><time>2026-04-25T10:16:56.966Z</time></trkpt><trkpt lat="44.8471167" lon="8.3184183"><ele>206.0</ele><time>2026-04-25T10:16:57.965Z</time></trkpt><trkpt lat="44.8469933" lon="8.318255"><ele>206.0</ele><time>2026-04-25T10:16:58.966Z</time></trkpt><trkpt lat="44.8468733" lon="8.3180783"><ele>207.66666666666669</ele><time>2026-04-25T10:16:59.966Z</time></trkpt><trkpt lat="44.8467517" lon="8.3178933"><ele>209.33333333333331</ele><time>2026-04-25T10:17:00.966Z</time></trkpt><trkpt lat="44.8466167" lon="8.3177133"><ele>211.0</ele><time>2026-04-25T10:17:01.966Z</time></trkpt><trkpt lat="44.846475" lon="8.31755"><ele>211.0</ele><time>2026-04-25T10:17:02.965Z</time></trkpt><trkpt lat="44.8463367" lon="8.317385"><ele>211.0</ele><time>2026-04-25T10:17:03.966Z</time></trkpt><trkpt lat="44.8461917" lon="8.317255"><ele>211.0</ele><time>2026-04-25T10:17:04.965Z</time></trkpt><trkpt lat="44.8460583" lon="8.3171367"><ele>210.33333333333331</ele><time>2026-04-25T10:17:05.965Z</time></trkpt><trkpt lat="44.8459067" lon="8.317055"><ele>209.66666666666669</ele><time>2026-04-25T10:17:06.966Z</time></trkpt><trkpt lat="44.84575" lon="8.316975"><ele>209.0</ele><time>2026-04-25T10:17:07.965Z</time></trkpt><trkpt lat="44.84556" lon="8.3169167"><ele>209.0</ele><time>2026-04-25T10:17:08.966Z</time></trkpt><trkpt lat="44.8453833" lon="8.3168633"><ele>209.0</ele><time>2026-04-25T10:17:09.965Z</time></trkpt><trkpt lat="44.8452167" lon="8.3168317"><ele>209.0</ele><time>2026-04-25T10:17:10.965Z</time></trkpt><trkpt lat="44.8450683" lon="8.3168"><ele>210.5</ele><time>2026-04-25T10:17:11.965Z</time></trkpt><trkpt lat="44.8449383" lon="8.316775"><ele>212.0</ele><time>2026-04-25T10:17:12.965Z</time></trkpt><trkpt lat="44.844825" lon="8.3167333"><ele>213.5</ele><time>2026-04-25T10:17:13.965Z</time></trkpt><trkpt lat="44.8447183" lon="8.316695"><ele>215.0</ele><time>2026-04-25T10:17:14.966Z</time></trkpt><trkpt lat="44.8446117" lon="8.31663"><ele>215.0</ele><time>2026-04-25T10:17:15.965Z</time></trkpt><trkpt lat="44.8444967" lon="8.3165633"><ele>215.0</ele><time>2026-04-25T10:17:16.965Z</time></trkpt><trkpt lat="44.8443917" lon="8.3164467"><ele>215.0</ele><time>2026-04-25T10:17:17.966Z</time></trkpt><trkpt lat="44.844285" lon="8.3163517"><ele>215.0</ele><time>2026-04-25T10:17:18.966Z</time></trkpt><trkpt lat="44.8441783" lon="8.31625"><ele>215.25</ele><time>2026-04-25T10:17:19.965Z</time></trkpt><trkpt lat="44.8440667" lon="8.31617"><ele>215.5</ele><time>2026-04-25T10:17:20.965Z</time></trkpt><trkpt lat="44.843955" lon="8.3160733"><ele>215.75</ele><time>2026-04-25T10:17:21.965Z</time></trkpt><trkpt lat="44.8438467" lon="8.3159767"><ele>216.0</ele><time>2026-04-25T10:17:22.965Z</time></trkpt><trkpt lat="44.8437583" lon="8.3158467"><ele>216.0</ele><time>2026-04-25T10:17:23.965Z</time></trkpt><trkpt lat="44.8436667" lon="8.315735"><ele>216.0</ele><time>2026-04-25T10:17:24.965Z</time></trkpt><trkpt lat="44.8435717" lon="8.3156383"><ele>216.0</ele><time>2026-04-25T10:17:25.965Z</time></trkpt><trkpt lat="44.8434633" lon="8.3155617"><ele>216.0</ele><time>2026-04-25T10:17:26.965Z</time></trkpt><trkpt lat="44.8433467" lon="8.3154783"><ele>215.75</ele><time>2026-04-25T10:17:27.966Z</time></trkpt><trkpt lat="44.8432533" lon="8.3153367"><ele>215.5</ele><time>2026-04-25T10:17:28.965Z</time></trkpt><trkpt lat="44.8431433" lon="8.3152217"><ele>215.25</ele><time>2026-04-25T10:17:29.965Z</time></trkpt><trkpt lat="44.8430667" lon="8.31509"><ele>215.0</ele><time>2026-04-25T10:17:30.965Z</time></trkpt><trkpt lat="44.8430033" lon="8.3149633"><ele>215.0</ele><time>2026-04-25T10:17:31.965Z</time></trkpt><trkpt lat="44.8429517" lon="8.31484"><ele>215.0</ele><time>2026-04-25T10:17:32.965Z</time></trkpt><trkpt lat="44.8429" lon="8.3146967"><ele>215.0</ele><time>2026-04-25T10:17:33.965Z</time></trkpt><trkpt lat="44.8428533" lon="8.3145633"><ele>215.0</ele><time>2026-04-25T10:17:34.965Z</time></trkpt><trkpt lat="44.8428033" lon="8.3143967"><ele>215.0</ele><time>2026-04-25T10:17:35.965Z</time></trkpt><trkpt lat="44.84274" lon="8.3142167"><ele>215.75</ele><time>2026-04-25T10:17:36.965Z</time></trkpt><trkpt lat="44.8426533" lon="8.3140717"><ele>216.5</ele><time>2026-04-25T10:17:37.965Z</time></trkpt><trkpt lat="44.8425467" lon="8.313925"><ele>217.25</ele><time>2026-04-25T10:17:38.966Z</time></trkpt><trkpt lat="44.8424333" lon="8.3138233"><ele>218.0</ele><time>2026-04-25T10:17:39.965Z</time></trkpt><trkpt lat="44.8423233" lon="8.3137533"><ele>220.0</ele><time>2026-04-25T10:17:40.965Z</time></trkpt><trkpt lat="44.8422033" lon="8.3137"><ele>222.0</ele><time>2026-04-25T10:17:41.965Z</time></trkpt><trkpt lat="44.8420833" lon="8.3136333"><ele>224.0</ele><time>2026-04-25T10:17:42.966Z</time></trkpt><trkpt lat="44.84195" lon="8.3135733"><ele>226.0</ele><time>2026-04-25T10:17:43.966Z</time></trkpt><trkpt lat="44.8418133" lon="8.3134833"><ele>226.25</ele><time>2026-04-25T10:17:44.965Z</time></trkpt><trkpt lat="44.841685" lon="8.3133833"><ele>226.5</ele><time>2026-04-25T10:17:45.965Z</time></trkpt><trkpt lat="44.841555" lon="8.313315"><ele>226.75</ele><time>2026-04-25T10:17:46.965Z</time></trkpt><trkpt lat="44.84144" lon="8.3132233"><ele>227.0</ele><time>2026-04-25T10:17:47.966Z</time></trkpt><trkpt lat="44.841345" lon="8.31311"><ele>226.66666666666669</ele><time>2026-04-25T10:17:48.965Z</time></trkpt><trkpt lat="44.8412533" lon="8.3129567"><ele>226.33333333333331</ele><time>2026-04-25T10:17:49.965Z</time></trkpt><trkpt lat="44.8411483" lon="8.3127833"><ele>226.0</ele><time>2026-04-25T10:17:50.966Z</time></trkpt><trkpt lat="44.84102" lon="8.3126083"><ele>224.33333333333331</ele><time>2026-04-25T10:17:51.966Z</time></trkpt><trkpt lat="44.840905" lon="8.3124567"><ele>222.66666666666669</ele><time>2026-04-25T10:17:52.965Z</time></trkpt><trkpt lat="44.8407717" lon="8.31233"><ele>221.0</ele><time>2026-04-25T10:17:53.966Z</time></trkpt><trkpt lat="44.8406167" lon="8.3122533"><ele>220.5</ele><time>2026-04-25T10:17:54.965Z</time></trkpt><trkpt lat="44.8404683" lon="8.3122067"><ele>220.0</ele><time>2026-04-25T10:17:55.965Z</time></trkpt><trkpt lat="44.8403383" lon="8.3121717"><ele>219.5</ele><time>2026-04-25T10:17:56.965Z</time></trkpt><trkpt lat="44.8402117" lon="8.3120933"><ele>219.0</ele><time>2026-04-25T10:17:57.966Z</time></trkpt><trkpt lat="44.8400733" lon="8.312"><ele>219.0</ele><time>2026-04-25T10:17:58.966Z</time></trkpt><trkpt lat="44.8399217" lon="8.311885"><ele>219.0</ele><time>2026-04-25T10:17:59.965Z</time></trkpt><trkpt lat="44.8397617" lon="8.311775"><ele>219.0</ele><time>2026-04-25T10:18:00.965Z</time></trkpt><trkpt lat="44.8396" lon="8.3116917"><ele>219.0</ele><time>2026-04-25T10:18:01.966Z</time></trkpt><trkpt lat="44.8394417" lon="8.3116033"><ele>219.0</ele><time>2026-04-25T10:18:02.966Z</time></trkpt><trkpt lat="44.8392717" lon="8.3115017"><ele>219.0</ele><time>2026-04-25T10:18:03.966Z</time></trkpt><trkpt lat="44.8391033" lon="8.3113883"><ele>218.0</ele><time>2026-04-25T10:18:04.966Z</time></trkpt><trkpt lat="44.8389483" lon="8.3112583"><ele>217.0</ele><time>2026-04-25T10:18:05.965Z</time></trkpt><trkpt lat="44.8387882" lon="8.3111417"><ele>216.0</ele><time>2026-04-25T10:18:06.966Z</time></trkpt><trkpt lat="44.8386357" lon="8.3110334"><ele>216.0</ele><time>2026-04-25T10:18:07.966Z</time></trkpt><trkpt lat="44.8384949" lon="8.3109225"><ele>216.0</ele><time>2026-04-25T10:18:08.966Z</time></trkpt><trkpt lat="44.8383725" lon="8.3108143"><ele>216.0</ele><time>2026-04-25T10:18:09.965Z</time></trkpt><trkpt lat="44.8382713" lon="8.3106847"><ele>216.0</ele><time>2026-04-25T10:18:10.965Z</time></trkpt><trkpt lat="44.8381809" lon="8.3105168"><ele>217.66666666666669</ele><time>2026-04-25T10:18:11.965Z</time></trkpt><trkpt lat="44.838098" lon="8.3103167"><ele>219.33333333333334</ele><time>2026-04-25T10:18:12.966Z</time></trkpt><trkpt lat="44.8380211" lon="8.3100946"><ele>221.0</ele><time>2026-04-25T10:18:13.965Z</time></trkpt><trkpt lat="44.8379584" lon="8.3098668"><ele>221.0</ele><time>2026-04-25T10:18:14.966Z</time></trkpt><trkpt lat="44.8379157" lon="8.3096233"><ele>221.0</ele><time>2026-04-25T10:18:15.965Z</time></trkpt><trkpt lat="44.8378898" lon="8.3093777"><ele>221.0</ele><time>2026-04-25T10:18:16.966Z</time></trkpt><trkpt lat="44.8378776" lon="8.3091446"><ele>221.0</ele><time>2026-04-25T10:18:17.966Z</time></trkpt><trkpt lat="44.8378747" lon="8.3089557"><ele>221.00000000000003</ele><time>2026-04-25T10:18:18.966Z</time></trkpt><trkpt lat="44.8378805" lon="8.3087976"><ele>221.00000000000003</ele><time>2026-04-25T10:18:19.965Z</time></trkpt><trkpt lat="44.8378658" lon="8.3086707"><ele>221.0</ele><time>2026-04-25T10:18:20.965Z</time></trkpt><trkpt lat="44.8378232" lon="8.3085721"><ele>221.0</ele><time>2026-04-25T10:18:21.965Z</time></trkpt><trkpt lat="44.8377436" lon="8.3084927"><ele>221.0</ele><time>2026-04-25T10:18:22.966Z</time></trkpt><trkpt lat="44.8376403" lon="8.3084615"><ele>221.0</ele><time>2026-04-25T10:18:23.966Z</time></trkpt><trkpt lat="44.8375131" lon="8.3084537"><ele>221.0</ele><time>2026-04-25T10:18:24.966Z</time></trkpt><trkpt lat="44.8373652" lon="8.30847"><ele>221.0</ele><time>2026-04-25T10:18:25.965Z</time></trkpt><trkpt lat="44.8372133" lon="8.3084813"><ele>223.33333333333334</ele><time>2026-04-25T10:18:26.965Z</time></trkpt><trkpt lat="44.8370658" lon="8.3084817"><ele>225.66666666666669</ele><time>2026-04-25T10:18:27.965Z</time></trkpt><trkpt lat="44.8369129" lon="8.3084818"><ele>228.0</ele><time>2026-04-25T10:18:28.965Z</time></trkpt><trkpt lat="44.8367564" lon="8.3084898"><ele>229.66666666666669</ele><time>2026-04-25T10:18:29.966Z</time></trkpt><trkpt lat="44.8365949" lon="8.3085149"><ele>231.33333333333334</ele><time>2026-04-25T10:18:30.966Z</time></trkpt><trkpt lat="44.8364326" lon="8.3085369"><ele>233.0</ele><time>2026-04-25T10:18:31.965Z</time></trkpt><trkpt lat="44.8362678" lon="8.3085522"><ele>233.0</ele><time>2026-04-25T10:18:32.965Z</time></trkpt><trkpt lat="44.8361103" lon="8.3085365"><ele>233.0</ele><time>2026-04-25T10:18:33.965Z</time></trkpt><trkpt lat="44.8359699" lon="8.3084921"><ele>233.0</ele><time>2026-04-25T10:18:34.965Z</time></trkpt><trkpt lat="44.8358259" lon="8.3084315"><ele>234.25</ele><time>2026-04-25T10:18:35.965Z</time></trkpt><trkpt lat="44.8356868" lon="8.3083834"><ele>235.5</ele><time>2026-04-25T10:18:36.965Z</time></trkpt><trkpt lat="44.8355606" lon="8.3083383"><ele>236.75</ele><time>2026-04-25T10:18:37.965Z</time></trkpt><trkpt lat="44.8354546" lon="8.3082994"><ele>238.0</ele><time>2026-04-25T10:18:38.966Z</time></trkpt><trkpt lat="44.8353679" lon="8.308263"><ele>238.0</ele><time>2026-04-25T10:18:39.965Z</time></trkpt><trkpt lat="44.8352924" lon="8.3082275"><ele>238.0</ele><time>2026-04-25T10:18:40.966Z</time></trkpt><trkpt lat="44.8352186" lon="8.3081881"><ele>238.0</ele><time>2026-04-25T10:18:41.965Z</time></trkpt><trkpt lat="44.8351407" lon="8.3081196"><ele>238.0</ele><time>2026-04-25T10:18:42.965Z</time></trkpt><trkpt lat="44.8350536" lon="8.308035"><ele>238.0</ele><time>2026-04-25T10:18:43.965Z</time></trkpt><trkpt lat="44.834939" lon="8.3079378"><ele>235.25</ele><time>2026-04-25T10:18:44.965Z</time></trkpt><trkpt lat="44.8348099" lon="8.3078338"><ele>232.5</ele><time>2026-04-25T10:18:45.966Z</time></trkpt><trkpt lat="44.8346792" lon="8.3077317"><ele>229.75</ele><time>2026-04-25T10:18:46.966Z</time></trkpt><trkpt lat="44.8345419" lon="8.3076427"><ele>227.0</ele><time>2026-04-25T10:18:47.965Z</time></trkpt><trkpt lat="44.8343985" lon="8.3075565"><ele>230.33333333333334</ele><time>2026-04-25T10:18:48.965Z</time></trkpt><trkpt lat="44.8342611" lon="8.3074437"><ele>233.66666666666669</ele><time>2026-04-25T10:18:49.966Z</time></trkpt><trkpt lat="44.8341412" lon="8.307287"><ele>237.0</ele><time>2026-04-25T10:18:50.966Z</time></trkpt><trkpt lat="44.834054" lon="8.3071237"><ele>237.0</ele><time>2026-04-25T10:18:51.965Z</time></trkpt><trkpt lat="44.8339775" lon="8.306971"><ele>237.0</ele><time>2026-04-25T10:18:52.965Z</time></trkpt><trkpt lat="44.8339032" lon="8.3068255"><ele>237.0</ele><time>2026-04-25T10:18:53.965Z</time></trkpt><trkpt lat="44.8338349" lon="8.306691"><ele>237.0</ele><time>2026-04-25T10:18:54.965Z</time></trkpt><trkpt lat="44.8337703" lon="8.3065593"><ele>237.0</ele><time>2026-04-25T10:18:55.965Z</time></trkpt><trkpt lat="44.8337123" lon="8.306434"><ele>237.0</ele><time>2026-04-25T10:18:56.965Z</time></trkpt><trkpt lat="44.8336612" lon="8.3063097"><ele>237.0</ele><time>2026-04-25T10:18:57.965Z</time></trkpt><trkpt lat="44.8336214" lon="8.3061783"><ele>237.0</ele><time>2026-04-25T10:18:58.965Z</time></trkpt><trkpt lat="44.8335904" lon="8.3060368"><ele>237.0</ele><time>2026-04-25T10:18:59.966Z</time></trkpt><trkpt lat="44.8335549" lon="8.3058894"><ele>237.33333333333334</ele><time>2026-04-25T10:19:00.965Z</time></trkpt><trkpt lat="44.83352" lon="8.3057669"><ele>237.66666666666669</ele><time>2026-04-25T10:19:01.965Z</time></trkpt><trkpt lat="44.8334789" lon="8.3056482"><ele>238.0</ele><time>2026-04-25T10:19:02.966Z</time></trkpt><trkpt lat="44.8334429" lon="8.3055416"><ele>238.33333333333334</ele><time>2026-04-25T10:19:03.966Z</time></trkpt><trkpt lat="44.8334025" lon="8.305429"><ele>238.66666666666669</ele><time>2026-04-25T10:19:04.965Z</time></trkpt><trkpt lat="44.8333594" lon="8.3053228"><ele>239.0</ele><time>2026-04-25T10:19:05.965Z</time></trkpt><trkpt lat="44.8333192" lon="8.305228"><ele>239.0</ele><time>2026-04-25T10:19:06.966Z</time></trkpt><trkpt lat="44.8332506" lon="8.3051612"><ele>238.99999999999997</ele><time>2026-04-25T10:19:07.964Z</time></trkpt><trkpt lat="44.8331668" lon="8.3050981"><ele>238.99999999999997</ele><time>2026-04-25T10:19:08.964Z</time></trkpt><trkpt lat="44.8330744" lon="8.3050494"><ele>239.0</ele><time>2026-04-25T10:19:09.965Z</time></trkpt><trkpt lat="44.8329837" lon="8.3050205"><ele>239.0</ele><time>2026-04-25T10:19:10.964Z</time></trkpt><trkpt lat="44.8328948" lon="8.3050023"><ele>239.00000000000003</ele><time>2026-04-25T10:19:11.964Z</time></trkpt><trkpt lat="44.8328069" lon="8.3049822"><ele>239.0</ele><time>2026-04-25T10:19:12.964Z</time></trkpt><trkpt lat="44.8327183" lon="8.304945"><ele>239.0</ele><time>2026-04-25T10:19:13.964Z</time></trkpt><trkpt lat="44.832635" lon="8.3048933"><ele>239.0</ele><time>2026-04-25T10:19:14.964Z</time></trkpt><trkpt lat="44.8325633" lon="8.3048217"><ele>239.00000000000003</ele><time>2026-04-25T10:19:15.965Z</time></trkpt><trkpt lat="44.8325117" lon="8.304745"><ele>239.0</ele><time>2026-04-25T10:19:16.964Z</time></trkpt><trkpt lat="44.8324817" lon="8.3046583"><ele>239.79999999999998</ele><time>2026-04-25T10:19:17.965Z</time></trkpt><trkpt lat="44.8324467" lon="8.3044933"><ele>240.59999999999997</ele><time>2026-04-25T10:19:19.964Z</time></trkpt><trkpt lat="44.8323633" lon="8.3043483"><ele>241.4</ele><time>2026-04-25T10:19:21.964Z</time></trkpt><trkpt lat="44.8322967" lon="8.30429"><ele>242.2</ele><time>2026-04-25T10:19:22.965Z</time></trkpt><trkpt lat="44.8322133" lon="8.30425"><ele>243.0</ele><time>2026-04-25T10:19:23.964Z</time></trkpt><trkpt lat="44.8321183" lon="8.30423"><ele>243.0</ele><time>2026-04-25T10:19:24.965Z</time></trkpt><trkpt lat="44.83202" lon="8.304235"><ele>243.0</ele><time>2026-04-25T10:19:25.964Z</time></trkpt><trkpt lat="44.831915" lon="8.3042717"><ele>243.0</ele><time>2026-04-25T10:19:26.965Z</time></trkpt><trkpt lat="44.83181" lon="8.3042967"><ele>243.0</ele><time>2026-04-25T10:19:27.965Z</time></trkpt><trkpt lat="44.8317017" lon="8.30434"><ele>243.0</ele><time>2026-04-25T10:19:28.964Z</time></trkpt><trkpt lat="44.8316033" lon="8.3043933"><ele>242.0</ele><time>2026-04-25T10:19:29.964Z</time></trkpt><trkpt lat="44.8315183" lon="8.30448"><ele>241.0</ele><time>2026-04-25T10:19:30.964Z</time></trkpt><trkpt lat="44.8314367" lon="8.30457"><ele>240.0</ele><time>2026-04-25T10:19:31.964Z</time></trkpt><trkpt lat="44.831365" lon="8.3046717"><ele>239.0</ele><time>2026-04-25T10:19:32.965Z</time></trkpt><trkpt lat="44.8313033" lon="8.3047683"><ele>238.0</ele><time>2026-04-25T10:19:33.964Z</time></trkpt><trkpt lat="44.8312533" lon="8.3048667"><ele>236.16666666666666</ele><time>2026-04-25T10:19:34.964Z</time></trkpt><trkpt lat="44.8311983" lon="8.3049567"><ele>234.33333333333331</ele><time>2026-04-25T10:19:35.964Z</time></trkpt><trkpt lat="44.83115" lon="8.30505"><ele>232.5</ele><time>2026-04-25T10:19:36.964Z</time></trkpt><trkpt lat="44.8310983" lon="8.30514"><ele>230.66666666666669</ele><time>2026-04-25T10:19:37.965Z</time></trkpt><trkpt lat="44.8310517" lon="8.3052183"><ele>228.83333333333334</ele><time>2026-04-25T10:19:38.964Z</time></trkpt><trkpt lat="44.8309983" lon="8.3053033"><ele>227.0</ele><time>2026-04-25T10:19:39.964Z</time></trkpt><trkpt lat="44.8309283" lon="8.3053633"><ele>227.0</ele><time>2026-04-25T10:19:40.964Z</time></trkpt><trkpt lat="44.830845" lon="8.305415"><ele>227.0</ele><time>2026-04-25T10:19:41.965Z</time></trkpt><trkpt lat="44.830765" lon="8.3054383"><ele>227.0</ele><time>2026-04-25T10:19:42.964Z</time></trkpt><trkpt lat="44.8306767" lon="8.305445"><ele>227.0</ele><time>2026-04-25T10:19:43.965Z</time></trkpt><trkpt lat="44.8305833" lon="8.3054333"><ele>227.0</ele><time>2026-04-25T10:19:44.964Z</time></trkpt><trkpt lat="44.830485" lon="8.3054267"><ele>227.0</ele><time>2026-04-25T10:19:45.964Z</time></trkpt><trkpt lat="44.8303683" lon="8.305415"><ele>227.0</ele><time>2026-04-25T10:19:46.964Z</time></trkpt><trkpt lat="44.830275" lon="8.3054667"><ele>227.0</ele><time>2026-04-25T10:19:47.964Z</time></trkpt><trkpt lat="44.830165" lon="8.30552"><ele>227.0</ele><time>2026-04-25T10:19:48.964Z</time></trkpt><trkpt lat="44.8300683" lon="8.3055717"><ele>227.0</ele><time>2026-04-25T10:19:49.965Z</time></trkpt><trkpt lat="44.82998" lon="8.3056317"><ele>224.33333333333334</ele><time>2026-04-25T10:19:50.965Z</time></trkpt><trkpt lat="44.8299" lon="8.3056833"><ele>221.66666666666669</ele><time>2026-04-25T10:19:51.964Z</time></trkpt><trkpt lat="44.829815" lon="8.3057133"><ele>219.0</ele><time>2026-04-25T10:19:52.964Z</time></trkpt><trkpt lat="44.829735" lon="8.30573"><ele>216.33333333333331</ele><time>2026-04-25T10:19:53.965Z</time></trkpt><trkpt lat="44.8296567" lon="8.3057283"><ele>213.66666666666666</ele><time>2026-04-25T10:19:54.965Z</time></trkpt><trkpt lat="44.82959" lon="8.305725"><ele>211.0</ele><time>2026-04-25T10:19:55.965Z</time></trkpt><trkpt lat="44.8294883" lon="8.305765"><ele>211.0</ele><time>2026-04-25T10:19:57.964Z</time></trkpt><trkpt lat="44.8294333" lon="8.3058133"><ele>211.0</ele><time>2026-04-25T10:19:58.965Z</time></trkpt><trkpt lat="44.8293667" lon="8.3058717"><ele>211.0</ele><time>2026-04-25T10:19:59.965Z</time></trkpt><trkpt lat="44.8293" lon="8.3059817"><ele>211.0</ele><time>2026-04-25T10:20:00.965Z</time></trkpt><trkpt lat="44.8292367" lon="8.306215"><ele>211.0</ele><time>2026-04-25T10:20:01.965Z</time></trkpt><trkpt lat="44.82915" lon="8.3064117"><ele>209.66666666666666</ele><time>2026-04-25T10:20:02.964Z</time></trkpt><trkpt lat="44.8290383" lon="8.3066017"><ele>208.33333333333331</ele><time>2026-04-25T10:20:03.965Z</time></trkpt><trkpt lat="44.82893" lon="8.30678"><ele>207.0</ele><time>2026-04-25T10:20:04.965Z</time></trkpt><trkpt lat="44.8288283" lon="8.3069383"><ele>207.0</ele><time>2026-04-25T10:20:05.964Z</time></trkpt><trkpt lat="44.8287733" lon="8.3070683"><ele>207.0</ele><time>2026-04-25T10:20:06.964Z</time></trkpt><trkpt lat="44.8287783" lon="8.3071883"><ele>207.0</ele><time>2026-04-25T10:20:07.964Z</time></trkpt><trkpt lat="44.8288133" lon="8.3073183"><ele>207.0</ele><time>2026-04-25T10:20:08.964Z</time></trkpt><trkpt lat="44.828865" lon="8.3074567"><ele>207.0</ele><time>2026-04-25T10:20:09.965Z</time></trkpt><trkpt lat="44.8289017" lon="8.3075817"><ele>207.0</ele><time>2026-04-25T10:20:10.964Z</time></trkpt><trkpt lat="44.8288667" lon="8.30766"><ele>207.0</ele><time>2026-04-25T10:20:11.964Z</time></trkpt><trkpt lat="44.828805" lon="8.30768"><ele>207.0</ele><time>2026-04-25T10:20:12.964Z</time></trkpt><trkpt lat="44.8287367" lon="8.30762"><ele>207.0</ele><time>2026-04-25T10:20:13.965Z</time></trkpt><trkpt lat="44.8286817" lon="8.3075067"><ele>207.0</ele><time>2026-04-25T10:20:14.965Z</time></trkpt><trkpt lat="44.8286417" lon="8.3073417"><ele>207.0</ele><time>2026-04-25T10:20:15.965Z</time></trkpt><trkpt lat="44.8286267" lon="8.3071633"><ele>207.0</ele><time>2026-04-25T10:20:16.964Z</time></trkpt><trkpt lat="44.8286383" lon="8.3069983"><ele>207.0</ele><time>2026-04-25T10:20:17.964Z</time></trkpt><trkpt lat="44.828675" lon="8.3068167"><ele>207.0</ele><time>2026-04-25T10:20:18.964Z</time></trkpt><trkpt lat="44.8287517" lon="8.30664"><ele>207.0</ele><time>2026-04-25T10:20:19.965Z</time></trkpt><trkpt lat="44.828835" lon="8.3064533"><ele>204.75</ele><time>2026-04-25T10:20:20.964Z</time></trkpt><trkpt lat="44.82889" lon="8.3062767"><ele>202.5</ele><time>2026-04-25T10:20:21.965Z</time></trkpt><trkpt lat="44.8288933" lon="8.3060783"><ele>200.25</ele><time>2026-04-25T10:20:22.964Z</time></trkpt><trkpt lat="44.8288367" lon="8.3059"><ele>198.0</ele><time>2026-04-25T10:20:23.965Z</time></trkpt><trkpt lat="44.8287367" lon="8.3057533"><ele>198.0</ele><time>2026-04-25T10:20:24.964Z</time></trkpt><trkpt lat="44.8285967" lon="8.3056367"><ele>198.0</ele><time>2026-04-25T10:20:25.964Z</time></trkpt><trkpt lat="44.8284417" lon="8.3055383"><ele>198.0</ele><time>2026-04-25T10:20:26.965Z</time></trkpt><trkpt lat="44.8282783" lon="8.30544"><ele>193.0</ele><time>2026-04-25T10:20:27.964Z</time></trkpt><trkpt lat="44.8281167" lon="8.3053633"><ele>188.0</ele><time>2026-04-25T10:20:28.965Z</time></trkpt><trkpt lat="44.8279783" lon="8.305265"><ele>183.0</ele><time>2026-04-25T10:20:29.964Z</time></trkpt><trkpt lat="44.8278667" lon="8.3051333"><ele>183.0</ele><time>2026-04-25T10:20:30.964Z</time></trkpt><trkpt lat="44.82777" lon="8.304965"><ele>183.0</ele><time>2026-04-25T10:20:31.965Z</time></trkpt><trkpt lat="44.8277" lon="8.304765"><ele>183.0</ele><time>2026-04-25T10:20:32.964Z</time></trkpt><trkpt lat="44.8276667" lon="8.3045717"><ele>183.5</ele><time>2026-04-25T10:20:33.964Z</time></trkpt><trkpt lat="44.8276883" lon="8.3043767"><ele>184.0</ele><time>2026-04-25T10:20:34.964Z</time></trkpt><trkpt lat="44.8277217" lon="8.3041883"><ele>184.5</ele><time>2026-04-25T10:20:35.965Z</time></trkpt><trkpt lat="44.8277217" lon="8.3040133"><ele>185.0</ele><time>2026-04-25T10:20:36.964Z</time></trkpt><trkpt lat="44.8276833" lon="8.3038383"><ele>179.25</ele><time>2026-04-25T10:20:37.965Z</time></trkpt><trkpt lat="44.827605" lon="8.3036817"><ele>173.5</ele><time>2026-04-25T10:20:38.964Z</time></trkpt><trkpt lat="44.8275067" lon="8.30354"><ele>167.75</ele><time>2026-04-25T10:20:39.964Z</time></trkpt><trkpt lat="44.82742" lon="8.3034083"><ele>162.0</ele><time>2026-04-25T10:20:40.964Z</time></trkpt><trkpt lat="44.8273533" lon="8.303265"><ele>162.0</ele><time>2026-04-25T10:20:41.964Z</time></trkpt><trkpt lat="44.8273233" lon="8.303115"><ele>162.0</ele><time>2026-04-25T10:20:42.965Z</time></trkpt><trkpt lat="44.8273167" lon="8.3029667"><ele>162.0</ele><time>2026-04-25T10:20:43.965Z</time></trkpt><trkpt lat="44.8273" lon="8.3028117"><ele>162.0</ele><time>2026-04-25T10:20:44.964Z</time></trkpt><trkpt lat="44.8272617" lon="8.3026483"><ele>162.0</ele><time>2026-04-25T10:20:45.964Z</time></trkpt><trkpt lat="44.8272033" lon="8.3025"><ele>160.25</ele><time>2026-04-25T10:20:46.964Z</time></trkpt><trkpt lat="44.8271217" lon="8.3023633"><ele>158.5</ele><time>2026-04-25T10:20:47.964Z</time></trkpt><trkpt lat="44.8270317" lon="8.30222"><ele>156.75</ele><time>2026-04-25T10:20:48.964Z</time></trkpt><trkpt lat="44.8269417" lon="8.3020733"><ele>155.0</ele><time>2026-04-25T10:20:49.965Z</time></trkpt><trkpt lat="44.826855" lon="8.30193"><ele>153.5</ele><time>2026-04-25T10:20:50.965Z</time></trkpt><trkpt lat="44.826765" lon="8.301795"><ele>152.0</ele><time>2026-04-25T10:20:51.965Z</time></trkpt><trkpt lat="44.82667" lon="8.301675"><ele>150.5</ele><time>2026-04-25T10:20:52.964Z</time></trkpt><trkpt lat="44.82658" lon="8.30155"><ele>149.0</ele><time>2026-04-25T10:20:53.964Z</time></trkpt><trkpt lat="44.8265033" lon="8.3014317"><ele>149.0</ele><time>2026-04-25T10:20:54.964Z</time></trkpt><trkpt lat="44.82643" lon="8.3013117"><ele>149.0</ele><time>2026-04-25T10:20:55.964Z</time></trkpt><trkpt lat="44.826375" lon="8.3012133"><ele>149.0</ele><time>2026-04-25T10:20:56.965Z</time></trkpt><trkpt lat="44.826335" lon="8.3011417"><ele>149.0</ele><time>2026-04-25T10:20:57.965Z</time></trkpt><trkpt lat="44.8262833" lon="8.3010683"><ele>149.0</ele><time>2026-04-25T10:20:59.965Z</time></trkpt><trkpt lat="44.8262817" lon="8.30093"><ele>149.0</ele><time>2026-04-25T10:21:01.965Z</time></trkpt><trkpt lat="44.82629" lon="8.3008283"><ele>149.0</ele><time>2026-04-25T10:21:02.964Z</time></trkpt><trkpt lat="44.8263083" lon="8.3006883"><ele>149.0</ele><time>2026-04-25T10:21:03.965Z</time></trkpt><trkpt lat="44.826325" lon="8.3005017"><ele>149.0</ele><time>2026-04-25T10:21:04.965Z</time></trkpt><trkpt lat="44.8263417" lon="8.3002967"><ele>149.0</ele><time>2026-04-25T10:21:05.964Z</time></trkpt><trkpt lat="44.8263517" lon="8.3000783"><ele>149.33333333333331</ele><time>2026-04-25T10:21:06.964Z</time></trkpt><trkpt lat="44.8263567" lon="8.299845"><ele>149.66666666666666</ele><time>2026-04-25T10:21:07.964Z</time></trkpt><trkpt lat="44.8263417" lon="8.299585"><ele>150.0</ele><time>2026-04-25T10:21:08.964Z</time></trkpt><trkpt lat="44.8263117" lon="8.299325"><ele>149.66666666666666</ele><time>2026-04-25T10:21:09.964Z</time></trkpt><trkpt lat="44.8262667" lon="8.2990633"><ele>149.33333333333331</ele><time>2026-04-25T10:21:10.964Z</time></trkpt><trkpt lat="44.826205" lon="8.29882"><ele>149.0</ele><time>2026-04-25T10:21:11.964Z</time></trkpt><trkpt lat="44.8261533" lon="8.298595"><ele>149.0</ele><time>2026-04-25T10:21:12.964Z</time></trkpt><trkpt lat="44.8260683" lon="8.2983983"><ele>149.0</ele><time>2026-04-25T10:21:13.964Z</time></trkpt><trkpt lat="44.82599" lon="8.298225"><ele>149.0</ele><time>2026-04-25T10:21:14.965Z</time></trkpt><trkpt lat="44.8259083" lon="8.2980383"><ele>148.5</ele><time>2026-04-25T10:21:15.965Z</time></trkpt><trkpt lat="44.8258433" lon="8.29787"><ele>148.0</ele><time>2026-04-25T10:21:16.964Z</time></trkpt><trkpt lat="44.825795" lon="8.2976767"><ele>147.5</ele><time>2026-04-25T10:21:17.965Z</time></trkpt><trkpt lat="44.825745" lon="8.29748"><ele>147.0</ele><time>2026-04-25T10:21:18.964Z</time></trkpt><trkpt lat="44.8256667" lon="8.297315"><ele>147.25</ele><time>2026-04-25T10:21:19.964Z</time></trkpt><trkpt lat="44.82558" lon="8.2971733"><ele>147.5</ele><time>2026-04-25T10:21:20.965Z</time></trkpt><trkpt lat="44.825475" lon="8.2970517"><ele>147.75</ele><time>2026-04-25T10:21:21.965Z</time></trkpt><trkpt lat="44.825365" lon="8.2969267"><ele>148.0</ele><time>2026-04-25T10:21:22.964Z</time></trkpt><trkpt lat="44.8252417" lon="8.2967983"><ele>147.33333333333334</ele><time>2026-04-25T10:21:23.964Z</time></trkpt><trkpt lat="44.8251133" lon="8.2966817"><ele>146.66666666666666</ele><time>2026-04-25T10:21:24.965Z</time></trkpt><trkpt lat="44.8249867" lon="8.29658"><ele>146.0</ele><time>2026-04-25T10:21:25.965Z</time></trkpt><trkpt lat="44.8248567" lon="8.2964683"><ele>146.0</ele><time>2026-04-25T10:21:26.965Z</time></trkpt><trkpt lat="44.824725" lon="8.29637"><ele>146.0</ele><time>2026-04-25T10:21:27.965Z</time></trkpt><trkpt lat="44.82459" lon="8.29626"><ele>146.0</ele><time>2026-04-25T10:21:28.964Z</time></trkpt><trkpt lat="44.8244483" lon="8.296145"><ele>145.66666666666666</ele><time>2026-04-25T10:21:29.965Z</time></trkpt><trkpt lat="44.8243067" lon="8.2960383"><ele>145.33333333333334</ele><time>2026-04-25T10:21:30.964Z</time></trkpt><trkpt lat="44.8241533" lon="8.2959267"><ele>145.0</ele><time>2026-04-25T10:21:31.964Z</time></trkpt><trkpt lat="44.8240167" lon="8.2958167"><ele>145.0</ele><time>2026-04-25T10:21:32.964Z</time></trkpt><trkpt lat="44.8238817" lon="8.2957017"><ele>145.0</ele><time>2026-04-25T10:21:33.964Z</time></trkpt><trkpt lat="44.823755" lon="8.2956033"><ele>145.0</ele><time>2026-04-25T10:21:34.964Z</time></trkpt><trkpt lat="44.8236367" lon="8.29548"><ele>145.0</ele><time>2026-04-25T10:21:35.965Z</time></trkpt><trkpt lat="44.8235233" lon="8.2953917"><ele>144.75</ele><time>2026-04-25T10:21:36.964Z</time></trkpt><trkpt lat="44.8234217" lon="8.2952933"><ele>144.5</ele><time>2026-04-25T10:21:37.964Z</time></trkpt><trkpt lat="44.8233383" lon="8.29518"><ele>144.25</ele><time>2026-04-25T10:21:38.964Z</time></trkpt><trkpt lat="44.8232833" lon="8.2950417"><ele>144.0</ele><time>2026-04-25T10:21:39.964Z</time></trkpt><trkpt lat="44.823235" lon="8.2948717"><ele>144.0</ele><time>2026-04-25T10:21:40.964Z</time></trkpt><trkpt lat="44.82321" lon="8.294705"><ele>144.0</ele><time>2026-04-25T10:21:41.964Z</time></trkpt><trkpt lat="44.8231883" lon="8.2945533"><ele>144.0</ele><time>2026-04-25T10:21:42.964Z</time></trkpt><trkpt lat="44.8231633" lon="8.294425"><ele>144.0</ele><time>2026-04-25T10:21:43.964Z</time></trkpt><trkpt lat="44.8231483" lon="8.2943167"><ele>144.0</ele><time>2026-04-25T10:21:44.964Z</time></trkpt><trkpt lat="44.823125" lon="8.2942117"><ele>144.0</ele><time>2026-04-25T10:21:46.964Z</time></trkpt><trkpt lat="44.8230983" lon="8.2941183"><ele>144.0</ele><time>2026-04-25T10:22:19.964Z</time></trkpt><trkpt lat="44.82308" lon="8.2939583"><ele>144.0</ele><time>2026-04-25T10:22:21.965Z</time></trkpt><trkpt lat="44.8230633" lon="8.293855"><ele>144.0</ele><time>2026-04-25T10:22:23.965Z</time></trkpt><trkpt lat="44.8229833" lon="8.2938133"><ele>144.0</ele><time>2026-04-25T10:22:33.964Z</time></trkpt><trkpt lat="44.8229133" lon="8.2938267"><ele>144.0</ele><time>2026-04-25T10:22:34.964Z</time></trkpt><trkpt lat="44.8228467" lon="8.2938317"><ele>144.0</ele><time>2026-04-25T10:22:35.965Z</time></trkpt><trkpt lat="44.8227817" lon="8.293835"><ele>144.0</ele><time>2026-04-25T10:22:36.964Z</time></trkpt><trkpt lat="44.8227117" lon="8.2938417"><ele>144.0</ele><time>2026-04-25T10:22:37.965Z</time></trkpt><trkpt lat="44.8226383" lon="8.2938367"><ele>144.0</ele><time>2026-04-25T10:22:38.964Z</time></trkpt><trkpt lat="44.8225433" lon="8.29384"><ele>144.0</ele><time>2026-04-25T10:22:39.964Z</time></trkpt><trkpt lat="44.8224383" lon="8.29385"><ele>144.0</ele><time>2026-04-25T10:22:40.964Z</time></trkpt><trkpt lat="44.82231" lon="8.2938733"><ele>144.0</ele><time>2026-04-25T10:22:41.964Z</time></trkpt><trkpt lat="44.8221733" lon="8.2938983"><ele>144.0</ele><time>2026-04-25T10:22:42.964Z</time></trkpt><trkpt lat="44.8220367" lon="8.293925"><ele>144.0</ele><time>2026-04-25T10:22:43.964Z</time></trkpt><trkpt lat="44.8218983" lon="8.2939567"><ele>144.0</ele><time>2026-04-25T10:22:44.964Z</time></trkpt><trkpt lat="44.8217617" lon="8.2939733"><ele>143.8</ele><time>2026-04-25T10:22:45.965Z</time></trkpt><trkpt lat="44.8216367" lon="8.2939917"><ele>143.60000000000002</ele><time>2026-04-25T10:22:46.964Z</time></trkpt><trkpt lat="44.8215283" lon="8.2939983"><ele>143.4</ele><time>2026-04-25T10:22:47.964Z</time></trkpt><trkpt lat="44.8214467" lon="8.29402"><ele>143.20000000000002</ele><time>2026-04-25T10:22:48.964Z</time></trkpt><trkpt lat="44.8213767" lon="8.294065"><ele>143.0</ele><time>2026-04-25T10:22:49.964Z</time></trkpt><trkpt lat="44.8213317" lon="8.2941433"><ele>143.0</ele><time>2026-04-25T10:22:50.964Z</time></trkpt><trkpt lat="44.821315" lon="8.2942433"><ele>143.0</ele><time>2026-04-25T10:22:51.965Z</time></trkpt><trkpt lat="44.8213183" lon="8.2943883"><ele>143.0</ele><time>2026-04-25T10:22:52.964Z</time></trkpt><trkpt lat="44.8213417" lon="8.2945767"><ele>143.0</ele><time>2026-04-25T10:22:53.965Z</time></trkpt><trkpt lat="44.8213817" lon="8.2947867"><ele>143.0</ele><time>2026-04-25T10:22:54.965Z</time></trkpt><trkpt lat="44.82141" lon="8.2950267"><ele>143.0</ele><time>2026-04-25T10:22:55.964Z</time></trkpt><trkpt lat="44.8214483" lon="8.2952767"><ele>143.0</ele><time>2026-04-25T10:22:56.964Z</time></trkpt><trkpt lat="44.8214783" lon="8.2955233"><ele>143.0</ele><time>2026-04-25T10:22:57.964Z</time></trkpt><trkpt lat="44.8215117" lon="8.29579"><ele>143.0</ele><time>2026-04-25T10:22:58.964Z</time></trkpt><trkpt lat="44.821535" lon="8.296065"><ele>143.0</ele><time>2026-04-25T10:22:59.964Z</time></trkpt><trkpt lat="44.8215667" lon="8.2963667"><ele>143.0</ele><time>2026-04-25T10:23:00.964Z</time></trkpt><trkpt lat="44.821585" lon="8.2966517"><ele>143.0</ele><time>2026-04-25T10:23:01.964Z</time></trkpt><trkpt lat="44.8216167" lon="8.2969717"><ele>143.0</ele><time>2026-04-25T10:23:02.964Z</time></trkpt><trkpt lat="44.821655" lon="8.2972817"><ele>142.66666666666666</ele><time>2026-04-25T10:23:03.964Z</time></trkpt><trkpt lat="44.821695" lon="8.2975917"><ele>142.33333333333334</ele><time>2026-04-25T10:23:04.964Z</time></trkpt><trkpt lat="44.82173" lon="8.2979017"><ele>142.0</ele><time>2026-04-25T10:23:05.965Z</time></trkpt><trkpt lat="44.8217717" lon="8.2982267"><ele>142.0</ele><time>2026-04-25T10:23:06.964Z</time></trkpt><trkpt lat="44.8218083" lon="8.2985417"><ele>142.0</ele><time>2026-04-25T10:23:07.964Z</time></trkpt><trkpt lat="44.8218383" lon="8.29883"><ele>142.0</ele><time>2026-04-25T10:23:08.964Z</time></trkpt><trkpt lat="44.8218617" lon="8.299135"><ele>142.0</ele><time>2026-04-25T10:23:09.964Z</time></trkpt><trkpt lat="44.8218617" lon="8.2994583"><ele>142.0</ele><time>2026-04-25T10:23:10.964Z</time></trkpt><trkpt lat="44.8218333" lon="8.2997717"><ele>144.0</ele><time>2026-04-25T10:23:11.964Z</time></trkpt><trkpt lat="44.82181" lon="8.3001"><ele>146.0</ele><time>2026-04-25T10:23:12.964Z</time></trkpt><trkpt lat="44.8217667" lon="8.300415"><ele>145.66666666666666</ele><time>2026-04-25T10:23:13.964Z</time></trkpt><trkpt lat="44.82173" lon="8.3007167"><ele>145.33333333333334</ele><time>2026-04-25T10:23:14.965Z</time></trkpt><trkpt lat="44.821725" lon="8.300995"><ele>145.0</ele><time>2026-04-25T10:23:15.965Z</time></trkpt><trkpt lat="44.821765" lon="8.301265"><ele>143.33333333333334</ele><time>2026-04-25T10:23:16.964Z</time></trkpt><trkpt lat="44.8218433" lon="8.3015483"><ele>141.66666666666666</ele><time>2026-04-25T10:23:17.964Z</time></trkpt><trkpt lat="44.8219283" lon="8.3018417"><ele>140.0</ele><time>2026-04-25T10:23:18.964Z</time></trkpt><trkpt lat="44.82201" lon="8.3021367"><ele>139.5</ele><time>2026-04-25T10:23:19.965Z</time></trkpt><trkpt lat="44.8220833" lon="8.3024583"><ele>139.0</ele><time>2026-04-25T10:23:20.965Z</time></trkpt><trkpt lat="44.82216" lon="8.302775"><ele>139.0</ele><time>2026-04-25T10:23:21.964Z</time></trkpt><trkpt lat="44.8222417" lon="8.3030883"><ele>139.0</ele><time>2026-04-25T10:23:22.964Z</time></trkpt><trkpt lat="44.8223083" lon="8.3034033"><ele>139.0</ele><time>2026-04-25T10:23:23.964Z</time></trkpt><trkpt lat="44.8223517" lon="8.3037433"><ele>139.0</ele><time>2026-04-25T10:23:24.965Z</time></trkpt><trkpt lat="44.8223633" lon="8.304085"><ele>139.0</ele><time>2026-04-25T10:23:25.964Z</time></trkpt><trkpt lat="44.82237" lon="8.3044267"><ele>139.0</ele><time>2026-04-25T10:23:26.964Z</time></trkpt><trkpt lat="44.8223683" lon="8.30477"><ele>139.0</ele><time>2026-04-25T10:23:27.964Z</time></trkpt><trkpt lat="44.8223667" lon="8.3051067"><ele>139.0</ele><time>2026-04-25T10:23:28.964Z</time></trkpt><trkpt lat="44.822355" lon="8.3054567"><ele>138.5</ele><time>2026-04-25T10:23:29.964Z</time></trkpt><trkpt lat="44.82234" lon="8.30581"><ele>138.0</ele><time>2026-04-25T10:23:30.965Z</time></trkpt><trkpt lat="44.8223283" lon="8.3061517"><ele>138.0</ele><time>2026-04-25T10:23:31.964Z</time></trkpt><trkpt lat="44.82232" lon="8.3064967"><ele>138.0</ele><time>2026-04-25T10:23:32.965Z</time></trkpt><trkpt lat="44.8223267" lon="8.3068233"><ele>138.0</ele><time>2026-04-25T10:23:33.964Z</time></trkpt><trkpt lat="44.8223333" lon="8.3071217"><ele>138.0</ele><time>2026-04-25T10:23:34.965Z</time></trkpt><trkpt lat="44.8223217" lon="8.307375"><ele>138.0</ele><time>2026-04-25T10:23:35.964Z</time></trkpt><trkpt lat="44.8222783" lon="8.3075867"><ele>137.75</ele><time>2026-04-25T10:23:36.964Z</time></trkpt><trkpt lat="44.8222083" lon="8.3077483"><ele>137.5</ele><time>2026-04-25T10:23:37.964Z</time></trkpt><trkpt lat="44.8220933" lon="8.3078667"><ele>137.25</ele><time>2026-04-25T10:23:38.965Z</time></trkpt><trkpt lat="44.821945" lon="8.307955"><ele>137.0</ele><time>2026-04-25T10:23:39.965Z</time></trkpt><trkpt lat="44.8217917" lon="8.3080317"><ele>138.0</ele><time>2026-04-25T10:23:40.964Z</time></trkpt><trkpt lat="44.8216" lon="8.3081117"><ele>139.0</ele><time>2026-04-25T10:23:41.965Z</time></trkpt><trkpt lat="44.82141" lon="8.3082033"><ele>140.0</ele><time>2026-04-25T10:23:42.965Z</time></trkpt><trkpt lat="44.8212083" lon="8.3083183"><ele>140.0</ele><time>2026-04-25T10:23:43.965Z</time></trkpt><trkpt lat="44.8210167" lon="8.3083867"><ele>140.0</ele><time>2026-04-25T10:23:44.965Z</time></trkpt><trkpt lat="44.8208283" lon="8.308405"><ele>140.0</ele><time>2026-04-25T10:23:45.964Z</time></trkpt><trkpt lat="44.8206667" lon="8.3084017"><ele>140.25</ele><time>2026-04-25T10:23:46.964Z</time></trkpt><trkpt lat="44.8205217" lon="8.30837"><ele>140.5</ele><time>2026-04-25T10:23:47.964Z</time></trkpt><trkpt lat="44.8204083" lon="8.3082767"><ele>140.75</ele><time>2026-04-25T10:23:48.964Z</time></trkpt><trkpt lat="44.8202883" lon="8.3081183"><ele>141.0</ele><time>2026-04-25T10:23:49.964Z</time></trkpt><trkpt lat="44.8201767" lon="8.30792"><ele>140.66666666666666</ele><time>2026-04-25T10:23:50.964Z</time></trkpt><trkpt lat="44.82004" lon="8.3077317"><ele>140.33333333333331</ele><time>2026-04-25T10:23:51.964Z</time></trkpt><trkpt lat="44.819855" lon="8.3075417"><ele>140.0</ele><time>2026-04-25T10:23:52.965Z</time></trkpt><trkpt lat="44.8196417" lon="8.3073817"><ele>142.0</ele><time>2026-04-25T10:23:53.964Z</time></trkpt><trkpt lat="44.81941" lon="8.3072417"><ele>144.0</ele><time>2026-04-25T10:23:54.964Z</time></trkpt><trkpt lat="44.81918" lon="8.30709"><ele>144.0</ele><time>2026-04-25T10:23:55.964Z</time></trkpt><trkpt lat="44.8189483" lon="8.30693"><ele>144.0</ele><time>2026-04-25T10:23:56.964Z</time></trkpt><trkpt lat="44.8187033" lon="8.3067683"><ele>144.0</ele><time>2026-04-25T10:23:57.964Z</time></trkpt><trkpt lat="44.81845" lon="8.3065967"><ele>144.0</ele><time>2026-04-25T10:23:58.964Z</time></trkpt><trkpt lat="44.8181833" lon="8.3064383"><ele>145.5</ele><time>2026-04-25T10:23:59.964Z</time></trkpt><trkpt lat="44.8179317" lon="8.3062883"><ele>147.0</ele><time>2026-04-25T10:24:00.963Z</time></trkpt><trkpt lat="44.817705" lon="8.3061367"><ele>147.0</ele><time>2026-04-25T10:24:01.963Z</time></trkpt><trkpt lat="44.8174883" lon="8.305985"><ele>147.0</ele><time>2026-04-25T10:24:02.963Z</time></trkpt><trkpt lat="44.81726" lon="8.3058"><ele>147.0</ele><time>2026-04-25T10:24:03.963Z</time></trkpt><trkpt lat="44.8170617" lon="8.3056033"><ele>147.0</ele><time>2026-04-25T10:24:04.963Z</time></trkpt><trkpt lat="44.81687" lon="8.3053767"><ele>145.5</ele><time>2026-04-25T10:24:05.963Z</time></trkpt><trkpt lat="44.8166833" lon="8.3051517"><ele>144.0</ele><time>2026-04-25T10:24:06.963Z</time></trkpt><trkpt lat="44.816495" lon="8.304925"><ele>146.0</ele><time>2026-04-25T10:24:07.963Z</time></trkpt><trkpt lat="44.8163183" lon="8.3047117"><ele>148.0</ele><time>2026-04-25T10:24:08.963Z</time></trkpt><trkpt lat="44.8161467" lon="8.3045167"><ele>148.0</ele><time>2026-04-25T10:24:09.964Z</time></trkpt><trkpt lat="44.8160017" lon="8.3043183"><ele>148.0</ele><time>2026-04-25T10:24:10.963Z</time></trkpt><trkpt lat="44.81586" lon="8.304095"><ele>148.0</ele><time>2026-04-25T10:24:11.964Z</time></trkpt><trkpt lat="44.8157317" lon="8.3038317"><ele>147.0</ele><time>2026-04-25T10:24:12.963Z</time></trkpt><trkpt lat="44.8156033" lon="8.30352"><ele>146.0</ele><time>2026-04-25T10:24:13.964Z</time></trkpt><trkpt lat="44.8154717" lon="8.3032033"><ele>148.0</ele><time>2026-04-25T10:24:14.963Z</time></trkpt><trkpt lat="44.8153233" lon="8.3028717"><ele>150.0</ele><time>2026-04-25T10:24:15.963Z</time></trkpt><trkpt lat="44.8151817" lon="8.3025467"><ele>149.5</ele><time>2026-04-25T10:24:16.963Z</time></trkpt><trkpt lat="44.8150433" lon="8.30222"><ele>149.0</ele><time>2026-04-25T10:24:17.963Z</time></trkpt><trkpt lat="44.8149033" lon="8.3019183"><ele>149.0</ele><time>2026-04-25T10:24:18.963Z</time></trkpt><trkpt lat="44.814775" lon="8.3016317"><ele>149.0</ele><time>2026-04-25T10:24:19.964Z</time></trkpt><trkpt lat="44.8146267" lon="8.3013367"><ele>149.0</ele><time>2026-04-25T10:24:20.963Z</time></trkpt><trkpt lat="44.8144633" lon="8.3010483"><ele>149.0</ele><time>2026-04-25T10:24:21.963Z</time></trkpt><trkpt lat="44.8142917" lon="8.3007867"><ele>150.5</ele><time>2026-04-25T10:24:22.963Z</time></trkpt><trkpt lat="44.8141217" lon="8.3005367"><ele>152.0</ele><time>2026-04-25T10:24:23.964Z</time></trkpt><trkpt lat="44.8139433" lon="8.3002883"><ele>152.0</ele><time>2026-04-25T10:24:24.963Z</time></trkpt><trkpt lat="44.8137783" lon="8.3001033"><ele>152.0</ele><time>2026-04-25T10:24:25.964Z</time></trkpt><trkpt lat="44.813625" lon="8.29993"><ele>152.0</ele><time>2026-04-25T10:24:26.964Z</time></trkpt><trkpt lat="44.81349" lon="8.299765"><ele>151.33333333333331</ele><time>2026-04-25T10:24:27.963Z</time></trkpt><trkpt lat="44.8133567" lon="8.2996"><ele>150.66666666666666</ele><time>2026-04-25T10:24:28.964Z</time></trkpt><trkpt lat="44.8132383" lon="8.2994567"><ele>150.0</ele><time>2026-04-25T10:24:29.963Z</time></trkpt><trkpt lat="44.81314" lon="8.29931"><ele>150.0</ele><time>2026-04-25T10:24:30.963Z</time></trkpt><trkpt lat="44.8130633" lon="8.2991817"><ele>150.0</ele><time>2026-04-25T10:24:31.963Z</time></trkpt><trkpt lat="44.813015" lon="8.2990817"><ele>150.0</ele><time>2026-04-25T10:24:32.963Z</time></trkpt><trkpt lat="44.8129967" lon="8.298985"><ele>150.0</ele><time>2026-04-25T10:24:34.964Z</time></trkpt><trkpt lat="44.8129083" lon="8.2988883"><ele>150.0</ele><time>2026-04-25T10:24:36.963Z</time></trkpt><trkpt lat="44.8128383" lon="8.2989867"><ele>150.0</ele><time>2026-04-25T10:24:38.964Z</time></trkpt><trkpt lat="44.8128167" lon="8.2990867"><ele>150.0</ele><time>2026-04-25T10:24:39.963Z</time></trkpt><trkpt lat="44.8127917" lon="8.299215"><ele>150.0</ele><time>2026-04-25T10:24:40.963Z</time></trkpt><trkpt lat="44.81275" lon="8.299415"><ele>150.0</ele><time>2026-04-25T10:24:41.964Z</time></trkpt><trkpt lat="44.8127067" lon="8.2996483"><ele>150.0</ele><time>2026-04-25T10:24:42.963Z</time></trkpt><trkpt lat="44.812645" lon="8.2998967"><ele>150.0</ele><time>2026-04-25T10:24:43.963Z</time></trkpt><trkpt lat="44.8125567" lon="8.3001483"><ele>150.0</ele><time>2026-04-25T10:24:44.963Z</time></trkpt><trkpt lat="44.8124617" lon="8.300395"><ele>150.0</ele><time>2026-04-25T10:24:45.963Z</time></trkpt><trkpt lat="44.8123667" lon="8.3006267"><ele>150.0</ele><time>2026-04-25T10:24:46.963Z</time></trkpt><trkpt lat="44.81229" lon="8.3008633"><ele>150.0</ele><time>2026-04-25T10:24:47.964Z</time></trkpt><trkpt lat="44.8122783" lon="8.3011067"><ele>150.0</ele><time>2026-04-25T10:24:48.964Z</time></trkpt><trkpt lat="44.8123133" lon="8.301335"><ele>150.0</ele><time>2026-04-25T10:24:49.964Z</time></trkpt><trkpt lat="44.8123517" lon="8.3015733"><ele>150.0</ele><time>2026-04-25T10:24:50.963Z</time></trkpt><trkpt lat="44.8123733" lon="8.3018"><ele>151.0</ele><time>2026-04-25T10:24:51.963Z</time></trkpt><trkpt lat="44.8123567" lon="8.3020033"><ele>152.0</ele><time>2026-04-25T10:24:52.963Z</time></trkpt><trkpt lat="44.81229" lon="8.30221"><ele>153.0</ele><time>2026-04-25T10:24:53.963Z</time></trkpt><trkpt lat="44.812215" lon="8.30242"><ele>153.66666666666666</ele><time>2026-04-25T10:24:54.963Z</time></trkpt><trkpt lat="44.8121867" lon="8.3026367"><ele>154.33333333333331</ele><time>2026-04-25T10:24:55.963Z</time></trkpt><trkpt lat="44.8122067" lon="8.3028767"><ele>155.0</ele><time>2026-04-25T10:24:56.964Z</time></trkpt><trkpt lat="44.812235" lon="8.3031467"><ele>157.0</ele><time>2026-04-25T10:24:57.963Z</time></trkpt><trkpt lat="44.81226" lon="8.3034567"><ele>159.0</ele><time>2026-04-25T10:24:58.964Z</time></trkpt><trkpt lat="44.812265" lon="8.3037483"><ele>161.0</ele><time>2026-04-25T10:24:59.964Z</time></trkpt><trkpt lat="44.8122967" lon="8.3040067"><ele>164.33333333333331</ele><time>2026-04-25T10:25:00.964Z</time></trkpt><trkpt lat="44.81236" lon="8.304255"><ele>167.66666666666666</ele><time>2026-04-25T10:25:01.963Z</time></trkpt><trkpt lat="44.8124367" lon="8.3044567"><ele>171.0</ele><time>2026-04-25T10:25:02.964Z</time></trkpt><trkpt lat="44.8125317" lon="8.3046383"><ele>174.8</ele><time>2026-04-25T10:25:03.963Z</time></trkpt><trkpt lat="44.812605" lon="8.304765"><ele>178.60000000000002</ele><time>2026-04-25T10:25:04.964Z</time></trkpt><trkpt lat="44.812625" lon="8.3048617"><ele>182.4</ele><time>2026-04-25T10:25:05.963Z</time></trkpt><trkpt lat="44.8125917" lon="8.3050067"><ele>186.2</ele><time>2026-04-25T10:25:07.963Z</time></trkpt><trkpt lat="44.8124833" lon="8.3049433"><ele>190.0</ele><time>2026-04-25T10:25:08.963Z</time></trkpt><trkpt lat="44.81238" lon="8.30485"><ele>183.66666666666669</ele><time>2026-04-25T10:25:09.963Z</time></trkpt><trkpt lat="44.8122617" lon="8.30468"><ele>177.33333333333334</ele><time>2026-04-25T10:25:10.963Z</time></trkpt><trkpt lat="44.8121333" lon="8.3045"><ele>171.0</ele><time>2026-04-25T10:25:11.963Z</time></trkpt><trkpt lat="44.81199" lon="8.3042483"><ele>171.0</ele><time>2026-04-25T10:25:12.963Z</time></trkpt><trkpt lat="44.8118633" lon="8.3040083"><ele>171.0</ele><time>2026-04-25T10:25:13.964Z</time></trkpt><trkpt lat="44.8117833" lon="8.3038033"><ele>171.0</ele><time>2026-04-25T10:25:14.963Z</time></trkpt><trkpt lat="44.8116883" lon="8.3036633"><ele>175.0</ele><time>2026-04-25T10:25:15.963Z</time></trkpt><trkpt lat="44.8115817" lon="8.303595"><ele>179.0</ele><time>2026-04-25T10:25:16.963Z</time></trkpt><trkpt lat="44.811465" lon="8.303585"><ele>183.0</ele><time>2026-04-25T10:25:17.963Z</time></trkpt><trkpt lat="44.81135" lon="8.30364"><ele>187.0</ele><time>2026-04-25T10:25:18.964Z</time></trkpt><trkpt lat="44.8112417" lon="8.303755"><ele>191.33333333333334</ele><time>2026-04-25T10:25:19.963Z</time></trkpt><trkpt lat="44.8111383" lon="8.3039217"><ele>195.66666666666669</ele><time>2026-04-25T10:25:20.964Z</time></trkpt><trkpt lat="44.8110517" lon="8.304145"><ele>200.0</ele><time>2026-04-25T10:25:21.963Z</time></trkpt><trkpt lat="44.8109267" lon="8.3043583"><ele>200.0</ele><time>2026-04-25T10:25:22.963Z</time></trkpt><trkpt lat="44.8107717" lon="8.3045467"><ele>200.0</ele><time>2026-04-25T10:25:23.963Z</time></trkpt><trkpt lat="44.8105917" lon="8.3046967"><ele>200.0</ele><time>2026-04-25T10:25:24.963Z</time></trkpt><trkpt lat="44.8104133" lon="8.3048267"><ele>204.66666666666669</ele><time>2026-04-25T10:25:25.963Z</time></trkpt><trkpt lat="44.81023" lon="8.3049183"><ele>209.33333333333331</ele><time>2026-04-25T10:25:26.963Z</time></trkpt><trkpt lat="44.810075" lon="8.3049983"><ele>214.0</ele><time>2026-04-25T10:25:27.963Z</time></trkpt><trkpt lat="44.80993" lon="8.3051017"><ele>214.0</ele><time>2026-04-25T10:25:28.963Z</time></trkpt><trkpt lat="44.8097867" lon="8.3052383"><ele>214.0</ele><time>2026-04-25T10:25:29.964Z</time></trkpt><trkpt lat="44.809645" lon="8.3053867"><ele>214.0</ele><time>2026-04-25T10:25:30.964Z</time></trkpt><trkpt lat="44.8095017" lon="8.3055467"><ele>216.66666666666666</ele><time>2026-04-25T10:25:31.963Z</time></trkpt><trkpt lat="44.8093233" lon="8.3056767"><ele>219.33333333333331</ele><time>2026-04-25T10:25:32.963Z</time></trkpt><trkpt lat="44.80915" lon="8.30579"><ele>222.0</ele><time>2026-04-25T10:25:33.963Z</time></trkpt><trkpt lat="44.8089933" lon="8.3058833"><ele>222.0</ele><time>2026-04-25T10:25:34.963Z</time></trkpt><trkpt lat="44.8089067" lon="8.3059767"><ele>222.0</ele><time>2026-04-25T10:25:35.964Z</time></trkpt><trkpt lat="44.808845" lon="8.30608"><ele>222.0</ele><time>2026-04-25T10:25:36.963Z</time></trkpt><trkpt lat="44.8088433" lon="8.3062"><ele>222.0</ele><time>2026-04-25T10:25:37.963Z</time></trkpt><trkpt lat="44.8088817" lon="8.3063283"><ele>222.0</ele><time>2026-04-25T10:25:38.963Z</time></trkpt><trkpt lat="44.8089933" lon="8.3064717"><ele>223.25</ele><time>2026-04-25T10:25:39.963Z</time></trkpt><trkpt lat="44.8091133" lon="8.3066317"><ele>224.5</ele><time>2026-04-25T10:25:40.963Z</time></trkpt><trkpt lat="44.8092117" lon="8.3067883"><ele>225.75</ele><time>2026-04-25T10:25:41.963Z</time></trkpt><trkpt lat="44.8092667" lon="8.3069333"><ele>227.0</ele><time>2026-04-25T10:25:42.963Z</time></trkpt><trkpt lat="44.80927" lon="8.307085"><ele>227.0</ele><time>2026-04-25T10:25:43.964Z</time></trkpt><trkpt lat="44.8092367" lon="8.3072333"><ele>227.0</ele><time>2026-04-25T10:25:44.964Z</time></trkpt><trkpt lat="44.8091767" lon="8.30741"><ele>227.0</ele><time>2026-04-25T10:25:45.964Z</time></trkpt><trkpt lat="44.8091033" lon="8.3076167"><ele>227.0</ele><time>2026-04-25T10:25:46.964Z</time></trkpt><trkpt lat="44.808995" lon="8.3078183"><ele>229.0</ele><time>2026-04-25T10:25:47.963Z</time></trkpt><trkpt lat="44.808855" lon="8.30799"><ele>231.0</ele><time>2026-04-25T10:25:48.964Z</time></trkpt><trkpt lat="44.808725" lon="8.308135"><ele>233.0</ele><time>2026-04-25T10:25:49.963Z</time></trkpt><trkpt lat="44.80864" lon="8.3083233"><ele>233.0</ele><time>2026-04-25T10:25:50.963Z</time></trkpt><trkpt lat="44.8085717" lon="8.308555"><ele>233.0</ele><time>2026-04-25T10:25:51.963Z</time></trkpt><trkpt lat="44.80851" lon="8.308795"><ele>233.0</ele><time>2026-04-25T10:25:52.963Z</time></trkpt><trkpt lat="44.80845" lon="8.3090367"><ele>238.5</ele><time>2026-04-25T10:25:53.963Z</time></trkpt><trkpt lat="44.808405" lon="8.3092617"><ele>244.0</ele><time>2026-04-25T10:25:54.964Z</time></trkpt><trkpt lat="44.8083533" lon="8.30944"><ele>249.5</ele><time>2026-04-25T10:25:55.964Z</time></trkpt><trkpt lat="44.8083167" lon="8.3095833"><ele>255.0</ele><time>2026-04-25T10:25:56.963Z</time></trkpt><trkpt lat="44.8082967" lon="8.30969"><ele>255.0</ele><time>2026-04-25T10:25:57.963Z</time></trkpt><trkpt lat="44.80823" lon="8.30981"><ele>255.0</ele><time>2026-04-25T10:25:59.964Z</time></trkpt><trkpt lat="44.8081633" lon="8.3097867"><ele>255.0</ele><time>2026-04-25T10:26:01.963Z</time></trkpt><trkpt lat="44.8081367" lon="8.309605"><ele>255.0</ele><time>2026-04-25T10:26:03.964Z</time></trkpt><trkpt lat="44.8081267" lon="8.309465"><ele>255.0</ele><time>2026-04-25T10:26:04.963Z</time></trkpt><trkpt lat="44.8081217" lon="8.30931"><ele>255.0</ele><time>2026-04-25T10:26:05.964Z</time></trkpt><trkpt lat="44.8081" lon="8.3091517"><ele>255.0</ele><time>2026-04-25T10:26:06.963Z</time></trkpt><trkpt lat="44.8080783" lon="8.3089867"><ele>255.0</ele><time>2026-04-25T10:26:07.963Z</time></trkpt><trkpt lat="44.80806" lon="8.30883"><ele>255.0</ele><time>2026-04-25T10:26:08.963Z</time></trkpt><trkpt lat="44.8080383" lon="8.3086833"><ele>254.6</ele><time>2026-04-25T10:26:09.963Z</time></trkpt><trkpt lat="44.8080067" lon="8.3085333"><ele>254.2</ele><time>2026-04-25T10:26:10.964Z</time></trkpt><trkpt lat="44.807965" lon="8.3084017"><ele>253.8</ele><time>2026-04-25T10:26:11.963Z</time></trkpt><trkpt lat="44.807925" lon="8.30827"><ele>253.4</ele><time>2026-04-25T10:26:12.964Z</time></trkpt><trkpt lat="44.8078867" lon="8.3081417"><ele>253.0</ele><time>2026-04-25T10:26:13.963Z</time></trkpt><trkpt lat="44.8078383" lon="8.30802"><ele>252.5</ele><time>2026-04-25T10:26:14.963Z</time></trkpt><trkpt lat="44.8077717" lon="8.30791"><ele>252.0</ele><time>2026-04-25T10:26:15.964Z</time></trkpt><trkpt lat="44.80769" lon="8.307785"><ele>251.5</ele><time>2026-04-25T10:26:16.963Z</time></trkpt><trkpt lat="44.807605" lon="8.3076483"><ele>251.0</ele><time>2026-04-25T10:26:17.964Z</time></trkpt><trkpt lat="44.807495" lon="8.30753"><ele>252.5</ele><time>2026-04-25T10:26:18.964Z</time></trkpt><trkpt lat="44.80737" lon="8.3074367"><ele>254.0</ele><time>2026-04-25T10:26:19.963Z</time></trkpt><trkpt lat="44.807235" lon="8.30738"><ele>255.5</ele><time>2026-04-25T10:26:20.963Z</time></trkpt><trkpt lat="44.80708" lon="8.307365"><ele>257.0</ele><time>2026-04-25T10:26:21.964Z</time></trkpt><trkpt lat="44.806925" lon="8.307395"><ele>255.75</ele><time>2026-04-25T10:26:22.963Z</time></trkpt><trkpt lat="44.806785" lon="8.3074617"><ele>254.5</ele><time>2026-04-25T10:26:23.963Z</time></trkpt><trkpt lat="44.8066433" lon="8.3075317"><ele>253.25</ele><time>2026-04-25T10:26:24.963Z</time></trkpt><trkpt lat="44.8065167" lon="8.3076117"><ele>252.0</ele><time>2026-04-25T10:26:25.963Z</time></trkpt><trkpt lat="44.80641" lon="8.3077033"><ele>252.0</ele><time>2026-04-25T10:26:26.963Z</time></trkpt><trkpt lat="44.806305" lon="8.3077917"><ele>252.0</ele><time>2026-04-25T10:26:27.963Z</time></trkpt><trkpt lat="44.806215" lon="8.30786"><ele>252.0</ele><time>2026-04-25T10:26:28.963Z</time></trkpt><trkpt lat="44.806135" lon="8.3079267"><ele>252.0</ele><time>2026-04-25T10:26:29.963Z</time></trkpt><trkpt lat="44.80605" lon="8.3079883"><ele>252.0</ele><time>2026-04-25T10:26:30.963Z</time></trkpt><trkpt lat="44.80597" lon="8.3080467"><ele>252.66666666666666</ele><time>2026-04-25T10:26:31.963Z</time></trkpt><trkpt lat="44.80589" lon="8.30811"><ele>253.33333333333331</ele><time>2026-04-25T10:26:32.964Z</time></trkpt><trkpt lat="44.8058083" lon="8.3081633"><ele>254.0</ele><time>2026-04-25T10:26:33.963Z</time></trkpt><trkpt lat="44.8057433" lon="8.308215"><ele>254.66666666666666</ele><time>2026-04-25T10:26:34.964Z</time></trkpt><trkpt lat="44.805645" lon="8.3082783"><ele>255.33333333333331</ele><time>2026-04-25T10:26:36.964Z</time></trkpt><trkpt lat="44.8055783" lon="8.3082983"><ele>256.0</ele><time>2026-04-25T10:26:38.963Z</time></trkpt><trkpt lat="44.8055267" lon="8.308225"><ele>256.0</ele><time>2026-04-25T10:27:01.963Z</time></trkpt><trkpt lat="44.8054717" lon="8.308165"><ele>256.0</ele><time>2026-04-25T10:27:15.963Z</time></trkpt></trkseg><trkseg><trkpt lat="44.8054648" lon="8.3082821"><ele>256.0</ele><time>2026-04-25T11:48:09.06Z</time></trkpt><trkpt lat="44.8054336" lon="8.3083797"><ele>256.0</ele><time>2026-04-25T11:48:14.029Z</time></trkpt><trkpt lat="44.8054233" lon="8.3084867"><ele>256.0</ele><time>2026-04-25T11:48:14.991Z</time></trkpt><trkpt lat="44.8053117" lon="8.3085367"><ele>256.0</ele><time>2026-04-25T11:48:16.99Z</time></trkpt><trkpt lat="44.8052067" lon="8.3085833"><ele>256.0</ele><time>2026-04-25T11:48:18.99Z</time></trkpt><trkpt lat="44.8050833" lon="8.3086267"><ele>255.66666666666666</ele><time>2026-04-25T11:48:20.991Z</time></trkpt><trkpt lat="44.8050083" lon="8.3086433"><ele>255.33333333333331</ele><time>2026-04-25T11:48:21.99Z</time></trkpt><trkpt lat="44.804925" lon="8.3086633"><ele>255.0</ele><time>2026-04-25T11:48:22.99Z</time></trkpt><trkpt lat="44.804835" lon="8.30867"><ele>254.66666666666669</ele><time>2026-04-25T11:48:23.991Z</time></trkpt><trkpt lat="44.8047483" lon="8.308665"><ele>254.33333333333334</ele><time>2026-04-25T11:48:24.99Z</time></trkpt><trkpt lat="44.80466" lon="8.3086533"><ele>254.0</ele><time>2026-04-25T11:48:25.99Z</time></trkpt><trkpt lat="44.8045617" lon="8.3086017"><ele>254.0</ele><time>2026-04-25T11:48:26.99Z</time></trkpt><trkpt lat="44.80444" lon="8.3085383"><ele>254.0</ele><time>2026-04-25T11:48:27.991Z</time></trkpt><trkpt lat="44.80433" lon="8.308485"><ele>254.0</ele><time>2026-04-25T11:48:28.991Z</time></trkpt><trkpt lat="44.804205" lon="8.3084383"><ele>254.0</ele><time>2026-04-25T11:48:29.99Z</time></trkpt><trkpt lat="44.804075" lon="8.3084083"><ele>256.0</ele><time>2026-04-25T11:48:30.991Z</time></trkpt><trkpt lat="44.80395" lon="8.3083883"><ele>258.0</ele><time>2026-04-25T11:48:31.99Z</time></trkpt><trkpt lat="44.80382" lon="8.3083733"><ele>260.0</ele><time>2026-04-25T11:48:32.99Z</time></trkpt><trkpt lat="44.803675" lon="8.3083533"><ele>262.0</ele><time>2026-04-25T11:48:33.99Z</time></trkpt><trkpt lat="44.8035283" lon="8.3083283"><ele>260.0</ele><time>2026-04-25T11:48:34.99Z</time></trkpt><trkpt lat="44.8033717" lon="8.3082767"><ele>258.0</ele><time>2026-04-25T11:48:35.99Z</time></trkpt><trkpt lat="44.803205" lon="8.30823"><ele>256.0</ele><time>2026-04-25T11:48:36.991Z</time></trkpt><trkpt lat="44.80306" lon="8.30818"><ele>256.0</ele><time>2026-04-25T11:48:37.99Z</time></trkpt><trkpt lat="44.8029" lon="8.3081583"><ele>256.0</ele><time>2026-04-25T11:48:38.99Z</time></trkpt><trkpt lat="44.8027433" lon="8.3081833"><ele>256.0</ele><time>2026-04-25T11:48:39.99Z</time></trkpt><trkpt lat="44.8025967" lon="8.30825"><ele>253.0</ele><time>2026-04-25T11:48:40.99Z</time></trkpt><trkpt lat="44.8024333" lon="8.3083267"><ele>250.0</ele><time>2026-04-25T11:48:41.99Z</time></trkpt><trkpt lat="44.8022567" lon="8.3083983"><ele>247.0</ele><time>2026-04-25T11:48:42.99Z</time></trkpt><trkpt lat="44.80208" lon="8.3084467"><ele>247.0</ele><time>2026-04-25T11:48:43.99Z</time></trkpt><trkpt lat="44.8019117" lon="8.3085033"><ele>247.0</ele><time>2026-04-25T11:48:44.991Z</time></trkpt><trkpt lat="44.8017567" lon="8.3085733"><ele>247.0</ele><time>2026-04-25T11:48:45.99Z</time></trkpt><trkpt lat="44.8016133" lon="8.3086233"><ele>247.0</ele><time>2026-04-25T11:48:46.99Z</time></trkpt><trkpt lat="44.8014567" lon="8.308665"><ele>247.0</ele><time>2026-04-25T11:48:47.99Z</time></trkpt><trkpt lat="44.8012883" lon="8.308685"><ele>247.0</ele><time>2026-04-25T11:48:48.99Z</time></trkpt><trkpt lat="44.801105" lon="8.3087133"><ele>246.33333333333331</ele><time>2026-04-25T11:48:49.99Z</time></trkpt><trkpt lat="44.800925" lon="8.3087367"><ele>245.66666666666669</ele><time>2026-04-25T11:48:50.99Z</time></trkpt><trkpt lat="44.80075" lon="8.3087533"><ele>245.0</ele><time>2026-04-25T11:48:51.99Z</time></trkpt><trkpt lat="44.80058" lon="8.3087767"><ele>245.0</ele><time>2026-04-25T11:48:52.99Z</time></trkpt><trkpt lat="44.800415" lon="8.3088383"><ele>245.0</ele><time>2026-04-25T11:48:53.99Z</time></trkpt><trkpt lat="44.80026" lon="8.3089217"><ele>245.0</ele><time>2026-04-25T11:48:54.99Z</time></trkpt><trkpt lat="44.8000967" lon="8.309"><ele>244.33333333333334</ele><time>2026-04-25T11:48:55.991Z</time></trkpt><trkpt lat="44.79994" lon="8.3090783"><ele>243.66666666666669</ele><time>2026-04-25T11:48:56.99Z</time></trkpt><trkpt lat="44.7997883" lon="8.309155"><ele>243.0</ele><time>2026-04-25T11:48:57.991Z</time></trkpt><trkpt lat="44.7996383" lon="8.3092217"><ele>243.0</ele><time>2026-04-25T11:48:58.991Z</time></trkpt><trkpt lat="44.7995033" lon="8.3092833"><ele>243.0</ele><time>2026-04-25T11:48:59.99Z</time></trkpt><trkpt lat="44.799375" lon="8.30934"><ele>243.0</ele><time>2026-04-25T11:49:00.99Z</time></trkpt><trkpt lat="44.7992433" lon="8.3093967"><ele>243.0</ele><time>2026-04-25T11:49:01.99Z</time></trkpt><trkpt lat="44.7991117" lon="8.3094683"><ele>241.66666666666669</ele><time>2026-04-25T11:49:02.99Z</time></trkpt><trkpt lat="44.7989733" lon="8.3095583"><ele>240.33333333333334</ele><time>2026-04-25T11:49:03.99Z</time></trkpt><trkpt lat="44.7988317" lon="8.3096583"><ele>239.0</ele><time>2026-04-25T11:49:04.99Z</time></trkpt><trkpt lat="44.7986933" lon="8.3097617"><ele>241.5</ele><time>2026-04-25T11:49:05.991Z</time></trkpt><trkpt lat="44.7985483" lon="8.3098383"><ele>244.0</ele><time>2026-04-25T11:49:06.991Z</time></trkpt><trkpt lat="44.79841" lon="8.3098783"><ele>246.5</ele><time>2026-04-25T11:49:07.99Z</time></trkpt><trkpt lat="44.7982783" lon="8.3099067"><ele>249.0</ele><time>2026-04-25T11:49:08.991Z</time></trkpt><trkpt lat="44.7981533" lon="8.3099317"><ele>249.0</ele><time>2026-04-25T11:49:09.991Z</time></trkpt><trkpt lat="44.7980367" lon="8.309965"><ele>248.99999999999997</ele><time>2026-04-25T11:49:10.99Z</time></trkpt><trkpt lat="44.79793" lon="8.310025"><ele>248.99999999999997</ele><time>2026-04-25T11:49:11.99Z</time></trkpt><trkpt lat="44.7978383" lon="8.3100967"><ele>249.0</ele><time>2026-04-25T11:49:12.99Z</time></trkpt><trkpt lat="44.797765" lon="8.31018"><ele>249.0</ele><time>2026-04-25T11:49:13.991Z</time></trkpt><trkpt lat="44.7977433" lon="8.310325"><ele>249.0</ele><time>2026-04-25T11:49:14.99Z</time></trkpt><trkpt lat="44.7977133" lon="8.31047"><ele>249.0</ele><time>2026-04-25T11:49:15.99Z</time></trkpt><trkpt lat="44.7976867" lon="8.3106233"><ele>249.0</ele><time>2026-04-25T11:49:16.991Z</time></trkpt><trkpt lat="44.7976267" lon="8.3107983"><ele>249.0</ele><time>2026-04-25T11:49:17.99Z</time></trkpt><trkpt lat="44.797585" lon="8.31097"><ele>249.33333333333331</ele><time>2026-04-25T11:49:18.99Z</time></trkpt><trkpt lat="44.797535" lon="8.3111833"><ele>249.66666666666666</ele><time>2026-04-25T11:49:19.99Z</time></trkpt><trkpt lat="44.7974717" lon="8.3114133"><ele>250.0</ele><time>2026-04-25T11:49:20.99Z</time></trkpt><trkpt lat="44.7974083" lon="8.311645"><ele>249.33333333333331</ele><time>2026-04-25T11:49:21.99Z</time></trkpt><trkpt lat="44.7973583" lon="8.3118883"><ele>248.66666666666669</ele><time>2026-04-25T11:49:22.99Z</time></trkpt><trkpt lat="44.7973183" lon="8.31211"><ele>248.0</ele><time>2026-04-25T11:49:23.991Z</time></trkpt><trkpt lat="44.7972833" lon="8.3123167"><ele>248.0</ele><time>2026-04-25T11:49:24.99Z</time></trkpt><trkpt lat="44.797235" lon="8.31249"><ele>248.0</ele><time>2026-04-25T11:49:25.99Z</time></trkpt><trkpt lat="44.7971733" lon="8.31266"><ele>248.0</ele><time>2026-04-25T11:49:26.991Z</time></trkpt><trkpt lat="44.7971017" lon="8.3128083"><ele>248.0</ele><time>2026-04-25T11:49:27.99Z</time></trkpt><trkpt lat="44.7970467" lon="8.3129567"><ele>248.75</ele><time>2026-04-25T11:49:28.99Z</time></trkpt><trkpt lat="44.79702" lon="8.3131033"><ele>249.5</ele><time>2026-04-25T11:49:29.99Z</time></trkpt><trkpt lat="44.7970333" lon="8.313265"><ele>250.25</ele><time>2026-04-25T11:49:30.99Z</time></trkpt><trkpt lat="44.7970583" lon="8.313445"><ele>251.0</ele><time>2026-04-25T11:49:31.991Z</time></trkpt><trkpt lat="44.7971033" lon="8.31363"><ele>251.0</ele><time>2026-04-25T11:49:32.99Z</time></trkpt><trkpt lat="44.7971383" lon="8.3138167"><ele>251.0</ele><time>2026-04-25T11:49:33.989Z</time></trkpt><trkpt lat="44.7971767" lon="8.31399"><ele>251.0</ele><time>2026-04-25T11:49:34.99Z</time></trkpt><trkpt lat="44.7972033" lon="8.3141467"><ele>251.0</ele><time>2026-04-25T11:49:35.99Z</time></trkpt><trkpt lat="44.7972117" lon="8.3142917"><ele>252.60000000000002</ele><time>2026-04-25T11:49:36.989Z</time></trkpt><trkpt lat="44.7972183" lon="8.3144417"><ele>254.20000000000002</ele><time>2026-04-25T11:49:37.989Z</time></trkpt><trkpt lat="44.79723" lon="8.314595"><ele>255.79999999999998</ele><time>2026-04-25T11:49:38.99Z</time></trkpt><trkpt lat="44.7972267" lon="8.3147517"><ele>257.4</ele><time>2026-04-25T11:49:39.989Z</time></trkpt><trkpt lat="44.79719" lon="8.314905"><ele>259.0</ele><time>2026-04-25T11:49:40.989Z</time></trkpt><trkpt lat="44.797165" lon="8.3150483"><ele>261.25</ele><time>2026-04-25T11:49:41.99Z</time></trkpt><trkpt lat="44.7971383" lon="8.3151917"><ele>263.5</ele><time>2026-04-25T11:49:42.99Z</time></trkpt><trkpt lat="44.7970833" lon="8.315335"><ele>265.75</ele><time>2026-04-25T11:49:43.99Z</time></trkpt><trkpt lat="44.796955" lon="8.31553"><ele>268.0</ele><time>2026-04-25T11:49:44.989Z</time></trkpt><trkpt lat="44.79689" lon="8.3157217"><ele>266.3333333333333</ele><time>2026-04-25T11:49:45.99Z</time></trkpt><trkpt lat="44.796825" lon="8.3159267"><ele>264.6666666666667</ele><time>2026-04-25T11:49:46.989Z</time></trkpt><trkpt lat="44.7967567" lon="8.3161183"><ele>263.0</ele><time>2026-04-25T11:49:47.989Z</time></trkpt><trkpt lat="44.79667" lon="8.3163017"><ele>267.25</ele><time>2026-04-25T11:49:48.989Z</time></trkpt><trkpt lat="44.796585" lon="8.31645"><ele>271.5</ele><time>2026-04-25T11:49:49.989Z</time></trkpt><trkpt lat="44.7964933" lon="8.3165783"><ele>275.75</ele><time>2026-04-25T11:49:50.99Z</time></trkpt><trkpt lat="44.7964083" lon="8.3166533"><ele>280.0</ele><time>2026-04-25T11:49:51.989Z</time></trkpt><trkpt lat="44.7963117" lon="8.3167267"><ele>280.0</ele><time>2026-04-25T11:49:52.989Z</time></trkpt><trkpt lat="44.7962267" lon="8.3168133"><ele>280.0</ele><time>2026-04-25T11:49:53.99Z</time></trkpt><trkpt lat="44.79614" lon="8.3169283"><ele>280.0</ele><time>2026-04-25T11:49:54.99Z</time></trkpt><trkpt lat="44.796065" lon="8.31706"><ele>280.0</ele><time>2026-04-25T11:49:55.989Z</time></trkpt><trkpt lat="44.7960017" lon="8.3172017"><ele>277.0</ele><time>2026-04-25T11:49:56.99Z</time></trkpt><trkpt lat="44.7959433" lon="8.317345"><ele>274.0</ele><time>2026-04-25T11:49:57.989Z</time></trkpt><trkpt lat="44.7958783" lon="8.31747"><ele>271.0</ele><time>2026-04-25T11:49:58.989Z</time></trkpt><trkpt lat="44.7958417" lon="8.31759"><ele>268.0</ele><time>2026-04-25T11:49:59.989Z</time></trkpt><trkpt lat="44.795805" lon="8.317745"><ele>265.0</ele><time>2026-04-25T11:50:00.989Z</time></trkpt><trkpt lat="44.7958017" lon="8.3179167"><ele>265.25</ele><time>2026-04-25T11:50:01.989Z</time></trkpt><trkpt lat="44.79583" lon="8.318095"><ele>265.5</ele><time>2026-04-25T11:50:02.99Z</time></trkpt><trkpt lat="44.795845" lon="8.3182933"><ele>265.75</ele><time>2026-04-25T11:50:03.989Z</time></trkpt><trkpt lat="44.7958217" lon="8.318495"><ele>266.0</ele><time>2026-04-25T11:50:04.989Z</time></trkpt><trkpt lat="44.795805" lon="8.3186883"><ele>266.0</ele><time>2026-04-25T11:50:05.989Z</time></trkpt><trkpt lat="44.79575" lon="8.3188733"><ele>266.0</ele><time>2026-04-25T11:50:06.99Z</time></trkpt><trkpt lat="44.7956733" lon="8.3190417"><ele>266.0</ele><time>2026-04-25T11:50:07.989Z</time></trkpt><trkpt lat="44.7955717" lon="8.3191567"><ele>266.0</ele><time>2026-04-25T11:50:08.989Z</time></trkpt><trkpt lat="44.7954483" lon="8.3192633"><ele>268.25</ele><time>2026-04-25T11:50:09.989Z</time></trkpt><trkpt lat="44.7953233" lon="8.3193667"><ele>270.5</ele><time>2026-04-25T11:50:10.989Z</time></trkpt><trkpt lat="44.7952117" lon="8.319465"><ele>272.75</ele><time>2026-04-25T11:50:11.989Z</time></trkpt><trkpt lat="44.7951117" lon="8.3195883"><ele>275.0</ele><time>2026-04-25T11:50:12.989Z</time></trkpt><trkpt lat="44.79502" lon="8.3197267"><ele>270.0</ele><time>2026-04-25T11:50:13.99Z</time></trkpt><trkpt lat="44.7949217" lon="8.3198783"><ele>265.0</ele><time>2026-04-25T11:50:14.989Z</time></trkpt><trkpt lat="44.7948183" lon="8.32005"><ele>260.0</ele><time>2026-04-25T11:50:15.99Z</time></trkpt><trkpt lat="44.794715" lon="8.3202133"><ele>260.0</ele><time>2026-04-25T11:50:16.989Z</time></trkpt><trkpt lat="44.794605" lon="8.3203817"><ele>260.0</ele><time>2026-04-25T11:50:17.989Z</time></trkpt><trkpt lat="44.7944933" lon="8.320565"><ele>260.0</ele><time>2026-04-25T11:50:18.989Z</time></trkpt><trkpt lat="44.794385" lon="8.320735"><ele>257.0</ele><time>2026-04-25T11:50:19.99Z</time></trkpt><trkpt lat="44.7942833" lon="8.3209117"><ele>254.0</ele><time>2026-04-25T11:50:20.989Z</time></trkpt><trkpt lat="44.794195" lon="8.32109"><ele>251.0</ele><time>2026-04-25T11:50:21.989Z</time></trkpt><trkpt lat="44.7941083" lon="8.3212717"><ele>249.0</ele><time>2026-04-25T11:50:22.99Z</time></trkpt><trkpt lat="44.7940183" lon="8.3214617"><ele>247.0</ele><time>2026-04-25T11:50:23.99Z</time></trkpt><trkpt lat="44.79393" lon="8.3216417"><ele>245.0</ele><time>2026-04-25T11:50:24.989Z</time></trkpt><trkpt lat="44.7938283" lon="8.32181"><ele>245.0</ele><time>2026-04-25T11:50:25.989Z</time></trkpt><trkpt lat="44.793715" lon="8.3219717"><ele>245.0</ele><time>2026-04-25T11:50:26.989Z</time></trkpt><trkpt lat="44.7936033" lon="8.322135"><ele>245.0</ele><time>2026-04-25T11:50:27.99Z</time></trkpt><trkpt lat="44.7934917" lon="8.3222817"><ele>245.0</ele><time>2026-04-25T11:50:28.99Z</time></trkpt><trkpt lat="44.793385" lon="8.32241"><ele>245.0</ele><time>2026-04-25T11:50:29.99Z</time></trkpt><trkpt lat="44.793285" lon="8.3225067"><ele>245.0</ele><time>2026-04-25T11:50:30.989Z</time></trkpt><trkpt lat="44.7931733" lon="8.3225833"><ele>245.0</ele><time>2026-04-25T11:50:31.989Z</time></trkpt><trkpt lat="44.7930617" lon="8.3226267"><ele>245.0</ele><time>2026-04-25T11:50:32.989Z</time></trkpt><trkpt lat="44.7929483" lon="8.3226517"><ele>245.0</ele><time>2026-04-25T11:50:33.989Z</time></trkpt><trkpt lat="44.7928533" lon="8.32266"><ele>245.0</ele><time>2026-04-25T11:50:34.989Z</time></trkpt><trkpt lat="44.7927633" lon="8.32268"><ele>245.0</ele><time>2026-04-25T11:50:35.989Z</time></trkpt><trkpt lat="44.79269" lon="8.32273"><ele>245.0</ele><time>2026-04-25T11:50:36.989Z</time></trkpt><trkpt lat="44.7926367" lon="8.3228317"><ele>245.5</ele><time>2026-04-25T11:50:37.989Z</time></trkpt><trkpt lat="44.7925733" lon="8.322945"><ele>246.0</ele><time>2026-04-25T11:50:38.989Z</time></trkpt><trkpt lat="44.79249" lon="8.3230667"><ele>246.5</ele><time>2026-04-25T11:50:39.989Z</time></trkpt><trkpt lat="44.7923967" lon="8.3231867"><ele>247.0</ele><time>2026-04-25T11:50:40.989Z</time></trkpt><trkpt lat="44.7923067" lon="8.3232733"><ele>247.0</ele><time>2026-04-25T11:50:41.99Z</time></trkpt><trkpt lat="44.792195" lon="8.32335"><ele>247.0</ele><time>2026-04-25T11:50:42.989Z</time></trkpt><trkpt lat="44.7920683" lon="8.3234233"><ele>247.0</ele><time>2026-04-25T11:50:43.989Z</time></trkpt><trkpt lat="44.79195" lon="8.3234967"><ele>247.0</ele><time>2026-04-25T11:50:44.989Z</time></trkpt><trkpt lat="44.7918417" lon="8.32357"><ele>244.8</ele><time>2026-04-25T11:50:45.989Z</time></trkpt><trkpt lat="44.79176" lon="8.3236383"><ele>242.6</ele><time>2026-04-25T11:50:46.989Z</time></trkpt><trkpt lat="44.79169" lon="8.3237167"><ele>240.40000000000003</ele><time>2026-04-25T11:50:47.989Z</time></trkpt><trkpt lat="44.7916233" lon="8.3238333"><ele>238.20000000000002</ele><time>2026-04-25T11:50:48.99Z</time></trkpt><trkpt lat="44.79158" lon="8.3239717"><ele>236.0</ele><time>2026-04-25T11:50:49.989Z</time></trkpt><trkpt lat="44.7915533" lon="8.3241133"><ele>236.0</ele><time>2026-04-25T11:50:50.989Z</time></trkpt><trkpt lat="44.79153" lon="8.3242483"><ele>236.0</ele><time>2026-04-25T11:50:51.989Z</time></trkpt><trkpt lat="44.7915317" lon="8.324405"><ele>236.0</ele><time>2026-04-25T11:50:52.989Z</time></trkpt><trkpt lat="44.791545" lon="8.32457"><ele>236.0</ele><time>2026-04-25T11:50:53.989Z</time></trkpt><trkpt lat="44.79154" lon="8.324755"><ele>235.0</ele><time>2026-04-25T11:50:54.989Z</time></trkpt><trkpt lat="44.7915183" lon="8.324925"><ele>234.0</ele><time>2026-04-25T11:50:55.989Z</time></trkpt><trkpt lat="44.79147" lon="8.325075"><ele>233.0</ele><time>2026-04-25T11:50:56.989Z</time></trkpt><trkpt lat="44.791385" lon="8.3252117"><ele>232.0</ele><time>2026-04-25T11:50:57.989Z</time></trkpt><trkpt lat="44.7912767" lon="8.3253567"><ele>232.0</ele><time>2026-04-25T11:50:58.989Z</time></trkpt><trkpt lat="44.7911633" lon="8.3254917"><ele>232.0</ele><time>2026-04-25T11:50:59.99Z</time></trkpt><trkpt lat="44.791035" lon="8.3256017"><ele>232.0</ele><time>2026-04-25T11:51:00.99Z</time></trkpt><trkpt lat="44.7909033" lon="8.32568"><ele>232.0</ele><time>2026-04-25T11:51:01.989Z</time></trkpt><trkpt lat="44.7907783" lon="8.32576"><ele>229.0</ele><time>2026-04-25T11:51:02.989Z</time></trkpt><trkpt lat="44.7906733" lon="8.3258567"><ele>226.0</ele><time>2026-04-25T11:51:03.989Z</time></trkpt><trkpt lat="44.79057" lon="8.3259667"><ele>223.0</ele><time>2026-04-25T11:51:04.989Z</time></trkpt><trkpt lat="44.7904667" lon="8.326085"><ele>220.0</ele><time>2026-04-25T11:51:05.989Z</time></trkpt><trkpt lat="44.7903683" lon="8.3262483"><ele>220.0</ele><time>2026-04-25T11:51:06.99Z</time></trkpt><trkpt lat="44.790265" lon="8.3263933"><ele>220.0</ele><time>2026-04-25T11:51:07.989Z</time></trkpt><trkpt lat="44.7901567" lon="8.3265233"><ele>220.0</ele><time>2026-04-25T11:51:08.989Z</time></trkpt><trkpt lat="44.79007" lon="8.326655"><ele>220.0</ele><time>2026-04-25T11:51:09.99Z</time></trkpt><trkpt lat="44.7900017" lon="8.32683"><ele>215.5</ele><time>2026-04-25T11:51:10.99Z</time></trkpt><trkpt lat="44.7899483" lon="8.32702"><ele>211.0</ele><time>2026-04-25T11:51:11.989Z</time></trkpt><trkpt lat="44.78988" lon="8.3272067"><ele>206.5</ele><time>2026-04-25T11:51:12.989Z</time></trkpt><trkpt lat="44.7898333" lon="8.3274117"><ele>202.0</ele><time>2026-04-25T11:51:13.989Z</time></trkpt><trkpt lat="44.789795" lon="8.3276017"><ele>202.0</ele><time>2026-04-25T11:51:14.99Z</time></trkpt><trkpt lat="44.78978" lon="8.3277933"><ele>202.0</ele><time>2026-04-25T11:51:15.989Z</time></trkpt><trkpt lat="44.7897583" lon="8.3279717"><ele>202.0</ele><time>2026-04-25T11:51:16.99Z</time></trkpt><trkpt lat="44.7897567" lon="8.3281417"><ele>202.0</ele><time>2026-04-25T11:51:17.989Z</time></trkpt><trkpt lat="44.78978" lon="8.3283"><ele>200.39999999999998</ele><time>2026-04-25T11:51:18.989Z</time></trkpt><trkpt lat="44.7898217" lon="8.32844"><ele>198.79999999999998</ele><time>2026-04-25T11:51:19.99Z</time></trkpt><trkpt lat="44.7898467" lon="8.3285667"><ele>197.2</ele><time>2026-04-25T11:51:20.99Z</time></trkpt><trkpt lat="44.78987" lon="8.3286733"><ele>195.6</ele><time>2026-04-25T11:51:21.989Z</time></trkpt><trkpt lat="44.7898683" lon="8.32878"><ele>194.0</ele><time>2026-04-25T11:51:22.989Z</time></trkpt><trkpt lat="44.78982" lon="8.3288933"><ele>194.0</ele><time>2026-04-25T11:51:23.989Z</time></trkpt><trkpt lat="44.78974" lon="8.3290133"><ele>194.0</ele><time>2026-04-25T11:51:24.989Z</time></trkpt><trkpt lat="44.7896367" lon="8.329155"><ele>194.0</ele><time>2026-04-25T11:51:25.989Z</time></trkpt><trkpt lat="44.7894983" lon="8.3293317"><ele>194.0</ele><time>2026-04-25T11:51:26.989Z</time></trkpt><trkpt lat="44.7893967" lon="8.3295117"><ele>189.0</ele><time>2026-04-25T11:51:27.989Z</time></trkpt><trkpt lat="44.78931" lon="8.3296867"><ele>184.0</ele><time>2026-04-25T11:51:28.989Z</time></trkpt><trkpt lat="44.7892333" lon="8.3298167"><ele>179.0</ele><time>2026-04-25T11:51:29.989Z</time></trkpt><trkpt lat="44.7891717" lon="8.32991"><ele>174.0</ele><time>2026-04-25T11:51:30.99Z</time></trkpt><trkpt lat="44.7891267" lon="8.32999"><ele>169.0</ele><time>2026-04-25T11:51:31.989Z</time></trkpt><trkpt lat="44.7890817" lon="8.33011"><ele>169.0</ele><time>2026-04-25T11:51:33.989Z</time></trkpt><trkpt lat="44.7890633" lon="8.3302567"><ele>169.0</ele><time>2026-04-25T11:51:35.99Z</time></trkpt><trkpt lat="44.7890517" lon="8.3303767"><ele>169.0</ele><time>2026-04-25T11:51:36.989Z</time></trkpt><trkpt lat="44.789035" lon="8.33053"><ele>169.0</ele><time>2026-04-25T11:51:37.989Z</time></trkpt><trkpt lat="44.789015" lon="8.330725"><ele>169.0</ele><time>2026-04-25T11:51:38.989Z</time></trkpt><trkpt lat="44.7889933" lon="8.3309417"><ele>168.66666666666669</ele><time>2026-04-25T11:51:39.989Z</time></trkpt><trkpt lat="44.7889717" lon="8.3311733"><ele>168.33333333333334</ele><time>2026-04-25T11:51:40.99Z</time></trkpt><trkpt lat="44.7889533" lon="8.3314433"><ele>168.0</ele><time>2026-04-25T11:51:41.989Z</time></trkpt><trkpt lat="44.7889233" lon="8.3317017"><ele>167.66666666666666</ele><time>2026-04-25T11:51:42.99Z</time></trkpt><trkpt lat="44.7888967" lon="8.3319783"><ele>167.33333333333331</ele><time>2026-04-25T11:51:43.989Z</time></trkpt><trkpt lat="44.7888617" lon="8.33225"><ele>167.0</ele><time>2026-04-25T11:51:44.989Z</time></trkpt><trkpt lat="44.7888383" lon="8.3324933"><ele>167.5</ele><time>2026-04-25T11:51:45.989Z</time></trkpt><trkpt lat="44.788815" lon="8.332695"><ele>168.0</ele><time>2026-04-25T11:51:46.99Z</time></trkpt><trkpt lat="44.7887717" lon="8.332865"><ele>168.5</ele><time>2026-04-25T11:51:47.989Z</time></trkpt><trkpt lat="44.7886833" lon="8.3330033"><ele>169.0</ele><time>2026-04-25T11:51:48.99Z</time></trkpt><trkpt lat="44.7885633" lon="8.3331517"><ele>164.66666666666669</ele><time>2026-04-25T11:51:49.989Z</time></trkpt><trkpt lat="44.78843" lon="8.3333083"><ele>160.33333333333334</ele><time>2026-04-25T11:51:50.99Z</time></trkpt><trkpt lat="44.788265" lon="8.3334583"><ele>156.0</ele><time>2026-04-25T11:51:51.989Z</time></trkpt><trkpt lat="44.78807" lon="8.3336033"><ele>156.0</ele><time>2026-04-25T11:51:52.989Z</time></trkpt><trkpt lat="44.7878533" lon="8.333755"><ele>156.0</ele><time>2026-04-25T11:51:53.989Z</time></trkpt><trkpt lat="44.7876717" lon="8.3338933"><ele>156.0</ele><time>2026-04-25T11:51:54.989Z</time></trkpt><trkpt lat="44.7874983" lon="8.33401"><ele>157.33333333333334</ele><time>2026-04-25T11:51:55.989Z</time></trkpt><trkpt lat="44.78732" lon="8.3341117"><ele>158.66666666666669</ele><time>2026-04-25T11:51:56.989Z</time></trkpt><trkpt lat="44.7871217" lon="8.3341717"><ele>160.0</ele><time>2026-04-25T11:51:57.989Z</time></trkpt><trkpt lat="44.7869167" lon="8.3341883"><ele>161.33333333333334</ele><time>2026-04-25T11:51:58.989Z</time></trkpt><trkpt lat="44.7867033" lon="8.334195"><ele>162.66666666666666</ele><time>2026-04-25T11:51:59.989Z</time></trkpt><trkpt lat="44.786485" lon="8.3341867"><ele>164.0</ele><time>2026-04-25T11:52:00.99Z</time></trkpt><trkpt lat="44.7862567" lon="8.3341867"><ele>164.0</ele><time>2026-04-25T11:52:01.989Z</time></trkpt><trkpt lat="44.7860233" lon="8.33418"><ele>164.0</ele><time>2026-04-25T11:52:02.989Z</time></trkpt><trkpt lat="44.785805" lon="8.3341917"><ele>167.33333333333331</ele><time>2026-04-25T11:52:03.99Z</time></trkpt><trkpt lat="44.7856067" lon="8.334205"><ele>170.66666666666666</ele><time>2026-04-25T11:52:04.99Z</time></trkpt><trkpt lat="44.785435" lon="8.3341917"><ele>174.0</ele><time>2026-04-25T11:52:05.99Z</time></trkpt><trkpt lat="44.7852833" lon="8.3341783"><ele>176.25</ele><time>2026-04-25T11:52:06.989Z</time></trkpt><trkpt lat="44.7851483" lon="8.3341983"><ele>178.5</ele><time>2026-04-25T11:52:07.989Z</time></trkpt><trkpt lat="44.7850183" lon="8.334265"><ele>180.75</ele><time>2026-04-25T11:52:08.989Z</time></trkpt><trkpt lat="44.7848883" lon="8.3343617"><ele>183.0</ele><time>2026-04-25T11:52:09.99Z</time></trkpt><trkpt lat="44.7847733" lon="8.334485"><ele>183.0</ele><time>2026-04-25T11:52:10.99Z</time></trkpt><trkpt lat="44.7846517" lon="8.33462"><ele>183.0</ele><time>2026-04-25T11:52:11.989Z</time></trkpt><trkpt lat="44.784515" lon="8.3347667"><ele>183.0</ele><time>2026-04-25T11:52:12.99Z</time></trkpt><trkpt lat="44.7843933" lon="8.33493"><ele>185.66666666666666</ele><time>2026-04-25T11:52:13.989Z</time></trkpt><trkpt lat="44.7842783" lon="8.3351133"><ele>188.33333333333331</ele><time>2026-04-25T11:52:14.99Z</time></trkpt><trkpt lat="44.7841783" lon="8.335305"><ele>191.0</ele><time>2026-04-25T11:52:15.989Z</time></trkpt><trkpt lat="44.7841033" lon="8.3354983"><ele>196.66666666666666</ele><time>2026-04-25T11:52:16.99Z</time></trkpt><trkpt lat="44.784035" lon="8.3357033"><ele>202.33333333333331</ele><time>2026-04-25T11:52:17.989Z</time></trkpt><trkpt lat="44.7839667" lon="8.3358983"><ele>208.0</ele><time>2026-04-25T11:52:18.99Z</time></trkpt><trkpt lat="44.7838783" lon="8.3360583"><ele>208.0</ele><time>2026-04-25T11:52:19.99Z</time></trkpt><trkpt lat="44.7837733" lon="8.3362083"><ele>208.0</ele><time>2026-04-25T11:52:20.989Z</time></trkpt><trkpt lat="44.78364" lon="8.3363617"><ele>208.0</ele><time>2026-04-25T11:52:21.989Z</time></trkpt><trkpt lat="44.7835" lon="8.33651"><ele>209.66666666666666</ele><time>2026-04-25T11:52:22.989Z</time></trkpt><trkpt lat="44.7833633" lon="8.33664"><ele>211.33333333333331</ele><time>2026-04-25T11:52:23.99Z</time></trkpt><trkpt lat="44.7832117" lon="8.3367383"><ele>213.0</ele><time>2026-04-25T11:52:24.99Z</time></trkpt><trkpt lat="44.7830483" lon="8.3367883"><ele>213.0</ele><time>2026-04-25T11:52:25.989Z</time></trkpt><trkpt lat="44.782885" lon="8.3367917"><ele>213.0</ele><time>2026-04-25T11:52:26.989Z</time></trkpt><trkpt lat="44.7827317" lon="8.33676"><ele>213.0</ele><time>2026-04-25T11:52:27.99Z</time></trkpt><trkpt lat="44.7825967" lon="8.336715"><ele>213.2</ele><time>2026-04-25T11:52:28.989Z</time></trkpt><trkpt lat="44.782485" lon="8.3366683"><ele>213.4</ele><time>2026-04-25T11:52:29.989Z</time></trkpt><trkpt lat="44.7824133" lon="8.3366617"><ele>213.59999999999997</ele><time>2026-04-25T11:52:30.989Z</time></trkpt><trkpt lat="44.7823083" lon="8.3367"><ele>213.79999999999998</ele><time>2026-04-25T11:52:32.99Z</time></trkpt><trkpt lat="44.78225" lon="8.3368583"><ele>214.0</ele><time>2026-04-25T11:52:34.99Z</time></trkpt><trkpt lat="44.7822667" lon="8.3369933"><ele>214.0</ele><time>2026-04-25T11:52:35.989Z</time></trkpt><trkpt lat="44.7823033" lon="8.3371783"><ele>214.0</ele><time>2026-04-25T11:52:36.989Z</time></trkpt><trkpt lat="44.78234" lon="8.3373533"><ele>214.0</ele><time>2026-04-25T11:52:37.99Z</time></trkpt><trkpt lat="44.7823767" lon="8.3375367"><ele>214.0</ele><time>2026-04-25T11:52:38.989Z</time></trkpt><trkpt lat="44.78243" lon="8.337715"><ele>213.75</ele><time>2026-04-25T11:52:39.99Z</time></trkpt><trkpt lat="44.7824883" lon="8.3378733"><ele>213.5</ele><time>2026-04-25T11:52:40.989Z</time></trkpt><trkpt lat="44.7825683" lon="8.33802"><ele>213.25</ele><time>2026-04-25T11:52:41.989Z</time></trkpt><trkpt lat="44.7826583" lon="8.3381583"><ele>213.0</ele><time>2026-04-25T11:52:42.99Z</time></trkpt><trkpt lat="44.7827383" lon="8.338315"><ele>214.0</ele><time>2026-04-25T11:52:43.99Z</time></trkpt><trkpt lat="44.7827967" lon="8.3384767"><ele>215.0</ele><time>2026-04-25T11:52:44.99Z</time></trkpt><trkpt lat="44.7828483" lon="8.3386233"><ele>216.0</ele><time>2026-04-25T11:52:45.989Z</time></trkpt><trkpt lat="44.7828733" lon="8.3387783"><ele>217.0</ele><time>2026-04-25T11:52:46.99Z</time></trkpt><trkpt lat="44.7828667" lon="8.3389467"><ele>214.75</ele><time>2026-04-25T11:52:47.989Z</time></trkpt><trkpt lat="44.7828333" lon="8.3391367"><ele>212.5</ele><time>2026-04-25T11:52:48.99Z</time></trkpt><trkpt lat="44.7827717" lon="8.3393167"><ele>210.25</ele><time>2026-04-25T11:52:49.989Z</time></trkpt><trkpt lat="44.7826883" lon="8.3395"><ele>208.0</ele><time>2026-04-25T11:52:50.989Z</time></trkpt><trkpt lat="44.78259" lon="8.3396967"><ele>204.66666666666666</ele><time>2026-04-25T11:52:51.99Z</time></trkpt><trkpt lat="44.7824783" lon="8.3398917"><ele>201.33333333333331</ele><time>2026-04-25T11:52:52.989Z</time></trkpt><trkpt lat="44.7823717" lon="8.34011"><ele>198.0</ele><time>2026-04-25T11:52:53.989Z</time></trkpt><trkpt lat="44.7822517" lon="8.3403117"><ele>198.0</ele><time>2026-04-25T11:52:54.989Z</time></trkpt><trkpt lat="44.7821317" lon="8.3405017"><ele>198.0</ele><time>2026-04-25T11:52:55.989Z</time></trkpt><trkpt lat="44.78201" lon="8.3406933"><ele>198.0</ele><time>2026-04-25T11:52:56.99Z</time></trkpt><trkpt lat="44.781895" lon="8.340865"><ele>196.0</ele><time>2026-04-25T11:52:57.989Z</time></trkpt><trkpt lat="44.78178" lon="8.34103"><ele>194.0</ele><time>2026-04-25T11:52:58.99Z</time></trkpt><trkpt lat="44.7816533" lon="8.3412133"><ele>192.0</ele><time>2026-04-25T11:52:59.989Z</time></trkpt><trkpt lat="44.7815217" lon="8.3413967"><ele>192.0</ele><time>2026-04-25T11:53:00.989Z</time></trkpt><trkpt lat="44.7813933" lon="8.341575"><ele>192.0</ele><time>2026-04-25T11:53:01.99Z</time></trkpt><trkpt lat="44.781265" lon="8.3417683"><ele>192.0</ele><time>2026-04-25T11:53:02.989Z</time></trkpt><trkpt lat="44.7811517" lon="8.341985"><ele>192.0</ele><time>2026-04-25T11:53:03.99Z</time></trkpt><trkpt lat="44.7810333" lon="8.3422"><ele>192.0</ele><time>2026-04-25T11:53:04.989Z</time></trkpt><trkpt lat="44.7809183" lon="8.3423933"><ele>192.0</ele><time>2026-04-25T11:53:05.99Z</time></trkpt><trkpt lat="44.7808117" lon="8.342585"><ele>184.66666666666666</ele><time>2026-04-25T11:53:06.99Z</time></trkpt><trkpt lat="44.7807" lon="8.3427833"><ele>177.33333333333331</ele><time>2026-04-25T11:53:07.989Z</time></trkpt><trkpt lat="44.7806017" lon="8.3430017"><ele>170.0</ele><time>2026-04-25T11:53:08.989Z</time></trkpt><trkpt lat="44.7805083" lon="8.3432333"><ele>168.0</ele><time>2026-04-25T11:53:09.989Z</time></trkpt><trkpt lat="44.78042" lon="8.3434833"><ele>166.0</ele><time>2026-04-25T11:53:10.99Z</time></trkpt><trkpt lat="44.7803317" lon="8.34374"><ele>164.0</ele><time>2026-04-25T11:53:11.989Z</time></trkpt><trkpt lat="44.78023" lon="8.3439967"><ele>160.0</ele><time>2026-04-25T11:53:12.99Z</time></trkpt><trkpt lat="44.7801233" lon="8.34425"><ele>156.0</ele><time>2026-04-25T11:53:13.989Z</time></trkpt><trkpt lat="44.780005" lon="8.3444917"><ele>152.0</ele><time>2026-04-25T11:53:14.989Z</time></trkpt><trkpt lat="44.7798733" lon="8.3447083"><ele>153.66666666666666</ele><time>2026-04-25T11:53:15.989Z</time></trkpt><trkpt lat="44.7797317" lon="8.3449217"><ele>155.33333333333334</ele><time>2026-04-25T11:53:16.989Z</time></trkpt><trkpt lat="44.779585" lon="8.3451417"><ele>157.0</ele><time>2026-04-25T11:53:17.989Z</time></trkpt><trkpt lat="44.7794483" lon="8.34534"><ele>153.66666666666669</ele><time>2026-04-25T11:53:18.989Z</time></trkpt><trkpt lat="44.779325" lon="8.34554"><ele>150.33333333333334</ele><time>2026-04-25T11:53:19.99Z</time></trkpt><trkpt lat="44.7791967" lon="8.3457283"><ele>147.0</ele><time>2026-04-25T11:53:20.989Z</time></trkpt><trkpt lat="44.7790867" lon="8.3458967"><ele>147.0</ele><time>2026-04-25T11:53:21.99Z</time></trkpt><trkpt lat="44.778975" lon="8.3460417"><ele>147.0</ele><time>2026-04-25T11:53:22.989Z</time></trkpt><trkpt lat="44.7788783" lon="8.34614"><ele>147.0</ele><time>2026-04-25T11:53:23.989Z</time></trkpt><trkpt lat="44.77883" lon="8.3462167"><ele>147.0</ele><time>2026-04-25T11:53:24.989Z</time></trkpt><trkpt lat="44.7787883" lon="8.3462883"><ele>147.0</ele><time>2026-04-25T11:53:25.989Z</time></trkpt><trkpt lat="44.7787567" lon="8.34637"><ele>147.25</ele><time>2026-04-25T11:53:26.99Z</time></trkpt><trkpt lat="44.77872" lon="8.3464817"><ele>147.5</ele><time>2026-04-25T11:53:27.99Z</time></trkpt><trkpt lat="44.7786883" lon="8.3466317"><ele>147.75</ele><time>2026-04-25T11:53:28.989Z</time></trkpt><trkpt lat="44.7786383" lon="8.3468233"><ele>148.0</ele><time>2026-04-25T11:53:29.989Z</time></trkpt><trkpt lat="44.7786" lon="8.3470483"><ele>146.75</ele><time>2026-04-25T11:53:30.99Z</time></trkpt><trkpt lat="44.7785817" lon="8.34727"><ele>145.5</ele><time>2026-04-25T11:53:31.99Z</time></trkpt><trkpt lat="44.77858" lon="8.347475"><ele>144.25</ele><time>2026-04-25T11:53:32.989Z</time></trkpt><trkpt lat="44.778575" lon="8.3476733"><ele>143.0</ele><time>2026-04-25T11:53:33.989Z</time></trkpt><trkpt lat="44.7785517" lon="8.3478517"><ele>142.25</ele><time>2026-04-25T11:53:34.989Z</time></trkpt><trkpt lat="44.7785083" lon="8.34799"><ele>141.5</ele><time>2026-04-25T11:53:35.989Z</time></trkpt><trkpt lat="44.7784267" lon="8.3481167"><ele>140.75</ele><time>2026-04-25T11:53:36.99Z</time></trkpt><trkpt lat="44.7783183" lon="8.3482317"><ele>140.0</ele><time>2026-04-25T11:53:37.99Z</time></trkpt><trkpt lat="44.7781917" lon="8.3483383"><ele>140.0</ele><time>2026-04-25T11:53:38.989Z</time></trkpt><trkpt lat="44.7780517" lon="8.3484167"><ele>140.0</ele><time>2026-04-25T11:53:39.99Z</time></trkpt><trkpt lat="44.7779" lon="8.3484467"><ele>140.0</ele><time>2026-04-25T11:53:40.989Z</time></trkpt><trkpt lat="44.7777333" lon="8.34846"><ele>139.75</ele><time>2026-04-25T11:53:41.989Z</time></trkpt><trkpt lat="44.777575" lon="8.3484467"><ele>139.5</ele><time>2026-04-25T11:53:42.99Z</time></trkpt><trkpt lat="44.7774367" lon="8.3484383"><ele>139.25</ele><time>2026-04-25T11:53:43.99Z</time></trkpt><trkpt lat="44.7773033" lon="8.3484517"><ele>139.0</ele><time>2026-04-25T11:53:44.989Z</time></trkpt><trkpt lat="44.7771833" lon="8.3485"><ele>139.0</ele><time>2026-04-25T11:53:45.99Z</time></trkpt><trkpt lat="44.7770733" lon="8.3485683"><ele>139.0</ele><time>2026-04-25T11:53:46.99Z</time></trkpt><trkpt lat="44.7769717" lon="8.3486233"><ele>139.0</ele><time>2026-04-25T11:53:47.989Z</time></trkpt><trkpt lat="44.7768767" lon="8.3486917"><ele>139.0</ele><time>2026-04-25T11:53:48.988Z</time></trkpt><trkpt lat="44.776785" lon="8.3487633"><ele>139.0</ele><time>2026-04-25T11:53:49.989Z</time></trkpt><trkpt lat="44.77668" lon="8.348875"><ele>138.75</ele><time>2026-04-25T11:53:50.988Z</time></trkpt><trkpt lat="44.7765683" lon="8.3490167"><ele>138.5</ele><time>2026-04-25T11:53:51.988Z</time></trkpt><trkpt lat="44.77647" lon="8.349165"><ele>138.25</ele><time>2026-04-25T11:53:52.988Z</time></trkpt><trkpt lat="44.7763817" lon="8.349305"><ele>138.0</ele><time>2026-04-25T11:53:53.988Z</time></trkpt><trkpt lat="44.7762817" lon="8.3494417"><ele>138.0</ele><time>2026-04-25T11:53:54.988Z</time></trkpt><trkpt lat="44.776185" lon="8.349575"><ele>138.0</ele><time>2026-04-25T11:53:55.988Z</time></trkpt><trkpt lat="44.7760867" lon="8.3497017"><ele>138.0</ele><time>2026-04-25T11:53:56.988Z</time></trkpt><trkpt lat="44.776015" lon="8.3497933"><ele>138.0</ele><time>2026-04-25T11:53:57.988Z</time></trkpt><trkpt lat="44.77595" lon="8.34986"><ele>138.0</ele><time>2026-04-25T11:53:58.989Z</time></trkpt><trkpt lat="44.7758467" lon="8.349905"><ele>138.0</ele><time>2026-04-25T11:54:00.989Z</time></trkpt><trkpt lat="44.7757867" lon="8.3498367"><ele>138.0</ele><time>2026-04-25T11:54:01.988Z</time></trkpt><trkpt lat="44.77573" lon="8.349755"><ele>138.0</ele><time>2026-04-25T11:54:02.988Z</time></trkpt><trkpt lat="44.775665" lon="8.34967"><ele>138.0</ele><time>2026-04-25T11:54:03.988Z</time></trkpt><trkpt lat="44.7755933" lon="8.3495617"><ele>138.0</ele><time>2026-04-25T11:54:04.988Z</time></trkpt><trkpt lat="44.77549" lon="8.3493883"><ele>137.33333333333334</ele><time>2026-04-25T11:54:05.988Z</time></trkpt><trkpt lat="44.7754033" lon="8.3491883"><ele>136.66666666666669</ele><time>2026-04-25T11:54:06.988Z</time></trkpt><trkpt lat="44.77531" lon="8.34901"><ele>136.0</ele><time>2026-04-25T11:54:07.989Z</time></trkpt><trkpt lat="44.77521" lon="8.3488617"><ele>136.75</ele><time>2026-04-25T11:54:08.988Z</time></trkpt><trkpt lat="44.7751183" lon="8.3487083"><ele>137.5</ele><time>2026-04-25T11:54:09.988Z</time></trkpt><trkpt lat="44.7750183" lon="8.3485533"><ele>138.25</ele><time>2026-04-25T11:54:10.988Z</time></trkpt><trkpt lat="44.7749183" lon="8.3484083"><ele>139.0</ele><time>2026-04-25T11:54:11.989Z</time></trkpt><trkpt lat="44.77483" lon="8.34827"><ele>139.0</ele><time>2026-04-25T11:54:12.989Z</time></trkpt><trkpt lat="44.7747467" lon="8.3481433"><ele>139.0</ele><time>2026-04-25T11:54:13.988Z</time></trkpt><trkpt lat="44.7746617" lon="8.3480117"><ele>139.0</ele><time>2026-04-25T11:54:14.988Z</time></trkpt><trkpt lat="44.7745733" lon="8.3478633"><ele>139.0</ele><time>2026-04-25T11:54:15.988Z</time></trkpt><trkpt lat="44.7744833" lon="8.347715"><ele>139.0</ele><time>2026-04-25T11:54:16.988Z</time></trkpt><trkpt lat="44.7743917" lon="8.3475533"><ele>139.0</ele><time>2026-04-25T11:54:17.989Z</time></trkpt><trkpt lat="44.77429" lon="8.3474083"><ele>139.0</ele><time>2026-04-25T11:54:18.988Z</time></trkpt><trkpt lat="44.7741883" lon="8.3472683"><ele>139.0</ele><time>2026-04-25T11:54:19.988Z</time></trkpt><trkpt lat="44.7740967" lon="8.34713"><ele>139.0</ele><time>2026-04-25T11:54:20.988Z</time></trkpt><trkpt lat="44.7740067" lon="8.3469967"><ele>139.0</ele><time>2026-04-25T11:54:21.988Z</time></trkpt><trkpt lat="44.7739317" lon="8.34688"><ele>139.0</ele><time>2026-04-25T11:54:22.989Z</time></trkpt><trkpt lat="44.7738567" lon="8.3467833"><ele>139.0</ele><time>2026-04-25T11:54:23.989Z</time></trkpt><trkpt lat="44.7737883" lon="8.3467267"><ele>139.0</ele><time>2026-04-25T11:54:24.988Z</time></trkpt><trkpt lat="44.7737217" lon="8.3467083"><ele>139.0</ele><time>2026-04-25T11:54:25.988Z</time></trkpt><trkpt lat="44.7736583" lon="8.3467117"><ele>139.0</ele><time>2026-04-25T11:54:26.989Z</time></trkpt><trkpt lat="44.7735867" lon="8.3467683"><ele>139.0</ele><time>2026-04-25T11:54:27.988Z</time></trkpt><trkpt lat="44.7735133" lon="8.3468883"><ele>139.0</ele><time>2026-04-25T11:54:28.989Z</time></trkpt><trkpt lat="44.77342" lon="8.3470683"><ele>139.0</ele><time>2026-04-25T11:54:29.988Z</time></trkpt><trkpt lat="44.77333" lon="8.3472183"><ele>138.8</ele><time>2026-04-25T11:54:30.988Z</time></trkpt><trkpt lat="44.7732633" lon="8.347325"><ele>138.60000000000002</ele><time>2026-04-25T11:54:31.988Z</time></trkpt><trkpt lat="44.7732017" lon="8.3473983"><ele>138.4</ele><time>2026-04-25T11:54:32.989Z</time></trkpt><trkpt lat="44.7731283" lon="8.3475067"><ele>138.20000000000002</ele><time>2026-04-25T11:54:34.988Z</time></trkpt><trkpt lat="44.7730333" lon="8.3473683"><ele>138.0</ele><time>2026-04-25T11:54:36.988Z</time></trkpt><trkpt lat="44.7729817" lon="8.3472633"><ele>138.4</ele><time>2026-04-25T11:54:37.988Z</time></trkpt><trkpt lat="44.7729267" lon="8.3471417"><ele>138.8</ele><time>2026-04-25T11:54:38.989Z</time></trkpt><trkpt lat="44.7728617" lon="8.3470267"><ele>139.2</ele><time>2026-04-25T11:54:39.988Z</time></trkpt><trkpt lat="44.7727983" lon="8.34691"><ele>139.6</ele><time>2026-04-25T11:54:40.989Z</time></trkpt><trkpt lat="44.7727317" lon="8.3468033"><ele>140.0</ele><time>2026-04-25T11:54:41.988Z</time></trkpt><trkpt lat="44.7726633" lon="8.3467033"><ele>140.0</ele><time>2026-04-25T11:54:42.988Z</time></trkpt><trkpt lat="44.7725967" lon="8.3465933"><ele>140.0</ele><time>2026-04-25T11:54:43.989Z</time></trkpt><trkpt lat="44.7725433" lon="8.34649"><ele>140.0</ele><time>2026-04-25T11:54:44.988Z</time></trkpt><trkpt lat="44.7724767" lon="8.3463983"><ele>140.0</ele><time>2026-04-25T11:54:45.988Z</time></trkpt><trkpt lat="44.7724167" lon="8.3463117"><ele>140.0</ele><time>2026-04-25T11:54:46.989Z</time></trkpt><trkpt lat="44.7723683" lon="8.3462183"><ele>140.0</ele><time>2026-04-25T11:54:47.989Z</time></trkpt><trkpt lat="44.7723183" lon="8.34612"><ele>140.0</ele><time>2026-04-25T11:54:48.988Z</time></trkpt><trkpt lat="44.77227" lon="8.3460233"><ele>140.0</ele><time>2026-04-25T11:54:49.988Z</time></trkpt><trkpt lat="44.7722233" lon="8.3459367"><ele>140.0</ele><time>2026-04-25T11:54:50.988Z</time></trkpt><trkpt lat="44.7721433" lon="8.345785"><ele>140.0</ele><time>2026-04-25T11:54:52.988Z</time></trkpt><trkpt lat="44.7720967" lon="8.3456883"><ele>140.0</ele><time>2026-04-25T11:54:53.989Z</time></trkpt><trkpt lat="44.7720533" lon="8.345595"><ele>140.0</ele><time>2026-04-25T11:54:54.988Z</time></trkpt><trkpt lat="44.772005" lon="8.3455033"><ele>140.0</ele><time>2026-04-25T11:54:55.989Z</time></trkpt><trkpt lat="44.77195" lon="8.3454417"><ele>140.0</ele><time>2026-04-25T11:54:56.988Z</time></trkpt><trkpt lat="44.77184" lon="8.34546"><ele>140.0</ele><time>2026-04-25T11:54:58.988Z</time></trkpt><trkpt lat="44.771785" lon="8.3456"><ele>140.0</ele><time>2026-04-25T11:55:00.989Z</time></trkpt><trkpt lat="44.7718067" lon="8.345775"><ele>140.0</ele><time>2026-04-25T11:55:02.988Z</time></trkpt><trkpt lat="44.7718417" lon="8.3458583"><ele>140.0</ele><time>2026-04-25T11:55:03.988Z</time></trkpt><trkpt lat="44.77188" lon="8.3459383"><ele>140.0</ele><time>2026-04-25T11:55:04.988Z</time></trkpt><trkpt lat="44.7719183" lon="8.3460183"><ele>140.0</ele><time>2026-04-25T11:55:05.989Z</time></trkpt><trkpt lat="44.7719567" lon="8.3460917"><ele>140.0</ele><time>2026-04-25T11:55:06.989Z</time></trkpt><trkpt lat="44.7719817" lon="8.3462133"><ele>140.0</ele><time>2026-04-25T11:55:08.989Z</time></trkpt><trkpt lat="44.7720233" lon="8.3462983"><ele>140.0</ele><time>2026-04-25T11:55:10.988Z</time></trkpt><trkpt lat="44.7720983" lon="8.3462767"><ele>140.0</ele><time>2026-04-25T11:55:13.988Z</time></trkpt><trkpt lat="44.77211" lon="8.3461683"><ele>140.0</ele><time>2026-04-25T11:55:17.988Z</time></trkpt><trkpt lat="44.7721033" lon="8.3460067"><ele>140.0</ele><time>2026-04-25T11:59:27.987Z</time></trkpt><trkpt lat="44.7720633" lon="8.3458983"><ele>140.0</ele><time>2026-04-25T11:59:40.987Z</time></trkpt><trkpt lat="44.7720017" lon="8.3458283"><ele>140.0</ele><time>2026-04-25T11:59:42.988Z</time></trkpt><trkpt lat="44.7719283" lon="8.3457717"><ele>140.0</ele><time>2026-04-25T11:59:44.988Z</time></trkpt><trkpt lat="44.7718433" lon="8.3457367"><ele>140.0</ele><time>2026-04-25T11:59:47.987Z</time></trkpt><trkpt lat="44.771785" lon="8.3456567"><ele>140.0</ele><time>2026-04-25T11:59:49.987Z</time></trkpt><trkpt lat="44.771735" lon="8.3455117"><ele>140.0</ele><time>2026-04-25T11:59:51.988Z</time></trkpt><trkpt lat="44.7716833" lon="8.3453517"><ele>140.0</ele><time>2026-04-25T11:59:53.987Z</time></trkpt><trkpt lat="44.771655" lon="8.3452567"><ele>140.0</ele><time>2026-04-25T11:59:54.988Z</time></trkpt><trkpt lat="44.771625" lon="8.3451567"><ele>140.0</ele><time>2026-04-25T11:59:55.987Z</time></trkpt><trkpt lat="44.771595" lon="8.3450383"><ele>140.0</ele><time>2026-04-25T11:59:56.988Z</time></trkpt><trkpt lat="44.7715633" lon="8.3449233"><ele>140.0</ele><time>2026-04-25T11:59:57.987Z</time></trkpt><trkpt lat="44.7715383" lon="8.3448"><ele>140.0</ele><time>2026-04-25T11:59:58.988Z</time></trkpt><trkpt lat="44.7715217" lon="8.344665"><ele>140.0</ele><time>2026-04-25T11:59:59.987Z</time></trkpt><trkpt lat="44.7715" lon="8.3445233"><ele>140.0</ele><time>2026-04-25T12:00:00.987Z</time></trkpt><trkpt lat="44.7714833" lon="8.344355"><ele>140.0</ele><time>2026-04-25T12:00:01.988Z</time></trkpt><trkpt lat="44.771455" lon="8.3441733"><ele>140.0</ele><time>2026-04-25T12:00:02.987Z</time></trkpt><trkpt lat="44.771425" lon="8.3439683"><ele>140.0</ele><time>2026-04-25T12:00:03.987Z</time></trkpt><trkpt lat="44.7713983" lon="8.3437533"><ele>140.0</ele><time>2026-04-25T12:00:04.987Z</time></trkpt><trkpt lat="44.7713683" lon="8.3435367"><ele>140.0</ele><time>2026-04-25T12:00:05.988Z</time></trkpt><trkpt lat="44.771335" lon="8.3433133"><ele>140.0</ele><time>2026-04-25T12:00:06.987Z</time></trkpt><trkpt lat="44.7713017" lon="8.3430783"><ele>140.0</ele><time>2026-04-25T12:00:07.987Z</time></trkpt><trkpt lat="44.77127" lon="8.3428383"><ele>140.0</ele><time>2026-04-25T12:00:08.987Z</time></trkpt><trkpt lat="44.771235" lon="8.342585"><ele>140.33333333333331</ele><time>2026-04-25T12:00:09.987Z</time></trkpt><trkpt lat="44.7711967" lon="8.3423383"><ele>140.66666666666666</ele><time>2026-04-25T12:00:10.988Z</time></trkpt><trkpt lat="44.77116" lon="8.3420717"><ele>141.0</ele><time>2026-04-25T12:00:11.987Z</time></trkpt><trkpt lat="44.7711217" lon="8.341795"><ele>140.66666666666666</ele><time>2026-04-25T12:00:12.987Z</time></trkpt><trkpt lat="44.7710867" lon="8.3415317"><ele>140.33333333333331</ele><time>2026-04-25T12:00:13.987Z</time></trkpt><trkpt lat="44.7710483" lon="8.3412933"><ele>140.0</ele><time>2026-04-25T12:00:14.988Z</time></trkpt><trkpt lat="44.771015" lon="8.341055"><ele>140.0</ele><time>2026-04-25T12:00:15.987Z</time></trkpt><trkpt lat="44.7709767" lon="8.3408017"><ele>140.0</ele><time>2026-04-25T12:00:16.987Z</time></trkpt><trkpt lat="44.7709383" lon="8.3405533"><ele>140.0</ele><time>2026-04-25T12:00:17.987Z</time></trkpt><trkpt lat="44.770895" lon="8.3402917"><ele>140.0</ele><time>2026-04-25T12:00:18.987Z</time></trkpt><trkpt lat="44.7708617" lon="8.340025"><ele>140.0</ele><time>2026-04-25T12:00:19.988Z</time></trkpt><trkpt lat="44.7708367" lon="8.3397383"><ele>140.0</ele><time>2026-04-25T12:00:20.987Z</time></trkpt><trkpt lat="44.7708067" lon="8.3394567"><ele>140.0</ele><time>2026-04-25T12:00:21.988Z</time></trkpt><trkpt lat="44.7707683" lon="8.3391783"><ele>140.0</ele><time>2026-04-25T12:00:22.988Z</time></trkpt><trkpt lat="44.77073" lon="8.3389167"><ele>140.0</ele><time>2026-04-25T12:00:23.987Z</time></trkpt><trkpt lat="44.7707" lon="8.3386483"><ele>140.0</ele><time>2026-04-25T12:00:24.987Z</time></trkpt><trkpt lat="44.7706667" lon="8.338385"><ele>140.0</ele><time>2026-04-25T12:00:25.987Z</time></trkpt><trkpt lat="44.7706317" lon="8.33813"><ele>140.0</ele><time>2026-04-25T12:00:26.987Z</time></trkpt><trkpt lat="44.7705983" lon="8.3379167"><ele>140.0</ele><time>2026-04-25T12:00:27.988Z</time></trkpt><trkpt lat="44.770555" lon="8.3377433"><ele>140.0</ele><time>2026-04-25T12:00:28.988Z</time></trkpt><trkpt lat="44.77052" lon="8.3375733"><ele>140.0</ele><time>2026-04-25T12:00:29.987Z</time></trkpt><trkpt lat="44.770485" lon="8.3374317"><ele>140.0</ele><time>2026-04-25T12:00:30.987Z</time></trkpt><trkpt lat="44.77046" lon="8.33728"><ele>140.0</ele><time>2026-04-25T12:00:31.987Z</time></trkpt><trkpt lat="44.7704333" lon="8.3371083"><ele>140.0</ele><time>2026-04-25T12:00:32.987Z</time></trkpt><trkpt lat="44.7704117" lon="8.3369217"><ele>140.0</ele><time>2026-04-25T12:00:33.988Z</time></trkpt><trkpt lat="44.77041" lon="8.3367383"><ele>140.0</ele><time>2026-04-25T12:00:34.987Z</time></trkpt><trkpt lat="44.7704133" lon="8.3365317"><ele>139.66666666666666</ele><time>2026-04-25T12:00:35.987Z</time></trkpt><trkpt lat="44.770395" lon="8.336295"><ele>139.33333333333334</ele><time>2026-04-25T12:00:36.988Z</time></trkpt><trkpt lat="44.77036" lon="8.3360517"><ele>139.0</ele><time>2026-04-25T12:00:37.987Z</time></trkpt><trkpt lat="44.7703333" lon="8.3357867"><ele>139.0</ele><time>2026-04-25T12:00:38.988Z</time></trkpt><trkpt lat="44.7702983" lon="8.3355183"><ele>139.0</ele><time>2026-04-25T12:00:39.987Z</time></trkpt><trkpt lat="44.7702583" lon="8.335255"><ele>139.0</ele><time>2026-04-25T12:00:40.987Z</time></trkpt><trkpt lat="44.7702183" lon="8.3349883"><ele>140.0</ele><time>2026-04-25T12:00:41.987Z</time></trkpt><trkpt lat="44.7701783" lon="8.3347017"><ele>141.0</ele><time>2026-04-25T12:00:42.988Z</time></trkpt><trkpt lat="44.77014" lon="8.3344167"><ele>142.0</ele><time>2026-04-25T12:00:43.988Z</time></trkpt><trkpt lat="44.7700983" lon="8.3341083"><ele>140.0</ele><time>2026-04-25T12:00:44.987Z</time></trkpt><trkpt lat="44.7700633" lon="8.333795"><ele>138.0</ele><time>2026-04-25T12:00:45.988Z</time></trkpt><trkpt lat="44.7700167" lon="8.3334767"><ele>138.0</ele><time>2026-04-25T12:00:46.987Z</time></trkpt><trkpt lat="44.7699717" lon="8.3331533"><ele>138.0</ele><time>2026-04-25T12:00:47.987Z</time></trkpt><trkpt lat="44.7699283" lon="8.3328367"><ele>139.0</ele><time>2026-04-25T12:00:48.987Z</time></trkpt><trkpt lat="44.7698833" lon="8.332515"><ele>140.0</ele><time>2026-04-25T12:00:49.987Z</time></trkpt><trkpt lat="44.7698417" lon="8.33219"><ele>140.0</ele><time>2026-04-25T12:00:50.987Z</time></trkpt><trkpt lat="44.7697917" lon="8.331875"><ele>140.0</ele><time>2026-04-25T12:00:51.988Z</time></trkpt><trkpt lat="44.7697483" lon="8.3315567"><ele>139.0</ele><time>2026-04-25T12:00:52.987Z</time></trkpt><trkpt lat="44.7697117" lon="8.3312333"><ele>138.0</ele><time>2026-04-25T12:00:53.988Z</time></trkpt><trkpt lat="44.7696783" lon="8.3309217"><ele>138.0</ele><time>2026-04-25T12:00:54.987Z</time></trkpt><trkpt lat="44.7696383" lon="8.3306033"><ele>138.0</ele><time>2026-04-25T12:00:55.987Z</time></trkpt><trkpt lat="44.7695933" lon="8.3302783"><ele>138.5</ele><time>2026-04-25T12:00:56.988Z</time></trkpt><trkpt lat="44.7695417" lon="8.32996"><ele>139.0</ele><time>2026-04-25T12:00:57.987Z</time></trkpt><trkpt lat="44.7694967" lon="8.3296433"><ele>139.0</ele><time>2026-04-25T12:00:58.987Z</time></trkpt><trkpt lat="44.7694567" lon="8.3293283"><ele>139.0</ele><time>2026-04-25T12:00:59.987Z</time></trkpt><trkpt lat="44.7694083" lon="8.3290183"><ele>139.0</ele><time>2026-04-25T12:01:00.987Z</time></trkpt><trkpt lat="44.769365" lon="8.3287017"><ele>139.0</ele><time>2026-04-25T12:01:01.988Z</time></trkpt><trkpt lat="44.7693233" lon="8.3283933"><ele>139.5</ele><time>2026-04-25T12:01:02.987Z</time></trkpt><trkpt lat="44.7692733" lon="8.328085"><ele>140.0</ele><time>2026-04-25T12:01:03.987Z</time></trkpt><trkpt lat="44.769235" lon="8.3277633"><ele>140.0</ele><time>2026-04-25T12:01:04.988Z</time></trkpt><trkpt lat="44.7692" lon="8.327435"><ele>140.0</ele><time>2026-04-25T12:01:05.987Z</time></trkpt><trkpt lat="44.7691733" lon="8.327115"><ele>141.0</ele><time>2026-04-25T12:01:06.987Z</time></trkpt><trkpt lat="44.7691667" lon="8.3267917"><ele>142.0</ele><time>2026-04-25T12:01:07.988Z</time></trkpt><trkpt lat="44.7691683" lon="8.32645"><ele>142.5</ele><time>2026-04-25T12:01:08.988Z</time></trkpt><trkpt lat="44.769185" lon="8.3261167"><ele>143.0</ele><time>2026-04-25T12:01:09.987Z</time></trkpt><trkpt lat="44.7692183" lon="8.3257733"><ele>142.5</ele><time>2026-04-25T12:01:10.988Z</time></trkpt><trkpt lat="44.7692467" lon="8.3254317"><ele>142.0</ele><time>2026-04-25T12:01:11.988Z</time></trkpt><trkpt lat="44.76928" lon="8.325085"><ele>142.0</ele><time>2026-04-25T12:01:12.988Z</time></trkpt><trkpt lat="44.7693117" lon="8.3247367"><ele>142.0</ele><time>2026-04-25T12:01:13.988Z</time></trkpt><trkpt lat="44.7693367" lon="8.3244017"><ele>153.5</ele><time>2026-04-25T12:01:14.987Z</time></trkpt><trkpt lat="44.7693633" lon="8.3240567"><ele>165.0</ele><time>2026-04-25T12:01:15.987Z</time></trkpt><trkpt lat="44.7694" lon="8.3237017"><ele>165.5</ele><time>2026-04-25T12:01:16.987Z</time></trkpt><trkpt lat="44.7694167" lon="8.32336"><ele>166.0</ele><time>2026-04-25T12:01:17.987Z</time></trkpt><trkpt lat="44.76944" lon="8.323005"><ele>160.0</ele><time>2026-04-25T12:01:18.988Z</time></trkpt><trkpt lat="44.7694667" lon="8.3226633"><ele>154.0</ele><time>2026-04-25T12:01:19.987Z</time></trkpt><trkpt lat="44.7695117" lon="8.32229"><ele>149.0</ele><time>2026-04-25T12:01:20.987Z</time></trkpt><trkpt lat="44.7695233" lon="8.321945"><ele>144.0</ele><time>2026-04-25T12:01:21.988Z</time></trkpt><trkpt lat="44.769545" lon="8.3216033"><ele>143.5</ele><time>2026-04-25T12:01:22.988Z</time></trkpt><trkpt lat="44.7695733" lon="8.321245"><ele>143.0</ele><time>2026-04-25T12:01:23.987Z</time></trkpt><trkpt lat="44.7695983" lon="8.3208883"><ele>142.5</ele><time>2026-04-25T12:01:24.988Z</time></trkpt><trkpt lat="44.7696217" lon="8.320535"><ele>142.0</ele><time>2026-04-25T12:01:25.987Z</time></trkpt><trkpt lat="44.7696533" lon="8.3201817"><ele>142.0</ele><time>2026-04-25T12:01:26.988Z</time></trkpt><trkpt lat="44.7696733" lon="8.3198367"><ele>142.0</ele><time>2026-04-25T12:01:27.987Z</time></trkpt><trkpt lat="44.7696983" lon="8.3194817"><ele>142.0</ele><time>2026-04-25T12:01:28.987Z</time></trkpt><trkpt lat="44.76973" lon="8.3191217"><ele>142.0</ele><time>2026-04-25T12:01:29.988Z</time></trkpt><trkpt lat="44.7697533" lon="8.3187583"><ele>142.0</ele><time>2026-04-25T12:01:30.987Z</time></trkpt><trkpt lat="44.7697767" lon="8.3183967"><ele>142.0</ele><time>2026-04-25T12:01:31.987Z</time></trkpt><trkpt lat="44.7698083" lon="8.31804"><ele>142.5</ele><time>2026-04-25T12:01:32.987Z</time></trkpt><trkpt lat="44.769835" lon="8.3176883"><ele>143.0</ele><time>2026-04-25T12:01:33.987Z</time></trkpt><trkpt lat="44.76987" lon="8.3173233"><ele>143.0</ele><time>2026-04-25T12:01:34.987Z</time></trkpt><trkpt lat="44.7698967" lon="8.3169683"><ele>143.0</ele><time>2026-04-25T12:01:35.987Z</time></trkpt><trkpt lat="44.7699283" lon="8.3166067"><ele>143.5</ele><time>2026-04-25T12:01:36.988Z</time></trkpt><trkpt lat="44.7699567" lon="8.316255"><ele>144.0</ele><time>2026-04-25T12:01:37.987Z</time></trkpt><trkpt lat="44.7699783" lon="8.315905"><ele>144.5</ele><time>2026-04-25T12:01:38.987Z</time></trkpt><trkpt lat="44.7699917" lon="8.3155583"><ele>145.0</ele><time>2026-04-25T12:01:39.987Z</time></trkpt><trkpt lat="44.7700217" lon="8.3152033"><ele>145.0</ele><time>2026-04-25T12:01:40.987Z</time></trkpt><trkpt lat="44.7700417" lon="8.3148483"><ele>145.0</ele><time>2026-04-25T12:01:41.987Z</time></trkpt><trkpt lat="44.7700733" lon="8.3144933"><ele>144.5</ele><time>2026-04-25T12:01:42.987Z</time></trkpt><trkpt lat="44.7701083" lon="8.314135"><ele>144.0</ele><time>2026-04-25T12:01:43.987Z</time></trkpt><trkpt lat="44.7701433" lon="8.3137833"><ele>143.5</ele><time>2026-04-25T12:01:44.987Z</time></trkpt><trkpt lat="44.7701733" lon="8.3134333"><ele>143.0</ele><time>2026-04-25T12:01:45.988Z</time></trkpt><trkpt lat="44.7702017" lon="8.3130867"><ele>145.5</ele><time>2026-04-25T12:01:46.988Z</time></trkpt><trkpt lat="44.7702283" lon="8.3127433"><ele>148.0</ele><time>2026-04-25T12:01:47.988Z</time></trkpt><trkpt lat="44.7702483" lon="8.3123983"><ele>147.0</ele><time>2026-04-25T12:01:48.988Z</time></trkpt><trkpt lat="44.77027" lon="8.312055"><ele>146.0</ele><time>2026-04-25T12:01:49.987Z</time></trkpt><trkpt lat="44.770295" lon="8.31171"><ele>147.0</ele><time>2026-04-25T12:01:50.987Z</time></trkpt><trkpt lat="44.7703167" lon="8.311385"><ele>148.0</ele><time>2026-04-25T12:01:51.988Z</time></trkpt><trkpt lat="44.77034" lon="8.3110767"><ele>148.0</ele><time>2026-04-25T12:01:52.987Z</time></trkpt><trkpt lat="44.77036" lon="8.3107833"><ele>148.0</ele><time>2026-04-25T12:01:53.988Z</time></trkpt><trkpt lat="44.7703733" lon="8.31051"><ele>148.0</ele><time>2026-04-25T12:01:54.988Z</time></trkpt><trkpt lat="44.7704" lon="8.3102283"><ele>148.0</ele><time>2026-04-25T12:01:55.987Z</time></trkpt><trkpt lat="44.7704233" lon="8.3099433"><ele>148.0</ele><time>2026-04-25T12:01:56.988Z</time></trkpt><trkpt lat="44.77044" lon="8.309665"><ele>148.0</ele><time>2026-04-25T12:01:57.987Z</time></trkpt><trkpt lat="44.77045" lon="8.3094"><ele>148.33333333333334</ele><time>2026-04-25T12:01:58.987Z</time></trkpt><trkpt lat="44.7704733" lon="8.3091283"><ele>148.66666666666666</ele><time>2026-04-25T12:01:59.987Z</time></trkpt><trkpt lat="44.770495" lon="8.3088683"><ele>149.0</ele><time>2026-04-25T12:02:00.987Z</time></trkpt><trkpt lat="44.77052" lon="8.308605"><ele>148.33333333333331</ele><time>2026-04-25T12:02:01.987Z</time></trkpt><trkpt lat="44.7705483" lon="8.3083483"><ele>147.66666666666666</ele><time>2026-04-25T12:02:02.987Z</time></trkpt><trkpt lat="44.7705983" lon="8.30808"><ele>147.0</ele><time>2026-04-25T12:02:03.988Z</time></trkpt><trkpt lat="44.7706783" lon="8.30786"><ele>146.66666666666666</ele><time>2026-04-25T12:02:04.987Z</time></trkpt><trkpt lat="44.77079" lon="8.30764"><ele>146.33333333333331</ele><time>2026-04-25T12:02:05.987Z</time></trkpt><trkpt lat="44.7709083" lon="8.3074417"><ele>146.0</ele><time>2026-04-25T12:02:06.987Z</time></trkpt><trkpt lat="44.771025" lon="8.307275"><ele>145.75</ele><time>2026-04-25T12:02:07.988Z</time></trkpt><trkpt lat="44.7711417" lon="8.30713"><ele>145.5</ele><time>2026-04-25T12:02:08.986Z</time></trkpt><trkpt lat="44.7712467" lon="8.3069883"><ele>145.25</ele><time>2026-04-25T12:02:09.986Z</time></trkpt><trkpt lat="44.7713433" lon="8.3068467"><ele>145.0</ele><time>2026-04-25T12:02:10.986Z</time></trkpt><trkpt lat="44.7714483" lon="8.306705"><ele>145.0</ele><time>2026-04-25T12:02:11.987Z</time></trkpt><trkpt lat="44.7715517" lon="8.3065717"><ele>145.0</ele><time>2026-04-25T12:02:12.987Z</time></trkpt><trkpt lat="44.7716583" lon="8.3064283"><ele>145.0</ele><time>2026-04-25T12:02:13.986Z</time></trkpt><trkpt lat="44.7717617" lon="8.30627"><ele>145.0</ele><time>2026-04-25T12:02:14.986Z</time></trkpt><trkpt lat="44.7718583" lon="8.30613"><ele>145.0</ele><time>2026-04-25T12:02:15.987Z</time></trkpt><trkpt lat="44.7719567" lon="8.3059833"><ele>145.0</ele><time>2026-04-25T12:02:16.987Z</time></trkpt><trkpt lat="44.77207" lon="8.305835"><ele>145.0</ele><time>2026-04-25T12:02:17.987Z</time></trkpt><trkpt lat="44.772175" lon="8.3056817"><ele>145.0</ele><time>2026-04-25T12:02:18.986Z</time></trkpt><trkpt lat="44.7722783" lon="8.305525"><ele>145.0</ele><time>2026-04-25T12:02:19.986Z</time></trkpt><trkpt lat="44.7723817" lon="8.305375"><ele>145.0</ele><time>2026-04-25T12:02:20.986Z</time></trkpt><trkpt lat="44.772495" lon="8.3052383"><ele>145.0</ele><time>2026-04-25T12:02:21.986Z</time></trkpt><trkpt lat="44.7726067" lon="8.3050917"><ele>144.66666666666669</ele><time>2026-04-25T12:02:22.987Z</time></trkpt><trkpt lat="44.77271" lon="8.3049367"><ele>144.33333333333334</ele><time>2026-04-25T12:02:23.986Z</time></trkpt><trkpt lat="44.77282" lon="8.3047967"><ele>144.0</ele><time>2026-04-25T12:02:24.986Z</time></trkpt><trkpt lat="44.7729267" lon="8.304645"><ele>144.0</ele><time>2026-04-25T12:02:25.986Z</time></trkpt><trkpt lat="44.77303" lon="8.304495"><ele>144.0</ele><time>2026-04-25T12:02:26.987Z</time></trkpt><trkpt lat="44.7731333" lon="8.3043483"><ele>144.0</ele><time>2026-04-25T12:02:27.986Z</time></trkpt><trkpt lat="44.7732333" lon="8.304205"><ele>144.0</ele><time>2026-04-25T12:02:28.986Z</time></trkpt><trkpt lat="44.7733267" lon="8.304065"><ele>144.0</ele><time>2026-04-25T12:02:29.986Z</time></trkpt><trkpt lat="44.7734233" lon="8.30393"><ele>144.0</ele><time>2026-04-25T12:02:30.986Z</time></trkpt><trkpt lat="44.7735133" lon="8.3037933"><ele>144.0</ele><time>2026-04-25T12:02:31.986Z</time></trkpt><trkpt lat="44.7736067" lon="8.3036517"><ele>144.0</ele><time>2026-04-25T12:02:32.987Z</time></trkpt><trkpt lat="44.7737033" lon="8.3035133"><ele>144.0</ele><time>2026-04-25T12:02:33.986Z</time></trkpt><trkpt lat="44.773805" lon="8.3033833"><ele>144.0</ele><time>2026-04-25T12:02:34.986Z</time></trkpt><trkpt lat="44.773905" lon="8.3032417"><ele>144.0</ele><time>2026-04-25T12:02:35.986Z</time></trkpt><trkpt lat="44.7740133" lon="8.3030917"><ele>144.0</ele><time>2026-04-25T12:02:36.986Z</time></trkpt><trkpt lat="44.7741133" lon="8.30295"><ele>144.25</ele><time>2026-04-25T12:02:37.986Z</time></trkpt><trkpt lat="44.7742117" lon="8.3027983"><ele>144.5</ele><time>2026-04-25T12:02:38.986Z</time></trkpt><trkpt lat="44.77431" lon="8.3026483"><ele>144.75</ele><time>2026-04-25T12:02:39.987Z</time></trkpt><trkpt lat="44.774415" lon="8.3024917"><ele>145.0</ele><time>2026-04-25T12:02:40.986Z</time></trkpt><trkpt lat="44.7745117" lon="8.302325"><ele>144.0</ele><time>2026-04-25T12:02:41.986Z</time></trkpt><trkpt lat="44.7746033" lon="8.3021583"><ele>143.0</ele><time>2026-04-25T12:02:42.986Z</time></trkpt><trkpt lat="44.7746917" lon="8.3019833"><ele>142.0</ele><time>2026-04-25T12:02:43.986Z</time></trkpt><trkpt lat="44.774785" lon="8.3017967"><ele>142.0</ele><time>2026-04-25T12:02:44.987Z</time></trkpt><trkpt lat="44.7748733" lon="8.3016"><ele>142.0</ele><time>2026-04-25T12:02:45.987Z</time></trkpt><trkpt lat="44.774945" lon="8.3014083"><ele>142.0</ele><time>2026-04-25T12:02:46.986Z</time></trkpt><trkpt lat="44.77502" lon="8.30122"><ele>142.0</ele><time>2026-04-25T12:02:47.986Z</time></trkpt><trkpt lat="44.7751067" lon="8.3010217"><ele>142.0</ele><time>2026-04-25T12:02:48.986Z</time></trkpt><trkpt lat="44.7751867" lon="8.3008217"><ele>142.0</ele><time>2026-04-25T12:02:49.986Z</time></trkpt><trkpt lat="44.7752483" lon="8.3006333"><ele>142.5</ele><time>2026-04-25T12:02:50.987Z</time></trkpt><trkpt lat="44.7753017" lon="8.30045"><ele>143.0</ele><time>2026-04-25T12:02:51.987Z</time></trkpt><trkpt lat="44.77535" lon="8.3002783"><ele>143.5</ele><time>2026-04-25T12:02:52.986Z</time></trkpt><trkpt lat="44.7754" lon="8.300095"><ele>144.0</ele><time>2026-04-25T12:02:53.986Z</time></trkpt><trkpt lat="44.7754583" lon="8.2999017"><ele>144.25</ele><time>2026-04-25T12:02:54.986Z</time></trkpt><trkpt lat="44.77551" lon="8.2997033"><ele>144.5</ele><time>2026-04-25T12:02:55.986Z</time></trkpt><trkpt lat="44.775545" lon="8.2995033"><ele>144.75</ele><time>2026-04-25T12:02:56.987Z</time></trkpt><trkpt lat="44.77558" lon="8.2992967"><ele>145.0</ele><time>2026-04-25T12:02:57.987Z</time></trkpt><trkpt lat="44.7756217" lon="8.2990983"><ele>145.33333333333334</ele><time>2026-04-25T12:02:58.987Z</time></trkpt><trkpt lat="44.775645" lon="8.298905"><ele>145.66666666666666</ele><time>2026-04-25T12:02:59.986Z</time></trkpt><trkpt lat="44.775665" lon="8.2986917"><ele>146.0</ele><time>2026-04-25T12:03:00.986Z</time></trkpt><trkpt lat="44.7756933" lon="8.2984683"><ele>146.0</ele><time>2026-04-25T12:03:01.986Z</time></trkpt><trkpt lat="44.77571" lon="8.2982567"><ele>146.0</ele><time>2026-04-25T12:03:02.986Z</time></trkpt><trkpt lat="44.7757317" lon="8.2980217"><ele>146.0</ele><time>2026-04-25T12:03:03.986Z</time></trkpt><trkpt lat="44.7757383" lon="8.2978"><ele>145.66666666666666</ele><time>2026-04-25T12:03:04.987Z</time></trkpt><trkpt lat="44.77575" lon="8.2975783"><ele>145.33333333333334</ele><time>2026-04-25T12:03:05.986Z</time></trkpt><trkpt lat="44.775765" lon="8.2973617"><ele>145.0</ele><time>2026-04-25T12:03:06.986Z</time></trkpt><trkpt lat="44.775785" lon="8.2971417"><ele>144.66666666666669</ele><time>2026-04-25T12:03:07.986Z</time></trkpt><trkpt lat="44.7758067" lon="8.2969133"><ele>144.33333333333334</ele><time>2026-04-25T12:03:08.986Z</time></trkpt><trkpt lat="44.7758283" lon="8.29668"><ele>144.0</ele><time>2026-04-25T12:03:09.986Z</time></trkpt><trkpt lat="44.77585" lon="8.2964483"><ele>144.33333333333334</ele><time>2026-04-25T12:03:10.987Z</time></trkpt><trkpt lat="44.7758567" lon="8.296205"><ele>144.66666666666669</ele><time>2026-04-25T12:03:11.987Z</time></trkpt><trkpt lat="44.7758783" lon="8.2959667"><ele>145.0</ele><time>2026-04-25T12:03:12.986Z</time></trkpt><trkpt lat="44.7758983" lon="8.2957183"><ele>145.0</ele><time>2026-04-25T12:03:13.986Z</time></trkpt><trkpt lat="44.775925" lon="8.29547"><ele>145.0</ele><time>2026-04-25T12:03:14.986Z</time></trkpt><trkpt lat="44.7759467" lon="8.2952067"><ele>145.0</ele><time>2026-04-25T12:03:15.986Z</time></trkpt><trkpt lat="44.7759617" lon="8.2949467"><ele>145.0</ele><time>2026-04-25T12:03:16.987Z</time></trkpt><trkpt lat="44.7759817" lon="8.2946783"><ele>145.0</ele><time>2026-04-25T12:03:17.986Z</time></trkpt><trkpt lat="44.775995" lon="8.29442"><ele>145.0</ele><time>2026-04-25T12:03:18.986Z</time></trkpt><trkpt lat="44.7760117" lon="8.29416"><ele>145.33333333333334</ele><time>2026-04-25T12:03:19.987Z</time></trkpt><trkpt lat="44.7760333" lon="8.29391"><ele>145.66666666666666</ele><time>2026-04-25T12:03:20.986Z</time></trkpt><trkpt lat="44.7760467" lon="8.293635"><ele>146.0</ele><time>2026-04-25T12:03:21.987Z</time></trkpt><trkpt lat="44.7760633" lon="8.2933517"><ele>145.33333333333331</ele><time>2026-04-25T12:03:22.986Z</time></trkpt><trkpt lat="44.7760733" lon="8.2930667"><ele>144.66666666666666</ele><time>2026-04-25T12:03:23.987Z</time></trkpt><trkpt lat="44.7760983" lon="8.2927633"><ele>144.0</ele><time>2026-04-25T12:03:24.986Z</time></trkpt><trkpt lat="44.776125" lon="8.292465"><ele>144.33333333333334</ele><time>2026-04-25T12:03:25.986Z</time></trkpt><trkpt lat="44.7761517" lon="8.2921717"><ele>144.66666666666669</ele><time>2026-04-25T12:03:26.986Z</time></trkpt><trkpt lat="44.7761783" lon="8.2918733"><ele>145.0</ele><time>2026-04-25T12:03:27.986Z</time></trkpt><trkpt lat="44.776195" lon="8.29155"><ele>145.66666666666669</ele><time>2026-04-25T12:03:28.987Z</time></trkpt><trkpt lat="44.7762117" lon="8.29124"><ele>146.33333333333334</ele><time>2026-04-25T12:03:29.986Z</time></trkpt><trkpt lat="44.7762317" lon="8.2909317"><ele>147.0</ele><time>2026-04-25T12:03:30.987Z</time></trkpt><trkpt lat="44.7762567" lon="8.290605"><ele>147.0</ele><time>2026-04-25T12:03:31.987Z</time></trkpt><trkpt lat="44.7762817" lon="8.290295"><ele>147.0</ele><time>2026-04-25T12:03:32.986Z</time></trkpt><trkpt lat="44.7763" lon="8.28998"><ele>147.0</ele><time>2026-04-25T12:03:33.986Z</time></trkpt><trkpt lat="44.7763233" lon="8.28966"><ele>146.66666666666666</ele><time>2026-04-25T12:03:34.987Z</time></trkpt><trkpt lat="44.776355" lon="8.28934"><ele>146.33333333333331</ele><time>2026-04-25T12:03:35.986Z</time></trkpt><trkpt lat="44.7763767" lon="8.2890333"><ele>146.0</ele><time>2026-04-25T12:03:36.986Z</time></trkpt><trkpt lat="44.7763867" lon="8.28873"><ele>146.0</ele><time>2026-04-25T12:03:37.987Z</time></trkpt><trkpt lat="44.7764017" lon="8.2884217"><ele>146.0</ele><time>2026-04-25T12:03:38.986Z</time></trkpt><trkpt lat="44.7764167" lon="8.2881233"><ele>146.0</ele><time>2026-04-25T12:03:39.987Z</time></trkpt><trkpt lat="44.7764383" lon="8.2878267"><ele>146.0</ele><time>2026-04-25T12:03:40.986Z</time></trkpt><trkpt lat="44.77646" lon="8.2875233"><ele>146.0</ele><time>2026-04-25T12:03:41.986Z</time></trkpt><trkpt lat="44.7764783" lon="8.2872317"><ele>146.0</ele><time>2026-04-25T12:03:42.987Z</time></trkpt><trkpt lat="44.776495" lon="8.286965"><ele>146.0</ele><time>2026-04-25T12:03:43.987Z</time></trkpt><trkpt lat="44.77652" lon="8.2866983"><ele>146.0</ele><time>2026-04-25T12:03:44.986Z</time></trkpt><trkpt lat="44.77654" lon="8.2864567"><ele>146.0</ele><time>2026-04-25T12:03:45.987Z</time></trkpt><trkpt lat="44.7765617" lon="8.2862083"><ele>145.66666666666666</ele><time>2026-04-25T12:03:46.986Z</time></trkpt><trkpt lat="44.7765833" lon="8.2859583"><ele>145.33333333333334</ele><time>2026-04-25T12:03:47.986Z</time></trkpt><trkpt lat="44.776605" lon="8.2857167"><ele>145.0</ele><time>2026-04-25T12:03:48.987Z</time></trkpt><trkpt lat="44.7766233" lon="8.2854867"><ele>145.0</ele><time>2026-04-25T12:03:49.986Z</time></trkpt><trkpt lat="44.7766383" lon="8.2852617"><ele>145.0</ele><time>2026-04-25T12:03:50.986Z</time></trkpt><trkpt lat="44.7766533" lon="8.28504"><ele>145.0</ele><time>2026-04-25T12:03:51.986Z</time></trkpt><trkpt lat="44.77667" lon="8.2848133"><ele>145.66666666666669</ele><time>2026-04-25T12:03:52.987Z</time></trkpt><trkpt lat="44.7766817" lon="8.28458"><ele>146.33333333333334</ele><time>2026-04-25T12:03:53.987Z</time></trkpt><trkpt lat="44.776695" lon="8.2843467"><ele>147.0</ele><time>2026-04-25T12:03:54.986Z</time></trkpt><trkpt lat="44.77671" lon="8.284105"><ele>147.33333333333334</ele><time>2026-04-25T12:03:55.987Z</time></trkpt><trkpt lat="44.776725" lon="8.283865"><ele>147.66666666666669</ele><time>2026-04-25T12:03:56.986Z</time></trkpt><trkpt lat="44.7767433" lon="8.2836267"><ele>148.0</ele><time>2026-04-25T12:03:57.986Z</time></trkpt><trkpt lat="44.7767567" lon="8.2833983"><ele>148.0</ele><time>2026-04-25T12:03:58.987Z</time></trkpt><trkpt lat="44.776775" lon="8.283165"><ele>148.0</ele><time>2026-04-25T12:03:59.987Z</time></trkpt><trkpt lat="44.7767983" lon="8.28293"><ele>148.0</ele><time>2026-04-25T12:04:00.987Z</time></trkpt><trkpt lat="44.7768167" lon="8.2826967"><ele>148.0</ele><time>2026-04-25T12:04:01.987Z</time></trkpt><trkpt lat="44.7768233" lon="8.2824633"><ele>148.0</ele><time>2026-04-25T12:04:02.986Z</time></trkpt><trkpt lat="44.776845" lon="8.2822217"><ele>148.0</ele><time>2026-04-25T12:04:03.987Z</time></trkpt><trkpt lat="44.7768567" lon="8.2819867"><ele>148.0</ele><time>2026-04-25T12:04:04.987Z</time></trkpt><trkpt lat="44.7768683" lon="8.2817467"><ele>148.0</ele><time>2026-04-25T12:04:05.987Z</time></trkpt><trkpt lat="44.7768767" lon="8.2815117"><ele>148.0</ele><time>2026-04-25T12:04:06.987Z</time></trkpt><trkpt lat="44.7769" lon="8.28127"><ele>148.0</ele><time>2026-04-25T12:04:07.986Z</time></trkpt><trkpt lat="44.776925" lon="8.2810333"><ele>148.0</ele><time>2026-04-25T12:04:08.986Z</time></trkpt><trkpt lat="44.7769383" lon="8.2808017"><ele>148.0</ele><time>2026-04-25T12:04:09.986Z</time></trkpt><trkpt lat="44.7769567" lon="8.2805733"><ele>149.0</ele><time>2026-04-25T12:04:10.987Z</time></trkpt><trkpt lat="44.776975" lon="8.2803433"><ele>150.0</ele><time>2026-04-25T12:04:11.986Z</time></trkpt><trkpt lat="44.7769933" lon="8.2801067"><ele>151.0</ele><time>2026-04-25T12:04:12.987Z</time></trkpt><trkpt lat="44.7770133" lon="8.2798733"><ele>151.0</ele><time>2026-04-25T12:04:13.986Z</time></trkpt><trkpt lat="44.7770333" lon="8.2796567"><ele>151.0</ele><time>2026-04-25T12:04:14.987Z</time></trkpt><trkpt lat="44.7770483" lon="8.2794533"><ele>151.0</ele><time>2026-04-25T12:04:15.986Z</time></trkpt><trkpt lat="44.77706" lon="8.2792683"><ele>151.0</ele><time>2026-04-25T12:04:16.986Z</time></trkpt><trkpt lat="44.7770617" lon="8.2790833"><ele>150.8</ele><time>2026-04-25T12:04:17.986Z</time></trkpt><trkpt lat="44.7770767" lon="8.2789167"><ele>150.6</ele><time>2026-04-25T12:04:18.986Z</time></trkpt><trkpt lat="44.7771067" lon="8.27877"><ele>150.4</ele><time>2026-04-25T12:04:19.986Z</time></trkpt><trkpt lat="44.77715" lon="8.2786567"><ele>150.2</ele><time>2026-04-25T12:04:20.987Z</time></trkpt><trkpt lat="44.777205" lon="8.27857"><ele>150.0</ele><time>2026-04-25T12:04:21.986Z</time></trkpt><trkpt lat="44.7772717" lon="8.2784983"><ele>150.0</ele><time>2026-04-25T12:04:22.987Z</time></trkpt><trkpt lat="44.7773133" lon="8.2784183"><ele>150.0</ele><time>2026-04-25T12:04:23.987Z</time></trkpt><trkpt lat="44.7773567" lon="8.27833"><ele>150.0</ele><time>2026-04-25T12:04:24.986Z</time></trkpt><trkpt lat="44.7773567" lon="8.27823"><ele>150.0</ele><time>2026-04-25T12:04:25.986Z</time></trkpt><trkpt lat="44.777325" lon="8.278125"><ele>150.0</ele><time>2026-04-25T12:04:26.986Z</time></trkpt><trkpt lat="44.77727" lon="8.27804"><ele>150.0</ele><time>2026-04-25T12:04:27.986Z</time></trkpt><trkpt lat="44.777175" lon="8.2780133"><ele>150.0</ele><time>2026-04-25T12:04:28.987Z</time></trkpt><trkpt lat="44.777065" lon="8.2780533"><ele>150.0</ele><time>2026-04-25T12:04:29.987Z</time></trkpt><trkpt lat="44.77696" lon="8.2781"><ele>150.0</ele><time>2026-04-25T12:04:30.987Z</time></trkpt><trkpt lat="44.7768567" lon="8.278135"><ele>150.0</ele><time>2026-04-25T12:04:31.986Z</time></trkpt><trkpt lat="44.7767533" lon="8.2781017"><ele>150.0</ele><time>2026-04-25T12:04:32.986Z</time></trkpt><trkpt lat="44.776655" lon="8.2779983"><ele>149.0</ele><time>2026-04-25T12:04:33.986Z</time></trkpt><trkpt lat="44.7765783" lon="8.2778417"><ele>148.0</ele><time>2026-04-25T12:04:34.987Z</time></trkpt><trkpt lat="44.7764883" lon="8.2776217"><ele>147.0</ele><time>2026-04-25T12:04:35.987Z</time></trkpt><trkpt lat="44.7764017" lon="8.277375"><ele>148.0</ele><time>2026-04-25T12:04:36.987Z</time></trkpt><trkpt lat="44.7762933" lon="8.2771233"><ele>149.0</ele><time>2026-04-25T12:04:37.986Z</time></trkpt><trkpt lat="44.77617" lon="8.2768483"><ele>150.0</ele><time>2026-04-25T12:04:38.986Z</time></trkpt><trkpt lat="44.7760533" lon="8.2765317"><ele>151.0</ele><time>2026-04-25T12:04:39.986Z</time></trkpt><trkpt lat="44.775915" lon="8.2761967"><ele>152.0</ele><time>2026-04-25T12:04:40.987Z</time></trkpt><trkpt lat="44.775775" lon="8.2758567"><ele>154.0</ele><time>2026-04-25T12:04:41.986Z</time></trkpt><trkpt lat="44.775625" lon="8.2755033"><ele>156.0</ele><time>2026-04-25T12:04:42.987Z</time></trkpt><trkpt lat="44.775475" lon="8.275145"><ele>156.0</ele><time>2026-04-25T12:04:43.987Z</time></trkpt><trkpt lat="44.7753317" lon="8.2747867"><ele>156.0</ele><time>2026-04-25T12:04:44.987Z</time></trkpt><trkpt lat="44.7751783" lon="8.27442"><ele>154.0</ele><time>2026-04-25T12:04:45.987Z</time></trkpt><trkpt lat="44.7750317" lon="8.2740733"><ele>152.0</ele><time>2026-04-25T12:04:46.987Z</time></trkpt><trkpt lat="44.77489" lon="8.2737567"><ele>152.0</ele><time>2026-04-25T12:04:47.986Z</time></trkpt><trkpt lat="44.7747417" lon="8.2734533"><ele>152.0</ele><time>2026-04-25T12:04:48.986Z</time></trkpt><trkpt lat="44.7745917" lon="8.2731617"><ele>153.0</ele><time>2026-04-25T12:04:49.986Z</time></trkpt><trkpt lat="44.7744433" lon="8.2729133"><ele>154.0</ele><time>2026-04-25T12:04:50.986Z</time></trkpt><trkpt lat="44.7743083" lon="8.2726783"><ele>155.0</ele><time>2026-04-25T12:04:51.986Z</time></trkpt><trkpt lat="44.774165" lon="8.2724517"><ele>154.0</ele><time>2026-04-25T12:04:52.986Z</time></trkpt><trkpt lat="44.774015" lon="8.2722383"><ele>153.0</ele><time>2026-04-25T12:04:53.987Z</time></trkpt><trkpt lat="44.77386" lon="8.2720217"><ele>152.0</ele><time>2026-04-25T12:04:54.986Z</time></trkpt><trkpt lat="44.7736967" lon="8.271815"><ele>152.0</ele><time>2026-04-25T12:04:55.986Z</time></trkpt><trkpt lat="44.77353" lon="8.2716133"><ele>152.0</ele><time>2026-04-25T12:04:56.987Z</time></trkpt><trkpt lat="44.7733583" lon="8.2714133"><ele>152.0</ele><time>2026-04-25T12:04:57.987Z</time></trkpt><trkpt lat="44.773175" lon="8.2712283"><ele>152.5</ele><time>2026-04-25T12:04:58.986Z</time></trkpt><trkpt lat="44.77299" lon="8.2710517"><ele>153.0</ele><time>2026-04-25T12:04:59.987Z</time></trkpt><trkpt lat="44.7727883" lon="8.2708883"><ele>152.5</ele><time>2026-04-25T12:05:00.986Z</time></trkpt><trkpt lat="44.7725783" lon="8.2707283"><ele>152.0</ele><time>2026-04-25T12:05:01.986Z</time></trkpt><trkpt lat="44.772365" lon="8.2705717"><ele>153.5</ele><time>2026-04-25T12:05:02.986Z</time></trkpt><trkpt lat="44.7721633" lon="8.2704333"><ele>155.0</ele><time>2026-04-25T12:05:03.987Z</time></trkpt><trkpt lat="44.7719533" lon="8.27031"><ele>154.33333333333331</ele><time>2026-04-25T12:05:04.987Z</time></trkpt><trkpt lat="44.7717467" lon="8.2701983"><ele>153.66666666666666</ele><time>2026-04-25T12:05:05.986Z</time></trkpt><trkpt lat="44.7715367" lon="8.2701033"><ele>153.0</ele><time>2026-04-25T12:05:06.986Z</time></trkpt><trkpt lat="44.7713433" lon="8.270015"><ele>153.0</ele><time>2026-04-25T12:05:07.987Z</time></trkpt><trkpt lat="44.7711567" lon="8.2699383"><ele>153.0</ele><time>2026-04-25T12:05:08.986Z</time></trkpt><trkpt lat="44.7709733" lon="8.2698667"><ele>153.0</ele><time>2026-04-25T12:05:09.986Z</time></trkpt><trkpt lat="44.7707733" lon="8.2697883"><ele>152.66666666666666</ele><time>2026-04-25T12:05:10.986Z</time></trkpt><trkpt lat="44.7705633" lon="8.26972"><ele>152.33333333333331</ele><time>2026-04-25T12:05:11.986Z</time></trkpt><trkpt lat="44.7703617" lon="8.2696483"><ele>152.0</ele><time>2026-04-25T12:05:12.986Z</time></trkpt><trkpt lat="44.7701467" lon="8.269585"><ele>151.66666666666666</ele><time>2026-04-25T12:05:13.987Z</time></trkpt><trkpt lat="44.7699283" lon="8.2695167"><ele>151.33333333333334</ele><time>2026-04-25T12:05:14.986Z</time></trkpt><trkpt lat="44.769715" lon="8.2694367"><ele>151.0</ele><time>2026-04-25T12:05:15.986Z</time></trkpt><trkpt lat="44.76949" lon="8.2693717"><ele>150.66666666666669</ele><time>2026-04-25T12:05:16.986Z</time></trkpt><trkpt lat="44.7692717" lon="8.2693083"><ele>150.33333333333334</ele><time>2026-04-25T12:05:17.986Z</time></trkpt><trkpt lat="44.769065" lon="8.2692367"><ele>150.0</ele><time>2026-04-25T12:05:18.986Z</time></trkpt><trkpt lat="44.768855" lon="8.2691983"><ele>150.0</ele><time>2026-04-25T12:05:19.987Z</time></trkpt><trkpt lat="44.7686383" lon="8.26917"><ele>150.0</ele><time>2026-04-25T12:05:20.986Z</time></trkpt><trkpt lat="44.7684267" lon="8.26915"><ele>150.0</ele><time>2026-04-25T12:05:21.986Z</time></trkpt><trkpt lat="44.7682167" lon="8.2691317"><ele>150.0</ele><time>2026-04-25T12:05:22.986Z</time></trkpt><trkpt lat="44.7680033" lon="8.2691133"><ele>150.0</ele><time>2026-04-25T12:05:23.987Z</time></trkpt><trkpt lat="44.7678017" lon="8.2691117"><ele>150.0</ele><time>2026-04-25T12:05:24.987Z</time></trkpt><trkpt lat="44.7676033" lon="8.2691117"><ele>150.66666666666666</ele><time>2026-04-25T12:05:25.987Z</time></trkpt><trkpt lat="44.767415" lon="8.2691183"><ele>151.33333333333331</ele><time>2026-04-25T12:05:26.986Z</time></trkpt><trkpt lat="44.767215" lon="8.2691433"><ele>152.0</ele><time>2026-04-25T12:05:27.986Z</time></trkpt><trkpt lat="44.7670167" lon="8.2691767"><ele>152.33333333333331</ele><time>2026-04-25T12:05:28.987Z</time></trkpt><trkpt lat="44.7668367" lon="8.2692167"><ele>152.66666666666666</ele><time>2026-04-25T12:05:29.987Z</time></trkpt><trkpt lat="44.7666867" lon="8.2692617"><ele>153.0</ele><time>2026-04-25T12:05:30.986Z</time></trkpt><trkpt lat="44.766545" lon="8.2692967"><ele>153.0</ele><time>2026-04-25T12:05:31.987Z</time></trkpt><trkpt lat="44.7663983" lon="8.2693333"><ele>153.0</ele><time>2026-04-25T12:05:32.986Z</time></trkpt><trkpt lat="44.766245" lon="8.26937"><ele>153.0</ele><time>2026-04-25T12:05:33.987Z</time></trkpt><trkpt lat="44.7660967" lon="8.2694"><ele>153.25</ele><time>2026-04-25T12:05:34.987Z</time></trkpt><trkpt lat="44.765945" lon="8.2694417"><ele>153.5</ele><time>2026-04-25T12:05:35.987Z</time></trkpt><trkpt lat="44.7658033" lon="8.2694833"><ele>153.75</ele><time>2026-04-25T12:05:36.986Z</time></trkpt><trkpt lat="44.76567" lon="8.2695133"><ele>154.0</ele><time>2026-04-25T12:05:37.986Z</time></trkpt><trkpt lat="44.7655317" lon="8.2695533"><ele>154.0</ele><time>2026-04-25T12:05:38.987Z</time></trkpt><trkpt lat="44.765385" lon="8.2695883"><ele>154.0</ele><time>2026-04-25T12:05:39.987Z</time></trkpt><trkpt lat="44.7652433" lon="8.269605"><ele>154.0</ele><time>2026-04-25T12:05:40.987Z</time></trkpt><trkpt lat="44.7651017" lon="8.26963"><ele>154.0</ele><time>2026-04-25T12:05:41.986Z</time></trkpt><trkpt lat="44.7649533" lon="8.26966"><ele>155.33333333333334</ele><time>2026-04-25T12:05:42.987Z</time></trkpt><trkpt lat="44.7648017" lon="8.269685"><ele>156.66666666666666</ele><time>2026-04-25T12:05:43.987Z</time></trkpt><trkpt lat="44.76465" lon="8.2697283"><ele>158.0</ele><time>2026-04-25T12:05:44.986Z</time></trkpt><trkpt lat="44.7645" lon="8.2697617"><ele>161.33333333333331</ele><time>2026-04-25T12:05:45.986Z</time></trkpt><trkpt lat="44.7643517" lon="8.2697967"><ele>164.66666666666666</ele><time>2026-04-25T12:05:46.986Z</time></trkpt><trkpt lat="44.7642" lon="8.2698333"><ele>168.0</ele><time>2026-04-25T12:05:47.986Z</time></trkpt><trkpt lat="44.7640467" lon="8.269865"><ele>168.0</ele><time>2026-04-25T12:05:48.986Z</time></trkpt><trkpt lat="44.763895" lon="8.26992"><ele>168.0</ele><time>2026-04-25T12:05:49.986Z</time></trkpt><trkpt lat="44.763735" lon="8.2699717"><ele>168.0</ele><time>2026-04-25T12:05:50.986Z</time></trkpt><trkpt lat="44.763565" lon="8.2700467"><ele>169.66666666666666</ele><time>2026-04-25T12:05:51.987Z</time></trkpt><trkpt lat="44.7633867" lon="8.2701483"><ele>171.33333333333331</ele><time>2026-04-25T12:05:52.986Z</time></trkpt><trkpt lat="44.7632067" lon="8.2702567"><ele>173.0</ele><time>2026-04-25T12:05:53.986Z</time></trkpt><trkpt lat="44.7630183" lon="8.2703817"><ele>173.0</ele><time>2026-04-25T12:05:54.986Z</time></trkpt><trkpt lat="44.7628333" lon="8.2705183"><ele>173.0</ele><time>2026-04-25T12:05:55.986Z</time></trkpt><trkpt lat="44.7626417" lon="8.2706483"><ele>173.0</ele><time>2026-04-25T12:05:56.986Z</time></trkpt><trkpt lat="44.7624517" lon="8.2707917"><ele>176.5</ele><time>2026-04-25T12:05:57.986Z</time></trkpt><trkpt lat="44.7622533" lon="8.2709333"><ele>180.0</ele><time>2026-04-25T12:05:58.987Z</time></trkpt><trkpt lat="44.7620583" lon="8.2711033"><ele>180.0</ele><time>2026-04-25T12:05:59.986Z</time></trkpt><trkpt lat="44.7618783" lon="8.2712733"><ele>180.0</ele><time>2026-04-25T12:06:00.987Z</time></trkpt><trkpt lat="44.7617" lon="8.27147"><ele>180.0</ele><time>2026-04-25T12:06:01.986Z</time></trkpt><trkpt lat="44.7615317" lon="8.27168"><ele>181.0</ele><time>2026-04-25T12:06:02.986Z</time></trkpt><trkpt lat="44.7613883" lon="8.2719117"><ele>182.0</ele><time>2026-04-25T12:06:03.986Z</time></trkpt><trkpt lat="44.7612617" lon="8.2721167"><ele>183.0</ele><time>2026-04-25T12:06:04.987Z</time></trkpt><trkpt lat="44.7611367" lon="8.2723317"><ele>186.0</ele><time>2026-04-25T12:06:05.986Z</time></trkpt><trkpt lat="44.76102" lon="8.272565"><ele>189.0</ele><time>2026-04-25T12:06:06.986Z</time></trkpt><trkpt lat="44.7609083" lon="8.2728133"><ele>192.0</ele><time>2026-04-25T12:06:07.986Z</time></trkpt><trkpt lat="44.7607967" lon="8.273075"><ele>192.33333333333331</ele><time>2026-04-25T12:06:08.986Z</time></trkpt><trkpt lat="44.7606983" lon="8.2733517"><ele>192.66666666666666</ele><time>2026-04-25T12:06:09.986Z</time></trkpt><trkpt lat="44.7606283" lon="8.27364"><ele>193.0</ele><time>2026-04-25T12:06:10.986Z</time></trkpt><trkpt lat="44.7605567" lon="8.2739283"><ele>194.66666666666666</ele><time>2026-04-25T12:06:11.986Z</time></trkpt><trkpt lat="44.7605017" lon="8.2742183"><ele>196.33333333333331</ele><time>2026-04-25T12:06:12.987Z</time></trkpt><trkpt lat="44.7604567" lon="8.274495"><ele>198.0</ele><time>2026-04-25T12:06:13.986Z</time></trkpt><trkpt lat="44.7604067" lon="8.2747783"><ele>199.66666666666669</ele><time>2026-04-25T12:06:14.986Z</time></trkpt><trkpt lat="44.7603583" lon="8.275015"><ele>201.33333333333334</ele><time>2026-04-25T12:06:15.986Z</time></trkpt><trkpt lat="44.76031" lon="8.2752767"><ele>203.0</ele><time>2026-04-25T12:06:16.987Z</time></trkpt><trkpt lat="44.7602383" lon="8.2755383"><ele>200.66666666666669</ele><time>2026-04-25T12:06:17.986Z</time></trkpt><trkpt lat="44.76016" lon="8.2758067"><ele>198.33333333333331</ele><time>2026-04-25T12:06:18.987Z</time></trkpt><trkpt lat="44.7600783" lon="8.2760867"><ele>196.0</ele><time>2026-04-25T12:06:19.987Z</time></trkpt><trkpt lat="44.7600017" lon="8.2763283"><ele>194.33333333333331</ele><time>2026-04-25T12:06:20.987Z</time></trkpt><trkpt lat="44.7599183" lon="8.2766"><ele>192.66666666666666</ele><time>2026-04-25T12:06:21.986Z</time></trkpt><trkpt lat="44.7598017" lon="8.2768683"><ele>191.0</ele><time>2026-04-25T12:06:22.987Z</time></trkpt><trkpt lat="44.75969" lon="8.2771417"><ele>190.66666666666666</ele><time>2026-04-25T12:06:23.985Z</time></trkpt><trkpt lat="44.75955" lon="8.2773867"><ele>190.33333333333334</ele><time>2026-04-25T12:06:24.985Z</time></trkpt><trkpt lat="44.7594117" lon="8.277625"><ele>190.0</ele><time>2026-04-25T12:06:25.985Z</time></trkpt><trkpt lat="44.75927" lon="8.277855"><ele>188.0</ele><time>2026-04-25T12:06:26.986Z</time></trkpt><trkpt lat="44.75912" lon="8.2780783"><ele>186.0</ele><time>2026-04-25T12:06:27.986Z</time></trkpt><trkpt lat="44.75897" lon="8.278305"><ele>184.0</ele><time>2026-04-25T12:06:28.985Z</time></trkpt><trkpt lat="44.7588117" lon="8.278535"><ele>182.33333333333334</ele><time>2026-04-25T12:06:29.986Z</time></trkpt><trkpt lat="44.7586667" lon="8.2787567"><ele>180.66666666666666</ele><time>2026-04-25T12:06:30.985Z</time></trkpt><trkpt lat="44.75852" lon="8.278985"><ele>179.0</ele><time>2026-04-25T12:06:31.986Z</time></trkpt><trkpt lat="44.7583717" lon="8.2792133"><ele>178.0</ele><time>2026-04-25T12:06:32.986Z</time></trkpt><trkpt lat="44.758225" lon="8.2794417"><ele>177.0</ele><time>2026-04-25T12:06:33.985Z</time></trkpt><trkpt lat="44.758085" lon="8.279685"><ele>176.0</ele><time>2026-04-25T12:06:34.985Z</time></trkpt><trkpt lat="44.757935" lon="8.2799167"><ele>176.0</ele><time>2026-04-25T12:06:35.985Z</time></trkpt><trkpt lat="44.757775" lon="8.28015"><ele>176.0</ele><time>2026-04-25T12:06:36.985Z</time></trkpt><trkpt lat="44.75763" lon="8.2803833"><ele>174.5</ele><time>2026-04-25T12:06:37.985Z</time></trkpt><trkpt lat="44.7574867" lon="8.2806217"><ele>173.0</ele><time>2026-04-25T12:06:38.985Z</time></trkpt><trkpt lat="44.7573267" lon="8.2808533"><ele>173.0</ele><time>2026-04-25T12:06:39.985Z</time></trkpt><trkpt lat="44.7571767" lon="8.2810983"><ele>173.0</ele><time>2026-04-25T12:06:40.985Z</time></trkpt><trkpt lat="44.757025" lon="8.2813283"><ele>172.66666666666666</ele><time>2026-04-25T12:06:41.985Z</time></trkpt><trkpt lat="44.7568767" lon="8.28157"><ele>172.33333333333334</ele><time>2026-04-25T12:06:42.986Z</time></trkpt><trkpt lat="44.7567433" lon="8.2817933"><ele>172.0</ele><time>2026-04-25T12:06:43.985Z</time></trkpt><trkpt lat="44.7566033" lon="8.28199"><ele>171.0</ele><time>2026-04-25T12:06:44.986Z</time></trkpt><trkpt lat="44.7564633" lon="8.282185"><ele>170.0</ele><time>2026-04-25T12:06:45.986Z</time></trkpt><trkpt lat="44.7563117" lon="8.282365"><ele>169.0</ele><time>2026-04-25T12:06:46.985Z</time></trkpt><trkpt lat="44.7561517" lon="8.2825433"><ele>169.0</ele><time>2026-04-25T12:06:47.985Z</time></trkpt><trkpt lat="44.7559883" lon="8.282705"><ele>169.0</ele><time>2026-04-25T12:06:48.985Z</time></trkpt><trkpt lat="44.7558167" lon="8.2828583"><ele>169.0</ele><time>2026-04-25T12:06:49.986Z</time></trkpt><trkpt lat="44.7556267" lon="8.2830017"><ele>168.66666666666669</ele><time>2026-04-25T12:06:50.986Z</time></trkpt><trkpt lat="44.7554383" lon="8.28315"><ele>168.33333333333334</ele><time>2026-04-25T12:06:51.986Z</time></trkpt><trkpt lat="44.7552433" lon="8.2832867"><ele>168.0</ele><time>2026-04-25T12:06:52.986Z</time></trkpt><trkpt lat="44.7550317" lon="8.2834"><ele>168.0</ele><time>2026-04-25T12:06:53.985Z</time></trkpt><trkpt lat="44.754815" lon="8.28353"><ele>168.0</ele><time>2026-04-25T12:06:54.985Z</time></trkpt><trkpt lat="44.754595" lon="8.2836267"><ele>168.0</ele><time>2026-04-25T12:06:55.985Z</time></trkpt><trkpt lat="44.75438" lon="8.2837267"><ele>168.0</ele><time>2026-04-25T12:06:56.985Z</time></trkpt><trkpt lat="44.7541667" lon="8.2838233"><ele>168.0</ele><time>2026-04-25T12:06:57.985Z</time></trkpt><trkpt lat="44.753945" lon="8.28391"><ele>168.0</ele><time>2026-04-25T12:06:58.985Z</time></trkpt><trkpt lat="44.753725" lon="8.2839967"><ele>168.0</ele><time>2026-04-25T12:06:59.985Z</time></trkpt><trkpt lat="44.7535" lon="8.2841"><ele>168.0</ele><time>2026-04-25T12:07:00.985Z</time></trkpt><trkpt lat="44.753275" lon="8.2842"><ele>168.0</ele><time>2026-04-25T12:07:01.986Z</time></trkpt><trkpt lat="44.7530517" lon="8.2842883"><ele>168.0</ele><time>2026-04-25T12:07:02.985Z</time></trkpt><trkpt lat="44.7528283" lon="8.2843883"><ele>168.0</ele><time>2026-04-25T12:07:03.985Z</time></trkpt><trkpt lat="44.7526017" lon="8.284475"><ele>168.0</ele><time>2026-04-25T12:07:04.986Z</time></trkpt><trkpt lat="44.7523767" lon="8.2845633"><ele>168.0</ele><time>2026-04-25T12:07:05.985Z</time></trkpt><trkpt lat="44.7521467" lon="8.2846817"><ele>168.0</ele><time>2026-04-25T12:07:06.985Z</time></trkpt><trkpt lat="44.7519317" lon="8.28477"><ele>167.5</ele><time>2026-04-25T12:07:07.985Z</time></trkpt><trkpt lat="44.751705" lon="8.2848533"><ele>167.0</ele><time>2026-04-25T12:07:08.985Z</time></trkpt><trkpt lat="44.7514833" lon="8.2849183"><ele>167.0</ele><time>2026-04-25T12:07:09.985Z</time></trkpt><trkpt lat="44.7512533" lon="8.2849567"><ele>167.0</ele><time>2026-04-25T12:07:10.985Z</time></trkpt><trkpt lat="44.7510233" lon="8.28499"><ele>166.5</ele><time>2026-04-25T12:07:11.985Z</time></trkpt><trkpt lat="44.7507917" lon="8.2849983"><ele>166.0</ele><time>2026-04-25T12:07:12.986Z</time></trkpt><trkpt lat="44.7505533" lon="8.284995"><ele>166.0</ele><time>2026-04-25T12:07:13.986Z</time></trkpt><trkpt lat="44.7503183" lon="8.2849717"><ele>166.0</ele><time>2026-04-25T12:07:14.985Z</time></trkpt><trkpt lat="44.75008" lon="8.284925"><ele>165.5</ele><time>2026-04-25T12:07:15.985Z</time></trkpt><trkpt lat="44.7498467" lon="8.2848883"><ele>165.0</ele><time>2026-04-25T12:07:16.985Z</time></trkpt><trkpt lat="44.7496017" lon="8.28482"><ele>165.0</ele><time>2026-04-25T12:07:17.985Z</time></trkpt><trkpt lat="44.7493633" lon="8.2847567"><ele>165.0</ele><time>2026-04-25T12:07:18.986Z</time></trkpt><trkpt lat="44.749125" lon="8.2846983"><ele>165.0</ele><time>2026-04-25T12:07:19.985Z</time></trkpt><trkpt lat="44.7488817" lon="8.2846383"><ele>165.0</ele><time>2026-04-25T12:07:20.986Z</time></trkpt><trkpt lat="44.7486433" lon="8.2845817"><ele>164.66666666666666</ele><time>2026-04-25T12:07:21.986Z</time></trkpt><trkpt lat="44.74842" lon="8.2845317"><ele>164.33333333333331</ele><time>2026-04-25T12:07:22.985Z</time></trkpt><trkpt lat="44.7482117" lon="8.2844833"><ele>164.0</ele><time>2026-04-25T12:07:23.986Z</time></trkpt><trkpt lat="44.748005" lon="8.2844433"><ele>164.0</ele><time>2026-04-25T12:07:24.986Z</time></trkpt><trkpt lat="44.7478083" lon="8.2843967"><ele>164.0</ele><time>2026-04-25T12:07:25.985Z</time></trkpt><trkpt lat="44.747625" lon="8.2843533"><ele>164.0</ele><time>2026-04-25T12:07:26.985Z</time></trkpt><trkpt lat="44.74744" lon="8.2843167"><ele>164.0</ele><time>2026-04-25T12:07:27.986Z</time></trkpt><trkpt lat="44.7472617" lon="8.28429"><ele>164.0</ele><time>2026-04-25T12:07:28.985Z</time></trkpt><trkpt lat="44.7470883" lon="8.28428"><ele>164.0</ele><time>2026-04-25T12:07:29.986Z</time></trkpt><trkpt lat="44.7469133" lon="8.2842667"><ele>165.0</ele><time>2026-04-25T12:07:30.986Z</time></trkpt><trkpt lat="44.7467267" lon="8.2842683"><ele>166.0</ele><time>2026-04-25T12:07:31.985Z</time></trkpt><trkpt lat="44.7465433" lon="8.284275"><ele>167.0</ele><time>2026-04-25T12:07:32.985Z</time></trkpt><trkpt lat="44.7463567" lon="8.2842917"><ele>167.0</ele><time>2026-04-25T12:07:33.985Z</time></trkpt><trkpt lat="44.7461767" lon="8.2843133"><ele>167.0</ele><time>2026-04-25T12:07:34.986Z</time></trkpt><trkpt lat="44.746" lon="8.2843417"><ele>167.0</ele><time>2026-04-25T12:07:35.986Z</time></trkpt><trkpt lat="44.74582" lon="8.2843983"><ele>167.33333333333331</ele><time>2026-04-25T12:07:36.985Z</time></trkpt><trkpt lat="44.7456483" lon="8.28446"><ele>167.66666666666666</ele><time>2026-04-25T12:07:37.986Z</time></trkpt><trkpt lat="44.74547" lon="8.2845167"><ele>168.0</ele><time>2026-04-25T12:07:38.986Z</time></trkpt><trkpt lat="44.7453" lon="8.28458"><ele>168.0</ele><time>2026-04-25T12:07:39.985Z</time></trkpt><trkpt lat="44.7451267" lon="8.2846667"><ele>168.0</ele><time>2026-04-25T12:07:40.985Z</time></trkpt><trkpt lat="44.744935" lon="8.28475"><ele>168.0</ele><time>2026-04-25T12:07:41.986Z</time></trkpt><trkpt lat="44.74473" lon="8.2848333"><ele>166.5</ele><time>2026-04-25T12:07:42.985Z</time></trkpt><trkpt lat="44.7445083" lon="8.2849017"><ele>165.0</ele><time>2026-04-25T12:07:43.985Z</time></trkpt><trkpt lat="44.744285" lon="8.2849617"><ele>164.0</ele><time>2026-04-25T12:07:44.985Z</time></trkpt><trkpt lat="44.7440567" lon="8.2850317"><ele>163.0</ele><time>2026-04-25T12:07:45.985Z</time></trkpt><trkpt lat="44.7438417" lon="8.28512"><ele>163.0</ele><time>2026-04-25T12:07:46.985Z</time></trkpt><trkpt lat="44.7436033" lon="8.2851883"><ele>163.0</ele><time>2026-04-25T12:07:47.986Z</time></trkpt><trkpt lat="44.74338" lon="8.2852633"><ele>164.5</ele><time>2026-04-25T12:07:48.985Z</time></trkpt><trkpt lat="44.7431517" lon="8.2853333"><ele>166.0</ele><time>2026-04-25T12:07:49.985Z</time></trkpt><trkpt lat="44.7429317" lon="8.28541"><ele>166.0</ele><time>2026-04-25T12:07:50.985Z</time></trkpt><trkpt lat="44.7427167" lon="8.285485"><ele>166.0</ele><time>2026-04-25T12:07:51.985Z</time></trkpt><trkpt lat="44.7424983" lon="8.2855583"><ele>166.0</ele><time>2026-04-25T12:07:52.985Z</time></trkpt><trkpt lat="44.7422883" lon="8.28563"><ele>165.33333333333334</ele><time>2026-04-25T12:07:53.986Z</time></trkpt><trkpt lat="44.7420933" lon="8.2857017"><ele>164.66666666666666</ele><time>2026-04-25T12:07:54.986Z</time></trkpt><trkpt lat="44.7418983" lon="8.28577"><ele>164.0</ele><time>2026-04-25T12:07:55.986Z</time></trkpt><trkpt lat="44.7417067" lon="8.2858467"><ele>165.33333333333331</ele><time>2026-04-25T12:07:56.985Z</time></trkpt><trkpt lat="44.74152" lon="8.2859033"><ele>166.66666666666666</ele><time>2026-04-25T12:07:57.985Z</time></trkpt><trkpt lat="44.74131" lon="8.2859617"><ele>168.0</ele><time>2026-04-25T12:07:58.986Z</time></trkpt><trkpt lat="44.7411217" lon="8.28608"><ele>167.0</ele><time>2026-04-25T12:07:59.985Z</time></trkpt><trkpt lat="44.7409317" lon="8.28621"><ele>166.0</ele><time>2026-04-25T12:08:00.985Z</time></trkpt><trkpt lat="44.7407383" lon="8.28634"><ele>165.0</ele><time>2026-04-25T12:08:01.986Z</time></trkpt><trkpt lat="44.740545" lon="8.2864817"><ele>165.0</ele><time>2026-04-25T12:08:02.986Z</time></trkpt><trkpt lat="44.740355" lon="8.2866533"><ele>165.0</ele><time>2026-04-25T12:08:03.985Z</time></trkpt><trkpt lat="44.7401617" lon="8.2868317"><ele>164.66666666666666</ele><time>2026-04-25T12:08:04.986Z</time></trkpt><trkpt lat="44.7399783" lon="8.2870083"><ele>164.33333333333331</ele><time>2026-04-25T12:08:05.985Z</time></trkpt><trkpt lat="44.7397983" lon="8.2871767"><ele>164.0</ele><time>2026-04-25T12:08:06.986Z</time></trkpt><trkpt lat="44.73962" lon="8.2873417"><ele>164.0</ele><time>2026-04-25T12:08:07.986Z</time></trkpt><trkpt lat="44.7394417" lon="8.2875067"><ele>164.0</ele><time>2026-04-25T12:08:08.985Z</time></trkpt><trkpt lat="44.73926" lon="8.2876733"><ele>164.0</ele><time>2026-04-25T12:08:09.985Z</time></trkpt><trkpt lat="44.7390867" lon="8.28783"><ele>164.0</ele><time>2026-04-25T12:08:10.985Z</time></trkpt><trkpt lat="44.7389117" lon="8.2879883"><ele>164.0</ele><time>2026-04-25T12:08:11.985Z</time></trkpt><trkpt lat="44.73875" lon="8.28814"><ele>164.0</ele><time>2026-04-25T12:08:12.986Z</time></trkpt><trkpt lat="44.7385917" lon="8.2882833"><ele>162.66666666666666</ele><time>2026-04-25T12:08:13.985Z</time></trkpt><trkpt lat="44.7384317" lon="8.2884217"><ele>161.33333333333334</ele><time>2026-04-25T12:08:14.985Z</time></trkpt><trkpt lat="44.7382783" lon="8.28856"><ele>160.0</ele><time>2026-04-25T12:08:15.985Z</time></trkpt><trkpt lat="44.7381267" lon="8.2886983"><ele>160.0</ele><time>2026-04-25T12:08:16.986Z</time></trkpt><trkpt lat="44.7379633" lon="8.2888433"><ele>160.0</ele><time>2026-04-25T12:08:17.985Z</time></trkpt><trkpt lat="44.7377867" lon="8.2889883"><ele>160.0</ele><time>2026-04-25T12:08:18.985Z</time></trkpt><trkpt lat="44.7376067" lon="8.2891533"><ele>161.33333333333334</ele><time>2026-04-25T12:08:19.985Z</time></trkpt><trkpt lat="44.7374283" lon="8.2893117"><ele>162.66666666666666</ele><time>2026-04-25T12:08:20.985Z</time></trkpt><trkpt lat="44.737245" lon="8.2894717"><ele>164.0</ele><time>2026-04-25T12:08:21.985Z</time></trkpt><trkpt lat="44.7370717" lon="8.2896383"><ele>163.0</ele><time>2026-04-25T12:08:22.985Z</time></trkpt><trkpt lat="44.7368867" lon="8.2898133"><ele>162.0</ele><time>2026-04-25T12:08:23.985Z</time></trkpt><trkpt lat="44.7366983" lon="8.28999"><ele>161.0</ele><time>2026-04-25T12:08:24.985Z</time></trkpt><trkpt lat="44.7365117" lon="8.2901617"><ele>161.0</ele><time>2026-04-25T12:08:25.985Z</time></trkpt><trkpt lat="44.7363333" lon="8.2903367"><ele>161.0</ele><time>2026-04-25T12:08:26.986Z</time></trkpt><trkpt lat="44.73615" lon="8.2905117"><ele>161.0</ele><time>2026-04-25T12:08:27.986Z</time></trkpt><trkpt lat="44.735965" lon="8.2906783"><ele>160.66666666666666</ele><time>2026-04-25T12:08:28.985Z</time></trkpt><trkpt lat="44.7357883" lon="8.2908383"><ele>160.33333333333334</ele><time>2026-04-25T12:08:29.986Z</time></trkpt><trkpt lat="44.73561" lon="8.2910033"><ele>160.0</ele><time>2026-04-25T12:08:30.986Z</time></trkpt><trkpt lat="44.73543" lon="8.2911633"><ele>160.0</ele><time>2026-04-25T12:08:31.986Z</time></trkpt><trkpt lat="44.735255" lon="8.2913333"><ele>160.0</ele><time>2026-04-25T12:08:32.985Z</time></trkpt><trkpt lat="44.7350767" lon="8.2914983"><ele>160.0</ele><time>2026-04-25T12:08:33.985Z</time></trkpt><trkpt lat="44.7348983" lon="8.2916817"><ele>160.0</ele><time>2026-04-25T12:08:34.985Z</time></trkpt><trkpt lat="44.7347233" lon="8.2918667"><ele>160.0</ele><time>2026-04-25T12:08:35.986Z</time></trkpt><trkpt lat="44.7345517" lon="8.2920433"><ele>160.0</ele><time>2026-04-25T12:08:36.985Z</time></trkpt><trkpt lat="44.7343783" lon="8.29223"><ele>159.0</ele><time>2026-04-25T12:08:37.985Z</time></trkpt><trkpt lat="44.73421" lon="8.2924233"><ele>158.0</ele><time>2026-04-25T12:08:38.986Z</time></trkpt><trkpt lat="44.734045" lon="8.2926217"><ele>157.0</ele><time>2026-04-25T12:08:39.985Z</time></trkpt><trkpt lat="44.73388" lon="8.2928133"><ele>157.0</ele><time>2026-04-25T12:08:40.985Z</time></trkpt><trkpt lat="44.7337183" lon="8.2930217"><ele>157.0</ele><time>2026-04-25T12:08:41.985Z</time></trkpt><trkpt lat="44.733545" lon="8.2932267"><ele>157.0</ele><time>2026-04-25T12:08:42.985Z</time></trkpt><trkpt lat="44.73339" lon="8.2934333"><ele>157.33333333333334</ele><time>2026-04-25T12:08:43.985Z</time></trkpt><trkpt lat="44.7332333" lon="8.2936367"><ele>157.66666666666666</ele><time>2026-04-25T12:08:44.985Z</time></trkpt><trkpt lat="44.733065" lon="8.2938383"><ele>158.0</ele><time>2026-04-25T12:08:45.985Z</time></trkpt><trkpt lat="44.7328983" lon="8.2940283"><ele>158.0</ele><time>2026-04-25T12:08:46.985Z</time></trkpt><trkpt lat="44.7327567" lon="8.2942333"><ele>158.0</ele><time>2026-04-25T12:08:47.985Z</time></trkpt><trkpt lat="44.7326183" lon="8.2944417"><ele>158.0</ele><time>2026-04-25T12:08:48.986Z</time></trkpt><trkpt lat="44.73249" lon="8.2946583"><ele>158.0</ele><time>2026-04-25T12:08:49.985Z</time></trkpt><trkpt lat="44.7323683" lon="8.29487"><ele>158.0</ele><time>2026-04-25T12:08:50.986Z</time></trkpt><trkpt lat="44.7322483" lon="8.2950783"><ele>158.0</ele><time>2026-04-25T12:08:51.985Z</time></trkpt><trkpt lat="44.732125" lon="8.2952983"><ele>158.0</ele><time>2026-04-25T12:08:52.985Z</time></trkpt><trkpt lat="44.7320117" lon="8.2955067"><ele>158.0</ele><time>2026-04-25T12:08:53.985Z</time></trkpt><trkpt lat="44.731905" lon="8.2957167"><ele>158.0</ele><time>2026-04-25T12:08:54.986Z</time></trkpt><trkpt lat="44.7317983" lon="8.29591"><ele>158.0</ele><time>2026-04-25T12:08:55.986Z</time></trkpt><trkpt lat="44.731675" lon="8.2961217"><ele>158.0</ele><time>2026-04-25T12:08:56.985Z</time></trkpt><trkpt lat="44.731565" lon="8.2963317"><ele>158.0</ele><time>2026-04-25T12:08:57.986Z</time></trkpt><trkpt lat="44.7314383" lon="8.2965333"><ele>157.66666666666666</ele><time>2026-04-25T12:08:58.985Z</time></trkpt><trkpt lat="44.7313167" lon="8.2967483"><ele>157.33333333333334</ele><time>2026-04-25T12:08:59.985Z</time></trkpt><trkpt lat="44.7311817" lon="8.29695"><ele>157.0</ele><time>2026-04-25T12:09:00.985Z</time></trkpt><trkpt lat="44.7310535" lon="8.2971567"><ele>157.0</ele><time>2026-04-25T12:09:01.986Z</time></trkpt><trkpt lat="44.730928" lon="8.2973584"><ele>157.0</ele><time>2026-04-25T12:09:02.986Z</time></trkpt><trkpt lat="44.7308101" lon="8.297559"><ele>157.0</ele><time>2026-04-25T12:09:03.986Z</time></trkpt><trkpt lat="44.7306831" lon="8.297763"><ele>157.0</ele><time>2026-04-25T12:09:04.985Z</time></trkpt><trkpt lat="44.7305419" lon="8.2979668"><ele>157.0</ele><time>2026-04-25T12:09:05.985Z</time></trkpt><trkpt lat="44.7303837" lon="8.298172"><ele>157.0</ele><time>2026-04-25T12:09:06.986Z</time></trkpt><trkpt lat="44.7302168" lon="8.2983624"><ele>157.33333333333334</ele><time>2026-04-25T12:09:07.985Z</time></trkpt><trkpt lat="44.730049" lon="8.2985372"><ele>157.66666666666666</ele><time>2026-04-25T12:09:08.985Z</time></trkpt><trkpt lat="44.7298796" lon="8.2986952"><ele>158.0</ele><time>2026-04-25T12:09:09.986Z</time></trkpt><trkpt lat="44.7297048" lon="8.2988361"><ele>158.0</ele><time>2026-04-25T12:09:10.986Z</time></trkpt><trkpt lat="44.7295357" lon="8.2989669"><ele>158.0</ele><time>2026-04-25T12:09:11.985Z</time></trkpt><trkpt lat="44.7293856" lon="8.2991128"><ele>158.0</ele><time>2026-04-25T12:09:12.986Z</time></trkpt><trkpt lat="44.7292333" lon="8.2992349"><ele>158.0</ele><time>2026-04-25T12:09:13.985Z</time></trkpt><trkpt lat="44.7290868" lon="8.2993424"><ele>158.0</ele><time>2026-04-25T12:09:14.986Z</time></trkpt><trkpt lat="44.7289426" lon="8.2994359"><ele>158.0</ele><time>2026-04-25T12:09:15.985Z</time></trkpt><trkpt lat="44.7288061" lon="8.2995235"><ele>158.0</ele><time>2026-04-25T12:09:16.986Z</time></trkpt><trkpt lat="44.728673" lon="8.2996004"><ele>158.0</ele><time>2026-04-25T12:09:17.985Z</time></trkpt><trkpt lat="44.7285465" lon="8.2996595"><ele>158.0</ele><time>2026-04-25T12:09:18.985Z</time></trkpt><trkpt lat="44.7284312" lon="8.2997014"><ele>158.0</ele><time>2026-04-25T12:09:19.985Z</time></trkpt><trkpt lat="44.7283365" lon="8.2997332"><ele>157.20000000000002</ele><time>2026-04-25T12:09:20.985Z</time></trkpt><trkpt lat="44.7282629" lon="8.2997836"><ele>156.4</ele><time>2026-04-25T12:09:21.985Z</time></trkpt><trkpt lat="44.7282099" lon="8.2998663"><ele>155.60000000000002</ele><time>2026-04-25T12:09:22.985Z</time></trkpt><trkpt lat="44.7281734" lon="8.2999918"><ele>154.8</ele><time>2026-04-25T12:09:23.985Z</time></trkpt><trkpt lat="44.7281247" lon="8.3001341"><ele>154.0</ele><time>2026-04-25T12:09:24.985Z</time></trkpt><trkpt lat="44.7280387" lon="8.300258"><ele>154.0</ele><time>2026-04-25T12:09:25.985Z</time></trkpt><trkpt lat="44.7279188" lon="8.3003573"><ele>154.0</ele><time>2026-04-25T12:09:26.985Z</time></trkpt><trkpt lat="44.7277837" lon="8.3004703"><ele>154.0</ele><time>2026-04-25T12:09:27.985Z</time></trkpt><trkpt lat="44.7276375" lon="8.3006062"><ele>154.33333333333334</ele><time>2026-04-25T12:09:28.985Z</time></trkpt><trkpt lat="44.7274887" lon="8.3007548"><ele>154.66666666666666</ele><time>2026-04-25T12:09:29.985Z</time></trkpt><trkpt lat="44.7273281" lon="8.3009046"><ele>155.0</ele><time>2026-04-25T12:09:30.985Z</time></trkpt><trkpt lat="44.7271659" lon="8.3010533"><ele>155.0</ele><time>2026-04-25T12:09:31.986Z</time></trkpt><trkpt lat="44.7269979" lon="8.3012021"><ele>155.0</ele><time>2026-04-25T12:09:32.986Z</time></trkpt><trkpt lat="44.7268299" lon="8.3013583"><ele>155.0</ele><time>2026-04-25T12:09:33.986Z</time></trkpt><trkpt lat="44.7266571" lon="8.3015163"><ele>155.66666666666666</ele><time>2026-04-25T12:09:34.985Z</time></trkpt><trkpt lat="44.7264836" lon="8.3016608"><ele>156.33333333333334</ele><time>2026-04-25T12:09:35.985Z</time></trkpt><trkpt lat="44.7263036" lon="8.3017842"><ele>157.0</ele><time>2026-04-25T12:09:36.985Z</time></trkpt><trkpt lat="44.7261215" lon="8.3019003"><ele>156.0</ele><time>2026-04-25T12:09:37.985Z</time></trkpt><trkpt lat="44.7259327" lon="8.3020056"><ele>155.0</ele><time>2026-04-25T12:09:38.986Z</time></trkpt><trkpt lat="44.7257606" lon="8.3020999"><ele>154.0</ele><time>2026-04-25T12:09:39.985Z</time></trkpt><trkpt lat="44.7255969" lon="8.3021713"><ele>154.0</ele><time>2026-04-25T12:09:40.986Z</time></trkpt><trkpt lat="44.7254485" lon="8.3022115"><ele>154.0</ele><time>2026-04-25T12:09:41.985Z</time></trkpt><trkpt lat="44.7253193" lon="8.3022263"><ele>154.0</ele><time>2026-04-25T12:09:42.985Z</time></trkpt><trkpt lat="44.7252043" lon="8.3022415"><ele>154.0</ele><time>2026-04-25T12:09:43.985Z</time></trkpt><trkpt lat="44.7250802" lon="8.3022567"><ele>154.25</ele><time>2026-04-25T12:09:44.985Z</time></trkpt><trkpt lat="44.7249376" lon="8.3022541"><ele>154.5</ele><time>2026-04-25T12:09:45.985Z</time></trkpt><trkpt lat="44.7247899" lon="8.3022411"><ele>154.75</ele><time>2026-04-25T12:09:46.985Z</time></trkpt><trkpt lat="44.7246335" lon="8.3022027"><ele>155.0</ele><time>2026-04-25T12:09:47.986Z</time></trkpt><trkpt lat="44.72447" lon="8.3021545"><ele>154.66666666666666</ele><time>2026-04-25T12:09:48.985Z</time></trkpt><trkpt lat="44.7243042" lon="8.3020875"><ele>154.33333333333334</ele><time>2026-04-25T12:09:49.986Z</time></trkpt><trkpt lat="44.7241373" lon="8.3020037"><ele>154.0</ele><time>2026-04-25T12:09:50.985Z</time></trkpt><trkpt lat="44.723969" lon="8.3019099"><ele>154.0</ele><time>2026-04-25T12:09:51.985Z</time></trkpt><trkpt lat="44.7238017" lon="8.3018091"><ele>154.0</ele><time>2026-04-25T12:09:52.986Z</time></trkpt><trkpt lat="44.7236463" lon="8.3016883"><ele>154.0</ele><time>2026-04-25T12:09:53.985Z</time></trkpt><trkpt lat="44.7235013" lon="8.3015448"><ele>155.33333333333334</ele><time>2026-04-25T12:09:54.985Z</time></trkpt><trkpt lat="44.7233653" lon="8.3013868"><ele>156.66666666666666</ele><time>2026-04-25T12:09:55.986Z</time></trkpt><trkpt lat="44.7232415" lon="8.3012255"><ele>158.0</ele><time>2026-04-25T12:09:56.985Z</time></trkpt><trkpt lat="44.7231348" lon="8.3010626"><ele>158.0</ele><time>2026-04-25T12:09:57.985Z</time></trkpt><trkpt lat="44.7230453" lon="8.3009074"><ele>158.0</ele><time>2026-04-25T12:09:58.986Z</time></trkpt><trkpt lat="44.7229614" lon="8.300741"><ele>158.0</ele><time>2026-04-25T12:09:59.985Z</time></trkpt><trkpt lat="44.7228837" lon="8.3005741"><ele>158.0</ele><time>2026-04-25T12:10:00.986Z</time></trkpt><trkpt lat="44.7228064" lon="8.3004104"><ele>157.5</ele><time>2026-04-25T12:10:01.986Z</time></trkpt><trkpt lat="44.7227321" lon="8.3002357"><ele>157.0</ele><time>2026-04-25T12:10:02.986Z</time></trkpt><trkpt lat="44.722659" lon="8.30006"><ele>156.5</ele><time>2026-04-25T12:10:03.985Z</time></trkpt><trkpt lat="44.7225774" lon="8.2998861"><ele>156.0</ele><time>2026-04-25T12:10:04.985Z</time></trkpt><trkpt lat="44.7225044" lon="8.2997176"><ele>155.75</ele><time>2026-04-25T12:10:05.986Z</time></trkpt><trkpt lat="44.7224337" lon="8.2995587"><ele>155.5</ele><time>2026-04-25T12:10:06.986Z</time></trkpt><trkpt lat="44.7223689" lon="8.2994031"><ele>155.25</ele><time>2026-04-25T12:10:07.985Z</time></trkpt><trkpt lat="44.7223059" lon="8.2992466"><ele>155.0</ele><time>2026-04-25T12:10:08.985Z</time></trkpt><trkpt lat="44.7222386" lon="8.2990972"><ele>155.0</ele><time>2026-04-25T12:10:09.985Z</time></trkpt><trkpt lat="44.7221781" lon="8.2989503"><ele>155.0</ele><time>2026-04-25T12:10:10.986Z</time></trkpt><trkpt lat="44.7221286" lon="8.2988206"><ele>155.0</ele><time>2026-04-25T12:10:11.985Z</time></trkpt><trkpt lat="44.7220788" lon="8.2986994"><ele>155.0</ele><time>2026-04-25T12:10:12.985Z</time></trkpt><trkpt lat="44.7220283" lon="8.298578"><ele>155.0</ele><time>2026-04-25T12:10:13.985Z</time></trkpt><trkpt lat="44.7219747" lon="8.2984535"><ele>154.5</ele><time>2026-04-25T12:10:14.985Z</time></trkpt><trkpt lat="44.7219194" lon="8.298317"><ele>154.0</ele><time>2026-04-25T12:10:15.986Z</time></trkpt><trkpt lat="44.7218545" lon="8.2981626"><ele>153.5</ele><time>2026-04-25T12:10:16.985Z</time></trkpt><trkpt lat="44.7217784" lon="8.2979984"><ele>153.0</ele><time>2026-04-25T12:10:17.986Z</time></trkpt><trkpt lat="44.7217004" lon="8.2978258"><ele>153.0</ele><time>2026-04-25T12:10:18.986Z</time></trkpt><trkpt lat="44.7216225" lon="8.2976536"><ele>153.0</ele><time>2026-04-25T12:10:19.985Z</time></trkpt><trkpt lat="44.7215527" lon="8.2974812"><ele>153.0</ele><time>2026-04-25T12:10:20.985Z</time></trkpt><trkpt lat="44.7214756" lon="8.2973035"><ele>153.0</ele><time>2026-04-25T12:10:21.985Z</time></trkpt><trkpt lat="44.7213976" lon="8.2971259"><ele>152.75</ele><time>2026-04-25T12:10:22.986Z</time></trkpt><trkpt lat="44.7213204" lon="8.2969447"><ele>152.5</ele><time>2026-04-25T12:10:23.986Z</time></trkpt><trkpt lat="44.7212475" lon="8.2967694"><ele>152.25</ele><time>2026-04-25T12:10:24.985Z</time></trkpt><trkpt lat="44.7211726" lon="8.2966098"><ele>152.0</ele><time>2026-04-25T12:10:25.986Z</time></trkpt><trkpt lat="44.7211013" lon="8.2964619"><ele>152.0</ele><time>2026-04-25T12:10:26.986Z</time></trkpt><trkpt lat="44.7210397" lon="8.2963187"><ele>152.0</ele><time>2026-04-25T12:10:27.985Z</time></trkpt><trkpt lat="44.7209808" lon="8.2961817"><ele>152.0</ele><time>2026-04-25T12:10:28.985Z</time></trkpt><trkpt lat="44.7209309" lon="8.2960514"><ele>152.0</ele><time>2026-04-25T12:10:29.985Z</time></trkpt><trkpt lat="44.7208855" lon="8.2959277"><ele>152.0</ele><time>2026-04-25T12:10:30.986Z</time></trkpt><trkpt lat="44.7208322" lon="8.295792"><ele>152.0</ele><time>2026-04-25T12:10:31.985Z</time></trkpt><trkpt lat="44.720775" lon="8.2956325"><ele>152.0</ele><time>2026-04-25T12:10:32.986Z</time></trkpt><trkpt lat="44.7207054" lon="8.2954468"><ele>152.0</ele><time>2026-04-25T12:10:33.986Z</time></trkpt><trkpt lat="44.7206178" lon="8.2952476"><ele>152.0</ele><time>2026-04-25T12:10:34.985Z</time></trkpt><trkpt lat="44.7205219" lon="8.2950569"><ele>152.0</ele><time>2026-04-25T12:10:35.985Z</time></trkpt><trkpt lat="44.7204163" lon="8.2948879"><ele>152.0</ele><time>2026-04-25T12:10:36.986Z</time></trkpt><trkpt lat="44.7203187" lon="8.2947358"><ele>152.0</ele><time>2026-04-25T12:10:37.985Z</time></trkpt><trkpt lat="44.7202231" lon="8.2945868"><ele>152.0</ele><time>2026-04-25T12:10:38.984Z</time></trkpt><trkpt lat="44.7201294" lon="8.2944443"><ele>152.0</ele><time>2026-04-25T12:10:39.984Z</time></trkpt><trkpt lat="44.720034" lon="8.2942996"><ele>152.0</ele><time>2026-04-25T12:10:40.984Z</time></trkpt><trkpt lat="44.7199424" lon="8.2941624"><ele>152.0</ele><time>2026-04-25T12:10:41.984Z</time></trkpt><trkpt lat="44.7198564" lon="8.2940187"><ele>152.0</ele><time>2026-04-25T12:10:42.985Z</time></trkpt><trkpt lat="44.7197796" lon="8.2938817"><ele>152.25</ele><time>2026-04-25T12:10:43.984Z</time></trkpt><trkpt lat="44.7197162" lon="8.2937549"><ele>152.5</ele><time>2026-04-25T12:10:44.985Z</time></trkpt><trkpt lat="44.7196527" lon="8.2936394"><ele>152.75</ele><time>2026-04-25T12:10:45.984Z</time></trkpt><trkpt lat="44.7195809" lon="8.293511"><ele>153.0</ele><time>2026-04-25T12:10:46.984Z</time></trkpt><trkpt lat="44.7195035" lon="8.2933723"><ele>153.0</ele><time>2026-04-25T12:10:47.984Z</time></trkpt><trkpt lat="44.7194288" lon="8.2932437"><ele>153.0</ele><time>2026-04-25T12:10:48.984Z</time></trkpt><trkpt lat="44.7193822" lon="8.2931339"><ele>153.0</ele><time>2026-04-25T12:10:49.984Z</time></trkpt><trkpt lat="44.7193442" lon="8.2930433"><ele>153.0</ele><time>2026-04-25T12:10:50.984Z</time></trkpt><trkpt lat="44.7193147" lon="8.2929622"><ele>153.0</ele><time>2026-04-25T12:10:51.985Z</time></trkpt><trkpt lat="44.7192778" lon="8.292836"><ele>153.0</ele><time>2026-04-25T12:10:53.984Z</time></trkpt><trkpt lat="44.7192534" lon="8.2927297"><ele>153.20000000000002</ele><time>2026-04-25T12:10:55.985Z</time></trkpt><trkpt lat="44.7192112" lon="8.2925729"><ele>153.4</ele><time>2026-04-25T12:10:57.985Z</time></trkpt><trkpt lat="44.7191621" lon="8.2924717"><ele>153.60000000000002</ele><time>2026-04-25T12:10:58.984Z</time></trkpt><trkpt lat="44.7191121" lon="8.2923562"><ele>153.8</ele><time>2026-04-25T12:10:59.984Z</time></trkpt><trkpt lat="44.71906" lon="8.2922401"><ele>154.0</ele><time>2026-04-25T12:11:00.985Z</time></trkpt><trkpt lat="44.7190111" lon="8.2921204"><ele>154.0</ele><time>2026-04-25T12:11:01.985Z</time></trkpt><trkpt lat="44.7189621" lon="8.2920018"><ele>154.0</ele><time>2026-04-25T12:11:02.984Z</time></trkpt><trkpt lat="44.7189137" lon="8.2918854"><ele>154.0</ele><time>2026-04-25T12:11:03.984Z</time></trkpt><trkpt lat="44.7188712" lon="8.2917646"><ele>154.0</ele><time>2026-04-25T12:11:04.985Z</time></trkpt><trkpt lat="44.7188341" lon="8.2916341"><ele>154.0</ele><time>2026-04-25T12:11:05.984Z</time></trkpt><trkpt lat="44.7188018" lon="8.291506"><ele>153.8</ele><time>2026-04-25T12:11:06.984Z</time></trkpt><trkpt lat="44.7187709" lon="8.291371"><ele>153.60000000000002</ele><time>2026-04-25T12:11:07.984Z</time></trkpt><trkpt lat="44.7187414" lon="8.2912317"><ele>153.4</ele><time>2026-04-25T12:11:08.985Z</time></trkpt><trkpt lat="44.7187118" lon="8.2910948"><ele>153.20000000000002</ele><time>2026-04-25T12:11:09.984Z</time></trkpt><trkpt lat="44.7186904" lon="8.2909624"><ele>153.0</ele><time>2026-04-25T12:11:10.985Z</time></trkpt><trkpt lat="44.7186712" lon="8.2908279"><ele>153.0</ele><time>2026-04-25T12:11:11.984Z</time></trkpt><trkpt lat="44.7186475" lon="8.2906839"><ele>153.0</ele><time>2026-04-25T12:11:12.985Z</time></trkpt><trkpt lat="44.7186191" lon="8.2905444"><ele>153.0</ele><time>2026-04-25T12:11:13.985Z</time></trkpt><trkpt lat="44.7185913" lon="8.2904018"><ele>153.0</ele><time>2026-04-25T12:11:14.984Z</time></trkpt><trkpt lat="44.7185538" lon="8.2902626"><ele>153.0</ele><time>2026-04-25T12:11:15.984Z</time></trkpt><trkpt lat="44.71852" lon="8.2901367"><ele>153.0</ele><time>2026-04-25T12:11:16.984Z</time></trkpt><trkpt lat="44.7185017" lon="8.29002"><ele>153.0</ele><time>2026-04-25T12:11:17.985Z</time></trkpt><trkpt lat="44.7184833" lon="8.2899083"><ele>153.0</ele><time>2026-04-25T12:11:18.984Z</time></trkpt><trkpt lat="44.718465" lon="8.2898183"><ele>153.0</ele><time>2026-04-25T12:11:19.985Z</time></trkpt><trkpt lat="44.7184283" lon="8.289655"><ele>153.0</ele><time>2026-04-25T12:11:21.984Z</time></trkpt><trkpt lat="44.71841" lon="8.2895567"><ele>153.0</ele><time>2026-04-25T12:11:22.985Z</time></trkpt><trkpt lat="44.7183983" lon="8.2894467"><ele>153.16666666666666</ele><time>2026-04-25T12:11:23.985Z</time></trkpt><trkpt lat="44.718375" lon="8.28934"><ele>153.33333333333334</ele><time>2026-04-25T12:11:24.985Z</time></trkpt><trkpt lat="44.7183517" lon="8.2892133"><ele>153.5</ele><time>2026-04-25T12:11:25.984Z</time></trkpt><trkpt lat="44.71832" lon="8.289095"><ele>153.66666666666669</ele><time>2026-04-25T12:11:26.984Z</time></trkpt><trkpt lat="44.718285" lon="8.28898"><ele>153.83333333333334</ele><time>2026-04-25T12:11:27.984Z</time></trkpt><trkpt lat="44.7182567" lon="8.2888717"><ele>154.0</ele><time>2026-04-25T12:11:28.984Z</time></trkpt><trkpt lat="44.7182283" lon="8.2887567"><ele>154.0</ele><time>2026-04-25T12:11:29.985Z</time></trkpt><trkpt lat="44.7182067" lon="8.2886483"><ele>154.0</ele><time>2026-04-25T12:11:30.984Z</time></trkpt><trkpt lat="44.7181917" lon="8.28856"><ele>154.0</ele><time>2026-04-25T12:11:31.984Z</time></trkpt><trkpt lat="44.71817" lon="8.28847"><ele>154.0</ele><time>2026-04-25T12:11:32.985Z</time></trkpt><trkpt lat="44.718135" lon="8.2883517"><ele>154.0</ele><time>2026-04-25T12:11:33.984Z</time></trkpt><trkpt lat="44.7181133" lon="8.2882117"><ele>154.0</ele><time>2026-04-25T12:11:34.984Z</time></trkpt><trkpt lat="44.7180917" lon="8.28806"><ele>153.83333333333334</ele><time>2026-04-25T12:11:35.984Z</time></trkpt><trkpt lat="44.7180683" lon="8.2879217"><ele>153.66666666666669</ele><time>2026-04-25T12:11:36.984Z</time></trkpt><trkpt lat="44.718045" lon="8.2878"><ele>153.5</ele><time>2026-04-25T12:11:37.985Z</time></trkpt><trkpt lat="44.7180283" lon="8.287705"><ele>153.33333333333334</ele><time>2026-04-25T12:11:38.984Z</time></trkpt><trkpt lat="44.7179933" lon="8.2876083"><ele>153.16666666666666</ele><time>2026-04-25T12:11:40.984Z</time></trkpt><trkpt lat="44.717995" lon="8.2875183"><ele>153.0</ele><time>2026-04-25T12:11:44.985Z</time></trkpt><trkpt lat="44.7180133" lon="8.2874267"><ele>153.0</ele><time>2026-04-25T12:11:46.984Z</time></trkpt><trkpt lat="44.7180183" lon="8.2873083"><ele>153.0</ele><time>2026-04-25T12:11:48.984Z</time></trkpt><trkpt lat="44.717965" lon="8.28721"><ele>153.0</ele><time>2026-04-25T12:11:50.984Z</time></trkpt><trkpt lat="44.717875" lon="8.2872183"><ele>153.0</ele><time>2026-04-25T12:11:52.984Z</time></trkpt><trkpt lat="44.7177883" lon="8.2873417"><ele>153.0</ele><time>2026-04-25T12:11:54.984Z</time></trkpt><trkpt lat="44.7177183" lon="8.2874"><ele>153.0</ele><time>2026-04-25T12:11:55.984Z</time></trkpt><trkpt lat="44.7176333" lon="8.2874483"><ele>153.0</ele><time>2026-04-25T12:11:56.984Z</time></trkpt><trkpt lat="44.7175333" lon="8.287485"><ele>153.0</ele><time>2026-04-25T12:11:57.984Z</time></trkpt><trkpt lat="44.7174233" lon="8.2875117"><ele>153.0</ele><time>2026-04-25T12:11:58.985Z</time></trkpt><trkpt lat="44.71731" lon="8.2875483"><ele>153.0</ele><time>2026-04-25T12:11:59.984Z</time></trkpt><trkpt lat="44.717195" lon="8.2875817"><ele>153.0</ele><time>2026-04-25T12:12:00.984Z</time></trkpt><trkpt lat="44.7170767" lon="8.2876167"><ele>153.0</ele><time>2026-04-25T12:12:01.984Z</time></trkpt><trkpt lat="44.7169467" lon="8.2876567"><ele>153.0</ele><time>2026-04-25T12:12:02.984Z</time></trkpt><trkpt lat="44.7168117" lon="8.287705"><ele>153.0</ele><time>2026-04-25T12:12:03.985Z</time></trkpt><trkpt lat="44.716675" lon="8.2877817"><ele>153.75</ele><time>2026-04-25T12:12:04.984Z</time></trkpt><trkpt lat="44.7165367" lon="8.2878383"><ele>154.5</ele><time>2026-04-25T12:12:05.984Z</time></trkpt><trkpt lat="44.7163983" lon="8.2878983"><ele>155.25</ele><time>2026-04-25T12:12:06.985Z</time></trkpt><trkpt lat="44.7162733" lon="8.2879367"><ele>156.0</ele><time>2026-04-25T12:12:07.985Z</time></trkpt><trkpt lat="44.71615" lon="8.2879667"><ele>156.8</ele><time>2026-04-25T12:12:08.984Z</time></trkpt><trkpt lat="44.7160317" lon="8.2879933"><ele>157.6</ele><time>2026-04-25T12:12:09.984Z</time></trkpt><trkpt lat="44.7159167" lon="8.2880283"><ele>158.4</ele><time>2026-04-25T12:12:10.985Z</time></trkpt><trkpt lat="44.715815" lon="8.2880483"><ele>159.2</ele><time>2026-04-25T12:12:11.984Z</time></trkpt><trkpt lat="44.7157217" lon="8.28808"><ele>160.0</ele><time>2026-04-25T12:12:12.984Z</time></trkpt><trkpt lat="44.7156383" lon="8.28811"><ele>160.0</ele><time>2026-04-25T12:12:13.984Z</time></trkpt><trkpt lat="44.7155683" lon="8.28815"><ele>160.0</ele><time>2026-04-25T12:12:14.985Z</time></trkpt><trkpt lat="44.7154933" lon="8.28821"><ele>160.0</ele><time>2026-04-25T12:12:15.985Z</time></trkpt><trkpt lat="44.71543" lon="8.28829"><ele>160.0</ele><time>2026-04-25T12:12:16.985Z</time></trkpt><trkpt lat="44.715395" lon="8.288455"><ele>160.0</ele><time>2026-04-25T12:12:17.985Z</time></trkpt><trkpt lat="44.7153967" lon="8.2887233"><ele>159.25</ele><time>2026-04-25T12:12:18.985Z</time></trkpt><trkpt lat="44.7154" lon="8.2889517"><ele>158.5</ele><time>2026-04-25T12:12:19.984Z</time></trkpt><trkpt lat="44.7154017" lon="8.289155"><ele>157.75</ele><time>2026-04-25T12:12:20.985Z</time></trkpt><trkpt lat="44.715395" lon="8.2893467"><ele>157.0</ele><time>2026-04-25T12:12:21.984Z</time></trkpt><trkpt lat="44.7153733" lon="8.28951"><ele>157.0</ele><time>2026-04-25T12:12:22.984Z</time></trkpt><trkpt lat="44.7153417" lon="8.2896617"><ele>157.0</ele><time>2026-04-25T12:12:23.985Z</time></trkpt><trkpt lat="44.7153083" lon="8.2897883"><ele>157.0</ele><time>2026-04-25T12:12:24.984Z</time></trkpt><trkpt lat="44.71529" lon="8.2898833"><ele>157.0</ele><time>2026-04-25T12:12:25.985Z</time></trkpt><trkpt lat="44.71524" lon="8.2899667"><ele>157.0</ele><time>2026-04-25T12:12:26.984Z</time></trkpt><trkpt lat="44.7151667" lon="8.289985"><ele>157.0</ele><time>2026-04-25T12:12:27.984Z</time></trkpt><trkpt lat="44.7150817" lon="8.290025"><ele>158.5</ele><time>2026-04-25T12:12:28.984Z</time></trkpt><trkpt lat="44.7149867" lon="8.2900717"><ele>160.0</ele><time>2026-04-25T12:12:29.985Z</time></trkpt><trkpt lat="44.7148683" lon="8.290115"><ele>161.5</ele><time>2026-04-25T12:12:30.984Z</time></trkpt><trkpt lat="44.7147267" lon="8.290165"><ele>163.0</ele><time>2026-04-25T12:12:31.984Z</time></trkpt><trkpt lat="44.71457" lon="8.2902317"><ele>163.0</ele><time>2026-04-25T12:12:32.984Z</time></trkpt><trkpt lat="44.714415" lon="8.2902783"><ele>163.0</ele><time>2026-04-25T12:12:33.984Z</time></trkpt><trkpt lat="44.7142767" lon="8.2903517"><ele>163.0</ele><time>2026-04-25T12:12:34.984Z</time></trkpt><trkpt lat="44.7141367" lon="8.29042"><ele>164.0</ele><time>2026-04-25T12:12:35.984Z</time></trkpt><trkpt lat="44.713975" lon="8.2905367"><ele>165.0</ele><time>2026-04-25T12:12:36.984Z</time></trkpt><trkpt lat="44.71385" lon="8.2906067"><ele>166.0</ele><time>2026-04-25T12:12:37.984Z</time></trkpt><trkpt lat="44.7137167" lon="8.2906333"><ele>166.33333333333334</ele><time>2026-04-25T12:12:38.984Z</time></trkpt><trkpt lat="44.7135633" lon="8.290665"><ele>166.66666666666666</ele><time>2026-04-25T12:12:39.984Z</time></trkpt><trkpt lat="44.7134133" lon="8.2907433"><ele>167.0</ele><time>2026-04-25T12:12:40.984Z</time></trkpt><trkpt lat="44.7132867" lon="8.29084"><ele>167.0</ele><time>2026-04-25T12:12:41.984Z</time></trkpt><trkpt lat="44.7131883" lon="8.2909767"><ele>167.0</ele><time>2026-04-25T12:12:42.985Z</time></trkpt><trkpt lat="44.7131117" lon="8.2911417"><ele>167.0</ele><time>2026-04-25T12:12:43.985Z</time></trkpt><trkpt lat="44.71305" lon="8.2913617"><ele>167.0</ele><time>2026-04-25T12:12:44.985Z</time></trkpt><trkpt lat="44.7129817" lon="8.2916217"><ele>168.66666666666666</ele><time>2026-04-25T12:12:45.985Z</time></trkpt><trkpt lat="44.71293" lon="8.29189"><ele>170.33333333333334</ele><time>2026-04-25T12:12:46.984Z</time></trkpt><trkpt lat="44.71286" lon="8.2921733"><ele>172.0</ele><time>2026-04-25T12:12:47.985Z</time></trkpt><trkpt lat="44.7127833" lon="8.2924667"><ele>181.0</ele><time>2026-04-25T12:12:48.984Z</time></trkpt><trkpt lat="44.7126983" lon="8.2927583"><ele>190.0</ele><time>2026-04-25T12:12:49.985Z</time></trkpt><trkpt lat="44.7126183" lon="8.2930767"><ele>189.0</ele><time>2026-04-25T12:12:50.984Z</time></trkpt><trkpt lat="44.7125167" lon="8.2933767"><ele>188.0</ele><time>2026-04-25T12:12:51.985Z</time></trkpt><trkpt lat="44.712435" lon="8.2936867"><ele>187.0</ele><time>2026-04-25T12:12:52.984Z</time></trkpt><trkpt lat="44.71235" lon="8.2939817"><ele>186.0</ele><time>2026-04-25T12:12:53.984Z</time></trkpt><trkpt lat="44.7122667" lon="8.2942683"><ele>185.0</ele><time>2026-04-25T12:12:54.984Z</time></trkpt><trkpt lat="44.7121883" lon="8.29454"><ele>184.66666666666666</ele><time>2026-04-25T12:12:55.985Z</time></trkpt><trkpt lat="44.712115" lon="8.2948233"><ele>184.33333333333334</ele><time>2026-04-25T12:12:56.985Z</time></trkpt><trkpt lat="44.712035" lon="8.2950833"><ele>184.0</ele><time>2026-04-25T12:12:57.985Z</time></trkpt><trkpt lat="44.711965" lon="8.2953317"><ele>189.33333333333334</ele><time>2026-04-25T12:12:58.984Z</time></trkpt><trkpt lat="44.71189" lon="8.2955633"><ele>194.66666666666669</ele><time>2026-04-25T12:12:59.984Z</time></trkpt><trkpt lat="44.71183" lon="8.2957733"><ele>200.0</ele><time>2026-04-25T12:13:00.984Z</time></trkpt><trkpt lat="44.71179" lon="8.2959733"><ele>200.0</ele><time>2026-04-25T12:13:01.985Z</time></trkpt><trkpt lat="44.7117767" lon="8.29617"><ele>200.0</ele><time>2026-04-25T12:13:02.984Z</time></trkpt><trkpt lat="44.7117967" lon="8.2963683"><ele>200.0</ele><time>2026-04-25T12:13:03.984Z</time></trkpt><trkpt lat="44.71185" lon="8.296575"><ele>200.0</ele><time>2026-04-25T12:13:04.984Z</time></trkpt><trkpt lat="44.71194" lon="8.2967583"><ele>197.66666666666669</ele><time>2026-04-25T12:13:05.985Z</time></trkpt><trkpt lat="44.712025" lon="8.2969467"><ele>195.33333333333331</ele><time>2026-04-25T12:13:06.985Z</time></trkpt><trkpt lat="44.7120983" lon="8.2971483"><ele>193.0</ele><time>2026-04-25T12:13:07.984Z</time></trkpt><trkpt lat="44.7121483" lon="8.2973517"><ele>193.0</ele><time>2026-04-25T12:13:08.984Z</time></trkpt><trkpt lat="44.71218" lon="8.297565"><ele>193.0</ele><time>2026-04-25T12:13:09.984Z</time></trkpt><trkpt lat="44.7122" lon="8.29777"><ele>193.0</ele><time>2026-04-25T12:13:10.984Z</time></trkpt><trkpt lat="44.7122217" lon="8.2979717"><ele>193.0</ele><time>2026-04-25T12:13:11.985Z</time></trkpt><trkpt lat="44.7122267" lon="8.298165"><ele>193.8</ele><time>2026-04-25T12:13:12.984Z</time></trkpt><trkpt lat="44.712225" lon="8.2983317"><ele>194.60000000000002</ele><time>2026-04-25T12:13:13.984Z</time></trkpt><trkpt lat="44.7122117" lon="8.2984833"><ele>195.39999999999998</ele><time>2026-04-25T12:13:14.984Z</time></trkpt><trkpt lat="44.7121417" lon="8.2986"><ele>196.2</ele><time>2026-04-25T12:13:15.984Z</time></trkpt><trkpt lat="44.7120433" lon="8.29865"><ele>197.0</ele><time>2026-04-25T12:13:16.984Z</time></trkpt><trkpt lat="44.711935" lon="8.2986333"><ele>201.66666666666669</ele><time>2026-04-25T12:13:17.984Z</time></trkpt><trkpt lat="44.7118083" lon="8.298565"><ele>206.33333333333331</ele><time>2026-04-25T12:13:18.984Z</time></trkpt><trkpt lat="44.7116617" lon="8.298475"><ele>211.0</ele><time>2026-04-25T12:13:19.984Z</time></trkpt><trkpt lat="44.7114933" lon="8.2983533"><ele>211.0</ele><time>2026-04-25T12:13:20.985Z</time></trkpt><trkpt lat="44.711325" lon="8.2982233"><ele>211.0</ele><time>2026-04-25T12:13:21.984Z</time></trkpt><trkpt lat="44.7111417" lon="8.29808"><ele>211.0</ele><time>2026-04-25T12:13:22.985Z</time></trkpt><trkpt lat="44.7109417" lon="8.297925"><ele>215.33333333333331</ele><time>2026-04-25T12:13:23.984Z</time></trkpt><trkpt lat="44.7107383" lon="8.297785"><ele>219.66666666666669</ele><time>2026-04-25T12:13:24.984Z</time></trkpt><trkpt lat="44.7105417" lon="8.2976417"><ele>224.0</ele><time>2026-04-25T12:13:25.984Z</time></trkpt><trkpt lat="44.71036" lon="8.2974933"><ele>224.33333333333334</ele><time>2026-04-25T12:13:26.984Z</time></trkpt><trkpt lat="44.7101917" lon="8.2973583"><ele>224.66666666666669</ele><time>2026-04-25T12:13:27.984Z</time></trkpt><trkpt lat="44.71002" lon="8.297195"><ele>225.0</ele><time>2026-04-25T12:13:28.984Z</time></trkpt><trkpt lat="44.7098433" lon="8.2970283"><ele>225.0</ele><time>2026-04-25T12:13:29.985Z</time></trkpt><trkpt lat="44.709665" lon="8.29686"><ele>225.0</ele><time>2026-04-25T12:13:30.984Z</time></trkpt><trkpt lat="44.7095033" lon="8.2966483"><ele>225.0</ele><time>2026-04-25T12:13:31.985Z</time></trkpt><trkpt lat="44.709355" lon="8.2963917"><ele>228.33333333333331</ele><time>2026-04-25T12:13:32.984Z</time></trkpt><trkpt lat="44.709205" lon="8.2961317"><ele>231.66666666666666</ele><time>2026-04-25T12:13:33.984Z</time></trkpt><trkpt lat="44.70908" lon="8.2959017"><ele>235.0</ele><time>2026-04-25T12:13:34.984Z</time></trkpt><trkpt lat="44.708975" lon="8.295705"><ele>235.66666666666666</ele><time>2026-04-25T12:13:35.984Z</time></trkpt><trkpt lat="44.7088517" lon="8.2955583"><ele>236.33333333333331</ele><time>2026-04-25T12:13:36.984Z</time></trkpt><trkpt lat="44.7087167" lon="8.2954583"><ele>237.0</ele><time>2026-04-25T12:13:37.984Z</time></trkpt><trkpt lat="44.70854" lon="8.295375"><ele>237.0</ele><time>2026-04-25T12:13:38.984Z</time></trkpt><trkpt lat="44.70834" lon="8.2953117"><ele>237.0</ele><time>2026-04-25T12:13:39.984Z</time></trkpt><trkpt lat="44.7081317" lon="8.2953"><ele>237.0</ele><time>2026-04-25T12:13:40.985Z</time></trkpt><trkpt lat="44.7079333" lon="8.2953233"><ele>237.0</ele><time>2026-04-25T12:13:41.985Z</time></trkpt><trkpt lat="44.7077633" lon="8.2953483"><ele>237.0</ele><time>2026-04-25T12:13:42.985Z</time></trkpt><trkpt lat="44.7076233" lon="8.29532"><ele>237.0</ele><time>2026-04-25T12:13:43.985Z</time></trkpt><trkpt lat="44.7074967" lon="8.2952133"><ele>241.0</ele><time>2026-04-25T12:13:44.984Z</time></trkpt><trkpt lat="44.70742" lon="8.2950683"><ele>245.0</ele><time>2026-04-25T12:13:45.985Z</time></trkpt><trkpt lat="44.707375" lon="8.2948633"><ele>249.0</ele><time>2026-04-25T12:13:46.984Z</time></trkpt><trkpt lat="44.7073483" lon="8.294625"><ele>249.0</ele><time>2026-04-25T12:13:47.984Z</time></trkpt><trkpt lat="44.7073133" lon="8.2943867"><ele>249.0</ele><time>2026-04-25T12:13:48.984Z</time></trkpt><trkpt lat="44.7072633" lon="8.2941767"><ele>249.0</ele><time>2026-04-25T12:13:49.985Z</time></trkpt><trkpt lat="44.70719" lon="8.294015"><ele>249.0</ele><time>2026-04-25T12:13:50.984Z</time></trkpt><trkpt lat="44.7071167" lon="8.293875"><ele>248.99999999999997</ele><time>2026-04-25T12:13:51.984Z</time></trkpt><trkpt lat="44.707035" lon="8.2937867"><ele>248.99999999999997</ele><time>2026-04-25T12:13:52.984Z</time></trkpt><trkpt lat="44.7069567" lon="8.2937167"><ele>249.0</ele><time>2026-04-25T12:13:53.985Z</time></trkpt><trkpt lat="44.70688" lon="8.2936567"><ele>249.0</ele><time>2026-04-25T12:13:54.984Z</time></trkpt><trkpt lat="44.7068083" lon="8.2935917"><ele>250.39999999999998</ele><time>2026-04-25T12:13:55.985Z</time></trkpt><trkpt lat="44.7067133" lon="8.2935433"><ele>251.79999999999998</ele><time>2026-04-25T12:13:56.984Z</time></trkpt><trkpt lat="44.706615" lon="8.293495"><ele>253.20000000000002</ele><time>2026-04-25T12:13:57.984Z</time></trkpt><trkpt lat="44.7065083" lon="8.2934683"><ele>254.60000000000002</ele><time>2026-04-25T12:13:58.984Z</time></trkpt><trkpt lat="44.7064" lon="8.2934417"><ele>256.0</ele><time>2026-04-25T12:13:59.984Z</time></trkpt><trkpt lat="44.70629" lon="8.2934133"><ele>256.0</ele><time>2026-04-25T12:14:00.984Z</time></trkpt><trkpt lat="44.70618" lon="8.293375"><ele>256.0</ele><time>2026-04-25T12:14:01.984Z</time></trkpt><trkpt lat="44.7060617" lon="8.2933633"><ele>256.0</ele><time>2026-04-25T12:14:02.984Z</time></trkpt><trkpt lat="44.7059567" lon="8.2933583"><ele>256.0</ele><time>2026-04-25T12:14:03.984Z</time></trkpt><trkpt lat="44.70585" lon="8.29338"><ele>256.0</ele><time>2026-04-25T12:14:04.985Z</time></trkpt><trkpt lat="44.70576" lon="8.2934133"><ele>256.8</ele><time>2026-04-25T12:14:05.984Z</time></trkpt><trkpt lat="44.7056783" lon="8.293465"><ele>257.6</ele><time>2026-04-25T12:14:06.984Z</time></trkpt><trkpt lat="44.7056067" lon="8.2935483"><ele>258.4</ele><time>2026-04-25T12:14:07.984Z</time></trkpt><trkpt lat="44.7055483" lon="8.2936417"><ele>259.2</ele><time>2026-04-25T12:14:08.984Z</time></trkpt><trkpt lat="44.7055117" lon="8.2938017"><ele>260.0</ele><time>2026-04-25T12:14:09.984Z</time></trkpt><trkpt lat="44.7054867" lon="8.2940283"><ele>258.6666666666667</ele><time>2026-04-25T12:14:10.984Z</time></trkpt><trkpt lat="44.70544" lon="8.2942517"><ele>257.3333333333333</ele><time>2026-04-25T12:14:11.984Z</time></trkpt><trkpt lat="44.7053583" lon="8.2944833"><ele>256.0</ele><time>2026-04-25T12:14:12.984Z</time></trkpt><trkpt lat="44.705245" lon="8.294715"><ele>262.0</ele><time>2026-04-25T12:14:13.985Z</time></trkpt><trkpt lat="44.70509" lon="8.29495"><ele>268.0</ele><time>2026-04-25T12:14:14.984Z</time></trkpt><trkpt lat="44.70493" lon="8.295155"><ele>274.0</ele><time>2026-04-25T12:14:15.984Z</time></trkpt><trkpt lat="44.7047667" lon="8.2953283"><ele>274.0</ele><time>2026-04-25T12:14:16.984Z</time></trkpt><trkpt lat="44.7046183" lon="8.2954517"><ele>274.0</ele><time>2026-04-25T12:14:17.984Z</time></trkpt><trkpt lat="44.70449" lon="8.2955017"><ele>274.0</ele><time>2026-04-25T12:14:18.984Z</time></trkpt><trkpt lat="44.70437" lon="8.2954767"><ele>274.0</ele><time>2026-04-25T12:14:19.984Z</time></trkpt><trkpt lat="44.7042433" lon="8.2953733"><ele>274.0</ele><time>2026-04-25T12:14:20.985Z</time></trkpt><trkpt lat="44.7041167" lon="8.2952217"><ele>274.0</ele><time>2026-04-25T12:14:21.984Z</time></trkpt><trkpt lat="44.7039917" lon="8.295075"><ele>274.0</ele><time>2026-04-25T12:14:22.984Z</time></trkpt><trkpt lat="44.7038583" lon="8.294925"><ele>274.0</ele><time>2026-04-25T12:14:23.984Z</time></trkpt><trkpt lat="44.7037067" lon="8.29486"><ele>274.0</ele><time>2026-04-25T12:14:24.984Z</time></trkpt><trkpt lat="44.7035267" lon="8.2948467"><ele>274.0</ele><time>2026-04-25T12:14:25.984Z</time></trkpt><trkpt lat="44.70333" lon="8.2948583"><ele>278.66666666666663</ele><time>2026-04-25T12:14:26.984Z</time></trkpt><trkpt lat="44.703135" lon="8.294885"><ele>283.3333333333333</ele><time>2026-04-25T12:14:27.984Z</time></trkpt><trkpt lat="44.7029667" lon="8.2949083"><ele>288.0</ele><time>2026-04-25T12:14:28.985Z</time></trkpt><trkpt lat="44.70281" lon="8.29497"><ele>284.0</ele><time>2026-04-25T12:14:29.985Z</time></trkpt><trkpt lat="44.7026667" lon="8.2951033"><ele>280.0</ele><time>2026-04-25T12:14:30.984Z</time></trkpt><trkpt lat="44.7025383" lon="8.29525"><ele>276.0</ele><time>2026-04-25T12:14:31.985Z</time></trkpt><trkpt lat="44.70245" lon="8.295465"><ele>281.6666666666667</ele><time>2026-04-25T12:14:32.984Z</time></trkpt><trkpt lat="44.7024017" lon="8.29565"><ele>287.33333333333337</ele><time>2026-04-25T12:14:33.984Z</time></trkpt><trkpt lat="44.7024133" lon="8.295875"><ele>293.0</ele><time>2026-04-25T12:14:34.984Z</time></trkpt><trkpt lat="44.7024217" lon="8.29612"><ele>293.0</ele><time>2026-04-25T12:14:35.984Z</time></trkpt><trkpt lat="44.70241" lon="8.29637"><ele>293.0</ele><time>2026-04-25T12:14:36.985Z</time></trkpt><trkpt lat="44.7023667" lon="8.296595"><ele>293.0</ele><time>2026-04-25T12:14:37.984Z</time></trkpt><trkpt lat="44.7023033" lon="8.29678"><ele>289.5</ele><time>2026-04-25T12:14:38.984Z</time></trkpt><trkpt lat="44.7022067" lon="8.296925"><ele>286.0</ele><time>2026-04-25T12:14:39.985Z</time></trkpt><trkpt lat="44.7020833" lon="8.297005"><ele>282.5</ele><time>2026-04-25T12:14:40.985Z</time></trkpt><trkpt lat="44.70196" lon="8.29706"><ele>279.0</ele><time>2026-04-25T12:14:41.984Z</time></trkpt><trkpt lat="44.7018617" lon="8.2971533"><ele>283.5</ele><time>2026-04-25T12:14:42.985Z</time></trkpt><trkpt lat="44.7017967" lon="8.297285"><ele>288.0</ele><time>2026-04-25T12:14:43.984Z</time></trkpt><trkpt lat="44.7017717" lon="8.2974533"><ele>292.5</ele><time>2026-04-25T12:14:44.984Z</time></trkpt><trkpt lat="44.701785" lon="8.2976567"><ele>297.0</ele><time>2026-04-25T12:14:45.984Z</time></trkpt><trkpt lat="44.701825" lon="8.29788"><ele>297.3333333333333</ele><time>2026-04-25T12:14:46.984Z</time></trkpt><trkpt lat="44.7018967" lon="8.2981617"><ele>297.66666666666663</ele><time>2026-04-25T12:14:47.985Z</time></trkpt><trkpt lat="44.7019767" lon="8.2984683"><ele>298.0</ele><time>2026-04-25T12:14:48.984Z</time></trkpt><trkpt lat="44.7020583" lon="8.298755"><ele>306.66666666666663</ele><time>2026-04-25T12:14:49.983Z</time></trkpt><trkpt lat="44.7021333" lon="8.2990067"><ele>315.3333333333333</ele><time>2026-04-25T12:14:50.983Z</time></trkpt><trkpt lat="44.7021967" lon="8.299235"><ele>324.0</ele><time>2026-04-25T12:14:51.984Z</time></trkpt><trkpt lat="44.702225" lon="8.29945"><ele>324.0</ele><time>2026-04-25T12:14:52.983Z</time></trkpt><trkpt lat="44.702215" lon="8.2996433"><ele>324.0</ele><time>2026-04-25T12:14:53.983Z</time></trkpt><trkpt lat="44.7021533" lon="8.299815"><ele>324.0</ele><time>2026-04-25T12:14:54.983Z</time></trkpt><trkpt lat="44.70204" lon="8.2999417"><ele>324.0</ele><time>2026-04-25T12:14:55.983Z</time></trkpt><trkpt lat="44.701905" lon="8.3000167"><ele>323.3333333333333</ele><time>2026-04-25T12:14:56.983Z</time></trkpt><trkpt lat="44.7017383" lon="8.3"><ele>322.66666666666663</ele><time>2026-04-25T12:14:57.983Z</time></trkpt><trkpt lat="44.7015483" lon="8.2999467"><ele>322.0</ele><time>2026-04-25T12:14:58.983Z</time></trkpt><trkpt lat="44.7013217" lon="8.299875"><ele>322.0</ele><time>2026-04-25T12:14:59.984Z</time></trkpt><trkpt lat="44.7010983" lon="8.2998233"><ele>322.0</ele><time>2026-04-25T12:15:00.983Z</time></trkpt><trkpt lat="44.7009133" lon="8.2997717"><ele>322.0</ele><time>2026-04-25T12:15:01.983Z</time></trkpt><trkpt lat="44.7007617" lon="8.2997317"><ele>323.75</ele><time>2026-04-25T12:15:02.984Z</time></trkpt><trkpt lat="44.7006383" lon="8.2997367"><ele>325.5</ele><time>2026-04-25T12:15:03.983Z</time></trkpt><trkpt lat="44.7005133" lon="8.29977"><ele>327.25</ele><time>2026-04-25T12:15:04.984Z</time></trkpt><trkpt lat="44.7004033" lon="8.2998667"><ele>329.0</ele><time>2026-04-25T12:15:05.983Z</time></trkpt><trkpt lat="44.7003083" lon="8.3000817"><ele>328.5</ele><time>2026-04-25T12:15:06.983Z</time></trkpt><trkpt lat="44.70019" lon="8.30036"><ele>328.0</ele><time>2026-04-25T12:15:07.984Z</time></trkpt><trkpt lat="44.70008" lon="8.30065"><ele>328.0</ele><time>2026-04-25T12:15:08.983Z</time></trkpt><trkpt lat="44.6999733" lon="8.300975"><ele>328.0</ele><time>2026-04-25T12:15:09.983Z</time></trkpt><trkpt lat="44.6998733" lon="8.301305"><ele>332.66666666666663</ele><time>2026-04-25T12:15:10.983Z</time></trkpt><trkpt lat="44.6998017" lon="8.3016283"><ele>337.3333333333333</ele><time>2026-04-25T12:15:11.984Z</time></trkpt><trkpt lat="44.6997617" lon="8.3019117"><ele>342.0</ele><time>2026-04-25T12:15:12.983Z</time></trkpt><trkpt lat="44.69971" lon="8.3021667"><ele>344.0</ele><time>2026-04-25T12:15:13.984Z</time></trkpt><trkpt lat="44.6996333" lon="8.3023717"><ele>346.0</ele><time>2026-04-25T12:15:14.983Z</time></trkpt><trkpt lat="44.6995117" lon="8.30252"><ele>348.0</ele><time>2026-04-25T12:15:15.984Z</time></trkpt><trkpt lat="44.6993467" lon="8.3026517"><ele>340.0</ele><time>2026-04-25T12:15:16.984Z</time></trkpt><trkpt lat="44.699155" lon="8.3027917"><ele>332.0</ele><time>2026-04-25T12:15:17.983Z</time></trkpt><trkpt lat="44.6989367" lon="8.3029767"><ele>336.0</ele><time>2026-04-25T12:15:18.984Z</time></trkpt><trkpt lat="44.698715" lon="8.3032067"><ele>340.0</ele><time>2026-04-25T12:15:19.984Z</time></trkpt><trkpt lat="44.6985083" lon="8.3034283"><ele>340.0</ele><time>2026-04-25T12:15:20.983Z</time></trkpt><trkpt lat="44.6982983" lon="8.30362"><ele>340.0</ele><time>2026-04-25T12:15:21.983Z</time></trkpt><trkpt lat="44.6981033" lon="8.3037933"><ele>347.0</ele><time>2026-04-25T12:15:22.983Z</time></trkpt><trkpt lat="44.6979017" lon="8.30393"><ele>354.0</ele><time>2026-04-25T12:15:23.983Z</time></trkpt><trkpt lat="44.69769" lon="8.3040233"><ele>361.0</ele><time>2026-04-25T12:15:24.984Z</time></trkpt><trkpt lat="44.6974717" lon="8.3040817"><ele>361.0</ele><time>2026-04-25T12:15:25.984Z</time></trkpt><trkpt lat="44.6972733" lon="8.304095"><ele>361.0</ele><time>2026-04-25T12:15:26.983Z</time></trkpt><trkpt lat="44.6971083" lon="8.3040567"><ele>361.0</ele><time>2026-04-25T12:15:27.983Z</time></trkpt><trkpt lat="44.6969833" lon="8.303965"><ele>360.66666666666663</ele><time>2026-04-25T12:15:28.983Z</time></trkpt><trkpt lat="44.6968883" lon="8.303845"><ele>360.3333333333333</ele><time>2026-04-25T12:15:29.983Z</time></trkpt><trkpt lat="44.6968133" lon="8.3036483"><ele>360.0</ele><time>2026-04-25T12:15:30.983Z</time></trkpt><trkpt lat="44.6967617" lon="8.3033933"><ele>360.0</ele><time>2026-04-25T12:15:31.983Z</time></trkpt><trkpt lat="44.6967267" lon="8.303105"><ele>360.0</ele><time>2026-04-25T12:15:32.983Z</time></trkpt><trkpt lat="44.696685" lon="8.302855"><ele>360.0</ele><time>2026-04-25T12:15:33.983Z</time></trkpt><trkpt lat="44.696605" lon="8.3026433"><ele>357.75</ele><time>2026-04-25T12:15:34.984Z</time></trkpt><trkpt lat="44.6965233" lon="8.3024933"><ele>355.5</ele><time>2026-04-25T12:15:35.984Z</time></trkpt><trkpt lat="44.6964283" lon="8.30238"><ele>353.25</ele><time>2026-04-25T12:15:36.983Z</time></trkpt><trkpt lat="44.696325" lon="8.3023367"><ele>351.0</ele><time>2026-04-25T12:15:37.983Z</time></trkpt><trkpt lat="44.6961767" lon="8.3024133"><ele>350.6666666666667</ele><time>2026-04-25T12:15:38.983Z</time></trkpt><trkpt lat="44.696035" lon="8.3025733"><ele>350.33333333333337</ele><time>2026-04-25T12:15:39.984Z</time></trkpt><trkpt lat="44.6958817" lon="8.30279"><ele>350.0</ele><time>2026-04-25T12:15:40.983Z</time></trkpt><trkpt lat="44.6956917" lon="8.3030783"><ele>360.0</ele><time>2026-04-25T12:15:41.983Z</time></trkpt><trkpt lat="44.6954833" lon="8.3033683"><ele>370.0</ele><time>2026-04-25T12:15:42.983Z</time></trkpt><trkpt lat="44.69528" lon="8.3036533"><ele>373.5</ele><time>2026-04-25T12:15:43.984Z</time></trkpt><trkpt lat="44.6950833" lon="8.3039267"><ele>377.0</ele><time>2026-04-25T12:15:44.984Z</time></trkpt><trkpt lat="44.6949" lon="8.3041867"><ele>377.0</ele><time>2026-04-25T12:15:45.984Z</time></trkpt><trkpt lat="44.69474" lon="8.3044183"><ele>377.0</ele><time>2026-04-25T12:15:46.983Z</time></trkpt><trkpt lat="44.6945817" lon="8.3046383"><ele>377.0</ele><time>2026-04-25T12:15:47.984Z</time></trkpt><trkpt lat="44.69441" lon="8.304845"><ele>377.0</ele><time>2026-04-25T12:15:48.984Z</time></trkpt><trkpt lat="44.6942283" lon="8.30502"><ele>377.0</ele><time>2026-04-25T12:15:49.983Z</time></trkpt><trkpt lat="44.6940417" lon="8.3051883"><ele>377.0</ele><time>2026-04-25T12:15:50.983Z</time></trkpt><trkpt lat="44.6938417" lon="8.305355"><ele>377.0</ele><time>2026-04-25T12:15:51.984Z</time></trkpt><trkpt lat="44.693635" lon="8.305505"><ele>380.5</ele><time>2026-04-25T12:15:52.983Z</time></trkpt><trkpt lat="44.6934217" lon="8.3056333"><ele>384.0</ele><time>2026-04-25T12:15:53.984Z</time></trkpt><trkpt lat="44.69319" lon="8.3057467"><ele>384.0</ele><time>2026-04-25T12:15:54.983Z</time></trkpt><trkpt lat="44.6929467" lon="8.305865"><ele>384.0</ele><time>2026-04-25T12:15:55.983Z</time></trkpt><trkpt lat="44.69272" lon="8.3059933"><ele>382.3333333333333</ele><time>2026-04-25T12:15:56.983Z</time></trkpt><trkpt lat="44.6925083" lon="8.3061017"><ele>380.66666666666663</ele><time>2026-04-25T12:15:57.983Z</time></trkpt><trkpt lat="44.69231" lon="8.3062033"><ele>379.0</ele><time>2026-04-25T12:15:58.984Z</time></trkpt><trkpt lat="44.6921183" lon="8.3062717"><ele>380.0</ele><time>2026-04-25T12:15:59.984Z</time></trkpt><trkpt lat="44.6919233" lon="8.3062767"><ele>381.0</ele><time>2026-04-25T12:16:00.984Z</time></trkpt><trkpt lat="44.6917183" lon="8.306235"><ele>382.0</ele><time>2026-04-25T12:16:01.983Z</time></trkpt><trkpt lat="44.6914967" lon="8.306195"><ele>382.0</ele><time>2026-04-25T12:16:02.984Z</time></trkpt><trkpt lat="44.6912833" lon="8.306165"><ele>382.0</ele><time>2026-04-25T12:16:03.983Z</time></trkpt><trkpt lat="44.69109" lon="8.3061283"><ele>382.0</ele><time>2026-04-25T12:16:04.983Z</time></trkpt><trkpt lat="44.690915" lon="8.306065"><ele>386.66666666666663</ele><time>2026-04-25T12:16:05.983Z</time></trkpt><trkpt lat="44.6907483" lon="8.3059667"><ele>391.3333333333333</ele><time>2026-04-25T12:16:06.983Z</time></trkpt><trkpt lat="44.6906" lon="8.30583"><ele>396.0</ele><time>2026-04-25T12:16:07.984Z</time></trkpt><trkpt lat="44.6904617" lon="8.3056317"><ele>400.0</ele><time>2026-04-25T12:16:08.984Z</time></trkpt><trkpt lat="44.6903367" lon="8.305385"><ele>404.0</ele><time>2026-04-25T12:16:09.983Z</time></trkpt><trkpt lat="44.6902283" lon="8.3051133"><ele>408.0</ele><time>2026-04-25T12:16:10.984Z</time></trkpt><trkpt lat="44.6901183" lon="8.3048483"><ele>405.33333333333337</ele><time>2026-04-25T12:16:11.983Z</time></trkpt><trkpt lat="44.6900283" lon="8.304615"><ele>402.6666666666667</ele><time>2026-04-25T12:16:12.983Z</time></trkpt><trkpt lat="44.6899433" lon="8.304405"><ele>400.0</ele><time>2026-04-25T12:16:13.984Z</time></trkpt><trkpt lat="44.689875" lon="8.30421"><ele>400.0</ele><time>2026-04-25T12:16:14.984Z</time></trkpt><trkpt lat="44.6898083" lon="8.3040383"><ele>400.0</ele><time>2026-04-25T12:16:15.983Z</time></trkpt><trkpt lat="44.6897533" lon="8.303895"><ele>400.0</ele><time>2026-04-25T12:16:16.983Z</time></trkpt><trkpt lat="44.6897133" lon="8.30378"><ele>400.0</ele><time>2026-04-25T12:16:17.983Z</time></trkpt><trkpt lat="44.6896783" lon="8.30367"><ele>400.0</ele><time>2026-04-25T12:16:18.983Z</time></trkpt><trkpt lat="44.68966" lon="8.3035767"><ele>400.00000000000006</ele><time>2026-04-25T12:16:19.984Z</time></trkpt><trkpt lat="44.6896283" lon="8.3034883"><ele>400.0</ele><time>2026-04-25T12:16:20.984Z</time></trkpt><trkpt lat="44.6896" lon="8.3033933"><ele>400.0</ele><time>2026-04-25T12:16:21.983Z</time></trkpt><trkpt lat="44.68958" lon="8.3032783"><ele>400.0</ele><time>2026-04-25T12:16:22.984Z</time></trkpt><trkpt lat="44.68955" lon="8.30315"><ele>400.00000000000006</ele><time>2026-04-25T12:16:23.983Z</time></trkpt><trkpt lat="44.68954" lon="8.30302"><ele>400.0</ele><time>2026-04-25T12:16:24.983Z</time></trkpt><trkpt lat="44.6895267" lon="8.3028983"><ele>399.6</ele><time>2026-04-25T12:16:25.983Z</time></trkpt><trkpt lat="44.6895217" lon="8.3027717"><ele>399.2</ele><time>2026-04-25T12:16:26.984Z</time></trkpt><trkpt lat="44.68953" lon="8.3026383"><ele>398.79999999999995</ele><time>2026-04-25T12:16:27.984Z</time></trkpt><trkpt lat="44.6895483" lon="8.3025083"><ele>398.4</ele><time>2026-04-25T12:16:28.983Z</time></trkpt><trkpt lat="44.6895533" lon="8.30237"><ele>398.0</ele><time>2026-04-25T12:16:29.983Z</time></trkpt><trkpt lat="44.6895617" lon="8.3022433"><ele>397.0</ele><time>2026-04-25T12:16:30.983Z</time></trkpt><trkpt lat="44.68958" lon="8.3021233"><ele>396.0</ele><time>2026-04-25T12:16:31.983Z</time></trkpt><trkpt lat="44.6896083" lon="8.3019967"><ele>395.0</ele><time>2026-04-25T12:16:32.983Z</time></trkpt><trkpt lat="44.689645" lon="8.3018733"><ele>394.0</ele><time>2026-04-25T12:16:33.983Z</time></trkpt><trkpt lat="44.6896817" lon="8.30175"><ele>393.0</ele><time>2026-04-25T12:16:34.983Z</time></trkpt><trkpt lat="44.689715" lon="8.3016267"><ele>393.0</ele><time>2026-04-25T12:16:35.984Z</time></trkpt><trkpt lat="44.689735" lon="8.301495"><ele>393.0</ele><time>2026-04-25T12:16:36.983Z</time></trkpt><trkpt lat="44.689745" lon="8.3013383"><ele>393.0</ele><time>2026-04-25T12:16:37.983Z</time></trkpt><trkpt lat="44.689755" lon="8.30114"><ele>393.0</ele><time>2026-04-25T12:16:38.983Z</time></trkpt><trkpt lat="44.6897583" lon="8.3009183"><ele>393.0</ele><time>2026-04-25T12:16:39.983Z</time></trkpt><trkpt lat="44.6897567" lon="8.300675"><ele>393.0</ele><time>2026-04-25T12:16:40.984Z</time></trkpt><trkpt lat="44.6897583" lon="8.3004067"><ele>393.0</ele><time>2026-04-25T12:16:41.984Z</time></trkpt><trkpt lat="44.6897483" lon="8.3001117"><ele>391.33333333333337</ele><time>2026-04-25T12:16:42.983Z</time></trkpt><trkpt lat="44.68974" lon="8.2998117"><ele>389.6666666666667</ele><time>2026-04-25T12:16:43.983Z</time></trkpt><trkpt lat="44.6897333" lon="8.2995183"><ele>388.0</ele><time>2026-04-25T12:16:44.983Z</time></trkpt><trkpt lat="44.68973" lon="8.2992317"><ele>386.6666666666667</ele><time>2026-04-25T12:16:45.984Z</time></trkpt><trkpt lat="44.6897267" lon="8.2989383"><ele>385.33333333333337</ele><time>2026-04-25T12:16:46.983Z</time></trkpt><trkpt lat="44.6897233" lon="8.2986733"><ele>384.0</ele><time>2026-04-25T12:16:47.984Z</time></trkpt><trkpt lat="44.68975" lon="8.2984133"><ele>384.0</ele><time>2026-04-25T12:16:48.983Z</time></trkpt><trkpt lat="44.68981" lon="8.2981683"><ele>384.0</ele><time>2026-04-25T12:16:49.983Z</time></trkpt><trkpt lat="44.6899017" lon="8.2979067"><ele>384.0</ele><time>2026-04-25T12:16:50.983Z</time></trkpt><trkpt lat="44.68996" lon="8.297655"><ele>384.33333333333337</ele><time>2026-04-25T12:16:51.983Z</time></trkpt><trkpt lat="44.6899967" lon="8.297395"><ele>384.6666666666667</ele><time>2026-04-25T12:16:52.983Z</time></trkpt><trkpt lat="44.690005" lon="8.2971133"><ele>385.0</ele><time>2026-04-25T12:16:53.983Z</time></trkpt><trkpt lat="44.689995" lon="8.2968433"><ele>385.0</ele><time>2026-04-25T12:16:54.984Z</time></trkpt><trkpt lat="44.6899767" lon="8.2965967"><ele>385.0</ele><time>2026-04-25T12:16:55.983Z</time></trkpt><trkpt lat="44.6899367" lon="8.2963633"><ele>385.0</ele><time>2026-04-25T12:16:56.983Z</time></trkpt><trkpt lat="44.689875" lon="8.2961733"><ele>388.0</ele><time>2026-04-25T12:16:57.983Z</time></trkpt><trkpt lat="44.68977" lon="8.296015"><ele>391.0</ele><time>2026-04-25T12:16:58.983Z</time></trkpt><trkpt lat="44.6896267" lon="8.2959117"><ele>394.0</ele><time>2026-04-25T12:16:59.983Z</time></trkpt><trkpt lat="44.6894517" lon="8.2958567"><ele>389.6666666666667</ele><time>2026-04-25T12:17:00.983Z</time></trkpt><trkpt lat="44.689265" lon="8.2958267"><ele>385.33333333333337</ele><time>2026-04-25T12:17:01.984Z</time></trkpt><trkpt lat="44.6890917" lon="8.2958"><ele>381.0</ele><time>2026-04-25T12:17:02.984Z</time></trkpt><trkpt lat="44.68894" lon="8.2958117"><ele>381.0</ele><time>2026-04-25T12:17:03.983Z</time></trkpt><trkpt lat="44.6888133" lon="8.2958467"><ele>381.0</ele><time>2026-04-25T12:17:04.983Z</time></trkpt><trkpt lat="44.6887283" lon="8.2959467"><ele>381.0</ele><time>2026-04-25T12:17:05.984Z</time></trkpt><trkpt lat="44.6886817" lon="8.2960717"><ele>381.0</ele><time>2026-04-25T12:17:06.983Z</time></trkpt><trkpt lat="44.6886433" lon="8.2962383"><ele>379.6666666666667</ele><time>2026-04-25T12:17:07.983Z</time></trkpt><trkpt lat="44.6885883" lon="8.2963767"><ele>378.33333333333337</ele><time>2026-04-25T12:17:08.984Z</time></trkpt><trkpt lat="44.6884867" lon="8.296545"><ele>377.0</ele><time>2026-04-25T12:17:09.984Z</time></trkpt><trkpt lat="44.6883367" lon="8.2966867"><ele>377.0</ele><time>2026-04-25T12:17:10.984Z</time></trkpt><trkpt lat="44.6881417" lon="8.2968033"><ele>377.0</ele><time>2026-04-25T12:17:11.983Z</time></trkpt><trkpt lat="44.6879167" lon="8.2968917"><ele>377.0</ele><time>2026-04-25T12:17:12.984Z</time></trkpt><trkpt lat="44.6876983" lon="8.2969867"><ele>378.6666666666667</ele><time>2026-04-25T12:17:13.983Z</time></trkpt><trkpt lat="44.687505" lon="8.297065"><ele>380.3333333333333</ele><time>2026-04-25T12:17:14.983Z</time></trkpt><trkpt lat="44.687325" lon="8.297175"><ele>382.0</ele><time>2026-04-25T12:17:15.983Z</time></trkpt><trkpt lat="44.6871783" lon="8.2972717"><ele>377.5</ele><time>2026-04-25T12:17:16.984Z</time></trkpt><trkpt lat="44.6870533" lon="8.2973217"><ele>373.0</ele><time>2026-04-25T12:17:17.983Z</time></trkpt><trkpt lat="44.68693" lon="8.297305"><ele>368.5</ele><time>2026-04-25T12:17:18.984Z</time></trkpt><trkpt lat="44.6867883" lon="8.2972617"><ele>364.0</ele><time>2026-04-25T12:17:19.984Z</time></trkpt><trkpt lat="44.6866533" lon="8.2972633"><ele>364.0</ele><time>2026-04-25T12:17:20.983Z</time></trkpt><trkpt lat="44.6865183" lon="8.2973167"><ele>364.0</ele><time>2026-04-25T12:17:21.984Z</time></trkpt><trkpt lat="44.6864" lon="8.2974183"><ele>364.0</ele><time>2026-04-25T12:17:22.983Z</time></trkpt><trkpt lat="44.68632" lon="8.29759"><ele>364.0</ele><time>2026-04-25T12:17:23.983Z</time></trkpt><trkpt lat="44.6862217" lon="8.297735"><ele>367.0</ele><time>2026-04-25T12:17:24.983Z</time></trkpt><trkpt lat="44.68609" lon="8.29784"><ele>370.0</ele><time>2026-04-25T12:17:25.983Z</time></trkpt><trkpt lat="44.6859083" lon="8.2978783"><ele>373.0</ele><time>2026-04-25T12:17:26.983Z</time></trkpt><trkpt lat="44.6857317" lon="8.29792"><ele>373.0</ele><time>2026-04-25T12:17:27.983Z</time></trkpt><trkpt lat="44.685575" lon="8.2979633"><ele>373.0</ele><time>2026-04-25T12:17:28.984Z</time></trkpt><trkpt lat="44.6854633" lon="8.29803"><ele>373.0</ele><time>2026-04-25T12:17:29.984Z</time></trkpt><trkpt lat="44.6853767" lon="8.2981383"><ele>373.0</ele><time>2026-04-25T12:17:30.984Z</time></trkpt><trkpt lat="44.685275" lon="8.298265"><ele>366.66666666666663</ele><time>2026-04-25T12:17:31.983Z</time></trkpt><trkpt lat="44.6851333" lon="8.29838"><ele>360.3333333333333</ele><time>2026-04-25T12:17:32.983Z</time></trkpt><trkpt lat="44.684955" lon="8.2984933"><ele>354.0</ele><time>2026-04-25T12:17:33.983Z</time></trkpt><trkpt lat="44.6847817" lon="8.2985783"><ele>354.0</ele><time>2026-04-25T12:17:34.983Z</time></trkpt><trkpt lat="44.6846233" lon="8.2986417"><ele>354.0</ele><time>2026-04-25T12:17:35.983Z</time></trkpt><trkpt lat="44.6844517" lon="8.29866"><ele>354.0</ele><time>2026-04-25T12:17:36.983Z</time></trkpt><trkpt lat="44.68429" lon="8.2986567"><ele>356.3333333333333</ele><time>2026-04-25T12:17:37.983Z</time></trkpt><trkpt lat="44.6841367" lon="8.2987017"><ele>358.66666666666663</ele><time>2026-04-25T12:17:38.983Z</time></trkpt><trkpt lat="44.68399" lon="8.2988067"><ele>361.0</ele><time>2026-04-25T12:17:39.984Z</time></trkpt><trkpt lat="44.68385" lon="8.29894"><ele>356.0</ele><time>2026-04-25T12:17:40.983Z</time></trkpt><trkpt lat="44.6837067" lon="8.29907"><ele>351.0</ele><time>2026-04-25T12:17:41.983Z</time></trkpt><trkpt lat="44.6835667" lon="8.2991967"><ele>346.0</ele><time>2026-04-25T12:17:42.983Z</time></trkpt><trkpt lat="44.6834133" lon="8.2992267"><ele>346.0</ele><time>2026-04-25T12:17:43.984Z</time></trkpt><trkpt lat="44.68325" lon="8.299235"><ele>346.0</ele><time>2026-04-25T12:17:44.983Z</time></trkpt><trkpt lat="44.6830817" lon="8.2992717"><ele>346.0</ele><time>2026-04-25T12:17:45.983Z</time></trkpt><trkpt lat="44.68291" lon="8.2993333"><ele>348.0</ele><time>2026-04-25T12:17:46.983Z</time></trkpt><trkpt lat="44.6826967" lon="8.29945"><ele>350.0</ele><time>2026-04-25T12:17:47.983Z</time></trkpt><trkpt lat="44.682485" lon="8.299595"><ele>350.0</ele><time>2026-04-25T12:17:48.983Z</time></trkpt><trkpt lat="44.6822767" lon="8.29974"><ele>350.0</ele><time>2026-04-25T12:17:49.984Z</time></trkpt><trkpt lat="44.68206" lon="8.2998783"><ele>340.5</ele><time>2026-04-25T12:17:50.984Z</time></trkpt><trkpt lat="44.6818433" lon="8.300005"><ele>331.0</ele><time>2026-04-25T12:17:51.983Z</time></trkpt><trkpt lat="44.681595" lon="8.3001117"><ele>331.0</ele><time>2026-04-25T12:17:52.983Z</time></trkpt><trkpt lat="44.6813433" lon="8.3001933"><ele>331.0</ele><time>2026-04-25T12:17:53.983Z</time></trkpt><trkpt lat="44.6811033" lon="8.3002167"><ele>331.3333333333333</ele><time>2026-04-25T12:17:54.983Z</time></trkpt><trkpt lat="44.6808717" lon="8.3002383"><ele>331.6666666666667</ele><time>2026-04-25T12:17:55.983Z</time></trkpt><trkpt lat="44.6806617" lon="8.30023"><ele>332.0</ele><time>2026-04-25T12:17:56.983Z</time></trkpt><trkpt lat="44.6804633" lon="8.300225"><ele>332.0</ele><time>2026-04-25T12:17:57.983Z</time></trkpt><trkpt lat="44.6802733" lon="8.3002033"><ele>332.0</ele><time>2026-04-25T12:17:58.983Z</time></trkpt><trkpt lat="44.6801067" lon="8.30016"><ele>332.0</ele><time>2026-04-25T12:17:59.983Z</time></trkpt><trkpt lat="44.67994" lon="8.3001217"><ele>328.33333333333337</ele><time>2026-04-25T12:18:00.983Z</time></trkpt><trkpt lat="44.6797633" lon="8.3001417"><ele>324.6666666666667</ele><time>2026-04-25T12:18:01.983Z</time></trkpt><trkpt lat="44.6795817" lon="8.30018"><ele>321.0</ele><time>2026-04-25T12:18:02.983Z</time></trkpt><trkpt lat="44.6793883" lon="8.3002633"><ele>321.0</ele><time>2026-04-25T12:18:03.983Z</time></trkpt><trkpt lat="44.6791817" lon="8.3004233"><ele>321.0</ele><time>2026-04-25T12:18:04.984Z</time></trkpt><trkpt lat="44.6789633" lon="8.3006883"><ele>320.5</ele><time>2026-04-25T12:18:05.983Z</time></trkpt><trkpt lat="44.678765" lon="8.30091"><ele>320.0</ele><time>2026-04-25T12:18:06.983Z</time></trkpt><trkpt lat="44.6785633" lon="8.301125"><ele>320.0</ele><time>2026-04-25T12:18:07.983Z</time></trkpt><trkpt lat="44.6783667" lon="8.3013433"><ele>320.0</ele><time>2026-04-25T12:18:08.984Z</time></trkpt><trkpt lat="44.6781883" lon="8.3015617"><ele>315.6666666666667</ele><time>2026-04-25T12:18:09.983Z</time></trkpt><trkpt lat="44.6780133" lon="8.30175"><ele>311.3333333333333</ele><time>2026-04-25T12:18:10.983Z</time></trkpt><trkpt lat="44.6778483" lon="8.30191"><ele>307.0</ele><time>2026-04-25T12:18:11.983Z</time></trkpt><trkpt lat="44.6777017" lon="8.3020483"><ele>307.0</ele><time>2026-04-25T12:18:12.983Z</time></trkpt><trkpt lat="44.6775783" lon="8.3022133"><ele>307.0</ele><time>2026-04-25T12:18:13.983Z</time></trkpt><trkpt lat="44.6775033" lon="8.302425"><ele>307.0</ele><time>2026-04-25T12:18:14.984Z</time></trkpt><trkpt lat="44.6774383" lon="8.3026433"><ele>303.0</ele><time>2026-04-25T12:18:15.983Z</time></trkpt><trkpt lat="44.6773733" lon="8.3028333"><ele>299.0</ele><time>2026-04-25T12:18:16.984Z</time></trkpt><trkpt lat="44.6772717" lon="8.302965"><ele>295.0</ele><time>2026-04-25T12:18:17.983Z</time></trkpt><trkpt lat="44.6771317" lon="8.3030533"><ele>291.0</ele><time>2026-04-25T12:18:18.983Z</time></trkpt><trkpt lat="44.676955" lon="8.3030733"><ele>286.3333333333333</ele><time>2026-04-25T12:18:19.983Z</time></trkpt><trkpt lat="44.6767567" lon="8.3030983"><ele>281.66666666666663</ele><time>2026-04-25T12:18:20.983Z</time></trkpt><trkpt lat="44.6765283" lon="8.30319"><ele>277.0</ele><time>2026-04-25T12:18:21.983Z</time></trkpt><trkpt lat="44.6762767" lon="8.303295"><ele>283.5</ele><time>2026-04-25T12:18:22.983Z</time></trkpt><trkpt lat="44.6760217" lon="8.3034317"><ele>290.0</ele><time>2026-04-25T12:18:23.984Z</time></trkpt><trkpt lat="44.6757683" lon="8.3035817"><ele>290.0</ele><time>2026-04-25T12:18:24.984Z</time></trkpt><trkpt lat="44.6755233" lon="8.30376"><ele>290.0</ele><time>2026-04-25T12:18:25.983Z</time></trkpt><trkpt lat="44.6753017" lon="8.303895"><ele>283.5</ele><time>2026-04-25T12:18:26.983Z</time></trkpt><trkpt lat="44.675095" lon="8.3040633"><ele>277.0</ele><time>2026-04-25T12:18:27.983Z</time></trkpt><trkpt lat="44.6749117" lon="8.3042267"><ele>277.0</ele><time>2026-04-25T12:18:28.984Z</time></trkpt><trkpt lat="44.6747267" lon="8.3043733"><ele>277.0</ele><time>2026-04-25T12:18:29.984Z</time></trkpt><trkpt lat="44.6745417" lon="8.3045"><ele>277.0</ele><time>2026-04-25T12:18:30.983Z</time></trkpt><trkpt lat="44.674355" lon="8.304605"><ele>281.3333333333333</ele><time>2026-04-25T12:18:31.983Z</time></trkpt><trkpt lat="44.67415" lon="8.3046617"><ele>285.6666666666667</ele><time>2026-04-25T12:18:32.984Z</time></trkpt><trkpt lat="44.6739467" lon="8.3046667"><ele>290.0</ele><time>2026-04-25T12:18:33.983Z</time></trkpt><trkpt lat="44.6737617" lon="8.3046383"><ele>285.5</ele><time>2026-04-25T12:18:34.984Z</time></trkpt><trkpt lat="44.673535" lon="8.30458"><ele>281.0</ele><time>2026-04-25T12:18:35.983Z</time></trkpt><trkpt lat="44.6732933" lon="8.3045133"><ele>281.0</ele><time>2026-04-25T12:18:36.983Z</time></trkpt><trkpt lat="44.6730417" lon="8.3044017"><ele>281.0</ele><time>2026-04-25T12:18:37.983Z</time></trkpt><trkpt lat="44.6728067" lon="8.3042783"><ele>279.33333333333337</ele><time>2026-04-25T12:18:38.983Z</time></trkpt><trkpt lat="44.67261" lon="8.3041433"><ele>277.6666666666667</ele><time>2026-04-25T12:18:39.983Z</time></trkpt><trkpt lat="44.6724283" lon="8.3040133"><ele>276.0</ele><time>2026-04-25T12:18:40.984Z</time></trkpt><trkpt lat="44.672255" lon="8.3038583"><ele>276.0</ele><time>2026-04-25T12:18:41.984Z</time></trkpt><trkpt lat="44.6721267" lon="8.3036617"><ele>276.0</ele><time>2026-04-25T12:18:42.984Z</time></trkpt><trkpt lat="44.6720033" lon="8.3034917"><ele>276.0</ele><time>2026-04-25T12:18:43.983Z</time></trkpt><trkpt lat="44.6719183" lon="8.303335"><ele>264.6666666666667</ele><time>2026-04-25T12:18:44.983Z</time></trkpt><trkpt lat="44.67189" lon="8.3031383"><ele>253.33333333333334</ele><time>2026-04-25T12:18:45.983Z</time></trkpt><trkpt lat="44.6718817" lon="8.3029067"><ele>242.0</ele><time>2026-04-25T12:18:46.983Z</time></trkpt><trkpt lat="44.6719083" lon="8.302645"><ele>242.0</ele><time>2026-04-25T12:18:47.983Z</time></trkpt><trkpt lat="44.6718967" lon="8.3024567"><ele>242.0</ele><time>2026-04-25T12:18:48.984Z</time></trkpt><trkpt lat="44.6718483" lon="8.3023317"><ele>242.0</ele><time>2026-04-25T12:18:49.983Z</time></trkpt><trkpt lat="44.671735" lon="8.3022467"><ele>242.0</ele><time>2026-04-25T12:18:50.983Z</time></trkpt><trkpt lat="44.6715783" lon="8.3022033"><ele>242.0</ele><time>2026-04-25T12:18:51.983Z</time></trkpt><trkpt lat="44.6714267" lon="8.3022017"><ele>242.0</ele><time>2026-04-25T12:18:52.983Z</time></trkpt><trkpt lat="44.6712817" lon="8.30225"><ele>242.0</ele><time>2026-04-25T12:18:53.983Z</time></trkpt><trkpt lat="44.6711733" lon="8.302335"><ele>242.0</ele><time>2026-04-25T12:18:54.982Z</time></trkpt><trkpt lat="44.671085" lon="8.302465"><ele>239.25</ele><time>2026-04-25T12:18:55.982Z</time></trkpt><trkpt lat="44.67103" lon="8.3026317"><ele>236.5</ele><time>2026-04-25T12:18:56.982Z</time></trkpt><trkpt lat="44.6709933" lon="8.3028517"><ele>233.75</ele><time>2026-04-25T12:18:57.982Z</time></trkpt><trkpt lat="44.670955" lon="8.3030417"><ele>231.0</ele><time>2026-04-25T12:18:58.982Z</time></trkpt><trkpt lat="44.67089" lon="8.303195"><ele>231.0</ele><time>2026-04-25T12:18:59.982Z</time></trkpt><trkpt lat="44.6708133" lon="8.3033183"><ele>231.0</ele><time>2026-04-25T12:19:00.982Z</time></trkpt><trkpt lat="44.670665" lon="8.303395"><ele>231.0</ele><time>2026-04-25T12:19:01.982Z</time></trkpt><trkpt lat="44.6704917" lon="8.30342"><ele>231.0</ele><time>2026-04-25T12:19:02.982Z</time></trkpt><trkpt lat="44.6702883" lon="8.3033817"><ele>229.66666666666669</ele><time>2026-04-25T12:19:03.982Z</time></trkpt><trkpt lat="44.6701" lon="8.3032933"><ele>228.33333333333334</ele><time>2026-04-25T12:19:04.982Z</time></trkpt><trkpt lat="44.66991" lon="8.30315"><ele>227.0</ele><time>2026-04-25T12:19:05.982Z</time></trkpt><trkpt lat="44.6697283" lon="8.30299"><ele>227.0</ele><time>2026-04-25T12:19:06.982Z</time></trkpt><trkpt lat="44.6695133" lon="8.30282"><ele>227.0</ele><time>2026-04-25T12:19:07.982Z</time></trkpt><trkpt lat="44.6692817" lon="8.3027683"><ele>227.0</ele><time>2026-04-25T12:19:08.983Z</time></trkpt><trkpt lat="44.66906" lon="8.3027567"><ele>227.0</ele><time>2026-04-25T12:19:09.983Z</time></trkpt><trkpt lat="44.6688433" lon="8.3027517"><ele>227.0</ele><time>2026-04-25T12:19:10.983Z</time></trkpt><trkpt lat="44.66864" lon="8.3027233"><ele>223.0</ele><time>2026-04-25T12:19:11.982Z</time></trkpt><trkpt lat="44.668475" lon="8.30271"><ele>219.0</ele><time>2026-04-25T12:19:12.982Z</time></trkpt><trkpt lat="44.66835" lon="8.3025867"><ele>215.0</ele><time>2026-04-25T12:19:13.982Z</time></trkpt><trkpt lat="44.6682233" lon="8.302405"><ele>216.0</ele><time>2026-04-25T12:19:14.983Z</time></trkpt><trkpt lat="44.6681183" lon="8.302195"><ele>217.0</ele><time>2026-04-25T12:19:15.983Z</time></trkpt><trkpt lat="44.668055" lon="8.3018833"><ele>218.0</ele><time>2026-04-25T12:19:16.983Z</time></trkpt><trkpt lat="44.6680067" lon="8.3015667"><ele>216.66666666666669</ele><time>2026-04-25T12:19:17.983Z</time></trkpt><trkpt lat="44.66794" lon="8.3012717"><ele>215.33333333333331</ele><time>2026-04-25T12:19:18.982Z</time></trkpt><trkpt lat="44.667835" lon="8.3010033"><ele>214.0</ele><time>2026-04-25T12:19:19.982Z</time></trkpt><trkpt lat="44.6676933" lon="8.3007533"><ele>211.5</ele><time>2026-04-25T12:19:20.982Z</time></trkpt><trkpt lat="44.66751" lon="8.3005433"><ele>209.0</ele><time>2026-04-25T12:19:21.982Z</time></trkpt><trkpt lat="44.6673183" lon="8.3003283"><ele>209.0</ele><time>2026-04-25T12:19:22.982Z</time></trkpt><trkpt lat="44.66714" lon="8.3001417"><ele>209.0</ele><time>2026-04-25T12:19:23.983Z</time></trkpt><trkpt lat="44.6669617" lon="8.2999967"><ele>209.0</ele><time>2026-04-25T12:19:24.982Z</time></trkpt><trkpt lat="44.6667733" lon="8.2999467"><ele>206.0</ele><time>2026-04-25T12:19:25.982Z</time></trkpt><trkpt lat="44.6665767" lon="8.2999767"><ele>203.0</ele><time>2026-04-25T12:19:26.983Z</time></trkpt><trkpt lat="44.6663667" lon="8.300065"><ele>200.0</ele><time>2026-04-25T12:19:27.983Z</time></trkpt><trkpt lat="44.6661667" lon="8.3002"><ele>199.33333333333334</ele><time>2026-04-25T12:19:28.982Z</time></trkpt><trkpt lat="44.6659983" lon="8.300385"><ele>198.66666666666669</ele><time>2026-04-25T12:19:29.982Z</time></trkpt><trkpt lat="44.665855" lon="8.3005933"><ele>198.0</ele><time>2026-04-25T12:19:30.983Z</time></trkpt><trkpt lat="44.6657267" lon="8.3007967"><ele>197.0</ele><time>2026-04-25T12:19:31.983Z</time></trkpt><trkpt lat="44.6656" lon="8.3009367"><ele>196.0</ele><time>2026-04-25T12:19:32.982Z</time></trkpt><trkpt lat="44.665455" lon="8.301005"><ele>195.0</ele><time>2026-04-25T12:19:33.982Z</time></trkpt><trkpt lat="44.6652817" lon="8.301015"><ele>195.0</ele><time>2026-04-25T12:19:34.983Z</time></trkpt><trkpt lat="44.665065" lon="8.300995"><ele>195.0</ele><time>2026-04-25T12:19:35.982Z</time></trkpt><trkpt lat="44.6648183" lon="8.30095"><ele>195.0</ele><time>2026-04-25T12:19:36.982Z</time></trkpt><trkpt lat="44.6645783" lon="8.3009033"><ele>195.0</ele><time>2026-04-25T12:19:37.983Z</time></trkpt><trkpt lat="44.6643683" lon="8.3008483"><ele>195.33333333333331</ele><time>2026-04-25T12:19:38.982Z</time></trkpt><trkpt lat="44.6641933" lon="8.300865"><ele>195.66666666666666</ele><time>2026-04-25T12:19:39.982Z</time></trkpt><trkpt lat="44.6640517" lon="8.300945"><ele>196.0</ele><time>2026-04-25T12:19:40.982Z</time></trkpt><trkpt lat="44.6639067" lon="8.3010867"><ele>196.0</ele><time>2026-04-25T12:19:41.982Z</time></trkpt><trkpt lat="44.6637833" lon="8.301195"><ele>196.0</ele><time>2026-04-25T12:19:42.982Z</time></trkpt><trkpt lat="44.6636533" lon="8.3012817"><ele>196.0</ele><time>2026-04-25T12:19:43.983Z</time></trkpt><trkpt lat="44.663515" lon="8.3013267"><ele>196.0</ele><time>2026-04-25T12:19:44.982Z</time></trkpt><trkpt lat="44.6633817" lon="8.3013117"><ele>194.33333333333331</ele><time>2026-04-25T12:19:45.982Z</time></trkpt><trkpt lat="44.6632533" lon="8.30123"><ele>192.66666666666666</ele><time>2026-04-25T12:19:46.982Z</time></trkpt><trkpt lat="44.6631483" lon="8.3010817"><ele>191.0</ele><time>2026-04-25T12:19:47.982Z</time></trkpt><trkpt lat="44.6630417" lon="8.300905"><ele>191.0</ele><time>2026-04-25T12:19:48.982Z</time></trkpt><trkpt lat="44.6629333" lon="8.3007333"><ele>191.0</ele><time>2026-04-25T12:19:49.982Z</time></trkpt><trkpt lat="44.66283" lon="8.300565"><ele>191.0</ele><time>2026-04-25T12:19:50.983Z</time></trkpt><trkpt lat="44.6627267" lon="8.3004217"><ele>190.20000000000002</ele><time>2026-04-25T12:19:51.982Z</time></trkpt><trkpt lat="44.6626383" lon="8.3002867"><ele>189.4</ele><time>2026-04-25T12:19:52.982Z</time></trkpt><trkpt lat="44.66256" lon="8.3001767"><ele>188.6</ele><time>2026-04-25T12:19:53.982Z</time></trkpt><trkpt lat="44.66249" lon="8.3000767"><ele>187.8</ele><time>2026-04-25T12:19:54.982Z</time></trkpt><trkpt lat="44.6624167" lon="8.2999783"><ele>187.0</ele><time>2026-04-25T12:19:55.982Z</time></trkpt><trkpt lat="44.6623633" lon="8.299885"><ele>187.0</ele><time>2026-04-25T12:19:56.983Z</time></trkpt><trkpt lat="44.6623217" lon="8.2998117"><ele>187.0</ele><time>2026-04-25T12:19:57.982Z</time></trkpt><trkpt lat="44.6622467" lon="8.2997783"><ele>187.0</ele><time>2026-04-25T12:20:00.983Z</time></trkpt><trkpt lat="44.6621633" lon="8.2998883"><ele>187.0</ele><time>2026-04-25T12:20:02.982Z</time></trkpt><trkpt lat="44.6621083" lon="8.3000067"><ele>187.0</ele><time>2026-04-25T12:20:03.982Z</time></trkpt><trkpt lat="44.6620533" lon="8.3001283"><ele>187.0</ele><time>2026-04-25T12:20:04.982Z</time></trkpt><trkpt lat="44.66199" lon="8.300275"><ele>187.0</ele><time>2026-04-25T12:20:05.983Z</time></trkpt><trkpt lat="44.6619167" lon="8.3004417"><ele>187.0</ele><time>2026-04-25T12:20:06.982Z</time></trkpt><trkpt lat="44.6618417" lon="8.3006317"><ele>187.0</ele><time>2026-04-25T12:20:07.982Z</time></trkpt><trkpt lat="44.66175" lon="8.300825"><ele>185.66666666666669</ele><time>2026-04-25T12:20:08.982Z</time></trkpt><trkpt lat="44.661655" lon="8.3010333"><ele>184.33333333333334</ele><time>2026-04-25T12:20:09.982Z</time></trkpt><trkpt lat="44.66156" lon="8.3012617"><ele>183.0</ele><time>2026-04-25T12:20:10.982Z</time></trkpt><trkpt lat="44.6614583" lon="8.3015"><ele>183.0</ele><time>2026-04-25T12:20:11.983Z</time></trkpt><trkpt lat="44.6613517" lon="8.3017233"><ele>183.0</ele><time>2026-04-25T12:20:12.982Z</time></trkpt><trkpt lat="44.66124" lon="8.3019583"><ele>183.0</ele><time>2026-04-25T12:20:13.983Z</time></trkpt><trkpt lat="44.6611267" lon="8.3022033"><ele>182.33333333333334</ele><time>2026-04-25T12:20:14.983Z</time></trkpt><trkpt lat="44.6610283" lon="8.3024467"><ele>181.66666666666669</ele><time>2026-04-25T12:20:15.983Z</time></trkpt><trkpt lat="44.660915" lon="8.3027"><ele>181.0</ele><time>2026-04-25T12:20:16.982Z</time></trkpt><trkpt lat="44.6608117" lon="8.3029417"><ele>182.0</ele><time>2026-04-25T12:20:17.983Z</time></trkpt><trkpt lat="44.6607017" lon="8.3031983"><ele>183.0</ele><time>2026-04-25T12:20:18.983Z</time></trkpt><trkpt lat="44.6605917" lon="8.30345"><ele>184.0</ele><time>2026-04-25T12:20:19.982Z</time></trkpt><trkpt lat="44.66048" lon="8.3037133"><ele>183.66666666666669</ele><time>2026-04-25T12:20:20.982Z</time></trkpt><trkpt lat="44.6603633" lon="8.3039717"><ele>183.33333333333334</ele><time>2026-04-25T12:20:21.982Z</time></trkpt><trkpt lat="44.6602367" lon="8.3042233"><ele>183.0</ele><time>2026-04-25T12:20:22.983Z</time></trkpt><trkpt lat="44.6601183" lon="8.30448"><ele>183.5</ele><time>2026-04-25T12:20:23.983Z</time></trkpt><trkpt lat="44.6600033" lon="8.3047517"><ele>184.0</ele><time>2026-04-25T12:20:24.982Z</time></trkpt><trkpt lat="44.6598783" lon="8.3050317"><ele>184.0</ele><time>2026-04-25T12:20:25.982Z</time></trkpt><trkpt lat="44.6597517" lon="8.3053183"><ele>184.0</ele><time>2026-04-25T12:20:26.983Z</time></trkpt><trkpt lat="44.659635" lon="8.3056067"><ele>184.5</ele><time>2026-04-25T12:20:27.983Z</time></trkpt><trkpt lat="44.6595033" lon="8.3058817"><ele>185.0</ele><time>2026-04-25T12:20:28.982Z</time></trkpt><trkpt lat="44.6593517" lon="8.3061267"><ele>183.0</ele><time>2026-04-25T12:20:29.982Z</time></trkpt><trkpt lat="44.6591883" lon="8.3063517"><ele>181.0</ele><time>2026-04-25T12:20:30.982Z</time></trkpt><trkpt lat="44.65902" lon="8.306555"><ele>185.0</ele><time>2026-04-25T12:20:31.983Z</time></trkpt><trkpt lat="44.6588383" lon="8.3067433"><ele>189.0</ele><time>2026-04-25T12:20:32.983Z</time></trkpt><trkpt lat="44.658665" lon="8.30698"><ele>188.0</ele><time>2026-04-25T12:20:33.982Z</time></trkpt><trkpt lat="44.6585017" lon="8.3072283"><ele>187.0</ele><time>2026-04-25T12:20:34.983Z</time></trkpt><trkpt lat="44.6583467" lon="8.3074717"><ele>189.0</ele><time>2026-04-25T12:20:35.982Z</time></trkpt><trkpt lat="44.658185" lon="8.30772"><ele>191.0</ele><time>2026-04-25T12:20:36.982Z</time></trkpt><trkpt lat="44.6580333" lon="8.3079533"><ele>191.5</ele><time>2026-04-25T12:20:37.982Z</time></trkpt><trkpt lat="44.65787" lon="8.3081917"><ele>192.0</ele><time>2026-04-25T12:20:38.982Z</time></trkpt><trkpt lat="44.6577167" lon="8.3084317"><ele>192.0</ele><time>2026-04-25T12:20:39.982Z</time></trkpt><trkpt lat="44.65756" lon="8.3086733"><ele>192.0</ele><time>2026-04-25T12:20:40.982Z</time></trkpt><trkpt lat="44.6573917" lon="8.308925"><ele>192.0</ele><time>2026-04-25T12:20:41.982Z</time></trkpt><trkpt lat="44.6572283" lon="8.309175"><ele>192.0</ele><time>2026-04-25T12:20:42.983Z</time></trkpt><trkpt lat="44.6570633" lon="8.3094333"><ele>192.33333333333331</ele><time>2026-04-25T12:20:43.983Z</time></trkpt><trkpt lat="44.6569117" lon="8.309665"><ele>192.66666666666666</ele><time>2026-04-25T12:20:44.982Z</time></trkpt><trkpt lat="44.6567733" lon="8.3098867"><ele>193.0</ele><time>2026-04-25T12:20:45.982Z</time></trkpt><trkpt lat="44.6566433" lon="8.3100983"><ele>193.0</ele><time>2026-04-25T12:20:46.982Z</time></trkpt><trkpt lat="44.6565083" lon="8.3102967"><ele>193.0</ele><time>2026-04-25T12:20:47.983Z</time></trkpt><trkpt lat="44.6563733" lon="8.3104967"><ele>193.0</ele><time>2026-04-25T12:20:48.983Z</time></trkpt><trkpt lat="44.656225" lon="8.3107017"><ele>193.0</ele><time>2026-04-25T12:20:49.982Z</time></trkpt><trkpt lat="44.65606" lon="8.310915"><ele>193.0</ele><time>2026-04-25T12:20:50.983Z</time></trkpt><trkpt lat="44.6558783" lon="8.3111367"><ele>193.0</ele><time>2026-04-25T12:20:51.982Z</time></trkpt><trkpt lat="44.6557033" lon="8.31135"><ele>193.0</ele><time>2026-04-25T12:20:52.982Z</time></trkpt><trkpt lat="44.65553" lon="8.3115633"><ele>193.0</ele><time>2026-04-25T12:20:53.982Z</time></trkpt><trkpt lat="44.6553433" lon="8.3117817"><ele>193.0</ele><time>2026-04-25T12:20:54.982Z</time></trkpt><trkpt lat="44.6551417" lon="8.312005"><ele>195.5</ele><time>2026-04-25T12:20:55.982Z</time></trkpt><trkpt lat="44.6549317" lon="8.3122517"><ele>198.0</ele><time>2026-04-25T12:20:56.983Z</time></trkpt><trkpt lat="44.6547217" lon="8.3125017"><ele>198.0</ele><time>2026-04-25T12:20:57.982Z</time></trkpt><trkpt lat="44.6545083" lon="8.3127567"><ele>198.0</ele><time>2026-04-25T12:20:58.982Z</time></trkpt><trkpt lat="44.654295" lon="8.3130183"><ele>196.5</ele><time>2026-04-25T12:20:59.983Z</time></trkpt><trkpt lat="44.6540917" lon="8.3132483"><ele>195.0</ele><time>2026-04-25T12:21:00.982Z</time></trkpt><trkpt lat="44.6539033" lon="8.3134717"><ele>195.0</ele><time>2026-04-25T12:21:01.983Z</time></trkpt><trkpt lat="44.65372" lon="8.3136867"><ele>195.0</ele><time>2026-04-25T12:21:02.982Z</time></trkpt><trkpt lat="44.653545" lon="8.3138633"><ele>196.33333333333331</ele><time>2026-04-25T12:21:03.982Z</time></trkpt><trkpt lat="44.653375" lon="8.3140367"><ele>197.66666666666666</ele><time>2026-04-25T12:21:04.983Z</time></trkpt><trkpt lat="44.6532233" lon="8.314215"><ele>199.0</ele><time>2026-04-25T12:21:05.982Z</time></trkpt><trkpt lat="44.6530817" lon="8.314435"><ele>199.0</ele><time>2026-04-25T12:21:06.982Z</time></trkpt><trkpt lat="44.6529667" lon="8.314705"><ele>199.0</ele><time>2026-04-25T12:21:07.982Z</time></trkpt><trkpt lat="44.6528717" lon="8.3149917"><ele>199.0</ele><time>2026-04-25T12:21:08.982Z</time></trkpt><trkpt lat="44.652795" lon="8.3153183"><ele>197.0</ele><time>2026-04-25T12:21:09.982Z</time></trkpt><trkpt lat="44.6527233" lon="8.3156567"><ele>195.0</ele><time>2026-04-25T12:21:10.982Z</time></trkpt><trkpt lat="44.652635" lon="8.3160033"><ele>195.0</ele><time>2026-04-25T12:21:11.983Z</time></trkpt><trkpt lat="44.6525467" lon="8.3163667"><ele>195.0</ele><time>2026-04-25T12:21:12.982Z</time></trkpt><trkpt lat="44.652465" lon="8.3167383"><ele>195.5</ele><time>2026-04-25T12:21:13.982Z</time></trkpt><trkpt lat="44.65237" lon="8.317105"><ele>196.0</ele><time>2026-04-25T12:21:14.982Z</time></trkpt><trkpt lat="44.65228" lon="8.317455"><ele>199.0</ele><time>2026-04-25T12:21:15.982Z</time></trkpt><trkpt lat="44.652185" lon="8.3177933"><ele>202.0</ele><time>2026-04-25T12:21:16.983Z</time></trkpt><trkpt lat="44.6520817" lon="8.3181167"><ele>204.5</ele><time>2026-04-25T12:21:17.982Z</time></trkpt><trkpt lat="44.6519617" lon="8.318445"><ele>207.0</ele><time>2026-04-25T12:21:18.983Z</time></trkpt><trkpt lat="44.6518183" lon="8.318765"><ele>200.5</ele><time>2026-04-25T12:21:19.982Z</time></trkpt><trkpt lat="44.651665" lon="8.31909"><ele>194.0</ele><time>2026-04-25T12:21:20.982Z</time></trkpt><trkpt lat="44.6515133" lon="8.3194183"><ele>199.5</ele><time>2026-04-25T12:21:21.982Z</time></trkpt><trkpt lat="44.651355" lon="8.31975"><ele>205.0</ele><time>2026-04-25T12:21:22.983Z</time></trkpt><trkpt lat="44.651195" lon="8.3200717"><ele>198.0</ele><time>2026-04-25T12:21:23.982Z</time></trkpt><trkpt lat="44.6510367" lon="8.3203967"><ele>191.0</ele><time>2026-04-25T12:21:24.982Z</time></trkpt><trkpt lat="44.6508867" lon="8.3207117"><ele>191.0</ele><time>2026-04-25T12:21:25.982Z</time></trkpt><trkpt lat="44.6507367" lon="8.3210383"><ele>191.0</ele><time>2026-04-25T12:21:26.982Z</time></trkpt><trkpt lat="44.6506067" lon="8.3213667"><ele>196.0</ele><time>2026-04-25T12:21:27.982Z</time></trkpt><trkpt lat="44.65049" lon="8.3216733"><ele>201.0</ele><time>2026-04-25T12:21:28.983Z</time></trkpt><trkpt lat="44.650385" lon="8.32194"><ele>196.66666666666666</ele><time>2026-04-25T12:21:29.982Z</time></trkpt><trkpt lat="44.6502867" lon="8.3221967"><ele>192.33333333333331</ele><time>2026-04-25T12:21:30.982Z</time></trkpt><trkpt lat="44.6501917" lon="8.322435"><ele>188.0</ele><time>2026-04-25T12:21:31.983Z</time></trkpt><trkpt lat="44.650085" lon="8.3226583"><ele>188.0</ele><time>2026-04-25T12:21:32.982Z</time></trkpt><trkpt lat="44.64998" lon="8.3228583"><ele>188.0</ele><time>2026-04-25T12:21:33.982Z</time></trkpt><trkpt lat="44.649875" lon="8.3230633"><ele>188.0</ele><time>2026-04-25T12:21:34.983Z</time></trkpt><trkpt lat="44.6497617" lon="8.323265"><ele>187.0</ele><time>2026-04-25T12:21:35.982Z</time></trkpt><trkpt lat="44.649645" lon="8.323465"><ele>186.0</ele><time>2026-04-25T12:21:36.983Z</time></trkpt><trkpt lat="44.649535" lon="8.3236667"><ele>185.0</ele><time>2026-04-25T12:21:37.982Z</time></trkpt><trkpt lat="44.6494317" lon="8.3238533"><ele>187.66666666666666</ele><time>2026-04-25T12:21:38.983Z</time></trkpt><trkpt lat="44.6493333" lon="8.3240417"><ele>190.33333333333331</ele><time>2026-04-25T12:21:39.982Z</time></trkpt><trkpt lat="44.6492533" lon="8.3242167"><ele>193.0</ele><time>2026-04-25T12:21:40.982Z</time></trkpt><trkpt lat="44.6491633" lon="8.3243817"><ele>193.0</ele><time>2026-04-25T12:21:41.982Z</time></trkpt><trkpt lat="44.649095" lon="8.3245433"><ele>193.0</ele><time>2026-04-25T12:21:42.982Z</time></trkpt><trkpt lat="44.6490117" lon="8.3246733"><ele>193.0</ele><time>2026-04-25T12:21:43.982Z</time></trkpt><trkpt lat="44.6489317" lon="8.32479"><ele>193.0</ele><time>2026-04-25T12:21:44.982Z</time></trkpt><trkpt lat="44.648865" lon="8.3249067"><ele>193.33333333333331</ele><time>2026-04-25T12:21:45.982Z</time></trkpt><trkpt lat="44.6488067" lon="8.3250167"><ele>193.66666666666666</ele><time>2026-04-25T12:21:46.983Z</time></trkpt><trkpt lat="44.6487617" lon="8.3251133"><ele>194.0</ele><time>2026-04-25T12:21:47.982Z</time></trkpt><trkpt lat="44.6487117" lon="8.3251983"><ele>194.33333333333331</ele><time>2026-04-25T12:21:48.982Z</time></trkpt><trkpt lat="44.6486683" lon="8.3252783"><ele>194.66666666666666</ele><time>2026-04-25T12:21:49.982Z</time></trkpt><trkpt lat="44.64863" lon="8.325355"><ele>195.0</ele><time>2026-04-25T12:21:50.982Z</time></trkpt><trkpt lat="44.6485617" lon="8.3254983"><ele>195.33333333333334</ele><time>2026-04-25T12:21:52.983Z</time></trkpt><trkpt lat="44.648495" lon="8.3256067"><ele>195.66666666666669</ele><time>2026-04-25T12:21:54.982Z</time></trkpt><trkpt lat="44.648435" lon="8.325715"><ele>196.0</ele><time>2026-04-25T12:21:56.983Z</time></trkpt><trkpt lat="44.6483783" lon="8.3258217"><ele>196.33333333333334</ele><time>2026-04-25T12:21:58.982Z</time></trkpt><trkpt lat="44.648315" lon="8.32588"><ele>196.66666666666669</ele><time>2026-04-25T12:22:00.982Z</time></trkpt><trkpt lat="44.6482517" lon="8.3259417"><ele>197.0</ele><time>2026-04-25T12:22:02.982Z</time></trkpt><trkpt lat="44.6482" lon="8.3260183"><ele>197.0</ele><time>2026-04-25T12:22:04.983Z</time></trkpt><trkpt lat="44.6481267" lon="8.326095"><ele>197.0</ele><time>2026-04-25T12:22:06.983Z</time></trkpt><trkpt lat="44.6481033" lon="8.32623"><ele>197.0</ele><time>2026-04-25T12:22:09.983Z</time></trkpt><trkpt lat="44.648095" lon="8.326375"><ele>197.0</ele><time>2026-04-25T12:22:11.983Z</time></trkpt><trkpt lat="44.6480933" lon="8.3264783"><ele>197.0</ele><time>2026-04-25T12:22:12.983Z</time></trkpt><trkpt lat="44.6481083" lon="8.326605"><ele>196.5</ele><time>2026-04-25T12:22:13.982Z</time></trkpt><trkpt lat="44.6481333" lon="8.32676"><ele>196.0</ele><time>2026-04-25T12:22:14.982Z</time></trkpt><trkpt lat="44.6481633" lon="8.3269183"><ele>195.5</ele><time>2026-04-25T12:22:15.982Z</time></trkpt><trkpt lat="44.6481917" lon="8.327085"><ele>195.0</ele><time>2026-04-25T12:22:16.982Z</time></trkpt><trkpt lat="44.6482283" lon="8.3272467"><ele>194.0</ele><time>2026-04-25T12:22:17.982Z</time></trkpt><trkpt lat="44.648265" lon="8.3274217"><ele>193.0</ele><time>2026-04-25T12:22:18.982Z</time></trkpt><trkpt lat="44.6483183" lon="8.32759"><ele>192.0</ele><time>2026-04-25T12:22:19.982Z</time></trkpt><trkpt lat="44.6483483" lon="8.3277867"><ele>191.0</ele><time>2026-04-25T12:22:20.982Z</time></trkpt><trkpt lat="44.6483883" lon="8.32797"><ele>190.66666666666666</ele><time>2026-04-25T12:22:21.983Z</time></trkpt><trkpt lat="44.648425" lon="8.3281567"><ele>190.33333333333334</ele><time>2026-04-25T12:22:22.983Z</time></trkpt><trkpt lat="44.648455" lon="8.3283633"><ele>190.0</ele><time>2026-04-25T12:22:23.982Z</time></trkpt><trkpt lat="44.648435" lon="8.328595"><ele>190.0</ele><time>2026-04-25T12:22:24.982Z</time></trkpt><trkpt lat="44.6484133" lon="8.3288283"><ele>190.0</ele><time>2026-04-25T12:22:25.982Z</time></trkpt><trkpt lat="44.64839" lon="8.3290933"><ele>190.0</ele><time>2026-04-25T12:22:26.982Z</time></trkpt><trkpt lat="44.6483767" lon="8.3293333"><ele>190.0</ele><time>2026-04-25T12:22:27.982Z</time></trkpt><trkpt lat="44.64835" lon="8.3295883"><ele>190.0</ele><time>2026-04-25T12:22:28.983Z</time></trkpt><trkpt lat="44.6483367" lon="8.3298583"><ele>190.0</ele><time>2026-04-25T12:22:29.982Z</time></trkpt><trkpt lat="44.64832" lon="8.3301167"><ele>190.0</ele><time>2026-04-25T12:22:30.982Z</time></trkpt><trkpt lat="44.6483133" lon="8.330355"><ele>190.0</ele><time>2026-04-25T12:22:31.983Z</time></trkpt><trkpt lat="44.6483067" lon="8.330585"><ele>190.0</ele><time>2026-04-25T12:22:32.982Z</time></trkpt><trkpt lat="44.648295" lon="8.3308367"><ele>190.0</ele><time>2026-04-25T12:22:33.982Z</time></trkpt><trkpt lat="44.6482833" lon="8.3310867"><ele>190.0</ele><time>2026-04-25T12:22:34.982Z</time></trkpt><trkpt lat="44.6482733" lon="8.33133"><ele>190.0</ele><time>2026-04-25T12:22:35.982Z</time></trkpt><trkpt lat="44.6482583" lon="8.331575"><ele>190.0</ele><time>2026-04-25T12:22:36.983Z</time></trkpt><trkpt lat="44.6482383" lon="8.3318167"><ele>190.0</ele><time>2026-04-25T12:22:37.983Z</time></trkpt><trkpt lat="44.6482283" lon="8.33205"><ele>190.0</ele><time>2026-04-25T12:22:38.982Z</time></trkpt><trkpt lat="44.6482183" lon="8.3322783"><ele>190.25</ele><time>2026-04-25T12:22:39.982Z</time></trkpt><trkpt lat="44.6482167" lon="8.3325083"><ele>190.5</ele><time>2026-04-25T12:22:40.982Z</time></trkpt><trkpt lat="44.648235" lon="8.3327033"><ele>190.75</ele><time>2026-04-25T12:22:41.983Z</time></trkpt><trkpt lat="44.648255" lon="8.3328917"><ele>191.0</ele><time>2026-04-25T12:22:42.982Z</time></trkpt><trkpt lat="44.6482733" lon="8.3330667"><ele>190.60000000000002</ele><time>2026-04-25T12:22:43.983Z</time></trkpt><trkpt lat="44.6482783" lon="8.33324"><ele>190.2</ele><time>2026-04-25T12:22:44.983Z</time></trkpt><trkpt lat="44.6482567" lon="8.3333817"><ele>189.8</ele><time>2026-04-25T12:22:45.983Z</time></trkpt><trkpt lat="44.6482017" lon="8.3334967"><ele>189.39999999999998</ele><time>2026-04-25T12:22:46.982Z</time></trkpt><trkpt lat="44.648105" lon="8.3335733"><ele>189.0</ele><time>2026-04-25T12:22:47.983Z</time></trkpt><trkpt lat="44.6479617" lon="8.3336217"><ele>186.33333333333334</ele><time>2026-04-25T12:22:48.982Z</time></trkpt><trkpt lat="44.64778" lon="8.333625"><ele>183.66666666666669</ele><time>2026-04-25T12:22:49.983Z</time></trkpt><trkpt lat="44.64756" lon="8.3336167"><ele>181.0</ele><time>2026-04-25T12:22:50.983Z</time></trkpt><trkpt lat="44.6473133" lon="8.3336067"><ele>181.0</ele><time>2026-04-25T12:22:51.982Z</time></trkpt><trkpt lat="44.6470383" lon="8.3336083"><ele>181.0</ele><time>2026-04-25T12:22:52.982Z</time></trkpt><trkpt lat="44.64674" lon="8.3336283"><ele>179.0</ele><time>2026-04-25T12:22:53.983Z</time></trkpt><trkpt lat="44.6464333" lon="8.3336317"><ele>177.0</ele><time>2026-04-25T12:22:54.982Z</time></trkpt><trkpt lat="44.64613" lon="8.3336483"><ele>176.5</ele><time>2026-04-25T12:22:55.982Z</time></trkpt><trkpt lat="44.6458533" lon="8.3336567"><ele>176.0</ele><time>2026-04-25T12:22:56.982Z</time></trkpt><trkpt lat="44.64559" lon="8.3336833"><ele>176.0</ele><time>2026-04-25T12:22:57.983Z</time></trkpt><trkpt lat="44.6453417" lon="8.3336983"><ele>176.0</ele><time>2026-04-25T12:22:58.983Z</time></trkpt><trkpt lat="44.6451117" lon="8.33371"><ele>175.0</ele><time>2026-04-25T12:22:59.983Z</time></trkpt><trkpt lat="44.6448983" lon="8.33373"><ele>174.0</ele><time>2026-04-25T12:23:00.983Z</time></trkpt><trkpt lat="44.6447" lon="8.3337433"><ele>173.0</ele><time>2026-04-25T12:23:01.982Z</time></trkpt><trkpt lat="44.6445167" lon="8.33373"><ele>175.0</ele><time>2026-04-25T12:23:02.983Z</time></trkpt><trkpt lat="44.6443433" lon="8.33367"><ele>177.0</ele><time>2026-04-25T12:23:03.982Z</time></trkpt><trkpt lat="44.64419" lon="8.33357"><ele>179.0</ele><time>2026-04-25T12:23:04.982Z</time></trkpt><trkpt lat="44.644055" lon="8.333445"><ele>179.0</ele><time>2026-04-25T12:23:05.983Z</time></trkpt><trkpt lat="44.643945" lon="8.3333183"><ele>179.0</ele><time>2026-04-25T12:23:06.983Z</time></trkpt><trkpt lat="44.6438583" lon="8.3332383"><ele>179.0</ele><time>2026-04-25T12:23:07.982Z</time></trkpt><trkpt lat="44.6437967" lon="8.3332017"><ele>179.0</ele><time>2026-04-25T12:23:08.983Z</time></trkpt><trkpt lat="44.6437333" lon="8.3331967"><ele>179.0</ele><time>2026-04-25T12:23:09.981Z</time></trkpt><trkpt lat="44.6436633" lon="8.33326"><ele>181.75</ele><time>2026-04-25T12:23:11.981Z</time></trkpt><trkpt lat="44.6436233" lon="8.3334467"><ele>184.5</ele><time>2026-04-25T12:23:13.981Z</time></trkpt><trkpt lat="44.6436133" lon="8.3336183"><ele>187.25</ele><time>2026-04-25T12:23:14.982Z</time></trkpt><trkpt lat="44.64361" lon="8.3338267"><ele>190.0</ele><time>2026-04-25T12:23:15.982Z</time></trkpt><trkpt lat="44.6436" lon="8.3340667"><ele>190.0</ele><time>2026-04-25T12:23:16.981Z</time></trkpt><trkpt lat="44.64359" lon="8.3343267"><ele>190.0</ele><time>2026-04-25T12:23:17.981Z</time></trkpt><trkpt lat="44.64358" lon="8.3346167"><ele>190.0</ele><time>2026-04-25T12:23:18.982Z</time></trkpt><trkpt lat="44.643565" lon="8.33493"><ele>190.5</ele><time>2026-04-25T12:23:19.982Z</time></trkpt><trkpt lat="44.6435467" lon="8.33526"><ele>191.0</ele><time>2026-04-25T12:23:20.982Z</time></trkpt><trkpt lat="44.64353" lon="8.335615"><ele>189.0</ele><time>2026-04-25T12:23:21.981Z</time></trkpt><trkpt lat="44.6435217" lon="8.33597"><ele>187.0</ele><time>2026-04-25T12:23:22.981Z</time></trkpt><trkpt lat="44.6435017" lon="8.3363433"><ele>186.5</ele><time>2026-04-25T12:23:23.981Z</time></trkpt><trkpt lat="44.6434867" lon="8.336695"><ele>186.0</ele><time>2026-04-25T12:23:24.982Z</time></trkpt><trkpt lat="44.6434667" lon="8.337065"><ele>184.0</ele><time>2026-04-25T12:23:25.982Z</time></trkpt><trkpt lat="44.64345" lon="8.337435"><ele>182.0</ele><time>2026-04-25T12:23:26.981Z</time></trkpt><trkpt lat="44.6434167" lon="8.3378"><ele>181.5</ele><time>2026-04-25T12:23:27.981Z</time></trkpt><trkpt lat="44.643375" lon="8.3381633"><ele>181.0</ele><time>2026-04-25T12:23:28.981Z</time></trkpt><trkpt lat="44.643315" lon="8.3385167"><ele>181.0</ele><time>2026-04-25T12:23:29.981Z</time></trkpt><trkpt lat="44.6432467" lon="8.3388317"><ele>181.0</ele><time>2026-04-25T12:23:30.981Z</time></trkpt><trkpt lat="44.64318" lon="8.3391317"><ele>182.0</ele><time>2026-04-25T12:23:31.982Z</time></trkpt><trkpt lat="44.64311" lon="8.3393917"><ele>183.0</ele><time>2026-04-25T12:23:32.982Z</time></trkpt><trkpt lat="44.643065" lon="8.3396783"><ele>184.0</ele><time>2026-04-25T12:23:33.981Z</time></trkpt><trkpt lat="44.6430633" lon="8.3399517"><ele>184.0</ele><time>2026-04-25T12:23:34.981Z</time></trkpt><trkpt lat="44.6430833" lon="8.34025"><ele>184.0</ele><time>2026-04-25T12:23:35.982Z</time></trkpt><trkpt lat="44.6431383" lon="8.3405633"><ele>184.0</ele><time>2026-04-25T12:23:36.981Z</time></trkpt><trkpt lat="44.6431983" lon="8.3408833"><ele>184.0</ele><time>2026-04-25T12:23:37.981Z</time></trkpt><trkpt lat="44.643245" lon="8.3412233"><ele>184.0</ele><time>2026-04-25T12:23:38.982Z</time></trkpt><trkpt lat="44.643265" lon="8.3415583"><ele>183.5</ele><time>2026-04-25T12:23:39.981Z</time></trkpt><trkpt lat="44.64327" lon="8.3419083"><ele>183.0</ele><time>2026-04-25T12:23:40.981Z</time></trkpt><trkpt lat="44.6432567" lon="8.3422683"><ele>183.0</ele><time>2026-04-25T12:23:41.981Z</time></trkpt><trkpt lat="44.6432333" lon="8.342635"><ele>183.0</ele><time>2026-04-25T12:23:42.981Z</time></trkpt><trkpt lat="44.6432067" lon="8.3430033"><ele>183.5</ele><time>2026-04-25T12:23:43.981Z</time></trkpt><trkpt lat="44.6431933" lon="8.343365"><ele>184.0</ele><time>2026-04-25T12:23:44.982Z</time></trkpt><trkpt lat="44.6431833" lon="8.3437333"><ele>183.5</ele><time>2026-04-25T12:23:45.981Z</time></trkpt><trkpt lat="44.643165" lon="8.3440967"><ele>183.0</ele><time>2026-04-25T12:23:46.981Z</time></trkpt><trkpt lat="44.6431483" lon="8.3444633"><ele>183.0</ele><time>2026-04-25T12:23:47.982Z</time></trkpt><trkpt lat="44.6431417" lon="8.3448333"><ele>183.0</ele><time>2026-04-25T12:23:48.982Z</time></trkpt><trkpt lat="44.64314" lon="8.3452133"><ele>182.5</ele><time>2026-04-25T12:23:49.981Z</time></trkpt><trkpt lat="44.6431283" lon="8.3456017"><ele>182.0</ele><time>2026-04-25T12:23:50.981Z</time></trkpt><trkpt lat="44.6431217" lon="8.345985"><ele>182.0</ele><time>2026-04-25T12:23:51.981Z</time></trkpt><trkpt lat="44.6431133" lon="8.3463617"><ele>182.0</ele><time>2026-04-25T12:23:52.978Z</time></trkpt><trkpt lat="44.6431017" lon="8.3467317"><ele>182.5</ele><time>2026-04-25T12:23:53.981Z</time></trkpt><trkpt lat="44.6430917" lon="8.347095"><ele>183.0</ele><time>2026-04-25T12:23:54.982Z</time></trkpt><trkpt lat="44.64308" lon="8.3474633"><ele>184.0</ele><time>2026-04-25T12:23:55.981Z</time></trkpt><trkpt lat="44.643065" lon="8.3478233"><ele>185.0</ele><time>2026-04-25T12:23:56.981Z</time></trkpt><trkpt lat="44.6430517" lon="8.348185"><ele>185.0</ele><time>2026-04-25T12:23:57.981Z</time></trkpt><trkpt lat="44.6430467" lon="8.3485533"><ele>185.0</ele><time>2026-04-25T12:23:58.982Z</time></trkpt><trkpt lat="44.6430517" lon="8.3489317"><ele>185.0</ele><time>2026-04-25T12:23:59.982Z</time></trkpt><trkpt lat="44.6430833" lon="8.3493083"><ele>185.0</ele><time>2026-04-25T12:24:00.981Z</time></trkpt><trkpt lat="44.643135" lon="8.3496767"><ele>184.5</ele><time>2026-04-25T12:24:01.982Z</time></trkpt><trkpt lat="44.6431983" lon="8.3500417"><ele>184.0</ele><time>2026-04-25T12:24:02.981Z</time></trkpt><trkpt lat="44.6432767" lon="8.3504017"><ele>183.0</ele><time>2026-04-25T12:24:03.981Z</time></trkpt><trkpt lat="44.6433533" lon="8.3507483"><ele>182.0</ele><time>2026-04-25T12:24:04.982Z</time></trkpt><trkpt lat="44.6433933" lon="8.3510917"><ele>182.0</ele><time>2026-04-25T12:24:05.981Z</time></trkpt><trkpt lat="44.643415" lon="8.35145"><ele>182.0</ele><time>2026-04-25T12:24:06.981Z</time></trkpt><trkpt lat="44.6434167" lon="8.351805"><ele>182.0</ele><time>2026-04-25T12:24:07.981Z</time></trkpt><trkpt lat="44.6433933" lon="8.3521633"><ele>182.0</ele><time>2026-04-25T12:24:08.981Z</time></trkpt><trkpt lat="44.6433467" lon="8.3525183"><ele>180.0</ele><time>2026-04-25T12:24:09.982Z</time></trkpt><trkpt lat="44.6432883" lon="8.35289"><ele>178.0</ele><time>2026-04-25T12:24:10.982Z</time></trkpt><trkpt lat="44.6432283" lon="8.3532717"><ele>175.0</ele><time>2026-04-25T12:24:11.981Z</time></trkpt><trkpt lat="44.6431517" lon="8.3536617"><ele>172.0</ele><time>2026-04-25T12:24:12.981Z</time></trkpt><trkpt lat="44.6430933" lon="8.3540233"><ele>172.0</ele><time>2026-04-25T12:24:13.981Z</time></trkpt><trkpt lat="44.64304" lon="8.354385"><ele>172.0</ele><time>2026-04-25T12:24:14.982Z</time></trkpt><trkpt lat="44.6429767" lon="8.35471"><ele>173.5</ele><time>2026-04-25T12:24:15.982Z</time></trkpt><trkpt lat="44.6429067" lon="8.3550267"><ele>175.0</ele><time>2026-04-25T12:24:16.981Z</time></trkpt><trkpt lat="44.64284" lon="8.3553133"><ele>177.0</ele><time>2026-04-25T12:24:17.981Z</time></trkpt><trkpt lat="44.64273" lon="8.35563"><ele>179.0</ele><time>2026-04-25T12:24:18.981Z</time></trkpt><trkpt lat="44.6426483" lon="8.3559417"><ele>179.0</ele><time>2026-04-25T12:24:19.981Z</time></trkpt><trkpt lat="44.6425983" lon="8.35624"><ele>179.0</ele><time>2026-04-25T12:24:20.981Z</time></trkpt><trkpt lat="44.6425667" lon="8.3565267"><ele>179.0</ele><time>2026-04-25T12:24:21.981Z</time></trkpt><trkpt lat="44.6425217" lon="8.35675"><ele>179.25</ele><time>2026-04-25T12:24:22.982Z</time></trkpt><trkpt lat="44.642485" lon="8.356935"><ele>179.5</ele><time>2026-04-25T12:24:23.982Z</time></trkpt><trkpt lat="44.6424767" lon="8.3570933"><ele>179.75</ele><time>2026-04-25T12:24:24.982Z</time></trkpt><trkpt lat="44.6424583" lon="8.3572367"><ele>180.0</ele><time>2026-04-25T12:24:25.981Z</time></trkpt><trkpt lat="44.64244" lon="8.3573883"><ele>180.25</ele><time>2026-04-25T12:24:26.981Z</time></trkpt><trkpt lat="44.6424067" lon="8.3575617"><ele>180.5</ele><time>2026-04-25T12:24:27.982Z</time></trkpt><trkpt lat="44.64235" lon="8.35772"><ele>180.75</ele><time>2026-04-25T12:24:28.981Z</time></trkpt><trkpt lat="44.6422717" lon="8.3578617"><ele>181.0</ele><time>2026-04-25T12:24:29.981Z</time></trkpt><trkpt lat="44.6421717" lon="8.3579867"><ele>182.33333333333334</ele><time>2026-04-25T12:24:30.982Z</time></trkpt><trkpt lat="44.6420417" lon="8.3580683"><ele>183.66666666666666</ele><time>2026-04-25T12:24:31.982Z</time></trkpt><trkpt lat="44.6418983" lon="8.3581067"><ele>185.0</ele><time>2026-04-25T12:24:32.981Z</time></trkpt><trkpt lat="44.6417267" lon="8.3581367"><ele>185.0</ele><time>2026-04-25T12:24:33.981Z</time></trkpt><trkpt lat="44.641545" lon="8.35818"><ele>185.0</ele><time>2026-04-25T12:24:34.981Z</time></trkpt><trkpt lat="44.6413517" lon="8.3582367"><ele>185.0</ele><time>2026-04-25T12:24:35.981Z</time></trkpt><trkpt lat="44.6411433" lon="8.358285"><ele>184.0</ele><time>2026-04-25T12:24:36.981Z</time></trkpt><trkpt lat="44.6409133" lon="8.3583217"><ele>183.0</ele><time>2026-04-25T12:24:37.981Z</time></trkpt><trkpt lat="44.6406667" lon="8.358355"><ele>183.0</ele><time>2026-04-25T12:24:38.982Z</time></trkpt><trkpt lat="44.6404133" lon="8.3584067"><ele>183.0</ele><time>2026-04-25T12:24:39.982Z</time></trkpt><trkpt lat="44.6401483" lon="8.3584483"><ele>183.0</ele><time>2026-04-25T12:24:40.981Z</time></trkpt><trkpt lat="44.6398767" lon="8.3584967"><ele>183.0</ele><time>2026-04-25T12:24:41.981Z</time></trkpt><trkpt lat="44.6396117" lon="8.35854"><ele>183.0</ele><time>2026-04-25T12:24:42.982Z</time></trkpt><trkpt lat="44.6393667" lon="8.3585883"><ele>183.0</ele><time>2026-04-25T12:24:43.982Z</time></trkpt><trkpt lat="44.6391417" lon="8.3586283"><ele>183.0</ele><time>2026-04-25T12:24:44.981Z</time></trkpt><trkpt lat="44.638925" lon="8.35869"><ele>183.0</ele><time>2026-04-25T12:24:45.982Z</time></trkpt><trkpt lat="44.63871" lon="8.3587633"><ele>183.0</ele><time>2026-04-25T12:24:46.982Z</time></trkpt><trkpt lat="44.6384817" lon="8.3588567"><ele>184.5</ele><time>2026-04-25T12:24:47.982Z</time></trkpt><trkpt lat="44.638265" lon="8.35899"><ele>186.0</ele><time>2026-04-25T12:24:48.981Z</time></trkpt><trkpt lat="44.638065" lon="8.359115"><ele>186.0</ele><time>2026-04-25T12:24:49.981Z</time></trkpt><trkpt lat="44.6378917" lon="8.3592183"><ele>186.0</ele><time>2026-04-25T12:24:50.981Z</time></trkpt><trkpt lat="44.6377517" lon="8.3592983"><ele>186.0</ele><time>2026-04-25T12:24:51.982Z</time></trkpt><trkpt lat="44.637615" lon="8.3593733"><ele>185.25</ele><time>2026-04-25T12:24:52.982Z</time></trkpt><trkpt lat="44.6374883" lon="8.35941"><ele>184.5</ele><time>2026-04-25T12:24:53.981Z</time></trkpt><trkpt lat="44.63737" lon="8.3594133"><ele>183.75</ele><time>2026-04-25T12:24:54.982Z</time></trkpt><trkpt lat="44.6372583" lon="8.35941"><ele>183.0</ele><time>2026-04-25T12:24:55.982Z</time></trkpt><trkpt lat="44.6371467" lon="8.3594283"><ele>183.0</ele><time>2026-04-25T12:24:56.981Z</time></trkpt><trkpt lat="44.6370367" lon="8.3595167"><ele>183.0</ele><time>2026-04-25T12:24:57.981Z</time></trkpt><trkpt lat="44.6369133" lon="8.3596633"><ele>183.0</ele><time>2026-04-25T12:24:58.982Z</time></trkpt><trkpt lat="44.6367817" lon="8.359875"><ele>182.0</ele><time>2026-04-25T12:24:59.981Z</time></trkpt><trkpt lat="44.636635" lon="8.3600833"><ele>181.0</ele><time>2026-04-25T12:25:00.981Z</time></trkpt><trkpt lat="44.636465" lon="8.3602767"><ele>180.0</ele><time>2026-04-25T12:25:01.981Z</time></trkpt><trkpt lat="44.6362783" lon="8.3604633"><ele>180.5</ele><time>2026-04-25T12:25:02.981Z</time></trkpt><trkpt lat="44.6360817" lon="8.3606533"><ele>181.0</ele><time>2026-04-25T12:25:03.981Z</time></trkpt><trkpt lat="44.6358517" lon="8.36081"><ele>181.0</ele><time>2026-04-25T12:25:04.982Z</time></trkpt><trkpt lat="44.6356033" lon="8.3609683"><ele>181.0</ele><time>2026-04-25T12:25:05.982Z</time></trkpt><trkpt lat="44.6353533" lon="8.3611133"><ele>180.5</ele><time>2026-04-25T12:25:06.982Z</time></trkpt><trkpt lat="44.6351083" lon="8.36126"><ele>180.0</ele><time>2026-04-25T12:25:07.981Z</time></trkpt><trkpt lat="44.63487" lon="8.3614017"><ele>180.5</ele><time>2026-04-25T12:25:08.981Z</time></trkpt><trkpt lat="44.6346317" lon="8.3615517"><ele>181.0</ele><time>2026-04-25T12:25:09.982Z</time></trkpt><trkpt lat="44.6343883" lon="8.3617083"><ele>181.0</ele><time>2026-04-25T12:25:10.982Z</time></trkpt><trkpt lat="44.6341533" lon="8.3618517"><ele>181.0</ele><time>2026-04-25T12:25:11.981Z</time></trkpt><trkpt lat="44.6339083" lon="8.3619817"><ele>181.0</ele><time>2026-04-25T12:25:12.981Z</time></trkpt><trkpt lat="44.6336617" lon="8.3620967"><ele>181.0</ele><time>2026-04-25T12:25:13.981Z</time></trkpt><trkpt lat="44.63342" lon="8.3622283"><ele>181.5</ele><time>2026-04-25T12:25:14.981Z</time></trkpt><trkpt lat="44.6331817" lon="8.36237"><ele>182.0</ele><time>2026-04-25T12:25:15.981Z</time></trkpt><trkpt lat="44.6329433" lon="8.3625283"><ele>181.0</ele><time>2026-04-25T12:25:16.982Z</time></trkpt><trkpt lat="44.6327133" lon="8.3626767"><ele>180.0</ele><time>2026-04-25T12:25:17.982Z</time></trkpt><trkpt lat="44.6324967" lon="8.3628083"><ele>180.0</ele><time>2026-04-25T12:25:18.982Z</time></trkpt><trkpt lat="44.6322983" lon="8.362925"><ele>180.0</ele><time>2026-04-25T12:25:19.981Z</time></trkpt><trkpt lat="44.63212" lon="8.3630233"><ele>180.0</ele><time>2026-04-25T12:25:20.981Z</time></trkpt><trkpt lat="44.6319533" lon="8.3631167"><ele>182.66666666666666</ele><time>2026-04-25T12:25:21.982Z</time></trkpt><trkpt lat="44.6317883" lon="8.36321"><ele>185.33333333333331</ele><time>2026-04-25T12:25:22.981Z</time></trkpt><trkpt lat="44.631645" lon="8.3632967"><ele>188.0</ele><time>2026-04-25T12:25:23.981Z</time></trkpt><trkpt lat="44.6315" lon="8.3633833"><ele>188.0</ele><time>2026-04-25T12:25:24.982Z</time></trkpt><trkpt lat="44.6313617" lon="8.3634667"><ele>188.0</ele><time>2026-04-25T12:25:25.981Z</time></trkpt><trkpt lat="44.631225" lon="8.3635533"><ele>188.0</ele><time>2026-04-25T12:25:26.981Z</time></trkpt><trkpt lat="44.6310833" lon="8.36365"><ele>188.0</ele><time>2026-04-25T12:25:27.981Z</time></trkpt><trkpt lat="44.6309267" lon="8.3637417"><ele>188.0</ele><time>2026-04-25T12:25:28.981Z</time></trkpt><trkpt lat="44.630765" lon="8.3638217"><ele>188.0</ele><time>2026-04-25T12:25:29.982Z</time></trkpt><trkpt lat="44.6305983" lon="8.36392"><ele>188.0</ele><time>2026-04-25T12:25:30.981Z</time></trkpt><trkpt lat="44.63042" lon="8.3640283"><ele>188.0</ele><time>2026-04-25T12:25:31.982Z</time></trkpt><trkpt lat="44.6302417" lon="8.364125"><ele>188.0</ele><time>2026-04-25T12:25:32.981Z</time></trkpt><trkpt lat="44.6300567" lon="8.3642433"><ele>187.0</ele><time>2026-04-25T12:25:33.982Z</time></trkpt><trkpt lat="44.629885" lon="8.364345"><ele>186.0</ele><time>2026-04-25T12:25:34.981Z</time></trkpt><trkpt lat="44.6297133" lon="8.3644517"><ele>185.0</ele><time>2026-04-25T12:25:35.981Z</time></trkpt><trkpt lat="44.6295417" lon="8.364545"><ele>185.0</ele><time>2026-04-25T12:25:36.982Z</time></trkpt><trkpt lat="44.6293733" lon="8.3646433"><ele>185.0</ele><time>2026-04-25T12:25:37.982Z</time></trkpt><trkpt lat="44.6292233" lon="8.36475"><ele>185.0</ele><time>2026-04-25T12:25:38.981Z</time></trkpt><trkpt lat="44.6290633" lon="8.3648567"><ele>185.66666666666666</ele><time>2026-04-25T12:25:39.981Z</time></trkpt><trkpt lat="44.6289183" lon="8.3649667"><ele>186.33333333333334</ele><time>2026-04-25T12:25:40.981Z</time></trkpt><trkpt lat="44.6287733" lon="8.3650483"><ele>187.0</ele><time>2026-04-25T12:25:41.982Z</time></trkpt><trkpt lat="44.628625" lon="8.3651367"><ele>187.25</ele><time>2026-04-25T12:25:42.981Z</time></trkpt><trkpt lat="44.6285033" lon="8.3652233"><ele>187.5</ele><time>2026-04-25T12:25:43.982Z</time></trkpt><trkpt lat="44.6284033" lon="8.36529"><ele>187.75</ele><time>2026-04-25T12:25:44.981Z</time></trkpt><trkpt lat="44.628295" lon="8.3653267"><ele>188.0</ele><time>2026-04-25T12:25:45.982Z</time></trkpt><trkpt lat="44.628185" lon="8.3653233"><ele>188.0</ele><time>2026-04-25T12:25:46.982Z</time></trkpt><trkpt lat="44.6280517" lon="8.36528"><ele>188.0</ele><time>2026-04-25T12:25:47.981Z</time></trkpt><trkpt lat="44.6279133" lon="8.365215"><ele>188.0</ele><time>2026-04-25T12:25:48.981Z</time></trkpt><trkpt lat="44.62779" lon="8.3651567"><ele>188.0</ele><time>2026-04-25T12:25:49.981Z</time></trkpt><trkpt lat="44.6276717" lon="8.3651067"><ele>187.75</ele><time>2026-04-25T12:25:50.981Z</time></trkpt><trkpt lat="44.6275667" lon="8.365075"><ele>187.5</ele><time>2026-04-25T12:25:51.981Z</time></trkpt><trkpt lat="44.6274567" lon="8.36508"><ele>187.25</ele><time>2026-04-25T12:25:52.981Z</time></trkpt><trkpt lat="44.6273233" lon="8.36513"><ele>187.0</ele><time>2026-04-25T12:25:53.981Z</time></trkpt><trkpt lat="44.6271767" lon="8.3652"><ele>187.0</ele><time>2026-04-25T12:25:54.982Z</time></trkpt><trkpt lat="44.627035" lon="8.3652833"><ele>187.0</ele><time>2026-04-25T12:25:55.981Z</time></trkpt><trkpt lat="44.6269017" lon="8.365375"><ele>187.0</ele><time>2026-04-25T12:25:56.981Z</time></trkpt><trkpt lat="44.6267583" lon="8.3654533"><ele>188.0</ele><time>2026-04-25T12:25:57.981Z</time></trkpt><trkpt lat="44.62661" lon="8.365515"><ele>189.0</ele><time>2026-04-25T12:25:58.981Z</time></trkpt><trkpt lat="44.626445" lon="8.365545"><ele>190.0</ele><time>2026-04-25T12:25:59.981Z</time></trkpt><trkpt lat="44.6262783" lon="8.3655233"><ele>187.0</ele><time>2026-04-25T12:26:00.982Z</time></trkpt><trkpt lat="44.6260983" lon="8.3654833"><ele>184.0</ele><time>2026-04-25T12:26:01.982Z</time></trkpt><trkpt lat="44.62593" lon="8.3654383"><ele>181.0</ele><time>2026-04-25T12:26:02.982Z</time></trkpt><trkpt lat="44.6257483" lon="8.3653667"><ele>181.0</ele><time>2026-04-25T12:26:03.981Z</time></trkpt><trkpt lat="44.6255733" lon="8.3652583"><ele>181.0</ele><time>2026-04-25T12:26:04.981Z</time></trkpt><trkpt lat="44.6254067" lon="8.36513"><ele>181.0</ele><time>2026-04-25T12:26:05.981Z</time></trkpt><trkpt lat="44.6252367" lon="8.36499"><ele>180.66666666666669</ele><time>2026-04-25T12:26:06.982Z</time></trkpt><trkpt lat="44.62507" lon="8.3648367"><ele>180.33333333333334</ele><time>2026-04-25T12:26:07.981Z</time></trkpt><trkpt lat="44.6249083" lon="8.36469"><ele>180.0</ele><time>2026-04-25T12:26:08.981Z</time></trkpt><trkpt lat="44.6247467" lon="8.3645433"><ele>180.0</ele><time>2026-04-25T12:26:09.982Z</time></trkpt><trkpt lat="44.6246033" lon="8.36439"><ele>180.0</ele><time>2026-04-25T12:26:10.981Z</time></trkpt><trkpt lat="44.6244467" lon="8.364215"><ele>180.0</ele><time>2026-04-25T12:26:11.981Z</time></trkpt><trkpt lat="44.6242867" lon="8.36403"><ele>180.66666666666666</ele><time>2026-04-25T12:26:12.982Z</time></trkpt><trkpt lat="44.6241217" lon="8.3638367"><ele>181.33333333333331</ele><time>2026-04-25T12:26:13.982Z</time></trkpt><trkpt lat="44.6239717" lon="8.3636217"><ele>182.0</ele><time>2026-04-25T12:26:14.981Z</time></trkpt><trkpt lat="44.623825" lon="8.3634033"><ele>182.0</ele><time>2026-04-25T12:26:15.981Z</time></trkpt><trkpt lat="44.6236783" lon="8.3631683"><ele>182.0</ele><time>2026-04-25T12:26:16.981Z</time></trkpt><trkpt lat="44.6235467" lon="8.3629233"><ele>182.0</ele><time>2026-04-25T12:26:17.981Z</time></trkpt><trkpt lat="44.6234217" lon="8.3626617"><ele>183.0</ele><time>2026-04-25T12:26:18.982Z</time></trkpt><trkpt lat="44.6233083" lon="8.3623633"><ele>184.0</ele><time>2026-04-25T12:26:19.982Z</time></trkpt><trkpt lat="44.6232017" lon="8.3620683"><ele>184.0</ele><time>2026-04-25T12:26:20.981Z</time></trkpt><trkpt lat="44.6231117" lon="8.361775"><ele>184.0</ele><time>2026-04-25T12:26:21.981Z</time></trkpt><trkpt lat="44.623035" lon="8.361485"><ele>184.0</ele><time>2026-04-25T12:26:22.981Z</time></trkpt><trkpt lat="44.6229717" lon="8.3611917"><ele>183.0</ele><time>2026-04-25T12:26:23.982Z</time></trkpt><trkpt lat="44.6229133" lon="8.3608783"><ele>182.0</ele><time>2026-04-25T12:26:24.981Z</time></trkpt><trkpt lat="44.622875" lon="8.3605567"><ele>183.0</ele><time>2026-04-25T12:26:25.982Z</time></trkpt><trkpt lat="44.6228467" lon="8.3602117"><ele>184.0</ele><time>2026-04-25T12:26:26.981Z</time></trkpt><trkpt lat="44.6228317" lon="8.35989"><ele>184.0</ele><time>2026-04-25T12:26:27.981Z</time></trkpt><trkpt lat="44.6228533" lon="8.3595883"><ele>184.0</ele><time>2026-04-25T12:26:28.982Z</time></trkpt><trkpt lat="44.6228867" lon="8.359295"><ele>184.0</ele><time>2026-04-25T12:26:29.981Z</time></trkpt><trkpt lat="44.62294" lon="8.3590267"><ele>184.33333333333334</ele><time>2026-04-25T12:26:30.981Z</time></trkpt><trkpt lat="44.623" lon="8.3587583"><ele>184.66666666666666</ele><time>2026-04-25T12:26:31.982Z</time></trkpt><trkpt lat="44.6230417" lon="8.3585017"><ele>185.0</ele><time>2026-04-25T12:26:32.982Z</time></trkpt><trkpt lat="44.6230883" lon="8.358265"><ele>185.0</ele><time>2026-04-25T12:26:33.981Z</time></trkpt><trkpt lat="44.6231267" lon="8.3580467"><ele>185.0</ele><time>2026-04-25T12:26:34.981Z</time></trkpt><trkpt lat="44.6231817" lon="8.35789"><ele>185.0</ele><time>2026-04-25T12:26:35.981Z</time></trkpt><trkpt lat="44.6232533" lon="8.357815"><ele>185.0</ele><time>2026-04-25T12:26:36.981Z</time></trkpt><trkpt lat="44.6233433" lon="8.3577917"><ele>184.75</ele><time>2026-04-25T12:26:37.981Z</time></trkpt><trkpt lat="44.623455" lon="8.3578083"><ele>184.5</ele><time>2026-04-25T12:26:38.981Z</time></trkpt><trkpt lat="44.6235833" lon="8.357855"><ele>184.25</ele><time>2026-04-25T12:26:39.981Z</time></trkpt><trkpt lat="44.6237083" lon="8.3578867"><ele>184.0</ele><time>2026-04-25T12:26:40.982Z</time></trkpt><trkpt lat="44.62385" lon="8.3578717"><ele>183.75</ele><time>2026-04-25T12:26:41.981Z</time></trkpt><trkpt lat="44.62398" lon="8.3578067"><ele>183.5</ele><time>2026-04-25T12:26:42.981Z</time></trkpt><trkpt lat="44.6240917" lon="8.3576917"><ele>183.25</ele><time>2026-04-25T12:26:43.982Z</time></trkpt><trkpt lat="44.6241983" lon="8.3575483"><ele>183.0</ele><time>2026-04-25T12:26:44.982Z</time></trkpt><trkpt lat="44.624295" lon="8.357345"><ele>183.33333333333334</ele><time>2026-04-25T12:26:45.981Z</time></trkpt><trkpt lat="44.6243683" lon="8.3571167"><ele>183.66666666666669</ele><time>2026-04-25T12:26:46.981Z</time></trkpt><trkpt lat="44.6244417" lon="8.356855"><ele>184.0</ele><time>2026-04-25T12:26:47.981Z</time></trkpt><trkpt lat="44.6244933" lon="8.35657"><ele>184.0</ele><time>2026-04-25T12:26:48.982Z</time></trkpt><trkpt lat="44.62454" lon="8.3562917"><ele>184.0</ele><time>2026-04-25T12:26:49.981Z</time></trkpt><trkpt lat="44.6245967" lon="8.356025"><ele>184.0</ele><time>2026-04-25T12:26:50.981Z</time></trkpt><trkpt lat="44.6246467" lon="8.35578"><ele>184.0</ele><time>2026-04-25T12:26:51.981Z</time></trkpt><trkpt lat="44.6246917" lon="8.3555383"><ele>184.0</ele><time>2026-04-25T12:26:52.981Z</time></trkpt><trkpt lat="44.624715" lon="8.355295"><ele>184.0</ele><time>2026-04-25T12:26:53.982Z</time></trkpt><trkpt lat="44.6247017" lon="8.3550517"><ele>184.0</ele><time>2026-04-25T12:26:54.982Z</time></trkpt><trkpt lat="44.6246533" lon="8.3547967"><ele>184.0</ele><time>2026-04-25T12:26:55.981Z</time></trkpt><trkpt lat="44.6245917" lon="8.3545517"><ele>184.0</ele><time>2026-04-25T12:26:56.982Z</time></trkpt><trkpt lat="44.624495" lon="8.3543133"><ele>183.33333333333334</ele><time>2026-04-25T12:26:57.981Z</time></trkpt><trkpt lat="44.6243783" lon="8.3541117"><ele>182.66666666666666</ele><time>2026-04-25T12:26:58.982Z</time></trkpt><trkpt lat="44.6242133" lon="8.35396"><ele>182.0</ele><time>2026-04-25T12:26:59.981Z</time></trkpt><trkpt lat="44.62404" lon="8.35382"><ele>182.0</ele><time>2026-04-25T12:27:00.981Z</time></trkpt><trkpt lat="44.6238483" lon="8.3537017"><ele>182.0</ele><time>2026-04-25T12:27:01.982Z</time></trkpt><trkpt lat="44.6236567" lon="8.35361"><ele>182.0</ele><time>2026-04-25T12:27:02.981Z</time></trkpt><trkpt lat="44.62346" lon="8.3535233"><ele>182.0</ele><time>2026-04-25T12:27:03.981Z</time></trkpt><trkpt lat="44.6232617" lon="8.35343"><ele>182.0</ele><time>2026-04-25T12:27:04.981Z</time></trkpt><trkpt lat="44.62306" lon="8.3533367"><ele>182.0</ele><time>2026-04-25T12:27:05.982Z</time></trkpt><trkpt lat="44.6228567" lon="8.353255"><ele>182.33333333333331</ele><time>2026-04-25T12:27:06.982Z</time></trkpt><trkpt lat="44.62266" lon="8.3531717"><ele>182.66666666666666</ele><time>2026-04-25T12:27:07.982Z</time></trkpt><trkpt lat="44.6224633" lon="8.3530717"><ele>183.0</ele><time>2026-04-25T12:27:08.981Z</time></trkpt><trkpt lat="44.6222717" lon="8.352955"><ele>184.0</ele><time>2026-04-25T12:27:09.982Z</time></trkpt><trkpt lat="44.6220717" lon="8.3528267"><ele>185.0</ele><time>2026-04-25T12:27:10.982Z</time></trkpt><trkpt lat="44.6218567" lon="8.35269"><ele>185.0</ele><time>2026-04-25T12:27:11.982Z</time></trkpt><trkpt lat="44.6216567" lon="8.3525533"><ele>185.0</ele><time>2026-04-25T12:27:12.981Z</time></trkpt><trkpt lat="44.6214517" lon="8.3524"><ele>185.0</ele><time>2026-04-25T12:27:13.982Z</time></trkpt><trkpt lat="44.6212367" lon="8.352245"><ele>185.0</ele><time>2026-04-25T12:27:14.982Z</time></trkpt><trkpt lat="44.6210133" lon="8.3520867"><ele>185.5</ele><time>2026-04-25T12:27:15.981Z</time></trkpt><trkpt lat="44.6207867" lon="8.3519267"><ele>186.0</ele><time>2026-04-25T12:27:16.981Z</time></trkpt><trkpt lat="44.6205617" lon="8.3517667"><ele>186.0</ele><time>2026-04-25T12:27:17.982Z</time></trkpt><trkpt lat="44.620335" lon="8.3516017"><ele>186.0</ele><time>2026-04-25T12:27:18.981Z</time></trkpt><trkpt lat="44.6201017" lon="8.3514467"><ele>184.5</ele><time>2026-04-25T12:27:19.981Z</time></trkpt><trkpt lat="44.6198733" lon="8.3512917"><ele>183.0</ele><time>2026-04-25T12:27:20.981Z</time></trkpt><trkpt lat="44.619655" lon="8.35113"><ele>186.5</ele><time>2026-04-25T12:27:21.981Z</time></trkpt><trkpt lat="44.619455" lon="8.3509483"><ele>190.0</ele><time>2026-04-25T12:27:22.98Z</time></trkpt><trkpt lat="44.61922" lon="8.3507983"><ele>190.0</ele><time>2026-04-25T12:27:23.981Z</time></trkpt><trkpt lat="44.6189933" lon="8.3506833"><ele>190.0</ele><time>2026-04-25T12:27:24.98Z</time></trkpt><trkpt lat="44.6187433" lon="8.3505917"><ele>188.0</ele><time>2026-04-25T12:27:25.981Z</time></trkpt><trkpt lat="44.6184867" lon="8.3504883"><ele>186.0</ele><time>2026-04-25T12:27:26.98Z</time></trkpt><trkpt lat="44.618245" lon="8.3503683"><ele>186.0</ele><time>2026-04-25T12:27:27.98Z</time></trkpt><trkpt lat="44.6180183" lon="8.3502567"><ele>186.0</ele><time>2026-04-25T12:27:28.98Z</time></trkpt><trkpt lat="44.617775" lon="8.3501867"><ele>186.5</ele><time>2026-04-25T12:27:29.981Z</time></trkpt><trkpt lat="44.6175233" lon="8.3501683"><ele>187.0</ele><time>2026-04-25T12:27:30.98Z</time></trkpt><trkpt lat="44.6172783" lon="8.3501617"><ele>187.0</ele><time>2026-04-25T12:27:31.98Z</time></trkpt><trkpt lat="44.617035" lon="8.35017"><ele>187.0</ele><time>2026-04-25T12:27:32.98Z</time></trkpt><trkpt lat="44.6167983" lon="8.35019"><ele>189.0</ele><time>2026-04-25T12:27:33.98Z</time></trkpt><trkpt lat="44.6165483" lon="8.350165"><ele>191.0</ele><time>2026-04-25T12:27:34.98Z</time></trkpt><trkpt lat="44.6163133" lon="8.3501267"><ele>192.5</ele><time>2026-04-25T12:27:35.98Z</time></trkpt><trkpt lat="44.6160883" lon="8.3500567"><ele>194.0</ele><time>2026-04-25T12:27:36.98Z</time></trkpt><trkpt lat="44.6158717" lon="8.3499633"><ele>194.0</ele><time>2026-04-25T12:27:37.98Z</time></trkpt><trkpt lat="44.6156733" lon="8.3498683"><ele>194.0</ele><time>2026-04-25T12:27:38.981Z</time></trkpt><trkpt lat="44.6154633" lon="8.349725"><ele>194.0</ele><time>2026-04-25T12:27:39.98Z</time></trkpt><trkpt lat="44.61525" lon="8.3495583"><ele>192.5</ele><time>2026-04-25T12:27:40.98Z</time></trkpt><trkpt lat="44.6150483" lon="8.349385"><ele>191.0</ele><time>2026-04-25T12:27:41.98Z</time></trkpt><trkpt lat="44.6148583" lon="8.3492167"><ele>191.0</ele><time>2026-04-25T12:27:42.98Z</time></trkpt><trkpt lat="44.6146817" lon="8.3490617"><ele>191.0</ele><time>2026-04-25T12:27:43.981Z</time></trkpt><trkpt lat="44.6145333" lon="8.34894"><ele>191.0</ele><time>2026-04-25T12:27:44.98Z</time></trkpt><trkpt lat="44.6144" lon="8.3488533"><ele>191.0</ele><time>2026-04-25T12:27:45.981Z</time></trkpt><trkpt lat="44.6142817" lon="8.3487917"><ele>191.0</ele><time>2026-04-25T12:27:46.98Z</time></trkpt><trkpt lat="44.6141483" lon="8.348795"><ele>191.0</ele><time>2026-04-25T12:27:47.981Z</time></trkpt><trkpt lat="44.6140117" lon="8.3488367"><ele>191.0</ele><time>2026-04-25T12:27:48.981Z</time></trkpt><trkpt lat="44.613875" lon="8.348905"><ele>191.0</ele><time>2026-04-25T12:27:49.98Z</time></trkpt><trkpt lat="44.613745" lon="8.3490017"><ele>191.0</ele><time>2026-04-25T12:27:50.981Z</time></trkpt><trkpt lat="44.6136167" lon="8.3491317"><ele>191.0</ele><time>2026-04-25T12:27:51.981Z</time></trkpt><trkpt lat="44.6134883" lon="8.3492983"><ele>191.66666666666666</ele><time>2026-04-25T12:27:52.98Z</time></trkpt><trkpt lat="44.6133633" lon="8.3494667"><ele>192.33333333333331</ele><time>2026-04-25T12:27:53.98Z</time></trkpt><trkpt lat="44.6132283" lon="8.349635"><ele>193.0</ele><time>2026-04-25T12:27:54.981Z</time></trkpt><trkpt lat="44.613085" lon="8.3497933"><ele>193.33333333333331</ele><time>2026-04-25T12:27:55.98Z</time></trkpt><trkpt lat="44.612935" lon="8.349965"><ele>193.66666666666669</ele><time>2026-04-25T12:27:56.981Z</time></trkpt><trkpt lat="44.6127967" lon="8.3501617"><ele>194.0</ele><time>2026-04-25T12:27:57.981Z</time></trkpt><trkpt lat="44.6126683" lon="8.3503817"><ele>193.0</ele><time>2026-04-25T12:27:58.981Z</time></trkpt><trkpt lat="44.6125717" lon="8.3506233"><ele>192.0</ele><time>2026-04-25T12:27:59.98Z</time></trkpt><trkpt lat="44.61249" lon="8.3509133"><ele>191.0</ele><time>2026-04-25T12:28:00.98Z</time></trkpt><trkpt lat="44.6124133" lon="8.3512333"><ele>194.5</ele><time>2026-04-25T12:28:01.981Z</time></trkpt><trkpt lat="44.612305" lon="8.3515283"><ele>198.0</ele><time>2026-04-25T12:28:02.981Z</time></trkpt><trkpt lat="44.61216" lon="8.3518217"><ele>198.0</ele><time>2026-04-25T12:28:03.98Z</time></trkpt><trkpt lat="44.6120017" lon="8.3521"><ele>198.0</ele><time>2026-04-25T12:28:04.981Z</time></trkpt><trkpt lat="44.61182" lon="8.35238"><ele>194.5</ele><time>2026-04-25T12:28:05.98Z</time></trkpt><trkpt lat="44.6116283" lon="8.3526617"><ele>191.0</ele><time>2026-04-25T12:28:06.98Z</time></trkpt><trkpt lat="44.61145" lon="8.3529217"><ele>190.5</ele><time>2026-04-25T12:28:07.981Z</time></trkpt><trkpt lat="44.61127" lon="8.3531767"><ele>190.0</ele><time>2026-04-25T12:28:08.981Z</time></trkpt><trkpt lat="44.6110917" lon="8.3534417"><ele>190.0</ele><time>2026-04-25T12:28:09.98Z</time></trkpt><trkpt lat="44.61091" lon="8.353695"><ele>190.0</ele><time>2026-04-25T12:28:10.981Z</time></trkpt><trkpt lat="44.61073" lon="8.3539467"><ele>192.0</ele><time>2026-04-25T12:28:11.98Z</time></trkpt><trkpt lat="44.6105483" lon="8.3542017"><ele>194.0</ele><time>2026-04-25T12:28:12.981Z</time></trkpt><trkpt lat="44.61036" lon="8.3544467"><ele>194.0</ele><time>2026-04-25T12:28:13.98Z</time></trkpt><trkpt lat="44.6101733" lon="8.3546833"><ele>194.0</ele><time>2026-04-25T12:28:14.98Z</time></trkpt><trkpt lat="44.609975" lon="8.3549117"><ele>194.0</ele><time>2026-04-25T12:28:15.98Z</time></trkpt><trkpt lat="44.609785" lon="8.3551367"><ele>194.0</ele><time>2026-04-25T12:28:16.981Z</time></trkpt><trkpt lat="44.609595" lon="8.3553733"><ele>193.0</ele><time>2026-04-25T12:28:17.98Z</time></trkpt><trkpt lat="44.609405" lon="8.3556117"><ele>192.0</ele><time>2026-04-25T12:28:18.981Z</time></trkpt><trkpt lat="44.6092117" lon="8.3558283"><ele>192.0</ele><time>2026-04-25T12:28:19.981Z</time></trkpt><trkpt lat="44.60901" lon="8.3560283"><ele>192.0</ele><time>2026-04-25T12:28:20.981Z</time></trkpt><trkpt lat="44.608825" lon="8.3562033"><ele>193.33333333333331</ele><time>2026-04-25T12:28:21.98Z</time></trkpt><trkpt lat="44.60866" lon="8.356375"><ele>194.66666666666666</ele><time>2026-04-25T12:28:22.98Z</time></trkpt><trkpt lat="44.6084867" lon="8.3565367"><ele>196.0</ele><time>2026-04-25T12:28:23.981Z</time></trkpt><trkpt lat="44.6083017" lon="8.3566917"><ele>196.0</ele><time>2026-04-25T12:28:24.98Z</time></trkpt><trkpt lat="44.608105" lon="8.3568083"><ele>196.0</ele><time>2026-04-25T12:28:25.98Z</time></trkpt><trkpt lat="44.6078967" lon="8.356895"><ele>196.0</ele><time>2026-04-25T12:28:26.981Z</time></trkpt><trkpt lat="44.607695" lon="8.356935"><ele>196.0</ele><time>2026-04-25T12:28:27.981Z</time></trkpt><trkpt lat="44.60751" lon="8.356945"><ele>196.0</ele><time>2026-04-25T12:28:28.98Z</time></trkpt><trkpt lat="44.6073383" lon="8.3569033"><ele>196.0</ele><time>2026-04-25T12:28:29.981Z</time></trkpt><trkpt lat="44.60718" lon="8.3568383"><ele>196.0</ele><time>2026-04-25T12:28:30.98Z</time></trkpt><trkpt lat="44.60702" lon="8.35678"><ele>196.0</ele><time>2026-04-25T12:28:31.98Z</time></trkpt><trkpt lat="44.6068517" lon="8.3566783"><ele>196.0</ele><time>2026-04-25T12:28:32.98Z</time></trkpt><trkpt lat="44.6067033" lon="8.3565567"><ele>195.0</ele><time>2026-04-25T12:28:33.98Z</time></trkpt><trkpt lat="44.6065583" lon="8.3563633"><ele>194.0</ele><time>2026-04-25T12:28:34.98Z</time></trkpt><trkpt lat="44.606425" lon="8.356145"><ele>193.0</ele><time>2026-04-25T12:28:35.98Z</time></trkpt><trkpt lat="44.606295" lon="8.3559317"><ele>193.0</ele><time>2026-04-25T12:28:36.98Z</time></trkpt><trkpt lat="44.60616" lon="8.3557433"><ele>193.0</ele><time>2026-04-25T12:28:37.981Z</time></trkpt><trkpt lat="44.6059867" lon="8.3555783"><ele>193.0</ele><time>2026-04-25T12:28:38.981Z</time></trkpt><trkpt lat="44.6058" lon="8.3554483"><ele>193.0</ele><time>2026-04-25T12:28:39.98Z</time></trkpt><trkpt lat="44.6055983" lon="8.3553483"><ele>193.0</ele><time>2026-04-25T12:28:40.98Z</time></trkpt><trkpt lat="44.6053933" lon="8.3552533"><ele>193.0</ele><time>2026-04-25T12:28:41.981Z</time></trkpt><trkpt lat="44.6052117" lon="8.3551633"><ele>195.0</ele><time>2026-04-25T12:28:42.98Z</time></trkpt><trkpt lat="44.60503" lon="8.3550883"><ele>197.0</ele><time>2026-04-25T12:28:43.981Z</time></trkpt><trkpt lat="44.604825" lon="8.355045"><ele>199.0</ele><time>2026-04-25T12:28:44.981Z</time></trkpt><trkpt lat="44.604615" lon="8.3550067"><ele>201.66666666666666</ele><time>2026-04-25T12:28:45.981Z</time></trkpt><trkpt lat="44.6044067" lon="8.3549633"><ele>204.33333333333331</ele><time>2026-04-25T12:28:46.981Z</time></trkpt><trkpt lat="44.6041967" lon="8.354915"><ele>207.0</ele><time>2026-04-25T12:28:47.98Z</time></trkpt><trkpt lat="44.604005" lon="8.3548"><ele>205.33333333333331</ele><time>2026-04-25T12:28:48.98Z</time></trkpt><trkpt lat="44.60383" lon="8.35467"><ele>203.66666666666666</ele><time>2026-04-25T12:28:49.98Z</time></trkpt><trkpt lat="44.6036617" lon="8.354495"><ele>202.0</ele><time>2026-04-25T12:28:50.981Z</time></trkpt><trkpt lat="44.6034967" lon="8.3543233"><ele>202.0</ele><time>2026-04-25T12:28:51.98Z</time></trkpt><trkpt lat="44.6033267" lon="8.3541667"><ele>202.0</ele><time>2026-04-25T12:28:52.981Z</time></trkpt><trkpt lat="44.60317" lon="8.354035"><ele>202.0</ele><time>2026-04-25T12:28:53.98Z</time></trkpt><trkpt lat="44.603015" lon="8.3539317"><ele>201.33333333333331</ele><time>2026-04-25T12:28:54.981Z</time></trkpt><trkpt lat="44.6028717" lon="8.3538283"><ele>200.66666666666669</ele><time>2026-04-25T12:28:55.98Z</time></trkpt><trkpt lat="44.60273" lon="8.3537617"><ele>200.0</ele><time>2026-04-25T12:28:56.98Z</time></trkpt><trkpt lat="44.6025817" lon="8.3537117"><ele>200.0</ele><time>2026-04-25T12:28:57.98Z</time></trkpt><trkpt lat="44.60244" lon="8.35368"><ele>200.0</ele><time>2026-04-25T12:28:58.98Z</time></trkpt><trkpt lat="44.6023417" lon="8.3536767"><ele>200.0</ele><time>2026-04-25T12:28:59.98Z</time></trkpt><trkpt lat="44.602235" lon="8.3536683"><ele>200.0</ele><time>2026-04-25T12:29:01.98Z</time></trkpt><trkpt lat="44.6021517" lon="8.3537"><ele>200.0</ele><time>2026-04-25T12:29:03.98Z</time></trkpt><trkpt lat="44.602125" lon="8.35386"><ele>200.4</ele><time>2026-04-25T12:29:05.981Z</time></trkpt><trkpt lat="44.6021417" lon="8.3539667"><ele>200.8</ele><time>2026-04-25T12:29:06.981Z</time></trkpt><trkpt lat="44.60219" lon="8.354085"><ele>201.2</ele><time>2026-04-25T12:29:07.981Z</time></trkpt><trkpt lat="44.6022683" lon="8.3542083"><ele>201.6</ele><time>2026-04-25T12:29:08.98Z</time></trkpt><trkpt lat="44.6023717" lon="8.3543483"><ele>202.0</ele><time>2026-04-25T12:29:09.98Z</time></trkpt><trkpt lat="44.6024867" lon="8.3545033"><ele>202.0</ele><time>2026-04-25T12:29:10.981Z</time></trkpt><trkpt lat="44.6025983" lon="8.3546767"><ele>202.0</ele><time>2026-04-25T12:29:11.981Z</time></trkpt><trkpt lat="44.6027033" lon="8.354865"><ele>202.0</ele><time>2026-04-25T12:29:12.98Z</time></trkpt><trkpt lat="44.6027783" lon="8.355045"><ele>203.33333333333331</ele><time>2026-04-25T12:29:13.98Z</time></trkpt><trkpt lat="44.6028183" lon="8.3552433"><ele>204.66666666666669</ele><time>2026-04-25T12:29:14.98Z</time></trkpt><trkpt lat="44.6028267" lon="8.3554717"><ele>206.0</ele><time>2026-04-25T12:29:15.981Z</time></trkpt><trkpt lat="44.6028133" lon="8.3557067"><ele>208.0</ele><time>2026-04-25T12:29:16.98Z</time></trkpt><trkpt lat="44.602755" lon="8.35595"><ele>210.0</ele><time>2026-04-25T12:29:17.981Z</time></trkpt><trkpt lat="44.6026817" lon="8.3562033"><ele>212.0</ele><time>2026-04-25T12:29:18.981Z</time></trkpt><trkpt lat="44.602615" lon="8.3564833"><ele>214.33333333333334</ele><time>2026-04-25T12:29:19.98Z</time></trkpt><trkpt lat="44.6025567" lon="8.3567733"><ele>216.66666666666669</ele><time>2026-04-25T12:29:20.981Z</time></trkpt><trkpt lat="44.6025083" lon="8.357045"><ele>219.0</ele><time>2026-04-25T12:29:21.98Z</time></trkpt><trkpt lat="44.6024767" lon="8.3573117"><ele>220.0</ele><time>2026-04-25T12:29:22.98Z</time></trkpt><trkpt lat="44.60248" lon="8.3576067"><ele>221.0</ele><time>2026-04-25T12:29:23.981Z</time></trkpt><trkpt lat="44.602505" lon="8.357925"><ele>222.0</ele><time>2026-04-25T12:29:24.98Z</time></trkpt><trkpt lat="44.6025267" lon="8.3582433"><ele>224.0</ele><time>2026-04-25T12:29:25.98Z</time></trkpt><trkpt lat="44.6025283" lon="8.3585833"><ele>226.0</ele><time>2026-04-25T12:29:26.98Z</time></trkpt><trkpt lat="44.6025117" lon="8.3589267"><ele>231.0</ele><time>2026-04-25T12:29:27.981Z</time></trkpt><trkpt lat="44.6024667" lon="8.3592783"><ele>236.0</ele><time>2026-04-25T12:29:28.981Z</time></trkpt><trkpt lat="44.6024" lon="8.3596433"><ele>240.5</ele><time>2026-04-25T12:29:29.98Z</time></trkpt><trkpt lat="44.6023283" lon="8.360005"><ele>245.0</ele><time>2026-04-25T12:29:30.98Z</time></trkpt><trkpt lat="44.6022583" lon="8.3603617"><ele>249.5</ele><time>2026-04-25T12:29:31.98Z</time></trkpt><trkpt lat="44.6021867" lon="8.3606717"><ele>254.0</ele><time>2026-04-25T12:29:32.981Z</time></trkpt><trkpt lat="44.6021083" lon="8.360965"><ele>254.0</ele><time>2026-04-25T12:29:33.981Z</time></trkpt><trkpt lat="44.602025" lon="8.3612183"><ele>254.0</ele><time>2026-04-25T12:29:34.98Z</time></trkpt><trkpt lat="44.6019067" lon="8.3614333"><ele>254.0</ele><time>2026-04-25T12:29:35.98Z</time></trkpt><trkpt lat="44.60175" lon="8.36165"><ele>250.0</ele><time>2026-04-25T12:29:36.981Z</time></trkpt><trkpt lat="44.6015783" lon="8.361885"><ele>246.0</ele><time>2026-04-25T12:29:37.981Z</time></trkpt><trkpt lat="44.60137" lon="8.3621283"><ele>247.5</ele><time>2026-04-25T12:29:38.981Z</time></trkpt><trkpt lat="44.601145" lon="8.3624067"><ele>249.0</ele><time>2026-04-25T12:29:39.98Z</time></trkpt><trkpt lat="44.6009117" lon="8.3626933"><ele>249.0</ele><time>2026-04-25T12:29:40.98Z</time></trkpt><trkpt lat="44.6006983" lon="8.36296"><ele>249.0</ele><time>2026-04-25T12:29:41.98Z</time></trkpt><trkpt lat="44.6004917" lon="8.3632067"><ele>249.0</ele><time>2026-04-25T12:29:42.981Z</time></trkpt><trkpt lat="44.60032" lon="8.3634133"><ele>249.0</ele><time>2026-04-25T12:29:43.98Z</time></trkpt><trkpt lat="44.6001783" lon="8.3635917"><ele>249.0</ele><time>2026-04-25T12:29:44.98Z</time></trkpt><trkpt lat="44.6000633" lon="8.3637617"><ele>251.5</ele><time>2026-04-25T12:29:45.981Z</time></trkpt><trkpt lat="44.599965" lon="8.3639167"><ele>254.0</ele><time>2026-04-25T12:29:46.98Z</time></trkpt><trkpt lat="44.5998983" lon="8.36408"><ele>256.5</ele><time>2026-04-25T12:29:47.98Z</time></trkpt><trkpt lat="44.5998683" lon="8.364275"><ele>259.0</ele><time>2026-04-25T12:29:48.981Z</time></trkpt><trkpt lat="44.599865" lon="8.3644967"><ele>259.66666666666663</ele><time>2026-04-25T12:29:49.981Z</time></trkpt><trkpt lat="44.5999217" lon="8.3647183"><ele>260.3333333333333</ele><time>2026-04-25T12:29:50.981Z</time></trkpt><trkpt lat="44.60002" lon="8.3649367"><ele>261.0</ele><time>2026-04-25T12:29:51.98Z</time></trkpt><trkpt lat="44.6001683" lon="8.365145"><ele>272.5</ele><time>2026-04-25T12:29:52.98Z</time></trkpt><trkpt lat="44.6003417" lon="8.365385"><ele>284.0</ele><time>2026-04-25T12:29:53.98Z</time></trkpt><trkpt lat="44.6005217" lon="8.36566"><ele>284.0</ele><time>2026-04-25T12:29:54.981Z</time></trkpt><trkpt lat="44.6006917" lon="8.3659117"><ele>284.0</ele><time>2026-04-25T12:29:55.981Z</time></trkpt><trkpt lat="44.600835" lon="8.3661317"><ele>284.0</ele><time>2026-04-25T12:29:56.981Z</time></trkpt><trkpt lat="44.6009533" lon="8.3663367"><ele>284.0</ele><time>2026-04-25T12:29:57.98Z</time></trkpt><trkpt lat="44.6010633" lon="8.3664917"><ele>284.0</ele><time>2026-04-25T12:29:58.981Z</time></trkpt><trkpt lat="44.601195" lon="8.3665783"><ele>283.33333333333337</ele><time>2026-04-25T12:29:59.98Z</time></trkpt><trkpt lat="44.60135" lon="8.3666"><ele>282.6666666666667</ele><time>2026-04-25T12:30:00.981Z</time></trkpt><trkpt lat="44.60152" lon="8.3665567"><ele>282.0</ele><time>2026-04-25T12:30:01.98Z</time></trkpt><trkpt lat="44.601725" lon="8.3664533"><ele>291.0</ele><time>2026-04-25T12:30:02.98Z</time></trkpt><trkpt lat="44.6019317" lon="8.3663467"><ele>300.0</ele><time>2026-04-25T12:30:03.98Z</time></trkpt><trkpt lat="44.6021183" lon="8.366295"><ele>309.0</ele><time>2026-04-25T12:30:04.981Z</time></trkpt><trkpt lat="44.60229" lon="8.366305"><ele>303.6666666666667</ele><time>2026-04-25T12:30:05.98Z</time></trkpt><trkpt lat="44.6024317" lon="8.3663833"><ele>298.33333333333337</ele><time>2026-04-25T12:30:06.98Z</time></trkpt><trkpt lat="44.602555" lon="8.366525"><ele>293.0</ele><time>2026-04-25T12:30:07.98Z</time></trkpt><trkpt lat="44.602675" lon="8.3667"><ele>293.0</ele><time>2026-04-25T12:30:08.981Z</time></trkpt><trkpt lat="44.6028" lon="8.366945"><ele>293.0</ele><time>2026-04-25T12:30:09.981Z</time></trkpt><trkpt lat="44.6029133" lon="8.3671917"><ele>293.0</ele><time>2026-04-25T12:30:10.98Z</time></trkpt><trkpt lat="44.6030217" lon="8.3674217"><ele>291.33333333333337</ele><time>2026-04-25T12:30:11.981Z</time></trkpt><trkpt lat="44.60309" lon="8.3676267"><ele>289.6666666666667</ele><time>2026-04-25T12:30:12.98Z</time></trkpt><trkpt lat="44.6031083" lon="8.3678417"><ele>288.0</ele><time>2026-04-25T12:30:13.98Z</time></trkpt><trkpt lat="44.60307" lon="8.3680533"><ele>289.6666666666667</ele><time>2026-04-25T12:30:14.98Z</time></trkpt><trkpt lat="44.6030017" lon="8.36824"><ele>291.33333333333337</ele><time>2026-04-25T12:30:15.98Z</time></trkpt><trkpt lat="44.6028667" lon="8.3684"><ele>293.0</ele><time>2026-04-25T12:30:16.98Z</time></trkpt><trkpt lat="44.6027017" lon="8.368515"><ele>293.0</ele><time>2026-04-25T12:30:17.981Z</time></trkpt><trkpt lat="44.6024967" lon="8.3685867"><ele>293.0</ele><time>2026-04-25T12:30:18.981Z</time></trkpt><trkpt lat="44.6023117" lon="8.3686783"><ele>293.0</ele><time>2026-04-25T12:30:19.98Z</time></trkpt><trkpt lat="44.602125" lon="8.3688167"><ele>298.5</ele><time>2026-04-25T12:30:20.981Z</time></trkpt><trkpt lat="44.6019367" lon="8.36901"><ele>304.0</ele><time>2026-04-25T12:30:21.98Z</time></trkpt><trkpt lat="44.601745" lon="8.369235"><ele>304.0</ele><time>2026-04-25T12:30:22.98Z</time></trkpt><trkpt lat="44.6015683" lon="8.3694717"><ele>304.0</ele><time>2026-04-25T12:30:23.98Z</time></trkpt><trkpt lat="44.6014067" lon="8.3697083"><ele>303.5</ele><time>2026-04-25T12:30:24.981Z</time></trkpt><trkpt lat="44.6012633" lon="8.3699633"><ele>303.0</ele><time>2026-04-25T12:30:25.98Z</time></trkpt><trkpt lat="44.6011233" lon="8.370235"><ele>302.0</ele><time>2026-04-25T12:30:26.98Z</time></trkpt><trkpt lat="44.60098" lon="8.37049"><ele>301.0</ele><time>2026-04-25T12:30:27.981Z</time></trkpt><trkpt lat="44.6008417" lon="8.370695"><ele>300.0</ele><time>2026-04-25T12:30:28.98Z</time></trkpt><trkpt lat="44.600715" lon="8.3708467"><ele>303.0</ele><time>2026-04-25T12:30:29.981Z</time></trkpt><trkpt lat="44.6006267" lon="8.3709667"><ele>306.0</ele><time>2026-04-25T12:30:30.98Z</time></trkpt><trkpt lat="44.6005933" lon="8.3710867"><ele>309.0</ele><time>2026-04-25T12:30:31.981Z</time></trkpt><trkpt lat="44.6005983" lon="8.3712183"><ele>312.0</ele><time>2026-04-25T12:30:32.98Z</time></trkpt><trkpt lat="44.6006567" lon="8.37133"><ele>315.0</ele><time>2026-04-25T12:30:33.981Z</time></trkpt><trkpt lat="44.60076" lon="8.3714217"><ele>318.6666666666667</ele><time>2026-04-25T12:30:34.98Z</time></trkpt><trkpt lat="44.6008867" lon="8.3714933"><ele>322.33333333333337</ele><time>2026-04-25T12:30:35.98Z</time></trkpt><trkpt lat="44.6010567" lon="8.3715517"><ele>326.0</ele><time>2026-04-25T12:30:36.981Z</time></trkpt><trkpt lat="44.6012867" lon="8.37162"><ele>326.0</ele><time>2026-04-25T12:30:37.98Z</time></trkpt><trkpt lat="44.6015067" lon="8.3717"><ele>326.0</ele><time>2026-04-25T12:30:38.98Z</time></trkpt><trkpt lat="44.6016717" lon="8.3717533"><ele>326.0</ele><time>2026-04-25T12:30:39.98Z</time></trkpt><trkpt lat="44.6017833" lon="8.3718267"><ele>326.0</ele><time>2026-04-25T12:30:40.98Z</time></trkpt><trkpt lat="44.601845" lon="8.3719117"><ele>326.0</ele><time>2026-04-25T12:30:41.981Z</time></trkpt><trkpt lat="44.6018633" lon="8.3720033"><ele>326.0</ele><time>2026-04-25T12:30:42.981Z</time></trkpt><trkpt lat="44.601805" lon="8.3720767"><ele>326.0</ele><time>2026-04-25T12:30:43.981Z</time></trkpt><trkpt lat="44.60173" lon="8.372095"><ele>326.0</ele><time>2026-04-25T12:30:44.981Z</time></trkpt><trkpt lat="44.601635" lon="8.3720333"><ele>326.0</ele><time>2026-04-25T12:30:45.98Z</time></trkpt><trkpt lat="44.601525" lon="8.371945"><ele>326.0</ele><time>2026-04-25T12:30:46.98Z</time></trkpt><trkpt lat="44.6014183" lon="8.371875"><ele>326.0</ele><time>2026-04-25T12:30:47.98Z</time></trkpt><trkpt lat="44.6013067" lon="8.3718567"><ele>326.0</ele><time>2026-04-25T12:30:48.98Z</time></trkpt><trkpt lat="44.6011817" lon="8.3718867"><ele>326.0</ele><time>2026-04-25T12:30:49.98Z</time></trkpt><trkpt lat="44.6010433" lon="8.3719483"><ele>327.0</ele><time>2026-04-25T12:30:50.98Z</time></trkpt><trkpt lat="44.6008883" lon="8.3719767"><ele>328.0</ele><time>2026-04-25T12:30:51.98Z</time></trkpt><trkpt lat="44.60073" lon="8.3719667"><ele>329.0</ele><time>2026-04-25T12:30:52.98Z</time></trkpt><trkpt lat="44.6006117" lon="8.3719883"><ele>330.0</ele><time>2026-04-25T12:30:53.98Z</time></trkpt><trkpt lat="44.6005117" lon="8.372075"><ele>333.3333333333333</ele><time>2026-04-25T12:30:54.981Z</time></trkpt><trkpt lat="44.6004367" lon="8.37222"><ele>336.66666666666663</ele><time>2026-04-25T12:30:55.98Z</time></trkpt><trkpt lat="44.6003833" lon="8.3724233"><ele>340.0</ele><time>2026-04-25T12:30:56.981Z</time></trkpt><trkpt lat="44.6003267" lon="8.3726517"><ele>340.0</ele><time>2026-04-25T12:30:57.98Z</time></trkpt><trkpt lat="44.6002617" lon="8.3729"><ele>340.0</ele><time>2026-04-25T12:30:58.981Z</time></trkpt><trkpt lat="44.6001833" lon="8.3730833"><ele>340.0</ele><time>2026-04-25T12:30:59.98Z</time></trkpt><trkpt lat="44.6000817" lon="8.373185"><ele>343.5</ele><time>2026-04-25T12:31:00.981Z</time></trkpt><trkpt lat="44.59995" lon="8.3732433"><ele>347.0</ele><time>2026-04-25T12:31:01.98Z</time></trkpt><trkpt lat="44.599805" lon="8.373285"><ele>350.5</ele><time>2026-04-25T12:31:02.981Z</time></trkpt><trkpt lat="44.5996817" lon="8.373285"><ele>354.0</ele><time>2026-04-25T12:31:03.98Z</time></trkpt><trkpt lat="44.5995883" lon="8.373255"><ele>354.0</ele><time>2026-04-25T12:31:04.981Z</time></trkpt><trkpt lat="44.5995033" lon="8.3731883"><ele>354.0</ele><time>2026-04-25T12:31:05.981Z</time></trkpt><trkpt lat="44.5994483" lon="8.37302"><ele>354.0</ele><time>2026-04-25T12:31:06.98Z</time></trkpt><trkpt lat="44.5993733" lon="8.3728733"><ele>354.0</ele><time>2026-04-25T12:31:07.98Z</time></trkpt><trkpt lat="44.599285" lon="8.372775"><ele>353.25</ele><time>2026-04-25T12:31:08.98Z</time></trkpt><trkpt lat="44.5991867" lon="8.3727067"><ele>352.5</ele><time>2026-04-25T12:31:09.98Z</time></trkpt><trkpt lat="44.5990533" lon="8.372675"><ele>351.75</ele><time>2026-04-25T12:31:10.981Z</time></trkpt><trkpt lat="44.5988833" lon="8.3726917"><ele>351.0</ele><time>2026-04-25T12:31:11.98Z</time></trkpt><trkpt lat="44.598695" lon="8.3727367"><ele>352.6666666666667</ele><time>2026-04-25T12:31:12.981Z</time></trkpt><trkpt lat="44.59849" lon="8.3728033"><ele>354.33333333333337</ele><time>2026-04-25T12:31:13.981Z</time></trkpt><trkpt lat="44.5982967" lon="8.372895"><ele>356.0</ele><time>2026-04-25T12:31:14.98Z</time></trkpt><trkpt lat="44.5981" lon="8.3729683"><ele>356.0</ele><time>2026-04-25T12:31:15.981Z</time></trkpt><trkpt lat="44.597925" lon="8.373005"><ele>356.0</ele><time>2026-04-25T12:31:16.98Z</time></trkpt><trkpt lat="44.5977733" lon="8.372995"><ele>356.0</ele><time>2026-04-25T12:31:17.98Z</time></trkpt><trkpt lat="44.5976383" lon="8.3729083"><ele>361.33333333333337</ele><time>2026-04-25T12:31:18.981Z</time></trkpt><trkpt lat="44.597525" lon="8.3727783"><ele>366.6666666666667</ele><time>2026-04-25T12:31:19.981Z</time></trkpt><trkpt lat="44.5974183" lon="8.3725933"><ele>372.0</ele><time>2026-04-25T12:31:20.981Z</time></trkpt><trkpt lat="44.5973217" lon="8.372355"><ele>370.0</ele><time>2026-04-25T12:31:21.98Z</time></trkpt><trkpt lat="44.5972183" lon="8.37212"><ele>368.0</ele><time>2026-04-25T12:31:22.981Z</time></trkpt><trkpt lat="44.5971217" lon="8.3719083"><ele>366.0</ele><time>2026-04-25T12:31:23.981Z</time></trkpt><trkpt lat="44.59701" lon="8.37174"><ele>368.25</ele><time>2026-04-25T12:31:24.98Z</time></trkpt><trkpt lat="44.596875" lon="8.3716267"><ele>370.5</ele><time>2026-04-25T12:31:25.98Z</time></trkpt><trkpt lat="44.5967467" lon="8.37155"><ele>372.75</ele><time>2026-04-25T12:31:26.98Z</time></trkpt><trkpt lat="44.5966317" lon="8.371545"><ele>375.0</ele><time>2026-04-25T12:31:27.98Z</time></trkpt><trkpt lat="44.59653" lon="8.3716017"><ele>375.0</ele><time>2026-04-25T12:31:28.98Z</time></trkpt><trkpt lat="44.5964433" lon="8.3717083"><ele>375.0</ele><time>2026-04-25T12:31:29.981Z</time></trkpt><trkpt lat="44.596385" lon="8.3718417"><ele>375.0</ele><time>2026-04-25T12:31:30.98Z</time></trkpt><trkpt lat="44.59631" lon="8.3719783"><ele>375.0</ele><time>2026-04-25T12:31:31.981Z</time></trkpt><trkpt lat="44.5962133" lon="8.3720733"><ele>375.6666666666667</ele><time>2026-04-25T12:31:32.98Z</time></trkpt><trkpt lat="44.5960817" lon="8.37214"><ele>376.33333333333337</ele><time>2026-04-25T12:31:33.98Z</time></trkpt><trkpt lat="44.5959117" lon="8.37216"><ele>377.0</ele><time>2026-04-25T12:31:34.981Z</time></trkpt><trkpt lat="44.5957383" lon="8.372205"><ele>381.0</ele><time>2026-04-25T12:31:35.981Z</time></trkpt><trkpt lat="44.5955767" lon="8.3723067"><ele>385.0</ele><time>2026-04-25T12:31:36.981Z</time></trkpt><trkpt lat="44.59542" lon="8.3724717"><ele>389.0</ele><time>2026-04-25T12:31:37.98Z</time></trkpt><trkpt lat="44.59527" lon="8.3726867"><ele>389.0</ele><time>2026-04-25T12:31:38.981Z</time></trkpt><trkpt lat="44.5951133" lon="8.3728717"><ele>389.0</ele><time>2026-04-25T12:31:39.981Z</time></trkpt><trkpt lat="44.59496" lon="8.3730333"><ele>389.0</ele><time>2026-04-25T12:31:40.981Z</time></trkpt><trkpt lat="44.5948" lon="8.3731467"><ele>390.5</ele><time>2026-04-25T12:31:41.98Z</time></trkpt><trkpt lat="44.5946533" lon="8.37321"><ele>392.0</ele><time>2026-04-25T12:31:42.98Z</time></trkpt><trkpt lat="44.5945117" lon="8.3732033"><ele>393.5</ele><time>2026-04-25T12:31:43.981Z</time></trkpt><trkpt lat="44.5943733" lon="8.3731483"><ele>395.0</ele><time>2026-04-25T12:31:44.979Z</time></trkpt><trkpt lat="44.594225" lon="8.3729917"><ele>395.0</ele><time>2026-04-25T12:31:45.979Z</time></trkpt><trkpt lat="44.59407" lon="8.3727567"><ele>395.0</ele><time>2026-04-25T12:31:46.979Z</time></trkpt><trkpt lat="44.5939117" lon="8.3725883"><ele>395.0</ele><time>2026-04-25T12:31:47.979Z</time></trkpt><trkpt lat="44.593775" lon="8.3724433"><ele>399.0</ele><time>2026-04-25T12:31:48.979Z</time></trkpt><trkpt lat="44.5936483" lon="8.3723683"><ele>403.0</ele><time>2026-04-25T12:31:49.979Z</time></trkpt><trkpt lat="44.5935067" lon="8.37236"><ele>407.0</ele><time>2026-04-25T12:31:50.979Z</time></trkpt><trkpt lat="44.5933317" lon="8.3723933"><ele>407.0</ele><time>2026-04-25T12:31:51.979Z</time></trkpt><trkpt lat="44.5931583" lon="8.3724267"><ele>407.0</ele><time>2026-04-25T12:31:52.979Z</time></trkpt><trkpt lat="44.59299" lon="8.3723917"><ele>407.0</ele><time>2026-04-25T12:31:53.98Z</time></trkpt><trkpt lat="44.59284" lon="8.3722883"><ele>405.3333333333333</ele><time>2026-04-25T12:31:54.979Z</time></trkpt><trkpt lat="44.592705" lon="8.3721883"><ele>403.66666666666663</ele><time>2026-04-25T12:31:55.979Z</time></trkpt><trkpt lat="44.59256" lon="8.372145"><ele>402.0</ele><time>2026-04-25T12:31:56.979Z</time></trkpt><trkpt lat="44.5923883" lon="8.372155"><ele>402.0</ele><time>2026-04-25T12:31:57.979Z</time></trkpt><trkpt lat="44.5921917" lon="8.3721867"><ele>402.0</ele><time>2026-04-25T12:31:58.979Z</time></trkpt><trkpt lat="44.5919983" lon="8.37226"><ele>402.0</ele><time>2026-04-25T12:31:59.979Z</time></trkpt><trkpt lat="44.5918133" lon="8.3723033"><ele>405.66666666666663</ele><time>2026-04-25T12:32:00.98Z</time></trkpt><trkpt lat="44.5916433" lon="8.3723883"><ele>409.3333333333333</ele><time>2026-04-25T12:32:01.98Z</time></trkpt><trkpt lat="44.5914983" lon="8.3724817"><ele>413.0</ele><time>2026-04-25T12:32:02.979Z</time></trkpt><trkpt lat="44.5914117" lon="8.3726"><ele>413.0</ele><time>2026-04-25T12:32:03.979Z</time></trkpt><trkpt lat="44.5913567" lon="8.3727283"><ele>413.0</ele><time>2026-04-25T12:32:04.979Z</time></trkpt><trkpt lat="44.5913333" lon="8.3729267"><ele>413.0</ele><time>2026-04-25T12:32:05.979Z</time></trkpt><trkpt lat="44.5913483" lon="8.373175"><ele>413.0</ele><time>2026-04-25T12:32:06.98Z</time></trkpt><trkpt lat="44.59136" lon="8.37345"><ele>418.0</ele><time>2026-04-25T12:32:07.98Z</time></trkpt><trkpt lat="44.591365" lon="8.373765"><ele>423.0</ele><time>2026-04-25T12:32:08.979Z</time></trkpt><trkpt lat="44.5913667" lon="8.3741083"><ele>428.0</ele><time>2026-04-25T12:32:09.98Z</time></trkpt><trkpt lat="44.5913533" lon="8.3744433"><ele>433.0</ele><time>2026-04-25T12:32:10.979Z</time></trkpt><trkpt lat="44.5912983" lon="8.37478"><ele>437.0</ele><time>2026-04-25T12:32:11.979Z</time></trkpt><trkpt lat="44.591235" lon="8.3751233"><ele>441.0</ele><time>2026-04-25T12:32:12.98Z</time></trkpt><trkpt lat="44.5911567" lon="8.3754333"><ele>434.66666666666663</ele><time>2026-04-25T12:32:13.98Z</time></trkpt><trkpt lat="44.5910917" lon="8.3757167"><ele>428.3333333333333</ele><time>2026-04-25T12:32:14.979Z</time></trkpt><trkpt lat="44.591045" lon="8.37599"><ele>422.0</ele><time>2026-04-25T12:32:15.979Z</time></trkpt><trkpt lat="44.5910483" lon="8.3762667"><ele>422.66666666666663</ele><time>2026-04-25T12:32:16.979Z</time></trkpt><trkpt lat="44.59105" lon="8.3765383"><ele>423.33333333333337</ele><time>2026-04-25T12:32:17.979Z</time></trkpt><trkpt lat="44.5910233" lon="8.3767733"><ele>424.0</ele><time>2026-04-25T12:32:18.979Z</time></trkpt><trkpt lat="44.590965" lon="8.37697"><ele>424.0</ele><time>2026-04-25T12:32:19.979Z</time></trkpt><trkpt lat="44.5909083" lon="8.3771583"><ele>424.0</ele><time>2026-04-25T12:32:20.98Z</time></trkpt><trkpt lat="44.5908783" lon="8.3773183"><ele>424.0</ele><time>2026-04-25T12:32:21.98Z</time></trkpt><trkpt lat="44.5908967" lon="8.3774833"><ele>424.0</ele><time>2026-04-25T12:32:22.979Z</time></trkpt><trkpt lat="44.590955" lon="8.3776433"><ele>425.0</ele><time>2026-04-25T12:32:23.98Z</time></trkpt><trkpt lat="44.5910417" lon="8.3778"><ele>426.0</ele><time>2026-04-25T12:32:24.98Z</time></trkpt><trkpt lat="44.5910967" lon="8.3779433"><ele>427.0</ele><time>2026-04-25T12:32:25.979Z</time></trkpt><trkpt lat="44.5910983" lon="8.37811"><ele>428.0</ele><time>2026-04-25T12:32:26.98Z</time></trkpt><trkpt lat="44.59103" lon="8.3782767"><ele>430.0</ele><time>2026-04-25T12:32:27.98Z</time></trkpt><trkpt lat="44.5909367" lon="8.3784433"><ele>432.0</ele><time>2026-04-25T12:32:28.979Z</time></trkpt><trkpt lat="44.5908517" lon="8.3786067"><ele>434.0</ele><time>2026-04-25T12:32:29.979Z</time></trkpt><trkpt lat="44.5907967" lon="8.3787517"><ele>436.0</ele><time>2026-04-25T12:32:30.979Z</time></trkpt><trkpt lat="44.5907833" lon="8.3788733"><ele>436.0</ele><time>2026-04-25T12:32:31.98Z</time></trkpt><trkpt lat="44.5908183" lon="8.378965"><ele>436.0</ele><time>2026-04-25T12:32:32.979Z</time></trkpt><trkpt lat="44.5908883" lon="8.3790283"><ele>436.0</ele><time>2026-04-25T12:32:33.979Z</time></trkpt><trkpt lat="44.5909817" lon="8.3790367"><ele>436.0</ele><time>2026-04-25T12:32:34.979Z</time></trkpt><trkpt lat="44.591075" lon="8.3789667"><ele>436.0</ele><time>2026-04-25T12:32:35.979Z</time></trkpt><trkpt lat="44.59117" lon="8.3788317"><ele>449.0</ele><time>2026-04-25T12:32:36.979Z</time></trkpt><trkpt lat="44.5912717" lon="8.378645"><ele>462.0</ele><time>2026-04-25T12:32:37.979Z</time></trkpt><trkpt lat="44.5913883" lon="8.37843"><ele>475.0</ele><time>2026-04-25T12:32:38.979Z</time></trkpt><trkpt lat="44.5915367" lon="8.3781867"><ele>468.0</ele><time>2026-04-25T12:32:39.98Z</time></trkpt><trkpt lat="44.5916867" lon="8.3779167"><ele>461.0</ele><time>2026-04-25T12:32:40.98Z</time></trkpt><trkpt lat="44.591835" lon="8.3776317"><ele>461.0</ele><time>2026-04-25T12:32:41.98Z</time></trkpt><trkpt lat="44.591965" lon="8.3773367"><ele>461.0</ele><time>2026-04-25T12:32:42.979Z</time></trkpt><trkpt lat="44.59207" lon="8.3770633"><ele>468.3333333333333</ele><time>2026-04-25T12:32:43.98Z</time></trkpt><trkpt lat="44.5921483" lon="8.3768033"><ele>475.66666666666663</ele><time>2026-04-25T12:32:44.98Z</time></trkpt><trkpt lat="44.592195" lon="8.37656"><ele>483.0</ele><time>2026-04-25T12:32:45.979Z</time></trkpt><trkpt lat="44.5922467" lon="8.376365"><ele>478.5</ele><time>2026-04-25T12:32:46.979Z</time></trkpt><trkpt lat="44.59233" lon="8.3762217"><ele>474.0</ele><time>2026-04-25T12:32:47.979Z</time></trkpt><trkpt lat="44.5924367" lon="8.3761333"><ele>469.5</ele><time>2026-04-25T12:32:48.979Z</time></trkpt><trkpt lat="44.5925683" lon="8.376095"><ele>465.0</ele><time>2026-04-25T12:32:49.979Z</time></trkpt><trkpt lat="44.59272" lon="8.3761133"><ele>469.33333333333337</ele><time>2026-04-25T12:32:50.979Z</time></trkpt><trkpt lat="44.5928783" lon="8.3761183"><ele>473.6666666666667</ele><time>2026-04-25T12:32:51.979Z</time></trkpt><trkpt lat="44.59308" lon="8.3761133"><ele>478.0</ele><time>2026-04-25T12:32:52.979Z</time></trkpt><trkpt lat="44.5932983" lon="8.37605"><ele>478.0</ele><time>2026-04-25T12:32:53.979Z</time></trkpt><trkpt lat="44.5935233" lon="8.3759317"><ele>478.0</ele><time>2026-04-25T12:32:54.979Z</time></trkpt><trkpt lat="44.5937283" lon="8.3757967"><ele>475.33333333333337</ele><time>2026-04-25T12:32:55.979Z</time></trkpt><trkpt lat="44.5939133" lon="8.3756533"><ele>472.66666666666663</ele><time>2026-04-25T12:32:56.979Z</time></trkpt><trkpt lat="44.594075" lon="8.3755"><ele>470.0</ele><time>2026-04-25T12:32:57.979Z</time></trkpt><trkpt lat="44.594205" lon="8.37536"><ele>470.0</ele><time>2026-04-25T12:32:58.979Z</time></trkpt><trkpt lat="44.5943133" lon="8.375225"><ele>470.0</ele><time>2026-04-25T12:32:59.979Z</time></trkpt><trkpt lat="44.594405" lon="8.3751383"><ele>470.0</ele><time>2026-04-25T12:33:00.98Z</time></trkpt><trkpt lat="44.5944717" lon="8.3751233"><ele>470.0</ele><time>2026-04-25T12:33:01.979Z</time></trkpt><trkpt lat="44.5945317" lon="8.37527"><ele>470.0</ele><time>2026-04-25T12:33:03.979Z</time></trkpt><trkpt lat="44.594495" lon="8.3753817"><ele>470.0</ele><time>2026-04-25T12:33:04.979Z</time></trkpt><trkpt lat="44.59444" lon="8.3755033"><ele>470.0</ele><time>2026-04-25T12:33:05.979Z</time></trkpt><trkpt lat="44.5943667" lon="8.37564"><ele>470.0</ele><time>2026-04-25T12:33:06.979Z</time></trkpt><trkpt lat="44.594295" lon="8.3758067"><ele>470.0</ele><time>2026-04-25T12:33:07.979Z</time></trkpt><trkpt lat="44.5942467" lon="8.3760183"><ele>477.0</ele><time>2026-04-25T12:33:08.98Z</time></trkpt><trkpt lat="44.59423" lon="8.3762783"><ele>484.0</ele><time>2026-04-25T12:33:09.979Z</time></trkpt><trkpt lat="44.5942217" lon="8.376565"><ele>491.0</ele><time>2026-04-25T12:33:10.979Z</time></trkpt><trkpt lat="44.5942167" lon="8.37686"><ele>494.66666666666663</ele><time>2026-04-25T12:33:11.979Z</time></trkpt><trkpt lat="44.594205" lon="8.3771083"><ele>498.33333333333337</ele><time>2026-04-25T12:33:12.979Z</time></trkpt><trkpt lat="44.594205" lon="8.3773533"><ele>502.0</ele><time>2026-04-25T12:33:13.979Z</time></trkpt><trkpt lat="44.59424" lon="8.3775783"><ele>505.25</ele><time>2026-04-25T12:33:14.979Z</time></trkpt><trkpt lat="44.5942883" lon="8.3777917"><ele>508.5</ele><time>2026-04-25T12:33:15.979Z</time></trkpt><trkpt lat="44.5943417" lon="8.377995"><ele>511.75</ele><time>2026-04-25T12:33:16.979Z</time></trkpt><trkpt lat="44.5943867" lon="8.3781567"><ele>515.0</ele><time>2026-04-25T12:33:17.98Z</time></trkpt><trkpt lat="44.594425" lon="8.3782717"><ele>517.8</ele><time>2026-04-25T12:33:18.979Z</time></trkpt><trkpt lat="44.5944867" lon="8.3783117"><ele>520.6</ele><time>2026-04-25T12:33:20.979Z</time></trkpt><trkpt lat="44.5945767" lon="8.37828"><ele>523.4</ele><time>2026-04-25T12:33:23.98Z</time></trkpt><trkpt lat="44.5946733" lon="8.378385"><ele>526.2</ele><time>2026-04-25T12:33:25.98Z</time></trkpt><trkpt lat="44.5947617" lon="8.37851"><ele>529.0</ele><time>2026-04-25T12:33:26.979Z</time></trkpt><trkpt lat="44.59486" lon="8.378655"><ele>523.0</ele><time>2026-04-25T12:33:27.979Z</time></trkpt><trkpt lat="44.5949683" lon="8.3788133"><ele>517.0</ele><time>2026-04-25T12:33:28.979Z</time></trkpt><trkpt lat="44.5950833" lon="8.3789717"><ele>511.0</ele><time>2026-04-25T12:33:29.98Z</time></trkpt><trkpt lat="44.5951867" lon="8.3791317"><ele>511.0</ele><time>2026-04-25T12:33:30.979Z</time></trkpt><trkpt lat="44.5952767" lon="8.3792717"><ele>511.0</ele><time>2026-04-25T12:33:31.979Z</time></trkpt><trkpt lat="44.5953617" lon="8.3794117"><ele>511.0</ele><time>2026-04-25T12:33:32.979Z</time></trkpt><trkpt lat="44.5954383" lon="8.3795517"><ele>511.0</ele><time>2026-04-25T12:33:33.98Z</time></trkpt><trkpt lat="44.5955067" lon="8.379695"><ele>508.5</ele><time>2026-04-25T12:33:34.979Z</time></trkpt><trkpt lat="44.5955967" lon="8.3798167"><ele>506.0</ele><time>2026-04-25T12:33:35.979Z</time></trkpt><trkpt lat="44.5957133" lon="8.3799133"><ele>503.5</ele><time>2026-04-25T12:33:36.98Z</time></trkpt><trkpt lat="44.5958467" lon="8.38002"><ele>501.0</ele><time>2026-04-25T12:33:37.979Z</time></trkpt><trkpt lat="44.5960117" lon="8.380115"><ele>501.0</ele><time>2026-04-25T12:33:38.979Z</time></trkpt><trkpt lat="44.5961633" lon="8.3802317"><ele>501.0</ele><time>2026-04-25T12:33:39.98Z</time></trkpt><trkpt lat="44.5963367" lon="8.3803433"><ele>501.0</ele><time>2026-04-25T12:33:40.979Z</time></trkpt><trkpt lat="44.5965317" lon="8.3804667"><ele>493.66666666666663</ele><time>2026-04-25T12:33:41.98Z</time></trkpt><trkpt lat="44.5967117" lon="8.380595"><ele>486.3333333333333</ele><time>2026-04-25T12:33:42.979Z</time></trkpt><trkpt lat="44.5968833" lon="8.3807333"><ele>479.0</ele><time>2026-04-25T12:33:43.979Z</time></trkpt><trkpt lat="44.5970517" lon="8.38088"><ele>477.3333333333333</ele><time>2026-04-25T12:33:44.98Z</time></trkpt><trkpt lat="44.5972267" lon="8.3810417"><ele>475.66666666666663</ele><time>2026-04-25T12:33:45.98Z</time></trkpt><trkpt lat="44.5974133" lon="8.3811817"><ele>474.0</ele><time>2026-04-25T12:33:46.979Z</time></trkpt><trkpt lat="44.5975933" lon="8.3813183"><ele>474.33333333333337</ele><time>2026-04-25T12:33:47.979Z</time></trkpt><trkpt lat="44.5977767" lon="8.38145"><ele>474.6666666666667</ele><time>2026-04-25T12:33:48.98Z</time></trkpt><trkpt lat="44.5979733" lon="8.3815617"><ele>475.0</ele><time>2026-04-25T12:33:49.979Z</time></trkpt><trkpt lat="44.5981683" lon="8.3816583"><ele>480.0</ele><time>2026-04-25T12:33:50.979Z</time></trkpt><trkpt lat="44.5983517" lon="8.3817267"><ele>485.0</ele><time>2026-04-25T12:33:51.979Z</time></trkpt><trkpt lat="44.5985217" lon="8.3817767"><ele>490.0</ele><time>2026-04-25T12:33:52.98Z</time></trkpt><trkpt lat="44.5986733" lon="8.3817783"><ele>492.33333333333337</ele><time>2026-04-25T12:33:53.98Z</time></trkpt><trkpt lat="44.5988317" lon="8.3817383"><ele>494.66666666666663</ele><time>2026-04-25T12:33:54.979Z</time></trkpt><trkpt lat="44.5990083" lon="8.3816917"><ele>497.0</ele><time>2026-04-25T12:33:55.98Z</time></trkpt><trkpt lat="44.59919" lon="8.38165"><ele>497.0</ele><time>2026-04-25T12:33:56.979Z</time></trkpt><trkpt lat="44.59938" lon="8.3816617"><ele>497.0</ele><time>2026-04-25T12:33:57.98Z</time></trkpt><trkpt lat="44.5995583" lon="8.3816767"><ele>497.0</ele><time>2026-04-25T12:33:58.979Z</time></trkpt><trkpt lat="44.5997267" lon="8.3816517"><ele>499.3333333333333</ele><time>2026-04-25T12:33:59.979Z</time></trkpt><trkpt lat="44.5999067" lon="8.3816067"><ele>501.66666666666663</ele><time>2026-04-25T12:34:00.98Z</time></trkpt><trkpt lat="44.6000717" lon="8.3816017"><ele>504.0</ele><time>2026-04-25T12:34:01.98Z</time></trkpt><trkpt lat="44.6002233" lon="8.38157"><ele>503.0</ele><time>2026-04-25T12:34:02.979Z</time></trkpt><trkpt lat="44.60035" lon="8.3815383"><ele>502.0</ele><time>2026-04-25T12:34:03.979Z</time></trkpt><trkpt lat="44.600485" lon="8.3816067"><ele>501.0</ele><time>2026-04-25T12:34:04.979Z</time></trkpt><trkpt lat="44.6005617" lon="8.381665"><ele>500.0</ele><time>2026-04-25T12:34:05.979Z</time></trkpt><trkpt lat="44.6006133" lon="8.3817817"><ele>500.0</ele><time>2026-04-25T12:34:06.979Z</time></trkpt><trkpt lat="44.6006433" lon="8.38198"><ele>500.0</ele><time>2026-04-25T12:34:07.98Z</time></trkpt><trkpt lat="44.6006717" lon="8.3822117"><ele>500.0</ele><time>2026-04-25T12:34:08.979Z</time></trkpt><trkpt lat="44.60071" lon="8.3824683"><ele>504.0</ele><time>2026-04-25T12:34:09.979Z</time></trkpt><trkpt lat="44.6007583" lon="8.3827383"><ele>508.0</ele><time>2026-04-25T12:34:10.979Z</time></trkpt><trkpt lat="44.6007983" lon="8.3829883"><ele>512.0</ele><time>2026-04-25T12:34:11.98Z</time></trkpt><trkpt lat="44.600845" lon="8.3831983"><ele>514.5</ele><time>2026-04-25T12:34:12.98Z</time></trkpt><trkpt lat="44.600915" lon="8.3833583"><ele>517.0</ele><time>2026-04-25T12:34:13.979Z</time></trkpt><trkpt lat="44.6010067" lon="8.3835117"><ele>519.5</ele><time>2026-04-25T12:34:14.979Z</time></trkpt><trkpt lat="44.60111" lon="8.3836533"><ele>522.0</ele><time>2026-04-25T12:34:15.98Z</time></trkpt><trkpt lat="44.6011833" lon="8.3837917"><ele>520.6</ele><time>2026-04-25T12:34:16.979Z</time></trkpt><trkpt lat="44.6012467" lon="8.3839067"><ele>519.2</ele><time>2026-04-25T12:34:17.979Z</time></trkpt><trkpt lat="44.601315" lon="8.3839917"><ele>517.8</ele><time>2026-04-25T12:34:18.979Z</time></trkpt><trkpt lat="44.6014" lon="8.384025"><ele>516.4</ele><time>2026-04-25T12:34:19.98Z</time></trkpt><trkpt lat="44.6014967" lon="8.3839833"><ele>515.0</ele><time>2026-04-25T12:34:20.98Z</time></trkpt><trkpt lat="44.6015983" lon="8.3838817"><ele>515.0</ele><time>2026-04-25T12:34:21.98Z</time></trkpt><trkpt lat="44.60169" lon="8.3837783"><ele>515.0</ele><time>2026-04-25T12:34:22.98Z</time></trkpt><trkpt lat="44.6017783" lon="8.3837433"><ele>515.0</ele><time>2026-04-25T12:34:23.979Z</time></trkpt><trkpt lat="44.6018583" lon="8.3837517"><ele>515.0</ele><time>2026-04-25T12:34:24.98Z</time></trkpt><trkpt lat="44.601935" lon="8.383805"><ele>515.0</ele><time>2026-04-25T12:34:25.98Z</time></trkpt><trkpt lat="44.6019967" lon="8.3839083"><ele>517.8333333333333</ele><time>2026-04-25T12:34:26.979Z</time></trkpt><trkpt lat="44.602065" lon="8.38397"><ele>520.6666666666666</ele><time>2026-04-25T12:34:27.98Z</time></trkpt><trkpt lat="44.6021333" lon="8.3840117"><ele>523.5</ele><time>2026-04-25T12:34:28.98Z</time></trkpt><trkpt lat="44.6022083" lon="8.3840267"><ele>526.3333333333334</ele><time>2026-04-25T12:34:29.979Z</time></trkpt><trkpt lat="44.6022883" lon="8.38402"><ele>529.1666666666667</ele><time>2026-04-25T12:34:30.979Z</time></trkpt><trkpt lat="44.60237" lon="8.38402"><ele>532.0</ele><time>2026-04-25T12:34:31.98Z</time></trkpt><trkpt lat="44.6024533" lon="8.3840233"><ele>532.0</ele><time>2026-04-25T12:34:32.98Z</time></trkpt><trkpt lat="44.602525" lon="8.3840317"><ele>532.0</ele><time>2026-04-25T12:34:33.98Z</time></trkpt><trkpt lat="44.602635" lon="8.3840683"><ele>532.0</ele><time>2026-04-25T12:34:35.979Z</time></trkpt><trkpt lat="44.602695" lon="8.3842083"><ele>532.0</ele><time>2026-04-25T12:34:37.979Z</time></trkpt><trkpt lat="44.6026917" lon="8.3843183"><ele>532.0</ele><time>2026-04-25T12:34:38.98Z</time></trkpt><trkpt lat="44.6026983" lon="8.3844317"><ele>532.0</ele><time>2026-04-25T12:34:39.98Z</time></trkpt><trkpt lat="44.6027083" lon="8.3845367"><ele>532.0</ele><time>2026-04-25T12:34:40.979Z</time></trkpt><trkpt lat="44.6027217" lon="8.3846617"><ele>532.0</ele><time>2026-04-25T12:34:41.979Z</time></trkpt><trkpt lat="44.602745" lon="8.38478"><ele>532.0</ele><time>2026-04-25T12:34:42.979Z</time></trkpt><trkpt lat="44.6027667" lon="8.3848733"><ele>532.0</ele><time>2026-04-25T12:34:43.979Z</time></trkpt><trkpt lat="44.6028233" lon="8.3850083"><ele>532.0</ele><time>2026-04-25T12:34:45.979Z</time></trkpt><trkpt lat="44.6029" lon="8.38506"><ele>532.8000000000001</ele><time>2026-04-25T12:34:47.98Z</time></trkpt><trkpt lat="44.603015" lon="8.3850383"><ele>533.6</ele><time>2026-04-25T12:34:49.98Z</time></trkpt><trkpt lat="44.6030983" lon="8.3849833"><ele>534.4000000000001</ele><time>2026-04-25T12:34:50.979Z</time></trkpt><trkpt lat="44.60319" lon="8.384935"><ele>535.2</ele><time>2026-04-25T12:34:51.98Z</time></trkpt><trkpt lat="44.6033133" lon="8.3849017"><ele>536.0</ele><time>2026-04-25T12:34:52.979Z</time></trkpt><trkpt lat="44.6034583" lon="8.384885"><ele>536.0</ele><time>2026-04-25T12:34:53.979Z</time></trkpt><trkpt lat="44.603615" lon="8.3848967"><ele>536.0</ele><time>2026-04-25T12:34:54.98Z</time></trkpt><trkpt lat="44.6037717" lon="8.3849067"><ele>536.0</ele><time>2026-04-25T12:34:55.979Z</time></trkpt><trkpt lat="44.6039183" lon="8.3849267"><ele>538.25</ele><time>2026-04-25T12:34:56.979Z</time></trkpt><trkpt lat="44.604055" lon="8.3849633"><ele>540.5</ele><time>2026-04-25T12:34:57.979Z</time></trkpt><trkpt lat="44.6041783" lon="8.3850467"><ele>542.75</ele><time>2026-04-25T12:34:58.979Z</time></trkpt><trkpt lat="44.6042933" lon="8.3851917"><ele>545.0</ele><time>2026-04-25T12:34:59.98Z</time></trkpt><trkpt lat="44.6043933" lon="8.3853733"><ele>544.6666666666666</ele><time>2026-04-25T12:35:00.979Z</time></trkpt><trkpt lat="44.6044817" lon="8.38558"><ele>544.3333333333334</ele><time>2026-04-25T12:35:01.979Z</time></trkpt><trkpt lat="44.6045583" lon="8.38577"><ele>544.0</ele><time>2026-04-25T12:35:02.98Z</time></trkpt><trkpt lat="44.6046317" lon="8.3859567"><ele>544.0</ele><time>2026-04-25T12:35:03.979Z</time></trkpt><trkpt lat="44.60471" lon="8.3861"><ele>544.0</ele><time>2026-04-25T12:35:04.979Z</time></trkpt><trkpt lat="44.6047983" lon="8.386185"><ele>544.0</ele><time>2026-04-25T12:35:05.979Z</time></trkpt><trkpt lat="44.6049167" lon="8.38623"><ele>544.0</ele><time>2026-04-25T12:35:06.979Z</time></trkpt><trkpt lat="44.6050567" lon="8.386255"><ele>544.0</ele><time>2026-04-25T12:35:07.979Z</time></trkpt><trkpt lat="44.60522" lon="8.38629"><ele>544.0</ele><time>2026-04-25T12:35:08.98Z</time></trkpt><trkpt lat="44.605375" lon="8.3863767"><ele>544.0</ele><time>2026-04-25T12:35:09.979Z</time></trkpt><trkpt lat="44.60552" lon="8.3865217"><ele>541.3333333333334</ele><time>2026-04-25T12:35:10.979Z</time></trkpt><trkpt lat="44.6056667" lon="8.386675"><ele>538.6666666666666</ele><time>2026-04-25T12:35:11.979Z</time></trkpt><trkpt lat="44.6057933" lon="8.3868217"><ele>536.0</ele><time>2026-04-25T12:35:12.979Z</time></trkpt><trkpt lat="44.6059117" lon="8.3869467"><ele>536.0</ele><time>2026-04-25T12:35:13.979Z</time></trkpt><trkpt lat="44.6060183" lon="8.38703"><ele>536.0</ele><time>2026-04-25T12:35:14.98Z</time></trkpt><trkpt lat="44.606115" lon="8.387125"><ele>536.0</ele><time>2026-04-25T12:35:15.979Z</time></trkpt><trkpt lat="44.606175" lon="8.387235"><ele>536.0</ele><time>2026-04-25T12:35:16.98Z</time></trkpt><trkpt lat="44.6062033" lon="8.3873633"><ele>536.0</ele><time>2026-04-25T12:35:17.98Z</time></trkpt><trkpt lat="44.606205" lon="8.3875067"><ele>535.8</ele><time>2026-04-25T12:35:18.979Z</time></trkpt><trkpt lat="44.606195" lon="8.387675"><ele>535.6</ele><time>2026-04-25T12:35:19.98Z</time></trkpt><trkpt lat="44.6061667" lon="8.387845"><ele>535.4</ele><time>2026-04-25T12:35:20.979Z</time></trkpt><trkpt lat="44.6061483" lon="8.3879817"><ele>535.2</ele><time>2026-04-25T12:35:21.979Z</time></trkpt><trkpt lat="44.60614" lon="8.3880933"><ele>535.0</ele><time>2026-04-25T12:35:22.98Z</time></trkpt><trkpt lat="44.6061567" lon="8.3881883"><ele>535.2</ele><time>2026-04-25T12:35:23.979Z</time></trkpt><trkpt lat="44.6062033" lon="8.38826"><ele>535.4</ele><time>2026-04-25T12:35:24.979Z</time></trkpt><trkpt lat="44.6062633" lon="8.3883283"><ele>535.6</ele><time>2026-04-25T12:35:25.979Z</time></trkpt><trkpt lat="44.6063533" lon="8.388395"><ele>535.8</ele><time>2026-04-25T12:35:26.979Z</time></trkpt><trkpt lat="44.6064517" lon="8.3884717"><ele>536.0</ele><time>2026-04-25T12:35:27.98Z</time></trkpt><trkpt lat="44.60655" lon="8.3885433"><ele>536.0</ele><time>2026-04-25T12:35:28.98Z</time></trkpt><trkpt lat="44.6066333" lon="8.3886167"><ele>536.0</ele><time>2026-04-25T12:35:29.979Z</time></trkpt><trkpt lat="44.6067117" lon="8.3886917"><ele>536.0</ele><time>2026-04-25T12:35:30.979Z</time></trkpt><trkpt lat="44.60679" lon="8.38876"><ele>536.0</ele><time>2026-04-25T12:35:31.979Z</time></trkpt><trkpt lat="44.60687" lon="8.3888267"><ele>536.0</ele><time>2026-04-25T12:35:32.98Z</time></trkpt><trkpt lat="44.6069433" lon="8.388885"><ele>536.0</ele><time>2026-04-25T12:35:33.98Z</time></trkpt><trkpt lat="44.6070067" lon="8.3889317"><ele>536.0</ele><time>2026-04-25T12:35:34.98Z</time></trkpt><trkpt lat="44.6070783" lon="8.388975"><ele>536.0</ele><time>2026-04-25T12:35:36.979Z</time></trkpt><trkpt lat="44.60714" lon="8.3889267"><ele>536.0</ele><time>2026-04-25T12:35:40.979Z</time></trkpt><trkpt lat="44.60705" lon="8.38887"><ele>536.0</ele><time>2026-04-25T12:35:44.979Z</time></trkpt><trkpt lat="44.6069267" lon="8.3888033"><ele>536.0</ele><time>2026-04-25T12:35:46.979Z</time></trkpt><trkpt lat="44.6068383" lon="8.3887367"><ele>536.0</ele><time>2026-04-25T12:35:47.979Z</time></trkpt><trkpt lat="44.6067417" lon="8.3886517"><ele>536.0</ele><time>2026-04-25T12:35:48.979Z</time></trkpt><trkpt lat="44.6066417" lon="8.3885783"><ele>536.0</ele><time>2026-04-25T12:35:49.979Z</time></trkpt><trkpt lat="44.6065467" lon="8.3885083"><ele>536.0</ele><time>2026-04-25T12:35:50.979Z</time></trkpt><trkpt lat="44.60647" lon="8.3884533"><ele>536.0</ele><time>2026-04-25T12:35:51.979Z</time></trkpt><trkpt lat="44.60641" lon="8.3884033"><ele>536.0</ele><time>2026-04-25T12:35:52.98Z</time></trkpt><trkpt lat="44.6063017" lon="8.388315"><ele>536.0</ele><time>2026-04-25T12:35:54.979Z</time></trkpt><trkpt lat="44.6062417" lon="8.3882667"><ele>536.0</ele><time>2026-04-25T12:35:55.979Z</time></trkpt><trkpt lat="44.6061817" lon="8.38819"><ele>536.0</ele><time>2026-04-25T12:35:56.979Z</time></trkpt><trkpt lat="44.6061367" lon="8.3880917"><ele>536.0</ele><time>2026-04-25T12:35:57.979Z</time></trkpt><trkpt lat="44.6061067" lon="8.3879783"><ele>535.75</ele><time>2026-04-25T12:35:58.979Z</time></trkpt><trkpt lat="44.60613" lon="8.3878033"><ele>535.5</ele><time>2026-04-25T12:35:59.979Z</time></trkpt><trkpt lat="44.6061667" lon="8.3876117"><ele>535.25</ele><time>2026-04-25T12:36:00.979Z</time></trkpt><trkpt lat="44.606195" lon="8.3874217"><ele>535.0</ele><time>2026-04-25T12:36:01.98Z</time></trkpt><trkpt lat="44.6061917" lon="8.3872567"><ele>535.25</ele><time>2026-04-25T12:36:02.979Z</time></trkpt><trkpt lat="44.606155" lon="8.3871017"><ele>535.5</ele><time>2026-04-25T12:36:03.979Z</time></trkpt><trkpt lat="44.6060817" lon="8.3869633"><ele>535.75</ele><time>2026-04-25T12:36:04.979Z</time></trkpt><trkpt lat="44.60598" lon="8.38685"><ele>536.0</ele><time>2026-04-25T12:36:05.979Z</time></trkpt><trkpt lat="44.605855" lon="8.3867367"><ele>536.0</ele><time>2026-04-25T12:36:06.979Z</time></trkpt><trkpt lat="44.60573" lon="8.3866167"><ele>536.0</ele><time>2026-04-25T12:36:07.98Z</time></trkpt><trkpt lat="44.6056067" lon="8.3864933"><ele>536.0</ele><time>2026-04-25T12:36:08.98Z</time></trkpt><trkpt lat="44.6054967" lon="8.3863717"><ele>536.0</ele><time>2026-04-25T12:36:09.98Z</time></trkpt><trkpt lat="44.6053783" lon="8.3862567"><ele>538.0</ele><time>2026-04-25T12:36:10.978Z</time></trkpt><trkpt lat="44.6052483" lon="8.3861883"><ele>540.0</ele><time>2026-04-25T12:36:11.978Z</time></trkpt><trkpt lat="44.6051233" lon="8.3861417"><ele>542.0</ele><time>2026-04-25T12:36:12.978Z</time></trkpt><trkpt lat="44.6049983" lon="8.3861233"><ele>544.0</ele><time>2026-04-25T12:36:13.979Z</time></trkpt><trkpt lat="44.6048783" lon="8.38611"><ele>544.0</ele><time>2026-04-25T12:36:14.978Z</time></trkpt><trkpt lat="44.6047667" lon="8.386075"><ele>544.0</ele><time>2026-04-25T12:36:15.978Z</time></trkpt><trkpt lat="44.6046717" lon="8.3860083"><ele>544.0</ele><time>2026-04-25T12:36:16.978Z</time></trkpt><trkpt lat="44.6045983" lon="8.38591"><ele>544.0</ele><time>2026-04-25T12:36:17.978Z</time></trkpt><trkpt lat="44.6045367" lon="8.38576"><ele>544.0</ele><time>2026-04-25T12:36:18.978Z</time></trkpt><trkpt lat="44.6044733" lon="8.3855867"><ele>544.25</ele><time>2026-04-25T12:36:19.978Z</time></trkpt><trkpt lat="44.604395" lon="8.3854067"><ele>544.5</ele><time>2026-04-25T12:36:20.979Z</time></trkpt><trkpt lat="44.60431" lon="8.385235"><ele>544.75</ele><time>2026-04-25T12:36:21.979Z</time></trkpt><trkpt lat="44.6042117" lon="8.38509"><ele>545.0</ele><time>2026-04-25T12:36:22.978Z</time></trkpt><trkpt lat="44.6041133" lon="8.38497"><ele>545.0</ele><time>2026-04-25T12:36:23.979Z</time></trkpt><trkpt lat="44.604015" lon="8.3849017"><ele>545.0</ele><time>2026-04-25T12:36:24.979Z</time></trkpt><trkpt lat="44.60389" lon="8.3848717"><ele>545.0</ele><time>2026-04-25T12:36:25.978Z</time></trkpt><trkpt lat="44.603755" lon="8.3848667"><ele>545.0</ele><time>2026-04-25T12:36:26.978Z</time></trkpt><trkpt lat="44.6036283" lon="8.3848433"><ele>542.75</ele><time>2026-04-25T12:36:27.979Z</time></trkpt><trkpt lat="44.603485" lon="8.3848267"><ele>540.5</ele><time>2026-04-25T12:36:28.979Z</time></trkpt><trkpt lat="44.6033383" lon="8.3848317"><ele>538.25</ele><time>2026-04-25T12:36:29.978Z</time></trkpt><trkpt lat="44.6032017" lon="8.3848583"><ele>536.0</ele><time>2026-04-25T12:36:30.978Z</time></trkpt><trkpt lat="44.6030817" lon="8.3849167"><ele>536.0</ele><time>2026-04-25T12:36:31.978Z</time></trkpt><trkpt lat="44.602985" lon="8.384985"><ele>536.0</ele><time>2026-04-25T12:36:32.978Z</time></trkpt><trkpt lat="44.6028967" lon="8.385015"><ele>536.0</ele><time>2026-04-25T12:36:33.978Z</time></trkpt><trkpt lat="44.6028317" lon="8.384965"><ele>536.0</ele><time>2026-04-25T12:36:34.979Z</time></trkpt><trkpt lat="44.6027933" lon="8.384885"><ele>536.0</ele><time>2026-04-25T12:36:35.978Z</time></trkpt><trkpt lat="44.6027533" lon="8.38476"><ele>536.0</ele><time>2026-04-25T12:36:36.979Z</time></trkpt><trkpt lat="44.602725" lon="8.384575"><ele>535.2</ele><time>2026-04-25T12:36:37.979Z</time></trkpt><trkpt lat="44.6026933" lon="8.384405"><ele>534.4000000000001</ele><time>2026-04-25T12:36:38.979Z</time></trkpt><trkpt lat="44.60268" lon="8.384235"><ele>533.6</ele><time>2026-04-25T12:36:39.978Z</time></trkpt><trkpt lat="44.60266" lon="8.384115"><ele>532.8000000000001</ele><time>2026-04-25T12:36:40.978Z</time></trkpt><trkpt lat="44.60262" lon="8.3840167"><ele>532.0</ele><time>2026-04-25T12:36:41.978Z</time></trkpt><trkpt lat="44.602575" lon="8.3839483"><ele>532.0</ele><time>2026-04-25T12:36:42.978Z</time></trkpt><trkpt lat="44.6024733" lon="8.3839567"><ele>532.0</ele><time>2026-04-25T12:36:43.979Z</time></trkpt><trkpt lat="44.602365" lon="8.3839617"><ele>532.0</ele><time>2026-04-25T12:36:44.978Z</time></trkpt><trkpt lat="44.6022417" lon="8.383975"><ele>532.0</ele><time>2026-04-25T12:36:45.978Z</time></trkpt><trkpt lat="44.6020367" lon="8.3839783"><ele>532.3333333333334</ele><time>2026-04-25T12:36:47.978Z</time></trkpt><trkpt lat="44.6019533" lon="8.383925"><ele>532.6666666666667</ele><time>2026-04-25T12:36:48.978Z</time></trkpt><trkpt lat="44.60189" lon="8.3838533"><ele>533.0</ele><time>2026-04-25T12:36:49.979Z</time></trkpt><trkpt lat="44.6018467" lon="8.38378"><ele>533.3333333333334</ele><time>2026-04-25T12:36:50.979Z</time></trkpt><trkpt lat="44.60176" lon="8.3836767"><ele>533.6666666666666</ele><time>2026-04-25T12:36:52.978Z</time></trkpt><trkpt lat="44.60169" lon="8.3836933"><ele>534.0</ele><time>2026-04-25T12:36:54.979Z</time></trkpt><trkpt lat="44.6017483" lon="8.3838067"><ele>533.6666666666666</ele><time>2026-04-25T12:36:57.978Z</time></trkpt><trkpt lat="44.6018017" lon="8.3838633"><ele>533.3333333333334</ele><time>2026-04-25T12:36:58.978Z</time></trkpt><trkpt lat="44.6018483" lon="8.3839517"><ele>533.0</ele><time>2026-04-25T12:36:59.978Z</time></trkpt><trkpt lat="44.6019083" lon="8.3840583"><ele>532.6666666666667</ele><time>2026-04-25T12:37:00.978Z</time></trkpt><trkpt lat="44.601975" lon="8.3841483"><ele>532.3333333333334</ele><time>2026-04-25T12:37:01.978Z</time></trkpt><trkpt lat="44.602075" lon="8.384215"><ele>532.0</ele><time>2026-04-25T12:37:02.978Z</time></trkpt><trkpt lat="44.6021933" lon="8.3842483"><ele>532.0</ele><time>2026-04-25T12:37:03.978Z</time></trkpt><trkpt lat="44.6023167" lon="8.3842483"><ele>532.0</ele><time>2026-04-25T12:37:04.978Z</time></trkpt><trkpt lat="44.602425" lon="8.3842567"><ele>532.0</ele><time>2026-04-25T12:37:05.979Z</time></trkpt><trkpt lat="44.60251" lon="8.3843233"><ele>532.0</ele><time>2026-04-25T12:37:06.978Z</time></trkpt><trkpt lat="44.6025383" lon="8.3844267"><ele>532.0</ele><time>2026-04-25T12:37:07.978Z</time></trkpt><trkpt lat="44.60253" lon="8.3845683"><ele>527.25</ele><time>2026-04-25T12:37:08.979Z</time></trkpt><trkpt lat="44.6025183" lon="8.3847317"><ele>522.5</ele><time>2026-04-25T12:37:09.978Z</time></trkpt><trkpt lat="44.6025033" lon="8.3849083"><ele>517.75</ele><time>2026-04-25T12:37:10.979Z</time></trkpt><trkpt lat="44.602495" lon="8.38508"><ele>513.0</ele><time>2026-04-25T12:37:11.978Z</time></trkpt><trkpt lat="44.60247" lon="8.3852633"><ele>513.0</ele><time>2026-04-25T12:37:12.978Z</time></trkpt><trkpt lat="44.6024383" lon="8.385445"><ele>513.0</ele><time>2026-04-25T12:37:13.978Z</time></trkpt><trkpt lat="44.6024367" lon="8.385605"><ele>513.0</ele><time>2026-04-25T12:37:14.978Z</time></trkpt><trkpt lat="44.60248" lon="8.3857417"><ele>513.0</ele><time>2026-04-25T12:37:15.978Z</time></trkpt><trkpt lat="44.602545" lon="8.3858417"><ele>509.5</ele><time>2026-04-25T12:37:16.978Z</time></trkpt><trkpt lat="44.60264" lon="8.3858867"><ele>506.0</ele><time>2026-04-25T12:37:17.978Z</time></trkpt><trkpt lat="44.60277" lon="8.38591"><ele>502.5</ele><time>2026-04-25T12:37:18.978Z</time></trkpt><trkpt lat="44.6029267" lon="8.3859133"><ele>499.0</ele><time>2026-04-25T12:37:19.978Z</time></trkpt><trkpt lat="44.6031" lon="8.38594"><ele>499.0</ele><time>2026-04-25T12:37:20.979Z</time></trkpt><trkpt lat="44.6032767" lon="8.3860017"><ele>499.0</ele><time>2026-04-25T12:37:21.978Z</time></trkpt><trkpt lat="44.6034517" lon="8.3860683"><ele>499.0</ele><time>2026-04-25T12:37:22.978Z</time></trkpt><trkpt lat="44.60362" lon="8.3861367"><ele>497.0</ele><time>2026-04-25T12:37:23.979Z</time></trkpt><trkpt lat="44.603765" lon="8.3861633"><ele>495.0</ele><time>2026-04-25T12:37:24.978Z</time></trkpt><trkpt lat="44.6038933" lon="8.3862067"><ele>493.0</ele><time>2026-04-25T12:37:25.978Z</time></trkpt><trkpt lat="44.6040033" lon="8.386295"><ele>491.0</ele><time>2026-04-25T12:37:26.978Z</time></trkpt><trkpt lat="44.6041017" lon="8.3864267"><ele>491.0</ele><time>2026-04-25T12:37:27.978Z</time></trkpt><trkpt lat="44.6041533" lon="8.38661"><ele>491.0</ele><time>2026-04-25T12:37:28.978Z</time></trkpt><trkpt lat="44.6041917" lon="8.3868083"><ele>491.0</ele><time>2026-04-25T12:37:29.979Z</time></trkpt><trkpt lat="44.6042683" lon="8.3869633"><ele>491.0</ele><time>2026-04-25T12:37:30.979Z</time></trkpt><trkpt lat="44.6043633" lon="8.3870783"><ele>491.0</ele><time>2026-04-25T12:37:31.978Z</time></trkpt><trkpt lat="44.6044783" lon="8.387115"><ele>491.0</ele><time>2026-04-25T12:37:32.978Z</time></trkpt><trkpt lat="44.6046017" lon="8.3870967"><ele>491.0</ele><time>2026-04-25T12:37:33.979Z</time></trkpt><trkpt lat="44.6047283" lon="8.3870667"><ele>491.0</ele><time>2026-04-25T12:37:34.978Z</time></trkpt><trkpt lat="44.6048433" lon="8.3870867"><ele>488.0</ele><time>2026-04-25T12:37:35.978Z</time></trkpt><trkpt lat="44.6049567" lon="8.387165"><ele>485.0</ele><time>2026-04-25T12:37:36.978Z</time></trkpt><trkpt lat="44.605065" lon="8.3872817"><ele>482.0</ele><time>2026-04-25T12:37:37.978Z</time></trkpt><trkpt lat="44.6051467" lon="8.3874533"><ele>479.0</ele><time>2026-04-25T12:37:38.978Z</time></trkpt><trkpt lat="44.6052" lon="8.38766"><ele>479.0</ele><time>2026-04-25T12:37:39.978Z</time></trkpt><trkpt lat="44.6052417" lon="8.3878683"><ele>479.0</ele><time>2026-04-25T12:37:40.979Z</time></trkpt><trkpt lat="44.6052383" lon="8.3880567"><ele>479.0</ele><time>2026-04-25T12:37:41.978Z</time></trkpt><trkpt lat="44.6052233" lon="8.3882083"><ele>479.0</ele><time>2026-04-25T12:37:42.978Z</time></trkpt><trkpt lat="44.6051633" lon="8.3883567"><ele>477.3333333333333</ele><time>2026-04-25T12:37:43.979Z</time></trkpt><trkpt lat="44.6050667" lon="8.3885017"><ele>475.66666666666663</ele><time>2026-04-25T12:37:44.978Z</time></trkpt><trkpt lat="44.6049533" lon="8.3886567"><ele>474.0</ele><time>2026-04-25T12:37:45.979Z</time></trkpt><trkpt lat="44.6048467" lon="8.3888133"><ele>476.75</ele><time>2026-04-25T12:37:46.978Z</time></trkpt><trkpt lat="44.604755" lon="8.388965"><ele>479.5</ele><time>2026-04-25T12:37:47.979Z</time></trkpt><trkpt lat="44.6046683" lon="8.3891117"><ele>482.25</ele><time>2026-04-25T12:37:48.978Z</time></trkpt><trkpt lat="44.6045833" lon="8.3892533"><ele>485.0</ele><time>2026-04-25T12:37:49.979Z</time></trkpt><trkpt lat="44.6045017" lon="8.3894117"><ele>477.0</ele><time>2026-04-25T12:37:50.978Z</time></trkpt><trkpt lat="44.60441" lon="8.38959"><ele>469.0</ele><time>2026-04-25T12:37:51.979Z</time></trkpt><trkpt lat="44.6043217" lon="8.3897833"><ele>461.0</ele><time>2026-04-25T12:37:52.978Z</time></trkpt><trkpt lat="44.6042183" lon="8.3899467"><ele>461.0</ele><time>2026-04-25T12:37:53.979Z</time></trkpt><trkpt lat="44.6040983" lon="8.390085"><ele>461.0</ele><time>2026-04-25T12:37:54.978Z</time></trkpt><trkpt lat="44.603975" lon="8.390225"><ele>461.0</ele><time>2026-04-25T12:37:55.978Z</time></trkpt><trkpt lat="44.603845" lon="8.3903233"><ele>461.0</ele><time>2026-04-25T12:37:56.979Z</time></trkpt><trkpt lat="44.6037" lon="8.3903633"><ele>461.0</ele><time>2026-04-25T12:37:57.978Z</time></trkpt><trkpt lat="44.60358" lon="8.3903767"><ele>461.0</ele><time>2026-04-25T12:37:58.978Z</time></trkpt><trkpt lat="44.6034883" lon="8.3903983"><ele>461.0</ele><time>2026-04-25T12:37:59.978Z</time></trkpt><trkpt lat="44.6034317" lon="8.3904767"><ele>461.0</ele><time>2026-04-25T12:38:00.978Z</time></trkpt><trkpt lat="44.60342" lon="8.39063"><ele>458.75</ele><time>2026-04-25T12:38:01.978Z</time></trkpt><trkpt lat="44.6034533" lon="8.3908333"><ele>456.5</ele><time>2026-04-25T12:38:02.978Z</time></trkpt><trkpt lat="44.60346" lon="8.39103"><ele>454.25</ele><time>2026-04-25T12:38:03.979Z</time></trkpt><trkpt lat="44.6034333" lon="8.3912217"><ele>452.0</ele><time>2026-04-25T12:38:04.979Z</time></trkpt><trkpt lat="44.6033667" lon="8.3914317"><ele>450.3333333333333</ele><time>2026-04-25T12:38:05.978Z</time></trkpt><trkpt lat="44.603305" lon="8.39164"><ele>448.66666666666663</ele><time>2026-04-25T12:38:06.978Z</time></trkpt><trkpt lat="44.603245" lon="8.391855"><ele>447.0</ele><time>2026-04-25T12:38:07.978Z</time></trkpt><trkpt lat="44.60321" lon="8.392095"><ele>445.66666666666663</ele><time>2026-04-25T12:38:08.978Z</time></trkpt><trkpt lat="44.6031833" lon="8.3923383"><ele>444.3333333333333</ele><time>2026-04-25T12:38:09.978Z</time></trkpt><trkpt lat="44.603145" lon="8.392575"><ele>443.0</ele><time>2026-04-25T12:38:10.978Z</time></trkpt><trkpt lat="44.6030833" lon="8.3927967"><ele>441.0</ele><time>2026-04-25T12:38:11.978Z</time></trkpt><trkpt lat="44.602995" lon="8.3930333"><ele>439.0</ele><time>2026-04-25T12:38:12.978Z</time></trkpt><trkpt lat="44.6028983" lon="8.3932567"><ele>437.0</ele><time>2026-04-25T12:38:13.978Z</time></trkpt><trkpt lat="44.602795" lon="8.39348"><ele>437.0</ele><time>2026-04-25T12:38:14.979Z</time></trkpt><trkpt lat="44.60268" lon="8.3936733"><ele>437.0</ele><time>2026-04-25T12:38:15.979Z</time></trkpt><trkpt lat="44.602555" lon="8.3938533"><ele>437.0</ele><time>2026-04-25T12:38:16.978Z</time></trkpt><trkpt lat="44.602425" lon="8.3940067"><ele>436.25</ele><time>2026-04-25T12:38:17.978Z</time></trkpt><trkpt lat="44.60233" lon="8.39416"><ele>435.5</ele><time>2026-04-25T12:38:18.978Z</time></trkpt><trkpt lat="44.6022417" lon="8.3942833"><ele>434.75</ele><time>2026-04-25T12:38:19.979Z</time></trkpt><trkpt lat="44.6021883" lon="8.3944567"><ele>434.0</ele><time>2026-04-25T12:38:20.978Z</time></trkpt><trkpt lat="44.6021767" lon="8.39467"><ele>430.66666666666663</ele><time>2026-04-25T12:38:21.979Z</time></trkpt><trkpt lat="44.6021983" lon="8.3948983"><ele>427.33333333333337</ele><time>2026-04-25T12:38:22.978Z</time></trkpt><trkpt lat="44.6022083" lon="8.3951267"><ele>424.0</ele><time>2026-04-25T12:38:23.979Z</time></trkpt><trkpt lat="44.6021983" lon="8.39538"><ele>420.6666666666667</ele><time>2026-04-25T12:38:24.978Z</time></trkpt><trkpt lat="44.6021467" lon="8.39563"><ele>417.33333333333337</ele><time>2026-04-25T12:38:25.978Z</time></trkpt><trkpt lat="44.6021083" lon="8.3958783"><ele>414.0</ele><time>2026-04-25T12:38:26.979Z</time></trkpt><trkpt lat="44.6020933" lon="8.3961383"><ele>410.66666666666663</ele><time>2026-04-25T12:38:27.978Z</time></trkpt><trkpt lat="44.6020967" lon="8.3964033"><ele>407.3333333333333</ele><time>2026-04-25T12:38:28.978Z</time></trkpt><trkpt lat="44.6021133" lon="8.3966717"><ele>404.0</ele><time>2026-04-25T12:38:29.979Z</time></trkpt><trkpt lat="44.602125" lon="8.3969167"><ele>404.0</ele><time>2026-04-25T12:38:30.979Z</time></trkpt><trkpt lat="44.6021067" lon="8.3971317"><ele>404.0</ele><time>2026-04-25T12:38:31.978Z</time></trkpt><trkpt lat="44.6020483" lon="8.39731"><ele>404.0</ele><time>2026-04-25T12:38:32.979Z</time></trkpt><trkpt lat="44.6019717" lon="8.39745"><ele>404.0</ele><time>2026-04-25T12:38:33.978Z</time></trkpt><trkpt lat="44.6018633" lon="8.3975367"><ele>404.0</ele><time>2026-04-25T12:38:34.978Z</time></trkpt><trkpt lat="44.6017533" lon="8.397635"><ele>404.0</ele><time>2026-04-25T12:38:35.978Z</time></trkpt><trkpt lat="44.6016783" lon="8.397725"><ele>404.0</ele><time>2026-04-25T12:38:36.979Z</time></trkpt><trkpt lat="44.60163" lon="8.3978567"><ele>404.0</ele><time>2026-04-25T12:38:37.978Z</time></trkpt><trkpt lat="44.601585" lon="8.398"><ele>404.0</ele><time>2026-04-25T12:38:38.979Z</time></trkpt><trkpt lat="44.6015167" lon="8.3981383"><ele>405.25</ele><time>2026-04-25T12:38:39.978Z</time></trkpt><trkpt lat="44.601425" lon="8.3982783"><ele>406.5</ele><time>2026-04-25T12:38:40.978Z</time></trkpt><trkpt lat="44.6013167" lon="8.398385"><ele>407.75</ele><time>2026-04-25T12:38:41.978Z</time></trkpt><trkpt lat="44.6011983" lon="8.398435"><ele>409.0</ele><time>2026-04-25T12:38:42.979Z</time></trkpt><trkpt lat="44.6010933" lon="8.3985017"><ele>407.0</ele><time>2026-04-25T12:38:43.978Z</time></trkpt><trkpt lat="44.60101" lon="8.3985983"><ele>405.0</ele><time>2026-04-25T12:38:44.979Z</time></trkpt><trkpt lat="44.60096" lon="8.3987067"><ele>403.0</ele><time>2026-04-25T12:38:45.978Z</time></trkpt><trkpt lat="44.60094" lon="8.3988433"><ele>401.0</ele><time>2026-04-25T12:38:46.979Z</time></trkpt><trkpt lat="44.6009517" lon="8.3990233"><ele>399.0</ele><time>2026-04-25T12:38:47.979Z</time></trkpt><trkpt lat="44.6009717" lon="8.3992133"><ele>399.0</ele><time>2026-04-25T12:38:48.978Z</time></trkpt><trkpt lat="44.6009883" lon="8.3994033"><ele>399.0</ele><time>2026-04-25T12:38:49.978Z</time></trkpt><trkpt lat="44.6010117" lon="8.3995533"><ele>399.0</ele><time>2026-04-25T12:38:50.979Z</time></trkpt><trkpt lat="44.60104" lon="8.39968"><ele>399.0</ele><time>2026-04-25T12:38:51.979Z</time></trkpt><trkpt lat="44.6011117" lon="8.3997967"><ele>400.0</ele><time>2026-04-25T12:38:52.978Z</time></trkpt><trkpt lat="44.6011967" lon="8.3999267"><ele>401.0</ele><time>2026-04-25T12:38:53.978Z</time></trkpt><trkpt lat="44.6012867" lon="8.4000717"><ele>402.0</ele><time>2026-04-25T12:38:54.978Z</time></trkpt><trkpt lat="44.60136" lon="8.400245"><ele>403.0</ele><time>2026-04-25T12:38:55.978Z</time></trkpt><trkpt lat="44.6014167" lon="8.4004167"><ele>401.0</ele><time>2026-04-25T12:38:56.978Z</time></trkpt><trkpt lat="44.6014567" lon="8.400565"><ele>399.0</ele><time>2026-04-25T12:38:57.978Z</time></trkpt><trkpt lat="44.6014867" lon="8.40074"><ele>397.0</ele><time>2026-04-25T12:38:58.978Z</time></trkpt><trkpt lat="44.6015117" lon="8.400915"><ele>395.0</ele><time>2026-04-25T12:38:59.978Z</time></trkpt><trkpt lat="44.6015183" lon="8.4010883"><ele>394.99999999999994</ele><time>2026-04-25T12:39:00.979Z</time></trkpt><trkpt lat="44.6015017" lon="8.4012567"><ele>395.0</ele><time>2026-04-25T12:39:01.978Z</time></trkpt><trkpt lat="44.60148" lon="8.4013783"><ele>395.0</ele><time>2026-04-25T12:39:02.978Z</time></trkpt><trkpt lat="44.6014467" lon="8.4014883"><ele>395.0</ele><time>2026-04-25T12:39:03.978Z</time></trkpt><trkpt lat="44.6014167" lon="8.4015717"><ele>394.99999999999994</ele><time>2026-04-25T12:39:04.979Z</time></trkpt><trkpt lat="44.6013533" lon="8.40162"><ele>395.0</ele><time>2026-04-25T12:39:05.978Z</time></trkpt><trkpt lat="44.6012633" lon="8.4015783"><ele>392.4</ele><time>2026-04-25T12:39:06.978Z</time></trkpt><trkpt lat="44.6011467" lon="8.4014517"><ele>389.8</ele><time>2026-04-25T12:39:07.978Z</time></trkpt><trkpt lat="44.6010717" lon="8.4013317"><ele>387.20000000000005</ele><time>2026-04-25T12:39:08.978Z</time></trkpt><trkpt lat="44.601015" lon="8.40122"><ele>384.6</ele><time>2026-04-25T12:39:09.978Z</time></trkpt><trkpt lat="44.6009833" lon="8.4011067"><ele>382.0</ele><time>2026-04-25T12:39:10.978Z</time></trkpt><trkpt lat="44.6010733" lon="8.4009783"><ele>382.0</ele><time>2026-04-25T12:39:11.979Z</time></trkpt><trkpt lat="44.6011433" lon="8.4008517"><ele>382.0</ele><time>2026-04-25T12:39:12.979Z</time></trkpt><trkpt lat="44.6011867" lon="8.4007167"><ele>382.0</ele><time>2026-04-25T12:39:13.979Z</time></trkpt><trkpt lat="44.6012117" lon="8.4005683"><ele>382.0</ele><time>2026-04-25T12:39:14.978Z</time></trkpt><trkpt lat="44.601205" lon="8.400415"><ele>382.0</ele><time>2026-04-25T12:39:15.978Z</time></trkpt><trkpt lat="44.60116" lon="8.4002667"><ele>383.75</ele><time>2026-04-25T12:39:16.978Z</time></trkpt><trkpt lat="44.6010833" lon="8.4001533"><ele>385.5</ele><time>2026-04-25T12:39:17.979Z</time></trkpt><trkpt lat="44.6009983" lon="8.4000583"><ele>387.25</ele><time>2026-04-25T12:39:18.978Z</time></trkpt><trkpt lat="44.6009017" lon="8.3999883"><ele>389.0</ele><time>2026-04-25T12:39:19.978Z</time></trkpt><trkpt lat="44.6007867" lon="8.3999117"><ele>389.0</ele><time>2026-04-25T12:39:20.978Z</time></trkpt><trkpt lat="44.6006733" lon="8.3998517"><ele>389.0</ele><time>2026-04-25T12:39:21.978Z</time></trkpt><trkpt lat="44.6005683" lon="8.3997917"><ele>389.0</ele><time>2026-04-25T12:39:22.978Z</time></trkpt><trkpt lat="44.6004667" lon="8.3997383"><ele>389.0</ele><time>2026-04-25T12:39:23.979Z</time></trkpt><trkpt lat="44.6003783" lon="8.3996967"><ele>389.0</ele><time>2026-04-25T12:39:24.978Z</time></trkpt><trkpt lat="44.6002817" lon="8.3996933"><ele>384.6</ele><time>2026-04-25T12:39:25.978Z</time></trkpt><trkpt lat="44.60019" lon="8.3997417"><ele>380.2</ele><time>2026-04-25T12:39:26.978Z</time></trkpt><trkpt lat="44.6001083" lon="8.3998317"><ele>375.8</ele><time>2026-04-25T12:39:27.978Z</time></trkpt><trkpt lat="44.6000433" lon="8.39993"><ele>371.40000000000003</ele><time>2026-04-25T12:39:28.978Z</time></trkpt><trkpt lat="44.599975" lon="8.4000117"><ele>367.0</ele><time>2026-04-25T12:39:29.979Z</time></trkpt><trkpt lat="44.5999383" lon="8.4000933"><ele>367.0</ele><time>2026-04-25T12:39:30.978Z</time></trkpt><trkpt lat="44.599925" lon="8.4001833"><ele>367.0</ele><time>2026-04-25T12:39:31.979Z</time></trkpt><trkpt lat="44.60002" lon="8.40029"><ele>367.0</ele><time>2026-04-25T12:39:33.978Z</time></trkpt><trkpt lat="44.6001033" lon="8.4003117"><ele>367.0</ele><time>2026-04-25T12:39:34.979Z</time></trkpt><trkpt lat="44.6002083" lon="8.4002933"><ele>367.0</ele><time>2026-04-25T12:39:35.978Z</time></trkpt><trkpt lat="44.6003217" lon="8.4002883"><ele>370.0</ele><time>2026-04-25T12:39:36.978Z</time></trkpt><trkpt lat="44.600415" lon="8.4003267"><ele>373.0</ele><time>2026-04-25T12:39:37.979Z</time></trkpt><trkpt lat="44.600495" lon="8.4004033"><ele>376.0</ele><time>2026-04-25T12:39:38.978Z</time></trkpt><trkpt lat="44.6005517" lon="8.4005083"><ele>379.0</ele><time>2026-04-25T12:39:39.979Z</time></trkpt><trkpt lat="44.6005933" lon="8.400625"><ele>382.0</ele><time>2026-04-25T12:39:40.978Z</time></trkpt><trkpt lat="44.6006233" lon="8.4007567"><ele>382.0</ele><time>2026-04-25T12:39:41.978Z</time></trkpt><trkpt lat="44.6006183" lon="8.4009183"><ele>382.0</ele><time>2026-04-25T12:39:42.978Z</time></trkpt><trkpt lat="44.6005733" lon="8.401105"><ele>382.0</ele><time>2026-04-25T12:39:43.979Z</time></trkpt><trkpt lat="44.6005417" lon="8.401265"><ele>382.0</ele><time>2026-04-25T12:39:44.978Z</time></trkpt><trkpt lat="44.60052" lon="8.4014133"><ele>380.40000000000003</ele><time>2026-04-25T12:39:45.978Z</time></trkpt><trkpt lat="44.600515" lon="8.4015517"><ele>378.8</ele><time>2026-04-25T12:39:46.979Z</time></trkpt><trkpt lat="44.6005483" lon="8.4016833"><ele>377.2</ele><time>2026-04-25T12:39:47.979Z</time></trkpt><trkpt lat="44.6006033" lon="8.401805"><ele>375.6</ele><time>2026-04-25T12:39:48.978Z</time></trkpt><trkpt lat="44.6006917" lon="8.4019133"><ele>374.0</ele><time>2026-04-25T12:39:49.978Z</time></trkpt><trkpt lat="44.6007867" lon="8.4020167"><ele>374.0</ele><time>2026-04-25T12:39:50.978Z</time></trkpt><trkpt lat="44.6009033" lon="8.4021083"><ele>374.0</ele><time>2026-04-25T12:39:51.978Z</time></trkpt><trkpt lat="44.6010183" lon="8.402205"><ele>374.0</ele><time>2026-04-25T12:39:52.978Z</time></trkpt><trkpt lat="44.6011367" lon="8.40231"><ele>374.0</ele><time>2026-04-25T12:39:53.978Z</time></trkpt><trkpt lat="44.6012383" lon="8.402445"><ele>373.75</ele><time>2026-04-25T12:39:54.978Z</time></trkpt><trkpt lat="44.6013433" lon="8.4025933"><ele>373.5</ele><time>2026-04-25T12:39:55.979Z</time></trkpt><trkpt lat="44.6014417" lon="8.4027483"><ele>373.25</ele><time>2026-04-25T12:39:56.978Z</time></trkpt><trkpt lat="44.6015367" lon="8.4029083"><ele>373.0</ele><time>2026-04-25T12:39:57.978Z</time></trkpt><trkpt lat="44.6016283" lon="8.4030717"><ele>367.0</ele><time>2026-04-25T12:39:58.978Z</time></trkpt><trkpt lat="44.6017033" lon="8.403265"><ele>361.0</ele><time>2026-04-25T12:39:59.979Z</time></trkpt><trkpt lat="44.601785" lon="8.4034383"><ele>355.0</ele><time>2026-04-25T12:40:00.978Z</time></trkpt><trkpt lat="44.6018667" lon="8.4035983"><ele>349.0</ele><time>2026-04-25T12:40:01.978Z</time></trkpt><trkpt lat="44.6019333" lon="8.4037717"><ele>349.3333333333333</ele><time>2026-04-25T12:40:02.979Z</time></trkpt><trkpt lat="44.6019917" lon="8.4039517"><ele>349.6666666666667</ele><time>2026-04-25T12:40:03.979Z</time></trkpt><trkpt lat="44.6020167" lon="8.404185"><ele>350.0</ele><time>2026-04-25T12:40:04.978Z</time></trkpt><trkpt lat="44.6020417" lon="8.4044267"><ele>350.0</ele><time>2026-04-25T12:40:05.978Z</time></trkpt><trkpt lat="44.6020917" lon="8.404645"><ele>350.0</ele><time>2026-04-25T12:40:06.979Z</time></trkpt><trkpt lat="44.60217" lon="8.4048533"><ele>350.0</ele><time>2026-04-25T12:40:07.978Z</time></trkpt><trkpt lat="44.6022267" lon="8.4050667"><ele>346.25</ele><time>2026-04-25T12:40:08.979Z</time></trkpt><trkpt lat="44.6022617" lon="8.4052717"><ele>342.5</ele><time>2026-04-25T12:40:09.978Z</time></trkpt><trkpt lat="44.6023017" lon="8.4054583"><ele>338.75</ele><time>2026-04-25T12:40:10.978Z</time></trkpt><trkpt lat="44.6023417" lon="8.4056433"><ele>335.0</ele><time>2026-04-25T12:40:11.979Z</time></trkpt><trkpt lat="44.6023983" lon="8.4058433"><ele>329.0</ele><time>2026-04-25T12:40:12.979Z</time></trkpt><trkpt lat="44.6024683" lon="8.4060483"><ele>323.0</ele><time>2026-04-25T12:40:13.979Z</time></trkpt><trkpt lat="44.6025567" lon="8.4062417"><ele>317.0</ele><time>2026-04-25T12:40:14.979Z</time></trkpt><trkpt lat="44.6026017" lon="8.4064317"><ele>315.25</ele><time>2026-04-25T12:40:15.978Z</time></trkpt><trkpt lat="44.602625" lon="8.4066283"><ele>313.5</ele><time>2026-04-25T12:40:16.978Z</time></trkpt><trkpt lat="44.602625" lon="8.406775"><ele>311.75</ele><time>2026-04-25T12:40:17.979Z</time></trkpt><trkpt lat="44.6026083" lon="8.40691"><ele>310.0</ele><time>2026-04-25T12:40:18.978Z</time></trkpt><trkpt lat="44.6025683" lon="8.4070567"><ele>308.75</ele><time>2026-04-25T12:40:19.978Z</time></trkpt><trkpt lat="44.6025133" lon="8.4072133"><ele>307.5</ele><time>2026-04-25T12:40:20.978Z</time></trkpt><trkpt lat="44.6024667" lon="8.40739"><ele>306.25</ele><time>2026-04-25T12:40:21.978Z</time></trkpt><trkpt lat="44.6024267" lon="8.4075767"><ele>305.0</ele><time>2026-04-25T12:40:22.979Z</time></trkpt><trkpt lat="44.6023933" lon="8.4077483"><ele>305.0</ele><time>2026-04-25T12:40:23.978Z</time></trkpt><trkpt lat="44.6023733" lon="8.40789"><ele>305.0</ele><time>2026-04-25T12:40:24.978Z</time></trkpt><trkpt lat="44.6023717" lon="8.4080183"><ele>305.0</ele><time>2026-04-25T12:40:25.979Z</time></trkpt><trkpt lat="44.6024" lon="8.408135"><ele>305.0</ele><time>2026-04-25T12:40:26.979Z</time></trkpt><trkpt lat="44.60246" lon="8.4082483"><ele>305.0</ele><time>2026-04-25T12:40:27.979Z</time></trkpt><trkpt lat="44.6025517" lon="8.4083167"><ele>303.4</ele><time>2026-04-25T12:40:28.978Z</time></trkpt><trkpt lat="44.6026517" lon="8.40833"><ele>301.8</ele><time>2026-04-25T12:40:29.978Z</time></trkpt><trkpt lat="44.6027433" lon="8.4083017"><ele>300.2</ele><time>2026-04-25T12:40:30.978Z</time></trkpt><trkpt lat="44.6028167" lon="8.4082483"><ele>298.6</ele><time>2026-04-25T12:40:31.978Z</time></trkpt><trkpt lat="44.602855" lon="8.4080983"><ele>297.0</ele><time>2026-04-25T12:40:32.978Z</time></trkpt><trkpt lat="44.6029017" lon="8.407925"><ele>297.0</ele><time>2026-04-25T12:40:33.979Z</time></trkpt><trkpt lat="44.602955" lon="8.40774"><ele>297.0</ele><time>2026-04-25T12:40:34.979Z</time></trkpt><trkpt lat="44.6030183" lon="8.4075667"><ele>297.0</ele><time>2026-04-25T12:40:35.978Z</time></trkpt><trkpt lat="44.60308" lon="8.407405"><ele>297.0</ele><time>2026-04-25T12:40:36.977Z</time></trkpt><trkpt lat="44.6031333" lon="8.4072517"><ele>298.6</ele><time>2026-04-25T12:40:37.978Z</time></trkpt><trkpt lat="44.6031817" lon="8.4070917"><ele>300.2</ele><time>2026-04-25T12:40:38.978Z</time></trkpt><trkpt lat="44.6031967" lon="8.406935"><ele>301.8</ele><time>2026-04-25T12:40:39.977Z</time></trkpt><trkpt lat="44.60321" lon="8.4068017"><ele>303.4</ele><time>2026-04-25T12:40:40.978Z</time></trkpt><trkpt lat="44.6032283" lon="8.4066967"><ele>305.0</ele><time>2026-04-25T12:40:41.977Z</time></trkpt><trkpt lat="44.603295" lon="8.4066183"><ele>305.0</ele><time>2026-04-25T12:40:43.977Z</time></trkpt><trkpt lat="44.6033433" lon="8.4066883"><ele>305.0</ele><time>2026-04-25T12:40:44.978Z</time></trkpt><trkpt lat="44.6034083" lon="8.4068217"><ele>305.0</ele><time>2026-04-25T12:40:45.977Z</time></trkpt><trkpt lat="44.6034767" lon="8.40702"><ele>305.0</ele><time>2026-04-25T12:40:46.977Z</time></trkpt><trkpt lat="44.6035283" lon="8.4072533"><ele>302.33333333333337</ele><time>2026-04-25T12:40:47.977Z</time></trkpt><trkpt lat="44.603565" lon="8.4075283"><ele>299.6666666666667</ele><time>2026-04-25T12:40:48.977Z</time></trkpt><trkpt lat="44.6035933" lon="8.4077783"><ele>297.0</ele><time>2026-04-25T12:40:49.977Z</time></trkpt><trkpt lat="44.6036133" lon="8.40802"><ele>295.0</ele><time>2026-04-25T12:40:50.978Z</time></trkpt><trkpt lat="44.60363" lon="8.40824"><ele>293.0</ele><time>2026-04-25T12:40:51.978Z</time></trkpt><trkpt lat="44.6036367" lon="8.4084583"><ele>291.0</ele><time>2026-04-25T12:40:52.977Z</time></trkpt><trkpt lat="44.6036167" lon="8.4086583"><ele>288.5</ele><time>2026-04-25T12:40:53.977Z</time></trkpt><trkpt lat="44.6035817" lon="8.4088517"><ele>286.0</ele><time>2026-04-25T12:40:54.977Z</time></trkpt><trkpt lat="44.6035433" lon="8.4090417"><ele>283.5</ele><time>2026-04-25T12:40:55.978Z</time></trkpt><trkpt lat="44.60349" lon="8.4092033"><ele>281.0</ele><time>2026-04-25T12:40:56.978Z</time></trkpt><trkpt lat="44.6034117" lon="8.4093733"><ele>281.0</ele><time>2026-04-25T12:40:57.978Z</time></trkpt><trkpt lat="44.60333" lon="8.4095267"><ele>281.0</ele><time>2026-04-25T12:40:58.977Z</time></trkpt><trkpt lat="44.6032333" lon="8.4096567"><ele>281.0</ele><time>2026-04-25T12:40:59.977Z</time></trkpt><trkpt lat="44.6031217" lon="8.4097933"><ele>281.0</ele><time>2026-04-25T12:41:00.977Z</time></trkpt><trkpt lat="44.60301" lon="8.409945"><ele>276.75</ele><time>2026-04-25T12:41:01.977Z</time></trkpt><trkpt lat="44.6029267" lon="8.4100867"><ele>272.5</ele><time>2026-04-25T12:41:02.977Z</time></trkpt><trkpt lat="44.60284" lon="8.41022"><ele>268.25</ele><time>2026-04-25T12:41:03.977Z</time></trkpt><trkpt lat="44.6027433" lon="8.4103233"><ele>264.0</ele><time>2026-04-25T12:41:04.977Z</time></trkpt><trkpt lat="44.602645" lon="8.4103683"><ele>264.0</ele><time>2026-04-25T12:41:05.978Z</time></trkpt><trkpt lat="44.6025633" lon="8.41035"><ele>264.0</ele><time>2026-04-25T12:41:06.977Z</time></trkpt><trkpt lat="44.60248" lon="8.4102917"><ele>264.0</ele><time>2026-04-25T12:41:07.977Z</time></trkpt><trkpt lat="44.60242" lon="8.4101833"><ele>264.0</ele><time>2026-04-25T12:41:08.977Z</time></trkpt><trkpt lat="44.602365" lon="8.4100283"><ele>264.0</ele><time>2026-04-25T12:41:09.978Z</time></trkpt><trkpt lat="44.6023133" lon="8.409785"><ele>261.25</ele><time>2026-04-25T12:41:10.977Z</time></trkpt><trkpt lat="44.60224" lon="8.4095767"><ele>258.5</ele><time>2026-04-25T12:41:11.978Z</time></trkpt><trkpt lat="44.6021717" lon="8.4094067"><ele>255.75</ele><time>2026-04-25T12:41:12.977Z</time></trkpt><trkpt lat="44.6020783" lon="8.4092617"><ele>253.0</ele><time>2026-04-25T12:41:13.978Z</time></trkpt><trkpt lat="44.6019433" lon="8.40916"><ele>253.0</ele><time>2026-04-25T12:41:14.978Z</time></trkpt><trkpt lat="44.6017767" lon="8.4090533"><ele>253.0</ele><time>2026-04-25T12:41:15.977Z</time></trkpt><trkpt lat="44.6015983" lon="8.40896"><ele>253.0</ele><time>2026-04-25T12:41:16.977Z</time></trkpt><trkpt lat="44.601425" lon="8.4088867"><ele>252.0</ele><time>2026-04-25T12:41:17.977Z</time></trkpt><trkpt lat="44.60125" lon="8.4088233"><ele>251.0</ele><time>2026-04-25T12:41:18.977Z</time></trkpt><trkpt lat="44.6010883" lon="8.408775"><ele>250.0</ele><time>2026-04-25T12:41:19.977Z</time></trkpt><trkpt lat="44.60093" lon="8.40872"><ele>250.0</ele><time>2026-04-25T12:41:20.977Z</time></trkpt><trkpt lat="44.60079" lon="8.4086133"><ele>250.0</ele><time>2026-04-25T12:41:21.977Z</time></trkpt><trkpt lat="44.6006633" lon="8.4084733"><ele>250.0</ele><time>2026-04-25T12:41:22.977Z</time></trkpt><trkpt lat="44.60054" lon="8.4082867"><ele>250.0</ele><time>2026-04-25T12:41:23.977Z</time></trkpt><trkpt lat="44.6004383" lon="8.4080717"><ele>250.0</ele><time>2026-04-25T12:41:24.977Z</time></trkpt><trkpt lat="44.600325" lon="8.407835"><ele>250.0</ele><time>2026-04-25T12:41:25.978Z</time></trkpt><trkpt lat="44.600195" lon="8.40763"><ele>248.33333333333331</ele><time>2026-04-25T12:41:26.977Z</time></trkpt><trkpt lat="44.600065" lon="8.40743"><ele>246.66666666666669</ele><time>2026-04-25T12:41:27.977Z</time></trkpt><trkpt lat="44.5999567" lon="8.4072283"><ele>245.0</ele><time>2026-04-25T12:41:28.977Z</time></trkpt><trkpt lat="44.5998667" lon="8.407045"><ele>245.0</ele><time>2026-04-25T12:41:29.978Z</time></trkpt><trkpt lat="44.5997917" lon="8.4068767"><ele>245.0</ele><time>2026-04-25T12:41:30.977Z</time></trkpt><trkpt lat="44.5997367" lon="8.4067383"><ele>245.0</ele><time>2026-04-25T12:41:31.977Z</time></trkpt><trkpt lat="44.5996917" lon="8.4066433"><ele>245.0</ele><time>2026-04-25T12:41:32.977Z</time></trkpt><trkpt lat="44.5995883" lon="8.4066783"><ele>245.0</ele><time>2026-04-25T12:41:34.978Z</time></trkpt><trkpt lat="44.599555" lon="8.4067783"><ele>245.0</ele><time>2026-04-25T12:41:35.978Z</time></trkpt><trkpt lat="44.5995333" lon="8.4069067"><ele>245.0</ele><time>2026-04-25T12:41:36.977Z</time></trkpt><trkpt lat="44.5995367" lon="8.4070833"><ele>245.0</ele><time>2026-04-25T12:41:37.977Z</time></trkpt><trkpt lat="44.5995567" lon="8.4072717"><ele>245.0</ele><time>2026-04-25T12:41:38.978Z</time></trkpt><trkpt lat="44.5996033" lon="8.4074667"><ele>244.66666666666669</ele><time>2026-04-25T12:41:39.977Z</time></trkpt><trkpt lat="44.5996717" lon="8.4076667"><ele>244.33333333333331</ele><time>2026-04-25T12:41:40.977Z</time></trkpt><trkpt lat="44.599755" lon="8.40788"><ele>244.0</ele><time>2026-04-25T12:41:41.977Z</time></trkpt><trkpt lat="44.5998067" lon="8.4080817"><ele>241.33333333333331</ele><time>2026-04-25T12:41:42.977Z</time></trkpt><trkpt lat="44.5998567" lon="8.40827"><ele>238.66666666666669</ele><time>2026-04-25T12:41:43.978Z</time></trkpt><trkpt lat="44.59993" lon="8.4084733"><ele>236.0</ele><time>2026-04-25T12:41:44.978Z</time></trkpt><trkpt lat="44.6000233" lon="8.4086833"><ele>231.33333333333334</ele><time>2026-04-25T12:41:45.978Z</time></trkpt><trkpt lat="44.600105" lon="8.4089033"><ele>226.66666666666669</ele><time>2026-04-25T12:41:46.977Z</time></trkpt><trkpt lat="44.6001633" lon="8.4091183"><ele>222.0</ele><time>2026-04-25T12:41:47.977Z</time></trkpt><trkpt lat="44.6002083" lon="8.40933"><ele>222.0</ele><time>2026-04-25T12:41:48.977Z</time></trkpt><trkpt lat="44.6002333" lon="8.4095283"><ele>222.0</ele><time>2026-04-25T12:41:49.978Z</time></trkpt><trkpt lat="44.60025" lon="8.4097417"><ele>222.0</ele><time>2026-04-25T12:41:50.977Z</time></trkpt><trkpt lat="44.6002967" lon="8.4099667"><ele>221.0</ele><time>2026-04-25T12:41:51.977Z</time></trkpt><trkpt lat="44.60036" lon="8.4101983"><ele>220.0</ele><time>2026-04-25T12:41:52.978Z</time></trkpt><trkpt lat="44.6004233" lon="8.4104367"><ele>219.0</ele><time>2026-04-25T12:41:53.978Z</time></trkpt><trkpt lat="44.6004917" lon="8.4106667"><ele>219.0</ele><time>2026-04-25T12:41:54.977Z</time></trkpt><trkpt lat="44.600555" lon="8.4108883"><ele>219.0</ele><time>2026-04-25T12:41:55.977Z</time></trkpt><trkpt lat="44.6006167" lon="8.4111083"><ele>219.0</ele><time>2026-04-25T12:41:56.977Z</time></trkpt><trkpt lat="44.6006717" lon="8.411315"><ele>217.25</ele><time>2026-04-25T12:41:57.978Z</time></trkpt><trkpt lat="44.6007033" lon="8.4115"><ele>215.5</ele><time>2026-04-25T12:41:58.978Z</time></trkpt><trkpt lat="44.6006983" lon="8.411675"><ele>213.75</ele><time>2026-04-25T12:41:59.978Z</time></trkpt><trkpt lat="44.600635" lon="8.4118567"><ele>212.0</ele><time>2026-04-25T12:42:00.977Z</time></trkpt><trkpt lat="44.6005867" lon="8.4120733"><ele>209.5</ele><time>2026-04-25T12:42:01.978Z</time></trkpt><trkpt lat="44.60055" lon="8.4122967"><ele>207.0</ele><time>2026-04-25T12:42:02.977Z</time></trkpt><trkpt lat="44.6005517" lon="8.412505"><ele>204.5</ele><time>2026-04-25T12:42:03.977Z</time></trkpt><trkpt lat="44.6005533" lon="8.4126883"><ele>202.0</ele><time>2026-04-25T12:42:04.977Z</time></trkpt><trkpt lat="44.60053" lon="8.4128283"><ele>201.99999999999997</ele><time>2026-04-25T12:42:05.977Z</time></trkpt><trkpt lat="44.600485" lon="8.4129233"><ele>202.0</ele><time>2026-04-25T12:42:06.977Z</time></trkpt><trkpt lat="44.6003967" lon="8.4129483"><ele>202.0</ele><time>2026-04-25T12:42:07.977Z</time></trkpt><trkpt lat="44.6003067" lon="8.4129667"><ele>202.0</ele><time>2026-04-25T12:42:08.977Z</time></trkpt><trkpt lat="44.6002333" lon="8.41303"><ele>201.99999999999997</ele><time>2026-04-25T12:42:09.977Z</time></trkpt><trkpt lat="44.6001917" lon="8.413155"><ele>202.0</ele><time>2026-04-25T12:42:10.977Z</time></trkpt><trkpt lat="44.6001883" lon="8.4133117"><ele>202.66666666666666</ele><time>2026-04-25T12:42:11.978Z</time></trkpt><trkpt lat="44.6002267" lon="8.4135117"><ele>203.33333333333331</ele><time>2026-04-25T12:42:12.977Z</time></trkpt><trkpt lat="44.60031" lon="8.4137167"><ele>204.0</ele><time>2026-04-25T12:42:13.977Z</time></trkpt><trkpt lat="44.6003883" lon="8.4139283"><ele>202.66666666666669</ele><time>2026-04-25T12:42:14.977Z</time></trkpt><trkpt lat="44.6004217" lon="8.4141783"><ele>201.33333333333334</ele><time>2026-04-25T12:42:15.977Z</time></trkpt><trkpt lat="44.6004383" lon="8.4143967"><ele>200.0</ele><time>2026-04-25T12:42:16.977Z</time></trkpt><trkpt lat="44.6004217" lon="8.4145917"><ele>199.75</ele><time>2026-04-25T12:42:17.978Z</time></trkpt><trkpt lat="44.6003733" lon="8.41475"><ele>199.5</ele><time>2026-04-25T12:42:18.977Z</time></trkpt><trkpt lat="44.6002933" lon="8.4148883"><ele>199.25</ele><time>2026-04-25T12:42:19.977Z</time></trkpt><trkpt lat="44.6001867" lon="8.4150517"><ele>199.0</ele><time>2026-04-25T12:42:20.977Z</time></trkpt><trkpt lat="44.6000667" lon="8.4152083"><ele>198.0</ele><time>2026-04-25T12:42:21.977Z</time></trkpt><trkpt lat="44.5999417" lon="8.4153767"><ele>197.0</ele><time>2026-04-25T12:42:22.977Z</time></trkpt><trkpt lat="44.5998267" lon="8.4155333"><ele>196.0</ele><time>2026-04-25T12:42:23.978Z</time></trkpt><trkpt lat="44.5996933" lon="8.4156817"><ele>195.66666666666666</ele><time>2026-04-25T12:42:24.977Z</time></trkpt><trkpt lat="44.5995667" lon="8.4158433"><ele>195.33333333333331</ele><time>2026-04-25T12:42:25.977Z</time></trkpt><trkpt lat="44.5994517" lon="8.4160083"><ele>195.0</ele><time>2026-04-25T12:42:26.977Z</time></trkpt><trkpt lat="44.599345" lon="8.4161467"><ele>195.0</ele><time>2026-04-25T12:42:27.977Z</time></trkpt><trkpt lat="44.5992283" lon="8.4162983"><ele>195.0</ele><time>2026-04-25T12:42:28.977Z</time></trkpt><trkpt lat="44.5991583" lon="8.41646"><ele>195.0</ele><time>2026-04-25T12:42:29.977Z</time></trkpt><trkpt lat="44.5991217" lon="8.4166317"><ele>195.0</ele><time>2026-04-25T12:42:30.978Z</time></trkpt><trkpt lat="44.5991083" lon="8.4168317"><ele>195.0</ele><time>2026-04-25T12:42:31.977Z</time></trkpt><trkpt lat="44.5991183" lon="8.41705"><ele>195.0</ele><time>2026-04-25T12:42:32.977Z</time></trkpt><trkpt lat="44.5991217" lon="8.417275"><ele>195.0</ele><time>2026-04-25T12:42:33.977Z</time></trkpt><trkpt lat="44.5991133" lon="8.4174717"><ele>195.2</ele><time>2026-04-25T12:42:34.977Z</time></trkpt><trkpt lat="44.5991133" lon="8.417645"><ele>195.4</ele><time>2026-04-25T12:42:35.977Z</time></trkpt><trkpt lat="44.5990983" lon="8.417795"><ele>195.60000000000002</ele><time>2026-04-25T12:42:36.978Z</time></trkpt><trkpt lat="44.5990933" lon="8.4179233"><ele>195.8</ele><time>2026-04-25T12:42:37.977Z</time></trkpt><trkpt lat="44.5990917" lon="8.4180133"><ele>196.0</ele><time>2026-04-25T12:42:38.978Z</time></trkpt><trkpt lat="44.599075" lon="8.4181433"><ele>196.0</ele><time>2026-04-25T12:42:40.977Z</time></trkpt><trkpt lat="44.5990283" lon="8.418235"><ele>196.0</ele><time>2026-04-25T12:42:43.978Z</time></trkpt><trkpt lat="44.599085" lon="8.4183517"><ele>196.0</ele><time>2026-04-25T12:42:46.977Z</time></trkpt><trkpt lat="44.59919" lon="8.4184317"><ele>196.0</ele><time>2026-04-25T12:42:48.978Z</time></trkpt><trkpt lat="44.5992583" lon="8.4184833"><ele>196.0</ele><time>2026-04-25T12:42:49.977Z</time></trkpt><trkpt lat="44.5993433" lon="8.418545"><ele>196.0</ele><time>2026-04-25T12:42:50.977Z</time></trkpt><trkpt lat="44.5994467" lon="8.4186033"><ele>196.0</ele><time>2026-04-25T12:42:51.978Z</time></trkpt><trkpt lat="44.5995617" lon="8.418675"><ele>196.0</ele><time>2026-04-25T12:42:52.977Z</time></trkpt><trkpt lat="44.5996867" lon="8.41874"><ele>196.0</ele><time>2026-04-25T12:42:53.977Z</time></trkpt><trkpt lat="44.5998067" lon="8.4188417"><ele>197.33333333333331</ele><time>2026-04-25T12:42:54.977Z</time></trkpt><trkpt lat="44.599935" lon="8.418925"><ele>198.66666666666669</ele><time>2026-04-25T12:42:55.977Z</time></trkpt><trkpt lat="44.6000733" lon="8.4190183"><ele>200.0</ele><time>2026-04-25T12:42:56.978Z</time></trkpt><trkpt lat="44.6002333" lon="8.41909"><ele>200.33333333333334</ele><time>2026-04-25T12:42:57.977Z</time></trkpt><trkpt lat="44.6004067" lon="8.41915"><ele>200.66666666666669</ele><time>2026-04-25T12:42:58.977Z</time></trkpt><trkpt lat="44.6005917" lon="8.4192133"><ele>201.0</ele><time>2026-04-25T12:42:59.977Z</time></trkpt><trkpt lat="44.6007733" lon="8.4192733"><ele>201.0</ele><time>2026-04-25T12:43:00.977Z</time></trkpt><trkpt lat="44.6009717" lon="8.419325"><ele>201.0</ele><time>2026-04-25T12:43:01.977Z</time></trkpt><trkpt lat="44.60116" lon="8.419375"><ele>201.0</ele><time>2026-04-25T12:43:02.978Z</time></trkpt><trkpt lat="44.6013617" lon="8.4194217"><ele>199.66666666666669</ele><time>2026-04-25T12:43:03.977Z</time></trkpt><trkpt lat="44.6015667" lon="8.4194867"><ele>198.33333333333334</ele><time>2026-04-25T12:43:04.977Z</time></trkpt><trkpt lat="44.601775" lon="8.419565"><ele>197.0</ele><time>2026-04-25T12:43:05.978Z</time></trkpt><trkpt lat="44.6019933" lon="8.4196433"><ele>198.66666666666669</ele><time>2026-04-25T12:43:06.977Z</time></trkpt><trkpt lat="44.602205" lon="8.4197367"><ele>200.33333333333331</ele><time>2026-04-25T12:43:07.977Z</time></trkpt><trkpt lat="44.6024067" lon="8.4198183"><ele>202.0</ele><time>2026-04-25T12:43:08.977Z</time></trkpt><trkpt lat="44.6026033" lon="8.4198767"><ele>202.0</ele><time>2026-04-25T12:43:09.978Z</time></trkpt><trkpt lat="44.6027833" lon="8.4199483"><ele>202.0</ele><time>2026-04-25T12:43:10.977Z</time></trkpt><trkpt lat="44.6029433" lon="8.420005"><ele>202.0</ele><time>2026-04-25T12:43:11.978Z</time></trkpt><trkpt lat="44.603105" lon="8.4200167"><ele>201.66666666666666</ele><time>2026-04-25T12:43:12.977Z</time></trkpt><trkpt lat="44.6032783" lon="8.41997"><ele>201.33333333333331</ele><time>2026-04-25T12:43:13.977Z</time></trkpt><trkpt lat="44.6034417" lon="8.419855"><ele>201.0</ele><time>2026-04-25T12:43:14.977Z</time></trkpt><trkpt lat="44.6036067" lon="8.4197"><ele>200.33333333333331</ele><time>2026-04-25T12:43:15.977Z</time></trkpt><trkpt lat="44.6037767" lon="8.4195233"><ele>199.66666666666666</ele><time>2026-04-25T12:43:16.977Z</time></trkpt><trkpt lat="44.603955" lon="8.4193317"><ele>199.0</ele><time>2026-04-25T12:43:17.977Z</time></trkpt><trkpt lat="44.604135" lon="8.4191483"><ele>199.0</ele><time>2026-04-25T12:43:18.977Z</time></trkpt><trkpt lat="44.604315" lon="8.41895"><ele>199.0</ele><time>2026-04-25T12:43:19.977Z</time></trkpt><trkpt lat="44.6044967" lon="8.4187617"><ele>199.5</ele><time>2026-04-25T12:43:20.978Z</time></trkpt><trkpt lat="44.60469" lon="8.4185667"><ele>200.0</ele><time>2026-04-25T12:43:21.978Z</time></trkpt><trkpt lat="44.6048817" lon="8.41838"><ele>200.0</ele><time>2026-04-25T12:43:22.977Z</time></trkpt><trkpt lat="44.6050717" lon="8.4181883"><ele>200.0</ele><time>2026-04-25T12:43:23.977Z</time></trkpt><trkpt lat="44.6052683" lon="8.4180033"><ele>201.0</ele><time>2026-04-25T12:43:24.977Z</time></trkpt><trkpt lat="44.6054617" lon="8.4178433"><ele>202.0</ele><time>2026-04-25T12:43:25.978Z</time></trkpt><trkpt lat="44.6056683" lon="8.4177133"><ele>202.0</ele><time>2026-04-25T12:43:26.977Z</time></trkpt><trkpt lat="44.6058567" lon="8.4175817"><ele>202.0</ele><time>2026-04-25T12:43:27.977Z</time></trkpt><trkpt lat="44.60606" lon="8.4174533"><ele>202.0</ele><time>2026-04-25T12:43:28.978Z</time></trkpt><trkpt lat="44.6062733" lon="8.4173233"><ele>202.0</ele><time>2026-04-25T12:43:29.977Z</time></trkpt><trkpt lat="44.606485" lon="8.4171933"><ele>202.0</ele><time>2026-04-25T12:43:30.977Z</time></trkpt><trkpt lat="44.6066867" lon="8.4170567"><ele>202.66666666666666</ele><time>2026-04-25T12:43:31.977Z</time></trkpt><trkpt lat="44.6068817" lon="8.41693"><ele>203.33333333333331</ele><time>2026-04-25T12:43:32.977Z</time></trkpt><trkpt lat="44.607065" lon="8.4168117"><ele>204.0</ele><time>2026-04-25T12:43:33.977Z</time></trkpt><trkpt lat="44.60725" lon="8.416725"><ele>204.0</ele><time>2026-04-25T12:43:34.978Z</time></trkpt><trkpt lat="44.6074233" lon="8.41667"><ele>204.0</ele><time>2026-04-25T12:43:35.977Z</time></trkpt><trkpt lat="44.6076" lon="8.416655"><ele>204.0</ele><time>2026-04-25T12:43:36.977Z</time></trkpt><trkpt lat="44.6077783" lon="8.41667"><ele>205.66666666666669</ele><time>2026-04-25T12:43:37.977Z</time></trkpt><trkpt lat="44.6079583" lon="8.4167383"><ele>207.33333333333334</ele><time>2026-04-25T12:43:38.977Z</time></trkpt><trkpt lat="44.608145" lon="8.4168667"><ele>209.0</ele><time>2026-04-25T12:43:39.977Z</time></trkpt><trkpt lat="44.608315" lon="8.4170333"><ele>209.33333333333334</ele><time>2026-04-25T12:43:40.978Z</time></trkpt><trkpt lat="44.608475" lon="8.4172017"><ele>209.66666666666669</ele><time>2026-04-25T12:43:41.977Z</time></trkpt><trkpt lat="44.60864" lon="8.417335"><ele>210.0</ele><time>2026-04-25T12:43:42.977Z</time></trkpt><trkpt lat="44.60882" lon="8.4173933"><ele>211.66666666666669</ele><time>2026-04-25T12:43:43.977Z</time></trkpt><trkpt lat="44.6090183" lon="8.4174417"><ele>213.33333333333334</ele><time>2026-04-25T12:43:44.977Z</time></trkpt><trkpt lat="44.609235" lon="8.4174983"><ele>215.0</ele><time>2026-04-25T12:43:45.977Z</time></trkpt><trkpt lat="44.6094433" lon="8.4174917"><ele>219.0</ele><time>2026-04-25T12:43:46.978Z</time></trkpt><trkpt lat="44.6096517" lon="8.4174133"><ele>223.0</ele><time>2026-04-25T12:43:47.977Z</time></trkpt><trkpt lat="44.6098667" lon="8.4172983"><ele>227.0</ele><time>2026-04-25T12:43:48.977Z</time></trkpt><trkpt lat="44.6100833" lon="8.4171667"><ele>226.33333333333334</ele><time>2026-04-25T12:43:49.978Z</time></trkpt><trkpt lat="44.6102833" lon="8.417015"><ele>225.66666666666669</ele><time>2026-04-25T12:43:50.978Z</time></trkpt><trkpt lat="44.610475" lon="8.4168883"><ele>225.0</ele><time>2026-04-25T12:43:51.977Z</time></trkpt><trkpt lat="44.6106467" lon="8.416755"><ele>225.0</ele><time>2026-04-25T12:43:52.977Z</time></trkpt><trkpt lat="44.6107883" lon="8.416635"><ele>225.0</ele><time>2026-04-25T12:43:53.977Z</time></trkpt><trkpt lat="44.6109167" lon="8.41652"><ele>225.0</ele><time>2026-04-25T12:43:54.977Z</time></trkpt><trkpt lat="44.6110317" lon="8.4164433"><ele>225.0</ele><time>2026-04-25T12:43:55.977Z</time></trkpt><trkpt lat="44.6111583" lon="8.4164167"><ele>226.0</ele><time>2026-04-25T12:43:56.977Z</time></trkpt><trkpt lat="44.6112733" lon="8.4164267"><ele>227.0</ele><time>2026-04-25T12:43:57.977Z</time></trkpt><trkpt lat="44.611375" lon="8.4164583"><ele>228.0</ele><time>2026-04-25T12:43:58.977Z</time></trkpt><trkpt lat="44.6114717" lon="8.4165083"><ele>229.0</ele><time>2026-04-25T12:43:59.977Z</time></trkpt><trkpt lat="44.6115567" lon="8.41656"><ele>230.0</ele><time>2026-04-25T12:44:00.977Z</time></trkpt><trkpt lat="44.61165" lon="8.41662"><ele>230.0</ele><time>2026-04-25T12:44:01.978Z</time></trkpt><trkpt lat="44.6117567" lon="8.416675"><ele>230.0</ele><time>2026-04-25T12:44:02.977Z</time></trkpt><trkpt lat="44.6118717" lon="8.416705"><ele>230.0</ele><time>2026-04-25T12:44:03.977Z</time></trkpt><trkpt lat="44.61198" lon="8.4167233"><ele>230.0</ele><time>2026-04-25T12:44:04.978Z</time></trkpt><trkpt lat="44.6120833" lon="8.4167033"><ele>230.0</ele><time>2026-04-25T12:44:05.977Z</time></trkpt><trkpt lat="44.61218" lon="8.4166567"><ele>231.0</ele><time>2026-04-25T12:44:06.978Z</time></trkpt><trkpt lat="44.6122683" lon="8.4165917"><ele>232.0</ele><time>2026-04-25T12:44:07.977Z</time></trkpt><trkpt lat="44.6123433" lon="8.416525"><ele>233.0</ele><time>2026-04-25T12:44:08.977Z</time></trkpt><trkpt lat="44.6124183" lon="8.41645"><ele>234.0</ele><time>2026-04-25T12:44:09.977Z</time></trkpt><trkpt lat="44.6124717" lon="8.4163433"><ele>235.0</ele><time>2026-04-25T12:44:10.977Z</time></trkpt><trkpt lat="44.6124983" lon="8.4162233"><ele>234.99999999999997</ele><time>2026-04-25T12:44:11.977Z</time></trkpt><trkpt lat="44.6125033" lon="8.4161"><ele>235.0</ele><time>2026-04-25T12:44:12.977Z</time></trkpt><trkpt lat="44.6124917" lon="8.4159817"><ele>235.0</ele><time>2026-04-25T12:44:13.977Z</time></trkpt><trkpt lat="44.6124783" lon="8.415895"><ele>235.0</ele><time>2026-04-25T12:44:14.977Z</time></trkpt><trkpt lat="44.6124767" lon="8.4157933"><ele>234.99999999999997</ele><time>2026-04-25T12:44:16.978Z</time></trkpt><trkpt lat="44.6124533" lon="8.4156467"><ele>235.0</ele><time>2026-04-25T12:44:39.977Z</time></trkpt><trkpt lat="44.6124567" lon="8.4155383"><ele>234.6</ele><time>2026-04-25T12:44:40.977Z</time></trkpt><trkpt lat="44.61247" lon="8.4154217"><ele>234.2</ele><time>2026-04-25T12:44:41.978Z</time></trkpt><trkpt lat="44.612495" lon="8.415305"><ele>233.8</ele><time>2026-04-25T12:44:42.977Z</time></trkpt><trkpt lat="44.6125617" lon="8.4151567"><ele>233.4</ele><time>2026-04-25T12:44:43.978Z</time></trkpt><trkpt lat="44.6126417" lon="8.4149833"><ele>233.0</ele><time>2026-04-25T12:44:44.977Z</time></trkpt><trkpt lat="44.6127233" lon="8.4148017"><ele>231.0</ele><time>2026-04-25T12:44:45.977Z</time></trkpt><trkpt lat="44.6128033" lon="8.41459"><ele>229.0</ele><time>2026-04-25T12:44:46.977Z</time></trkpt><trkpt lat="44.61288" lon="8.4143867"><ele>227.0</ele><time>2026-04-25T12:44:47.978Z</time></trkpt><trkpt lat="44.6129333" lon="8.414145"><ele>233.66666666666669</ele><time>2026-04-25T12:44:48.977Z</time></trkpt><trkpt lat="44.61294" lon="8.4138833"><ele>240.33333333333331</ele><time>2026-04-25T12:44:49.977Z</time></trkpt><trkpt lat="44.6129817" lon="8.413615"><ele>247.0</ele><time>2026-04-25T12:44:50.977Z</time></trkpt><trkpt lat="44.6130233" lon="8.413365"><ele>247.25</ele><time>2026-04-25T12:44:51.978Z</time></trkpt><trkpt lat="44.61308" lon="8.4131383"><ele>247.5</ele><time>2026-04-25T12:44:52.978Z</time></trkpt><trkpt lat="44.6131433" lon="8.412975"><ele>247.75</ele><time>2026-04-25T12:44:53.978Z</time></trkpt><trkpt lat="44.6132267" lon="8.412885"><ele>248.0</ele><time>2026-04-25T12:44:54.978Z</time></trkpt><trkpt lat="44.6133617" lon="8.4128483"><ele>247.33333333333334</ele><time>2026-04-25T12:44:55.977Z</time></trkpt><trkpt lat="44.6134917" lon="8.412885"><ele>246.66666666666669</ele><time>2026-04-25T12:44:56.977Z</time></trkpt><trkpt lat="44.61365" lon="8.4129717"><ele>246.0</ele><time>2026-04-25T12:44:57.977Z</time></trkpt><trkpt lat="44.6138467" lon="8.41306"><ele>246.0</ele><time>2026-04-25T12:44:58.977Z</time></trkpt><trkpt lat="44.6140283" lon="8.4131417"><ele>246.0</ele><time>2026-04-25T12:44:59.977Z</time></trkpt><trkpt lat="44.61419" lon="8.4132117"><ele>246.0</ele><time>2026-04-25T12:45:00.977Z</time></trkpt><trkpt lat="44.614315" lon="8.41331"><ele>246.0</ele><time>2026-04-25T12:45:01.978Z</time></trkpt><trkpt lat="44.6144117" lon="8.413455"><ele>246.0</ele><time>2026-04-25T12:45:02.977Z</time></trkpt><trkpt lat="44.6144683" lon="8.4136283"><ele>246.0</ele><time>2026-04-25T12:45:03.976Z</time></trkpt><trkpt lat="44.6145333" lon="8.4137967"><ele>246.0</ele><time>2026-04-25T12:45:04.976Z</time></trkpt><trkpt lat="44.614645" lon="8.4138783"><ele>247.0</ele><time>2026-04-25T12:45:05.977Z</time></trkpt><trkpt lat="44.6147867" lon="8.4138967"><ele>248.0</ele><time>2026-04-25T12:45:06.976Z</time></trkpt><trkpt lat="44.614975" lon="8.4138533"><ele>249.0</ele><time>2026-04-25T12:45:07.977Z</time></trkpt><trkpt lat="44.615175" lon="8.4138167"><ele>240.33333333333331</ele><time>2026-04-25T12:45:08.976Z</time></trkpt><trkpt lat="44.6153867" lon="8.4137933"><ele>231.66666666666666</ele><time>2026-04-25T12:45:09.977Z</time></trkpt><trkpt lat="44.6155967" lon="8.4137917"><ele>223.0</ele><time>2026-04-25T12:45:10.977Z</time></trkpt><trkpt lat="44.6157867" lon="8.4138167"><ele>227.66666666666666</ele><time>2026-04-25T12:45:11.977Z</time></trkpt><trkpt lat="44.6159683" lon="8.4138683"><ele>232.33333333333331</ele><time>2026-04-25T12:45:12.976Z</time></trkpt><trkpt lat="44.616135" lon="8.4139717"><ele>237.0</ele><time>2026-04-25T12:45:13.976Z</time></trkpt><trkpt lat="44.6163" lon="8.414145"><ele>237.0</ele><time>2026-04-25T12:45:14.976Z</time></trkpt><trkpt lat="44.61646" lon="8.4143683"><ele>237.0</ele><time>2026-04-25T12:45:15.976Z</time></trkpt><trkpt lat="44.616625" lon="8.4145683"><ele>237.0</ele><time>2026-04-25T12:45:16.977Z</time></trkpt><trkpt lat="44.6169883" lon="8.414735"><ele>239.0</ele><time>2026-04-25T12:45:18.977Z</time></trkpt><trkpt lat="44.617195" lon="8.4147"><ele>241.0</ele><time>2026-04-25T12:45:19.977Z</time></trkpt><trkpt lat="44.6174117" lon="8.4146017"><ele>243.0</ele><time>2026-04-25T12:45:20.976Z</time></trkpt><trkpt lat="44.61763" lon="8.4144867"><ele>238.0</ele><time>2026-04-25T12:45:21.976Z</time></trkpt><trkpt lat="44.6178183" lon="8.4143833"><ele>233.0</ele><time>2026-04-25T12:45:22.977Z</time></trkpt><trkpt lat="44.6179917" lon="8.41429"><ele>228.0</ele><time>2026-04-25T12:45:23.976Z</time></trkpt><trkpt lat="44.6181533" lon="8.4142367"><ele>228.0</ele><time>2026-04-25T12:45:24.977Z</time></trkpt><trkpt lat="44.6182817" lon="8.4142567"><ele>228.0</ele><time>2026-04-25T12:45:25.977Z</time></trkpt><trkpt lat="44.6183967" lon="8.4143517"><ele>228.0</ele><time>2026-04-25T12:45:26.977Z</time></trkpt><trkpt lat="44.6184833" lon="8.4145183"><ele>228.0</ele><time>2026-04-25T12:45:27.976Z</time></trkpt><trkpt lat="44.6185683" lon="8.4147317"><ele>227.0</ele><time>2026-04-25T12:45:28.976Z</time></trkpt><trkpt lat="44.6186717" lon="8.41491"><ele>226.0</ele><time>2026-04-25T12:45:29.976Z</time></trkpt><trkpt lat="44.6188067" lon="8.4150533"><ele>225.0</ele><time>2026-04-25T12:45:30.976Z</time></trkpt><trkpt lat="44.618935" lon="8.41518"><ele>225.0</ele><time>2026-04-25T12:45:31.976Z</time></trkpt><trkpt lat="44.6190317" lon="8.4153417"><ele>225.0</ele><time>2026-04-25T12:45:32.976Z</time></trkpt><trkpt lat="44.6191217" lon="8.415565"><ele>225.0</ele><time>2026-04-25T12:45:33.976Z</time></trkpt><trkpt lat="44.61924" lon="8.415775"><ele>224.0</ele><time>2026-04-25T12:45:34.976Z</time></trkpt><trkpt lat="44.61935" lon="8.4159583"><ele>223.0</ele><time>2026-04-25T12:45:35.976Z</time></trkpt><trkpt lat="44.619485" lon="8.41608"><ele>222.0</ele><time>2026-04-25T12:45:36.976Z</time></trkpt><trkpt lat="44.619645" lon="8.416115"><ele>222.0</ele><time>2026-04-25T12:45:37.976Z</time></trkpt><trkpt lat="44.6198317" lon="8.4160933"><ele>222.0</ele><time>2026-04-25T12:45:38.976Z</time></trkpt><trkpt lat="44.6200217" lon="8.416"><ele>222.0</ele><time>2026-04-25T12:45:39.977Z</time></trkpt><trkpt lat="44.6202267" lon="8.4158567"><ele>222.0</ele><time>2026-04-25T12:45:40.976Z</time></trkpt><trkpt lat="44.6204383" lon="8.4156867"><ele>222.0</ele><time>2026-04-25T12:45:41.976Z</time></trkpt><trkpt lat="44.6206533" lon="8.4155317"><ele>218.0</ele><time>2026-04-25T12:45:42.977Z</time></trkpt><trkpt lat="44.6208783" lon="8.4154"><ele>214.0</ele><time>2026-04-25T12:45:43.977Z</time></trkpt><trkpt lat="44.6211033" lon="8.4153117"><ele>215.66666666666666</ele><time>2026-04-25T12:45:44.976Z</time></trkpt><trkpt lat="44.6212983" lon="8.4152483"><ele>217.33333333333331</ele><time>2026-04-25T12:45:45.977Z</time></trkpt><trkpt lat="44.6215017" lon="8.41521"><ele>219.0</ele><time>2026-04-25T12:45:46.976Z</time></trkpt><trkpt lat="44.6217117" lon="8.41518"><ele>219.0</ele><time>2026-04-25T12:45:47.977Z</time></trkpt><trkpt lat="44.621925" lon="8.4151517"><ele>219.0</ele><time>2026-04-25T12:45:48.976Z</time></trkpt><trkpt lat="44.6221433" lon="8.4151483"><ele>219.0</ele><time>2026-04-25T12:45:49.976Z</time></trkpt><trkpt lat="44.6223383" lon="8.4151733"><ele>217.33333333333331</ele><time>2026-04-25T12:45:50.977Z</time></trkpt><trkpt lat="44.6225233" lon="8.415255"><ele>215.66666666666666</ele><time>2026-04-25T12:45:51.976Z</time></trkpt><trkpt lat="44.6226933" lon="8.4153683"><ele>214.0</ele><time>2026-04-25T12:45:52.976Z</time></trkpt><trkpt lat="44.6228267" lon="8.4155383"><ele>211.33333333333331</ele><time>2026-04-25T12:45:53.976Z</time></trkpt><trkpt lat="44.6229633" lon="8.415725"><ele>208.66666666666669</ele><time>2026-04-25T12:45:54.976Z</time></trkpt><trkpt lat="44.6230783" lon="8.415925"><ele>206.0</ele><time>2026-04-25T12:45:55.976Z</time></trkpt><trkpt lat="44.6231767" lon="8.41611"><ele>206.0</ele><time>2026-04-25T12:45:56.976Z</time></trkpt><trkpt lat="44.6232733" lon="8.4162733"><ele>206.0</ele><time>2026-04-25T12:45:57.976Z</time></trkpt><trkpt lat="44.623415" lon="8.4163667"><ele>206.0</ele><time>2026-04-25T12:45:58.977Z</time></trkpt><trkpt lat="44.6236133" lon="8.4163817"><ele>206.0</ele><time>2026-04-25T12:45:59.976Z</time></trkpt><trkpt lat="44.6238283" lon="8.4163967"><ele>206.0</ele><time>2026-04-25T12:46:00.976Z</time></trkpt><trkpt lat="44.6240317" lon="8.4164217"><ele>206.0</ele><time>2026-04-25T12:46:01.977Z</time></trkpt><trkpt lat="44.6242233" lon="8.4164217"><ele>206.0</ele><time>2026-04-25T12:46:02.977Z</time></trkpt><trkpt lat="44.6244" lon="8.41638"><ele>206.0</ele><time>2026-04-25T12:46:03.976Z</time></trkpt><trkpt lat="44.62454" lon="8.4162467"><ele>206.0</ele><time>2026-04-25T12:46:04.976Z</time></trkpt><trkpt lat="44.62467" lon="8.416045"><ele>204.0</ele><time>2026-04-25T12:46:05.976Z</time></trkpt><trkpt lat="44.624795" lon="8.415805"><ele>202.0</ele><time>2026-04-25T12:46:06.977Z</time></trkpt><trkpt lat="44.6249183" lon="8.415565"><ele>200.0</ele><time>2026-04-25T12:46:07.977Z</time></trkpt><trkpt lat="44.6250417" lon="8.41535"><ele>199.0</ele><time>2026-04-25T12:46:08.977Z</time></trkpt><trkpt lat="44.6251633" lon="8.4151833"><ele>198.0</ele><time>2026-04-25T12:46:09.977Z</time></trkpt><trkpt lat="44.6253133" lon="8.415065"><ele>197.0</ele><time>2026-04-25T12:46:10.976Z</time></trkpt><trkpt lat="44.6254833" lon="8.4149783"><ele>196.66666666666669</ele><time>2026-04-25T12:46:11.977Z</time></trkpt><trkpt lat="44.6256767" lon="8.414925"><ele>196.33333333333331</ele><time>2026-04-25T12:46:12.977Z</time></trkpt><trkpt lat="44.6259" lon="8.4149217"><ele>196.0</ele><time>2026-04-25T12:46:13.976Z</time></trkpt><trkpt lat="44.6261133" lon="8.4149633"><ele>192.5</ele><time>2026-04-25T12:46:14.976Z</time></trkpt><trkpt lat="44.6263383" lon="8.4150283"><ele>189.0</ele><time>2026-04-25T12:46:15.977Z</time></trkpt><trkpt lat="44.6266067" lon="8.415085"><ele>189.0</ele><time>2026-04-25T12:46:16.976Z</time></trkpt><trkpt lat="44.6268683" lon="8.4151433"><ele>189.0</ele><time>2026-04-25T12:46:17.977Z</time></trkpt><trkpt lat="44.6271267" lon="8.415205"><ele>187.0</ele><time>2026-04-25T12:46:18.976Z</time></trkpt><trkpt lat="44.6273783" lon="8.4152633"><ele>185.0</ele><time>2026-04-25T12:46:19.976Z</time></trkpt><trkpt lat="44.6276167" lon="8.4153083"><ele>184.0</ele><time>2026-04-25T12:46:20.976Z</time></trkpt><trkpt lat="44.6278583" lon="8.4153317"><ele>183.0</ele><time>2026-04-25T12:46:21.976Z</time></trkpt><trkpt lat="44.628105" lon="8.4153233"><ele>183.0</ele><time>2026-04-25T12:46:22.976Z</time></trkpt><trkpt lat="44.6283517" lon="8.415315"><ele>183.0</ele><time>2026-04-25T12:46:23.976Z</time></trkpt><trkpt lat="44.62858" lon="8.4152867"><ele>182.33333333333334</ele><time>2026-04-25T12:46:24.976Z</time></trkpt><trkpt lat="44.6288033" lon="8.4152767"><ele>181.66666666666669</ele><time>2026-04-25T12:46:25.976Z</time></trkpt><trkpt lat="44.6290167" lon="8.4153017"><ele>181.0</ele><time>2026-04-25T12:46:26.976Z</time></trkpt><trkpt lat="44.6292583" lon="8.4153483"><ele>179.66666666666669</ele><time>2026-04-25T12:46:27.976Z</time></trkpt><trkpt lat="44.6294867" lon="8.4154133"><ele>178.33333333333334</ele><time>2026-04-25T12:46:28.976Z</time></trkpt><trkpt lat="44.6297" lon="8.4154483"><ele>177.0</ele><time>2026-04-25T12:46:29.977Z</time></trkpt><trkpt lat="44.6299217" lon="8.4154683"><ele>177.66666666666666</ele><time>2026-04-25T12:46:30.977Z</time></trkpt><trkpt lat="44.63014" lon="8.415495"><ele>178.33333333333331</ele><time>2026-04-25T12:46:31.976Z</time></trkpt><trkpt lat="44.63035" lon="8.4155817"><ele>179.0</ele><time>2026-04-25T12:46:32.977Z</time></trkpt><trkpt lat="44.63057" lon="8.4157117"><ele>175.5</ele><time>2026-04-25T12:46:33.976Z</time></trkpt><trkpt lat="44.6307833" lon="8.4158633"><ele>172.0</ele><time>2026-04-25T12:46:34.976Z</time></trkpt><trkpt lat="44.6309883" lon="8.415995"><ele>172.33333333333334</ele><time>2026-04-25T12:46:35.976Z</time></trkpt><trkpt lat="44.6311967" lon="8.4160767"><ele>172.66666666666666</ele><time>2026-04-25T12:46:36.977Z</time></trkpt><trkpt lat="44.63139" lon="8.416125"><ele>173.0</ele><time>2026-04-25T12:46:37.976Z</time></trkpt><trkpt lat="44.631555" lon="8.4161467"><ele>173.0</ele><time>2026-04-25T12:46:38.976Z</time></trkpt><trkpt lat="44.6316933" lon="8.4161867"><ele>173.0</ele><time>2026-04-25T12:46:39.976Z</time></trkpt><trkpt lat="44.6318233" lon="8.4163333"><ele>173.0</ele><time>2026-04-25T12:46:40.977Z</time></trkpt><trkpt lat="44.6319433" lon="8.4164683"><ele>173.0</ele><time>2026-04-25T12:46:41.976Z</time></trkpt><trkpt lat="44.6320667" lon="8.416665"><ele>173.0</ele><time>2026-04-25T12:46:42.977Z</time></trkpt><trkpt lat="44.6322183" lon="8.4168967"><ele>173.0</ele><time>2026-04-25T12:46:43.977Z</time></trkpt><trkpt lat="44.6323967" lon="8.4171467"><ele>177.5</ele><time>2026-04-25T12:46:44.977Z</time></trkpt><trkpt lat="44.6325717" lon="8.4173967"><ele>182.0</ele><time>2026-04-25T12:46:45.977Z</time></trkpt><trkpt lat="44.6327383" lon="8.4176417"><ele>182.66666666666666</ele><time>2026-04-25T12:46:46.976Z</time></trkpt><trkpt lat="44.6329033" lon="8.4178483"><ele>183.33333333333334</ele><time>2026-04-25T12:46:47.976Z</time></trkpt><trkpt lat="44.633085" lon="8.41804"><ele>184.0</ele><time>2026-04-25T12:46:48.976Z</time></trkpt><trkpt lat="44.6332833" lon="8.4181583"><ele>184.0</ele><time>2026-04-25T12:46:49.976Z</time></trkpt><trkpt lat="44.6335267" lon="8.4182933"><ele>184.0</ele><time>2026-04-25T12:46:50.976Z</time></trkpt><trkpt lat="44.6337717" lon="8.4184083"><ele>180.0</ele><time>2026-04-25T12:46:51.977Z</time></trkpt><trkpt lat="44.6340167" lon="8.4185183"><ele>176.0</ele><time>2026-04-25T12:46:52.976Z</time></trkpt><trkpt lat="44.6342733" lon="8.4185983"><ele>175.0</ele><time>2026-04-25T12:46:53.977Z</time></trkpt><trkpt lat="44.6345167" lon="8.4186333"><ele>174.0</ele><time>2026-04-25T12:46:54.976Z</time></trkpt><trkpt lat="44.6347567" lon="8.418655"><ele>174.0</ele><time>2026-04-25T12:46:55.976Z</time></trkpt><trkpt lat="44.6349817" lon="8.4186617"><ele>174.0</ele><time>2026-04-25T12:46:56.977Z</time></trkpt><trkpt lat="44.635195" lon="8.4186733"><ele>174.0</ele><time>2026-04-25T12:46:57.976Z</time></trkpt><trkpt lat="44.6353933" lon="8.41872"><ele>172.66666666666666</ele><time>2026-04-25T12:46:58.976Z</time></trkpt><trkpt lat="44.6355783" lon="8.4188117"><ele>171.33333333333331</ele><time>2026-04-25T12:46:59.976Z</time></trkpt><trkpt lat="44.6357083" lon="8.4189883"><ele>170.0</ele><time>2026-04-25T12:47:00.976Z</time></trkpt><trkpt lat="44.6358883" lon="8.4191533"><ele>171.33333333333331</ele><time>2026-04-25T12:47:01.976Z</time></trkpt><trkpt lat="44.6360917" lon="8.4193033"><ele>172.66666666666666</ele><time>2026-04-25T12:47:02.976Z</time></trkpt><trkpt lat="44.6362833" lon="8.4194467"><ele>174.0</ele><time>2026-04-25T12:47:03.976Z</time></trkpt><trkpt lat="44.6364733" lon="8.41957"><ele>174.0</ele><time>2026-04-25T12:47:04.977Z</time></trkpt><trkpt lat="44.6366617" lon="8.41971"><ele>174.0</ele><time>2026-04-25T12:47:05.977Z</time></trkpt><trkpt lat="44.6368533" lon="8.4198467"><ele>174.0</ele><time>2026-04-25T12:47:06.976Z</time></trkpt><trkpt lat="44.6370383" lon="8.4200017"><ele>174.0</ele><time>2026-04-25T12:47:07.976Z</time></trkpt><trkpt lat="44.63723" lon="8.4201567"><ele>174.0</ele><time>2026-04-25T12:47:08.976Z</time></trkpt><trkpt lat="44.6374283" lon="8.4203317"><ele>174.5</ele><time>2026-04-25T12:47:09.976Z</time></trkpt><trkpt lat="44.6376133" lon="8.4205167"><ele>175.0</ele><time>2026-04-25T12:47:10.976Z</time></trkpt><trkpt lat="44.6378" lon="8.4207"><ele>174.5</ele><time>2026-04-25T12:47:11.977Z</time></trkpt><trkpt lat="44.6380217" lon="8.42084"><ele>174.0</ele><time>2026-04-25T12:47:12.976Z</time></trkpt><trkpt lat="44.6382633" lon="8.420945"><ele>174.0</ele><time>2026-04-25T12:47:13.977Z</time></trkpt><trkpt lat="44.638525" lon="8.4210367"><ele>174.0</ele><time>2026-04-25T12:47:14.977Z</time></trkpt><trkpt lat="44.638795" lon="8.421145"><ele>173.5</ele><time>2026-04-25T12:47:15.977Z</time></trkpt><trkpt lat="44.6390617" lon="8.4212717"><ele>173.0</ele><time>2026-04-25T12:47:16.976Z</time></trkpt><trkpt lat="44.6393217" lon="8.4213917"><ele>178.5</ele><time>2026-04-25T12:47:17.976Z</time></trkpt><trkpt lat="44.6395717" lon="8.4214983"><ele>184.0</ele><time>2026-04-25T12:47:18.976Z</time></trkpt><trkpt lat="44.639815" lon="8.4216033"><ele>184.0</ele><time>2026-04-25T12:47:19.976Z</time></trkpt><trkpt lat="44.64005" lon="8.4217267"><ele>184.0</ele><time>2026-04-25T12:47:20.977Z</time></trkpt><trkpt lat="44.6402783" lon="8.42188"><ele>185.0</ele><time>2026-04-25T12:47:21.976Z</time></trkpt><trkpt lat="44.6405017" lon="8.4220567"><ele>186.0</ele><time>2026-04-25T12:47:22.976Z</time></trkpt><trkpt lat="44.6407217" lon="8.4222533"><ele>186.0</ele><time>2026-04-25T12:47:23.976Z</time></trkpt><trkpt lat="44.6409367" lon="8.4224433"><ele>186.0</ele><time>2026-04-25T12:47:24.976Z</time></trkpt><trkpt lat="44.6411517" lon="8.4226133"><ele>188.5</ele><time>2026-04-25T12:47:25.976Z</time></trkpt><trkpt lat="44.6413617" lon="8.4228017"><ele>191.0</ele><time>2026-04-25T12:47:26.976Z</time></trkpt><trkpt lat="44.641595" lon="8.4229983"><ele>191.0</ele><time>2026-04-25T12:47:27.976Z</time></trkpt><trkpt lat="44.641845" lon="8.4231933"><ele>191.0</ele><time>2026-04-25T12:47:28.976Z</time></trkpt><trkpt lat="44.642065" lon="8.423385"><ele>187.0</ele><time>2026-04-25T12:47:29.976Z</time></trkpt><trkpt lat="44.642295" lon="8.4235383"><ele>183.0</ele><time>2026-04-25T12:47:30.977Z</time></trkpt><trkpt lat="44.64253" lon="8.423665"><ele>183.0</ele><time>2026-04-25T12:47:31.976Z</time></trkpt><trkpt lat="44.6427817" lon="8.4237283"><ele>183.0</ele><time>2026-04-25T12:47:32.976Z</time></trkpt><trkpt lat="44.64306" lon="8.423725"><ele>182.0</ele><time>2026-04-25T12:47:33.976Z</time></trkpt><trkpt lat="44.6433083" lon="8.4237133"><ele>181.0</ele><time>2026-04-25T12:47:34.977Z</time></trkpt><trkpt lat="44.6435567" lon="8.4237117"><ele>179.5</ele><time>2026-04-25T12:47:35.977Z</time></trkpt><trkpt lat="44.6437933" lon="8.4237217"><ele>178.0</ele><time>2026-04-25T12:47:36.976Z</time></trkpt><trkpt lat="44.6440283" lon="8.42373"><ele>178.0</ele><time>2026-04-25T12:47:37.976Z</time></trkpt><trkpt lat="44.64426" lon="8.4237333"><ele>178.0</ele><time>2026-04-25T12:47:38.976Z</time></trkpt><trkpt lat="44.6445033" lon="8.4237617"><ele>176.0</ele><time>2026-04-25T12:47:39.976Z</time></trkpt><trkpt lat="44.6447283" lon="8.4238017"><ele>174.0</ele><time>2026-04-25T12:47:40.976Z</time></trkpt><trkpt lat="44.6449133" lon="8.423855"><ele>172.0</ele><time>2026-04-25T12:47:41.976Z</time></trkpt><trkpt lat="44.645045" lon="8.4238967"><ele>173.66666666666669</ele><time>2026-04-25T12:47:42.976Z</time></trkpt><trkpt lat="44.64513" lon="8.4239267"><ele>175.33333333333334</ele><time>2026-04-25T12:47:43.976Z</time></trkpt><trkpt lat="44.6452183" lon="8.4239683"><ele>177.0</ele><time>2026-04-25T12:47:45.976Z</time></trkpt><trkpt lat="44.6452783" lon="8.4240167"><ele>178.66666666666666</ele><time>2026-04-25T12:48:19.976Z</time></trkpt><trkpt lat="44.6453517" lon="8.424065"><ele>180.33333333333331</ele><time>2026-04-25T12:48:20.976Z</time></trkpt><trkpt lat="44.6454483" lon="8.42413"><ele>182.0</ele><time>2026-04-25T12:48:21.976Z</time></trkpt><trkpt lat="44.64558" lon="8.4242167"><ele>182.0</ele><time>2026-04-25T12:48:22.977Z</time></trkpt><trkpt lat="44.64573" lon="8.42433"><ele>182.0</ele><time>2026-04-25T12:48:23.977Z</time></trkpt><trkpt lat="44.6458867" lon="8.4244333"><ele>182.0</ele><time>2026-04-25T12:48:24.977Z</time></trkpt><trkpt lat="44.646055" lon="8.42454"><ele>180.0</ele><time>2026-04-25T12:48:25.977Z</time></trkpt><trkpt lat="44.646245" lon="8.4246267"><ele>178.0</ele><time>2026-04-25T12:48:26.976Z</time></trkpt><trkpt lat="44.6464533" lon="8.4246717"><ele>176.0</ele><time>2026-04-25T12:48:27.977Z</time></trkpt><trkpt lat="44.64667" lon="8.4247083"><ele>181.33333333333331</ele><time>2026-04-25T12:48:28.976Z</time></trkpt><trkpt lat="44.6468783" lon="8.4247483"><ele>186.66666666666666</ele><time>2026-04-25T12:48:29.977Z</time></trkpt><trkpt lat="44.6470983" lon="8.4247883"><ele>192.0</ele><time>2026-04-25T12:48:30.977Z</time></trkpt><trkpt lat="44.6473167" lon="8.4248233"><ele>192.0</ele><time>2026-04-25T12:48:31.976Z</time></trkpt><trkpt lat="44.6475567" lon="8.4248717"><ele>192.0</ele><time>2026-04-25T12:48:32.976Z</time></trkpt><trkpt lat="44.6477817" lon="8.4249"><ele>192.0</ele><time>2026-04-25T12:48:33.976Z</time></trkpt><trkpt lat="44.648025" lon="8.42491"><ele>192.0</ele><time>2026-04-25T12:48:34.977Z</time></trkpt><trkpt lat="44.6482767" lon="8.4249083"><ele>192.0</ele><time>2026-04-25T12:48:35.976Z</time></trkpt><trkpt lat="44.64851" lon="8.4248833"><ele>192.0</ele><time>2026-04-25T12:48:36.976Z</time></trkpt><trkpt lat="44.6487433" lon="8.4248617"><ele>191.33333333333334</ele><time>2026-04-25T12:48:37.976Z</time></trkpt><trkpt lat="44.6489667" lon="8.4248367"><ele>190.66666666666669</ele><time>2026-04-25T12:48:38.976Z</time></trkpt><trkpt lat="44.649175" lon="8.424825"><ele>190.0</ele><time>2026-04-25T12:48:39.976Z</time></trkpt><trkpt lat="44.649395" lon="8.424855"><ele>187.66666666666669</ele><time>2026-04-25T12:48:40.976Z</time></trkpt><trkpt lat="44.6495833" lon="8.4249083"><ele>185.33333333333334</ele><time>2026-04-25T12:48:41.976Z</time></trkpt><trkpt lat="44.6497583" lon="8.4250233"><ele>183.0</ele><time>2026-04-25T12:48:42.977Z</time></trkpt><trkpt lat="44.6499217" lon="8.425205"><ele>183.0</ele><time>2026-04-25T12:48:43.976Z</time></trkpt><trkpt lat="44.650075" lon="8.4254283"><ele>183.0</ele><time>2026-04-25T12:48:44.976Z</time></trkpt><trkpt lat="44.6502333" lon="8.4256783"><ele>182.0</ele><time>2026-04-25T12:48:45.977Z</time></trkpt><trkpt lat="44.6503983" lon="8.4259467"><ele>181.0</ele><time>2026-04-25T12:48:46.976Z</time></trkpt><trkpt lat="44.6505733" lon="8.4261883"><ele>184.5</ele><time>2026-04-25T12:48:47.976Z</time></trkpt><trkpt lat="44.6507633" lon="8.4264383"><ele>188.0</ele><time>2026-04-25T12:48:48.977Z</time></trkpt><trkpt lat="44.6509583" lon="8.426685"><ele>182.5</ele><time>2026-04-25T12:48:49.976Z</time></trkpt><trkpt lat="44.6511767" lon="8.4269117"><ele>177.0</ele><time>2026-04-25T12:48:50.976Z</time></trkpt><trkpt lat="44.6514217" lon="8.4271367"><ele>180.5</ele><time>2026-04-25T12:48:51.977Z</time></trkpt><trkpt lat="44.65168" lon="8.42733"><ele>184.0</ele><time>2026-04-25T12:48:52.976Z</time></trkpt><trkpt lat="44.6519267" lon="8.42749"><ele>182.5</ele><time>2026-04-25T12:48:53.976Z</time></trkpt><trkpt lat="44.652165" lon="8.4276467"><ele>181.0</ele><time>2026-04-25T12:48:54.977Z</time></trkpt><trkpt lat="44.6523817" lon="8.4278083"><ele>181.0</ele><time>2026-04-25T12:48:55.976Z</time></trkpt><trkpt lat="44.6525783" lon="8.4279933"><ele>181.0</ele><time>2026-04-25T12:48:56.976Z</time></trkpt><trkpt lat="44.6527583" lon="8.4282217"><ele>180.5</ele><time>2026-04-25T12:48:57.977Z</time></trkpt><trkpt lat="44.652915" lon="8.4284733"><ele>180.0</ele><time>2026-04-25T12:48:58.976Z</time></trkpt><trkpt lat="44.6530533" lon="8.42873"><ele>181.0</ele><time>2026-04-25T12:48:59.977Z</time></trkpt><trkpt lat="44.65317" lon="8.42899"><ele>182.0</ele><time>2026-04-25T12:49:00.976Z</time></trkpt><trkpt lat="44.653275" lon="8.429235"><ele>183.0</ele><time>2026-04-25T12:49:01.976Z</time></trkpt><trkpt lat="44.6533767" lon="8.42949"><ele>182.66666666666666</ele><time>2026-04-25T12:49:02.977Z</time></trkpt><trkpt lat="44.65347" lon="8.4297317"><ele>182.33333333333331</ele><time>2026-04-25T12:49:03.976Z</time></trkpt><trkpt lat="44.653545" lon="8.4299667"><ele>182.0</ele><time>2026-04-25T12:49:04.976Z</time></trkpt><trkpt lat="44.6536217" lon="8.4301883"><ele>181.75</ele><time>2026-04-25T12:49:05.976Z</time></trkpt><trkpt lat="44.6536883" lon="8.4304"><ele>181.5</ele><time>2026-04-25T12:49:06.976Z</time></trkpt><trkpt lat="44.65374" lon="8.43059"><ele>181.25</ele><time>2026-04-25T12:49:07.977Z</time></trkpt><trkpt lat="44.65379" lon="8.4307717"><ele>181.0</ele><time>2026-04-25T12:49:08.976Z</time></trkpt><trkpt lat="44.6538517" lon="8.4309517"><ele>181.0</ele><time>2026-04-25T12:49:09.977Z</time></trkpt><trkpt lat="44.6539333" lon="8.4311367"><ele>181.0</ele><time>2026-04-25T12:49:10.977Z</time></trkpt><trkpt lat="44.6540333" lon="8.4313517"><ele>181.0</ele><time>2026-04-25T12:49:11.977Z</time></trkpt><trkpt lat="44.6541367" lon="8.4315833"><ele>180.66666666666669</ele><time>2026-04-25T12:49:12.976Z</time></trkpt><trkpt lat="44.6542417" lon="8.43184"><ele>180.33333333333334</ele><time>2026-04-25T12:49:13.977Z</time></trkpt><trkpt lat="44.6543517" lon="8.43211"><ele>180.0</ele><time>2026-04-25T12:49:14.976Z</time></trkpt><trkpt lat="44.6544817" lon="8.4323817"><ele>180.0</ele><time>2026-04-25T12:49:15.976Z</time></trkpt><trkpt lat="44.6546083" lon="8.4326583"><ele>180.0</ele><time>2026-04-25T12:49:16.976Z</time></trkpt><trkpt lat="44.6547333" lon="8.4329533"><ele>182.0</ele><time>2026-04-25T12:49:17.976Z</time></trkpt><trkpt lat="44.654855" lon="8.43323"><ele>184.0</ele><time>2026-04-25T12:49:18.977Z</time></trkpt><trkpt lat="44.65497" lon="8.4334917"><ele>184.0</ele><time>2026-04-25T12:49:19.976Z</time></trkpt><trkpt lat="44.6550833" lon="8.4337367"><ele>184.0</ele><time>2026-04-25T12:49:20.975Z</time></trkpt><trkpt lat="44.6551867" lon="8.4339683"><ele>184.0</ele><time>2026-04-25T12:49:21.976Z</time></trkpt><trkpt lat="44.6552967" lon="8.4341833"><ele>184.33333333333334</ele><time>2026-04-25T12:49:22.975Z</time></trkpt><trkpt lat="44.6553883" lon="8.434395"><ele>184.66666666666666</ele><time>2026-04-25T12:49:23.976Z</time></trkpt><trkpt lat="44.6554833" lon="8.434625"><ele>185.0</ele><time>2026-04-25T12:49:24.975Z</time></trkpt><trkpt lat="44.6556133" lon="8.43481"><ele>186.33333333333331</ele><time>2026-04-25T12:49:25.975Z</time></trkpt><trkpt lat="44.6557633" lon="8.4350017"><ele>187.66666666666666</ele><time>2026-04-25T12:49:26.976Z</time></trkpt><trkpt lat="44.655935" lon="8.4351883"><ele>189.0</ele><time>2026-04-25T12:49:27.975Z</time></trkpt><trkpt lat="44.6561017" lon="8.4353783"><ele>189.0</ele><time>2026-04-25T12:49:28.975Z</time></trkpt><trkpt lat="44.656275" lon="8.435565"><ele>189.0</ele><time>2026-04-25T12:49:29.976Z</time></trkpt><trkpt lat="44.6564417" lon="8.4357483"><ele>189.0</ele><time>2026-04-25T12:49:30.976Z</time></trkpt><trkpt lat="44.6566" lon="8.4359183"><ele>189.0</ele><time>2026-04-25T12:49:31.975Z</time></trkpt><trkpt lat="44.6567133" lon="8.4361033"><ele>189.0</ele><time>2026-04-25T12:49:32.976Z</time></trkpt><trkpt lat="44.6568017" lon="8.4363383"><ele>189.0</ele><time>2026-04-25T12:49:33.975Z</time></trkpt><trkpt lat="44.6568717" lon="8.4365867"><ele>189.0</ele><time>2026-04-25T12:49:34.976Z</time></trkpt><trkpt lat="44.656925" lon="8.4368483"><ele>189.0</ele><time>2026-04-25T12:49:35.975Z</time></trkpt><trkpt lat="44.65695" lon="8.437145"><ele>189.0</ele><time>2026-04-25T12:49:36.975Z</time></trkpt><trkpt lat="44.656965" lon="8.4374467"><ele>189.0</ele><time>2026-04-25T12:49:37.976Z</time></trkpt><trkpt lat="44.65696" lon="8.4377433"><ele>189.0</ele><time>2026-04-25T12:49:38.975Z</time></trkpt><trkpt lat="44.6569517" lon="8.438035"><ele>189.0</ele><time>2026-04-25T12:49:39.975Z</time></trkpt><trkpt lat="44.6569433" lon="8.438305"><ele>189.0</ele><time>2026-04-25T12:49:40.975Z</time></trkpt><trkpt lat="44.6569417" lon="8.4385617"><ele>189.0</ele><time>2026-04-25T12:49:41.975Z</time></trkpt><trkpt lat="44.6569917" lon="8.43878"><ele>189.0</ele><time>2026-04-25T12:49:42.975Z</time></trkpt><trkpt lat="44.6570817" lon="8.4389533"><ele>189.33333333333334</ele><time>2026-04-25T12:49:43.976Z</time></trkpt><trkpt lat="44.6572117" lon="8.4390667"><ele>189.66666666666669</ele><time>2026-04-25T12:49:44.976Z</time></trkpt><trkpt lat="44.657375" lon="8.439115"><ele>190.0</ele><time>2026-04-25T12:49:45.975Z</time></trkpt><trkpt lat="44.6575583" lon="8.4391117"><ele>190.0</ele><time>2026-04-25T12:49:46.976Z</time></trkpt><trkpt lat="44.6577367" lon="8.4391317"><ele>190.0</ele><time>2026-04-25T12:49:47.975Z</time></trkpt><trkpt lat="44.6578967" lon="8.4392067"><ele>190.0</ele><time>2026-04-25T12:49:48.975Z</time></trkpt><trkpt lat="44.6580583" lon="8.4393583"><ele>190.66666666666669</ele><time>2026-04-25T12:49:49.975Z</time></trkpt><trkpt lat="44.6582233" lon="8.4395517"><ele>191.33333333333334</ele><time>2026-04-25T12:49:50.976Z</time></trkpt><trkpt lat="44.6583767" lon="8.43977"><ele>192.0</ele><time>2026-04-25T12:49:51.976Z</time></trkpt><trkpt lat="44.6585067" lon="8.4400083"><ele>188.5</ele><time>2026-04-25T12:49:52.975Z</time></trkpt><trkpt lat="44.65866" lon="8.44024"><ele>185.0</ele><time>2026-04-25T12:49:53.975Z</time></trkpt><trkpt lat="44.6588067" lon="8.4404867"><ele>185.0</ele><time>2026-04-25T12:49:54.975Z</time></trkpt><trkpt lat="44.6589517" lon="8.4407517"><ele>185.0</ele><time>2026-04-25T12:49:55.976Z</time></trkpt><trkpt lat="44.659125" lon="8.4410167"><ele>188.5</ele><time>2026-04-25T12:49:56.976Z</time></trkpt><trkpt lat="44.6592983" lon="8.4413017"><ele>192.0</ele><time>2026-04-25T12:49:57.976Z</time></trkpt><trkpt lat="44.6594567" lon="8.4415683"><ele>188.0</ele><time>2026-04-25T12:49:58.975Z</time></trkpt><trkpt lat="44.6595783" lon="8.441875"><ele>184.0</ele><time>2026-04-25T12:49:59.976Z</time></trkpt><trkpt lat="44.6597283" lon="8.442175"><ele>184.0</ele><time>2026-04-25T12:50:00.975Z</time></trkpt><trkpt lat="44.6599" lon="8.4424367"><ele>184.0</ele><time>2026-04-25T12:50:01.975Z</time></trkpt><trkpt lat="44.6600633" lon="8.4427083"><ele>184.0</ele><time>2026-04-25T12:50:02.976Z</time></trkpt><trkpt lat="44.6602483" lon="8.4429217"><ele>184.0</ele><time>2026-04-25T12:50:03.975Z</time></trkpt><trkpt lat="44.6604267" lon="8.44315"><ele>182.66666666666669</ele><time>2026-04-25T12:50:04.975Z</time></trkpt><trkpt lat="44.6605817" lon="8.443335"><ele>181.33333333333334</ele><time>2026-04-25T12:50:05.976Z</time></trkpt><trkpt lat="44.660745" lon="8.44349"><ele>180.0</ele><time>2026-04-25T12:50:06.976Z</time></trkpt><trkpt lat="44.6609033" lon="8.4436617"><ele>179.0</ele><time>2026-04-25T12:50:07.975Z</time></trkpt><trkpt lat="44.6610417" lon="8.4438433"><ele>178.0</ele><time>2026-04-25T12:50:08.975Z</time></trkpt><trkpt lat="44.6611783" lon="8.444035"><ele>177.0</ele><time>2026-04-25T12:50:09.975Z</time></trkpt><trkpt lat="44.66133" lon="8.4442333"><ele>177.0</ele><time>2026-04-25T12:50:10.975Z</time></trkpt><trkpt lat="44.661465" lon="8.4444417"><ele>177.0</ele><time>2026-04-25T12:50:11.975Z</time></trkpt><trkpt lat="44.6615633" lon="8.4446567"><ele>177.0</ele><time>2026-04-25T12:50:12.975Z</time></trkpt><trkpt lat="44.661615" lon="8.4448867"><ele>178.33333333333334</ele><time>2026-04-25T12:50:13.975Z</time></trkpt><trkpt lat="44.661685" lon="8.44512"><ele>179.66666666666669</ele><time>2026-04-25T12:50:14.975Z</time></trkpt><trkpt lat="44.6617967" lon="8.4453467"><ele>181.0</ele><time>2026-04-25T12:50:15.975Z</time></trkpt><trkpt lat="44.6619283" lon="8.4455633"><ele>179.0</ele><time>2026-04-25T12:50:16.975Z</time></trkpt><trkpt lat="44.66207" lon="8.4457317"><ele>177.0</ele><time>2026-04-25T12:50:17.975Z</time></trkpt><trkpt lat="44.6622033" lon="8.4458917"><ele>175.0</ele><time>2026-04-25T12:50:18.976Z</time></trkpt><trkpt lat="44.6623067" lon="8.44607"><ele>175.0</ele><time>2026-04-25T12:50:19.975Z</time></trkpt><trkpt lat="44.66239" lon="8.4462867"><ele>175.0</ele><time>2026-04-25T12:50:20.976Z</time></trkpt><trkpt lat="44.6624283" lon="8.44653"><ele>175.0</ele><time>2026-04-25T12:50:21.975Z</time></trkpt><trkpt lat="44.6624283" lon="8.446775"><ele>177.0</ele><time>2026-04-25T12:50:22.975Z</time></trkpt><trkpt lat="44.6624367" lon="8.44701"><ele>179.0</ele><time>2026-04-25T12:50:23.975Z</time></trkpt><trkpt lat="44.66247" lon="8.4472367"><ele>181.0</ele><time>2026-04-25T12:50:24.975Z</time></trkpt><trkpt lat="44.66256" lon="8.4474383"><ele>181.66666666666669</ele><time>2026-04-25T12:50:25.975Z</time></trkpt><trkpt lat="44.6626817" lon="8.4476383"><ele>182.33333333333334</ele><time>2026-04-25T12:50:26.976Z</time></trkpt><trkpt lat="44.6627667" lon="8.447865"><ele>183.0</ele><time>2026-04-25T12:50:27.975Z</time></trkpt><trkpt lat="44.6628417" lon="8.4481083"><ele>174.0</ele><time>2026-04-25T12:50:28.975Z</time></trkpt><trkpt lat="44.6628933" lon="8.4483617"><ele>165.0</ele><time>2026-04-25T12:50:29.975Z</time></trkpt><trkpt lat="44.662915" lon="8.44861"><ele>156.0</ele><time>2026-04-25T12:50:30.976Z</time></trkpt><trkpt lat="44.662905" lon="8.4488583"><ele>156.0</ele><time>2026-04-25T12:50:31.976Z</time></trkpt><trkpt lat="44.6628833" lon="8.449075"><ele>156.0</ele><time>2026-04-25T12:50:32.975Z</time></trkpt><trkpt lat="44.6628517" lon="8.4492733"><ele>156.0</ele><time>2026-04-25T12:50:33.976Z</time></trkpt><trkpt lat="44.662825" lon="8.44948"><ele>157.0</ele><time>2026-04-25T12:50:34.975Z</time></trkpt><trkpt lat="44.6628433" lon="8.4496767"><ele>158.0</ele><time>2026-04-25T12:50:35.975Z</time></trkpt><trkpt lat="44.662915" lon="8.449885"><ele>159.0</ele><time>2026-04-25T12:50:36.976Z</time></trkpt><trkpt lat="44.6630367" lon="8.4501067"><ele>159.0</ele><time>2026-04-25T12:50:37.975Z</time></trkpt><trkpt lat="44.6631783" lon="8.4503217"><ele>159.0</ele><time>2026-04-25T12:50:38.975Z</time></trkpt><trkpt lat="44.6633167" lon="8.4505467"><ele>159.0</ele><time>2026-04-25T12:50:39.975Z</time></trkpt><trkpt lat="44.663455" lon="8.4507817"><ele>157.0</ele><time>2026-04-25T12:50:40.975Z</time></trkpt><trkpt lat="44.6635933" lon="8.451005"><ele>155.0</ele><time>2026-04-25T12:50:41.975Z</time></trkpt><trkpt lat="44.66373" lon="8.4512117"><ele>153.0</ele><time>2026-04-25T12:50:42.975Z</time></trkpt><trkpt lat="44.6638117" lon="8.4514367"><ele>152.66666666666666</ele><time>2026-04-25T12:50:43.976Z</time></trkpt><trkpt lat="44.66387" lon="8.4516767"><ele>152.33333333333331</ele><time>2026-04-25T12:50:44.975Z</time></trkpt><trkpt lat="44.663905" lon="8.45194"><ele>152.0</ele><time>2026-04-25T12:50:45.976Z</time></trkpt><trkpt lat="44.6639383" lon="8.4522233"><ele>152.66666666666666</ele><time>2026-04-25T12:50:46.976Z</time></trkpt><trkpt lat="44.663965" lon="8.4525"><ele>153.33333333333334</ele><time>2026-04-25T12:50:47.975Z</time></trkpt><trkpt lat="44.6640083" lon="8.4527717"><ele>154.0</ele><time>2026-04-25T12:50:48.976Z</time></trkpt><trkpt lat="44.66404" lon="8.45301"><ele>155.25</ele><time>2026-04-25T12:50:49.975Z</time></trkpt><trkpt lat="44.6640533" lon="8.453225"><ele>156.5</ele><time>2026-04-25T12:50:50.975Z</time></trkpt><trkpt lat="44.664075" lon="8.453395"><ele>157.75</ele><time>2026-04-25T12:50:51.975Z</time></trkpt><trkpt lat="44.664095" lon="8.45355"><ele>159.0</ele><time>2026-04-25T12:50:52.976Z</time></trkpt><trkpt lat="44.6641067" lon="8.4536967"><ele>160.0</ele><time>2026-04-25T12:50:53.975Z</time></trkpt><trkpt lat="44.6641083" lon="8.4538433"><ele>161.0</ele><time>2026-04-25T12:50:54.975Z</time></trkpt><trkpt lat="44.6640933" lon="8.453985"><ele>162.0</ele><time>2026-04-25T12:50:55.975Z</time></trkpt><trkpt lat="44.664085" lon="8.454125"><ele>163.0</ele><time>2026-04-25T12:50:56.975Z</time></trkpt><trkpt lat="44.6640767" lon="8.454265"><ele>164.0</ele><time>2026-04-25T12:50:57.976Z</time></trkpt><trkpt lat="44.664075" lon="8.4543983"><ele>164.0</ele><time>2026-04-25T12:50:58.975Z</time></trkpt><trkpt lat="44.6641" lon="8.4545433"><ele>164.0</ele><time>2026-04-25T12:50:59.975Z</time></trkpt><trkpt lat="44.6641183" lon="8.45467"><ele>164.0</ele><time>2026-04-25T12:51:00.976Z</time></trkpt><trkpt lat="44.6641433" lon="8.4547967"><ele>164.0</ele><time>2026-04-25T12:51:01.975Z</time></trkpt><trkpt lat="44.6641717" lon="8.45493"><ele>164.0</ele><time>2026-04-25T12:51:02.976Z</time></trkpt><trkpt lat="44.6641733" lon="8.4550767"><ele>164.0</ele><time>2026-04-25T12:51:03.975Z</time></trkpt><trkpt lat="44.6641617" lon="8.4552433"><ele>164.0</ele><time>2026-04-25T12:51:04.975Z</time></trkpt><trkpt lat="44.66414" lon="8.4554133"><ele>164.0</ele><time>2026-04-25T12:51:05.975Z</time></trkpt><trkpt lat="44.6641183" lon="8.45558"><ele>164.0</ele><time>2026-04-25T12:51:06.975Z</time></trkpt><trkpt lat="44.6640967" lon="8.455755"><ele>164.25</ele><time>2026-04-25T12:51:07.975Z</time></trkpt><trkpt lat="44.6640867" lon="8.455935"><ele>164.5</ele><time>2026-04-25T12:51:08.976Z</time></trkpt><trkpt lat="44.6640833" lon="8.4561033"><ele>164.75</ele><time>2026-04-25T12:51:09.975Z</time></trkpt><trkpt lat="44.6640833" lon="8.456265"><ele>165.0</ele><time>2026-04-25T12:51:10.975Z</time></trkpt><trkpt lat="44.6640867" lon="8.4564333"><ele>165.66666666666666</ele><time>2026-04-25T12:51:11.976Z</time></trkpt><trkpt lat="44.6640917" lon="8.456615"><ele>166.33333333333331</ele><time>2026-04-25T12:51:12.975Z</time></trkpt><trkpt lat="44.6641233" lon="8.456815"><ele>167.0</ele><time>2026-04-25T12:51:13.975Z</time></trkpt><trkpt lat="44.6641733" lon="8.4570583"><ele>165.66666666666666</ele><time>2026-04-25T12:51:14.975Z</time></trkpt><trkpt lat="44.66424" lon="8.457335"><ele>164.33333333333334</ele><time>2026-04-25T12:51:15.976Z</time></trkpt><trkpt lat="44.664305" lon="8.4576217"><ele>163.0</ele><time>2026-04-25T12:51:16.975Z</time></trkpt><trkpt lat="44.66435" lon="8.4579317"><ele>164.33333333333334</ele><time>2026-04-25T12:51:17.975Z</time></trkpt><trkpt lat="44.6643867" lon="8.4582167"><ele>165.66666666666666</ele><time>2026-04-25T12:51:18.976Z</time></trkpt><trkpt lat="44.6643983" lon="8.458495"><ele>167.0</ele><time>2026-04-25T12:51:19.976Z</time></trkpt><trkpt lat="44.6643433" lon="8.4587733"><ele>166.33333333333331</ele><time>2026-04-25T12:51:20.976Z</time></trkpt><trkpt lat="44.6642883" lon="8.4590767"><ele>165.66666666666666</ele><time>2026-04-25T12:51:21.975Z</time></trkpt><trkpt lat="44.6642217" lon="8.4593717"><ele>165.0</ele><time>2026-04-25T12:51:22.975Z</time></trkpt><trkpt lat="44.6641433" lon="8.4596533"><ele>165.0</ele><time>2026-04-25T12:51:23.975Z</time></trkpt><trkpt lat="44.6640567" lon="8.4599367"><ele>165.0</ele><time>2026-04-25T12:51:24.976Z</time></trkpt><trkpt lat="44.66398" lon="8.4602183"><ele>165.0</ele><time>2026-04-25T12:51:25.976Z</time></trkpt><trkpt lat="44.6639317" lon="8.4605033"><ele>164.0</ele><time>2026-04-25T12:51:26.975Z</time></trkpt><trkpt lat="44.66391" lon="8.4608067"><ele>163.0</ele><time>2026-04-25T12:51:27.976Z</time></trkpt><trkpt lat="44.6639" lon="8.4611217"><ele>162.0</ele><time>2026-04-25T12:51:28.976Z</time></trkpt><trkpt lat="44.6639167" lon="8.4613983"><ele>161.0</ele><time>2026-04-25T12:51:29.975Z</time></trkpt><trkpt lat="44.663925" lon="8.461665"><ele>160.0</ele><time>2026-04-25T12:51:30.975Z</time></trkpt><trkpt lat="44.6639283" lon="8.4619233"><ele>159.0</ele><time>2026-04-25T12:51:31.975Z</time></trkpt><trkpt lat="44.6639083" lon="8.4622"><ele>159.0</ele><time>2026-04-25T12:51:32.976Z</time></trkpt><trkpt lat="44.6638783" lon="8.4624833"><ele>159.0</ele><time>2026-04-25T12:51:33.975Z</time></trkpt><trkpt lat="44.6638383" lon="8.46278"><ele>159.0</ele><time>2026-04-25T12:51:34.975Z</time></trkpt><trkpt lat="44.6638" lon="8.4630667"><ele>157.66666666666666</ele><time>2026-04-25T12:51:35.975Z</time></trkpt><trkpt lat="44.6637483" lon="8.4633333"><ele>156.33333333333331</ele><time>2026-04-25T12:51:36.975Z</time></trkpt><trkpt lat="44.66368" lon="8.4635833"><ele>155.0</ele><time>2026-04-25T12:51:37.975Z</time></trkpt><trkpt lat="44.6636083" lon="8.46381"><ele>157.75</ele><time>2026-04-25T12:51:38.976Z</time></trkpt><trkpt lat="44.6635367" lon="8.4640117"><ele>160.5</ele><time>2026-04-25T12:51:39.975Z</time></trkpt><trkpt lat="44.6634867" lon="8.4641883"><ele>163.25</ele><time>2026-04-25T12:51:40.976Z</time></trkpt><trkpt lat="44.66344" lon="8.46433"><ele>166.0</ele><time>2026-04-25T12:51:41.976Z</time></trkpt><trkpt lat="44.6634017" lon="8.46441"><ele>166.0</ele><time>2026-04-25T12:51:42.975Z</time></trkpt><trkpt lat="44.6633367" lon="8.4644217"><ele>166.0</ele><time>2026-04-25T12:51:45.975Z</time></trkpt><trkpt lat="44.6632967" lon="8.4642433"><ele>166.0</ele><time>2026-04-25T12:51:47.975Z</time></trkpt><trkpt lat="44.6632917" lon="8.4640967"><ele>166.0</ele><time>2026-04-25T12:51:48.976Z</time></trkpt><trkpt lat="44.6632983" lon="8.463925"><ele>166.0</ele><time>2026-04-25T12:51:49.976Z</time></trkpt><trkpt lat="44.6633283" lon="8.4637167"><ele>167.66666666666669</ele><time>2026-04-25T12:51:50.975Z</time></trkpt><trkpt lat="44.6633817" lon="8.4634683"><ele>169.33333333333334</ele><time>2026-04-25T12:51:51.976Z</time></trkpt><trkpt lat="44.6634467" lon="8.4632183"><ele>171.0</ele><time>2026-04-25T12:51:52.975Z</time></trkpt><trkpt lat="44.6635067" lon="8.4629767"><ele>172.66666666666666</ele><time>2026-04-25T12:51:53.976Z</time></trkpt><trkpt lat="44.66356" lon="8.4627417"><ele>174.33333333333331</ele><time>2026-04-25T12:51:54.976Z</time></trkpt><trkpt lat="44.6635717" lon="8.4624867"><ele>176.0</ele><time>2026-04-25T12:51:55.975Z</time></trkpt><trkpt lat="44.6635717" lon="8.4622167"><ele>177.66666666666666</ele><time>2026-04-25T12:51:56.976Z</time></trkpt><trkpt lat="44.663555" lon="8.46195"><ele>179.33333333333334</ele><time>2026-04-25T12:51:57.975Z</time></trkpt><trkpt lat="44.6635317" lon="8.4617167"><ele>181.0</ele><time>2026-04-25T12:51:58.975Z</time></trkpt><trkpt lat="44.6634833" lon="8.4615233"><ele>181.0</ele><time>2026-04-25T12:51:59.975Z</time></trkpt><trkpt lat="44.663405" lon="8.4613367"><ele>181.0</ele><time>2026-04-25T12:52:00.975Z</time></trkpt><trkpt lat="44.6632917" lon="8.4611717"><ele>181.0</ele><time>2026-04-25T12:52:01.976Z</time></trkpt><trkpt lat="44.6631483" lon="8.4609833"><ele>181.66666666666669</ele><time>2026-04-25T12:52:02.976Z</time></trkpt><trkpt lat="44.6629933" lon="8.4608067"><ele>182.33333333333334</ele><time>2026-04-25T12:52:03.976Z</time></trkpt><trkpt lat="44.662875" lon="8.4606433"><ele>183.0</ele><time>2026-04-25T12:52:04.976Z</time></trkpt><trkpt lat="44.662815" lon="8.4604817"><ele>183.75</ele><time>2026-04-25T12:52:05.975Z</time></trkpt><trkpt lat="44.6628017" lon="8.4602967"><ele>184.5</ele><time>2026-04-25T12:52:06.975Z</time></trkpt><trkpt lat="44.6628283" lon="8.46009"><ele>185.25</ele><time>2026-04-25T12:52:07.975Z</time></trkpt><trkpt lat="44.662855" lon="8.4598633"><ele>186.0</ele><time>2026-04-25T12:52:08.975Z</time></trkpt><trkpt lat="44.6628533" lon="8.4596067"><ele>186.33333333333334</ele><time>2026-04-25T12:52:09.975Z</time></trkpt><trkpt lat="44.6628583" lon="8.45931"><ele>186.66666666666669</ele><time>2026-04-25T12:52:10.975Z</time></trkpt><trkpt lat="44.6628567" lon="8.4590217"><ele>187.0</ele><time>2026-04-25T12:52:11.976Z</time></trkpt><trkpt lat="44.6628317" lon="8.4587617"><ele>194.66666666666669</ele><time>2026-04-25T12:52:12.975Z</time></trkpt><trkpt lat="44.6627683" lon="8.4585317"><ele>202.33333333333334</ele><time>2026-04-25T12:52:13.975Z</time></trkpt><trkpt lat="44.6626967" lon="8.4582817"><ele>210.0</ele><time>2026-04-25T12:52:14.976Z</time></trkpt><trkpt lat="44.662605" lon="8.4580517"><ele>209.66666666666669</ele><time>2026-04-25T12:52:15.975Z</time></trkpt><trkpt lat="44.66257" lon="8.4578033"><ele>209.33333333333334</ele><time>2026-04-25T12:52:16.975Z</time></trkpt><trkpt lat="44.66258" lon="8.4575133"><ele>209.0</ele><time>2026-04-25T12:52:17.976Z</time></trkpt><trkpt lat="44.6626083" lon="8.4572017"><ele>210.66666666666669</ele><time>2026-04-25T12:52:18.976Z</time></trkpt><trkpt lat="44.66263" lon="8.4569333"><ele>212.33333333333331</ele><time>2026-04-25T12:52:19.975Z</time></trkpt><trkpt lat="44.662625" lon="8.456705"><ele>214.0</ele><time>2026-04-25T12:52:20.975Z</time></trkpt><trkpt lat="44.6625883" lon="8.4565267"><ele>214.0</ele><time>2026-04-25T12:52:21.975Z</time></trkpt><trkpt lat="44.6624983" lon="8.4563617"><ele>214.0</ele><time>2026-04-25T12:52:22.975Z</time></trkpt><trkpt lat="44.6623717" lon="8.4562233"><ele>214.0</ele><time>2026-04-25T12:52:23.975Z</time></trkpt><trkpt lat="44.6622117" lon="8.456105"><ele>215.0</ele><time>2026-04-25T12:52:24.976Z</time></trkpt><trkpt lat="44.6620217" lon="8.4560233"><ele>216.0</ele><time>2026-04-25T12:52:25.975Z</time></trkpt><trkpt lat="44.6617967" lon="8.4559817"><ele>217.0</ele><time>2026-04-25T12:52:26.975Z</time></trkpt><trkpt lat="44.6615383" lon="8.455985"><ele>217.0</ele><time>2026-04-25T12:52:27.975Z</time></trkpt><trkpt lat="44.6612867" lon="8.456"><ele>217.0</ele><time>2026-04-25T12:52:28.975Z</time></trkpt><trkpt lat="44.6610367" lon="8.4560083"><ele>221.33333333333331</ele><time>2026-04-25T12:52:29.976Z</time></trkpt><trkpt lat="44.6608217" lon="8.4560133"><ele>225.66666666666669</ele><time>2026-04-25T12:52:30.975Z</time></trkpt><trkpt lat="44.660615" lon="8.4559983"><ele>230.0</ele><time>2026-04-25T12:52:31.975Z</time></trkpt><trkpt lat="44.6604167" lon="8.45593"><ele>234.33333333333334</ele><time>2026-04-25T12:52:32.975Z</time></trkpt><trkpt lat="44.6602233" lon="8.455835"><ele>238.66666666666669</ele><time>2026-04-25T12:52:33.975Z</time></trkpt><trkpt lat="44.6600367" lon="8.4557267"><ele>243.0</ele><time>2026-04-25T12:52:34.975Z</time></trkpt><trkpt lat="44.65987" lon="8.45563"><ele>243.0</ele><time>2026-04-25T12:52:35.975Z</time></trkpt><trkpt lat="44.6597533" lon="8.455535"><ele>243.0</ele><time>2026-04-25T12:52:36.975Z</time></trkpt><trkpt lat="44.6596683" lon="8.4554383"><ele>243.0</ele><time>2026-04-25T12:52:37.975Z</time></trkpt><trkpt lat="44.6596233" lon="8.4553017"><ele>243.0</ele><time>2026-04-25T12:52:38.975Z</time></trkpt><trkpt lat="44.6596083" lon="8.4551217"><ele>242.75</ele><time>2026-04-25T12:52:39.975Z</time></trkpt><trkpt lat="44.659585" lon="8.4549467"><ele>242.5</ele><time>2026-04-25T12:52:40.976Z</time></trkpt><trkpt lat="44.6595483" lon="8.4547983"><ele>242.25</ele><time>2026-04-25T12:52:41.975Z</time></trkpt><trkpt lat="44.6594483" lon="8.4546983"><ele>242.0</ele><time>2026-04-25T12:52:42.975Z</time></trkpt><trkpt lat="44.65932" lon="8.45463"><ele>243.0</ele><time>2026-04-25T12:52:43.975Z</time></trkpt><trkpt lat="44.6591783" lon="8.454555"><ele>244.0</ele><time>2026-04-25T12:52:44.975Z</time></trkpt><trkpt lat="44.659055" lon="8.4544467"><ele>245.0</ele><time>2026-04-25T12:52:45.975Z</time></trkpt><trkpt lat="44.6589617" lon="8.4543333"><ele>246.0</ele><time>2026-04-25T12:52:46.975Z</time></trkpt><trkpt lat="44.6588683" lon="8.4542517"><ele>246.0</ele><time>2026-04-25T12:52:47.975Z</time></trkpt><trkpt lat="44.6587683" lon="8.4542467"><ele>246.0</ele><time>2026-04-25T12:52:48.975Z</time></trkpt><trkpt lat="44.6586667" lon="8.454315"><ele>246.0</ele><time>2026-04-25T12:52:49.975Z</time></trkpt><trkpt lat="44.65856" lon="8.4544367"><ele>246.0</ele><time>2026-04-25T12:52:50.975Z</time></trkpt><trkpt lat="44.658455" lon="8.4546033"><ele>249.5</ele><time>2026-04-25T12:52:51.976Z</time></trkpt><trkpt lat="44.6583483" lon="8.4547767"><ele>253.0</ele><time>2026-04-25T12:52:52.975Z</time></trkpt><trkpt lat="44.658265" lon="8.4549083"><ele>256.5</ele><time>2026-04-25T12:52:53.975Z</time></trkpt><trkpt lat="44.6581717" lon="8.4549833"><ele>260.0</ele><time>2026-04-25T12:52:54.975Z</time></trkpt><trkpt lat="44.6580583" lon="8.4549933"><ele>260.0</ele><time>2026-04-25T12:52:55.976Z</time></trkpt><trkpt lat="44.657915" lon="8.4549933"><ele>260.0</ele><time>2026-04-25T12:52:56.975Z</time></trkpt><trkpt lat="44.657785" lon="8.4550017"><ele>260.0</ele><time>2026-04-25T12:52:57.975Z</time></trkpt><trkpt lat="44.6576817" lon="8.455065"><ele>260.0</ele><time>2026-04-25T12:52:58.976Z</time></trkpt><trkpt lat="44.657595" lon="8.4551783"><ele>260.25</ele><time>2026-04-25T12:52:59.976Z</time></trkpt><trkpt lat="44.6575167" lon="8.4553417"><ele>260.5</ele><time>2026-04-25T12:53:00.975Z</time></trkpt><trkpt lat="44.6574583" lon="8.4554733"><ele>260.75</ele><time>2026-04-25T12:53:01.976Z</time></trkpt><trkpt lat="44.65738" lon="8.4555733"><ele>261.0</ele><time>2026-04-25T12:53:02.975Z</time></trkpt><trkpt lat="44.6572883" lon="8.4556417"><ele>264.6666666666667</ele><time>2026-04-25T12:53:03.975Z</time></trkpt><trkpt lat="44.6571483" lon="8.45568"><ele>268.33333333333337</ele><time>2026-04-25T12:53:04.975Z</time></trkpt><trkpt lat="44.6569883" lon="8.4557233"><ele>272.0</ele><time>2026-04-25T12:53:05.976Z</time></trkpt><trkpt lat="44.6568117" lon="8.45576"><ele>273.5</ele><time>2026-04-25T12:53:06.976Z</time></trkpt><trkpt lat="44.656655" lon="8.455805"><ele>275.0</ele><time>2026-04-25T12:53:07.975Z</time></trkpt><trkpt lat="44.6565267" lon="8.45583"><ele>276.5</ele><time>2026-04-25T12:53:08.975Z</time></trkpt><trkpt lat="44.65642" lon="8.4558017"><ele>278.0</ele><time>2026-04-25T12:53:09.975Z</time></trkpt><trkpt lat="44.65634" lon="8.4557067"><ele>278.0</ele><time>2026-04-25T12:53:10.976Z</time></trkpt><trkpt lat="44.6562917" lon="8.4555183"><ele>278.0</ele><time>2026-04-25T12:53:11.976Z</time></trkpt><trkpt lat="44.6562567" lon="8.4552683"><ele>278.0</ele><time>2026-04-25T12:53:12.976Z</time></trkpt><trkpt lat="44.6562183" lon="8.45501"><ele>277.2</ele><time>2026-04-25T12:53:13.975Z</time></trkpt><trkpt lat="44.656185" lon="8.4548033"><ele>276.4</ele><time>2026-04-25T12:53:14.975Z</time></trkpt><trkpt lat="44.6561433" lon="8.4546517"><ele>275.59999999999997</ele><time>2026-04-25T12:53:15.975Z</time></trkpt><trkpt lat="44.6560883" lon="8.4545367"><ele>274.8</ele><time>2026-04-25T12:53:16.976Z</time></trkpt><trkpt lat="44.656035" lon="8.4544883"><ele>274.0</ele><time>2026-04-25T12:53:17.976Z</time></trkpt><trkpt lat="44.6559567" lon="8.454535"><ele>276.8</ele><time>2026-04-25T12:53:18.975Z</time></trkpt><trkpt lat="44.6559167" lon="8.4546367"><ele>279.59999999999997</ele><time>2026-04-25T12:53:19.976Z</time></trkpt><trkpt lat="44.6558983" lon="8.454765"><ele>282.4</ele><time>2026-04-25T12:53:20.975Z</time></trkpt><trkpt lat="44.655925" lon="8.4548967"><ele>285.2</ele><time>2026-04-25T12:53:21.976Z</time></trkpt><trkpt lat="44.6559783" lon="8.4550167"><ele>288.0</ele><time>2026-04-25T12:53:22.976Z</time></trkpt><trkpt lat="44.65602" lon="8.45514"><ele>288.0</ele><time>2026-04-25T12:53:23.976Z</time></trkpt><trkpt lat="44.65604" lon="8.4552733"><ele>288.0</ele><time>2026-04-25T12:53:24.975Z</time></trkpt><trkpt lat="44.655995" lon="8.4554267"><ele>288.0</ele><time>2026-04-25T12:53:25.975Z</time></trkpt><trkpt lat="44.655895" lon="8.455595"><ele>288.0</ele><time>2026-04-25T12:53:26.975Z</time></trkpt><trkpt lat="44.6557717" lon="8.4557683"><ele>288.75</ele><time>2026-04-25T12:53:27.976Z</time></trkpt><trkpt lat="44.65565" lon="8.4559233"><ele>289.5</ele><time>2026-04-25T12:53:28.975Z</time></trkpt><trkpt lat="44.655555" lon="8.4560367"><ele>290.25</ele><time>2026-04-25T12:53:29.974Z</time></trkpt><trkpt lat="44.6554667" lon="8.4561033"><ele>291.0</ele><time>2026-04-25T12:53:30.974Z</time></trkpt><trkpt lat="44.6553883" lon="8.4561217"><ele>293.0</ele><time>2026-04-25T12:53:31.974Z</time></trkpt><trkpt lat="44.655275" lon="8.4560517"><ele>295.0</ele><time>2026-04-25T12:53:32.975Z</time></trkpt><trkpt lat="44.65514" lon="8.4559533"><ele>297.0</ele><time>2026-04-25T12:53:33.974Z</time></trkpt><trkpt lat="44.65499" lon="8.4558033"><ele>297.0</ele><time>2026-04-25T12:53:34.974Z</time></trkpt><trkpt lat="44.65482" lon="8.4556517"><ele>297.0</ele><time>2026-04-25T12:53:35.974Z</time></trkpt><trkpt lat="44.6546733" lon="8.4555083"><ele>297.0</ele><time>2026-04-25T12:53:36.974Z</time></trkpt><trkpt lat="44.6545067" lon="8.4554233"><ele>300.3333333333333</ele><time>2026-04-25T12:53:37.975Z</time></trkpt><trkpt lat="44.6543233" lon="8.4553733"><ele>303.66666666666663</ele><time>2026-04-25T12:53:38.975Z</time></trkpt><trkpt lat="44.65411" lon="8.4553533"><ele>307.0</ele><time>2026-04-25T12:53:39.974Z</time></trkpt><trkpt lat="44.653895" lon="8.4553567"><ele>307.0</ele><time>2026-04-25T12:53:40.974Z</time></trkpt><trkpt lat="44.65368" lon="8.4554083"><ele>307.0</ele><time>2026-04-25T12:53:41.975Z</time></trkpt><trkpt lat="44.6534667" lon="8.455485"><ele>307.0</ele><time>2026-04-25T12:53:42.974Z</time></trkpt><trkpt lat="44.6532417" lon="8.455545"><ele>305.0</ele><time>2026-04-25T12:53:43.975Z</time></trkpt><trkpt lat="44.6530367" lon="8.4556467"><ele>303.0</ele><time>2026-04-25T12:53:44.975Z</time></trkpt><trkpt lat="44.6528417" lon="8.4557033"><ele>301.0</ele><time>2026-04-25T12:53:45.974Z</time></trkpt><trkpt lat="44.6526483" lon="8.4557367"><ele>300.66666666666663</ele><time>2026-04-25T12:53:46.974Z</time></trkpt><trkpt lat="44.6524717" lon="8.455795"><ele>300.3333333333333</ele><time>2026-04-25T12:53:47.975Z</time></trkpt><trkpt lat="44.6522933" lon="8.4558283"><ele>300.0</ele><time>2026-04-25T12:53:48.974Z</time></trkpt><trkpt lat="44.6521267" lon="8.4558317"><ele>300.3333333333333</ele><time>2026-04-25T12:53:49.974Z</time></trkpt><trkpt lat="44.651955" lon="8.45578"><ele>300.66666666666663</ele><time>2026-04-25T12:53:50.975Z</time></trkpt><trkpt lat="44.6517783" lon="8.455685"><ele>301.0</ele><time>2026-04-25T12:53:51.974Z</time></trkpt><trkpt lat="44.6516067" lon="8.4555867"><ele>301.0</ele><time>2026-04-25T12:53:52.974Z</time></trkpt><trkpt lat="44.6514167" lon="8.4555433"><ele>301.0</ele><time>2026-04-25T12:53:53.975Z</time></trkpt><trkpt lat="44.6512083" lon="8.4555667"><ele>301.0</ele><time>2026-04-25T12:53:54.975Z</time></trkpt><trkpt lat="44.6509933" lon="8.4556283"><ele>301.3333333333333</ele><time>2026-04-25T12:53:55.974Z</time></trkpt><trkpt lat="44.6508017" lon="8.4556717"><ele>301.6666666666667</ele><time>2026-04-25T12:53:56.974Z</time></trkpt><trkpt lat="44.65062" lon="8.4556967"><ele>302.0</ele><time>2026-04-25T12:53:57.975Z</time></trkpt><trkpt lat="44.65045" lon="8.45569"><ele>302.0</ele><time>2026-04-25T12:53:58.974Z</time></trkpt><trkpt lat="44.6502983" lon="8.4556317"><ele>302.0</ele><time>2026-04-25T12:53:59.974Z</time></trkpt><trkpt lat="44.6501383" lon="8.4555167"><ele>302.0</ele><time>2026-04-25T12:54:00.974Z</time></trkpt><trkpt lat="44.6499983" lon="8.4554183"><ele>308.5</ele><time>2026-04-25T12:54:01.974Z</time></trkpt><trkpt lat="44.6498517" lon="8.4553733"><ele>315.0</ele><time>2026-04-25T12:54:02.974Z</time></trkpt><trkpt lat="44.64972" lon="8.4553383"><ele>321.5</ele><time>2026-04-25T12:54:03.974Z</time></trkpt><trkpt lat="44.6496" lon="8.455285"><ele>328.0</ele><time>2026-04-25T12:54:04.974Z</time></trkpt><trkpt lat="44.649495" lon="8.4552117"><ele>327.0</ele><time>2026-04-25T12:54:05.974Z</time></trkpt><trkpt lat="44.6493983" lon="8.4550767"><ele>326.0</ele><time>2026-04-25T12:54:06.974Z</time></trkpt><trkpt lat="44.6493017" lon="8.4549283"><ele>325.0</ele><time>2026-04-25T12:54:07.974Z</time></trkpt><trkpt lat="44.64917" lon="8.4547667"><ele>325.0</ele><time>2026-04-25T12:54:08.975Z</time></trkpt><trkpt lat="44.6489867" lon="8.454705"><ele>325.0</ele><time>2026-04-25T12:54:09.974Z</time></trkpt><trkpt lat="44.6487967" lon="8.4546883"><ele>325.0</ele><time>2026-04-25T12:54:10.974Z</time></trkpt><trkpt lat="44.6485833" lon="8.4547517"><ele>328.0</ele><time>2026-04-25T12:54:11.974Z</time></trkpt><trkpt lat="44.6483533" lon="8.4548317"><ele>331.0</ele><time>2026-04-25T12:54:12.974Z</time></trkpt><trkpt lat="44.6481283" lon="8.4548817"><ele>331.0</ele><time>2026-04-25T12:54:13.975Z</time></trkpt><trkpt lat="44.647915" lon="8.45492"><ele>331.0</ele><time>2026-04-25T12:54:14.975Z</time></trkpt><trkpt lat="44.64772" lon="8.4549567"><ele>331.0</ele><time>2026-04-25T12:54:15.974Z</time></trkpt><trkpt lat="44.647505" lon="8.4549833"><ele>335.0</ele><time>2026-04-25T12:54:16.975Z</time></trkpt><trkpt lat="44.647285" lon="8.454985"><ele>339.0</ele><time>2026-04-25T12:54:17.975Z</time></trkpt><trkpt lat="44.6470733" lon="8.4549833"><ele>343.0</ele><time>2026-04-25T12:54:18.974Z</time></trkpt><trkpt lat="44.6468617" lon="8.454985"><ele>344.3333333333333</ele><time>2026-04-25T12:54:19.975Z</time></trkpt><trkpt lat="44.6466733" lon="8.4549617"><ele>345.6666666666667</ele><time>2026-04-25T12:54:20.974Z</time></trkpt><trkpt lat="44.6465033" lon="8.454905"><ele>347.0</ele><time>2026-04-25T12:54:21.975Z</time></trkpt><trkpt lat="44.646345" lon="8.4548367"><ele>347.0</ele><time>2026-04-25T12:54:22.975Z</time></trkpt><trkpt lat="44.6462133" lon="8.4547917"><ele>347.0</ele><time>2026-04-25T12:54:23.974Z</time></trkpt><trkpt lat="44.6460967" lon="8.4547717"><ele>347.0</ele><time>2026-04-25T12:54:24.974Z</time></trkpt><trkpt lat="44.6460083" lon="8.4548367"><ele>347.0</ele><time>2026-04-25T12:54:25.975Z</time></trkpt><trkpt lat="44.645955" lon="8.45498"><ele>346.5</ele><time>2026-04-25T12:54:26.974Z</time></trkpt><trkpt lat="44.6458967" lon="8.4550617"><ele>346.0</ele><time>2026-04-25T12:54:27.974Z</time></trkpt><trkpt lat="44.6457817" lon="8.4550917"><ele>345.5</ele><time>2026-04-25T12:54:29.975Z</time></trkpt><trkpt lat="44.6456983" lon="8.4549133"><ele>345.0</ele><time>2026-04-25T12:54:30.974Z</time></trkpt><trkpt lat="44.6456267" lon="8.4547283"><ele>351.6666666666667</ele><time>2026-04-25T12:54:31.974Z</time></trkpt><trkpt lat="44.645555" lon="8.454535"><ele>358.33333333333337</ele><time>2026-04-25T12:54:32.974Z</time></trkpt><trkpt lat="44.6454633" lon="8.4543267"><ele>365.0</ele><time>2026-04-25T12:54:33.974Z</time></trkpt><trkpt lat="44.6453833" lon="8.454145"><ele>365.0</ele><time>2026-04-25T12:54:34.974Z</time></trkpt><trkpt lat="44.6453083" lon="8.45395"><ele>365.0</ele><time>2026-04-25T12:54:35.974Z</time></trkpt><trkpt lat="44.6452467" lon="8.4537433"><ele>365.0</ele><time>2026-04-25T12:54:36.974Z</time></trkpt><trkpt lat="44.645195" lon="8.4535367"><ele>363.33333333333337</ele><time>2026-04-25T12:54:37.974Z</time></trkpt><trkpt lat="44.6451067" lon="8.453345"><ele>361.6666666666667</ele><time>2026-04-25T12:54:38.974Z</time></trkpt><trkpt lat="44.6449883" lon="8.45315"><ele>360.0</ele><time>2026-04-25T12:54:39.974Z</time></trkpt><trkpt lat="44.6448683" lon="8.4529683"><ele>365.3333333333333</ele><time>2026-04-25T12:54:40.975Z</time></trkpt><trkpt lat="44.644725" lon="8.452825"><ele>370.66666666666663</ele><time>2026-04-25T12:54:41.974Z</time></trkpt><trkpt lat="44.6445733" lon="8.4527367"><ele>376.0</ele><time>2026-04-25T12:54:42.974Z</time></trkpt><trkpt lat="44.6444067" lon="8.4527467"><ele>376.0</ele><time>2026-04-25T12:54:43.974Z</time></trkpt><trkpt lat="44.64426" lon="8.4528283"><ele>376.0</ele><time>2026-04-25T12:54:44.974Z</time></trkpt><trkpt lat="44.6441467" lon="8.452975"><ele>376.0</ele><time>2026-04-25T12:54:45.974Z</time></trkpt><trkpt lat="44.644035" lon="8.45317"><ele>373.6</ele><time>2026-04-25T12:54:46.974Z</time></trkpt><trkpt lat="44.6439433" lon="8.4533267"><ele>371.20000000000005</ele><time>2026-04-25T12:54:47.975Z</time></trkpt><trkpt lat="44.6438567" lon="8.45343"><ele>368.79999999999995</ele><time>2026-04-25T12:54:48.974Z</time></trkpt><trkpt lat="44.6437683" lon="8.4534617"><ele>366.4</ele><time>2026-04-25T12:54:49.974Z</time></trkpt><trkpt lat="44.6436767" lon="8.4534533"><ele>364.0</ele><time>2026-04-25T12:54:50.974Z</time></trkpt><trkpt lat="44.6435633" lon="8.4533583"><ele>364.0</ele><time>2026-04-25T12:54:51.974Z</time></trkpt><trkpt lat="44.64345" lon="8.453235"><ele>364.0</ele><time>2026-04-25T12:54:52.975Z</time></trkpt><trkpt lat="44.6433283" lon="8.4530767"><ele>364.0</ele><time>2026-04-25T12:54:53.974Z</time></trkpt><trkpt lat="44.6431867" lon="8.4528283"><ele>373.0</ele><time>2026-04-25T12:54:54.974Z</time></trkpt><trkpt lat="44.643065" lon="8.4525683"><ele>382.0</ele><time>2026-04-25T12:54:55.975Z</time></trkpt><trkpt lat="44.64292" lon="8.4523117"><ele>385.0</ele><time>2026-04-25T12:54:56.974Z</time></trkpt><trkpt lat="44.6427417" lon="8.4520817"><ele>388.0</ele><time>2026-04-25T12:54:57.974Z</time></trkpt><trkpt lat="44.6425533" lon="8.4518983"><ele>388.0</ele><time>2026-04-25T12:54:58.974Z</time></trkpt><trkpt lat="44.64238" lon="8.4517483"><ele>388.0</ele><time>2026-04-25T12:54:59.975Z</time></trkpt><trkpt lat="44.6422233" lon="8.4516167"><ele>388.0</ele><time>2026-04-25T12:55:00.975Z</time></trkpt><trkpt lat="44.642095" lon="8.4515033"><ele>389.6666666666667</ele><time>2026-04-25T12:55:01.974Z</time></trkpt><trkpt lat="44.6419433" lon="8.4514467"><ele>391.33333333333337</ele><time>2026-04-25T12:55:02.975Z</time></trkpt><trkpt lat="44.6417817" lon="8.45148"><ele>393.0</ele><time>2026-04-25T12:55:03.974Z</time></trkpt><trkpt lat="44.6416117" lon="8.4516367"><ele>393.0</ele><time>2026-04-25T12:55:04.974Z</time></trkpt><trkpt lat="44.6414217" lon="8.4517267"><ele>393.0</ele><time>2026-04-25T12:55:05.975Z</time></trkpt><trkpt lat="44.6412433" lon="8.4517883"><ele>393.0</ele><time>2026-04-25T12:55:06.974Z</time></trkpt><trkpt lat="44.64106" lon="8.4518583"><ele>397.66666666666663</ele><time>2026-04-25T12:55:07.974Z</time></trkpt><trkpt lat="44.64088" lon="8.451935"><ele>402.3333333333333</ele><time>2026-04-25T12:55:08.975Z</time></trkpt><trkpt lat="44.6407167" lon="8.45202"><ele>407.0</ele><time>2026-04-25T12:55:09.974Z</time></trkpt><trkpt lat="44.6405733" lon="8.452095"><ele>407.0</ele><time>2026-04-25T12:55:10.974Z</time></trkpt><trkpt lat="44.6404333" lon="8.4521117"><ele>407.0</ele><time>2026-04-25T12:55:11.974Z</time></trkpt><trkpt lat="44.6403033" lon="8.4520733"><ele>407.0</ele><time>2026-04-25T12:55:12.975Z</time></trkpt><trkpt lat="44.6401783" lon="8.4519633"><ele>407.0</ele><time>2026-04-25T12:55:13.974Z</time></trkpt><trkpt lat="44.640045" lon="8.4518"><ele>405.66666666666663</ele><time>2026-04-25T12:55:14.975Z</time></trkpt><trkpt lat="44.6399133" lon="8.4516117"><ele>404.33333333333337</ele><time>2026-04-25T12:55:15.974Z</time></trkpt><trkpt lat="44.63979" lon="8.4514283"><ele>403.0</ele><time>2026-04-25T12:55:16.974Z</time></trkpt><trkpt lat="44.6396783" lon="8.45124"><ele>406.0</ele><time>2026-04-25T12:55:17.974Z</time></trkpt><trkpt lat="44.6395667" lon="8.4511033"><ele>409.0</ele><time>2026-04-25T12:55:18.974Z</time></trkpt><trkpt lat="44.63945" lon="8.4510233"><ele>412.0</ele><time>2026-04-25T12:55:19.974Z</time></trkpt><trkpt lat="44.639315" lon="8.4509933"><ele>415.0</ele><time>2026-04-25T12:55:20.974Z</time></trkpt><trkpt lat="44.639165" lon="8.4510417"><ele>415.0</ele><time>2026-04-25T12:55:21.975Z</time></trkpt><trkpt lat="44.6390133" lon="8.451115"><ele>415.0</ele><time>2026-04-25T12:55:22.974Z</time></trkpt><trkpt lat="44.6388633" lon="8.4512033"><ele>415.0</ele><time>2026-04-25T12:55:23.975Z</time></trkpt><trkpt lat="44.638705" lon="8.4512733"><ele>414.0</ele><time>2026-04-25T12:55:24.974Z</time></trkpt><trkpt lat="44.6385483" lon="8.4513"><ele>413.0</ele><time>2026-04-25T12:55:25.974Z</time></trkpt><trkpt lat="44.6383983" lon="8.4513067"><ele>412.0</ele><time>2026-04-25T12:55:26.975Z</time></trkpt><trkpt lat="44.6382517" lon="8.4513617"><ele>412.0</ele><time>2026-04-25T12:55:27.975Z</time></trkpt><trkpt lat="44.6381" lon="8.4514417"><ele>412.0</ele><time>2026-04-25T12:55:28.975Z</time></trkpt><trkpt lat="44.6379533" lon="8.4515067"><ele>412.0</ele><time>2026-04-25T12:55:29.975Z</time></trkpt><trkpt lat="44.6378183" lon="8.4515217"><ele>415.25</ele><time>2026-04-25T12:55:30.975Z</time></trkpt><trkpt lat="44.6376917" lon="8.45147"><ele>418.5</ele><time>2026-04-25T12:55:31.974Z</time></trkpt><trkpt lat="44.637555" lon="8.4514483"><ele>421.75</ele><time>2026-04-25T12:55:32.975Z</time></trkpt><trkpt lat="44.6374083" lon="8.4515017"><ele>425.0</ele><time>2026-04-25T12:55:33.974Z</time></trkpt><trkpt lat="44.637255" lon="8.4516367"><ele>425.0</ele><time>2026-04-25T12:55:34.975Z</time></trkpt><trkpt lat="44.6371117" lon="8.451805"><ele>425.0</ele><time>2026-04-25T12:55:35.975Z</time></trkpt><trkpt lat="44.6369767" lon="8.45196"><ele>425.0</ele><time>2026-04-25T12:55:36.974Z</time></trkpt><trkpt lat="44.6368567" lon="8.4520683"><ele>425.0</ele><time>2026-04-25T12:55:37.974Z</time></trkpt><trkpt lat="44.6367367" lon="8.4521317"><ele>425.0</ele><time>2026-04-25T12:55:38.975Z</time></trkpt><trkpt lat="44.6366" lon="8.4521367"><ele>425.0</ele><time>2026-04-25T12:55:39.974Z</time></trkpt><trkpt lat="44.6364583" lon="8.4521017"><ele>425.0</ele><time>2026-04-25T12:55:40.974Z</time></trkpt><trkpt lat="44.636305" lon="8.452035"><ele>428.3333333333333</ele><time>2026-04-25T12:55:41.975Z</time></trkpt><trkpt lat="44.6361317" lon="8.45202"><ele>431.66666666666663</ele><time>2026-04-25T12:55:42.974Z</time></trkpt><trkpt lat="44.6359533" lon="8.4520717"><ele>435.0</ele><time>2026-04-25T12:55:43.974Z</time></trkpt><trkpt lat="44.63579" lon="8.4522217"><ele>435.0</ele><time>2026-04-25T12:55:44.974Z</time></trkpt><trkpt lat="44.635655" lon="8.452425"><ele>435.0</ele><time>2026-04-25T12:55:45.974Z</time></trkpt><trkpt lat="44.6355517" lon="8.45266"><ele>435.0</ele><time>2026-04-25T12:55:46.975Z</time></trkpt><trkpt lat="44.635455" lon="8.45294"><ele>431.5</ele><time>2026-04-25T12:55:47.974Z</time></trkpt><trkpt lat="44.6353567" lon="8.4532733"><ele>428.0</ele><time>2026-04-25T12:55:48.974Z</time></trkpt><trkpt lat="44.6352817" lon="8.4535867"><ele>438.0</ele><time>2026-04-25T12:55:49.975Z</time></trkpt><trkpt lat="44.635215" lon="8.4538867"><ele>448.0</ele><time>2026-04-25T12:55:50.974Z</time></trkpt><trkpt lat="44.635145" lon="8.454195"><ele>448.0</ele><time>2026-04-25T12:55:51.974Z</time></trkpt><trkpt lat="44.6350783" lon="8.454515"><ele>448.0</ele><time>2026-04-25T12:55:52.974Z</time></trkpt><trkpt lat="44.6350167" lon="8.4548633"><ele>449.5</ele><time>2026-04-25T12:55:53.974Z</time></trkpt><trkpt lat="44.6349483" lon="8.4552083"><ele>451.0</ele><time>2026-04-25T12:55:54.975Z</time></trkpt><trkpt lat="44.6348983" lon="8.4555317"><ele>451.33333333333337</ele><time>2026-04-25T12:55:55.974Z</time></trkpt><trkpt lat="44.6348533" lon="8.4558283"><ele>451.66666666666663</ele><time>2026-04-25T12:55:56.975Z</time></trkpt><trkpt lat="44.6348083" lon="8.45609"><ele>452.0</ele><time>2026-04-25T12:55:57.974Z</time></trkpt><trkpt lat="44.6347633" lon="8.4563367"><ele>452.0</ele><time>2026-04-25T12:55:58.974Z</time></trkpt><trkpt lat="44.6347283" lon="8.4565633"><ele>452.0</ele><time>2026-04-25T12:55:59.974Z</time></trkpt><trkpt lat="44.6346933" lon="8.4567833"><ele>452.0</ele><time>2026-04-25T12:56:00.974Z</time></trkpt><trkpt lat="44.6346583" lon="8.4569967"><ele>451.8</ele><time>2026-04-25T12:56:01.974Z</time></trkpt><trkpt lat="44.6346183" lon="8.4571767"><ele>451.6</ele><time>2026-04-25T12:56:02.974Z</time></trkpt><trkpt lat="44.63457" lon="8.45732"><ele>451.40000000000003</ele><time>2026-04-25T12:56:03.974Z</time></trkpt><trkpt lat="44.6345" lon="8.45741"><ele>451.20000000000005</ele><time>2026-04-25T12:56:04.974Z</time></trkpt><trkpt lat="44.6344083" lon="8.4574417"><ele>451.0</ele><time>2026-04-25T12:56:05.974Z</time></trkpt><trkpt lat="44.634315" lon="8.4574233"><ele>453.0</ele><time>2026-04-25T12:56:06.974Z</time></trkpt><trkpt lat="44.6342117" lon="8.45737"><ele>455.0</ele><time>2026-04-25T12:56:07.974Z</time></trkpt><trkpt lat="44.6340817" lon="8.45729"><ele>457.0</ele><time>2026-04-25T12:56:08.974Z</time></trkpt><trkpt lat="44.6339233" lon="8.4571967"><ele>459.0</ele><time>2026-04-25T12:56:09.974Z</time></trkpt><trkpt lat="44.6337717" lon="8.4570617"><ele>459.66666666666663</ele><time>2026-04-25T12:56:10.975Z</time></trkpt><trkpt lat="44.63361" lon="8.4569117"><ele>460.3333333333333</ele><time>2026-04-25T12:56:11.974Z</time></trkpt><trkpt lat="44.633445" lon="8.4567217"><ele>461.0</ele><time>2026-04-25T12:56:12.974Z</time></trkpt><trkpt lat="44.6332617" lon="8.4564983"><ele>467.0</ele><time>2026-04-25T12:56:13.974Z</time></trkpt><trkpt lat="44.63307" lon="8.4562667"><ele>473.0</ele><time>2026-04-25T12:56:14.975Z</time></trkpt><trkpt lat="44.6328833" lon="8.4560467"><ele>468.66666666666663</ele><time>2026-04-25T12:56:15.974Z</time></trkpt><trkpt lat="44.6327083" lon="8.4558483"><ele>464.33333333333337</ele><time>2026-04-25T12:56:16.975Z</time></trkpt><trkpt lat="44.63253" lon="8.455665"><ele>460.0</ele><time>2026-04-25T12:56:17.974Z</time></trkpt><trkpt lat="44.632365" lon="8.4555133"><ele>464.0</ele><time>2026-04-25T12:56:18.975Z</time></trkpt><trkpt lat="44.63219" lon="8.4554383"><ele>468.0</ele><time>2026-04-25T12:56:19.974Z</time></trkpt><trkpt lat="44.6320217" lon="8.4554"><ele>472.0</ele><time>2026-04-25T12:56:20.974Z</time></trkpt><trkpt lat="44.6318683" lon="8.4554233"><ele>468.6666666666667</ele><time>2026-04-25T12:56:21.974Z</time></trkpt><trkpt lat="44.6317233" lon="8.4555183"><ele>465.33333333333337</ele><time>2026-04-25T12:56:22.974Z</time></trkpt><trkpt lat="44.6315733" lon="8.4556733"><ele>462.0</ele><time>2026-04-25T12:56:23.974Z</time></trkpt><trkpt lat="44.6314283" lon="8.4558483"><ele>462.0</ele><time>2026-04-25T12:56:24.975Z</time></trkpt><trkpt lat="44.6312767" lon="8.4560233"><ele>462.0</ele><time>2026-04-25T12:56:25.974Z</time></trkpt><trkpt lat="44.6311" lon="8.456165"><ele>462.0</ele><time>2026-04-25T12:56:26.975Z</time></trkpt><trkpt lat="44.6309267" lon="8.456265"><ele>460.0</ele><time>2026-04-25T12:56:27.974Z</time></trkpt><trkpt lat="44.630755" lon="8.4563133"><ele>458.0</ele><time>2026-04-25T12:56:28.975Z</time></trkpt><trkpt lat="44.6305967" lon="8.4563133"><ele>456.0</ele><time>2026-04-25T12:56:29.975Z</time></trkpt><trkpt lat="44.6304433" lon="8.4562583"><ele>460.66666666666663</ele><time>2026-04-25T12:56:30.974Z</time></trkpt><trkpt lat="44.63028" lon="8.4561533"><ele>465.3333333333333</ele><time>2026-04-25T12:56:31.974Z</time></trkpt><trkpt lat="44.63011" lon="8.456025"><ele>470.0</ele><time>2026-04-25T12:56:32.974Z</time></trkpt><trkpt lat="44.6299417" lon="8.455935"><ele>470.0</ele><time>2026-04-25T12:56:33.975Z</time></trkpt><trkpt lat="44.6297867" lon="8.4559083"><ele>470.0</ele><time>2026-04-25T12:56:34.974Z</time></trkpt><trkpt lat="44.629635" lon="8.45593"><ele>470.0</ele><time>2026-04-25T12:56:35.975Z</time></trkpt><trkpt lat="44.62948" lon="8.4559733"><ele>469.66666666666663</ele><time>2026-04-25T12:56:36.975Z</time></trkpt><trkpt lat="44.6293533" lon="8.4560883"><ele>469.33333333333337</ele><time>2026-04-25T12:56:37.974Z</time></trkpt><trkpt lat="44.629205" lon="8.456225"><ele>469.0</ele><time>2026-04-25T12:56:38.975Z</time></trkpt><trkpt lat="44.6290217" lon="8.4564617"><ele>463.5</ele><time>2026-04-25T12:56:39.975Z</time></trkpt><trkpt lat="44.6288433" lon="8.456695"><ele>458.0</ele><time>2026-04-25T12:56:40.974Z</time></trkpt><trkpt lat="44.6286633" lon="8.45694"><ele>459.0</ele><time>2026-04-25T12:56:41.974Z</time></trkpt><trkpt lat="44.6284867" lon="8.4571683"><ele>460.0</ele><time>2026-04-25T12:56:42.974Z</time></trkpt><trkpt lat="44.62833" lon="8.4573533"><ele>461.0</ele><time>2026-04-25T12:56:43.975Z</time></trkpt><trkpt lat="44.62818" lon="8.45754"><ele>461.0</ele><time>2026-04-25T12:56:44.975Z</time></trkpt><trkpt lat="44.6280183" lon="8.4577167"><ele>461.0</ele><time>2026-04-25T12:56:45.975Z</time></trkpt><trkpt lat="44.6278367" lon="8.45787"><ele>461.0</ele><time>2026-04-25T12:56:46.975Z</time></trkpt><trkpt lat="44.6276367" lon="8.4580333"><ele>461.0</ele><time>2026-04-25T12:56:47.975Z</time></trkpt><trkpt lat="44.6274467" lon="8.4581833"><ele>461.0</ele><time>2026-04-25T12:56:48.974Z</time></trkpt><trkpt lat="44.627275" lon="8.4583083"><ele>461.0</ele><time>2026-04-25T12:56:49.974Z</time></trkpt><trkpt lat="44.627105" lon="8.4583967"><ele>458.0</ele><time>2026-04-25T12:56:50.974Z</time></trkpt><trkpt lat="44.62695" lon="8.4584233"><ele>455.0</ele><time>2026-04-25T12:56:51.974Z</time></trkpt><trkpt lat="44.6267933" lon="8.4584083"><ele>452.0</ele><time>2026-04-25T12:56:52.974Z</time></trkpt><trkpt lat="44.626635" lon="8.4584283"><ele>452.0</ele><time>2026-04-25T12:56:53.974Z</time></trkpt><trkpt lat="44.62647" lon="8.458505"><ele>452.0</ele><time>2026-04-25T12:56:54.974Z</time></trkpt><trkpt lat="44.6263" lon="8.4586317"><ele>452.0</ele><time>2026-04-25T12:56:55.974Z</time></trkpt><trkpt lat="44.6261417" lon="8.4588017"><ele>453.0</ele><time>2026-04-25T12:56:56.974Z</time></trkpt><trkpt lat="44.626005" lon="8.4589883"><ele>454.0</ele><time>2026-04-25T12:56:57.975Z</time></trkpt><trkpt lat="44.625885" lon="8.45915"><ele>455.0</ele><time>2026-04-25T12:56:58.974Z</time></trkpt><trkpt lat="44.62576" lon="8.4592833"><ele>455.0</ele><time>2026-04-25T12:56:59.975Z</time></trkpt><trkpt lat="44.6256267" lon="8.45935"><ele>455.0</ele><time>2026-04-25T12:57:00.974Z</time></trkpt><trkpt lat="44.6254717" lon="8.45938"><ele>455.0</ele><time>2026-04-25T12:57:01.974Z</time></trkpt><trkpt lat="44.6253083" lon="8.4594383"><ele>456.66666666666663</ele><time>2026-04-25T12:57:02.974Z</time></trkpt><trkpt lat="44.62513" lon="8.4595567"><ele>458.33333333333337</ele><time>2026-04-25T12:57:03.975Z</time></trkpt><trkpt lat="44.6249633" lon="8.4597067"><ele>460.0</ele><time>2026-04-25T12:57:04.974Z</time></trkpt><trkpt lat="44.62485" lon="8.4598583"><ele>460.0</ele><time>2026-04-25T12:57:05.975Z</time></trkpt><trkpt lat="44.6247483" lon="8.45996"><ele>460.0</ele><time>2026-04-25T12:57:06.974Z</time></trkpt><trkpt lat="44.6246517" lon="8.4599933"><ele>460.0</ele><time>2026-04-25T12:57:07.974Z</time></trkpt><trkpt lat="44.6245517" lon="8.4599617"><ele>460.0</ele><time>2026-04-25T12:57:08.974Z</time></trkpt><trkpt lat="44.6244483" lon="8.4599"><ele>460.0</ele><time>2026-04-25T12:57:09.975Z</time></trkpt><trkpt lat="44.6243167" lon="8.4598133"><ele>457.33333333333337</ele><time>2026-04-25T12:57:10.975Z</time></trkpt><trkpt lat="44.6241333" lon="8.4597567"><ele>454.66666666666663</ele><time>2026-04-25T12:57:11.974Z</time></trkpt><trkpt lat="44.6239267" lon="8.4597567"><ele>452.0</ele><time>2026-04-25T12:57:12.974Z</time></trkpt><trkpt lat="44.623735" lon="8.4597883"><ele>446.0</ele><time>2026-04-25T12:57:13.975Z</time></trkpt><trkpt lat="44.6235733" lon="8.4598917"><ele>440.0</ele><time>2026-04-25T12:57:14.974Z</time></trkpt><trkpt lat="44.6234367" lon="8.4600517"><ele>434.0</ele><time>2026-04-25T12:57:15.974Z</time></trkpt><trkpt lat="44.6233017" lon="8.4602233"><ele>434.0</ele><time>2026-04-25T12:57:16.975Z</time></trkpt><trkpt lat="44.6231783" lon="8.460375"><ele>434.0</ele><time>2026-04-25T12:57:17.975Z</time></trkpt><trkpt lat="44.62306" lon="8.4604933"><ele>434.0</ele><time>2026-04-25T12:57:18.974Z</time></trkpt><trkpt lat="44.6229633" lon="8.460635"><ele>434.0</ele><time>2026-04-25T12:57:19.974Z</time></trkpt><trkpt lat="44.6228767" lon="8.4608417"><ele>435.66666666666663</ele><time>2026-04-25T12:57:20.974Z</time></trkpt><trkpt lat="44.6227983" lon="8.4611267"><ele>437.33333333333337</ele><time>2026-04-25T12:57:21.974Z</time></trkpt><trkpt lat="44.6227217" lon="8.461405"><ele>439.0</ele><time>2026-04-25T12:57:22.975Z</time></trkpt><trkpt lat="44.6226083" lon="8.4616617"><ele>445.5</ele><time>2026-04-25T12:57:23.974Z</time></trkpt><trkpt lat="44.62242" lon="8.46191"><ele>452.0</ele><time>2026-04-25T12:57:24.974Z</time></trkpt><trkpt lat="44.62222" lon="8.462185"><ele>447.0</ele><time>2026-04-25T12:57:25.975Z</time></trkpt><trkpt lat="44.62201" lon="8.462465"><ele>442.0</ele><time>2026-04-25T12:57:26.974Z</time></trkpt><trkpt lat="44.6218217" lon="8.46273"><ele>454.0</ele><time>2026-04-25T12:57:27.975Z</time></trkpt><trkpt lat="44.6216367" lon="8.4629633"><ele>466.0</ele><time>2026-04-25T12:57:28.974Z</time></trkpt><trkpt lat="44.62144" lon="8.46317"><ele>466.0</ele><time>2026-04-25T12:57:29.974Z</time></trkpt><trkpt lat="44.62123" lon="8.4633667"><ele>466.0</ele><time>2026-04-25T12:57:30.974Z</time></trkpt><trkpt lat="44.6210167" lon="8.46358"><ele>459.5</ele><time>2026-04-25T12:57:31.974Z</time></trkpt><trkpt lat="44.6207933" lon="8.4637567"><ele>453.0</ele><time>2026-04-25T12:57:32.974Z</time></trkpt><trkpt lat="44.6205767" lon="8.4639367"><ele>453.0</ele><time>2026-04-25T12:57:33.975Z</time></trkpt><trkpt lat="44.6203883" lon="8.46408"><ele>453.0</ele><time>2026-04-25T12:57:34.974Z</time></trkpt><trkpt lat="44.62024" lon="8.46418"><ele>453.0</ele><time>2026-04-25T12:57:35.975Z</time></trkpt><trkpt lat="44.6201017" lon="8.4642317"><ele>447.66666666666663</ele><time>2026-04-25T12:57:36.975Z</time></trkpt><trkpt lat="44.6199617" lon="8.46422"><ele>442.3333333333333</ele><time>2026-04-25T12:57:37.974Z</time></trkpt><trkpt lat="44.6198117" lon="8.4641617"><ele>437.0</ele><time>2026-04-25T12:57:38.974Z</time></trkpt><trkpt lat="44.619645" lon="8.4640567"><ele>438.3333333333333</ele><time>2026-04-25T12:57:39.974Z</time></trkpt><trkpt lat="44.6194667" lon="8.463965"><ele>439.66666666666663</ele><time>2026-04-25T12:57:40.974Z</time></trkpt><trkpt lat="44.619285" lon="8.4639017"><ele>441.0</ele><time>2026-04-25T12:57:41.975Z</time></trkpt><trkpt lat="44.619085" lon="8.4639"><ele>441.0</ele><time>2026-04-25T12:57:42.974Z</time></trkpt><trkpt lat="44.6188583" lon="8.4639483"><ele>441.0</ele><time>2026-04-25T12:57:43.974Z</time></trkpt><trkpt lat="44.6186067" lon="8.4639733"><ele>435.5</ele><time>2026-04-25T12:57:44.973Z</time></trkpt><trkpt lat="44.61832" lon="8.4639383"><ele>430.0</ele><time>2026-04-25T12:57:45.973Z</time></trkpt><trkpt lat="44.6180333" lon="8.4638933"><ele>428.0</ele><time>2026-04-25T12:57:46.973Z</time></trkpt><trkpt lat="44.6177617" lon="8.4638583"><ele>426.0</ele><time>2026-04-25T12:57:47.973Z</time></trkpt><trkpt lat="44.6175217" lon="8.46387"><ele>426.0</ele><time>2026-04-25T12:57:48.973Z</time></trkpt><trkpt lat="44.6172917" lon="8.4638967"><ele>426.0</ele><time>2026-04-25T12:57:49.973Z</time></trkpt><trkpt lat="44.61709" lon="8.46392"><ele>426.0</ele><time>2026-04-25T12:57:50.974Z</time></trkpt><trkpt lat="44.616905" lon="8.464005"><ele>426.66666666666663</ele><time>2026-04-25T12:57:51.973Z</time></trkpt><trkpt lat="44.616765" lon="8.46412"><ele>427.3333333333333</ele><time>2026-04-25T12:57:52.974Z</time></trkpt><trkpt lat="44.6166617" lon="8.4642733"><ele>428.0</ele><time>2026-04-25T12:57:53.973Z</time></trkpt><trkpt lat="44.61657" lon="8.4644917"><ele>428.66666666666663</ele><time>2026-04-25T12:57:54.973Z</time></trkpt><trkpt lat="44.61647" lon="8.4647367"><ele>429.33333333333337</ele><time>2026-04-25T12:57:55.973Z</time></trkpt><trkpt lat="44.6163733" lon="8.4649383"><ele>430.0</ele><time>2026-04-25T12:57:56.973Z</time></trkpt><trkpt lat="44.616235" lon="8.4650817"><ele>431.33333333333337</ele><time>2026-04-25T12:57:57.974Z</time></trkpt><trkpt lat="44.6160583" lon="8.4651583"><ele>432.66666666666663</ele><time>2026-04-25T12:57:58.973Z</time></trkpt><trkpt lat="44.6158783" lon="8.46515"><ele>434.0</ele><time>2026-04-25T12:57:59.973Z</time></trkpt><trkpt lat="44.6156617" lon="8.465105"><ele>434.0</ele><time>2026-04-25T12:58:00.973Z</time></trkpt><trkpt lat="44.615415" lon="8.46505"><ele>434.0</ele><time>2026-04-25T12:58:01.974Z</time></trkpt><trkpt lat="44.6151817" lon="8.4650067"><ele>434.3333333333333</ele><time>2026-04-25T12:58:02.973Z</time></trkpt><trkpt lat="44.6149667" lon="8.46496"><ele>434.66666666666663</ele><time>2026-04-25T12:58:03.973Z</time></trkpt><trkpt lat="44.6147783" lon="8.464895"><ele>435.0</ele><time>2026-04-25T12:58:04.974Z</time></trkpt><trkpt lat="44.614605" lon="8.4648167"><ele>434.5</ele><time>2026-04-25T12:58:05.973Z</time></trkpt><trkpt lat="44.6144483" lon="8.46476"><ele>434.0</ele><time>2026-04-25T12:58:06.973Z</time></trkpt><trkpt lat="44.6143117" lon="8.464715"><ele>433.5</ele><time>2026-04-25T12:58:07.973Z</time></trkpt><trkpt lat="44.6142" lon="8.46463"><ele>433.0</ele><time>2026-04-25T12:58:08.973Z</time></trkpt><trkpt lat="44.61409" lon="8.4644967"><ele>439.0</ele><time>2026-04-25T12:58:09.973Z</time></trkpt><trkpt lat="44.61396" lon="8.4643767"><ele>445.0</ele><time>2026-04-25T12:58:10.973Z</time></trkpt><trkpt lat="44.613755" lon="8.4642817"><ele>451.0</ele><time>2026-04-25T12:58:11.973Z</time></trkpt><trkpt lat="44.6135283" lon="8.4642167"><ele>452.0</ele><time>2026-04-25T12:58:12.973Z</time></trkpt><trkpt lat="44.6133133" lon="8.4642183"><ele>453.0</ele><time>2026-04-25T12:58:13.973Z</time></trkpt><trkpt lat="44.6131417" lon="8.4642483"><ele>454.0</ele><time>2026-04-25T12:58:14.974Z</time></trkpt><trkpt lat="44.6130217" lon="8.4642633"><ele>454.0</ele><time>2026-04-25T12:58:15.974Z</time></trkpt><trkpt lat="44.6129267" lon="8.464195"><ele>454.0</ele><time>2026-04-25T12:58:16.973Z</time></trkpt><trkpt lat="44.6128617" lon="8.464085"><ele>454.0</ele><time>2026-04-25T12:58:17.973Z</time></trkpt><trkpt lat="44.6128067" lon="8.463875"><ele>454.0</ele><time>2026-04-25T12:58:18.973Z</time></trkpt><trkpt lat="44.6127417" lon="8.46367"><ele>450.33333333333337</ele><time>2026-04-25T12:58:19.974Z</time></trkpt><trkpt lat="44.61264" lon="8.4635333"><ele>446.66666666666663</ele><time>2026-04-25T12:58:20.974Z</time></trkpt><trkpt lat="44.6124933" lon="8.463415"><ele>443.0</ele><time>2026-04-25T12:58:21.973Z</time></trkpt><trkpt lat="44.612305" lon="8.4633183"><ele>443.0</ele><time>2026-04-25T12:58:22.973Z</time></trkpt><trkpt lat="44.6120783" lon="8.4632583"><ele>443.0</ele><time>2026-04-25T12:58:23.973Z</time></trkpt><trkpt lat="44.61184" lon="8.4632317"><ele>441.3333333333333</ele><time>2026-04-25T12:58:24.974Z</time></trkpt><trkpt lat="44.6116433" lon="8.4631983"><ele>439.66666666666663</ele><time>2026-04-25T12:58:25.973Z</time></trkpt><trkpt lat="44.611475" lon="8.463145"><ele>438.0</ele><time>2026-04-25T12:58:26.974Z</time></trkpt><trkpt lat="44.61133" lon="8.463095"><ele>438.0</ele><time>2026-04-25T12:58:27.974Z</time></trkpt><trkpt lat="44.6112133" lon="8.463045"><ele>437.99999999999994</ele><time>2026-04-25T12:58:28.973Z</time></trkpt><trkpt lat="44.6111183" lon="8.463005"><ele>437.99999999999994</ele><time>2026-04-25T12:58:29.973Z</time></trkpt><trkpt lat="44.6110267" lon="8.462985"><ele>438.0</ele><time>2026-04-25T12:58:30.974Z</time></trkpt><trkpt lat="44.6109183" lon="8.4629967"><ele>438.0</ele><time>2026-04-25T12:58:31.973Z</time></trkpt><trkpt lat="44.6107967" lon="8.4630467"><ele>437.75</ele><time>2026-04-25T12:58:32.973Z</time></trkpt><trkpt lat="44.61067" lon="8.4630933"><ele>437.5</ele><time>2026-04-25T12:58:33.973Z</time></trkpt><trkpt lat="44.610525" lon="8.4631067"><ele>437.25</ele><time>2026-04-25T12:58:34.973Z</time></trkpt><trkpt lat="44.6103717" lon="8.4630867"><ele>437.0</ele><time>2026-04-25T12:58:35.973Z</time></trkpt><trkpt lat="44.6102117" lon="8.4630517"><ele>437.0</ele><time>2026-04-25T12:58:36.973Z</time></trkpt><trkpt lat="44.6100717" lon="8.4630817"><ele>437.0</ele><time>2026-04-25T12:58:37.974Z</time></trkpt><trkpt lat="44.6099367" lon="8.4631817"><ele>437.0</ele><time>2026-04-25T12:58:38.974Z</time></trkpt><trkpt lat="44.6098133" lon="8.4633117"><ele>437.0</ele><time>2026-04-25T12:58:39.974Z</time></trkpt><trkpt lat="44.6096867" lon="8.46341"><ele>437.0</ele><time>2026-04-25T12:58:40.974Z</time></trkpt><trkpt lat="44.60956" lon="8.463445"><ele>437.0</ele><time>2026-04-25T12:58:41.973Z</time></trkpt><trkpt lat="44.6094083" lon="8.4634267"><ele>437.0</ele><time>2026-04-25T12:58:42.974Z</time></trkpt><trkpt lat="44.6092283" lon="8.46341"><ele>437.3333333333333</ele><time>2026-04-25T12:58:43.973Z</time></trkpt><trkpt lat="44.609015" lon="8.4634567"><ele>437.66666666666663</ele><time>2026-04-25T12:58:44.973Z</time></trkpt><trkpt lat="44.608815" lon="8.4635567"><ele>438.0</ele><time>2026-04-25T12:58:45.973Z</time></trkpt><trkpt lat="44.6086017" lon="8.46367"><ele>438.0</ele><time>2026-04-25T12:58:46.973Z</time></trkpt><trkpt lat="44.6084067" lon="8.4637533"><ele>438.0</ele><time>2026-04-25T12:58:47.974Z</time></trkpt><trkpt lat="44.6082517" lon="8.46386"><ele>438.0</ele><time>2026-04-25T12:58:48.973Z</time></trkpt><trkpt lat="44.6081183" lon="8.4640283"><ele>436.66666666666663</ele><time>2026-04-25T12:58:49.973Z</time></trkpt><trkpt lat="44.6080133" lon="8.46425"><ele>435.3333333333333</ele><time>2026-04-25T12:58:50.973Z</time></trkpt><trkpt lat="44.6079267" lon="8.4644333"><ele>434.0</ele><time>2026-04-25T12:58:51.973Z</time></trkpt><trkpt lat="44.60785" lon="8.4645883"><ele>433.75</ele><time>2026-04-25T12:58:52.973Z</time></trkpt><trkpt lat="44.6077433" lon="8.46471"><ele>433.5</ele><time>2026-04-25T12:58:53.974Z</time></trkpt><trkpt lat="44.6076233" lon="8.4648317"><ele>433.25</ele><time>2026-04-25T12:58:54.974Z</time></trkpt><trkpt lat="44.6074967" lon="8.4649167"><ele>433.0</ele><time>2026-04-25T12:58:55.974Z</time></trkpt><trkpt lat="44.6073567" lon="8.4649383"><ele>433.0</ele><time>2026-04-25T12:58:56.973Z</time></trkpt><trkpt lat="44.6071733" lon="8.4649167"><ele>433.0</ele><time>2026-04-25T12:58:57.973Z</time></trkpt><trkpt lat="44.606995" lon="8.46486"><ele>433.0</ele><time>2026-04-25T12:58:58.973Z</time></trkpt><trkpt lat="44.6068333" lon="8.464775"><ele>430.0</ele><time>2026-04-25T12:58:59.973Z</time></trkpt><trkpt lat="44.606665" lon="8.4646417"><ele>427.0</ele><time>2026-04-25T12:59:00.973Z</time></trkpt><trkpt lat="44.606495" lon="8.4644817"><ele>424.0</ele><time>2026-04-25T12:59:01.973Z</time></trkpt><trkpt lat="44.6063417" lon="8.4643267"><ele>429.6666666666667</ele><time>2026-04-25T12:59:02.974Z</time></trkpt><trkpt lat="44.60625" lon="8.4641633"><ele>435.33333333333337</ele><time>2026-04-25T12:59:03.973Z</time></trkpt><trkpt lat="44.6061833" lon="8.46394"><ele>441.0</ele><time>2026-04-25T12:59:04.974Z</time></trkpt><trkpt lat="44.606105" lon="8.4637517"><ele>441.0</ele><time>2026-04-25T12:59:05.973Z</time></trkpt><trkpt lat="44.6059833" lon="8.4635783"><ele>441.0</ele><time>2026-04-25T12:59:06.974Z</time></trkpt><trkpt lat="44.60585" lon="8.463385"><ele>441.0</ele><time>2026-04-25T12:59:07.974Z</time></trkpt><trkpt lat="44.6056817" lon="8.4632333"><ele>441.0</ele><time>2026-04-25T12:59:08.974Z</time></trkpt><trkpt lat="44.605485" lon="8.4631317"><ele>441.0</ele><time>2026-04-25T12:59:09.973Z</time></trkpt><trkpt lat="44.60528" lon="8.4630933"><ele>441.0</ele><time>2026-04-25T12:59:10.973Z</time></trkpt><trkpt lat="44.60509" lon="8.4630667"><ele>439.33333333333337</ele><time>2026-04-25T12:59:11.973Z</time></trkpt><trkpt lat="44.604905" lon="8.46301"><ele>437.6666666666667</ele><time>2026-04-25T12:59:12.974Z</time></trkpt><trkpt lat="44.6047233" lon="8.4629533"><ele>436.0</ele><time>2026-04-25T12:59:13.974Z</time></trkpt><trkpt lat="44.6045417" lon="8.4629417"><ele>434.6666666666667</ele><time>2026-04-25T12:59:14.973Z</time></trkpt><trkpt lat="44.6043367" lon="8.4629733"><ele>433.33333333333337</ele><time>2026-04-25T12:59:15.973Z</time></trkpt><trkpt lat="44.6041367" lon="8.463035"><ele>432.0</ele><time>2026-04-25T12:59:16.973Z</time></trkpt><trkpt lat="44.6039533" lon="8.46315"><ele>432.0</ele><time>2026-04-25T12:59:17.973Z</time></trkpt><trkpt lat="44.6038183" lon="8.4632867"><ele>432.0</ele><time>2026-04-25T12:59:18.974Z</time></trkpt><trkpt lat="44.6036967" lon="8.463395"><ele>432.0</ele><time>2026-04-25T12:59:19.973Z</time></trkpt><trkpt lat="44.6035767" lon="8.4634383"><ele>432.0</ele><time>2026-04-25T12:59:20.973Z</time></trkpt><trkpt lat="44.6034417" lon="8.4633833"><ele>436.33333333333337</ele><time>2026-04-25T12:59:21.973Z</time></trkpt><trkpt lat="44.6033167" lon="8.4632483"><ele>440.6666666666667</ele><time>2026-04-25T12:59:22.973Z</time></trkpt><trkpt lat="44.6031967" lon="8.46309"><ele>445.0</ele><time>2026-04-25T12:59:23.973Z</time></trkpt><trkpt lat="44.6030983" lon="8.462965"><ele>445.0</ele><time>2026-04-25T12:59:24.974Z</time></trkpt><trkpt lat="44.60302" lon="8.4629267"><ele>445.0</ele><time>2026-04-25T12:59:25.973Z</time></trkpt><trkpt lat="44.602945" lon="8.462975"><ele>445.0</ele><time>2026-04-25T12:59:26.973Z</time></trkpt><trkpt lat="44.6029" lon="8.463105"><ele>445.0</ele><time>2026-04-25T12:59:27.973Z</time></trkpt><trkpt lat="44.602885" lon="8.4632867"><ele>445.0</ele><time>2026-04-25T12:59:28.973Z</time></trkpt><trkpt lat="44.6028633" lon="8.4635017"><ele>446.0</ele><time>2026-04-25T12:59:29.973Z</time></trkpt><trkpt lat="44.60281" lon="8.463725"><ele>447.0</ele><time>2026-04-25T12:59:30.973Z</time></trkpt><trkpt lat="44.6027233" lon="8.463935"><ele>448.0</ele><time>2026-04-25T12:59:31.973Z</time></trkpt><trkpt lat="44.6026483" lon="8.4641617"><ele>448.0</ele><time>2026-04-25T12:59:32.974Z</time></trkpt><trkpt lat="44.6026" lon="8.4644117"><ele>448.0</ele><time>2026-04-25T12:59:33.974Z</time></trkpt><trkpt lat="44.60257" lon="8.464645"><ele>448.0</ele><time>2026-04-25T12:59:34.973Z</time></trkpt><trkpt lat="44.6025233" lon="8.46485"><ele>451.6666666666667</ele><time>2026-04-25T12:59:35.973Z</time></trkpt><trkpt lat="44.602415" lon="8.4650367"><ele>455.33333333333337</ele><time>2026-04-25T12:59:36.973Z</time></trkpt><trkpt lat="44.60227" lon="8.46521"><ele>459.0</ele><time>2026-04-25T12:59:37.973Z</time></trkpt><trkpt lat="44.6021267" lon="8.4653517"><ele>465.33333333333337</ele><time>2026-04-25T12:59:38.973Z</time></trkpt><trkpt lat="44.6019533" lon="8.4654517"><ele>471.6666666666667</ele><time>2026-04-25T12:59:39.973Z</time></trkpt><trkpt lat="44.6017817" lon="8.4655"><ele>478.0</ele><time>2026-04-25T12:59:40.974Z</time></trkpt><trkpt lat="44.60159" lon="8.4655"><ele>478.0</ele><time>2026-04-25T12:59:41.973Z</time></trkpt><trkpt lat="44.6014" lon="8.4654683"><ele>478.0</ele><time>2026-04-25T12:59:42.973Z</time></trkpt><trkpt lat="44.6012317" lon="8.4654483"><ele>478.0</ele><time>2026-04-25T12:59:43.973Z</time></trkpt><trkpt lat="44.6010833" lon="8.46538"><ele>478.0</ele><time>2026-04-25T12:59:44.973Z</time></trkpt><trkpt lat="44.6009367" lon="8.4652433"><ele>478.0</ele><time>2026-04-25T12:59:45.973Z</time></trkpt><trkpt lat="44.6008017" lon="8.46513"><ele>478.0</ele><time>2026-04-25T12:59:46.974Z</time></trkpt><trkpt lat="44.60069" lon="8.465045"><ele>478.0</ele><time>2026-04-25T12:59:47.974Z</time></trkpt><trkpt lat="44.6005483" lon="8.4650017"><ele>478.0</ele><time>2026-04-25T12:59:48.973Z</time></trkpt><trkpt lat="44.6004117" lon="8.4650017"><ele>478.0</ele><time>2026-04-25T12:59:49.973Z</time></trkpt><trkpt lat="44.6002617" lon="8.4650617"><ele>478.0</ele><time>2026-04-25T12:59:50.974Z</time></trkpt><trkpt lat="44.6000917" lon="8.4651817"><ele>476.6666666666667</ele><time>2026-04-25T12:59:51.973Z</time></trkpt><trkpt lat="44.5999367" lon="8.4653317"><ele>475.33333333333337</ele><time>2026-04-25T12:59:52.973Z</time></trkpt><trkpt lat="44.5997783" lon="8.46546"><ele>474.0</ele><time>2026-04-25T12:59:53.973Z</time></trkpt><trkpt lat="44.599605" lon="8.4655367"><ele>475.0</ele><time>2026-04-25T12:59:54.973Z</time></trkpt><trkpt lat="44.599425" lon="8.46554"><ele>476.0</ele><time>2026-04-25T12:59:55.973Z</time></trkpt><trkpt lat="44.5992217" lon="8.4654717"><ele>477.0</ele><time>2026-04-25T12:59:56.973Z</time></trkpt><trkpt lat="44.5989733" lon="8.4653767"><ele>475.5</ele><time>2026-04-25T12:59:57.973Z</time></trkpt><trkpt lat="44.5987167" lon="8.4652833"><ele>474.0</ele><time>2026-04-25T12:59:58.973Z</time></trkpt><trkpt lat="44.5984883" lon="8.4652317"><ele>474.0</ele><time>2026-04-25T12:59:59.973Z</time></trkpt><trkpt lat="44.598275" lon="8.465225"><ele>474.0</ele><time>2026-04-25T13:00:00.973Z</time></trkpt><trkpt lat="44.5980767" lon="8.4652717"><ele>474.0</ele><time>2026-04-25T13:00:01.973Z</time></trkpt><trkpt lat="44.597905" lon="8.4653633"><ele>476.5</ele><time>2026-04-25T13:00:02.973Z</time></trkpt><trkpt lat="44.5977817" lon="8.4654533"><ele>479.0</ele><time>2026-04-25T13:00:03.973Z</time></trkpt><trkpt lat="44.5976783" lon="8.465545"><ele>481.5</ele><time>2026-04-25T13:00:04.973Z</time></trkpt><trkpt lat="44.59758" lon="8.4656367"><ele>484.0</ele><time>2026-04-25T13:00:05.973Z</time></trkpt><trkpt lat="44.5975017" lon="8.465715"><ele>484.00000000000006</ele><time>2026-04-25T13:00:06.974Z</time></trkpt><trkpt lat="44.5974333" lon="8.4657767"><ele>484.0</ele><time>2026-04-25T13:00:07.973Z</time></trkpt><trkpt lat="44.5973483" lon="8.4658167"><ele>484.0</ele><time>2026-04-25T13:00:08.973Z</time></trkpt><trkpt lat="44.597255" lon="8.4658217"><ele>484.0</ele><time>2026-04-25T13:00:09.973Z</time></trkpt><trkpt lat="44.5971683" lon="8.4657983"><ele>484.00000000000006</ele><time>2026-04-25T13:00:10.973Z</time></trkpt><trkpt lat="44.5970833" lon="8.465745"><ele>484.0</ele><time>2026-04-25T13:00:11.974Z</time></trkpt><trkpt lat="44.5970083" lon="8.465665"><ele>483.4</ele><time>2026-04-25T13:00:12.973Z</time></trkpt><trkpt lat="44.596935" lon="8.465565"><ele>482.79999999999995</ele><time>2026-04-25T13:00:13.974Z</time></trkpt><trkpt lat="44.59687" lon="8.4654633"><ele>482.20000000000005</ele><time>2026-04-25T13:00:14.973Z</time></trkpt><trkpt lat="44.5968167" lon="8.4653617"><ele>481.6</ele><time>2026-04-25T13:00:15.973Z</time></trkpt><trkpt lat="44.5967583" lon="8.4652567"><ele>481.0</ele><time>2026-04-25T13:00:16.973Z</time></trkpt><trkpt lat="44.59669" lon="8.4651583"><ele>483.6666666666667</ele><time>2026-04-25T13:00:17.974Z</time></trkpt><trkpt lat="44.5966217" lon="8.4650783"><ele>486.33333333333337</ele><time>2026-04-25T13:00:18.974Z</time></trkpt><trkpt lat="44.5965383" lon="8.4650117"><ele>489.0</ele><time>2026-04-25T13:00:19.973Z</time></trkpt><trkpt lat="44.5964533" lon="8.4649933"><ele>491.66666666666663</ele><time>2026-04-25T13:00:20.974Z</time></trkpt><trkpt lat="44.5963683" lon="8.4649967"><ele>494.3333333333333</ele><time>2026-04-25T13:00:21.973Z</time></trkpt><trkpt lat="44.59629" lon="8.4649983"><ele>497.0</ele><time>2026-04-25T13:00:22.974Z</time></trkpt><trkpt lat="44.5962017" lon="8.465005"><ele>500.8</ele><time>2026-04-25T13:00:23.973Z</time></trkpt><trkpt lat="44.5961067" lon="8.4650317"><ele>504.6</ele><time>2026-04-25T13:00:24.973Z</time></trkpt><trkpt lat="44.596015" lon="8.4650817"><ele>508.40000000000003</ele><time>2026-04-25T13:00:25.973Z</time></trkpt><trkpt lat="44.5959467" lon="8.4651717"><ele>512.2</ele><time>2026-04-25T13:00:26.973Z</time></trkpt><trkpt lat="44.5958783" lon="8.4652717"><ele>516.0</ele><time>2026-04-25T13:00:27.973Z</time></trkpt><trkpt lat="44.59581" lon="8.4653567"><ele>516.0</ele><time>2026-04-25T13:00:28.973Z</time></trkpt><trkpt lat="44.5957333" lon="8.465415"><ele>516.0</ele><time>2026-04-25T13:00:29.973Z</time></trkpt><trkpt lat="44.5956417" lon="8.4654433"><ele>516.0</ele><time>2026-04-25T13:00:30.974Z</time></trkpt><trkpt lat="44.5955483" lon="8.4654433"><ele>516.0</ele><time>2026-04-25T13:00:31.973Z</time></trkpt><trkpt lat="44.5954467" lon="8.4654267"><ele>516.0</ele><time>2026-04-25T13:00:32.974Z</time></trkpt><trkpt lat="44.595355" lon="8.4653867"><ele>516.1666666666666</ele><time>2026-04-25T13:00:33.974Z</time></trkpt><trkpt lat="44.5952783" lon="8.4653233"><ele>516.3333333333334</ele><time>2026-04-25T13:00:34.973Z</time></trkpt><trkpt lat="44.59522" lon="8.46524"><ele>516.5</ele><time>2026-04-25T13:00:35.973Z</time></trkpt><trkpt lat="44.595175" lon="8.4651417"><ele>516.6666666666667</ele><time>2026-04-25T13:00:36.973Z</time></trkpt><trkpt lat="44.59513" lon="8.46503"><ele>516.8333333333334</ele><time>2026-04-25T13:00:37.973Z</time></trkpt><trkpt lat="44.5950833" lon="8.4649233"><ele>517.0</ele><time>2026-04-25T13:00:38.973Z</time></trkpt><trkpt lat="44.5950333" lon="8.4648117"><ele>517.0</ele><time>2026-04-25T13:00:39.973Z</time></trkpt><trkpt lat="44.5949717" lon="8.46472"><ele>517.0</ele><time>2026-04-25T13:00:40.973Z</time></trkpt><trkpt lat="44.5948883" lon="8.4646717"><ele>517.0</ele><time>2026-04-25T13:00:41.973Z</time></trkpt><trkpt lat="44.5947883" lon="8.464645"><ele>517.0</ele><time>2026-04-25T13:00:42.973Z</time></trkpt><trkpt lat="44.5946783" lon="8.4646017"><ele>517.0</ele><time>2026-04-25T13:00:43.974Z</time></trkpt><trkpt lat="44.5945733" lon="8.4645467"><ele>520.0</ele><time>2026-04-25T13:00:44.973Z</time></trkpt><trkpt lat="44.5944617" lon="8.4644633"><ele>523.0</ele><time>2026-04-25T13:00:45.974Z</time></trkpt><trkpt lat="44.5943517" lon="8.4643833"><ele>526.0</ele><time>2026-04-25T13:00:46.973Z</time></trkpt><trkpt lat="44.5942467" lon="8.4643367"><ele>529.0</ele><time>2026-04-25T13:00:47.973Z</time></trkpt><trkpt lat="44.5941483" lon="8.4642833"><ele>529.0</ele><time>2026-04-25T13:00:48.973Z</time></trkpt><trkpt lat="44.594065" lon="8.4642183"><ele>529.0</ele><time>2026-04-25T13:00:49.974Z</time></trkpt><trkpt lat="44.593985" lon="8.4641483"><ele>529.0</ele><time>2026-04-25T13:00:50.973Z</time></trkpt><trkpt lat="44.5939083" lon="8.4640517"><ele>529.0</ele><time>2026-04-25T13:00:51.974Z</time></trkpt><trkpt lat="44.59382" lon="8.4639083"><ele>529.0</ele><time>2026-04-25T13:00:52.974Z</time></trkpt><trkpt lat="44.593705" lon="8.4637"><ele>528.0</ele><time>2026-04-25T13:00:53.974Z</time></trkpt><trkpt lat="44.5935683" lon="8.4634333"><ele>527.0</ele><time>2026-04-25T13:00:54.973Z</time></trkpt><trkpt lat="44.59342" lon="8.4631017"><ele>535.5</ele><time>2026-04-25T13:00:55.973Z</time></trkpt><trkpt lat="44.593265" lon="8.4626817"><ele>544.0</ele><time>2026-04-25T13:00:56.973Z</time></trkpt><trkpt lat="44.5931167" lon="8.462325"><ele>553.0</ele><time>2026-04-25T13:00:57.973Z</time></trkpt><trkpt lat="44.59299" lon="8.4620333"><ele>562.0</ele><time>2026-04-25T13:00:58.974Z</time></trkpt><trkpt lat="44.5928633" lon="8.4618"><ele>557.0</ele><time>2026-04-25T13:00:59.973Z</time></trkpt><trkpt lat="44.5927383" lon="8.4615983"><ele>552.0</ele><time>2026-04-25T13:01:00.973Z</time></trkpt><trkpt lat="44.5926317" lon="8.4614567"><ele>547.0</ele><time>2026-04-25T13:01:01.973Z</time></trkpt><trkpt lat="44.5924833" lon="8.4613467"><ele>553.6666666666667</ele><time>2026-04-25T13:01:02.974Z</time></trkpt><trkpt lat="44.5923283" lon="8.461275"><ele>560.3333333333334</ele><time>2026-04-25T13:01:03.974Z</time></trkpt><trkpt lat="44.5921217" lon="8.46126"><ele>567.0</ele><time>2026-04-25T13:01:04.973Z</time></trkpt><trkpt lat="44.5919017" lon="8.4612633"><ele>561.6666666666666</ele><time>2026-04-25T13:01:05.973Z</time></trkpt><trkpt lat="44.591715" lon="8.4612833"><ele>556.3333333333333</ele><time>2026-04-25T13:01:06.973Z</time></trkpt><trkpt lat="44.5915333" lon="8.461325"><ele>551.0</ele><time>2026-04-25T13:01:07.973Z</time></trkpt><trkpt lat="44.5913633" lon="8.4613933"><ele>551.0</ele><time>2026-04-25T13:01:08.974Z</time></trkpt><trkpt lat="44.5912267" lon="8.4614717"><ele>551.0</ele><time>2026-04-25T13:01:09.973Z</time></trkpt><trkpt lat="44.5911133" lon="8.46149"><ele>551.0</ele><time>2026-04-25T13:01:10.973Z</time></trkpt><trkpt lat="44.5909883" lon="8.46148"><ele>551.0</ele><time>2026-04-25T13:01:11.973Z</time></trkpt><trkpt lat="44.5908467" lon="8.4614167"><ele>551.6666666666666</ele><time>2026-04-25T13:01:12.973Z</time></trkpt><trkpt lat="44.590695" lon="8.4612867"><ele>552.3333333333334</ele><time>2026-04-25T13:01:13.973Z</time></trkpt><trkpt lat="44.5905167" lon="8.46112"><ele>553.0</ele><time>2026-04-25T13:01:14.973Z</time></trkpt><trkpt lat="44.59032" lon="8.4609117"><ele>558.6666666666667</ele><time>2026-04-25T13:01:15.973Z</time></trkpt><trkpt lat="44.5901367" lon="8.4607567"><ele>564.3333333333334</ele><time>2026-04-25T13:01:16.973Z</time></trkpt><trkpt lat="44.5899833" lon="8.460625"><ele>570.0</ele><time>2026-04-25T13:01:17.973Z</time></trkpt><trkpt lat="44.58985" lon="8.4604917"><ele>574.0</ele><time>2026-04-25T13:01:18.973Z</time></trkpt><trkpt lat="44.5897233" lon="8.4604033"><ele>578.0</ele><time>2026-04-25T13:01:19.973Z</time></trkpt><trkpt lat="44.5895767" lon="8.4603433"><ele>582.0</ele><time>2026-04-25T13:01:20.973Z</time></trkpt><trkpt lat="44.58943" lon="8.4603267"><ele>586.0</ele><time>2026-04-25T13:01:21.973Z</time></trkpt><trkpt lat="44.589275" lon="8.4603417"><ele>586.0</ele><time>2026-04-25T13:01:22.973Z</time></trkpt><trkpt lat="44.5891767" lon="8.460325"><ele>586.0</ele><time>2026-04-25T13:01:23.973Z</time></trkpt><trkpt lat="44.5891" lon="8.460265"><ele>586.0</ele><time>2026-04-25T13:01:24.973Z</time></trkpt><trkpt lat="44.5890567" lon="8.4601983"><ele>586.0</ele><time>2026-04-25T13:01:25.973Z</time></trkpt><trkpt lat="44.5891217" lon="8.46012"><ele>586.0</ele><time>2026-04-25T13:01:27.974Z</time></trkpt><trkpt lat="44.5892767" lon="8.4601267"><ele>586.0</ele><time>2026-04-25T13:01:29.974Z</time></trkpt><trkpt lat="44.5894117" lon="8.4601633"><ele>586.0</ele><time>2026-04-25T13:01:30.973Z</time></trkpt><trkpt lat="44.5895533" lon="8.46017"><ele>586.0</ele><time>2026-04-25T13:01:31.974Z</time></trkpt><trkpt lat="44.5897083" lon="8.460165"><ele>586.0</ele><time>2026-04-25T13:01:32.973Z</time></trkpt><trkpt lat="44.5898633" lon="8.4601817"><ele>590.0</ele><time>2026-04-25T13:01:33.973Z</time></trkpt><trkpt lat="44.5900233" lon="8.4602183"><ele>594.0</ele><time>2026-04-25T13:01:34.974Z</time></trkpt><trkpt lat="44.5901883" lon="8.4603317"><ele>598.0</ele><time>2026-04-25T13:01:35.973Z</time></trkpt><trkpt lat="44.5902967" lon="8.4604383"><ele>598.0</ele><time>2026-04-25T13:01:36.973Z</time></trkpt><trkpt lat="44.5903783" lon="8.4605217"><ele>598.0</ele><time>2026-04-25T13:01:37.974Z</time></trkpt><trkpt lat="44.590465" lon="8.460515"><ele>598.0</ele><time>2026-04-25T13:01:38.973Z</time></trkpt><trkpt lat="44.59049" lon="8.46039"><ele>598.0</ele><time>2026-04-25T13:01:40.974Z</time></trkpt><trkpt lat="44.5904467" lon="8.4602667"><ele>598.0</ele><time>2026-04-25T13:01:41.973Z</time></trkpt><trkpt lat="44.59034" lon="8.46018"><ele>598.0</ele><time>2026-04-25T13:01:42.973Z</time></trkpt><trkpt lat="44.59017" lon="8.460125"><ele>598.0</ele><time>2026-04-25T13:01:43.974Z</time></trkpt><trkpt lat="44.58996" lon="8.46007"><ele>598.0</ele><time>2026-04-25T13:01:44.974Z</time></trkpt><trkpt lat="44.5897617" lon="8.4599883"><ele>598.0</ele><time>2026-04-25T13:01:45.974Z</time></trkpt><trkpt lat="44.5895667" lon="8.4598833"><ele>598.0</ele><time>2026-04-25T13:01:46.973Z</time></trkpt><trkpt lat="44.589395" lon="8.45975"><ele>598.0</ele><time>2026-04-25T13:01:47.973Z</time></trkpt><trkpt lat="44.58924" lon="8.4596217"><ele>601.0</ele><time>2026-04-25T13:01:48.973Z</time></trkpt><trkpt lat="44.5890817" lon="8.4595183"><ele>604.0</ele><time>2026-04-25T13:01:49.973Z</time></trkpt><trkpt lat="44.5889067" lon="8.4594417"><ele>607.0</ele><time>2026-04-25T13:01:50.974Z</time></trkpt><trkpt lat="44.588755" lon="8.459355"><ele>605.75</ele><time>2026-04-25T13:01:51.973Z</time></trkpt><trkpt lat="44.58861" lon="8.4592717"><ele>604.5</ele><time>2026-04-25T13:01:52.974Z</time></trkpt><trkpt lat="44.5884733" lon="8.4591917"><ele>603.25</ele><time>2026-04-25T13:01:53.973Z</time></trkpt><trkpt lat="44.5883383" lon="8.4591467"><ele>602.0</ele><time>2026-04-25T13:01:54.973Z</time></trkpt><trkpt lat="44.5882067" lon="8.4591483"><ele>602.0</ele><time>2026-04-25T13:01:55.974Z</time></trkpt><trkpt lat="44.5880733" lon="8.4591817"><ele>602.0</ele><time>2026-04-25T13:01:56.973Z</time></trkpt><trkpt lat="44.5879633" lon="8.4592867"><ele>602.0</ele><time>2026-04-25T13:01:57.973Z</time></trkpt><trkpt lat="44.58785" lon="8.459425"><ele>602.0</ele><time>2026-04-25T13:01:58.973Z</time></trkpt><trkpt lat="44.5877667" lon="8.45959"><ele>602.0</ele><time>2026-04-25T13:01:59.974Z</time></trkpt><trkpt lat="44.5876733" lon="8.4597267"><ele>602.0</ele><time>2026-04-25T13:02:00.974Z</time></trkpt><trkpt lat="44.5875733" lon="8.45985"><ele>602.0</ele><time>2026-04-25T13:02:01.973Z</time></trkpt><trkpt lat="44.5874733" lon="8.4599683"><ele>602.0</ele><time>2026-04-25T13:02:02.973Z</time></trkpt><trkpt lat="44.5873767" lon="8.46009"><ele>602.0</ele><time>2026-04-25T13:02:03.974Z</time></trkpt><trkpt lat="44.587295" lon="8.4602017"><ele>602.0</ele><time>2026-04-25T13:02:04.974Z</time></trkpt><trkpt lat="44.5872167" lon="8.4602883"><ele>602.0</ele><time>2026-04-25T13:02:05.974Z</time></trkpt><trkpt lat="44.587125" lon="8.4603267"><ele>602.0</ele><time>2026-04-25T13:02:06.973Z</time></trkpt><trkpt lat="44.5870467" lon="8.4603367"><ele>602.0</ele><time>2026-04-25T13:02:07.973Z</time></trkpt><trkpt lat="44.5869433" lon="8.4603217"><ele>602.75</ele><time>2026-04-25T13:02:08.973Z</time></trkpt><trkpt lat="44.58682" lon="8.4602967"><ele>603.5</ele><time>2026-04-25T13:02:09.973Z</time></trkpt><trkpt lat="44.5866767" lon="8.46027"><ele>604.25</ele><time>2026-04-25T13:02:10.973Z</time></trkpt><trkpt lat="44.58653" lon="8.4602533"><ele>605.0</ele><time>2026-04-25T13:02:11.973Z</time></trkpt><trkpt lat="44.58638" lon="8.4602333"><ele>605.0</ele><time>2026-04-25T13:02:12.973Z</time></trkpt><trkpt lat="44.5862317" lon="8.460215"><ele>605.0</ele><time>2026-04-25T13:02:13.973Z</time></trkpt><trkpt lat="44.5860933" lon="8.4602117"><ele>605.0</ele><time>2026-04-25T13:02:14.973Z</time></trkpt><trkpt lat="44.5859433" lon="8.4602017"><ele>605.0</ele><time>2026-04-25T13:02:15.974Z</time></trkpt><trkpt lat="44.5857967" lon="8.46025"><ele>606.3333333333333</ele><time>2026-04-25T13:02:16.973Z</time></trkpt><trkpt lat="44.5856417" lon="8.4603233"><ele>607.6666666666666</ele><time>2026-04-25T13:02:17.973Z</time></trkpt><trkpt lat="44.5854917" lon="8.4604017"><ele>609.0</ele><time>2026-04-25T13:02:18.973Z</time></trkpt><trkpt lat="44.585345" lon="8.4604867"><ele>603.0</ele><time>2026-04-25T13:02:19.972Z</time></trkpt><trkpt lat="44.5852" lon="8.46058"><ele>597.0</ele><time>2026-04-25T13:02:20.972Z</time></trkpt><trkpt lat="44.5850683" lon="8.460705"><ele>591.0</ele><time>2026-04-25T13:02:21.973Z</time></trkpt><trkpt lat="44.5849567" lon="8.4608117"><ele>591.0</ele><time>2026-04-25T13:02:22.973Z</time></trkpt><trkpt lat="44.5848483" lon="8.4609067"><ele>591.0</ele><time>2026-04-25T13:02:23.973Z</time></trkpt><trkpt lat="44.5847433" lon="8.4609467"><ele>591.0</ele><time>2026-04-25T13:02:24.972Z</time></trkpt><trkpt lat="44.584615" lon="8.4609083"><ele>591.0</ele><time>2026-04-25T13:02:25.972Z</time></trkpt><trkpt lat="44.5844633" lon="8.46085"><ele>590.0</ele><time>2026-04-25T13:02:26.973Z</time></trkpt><trkpt lat="44.5842583" lon="8.4607983"><ele>589.0</ele><time>2026-04-25T13:02:27.972Z</time></trkpt><trkpt lat="44.5840317" lon="8.4607833"><ele>588.0</ele><time>2026-04-25T13:02:28.973Z</time></trkpt><trkpt lat="44.583785" lon="8.4607167"><ele>584.3333333333334</ele><time>2026-04-25T13:02:29.973Z</time></trkpt><trkpt lat="44.5835617" lon="8.4606833"><ele>580.6666666666667</ele><time>2026-04-25T13:02:30.973Z</time></trkpt><trkpt lat="44.583345" lon="8.4606217"><ele>577.0</ele><time>2026-04-25T13:02:31.972Z</time></trkpt><trkpt lat="44.583145" lon="8.4605317"><ele>573.0</ele><time>2026-04-25T13:02:32.973Z</time></trkpt><trkpt lat="44.5829567" lon="8.4604333"><ele>569.0</ele><time>2026-04-25T13:02:33.972Z</time></trkpt><trkpt lat="44.582785" lon="8.4603667"><ele>565.0</ele><time>2026-04-25T13:02:34.973Z</time></trkpt><trkpt lat="44.58263" lon="8.4603083"><ele>565.0</ele><time>2026-04-25T13:02:35.973Z</time></trkpt><trkpt lat="44.5825333" lon="8.460265"><ele>565.0</ele><time>2026-04-25T13:02:36.973Z</time></trkpt><trkpt lat="44.5824433" lon="8.4602233"><ele>565.0</ele><time>2026-04-25T13:02:37.972Z</time></trkpt><trkpt lat="44.5823933" lon="8.4601"><ele>565.0</ele><time>2026-04-25T13:02:38.972Z</time></trkpt><trkpt lat="44.58237" lon="8.4599467"><ele>565.0</ele><time>2026-04-25T13:02:39.973Z</time></trkpt><trkpt lat="44.58245" lon="8.4597583"><ele>563.0</ele><time>2026-04-25T13:02:40.972Z</time></trkpt><trkpt lat="44.5825467" lon="8.4595667"><ele>561.0</ele><time>2026-04-25T13:02:41.972Z</time></trkpt><trkpt lat="44.5826133" lon="8.4594067"><ele>559.0</ele><time>2026-04-25T13:02:42.972Z</time></trkpt><trkpt lat="44.5826717" lon="8.4592583"><ele>557.0</ele><time>2026-04-25T13:02:43.972Z</time></trkpt><trkpt lat="44.5826933" lon="8.4591633"><ele>557.0</ele><time>2026-04-25T13:02:44.973Z</time></trkpt><trkpt lat="44.582615" lon="8.4591583"><ele>557.0</ele><time>2026-04-25T13:02:46.972Z</time></trkpt><trkpt lat="44.5825667" lon="8.4592367"><ele>557.0</ele><time>2026-04-25T13:02:47.972Z</time></trkpt><trkpt lat="44.5824383" lon="8.4595933"><ele>557.0</ele><time>2026-04-25T13:02:49.972Z</time></trkpt><trkpt lat="44.5823733" lon="8.459795"><ele>559.6666666666666</ele><time>2026-04-25T13:02:50.973Z</time></trkpt><trkpt lat="44.582305" lon="8.459995"><ele>562.3333333333334</ele><time>2026-04-25T13:02:51.972Z</time></trkpt><trkpt lat="44.58224" lon="8.4601867"><ele>565.0</ele><time>2026-04-25T13:02:52.972Z</time></trkpt><trkpt lat="44.5821767" lon="8.4603933"><ele>562.6666666666667</ele><time>2026-04-25T13:02:53.972Z</time></trkpt><trkpt lat="44.5820917" lon="8.4605783"><ele>560.3333333333334</ele><time>2026-04-25T13:02:54.973Z</time></trkpt><trkpt lat="44.5819817" lon="8.4607183"><ele>558.0</ele><time>2026-04-25T13:02:55.972Z</time></trkpt><trkpt lat="44.58185" lon="8.460815"><ele>556.0</ele><time>2026-04-25T13:02:56.973Z</time></trkpt><trkpt lat="44.5817133" lon="8.460895"><ele>554.0</ele><time>2026-04-25T13:02:57.972Z</time></trkpt><trkpt lat="44.5815767" lon="8.4610167"><ele>552.0</ele><time>2026-04-25T13:02:58.972Z</time></trkpt><trkpt lat="44.5814383" lon="8.4611967"><ele>552.3333333333334</ele><time>2026-04-25T13:02:59.973Z</time></trkpt><trkpt lat="44.5813033" lon="8.4614083"><ele>552.6666666666667</ele><time>2026-04-25T13:03:00.972Z</time></trkpt><trkpt lat="44.5811767" lon="8.461625"><ele>553.0</ele><time>2026-04-25T13:03:01.973Z</time></trkpt><trkpt lat="44.5810483" lon="8.46181"><ele>552.6666666666667</ele><time>2026-04-25T13:03:02.972Z</time></trkpt><trkpt lat="44.5809233" lon="8.4619633"><ele>552.3333333333334</ele><time>2026-04-25T13:03:03.972Z</time></trkpt><trkpt lat="44.5807983" lon="8.4620683"><ele>552.0</ele><time>2026-04-25T13:03:04.972Z</time></trkpt><trkpt lat="44.5806517" lon="8.4621383"><ele>552.0</ele><time>2026-04-25T13:03:05.973Z</time></trkpt><trkpt lat="44.5804933" lon="8.4621833"><ele>552.0</ele><time>2026-04-25T13:03:06.973Z</time></trkpt><trkpt lat="44.5802883" lon="8.4622317"><ele>552.0</ele><time>2026-04-25T13:03:07.973Z</time></trkpt><trkpt lat="44.5800883" lon="8.4623183"><ele>555.0</ele><time>2026-04-25T13:03:08.972Z</time></trkpt><trkpt lat="44.5799233" lon="8.4623933"><ele>558.0</ele><time>2026-04-25T13:03:09.972Z</time></trkpt><trkpt lat="44.579775" lon="8.4624633"><ele>561.0</ele><time>2026-04-25T13:03:10.972Z</time></trkpt><trkpt lat="44.57963" lon="8.462585"><ele>559.6666666666666</ele><time>2026-04-25T13:03:11.973Z</time></trkpt><trkpt lat="44.5794983" lon="8.4627867"><ele>558.3333333333333</ele><time>2026-04-25T13:03:12.972Z</time></trkpt><trkpt lat="44.5793867" lon="8.4629717"><ele>557.0</ele><time>2026-04-25T13:03:13.972Z</time></trkpt><trkpt lat="44.5792833" lon="8.4631133"><ele>557.0</ele><time>2026-04-25T13:03:14.972Z</time></trkpt><trkpt lat="44.5791667" lon="8.463215"><ele>557.0</ele><time>2026-04-25T13:03:15.972Z</time></trkpt><trkpt lat="44.5790467" lon="8.4633183"><ele>557.0</ele><time>2026-04-25T13:03:16.972Z</time></trkpt><trkpt lat="44.5789267" lon="8.463445"><ele>557.0</ele><time>2026-04-25T13:03:17.972Z</time></trkpt><trkpt lat="44.5788067" lon="8.463615"><ele>557.6666666666666</ele><time>2026-04-25T13:03:18.972Z</time></trkpt><trkpt lat="44.5786817" lon="8.4637867"><ele>558.3333333333334</ele><time>2026-04-25T13:03:19.973Z</time></trkpt><trkpt lat="44.5785283" lon="8.4639833"><ele>559.0</ele><time>2026-04-25T13:03:20.972Z</time></trkpt><trkpt lat="44.5783667" lon="8.46423"><ele>559.0</ele><time>2026-04-25T13:03:21.972Z</time></trkpt><trkpt lat="44.5782067" lon="8.4644567"><ele>559.0</ele><time>2026-04-25T13:03:22.973Z</time></trkpt><trkpt lat="44.5780467" lon="8.4647"><ele>561.0</ele><time>2026-04-25T13:03:23.972Z</time></trkpt><trkpt lat="44.57789" lon="8.4649467"><ele>563.0</ele><time>2026-04-25T13:03:24.972Z</time></trkpt><trkpt lat="44.57775" lon="8.46517"><ele>565.0</ele><time>2026-04-25T13:03:25.972Z</time></trkpt><trkpt lat="44.5776317" lon="8.4653517"><ele>571.0</ele><time>2026-04-25T13:03:26.973Z</time></trkpt><trkpt lat="44.5775117" lon="8.46551"><ele>577.0</ele><time>2026-04-25T13:03:27.973Z</time></trkpt><trkpt lat="44.5773733" lon="8.4656483"><ele>583.0</ele><time>2026-04-25T13:03:28.972Z</time></trkpt><trkpt lat="44.5771967" lon="8.4657767"><ele>581.6666666666667</ele><time>2026-04-25T13:03:29.972Z</time></trkpt><trkpt lat="44.5770167" lon="8.465925"><ele>580.3333333333334</ele><time>2026-04-25T13:03:30.972Z</time></trkpt><trkpt lat="44.5768433" lon="8.4660667"><ele>579.0</ele><time>2026-04-25T13:03:31.973Z</time></trkpt><trkpt lat="44.5766933" lon="8.4662033"><ele>584.0</ele><time>2026-04-25T13:03:32.972Z</time></trkpt><trkpt lat="44.5765217" lon="8.4663117"><ele>589.0</ele><time>2026-04-25T13:03:33.972Z</time></trkpt><trkpt lat="44.5763417" lon="8.4664"><ele>594.0</ele><time>2026-04-25T13:03:34.972Z</time></trkpt><trkpt lat="44.5761417" lon="8.4664517"><ele>594.0</ele><time>2026-04-25T13:03:35.972Z</time></trkpt><trkpt lat="44.5759183" lon="8.4664667"><ele>594.0</ele><time>2026-04-25T13:03:36.972Z</time></trkpt><trkpt lat="44.575705" lon="8.4665033"><ele>594.0</ele><time>2026-04-25T13:03:37.973Z</time></trkpt><trkpt lat="44.5754983" lon="8.466535"><ele>593.6666666666666</ele><time>2026-04-25T13:03:38.972Z</time></trkpt><trkpt lat="44.575295" lon="8.4665567"><ele>593.3333333333333</ele><time>2026-04-25T13:03:39.972Z</time></trkpt><trkpt lat="44.5751133" lon="8.4665633"><ele>593.0</ele><time>2026-04-25T13:03:40.973Z</time></trkpt><trkpt lat="44.5749567" lon="8.46658"><ele>593.0</ele><time>2026-04-25T13:03:41.972Z</time></trkpt><trkpt lat="44.5748033" lon="8.46658"><ele>593.0</ele><time>2026-04-25T13:03:42.972Z</time></trkpt><trkpt lat="44.574655" lon="8.4666017"><ele>593.0</ele><time>2026-04-25T13:03:43.972Z</time></trkpt><trkpt lat="44.5745467" lon="8.4666417"><ele>593.0</ele><time>2026-04-25T13:03:44.972Z</time></trkpt><trkpt lat="44.5744283" lon="8.4666867"><ele>593.6666666666666</ele><time>2026-04-25T13:03:45.973Z</time></trkpt><trkpt lat="44.5743217" lon="8.4668333"><ele>594.3333333333334</ele><time>2026-04-25T13:03:46.973Z</time></trkpt><trkpt lat="44.5742217" lon="8.467"><ele>595.0</ele><time>2026-04-25T13:03:47.972Z</time></trkpt><trkpt lat="44.5741383" lon="8.4671967"><ele>595.0</ele><time>2026-04-25T13:03:48.972Z</time></trkpt><trkpt lat="44.5740467" lon="8.4673667"><ele>595.0</ele><time>2026-04-25T13:03:49.973Z</time></trkpt><trkpt lat="44.5739333" lon="8.4675083"><ele>595.0</ele><time>2026-04-25T13:03:50.973Z</time></trkpt><trkpt lat="44.5737833" lon="8.467615"><ele>597.6666666666667</ele><time>2026-04-25T13:03:51.972Z</time></trkpt><trkpt lat="44.5736317" lon="8.4677317"><ele>600.3333333333334</ele><time>2026-04-25T13:03:52.972Z</time></trkpt><trkpt lat="44.57348" lon="8.46785"><ele>603.0</ele><time>2026-04-25T13:03:53.972Z</time></trkpt><trkpt lat="44.5733533" lon="8.4679683"><ele>603.0</ele><time>2026-04-25T13:03:54.972Z</time></trkpt><trkpt lat="44.5732483" lon="8.46808"><ele>603.0</ele><time>2026-04-25T13:03:55.972Z</time></trkpt><trkpt lat="44.573155" lon="8.4681917"><ele>603.0</ele><time>2026-04-25T13:03:56.972Z</time></trkpt><trkpt lat="44.57308" lon="8.4683267"><ele>603.0</ele><time>2026-04-25T13:03:57.973Z</time></trkpt><trkpt lat="44.5730183" lon="8.4684883"><ele>603.0</ele><time>2026-04-25T13:03:58.972Z</time></trkpt><trkpt lat="44.572965" lon="8.4686233"><ele>603.0</ele><time>2026-04-25T13:03:59.973Z</time></trkpt><trkpt lat="44.5729267" lon="8.468735"><ele>603.0</ele><time>2026-04-25T13:04:00.972Z</time></trkpt><trkpt lat="44.5728267" lon="8.4687533"><ele>603.0</ele><time>2026-04-25T13:04:01.972Z</time></trkpt><trkpt lat="44.572725" lon="8.4687883"><ele>603.0</ele><time>2026-04-25T13:04:02.972Z</time></trkpt><trkpt lat="44.572605" lon="8.4688533"><ele>602.3333333333334</ele><time>2026-04-25T13:04:03.972Z</time></trkpt><trkpt lat="44.5724717" lon="8.468945"><ele>601.6666666666667</ele><time>2026-04-25T13:04:04.972Z</time></trkpt><trkpt lat="44.5723383" lon="8.4690767"><ele>601.0</ele><time>2026-04-25T13:04:05.973Z</time></trkpt><trkpt lat="44.572215" lon="8.4692583"><ele>601.0</ele><time>2026-04-25T13:04:06.973Z</time></trkpt><trkpt lat="44.5720867" lon="8.4694517"><ele>601.0</ele><time>2026-04-25T13:04:07.972Z</time></trkpt><trkpt lat="44.5719533" lon="8.4696617"><ele>601.0</ele><time>2026-04-25T13:04:08.972Z</time></trkpt><trkpt lat="44.5718333" lon="8.4698933"><ele>602.6666666666667</ele><time>2026-04-25T13:04:09.972Z</time></trkpt><trkpt lat="44.57173" lon="8.4701283"><ele>604.3333333333334</ele><time>2026-04-25T13:04:10.972Z</time></trkpt><trkpt lat="44.5716533" lon="8.4703617"><ele>606.0</ele><time>2026-04-25T13:04:11.973Z</time></trkpt><trkpt lat="44.57156" lon="8.47055"><ele>608.0</ele><time>2026-04-25T13:04:12.973Z</time></trkpt><trkpt lat="44.5714367" lon="8.4707017"><ele>610.0</ele><time>2026-04-25T13:04:13.973Z</time></trkpt><trkpt lat="44.5712917" lon="8.4708267"><ele>612.0</ele><time>2026-04-25T13:04:14.972Z</time></trkpt><trkpt lat="44.5711233" lon="8.4709267"><ele>613.0</ele><time>2026-04-25T13:04:15.973Z</time></trkpt><trkpt lat="44.5709417" lon="8.4709867"><ele>614.0</ele><time>2026-04-25T13:04:16.972Z</time></trkpt><trkpt lat="44.57076" lon="8.4710067"><ele>615.0</ele><time>2026-04-25T13:04:17.972Z</time></trkpt><trkpt lat="44.5705733" lon="8.4709783"><ele>615.0</ele><time>2026-04-25T13:04:18.972Z</time></trkpt><trkpt lat="44.57039" lon="8.4709533"><ele>615.0</ele><time>2026-04-25T13:04:19.972Z</time></trkpt><trkpt lat="44.5702233" lon="8.470935"><ele>615.0</ele><time>2026-04-25T13:04:20.973Z</time></trkpt><trkpt lat="44.5700483" lon="8.4709083"><ele>616.6666666666666</ele><time>2026-04-25T13:04:21.972Z</time></trkpt><trkpt lat="44.569865" lon="8.4708717"><ele>618.3333333333333</ele><time>2026-04-25T13:04:22.973Z</time></trkpt><trkpt lat="44.5696783" lon="8.47083"><ele>620.0</ele><time>2026-04-25T13:04:23.973Z</time></trkpt><trkpt lat="44.5694917" lon="8.4707733"><ele>620.0</ele><time>2026-04-25T13:04:24.972Z</time></trkpt><trkpt lat="44.5693067" lon="8.4706767"><ele>620.0</ele><time>2026-04-25T13:04:25.972Z</time></trkpt><trkpt lat="44.56912" lon="8.4705767"><ele>620.0</ele><time>2026-04-25T13:04:26.973Z</time></trkpt><trkpt lat="44.5689467" lon="8.4705"><ele>620.6666666666666</ele><time>2026-04-25T13:04:27.972Z</time></trkpt><trkpt lat="44.5687583" lon="8.4704383"><ele>621.3333333333334</ele><time>2026-04-25T13:04:28.972Z</time></trkpt><trkpt lat="44.56858" lon="8.4704083"><ele>622.0</ele><time>2026-04-25T13:04:29.973Z</time></trkpt><trkpt lat="44.5683867" lon="8.4703817"><ele>623.0</ele><time>2026-04-25T13:04:30.972Z</time></trkpt><trkpt lat="44.5681767" lon="8.4703133"><ele>624.0</ele><time>2026-04-25T13:04:31.973Z</time></trkpt><trkpt lat="44.5679683" lon="8.4702383"><ele>625.0</ele><time>2026-04-25T13:04:32.972Z</time></trkpt><trkpt lat="44.567755" lon="8.4701483"><ele>621.0</ele><time>2026-04-25T13:04:33.972Z</time></trkpt><trkpt lat="44.5675517" lon="8.4700617"><ele>617.0</ele><time>2026-04-25T13:04:34.972Z</time></trkpt><trkpt lat="44.5673217" lon="8.46998"><ele>617.0</ele><time>2026-04-25T13:04:35.973Z</time></trkpt><trkpt lat="44.5670767" lon="8.4699367"><ele>617.0</ele><time>2026-04-25T13:04:36.973Z</time></trkpt><trkpt lat="44.5668267" lon="8.4699183"><ele>619.5</ele><time>2026-04-25T13:04:37.973Z</time></trkpt><trkpt lat="44.5666" lon="8.4699333"><ele>622.0</ele><time>2026-04-25T13:04:38.972Z</time></trkpt><trkpt lat="44.566375" lon="8.4699533"><ele>623.5</ele><time>2026-04-25T13:04:39.972Z</time></trkpt><trkpt lat="44.5661433" lon="8.4699583"><ele>625.0</ele><time>2026-04-25T13:04:40.973Z</time></trkpt><trkpt lat="44.5658917" lon="8.4699217"><ele>625.0</ele><time>2026-04-25T13:04:41.972Z</time></trkpt><trkpt lat="44.56565" lon="8.4698933"><ele>625.0</ele><time>2026-04-25T13:04:42.972Z</time></trkpt><trkpt lat="44.5654117" lon="8.4698617"><ele>626.5</ele><time>2026-04-25T13:04:43.972Z</time></trkpt><trkpt lat="44.565175" lon="8.4698333"><ele>628.0</ele><time>2026-04-25T13:04:44.972Z</time></trkpt><trkpt lat="44.5649483" lon="8.46979"><ele>628.0</ele><time>2026-04-25T13:04:45.972Z</time></trkpt><trkpt lat="44.5647267" lon="8.4697433"><ele>628.0</ele><time>2026-04-25T13:04:46.972Z</time></trkpt><trkpt lat="44.56452" lon="8.4697067"><ele>628.0</ele><time>2026-04-25T13:04:47.973Z</time></trkpt><trkpt lat="44.56432" lon="8.4696933"><ele>627.3333333333334</ele><time>2026-04-25T13:04:48.972Z</time></trkpt><trkpt lat="44.56411" lon="8.4697233"><ele>626.6666666666666</ele><time>2026-04-25T13:04:49.972Z</time></trkpt><trkpt lat="44.5639033" lon="8.469775"><ele>626.0</ele><time>2026-04-25T13:04:50.972Z</time></trkpt><trkpt lat="44.5637083" lon="8.4698417"><ele>625.6666666666666</ele><time>2026-04-25T13:04:51.972Z</time></trkpt><trkpt lat="44.5635367" lon="8.4699483"><ele>625.3333333333334</ele><time>2026-04-25T13:04:52.973Z</time></trkpt><trkpt lat="44.5633783" lon="8.4701133"><ele>625.0</ele><time>2026-04-25T13:04:53.972Z</time></trkpt><trkpt lat="44.56324" lon="8.47033"><ele>625.3333333333334</ele><time>2026-04-25T13:04:54.973Z</time></trkpt><trkpt lat="44.5630967" lon="8.4705667"><ele>625.6666666666666</ele><time>2026-04-25T13:04:55.972Z</time></trkpt><trkpt lat="44.56296" lon="8.4708"><ele>626.0</ele><time>2026-04-25T13:04:56.972Z</time></trkpt><trkpt lat="44.5628467" lon="8.4710133"><ele>626.6666666666666</ele><time>2026-04-25T13:04:57.972Z</time></trkpt><trkpt lat="44.562745" lon="8.471245"><ele>627.3333333333334</ele><time>2026-04-25T13:04:58.972Z</time></trkpt><trkpt lat="44.5626367" lon="8.4714767"><ele>628.0</ele><time>2026-04-25T13:04:59.972Z</time></trkpt><trkpt lat="44.562515" lon="8.4717"><ele>628.0</ele><time>2026-04-25T13:05:00.972Z</time></trkpt><trkpt lat="44.56236" lon="8.47189"><ele>628.0</ele><time>2026-04-25T13:05:01.972Z</time></trkpt><trkpt lat="44.5621783" lon="8.4720817"><ele>628.0</ele><time>2026-04-25T13:05:02.972Z</time></trkpt><trkpt lat="44.5620117" lon="8.4722883"><ele>627.3333333333334</ele><time>2026-04-25T13:05:03.973Z</time></trkpt><trkpt lat="44.5618717" lon="8.4725367"><ele>626.6666666666666</ele><time>2026-04-25T13:05:04.973Z</time></trkpt><trkpt lat="44.5617517" lon="8.47279"><ele>626.0</ele><time>2026-04-25T13:05:05.972Z</time></trkpt><trkpt lat="44.5616383" lon="8.4730233"><ele>626.0</ele><time>2026-04-25T13:05:06.972Z</time></trkpt><trkpt lat="44.56151" lon="8.4732383"><ele>626.0</ele><time>2026-04-25T13:05:07.973Z</time></trkpt><trkpt lat="44.5613817" lon="8.4734333"><ele>626.0</ele><time>2026-04-25T13:05:08.972Z</time></trkpt><trkpt lat="44.561225" lon="8.47362"><ele>624.6666666666666</ele><time>2026-04-25T13:05:09.973Z</time></trkpt><trkpt lat="44.5610783" lon="8.4738167"><ele>623.3333333333334</ele><time>2026-04-25T13:05:10.972Z</time></trkpt><trkpt lat="44.560955" lon="8.4740433"><ele>622.0</ele><time>2026-04-25T13:05:11.973Z</time></trkpt><trkpt lat="44.5608283" lon="8.4742833"><ele>622.0</ele><time>2026-04-25T13:05:12.972Z</time></trkpt><trkpt lat="44.5607083" lon="8.474515"><ele>622.0</ele><time>2026-04-25T13:05:13.972Z</time></trkpt><trkpt lat="44.5606033" lon="8.474755"><ele>622.0</ele><time>2026-04-25T13:05:14.972Z</time></trkpt><trkpt lat="44.5605183" lon="8.4750083"><ele>622.6666666666667</ele><time>2026-04-25T13:05:15.973Z</time></trkpt><trkpt lat="44.5604133" lon="8.4752583"><ele>623.3333333333334</ele><time>2026-04-25T13:05:16.972Z</time></trkpt><trkpt lat="44.5602983" lon="8.4754683"><ele>624.0</ele><time>2026-04-25T13:05:17.972Z</time></trkpt><trkpt lat="44.5601633" lon="8.4756617"><ele>626.0</ele><time>2026-04-25T13:05:18.972Z</time></trkpt><trkpt lat="44.56001" lon="8.4758533"><ele>628.0</ele><time>2026-04-25T13:05:19.973Z</time></trkpt><trkpt lat="44.55985" lon="8.4760367"><ele>630.0</ele><time>2026-04-25T13:05:20.973Z</time></trkpt><trkpt lat="44.5596983" lon="8.4761917"><ele>630.75</ele><time>2026-04-25T13:05:21.972Z</time></trkpt><trkpt lat="44.55956" lon="8.47631"><ele>631.5</ele><time>2026-04-25T13:05:22.973Z</time></trkpt><trkpt lat="44.559445" lon="8.4764167"><ele>632.25</ele><time>2026-04-25T13:05:23.973Z</time></trkpt><trkpt lat="44.55934" lon="8.4765467"><ele>633.0</ele><time>2026-04-25T13:05:24.973Z</time></trkpt><trkpt lat="44.5592283" lon="8.47671"><ele>633.0</ele><time>2026-04-25T13:05:25.972Z</time></trkpt><trkpt lat="44.5591283" lon="8.4769267"><ele>633.0</ele><time>2026-04-25T13:05:26.973Z</time></trkpt><trkpt lat="44.5590117" lon="8.4771633"><ele>633.0</ele><time>2026-04-25T13:05:27.972Z</time></trkpt><trkpt lat="44.5588733" lon="8.4774183"><ele>632.6666666666666</ele><time>2026-04-25T13:05:28.973Z</time></trkpt><trkpt lat="44.5587383" lon="8.4776683"><ele>632.3333333333333</ele><time>2026-04-25T13:05:29.972Z</time></trkpt><trkpt lat="44.5586033" lon="8.477895"><ele>632.0</ele><time>2026-04-25T13:05:30.972Z</time></trkpt><trkpt lat="44.5584683" lon="8.4780983"><ele>635.6666666666666</ele><time>2026-04-25T13:05:31.972Z</time></trkpt><trkpt lat="44.5583433" lon="8.4782633"><ele>639.3333333333334</ele><time>2026-04-25T13:05:32.972Z</time></trkpt><trkpt lat="44.55823" lon="8.4784017"><ele>643.0</ele><time>2026-04-25T13:05:33.973Z</time></trkpt><trkpt lat="44.5581067" lon="8.4784833"><ele>643.0</ele><time>2026-04-25T13:05:34.972Z</time></trkpt><trkpt lat="44.5579767" lon="8.4785017"><ele>643.0</ele><time>2026-04-25T13:05:35.973Z</time></trkpt><trkpt lat="44.55782" lon="8.4784417"><ele>643.0</ele><time>2026-04-25T13:05:36.972Z</time></trkpt><trkpt lat="44.5576567" lon="8.47833"><ele>644.0</ele><time>2026-04-25T13:05:37.973Z</time></trkpt><trkpt lat="44.557485" lon="8.47816"><ele>645.0</ele><time>2026-04-25T13:05:38.972Z</time></trkpt><trkpt lat="44.557345" lon="8.4780217"><ele>646.0</ele><time>2026-04-25T13:05:39.973Z</time></trkpt><trkpt lat="44.557245" lon="8.47786"><ele>644.0</ele><time>2026-04-25T13:05:40.972Z</time></trkpt><trkpt lat="44.55715" lon="8.4777733"><ele>642.0</ele><time>2026-04-25T13:05:41.972Z</time></trkpt><trkpt lat="44.5570317" lon="8.4777567"><ele>640.0</ele><time>2026-04-25T13:05:42.972Z</time></trkpt><trkpt lat="44.5569033" lon="8.477805"><ele>638.0</ele><time>2026-04-25T13:05:43.973Z</time></trkpt><trkpt lat="44.5567633" lon="8.4779067"><ele>644.0</ele><time>2026-04-25T13:05:44.973Z</time></trkpt><trkpt lat="44.5565883" lon="8.4779883"><ele>650.0</ele><time>2026-04-25T13:05:45.973Z</time></trkpt><trkpt lat="44.5564167" lon="8.4780633"><ele>656.0</ele><time>2026-04-25T13:05:46.972Z</time></trkpt><trkpt lat="44.556265" lon="8.4781367"><ele>655.0</ele><time>2026-04-25T13:05:47.972Z</time></trkpt><trkpt lat="44.5561383" lon="8.4781833"><ele>654.0</ele><time>2026-04-25T13:05:48.972Z</time></trkpt><trkpt lat="44.556015" lon="8.4782267"><ele>653.0</ele><time>2026-04-25T13:05:49.973Z</time></trkpt><trkpt lat="44.5559233" lon="8.47832"><ele>652.0</ele><time>2026-04-25T13:05:50.972Z</time></trkpt><trkpt lat="44.55585" lon="8.4784333"><ele>652.0</ele><time>2026-04-25T13:05:51.973Z</time></trkpt><trkpt lat="44.555795" lon="8.4785783"><ele>652.0</ele><time>2026-04-25T13:05:52.972Z</time></trkpt><trkpt lat="44.55574" lon="8.478755"><ele>652.0</ele><time>2026-04-25T13:05:53.973Z</time></trkpt><trkpt lat="44.555635" lon="8.4789067"><ele>652.0</ele><time>2026-04-25T13:05:54.972Z</time></trkpt><trkpt lat="44.5555083" lon="8.4790533"><ele>655.0</ele><time>2026-04-25T13:05:55.972Z</time></trkpt><trkpt lat="44.5553783" lon="8.4792317"><ele>658.0</ele><time>2026-04-25T13:05:56.973Z</time></trkpt><trkpt lat="44.5552383" lon="8.479455"><ele>661.0</ele><time>2026-04-25T13:05:57.972Z</time></trkpt><trkpt lat="44.5550867" lon="8.4797"><ele>661.0</ele><time>2026-04-25T13:05:58.973Z</time></trkpt><trkpt lat="44.5549433" lon="8.4799567"><ele>661.0</ele><time>2026-04-25T13:05:59.973Z</time></trkpt><trkpt lat="44.554805" lon="8.4802217"><ele>666.0</ele><time>2026-04-25T13:06:00.973Z</time></trkpt><trkpt lat="44.5546733" lon="8.4805"><ele>671.0</ele><time>2026-04-25T13:06:01.972Z</time></trkpt><trkpt lat="44.5545833" lon="8.4807867"><ele>669.0</ele><time>2026-04-25T13:06:02.972Z</time></trkpt><trkpt lat="44.554525" lon="8.4810467"><ele>667.0</ele><time>2026-04-25T13:06:03.972Z</time></trkpt><trkpt lat="44.55448" lon="8.481285"><ele>665.0</ele><time>2026-04-25T13:06:04.973Z</time></trkpt><trkpt lat="44.5544383" lon="8.4814683"><ele>665.0</ele><time>2026-04-25T13:06:05.973Z</time></trkpt><trkpt lat="44.5543767" lon="8.4815967"><ele>665.0</ele><time>2026-04-25T13:06:06.972Z</time></trkpt><trkpt lat="44.5542967" lon="8.4816833"><ele>665.0</ele><time>2026-04-25T13:06:07.972Z</time></trkpt><trkpt lat="44.5541367" lon="8.4816617"><ele>665.0</ele><time>2026-04-25T13:06:08.972Z</time></trkpt><trkpt lat="44.5539667" lon="8.481695"><ele>665.0</ele><time>2026-04-25T13:06:09.973Z</time></trkpt><trkpt lat="44.5538217" lon="8.4817917"><ele>665.0</ele><time>2026-04-25T13:06:10.972Z</time></trkpt><trkpt lat="44.5536767" lon="8.4819117"><ele>665.0</ele><time>2026-04-25T13:06:11.972Z</time></trkpt><trkpt lat="44.553555" lon="8.4820633"><ele>667.0</ele><time>2026-04-25T13:06:12.972Z</time></trkpt><trkpt lat="44.55343" lon="8.482175"><ele>669.0</ele><time>2026-04-25T13:06:13.973Z</time></trkpt><trkpt lat="44.55329" lon="8.48222"><ele>671.0</ele><time>2026-04-25T13:06:14.973Z</time></trkpt><trkpt lat="44.5531333" lon="8.4822283"><ele>673.0</ele><time>2026-04-25T13:06:15.972Z</time></trkpt><trkpt lat="44.5530067" lon="8.4821917"><ele>673.0</ele><time>2026-04-25T13:06:16.973Z</time></trkpt><trkpt lat="44.5529083" lon="8.4821117"><ele>673.0</ele><time>2026-04-25T13:06:17.972Z</time></trkpt><trkpt lat="44.5528383" lon="8.4820567"><ele>673.0</ele><time>2026-04-25T13:06:18.972Z</time></trkpt><trkpt lat="44.552775" lon="8.4820283"><ele>673.0</ele><time>2026-04-25T13:06:19.973Z</time></trkpt><trkpt lat="44.55273" lon="8.4821317"><ele>673.0</ele><time>2026-04-25T13:06:21.972Z</time></trkpt><trkpt lat="44.5527617" lon="8.4822383"><ele>673.0</ele><time>2026-04-25T13:06:22.973Z</time></trkpt><trkpt lat="44.5528167" lon="8.4823583"><ele>673.0</ele><time>2026-04-25T13:06:23.973Z</time></trkpt><trkpt lat="44.55289" lon="8.4824967"><ele>673.0</ele><time>2026-04-25T13:06:24.973Z</time></trkpt><trkpt lat="44.5529717" lon="8.4826583"><ele>673.0</ele><time>2026-04-25T13:06:25.973Z</time></trkpt><trkpt lat="44.553055" lon="8.4828233"><ele>673.0</ele><time>2026-04-25T13:06:26.972Z</time></trkpt><trkpt lat="44.553145" lon="8.482995"><ele>676.0</ele><time>2026-04-25T13:06:27.972Z</time></trkpt><trkpt lat="44.5532333" lon="8.4831717"><ele>679.0</ele><time>2026-04-25T13:06:28.973Z</time></trkpt><trkpt lat="44.553265" lon="8.4834083"><ele>682.0</ele><time>2026-04-25T13:06:29.972Z</time></trkpt><trkpt lat="44.55327" lon="8.48367"><ele>684.6666666666667</ele><time>2026-04-25T13:06:30.972Z</time></trkpt><trkpt lat="44.5532783" lon="8.48393"><ele>687.3333333333334</ele><time>2026-04-25T13:06:31.973Z</time></trkpt><trkpt lat="44.553265" lon="8.4841483"><ele>690.0</ele><time>2026-04-25T13:06:32.972Z</time></trkpt><trkpt lat="44.5532717" lon="8.4843467"><ele>690.0</ele><time>2026-04-25T13:06:33.972Z</time></trkpt><trkpt lat="44.553315" lon="8.484535"><ele>690.0</ele><time>2026-04-25T13:06:34.973Z</time></trkpt><trkpt lat="44.5533983" lon="8.484695"><ele>690.0</ele><time>2026-04-25T13:06:35.972Z</time></trkpt><trkpt lat="44.5534867" lon="8.4848083"><ele>690.0</ele><time>2026-04-25T13:06:36.972Z</time></trkpt><trkpt lat="44.553565" lon="8.4848933"><ele>690.0</ele><time>2026-04-25T13:06:37.972Z</time></trkpt><trkpt lat="44.5536167" lon="8.4849583"><ele>690.0</ele><time>2026-04-25T13:06:38.973Z</time></trkpt><trkpt lat="44.5536517" lon="8.4850433"><ele>690.0</ele><time>2026-04-25T13:06:39.973Z</time></trkpt><trkpt lat="44.5536767" lon="8.4851333"><ele>690.0</ele><time>2026-04-25T13:06:40.972Z</time></trkpt><trkpt lat="44.5537117" lon="8.4852417"><ele>690.0</ele><time>2026-04-25T13:06:41.972Z</time></trkpt><trkpt lat="44.5537983" lon="8.4853833"><ele>690.0</ele><time>2026-04-25T13:06:42.972Z</time></trkpt><trkpt lat="44.5539033" lon="8.485545"><ele>690.0</ele><time>2026-04-25T13:06:43.973Z</time></trkpt><trkpt lat="44.5540117" lon="8.4857283"><ele>690.0</ele><time>2026-04-25T13:06:44.972Z</time></trkpt><trkpt lat="44.5541167" lon="8.48591"><ele>690.0</ele><time>2026-04-25T13:06:45.972Z</time></trkpt><trkpt lat="44.5541983" lon="8.4860983"><ele>690.0</ele><time>2026-04-25T13:06:46.973Z</time></trkpt><trkpt lat="44.5542517" lon="8.486295"><ele>690.0</ele><time>2026-04-25T13:06:47.972Z</time></trkpt><trkpt lat="44.5542967" lon="8.486525"><ele>690.0</ele><time>2026-04-25T13:06:48.972Z</time></trkpt><trkpt lat="44.5543167" lon="8.4867717"><ele>690.0</ele><time>2026-04-25T13:06:49.972Z</time></trkpt><trkpt lat="44.5543183" lon="8.486995"><ele>690.0</ele><time>2026-04-25T13:06:50.972Z</time></trkpt><trkpt lat="44.5542583" lon="8.4872267"><ele>690.0</ele><time>2026-04-25T13:06:51.973Z</time></trkpt><trkpt lat="44.5541733" lon="8.4874283"><ele>689.6666666666666</ele><time>2026-04-25T13:06:52.972Z</time></trkpt><trkpt lat="44.5540767" lon="8.4876483"><ele>689.3333333333333</ele><time>2026-04-25T13:06:53.973Z</time></trkpt><trkpt lat="44.554005" lon="8.4878533"><ele>689.0</ele><time>2026-04-25T13:06:54.972Z</time></trkpt><trkpt lat="44.553965" lon="8.4881033"><ele>688.0</ele><time>2026-04-25T13:06:55.973Z</time></trkpt><trkpt lat="44.553975" lon="8.488385"><ele>687.0</ele><time>2026-04-25T13:06:56.973Z</time></trkpt><trkpt lat="44.553975" lon="8.4886933"><ele>686.0</ele><time>2026-04-25T13:06:57.972Z</time></trkpt><trkpt lat="44.5539833" lon="8.489015"><ele>686.0</ele><time>2026-04-25T13:06:58.973Z</time></trkpt><trkpt lat="44.553985" lon="8.4893433"><ele>686.0</ele><time>2026-04-25T13:06:59.972Z</time></trkpt><trkpt lat="44.5539933" lon="8.4896433"><ele>686.0</ele><time>2026-04-25T13:07:00.972Z</time></trkpt><trkpt lat="44.554" lon="8.48992"><ele>685.0</ele><time>2026-04-25T13:07:01.972Z</time></trkpt><trkpt lat="44.5540083" lon="8.4901817"><ele>684.0</ele><time>2026-04-25T13:07:02.972Z</time></trkpt><trkpt lat="44.554045" lon="8.49044"><ele>683.0</ele><time>2026-04-25T13:07:03.972Z</time></trkpt><trkpt lat="44.5541" lon="8.49066"><ele>682.75</ele><time>2026-04-25T13:07:04.973Z</time></trkpt><trkpt lat="44.55416" lon="8.4908583"><ele>682.5</ele><time>2026-04-25T13:07:05.973Z</time></trkpt><trkpt lat="44.5542017" lon="8.4910583"><ele>682.25</ele><time>2026-04-25T13:07:06.973Z</time></trkpt><trkpt lat="44.5542033" lon="8.4912617"><ele>682.0</ele><time>2026-04-25T13:07:07.971Z</time></trkpt><trkpt lat="44.554215" lon="8.49146"><ele>683.3333333333334</ele><time>2026-04-25T13:07:08.971Z</time></trkpt><trkpt lat="44.5542533" lon="8.4916483"><ele>684.6666666666666</ele><time>2026-04-25T13:07:09.972Z</time></trkpt><trkpt lat="44.5543517" lon="8.4918"><ele>686.0</ele><time>2026-04-25T13:07:10.971Z</time></trkpt><trkpt lat="44.5545117" lon="8.4919283"><ele>684.6666666666666</ele><time>2026-04-25T13:07:11.971Z</time></trkpt><trkpt lat="44.5546633" lon="8.492055"><ele>683.3333333333334</ele><time>2026-04-25T13:07:12.971Z</time></trkpt><trkpt lat="44.5548167" lon="8.492185"><ele>682.0</ele><time>2026-04-25T13:07:13.972Z</time></trkpt><trkpt lat="44.554925" lon="8.4922983"><ele>682.0</ele><time>2026-04-25T13:07:14.972Z</time></trkpt><trkpt lat="44.55499" lon="8.4924317"><ele>682.0</ele><time>2026-04-25T13:07:15.971Z</time></trkpt><trkpt lat="44.5550133" lon="8.4926"><ele>682.0</ele><time>2026-04-25T13:07:16.971Z</time></trkpt><trkpt lat="44.5550217" lon="8.4928067"><ele>682.0</ele><time>2026-04-25T13:07:17.971Z</time></trkpt><trkpt lat="44.5550367" lon="8.4930233"><ele>680.3333333333334</ele><time>2026-04-25T13:07:18.971Z</time></trkpt><trkpt lat="44.5550783" lon="8.493255"><ele>678.6666666666666</ele><time>2026-04-25T13:07:19.972Z</time></trkpt><trkpt lat="44.5551383" lon="8.4934717"><ele>677.0</ele><time>2026-04-25T13:07:20.972Z</time></trkpt><trkpt lat="44.55523" lon="8.4936417"><ele>675.3333333333333</ele><time>2026-04-25T13:07:21.971Z</time></trkpt><trkpt lat="44.55537" lon="8.49378"><ele>673.6666666666666</ele><time>2026-04-25T13:07:22.972Z</time></trkpt><trkpt lat="44.555535" lon="8.4939333"><ele>672.0</ele><time>2026-04-25T13:07:23.972Z</time></trkpt><trkpt lat="44.5556833" lon="8.4941083"><ele>672.6666666666666</ele><time>2026-04-25T13:07:24.972Z</time></trkpt><trkpt lat="44.5557933" lon="8.4943383"><ele>673.3333333333333</ele><time>2026-04-25T13:07:25.972Z</time></trkpt><trkpt lat="44.555875" lon="8.4946"><ele>674.0</ele><time>2026-04-25T13:07:26.971Z</time></trkpt><trkpt lat="44.5559283" lon="8.494855"><ele>674.0</ele><time>2026-04-25T13:07:27.971Z</time></trkpt><trkpt lat="44.5559067" lon="8.495115"><ele>674.0</ele><time>2026-04-25T13:07:28.972Z</time></trkpt><trkpt lat="44.555875" lon="8.495355"><ele>674.0</ele><time>2026-04-25T13:07:29.971Z</time></trkpt><trkpt lat="44.5557983" lon="8.4956"><ele>673.6666666666666</ele><time>2026-04-25T13:07:30.972Z</time></trkpt><trkpt lat="44.5556983" lon="8.4958383"><ele>673.3333333333334</ele><time>2026-04-25T13:07:31.972Z</time></trkpt><trkpt lat="44.5555683" lon="8.4960933"><ele>673.0</ele><time>2026-04-25T13:07:32.972Z</time></trkpt><trkpt lat="44.5554467" lon="8.496375"><ele>670.5</ele><time>2026-04-25T13:07:33.971Z</time></trkpt><trkpt lat="44.5553333" lon="8.496655"><ele>668.0</ele><time>2026-04-25T13:07:34.972Z</time></trkpt><trkpt lat="44.55525" lon="8.49697"><ele>669.0</ele><time>2026-04-25T13:07:35.971Z</time></trkpt><trkpt lat="44.555185" lon="8.4973033"><ele>670.0</ele><time>2026-04-25T13:07:36.972Z</time></trkpt><trkpt lat="44.555135" lon="8.497615"><ele>669.6666666666667</ele><time>2026-04-25T13:07:37.971Z</time></trkpt><trkpt lat="44.5551183" lon="8.4979217"><ele>669.3333333333334</ele><time>2026-04-25T13:07:38.972Z</time></trkpt><trkpt lat="44.5551183" lon="8.49824"><ele>669.0</ele><time>2026-04-25T13:07:39.972Z</time></trkpt><trkpt lat="44.5551333" lon="8.4985483"><ele>669.0</ele><time>2026-04-25T13:07:40.971Z</time></trkpt><trkpt lat="44.5551567" lon="8.49886"><ele>669.0</ele><time>2026-04-25T13:07:41.971Z</time></trkpt><trkpt lat="44.5551467" lon="8.49915"><ele>669.0</ele><time>2026-04-25T13:07:42.972Z</time></trkpt><trkpt lat="44.5551033" lon="8.49943"><ele>670.6666666666666</ele><time>2026-04-25T13:07:43.971Z</time></trkpt><trkpt lat="44.5550583" lon="8.4996933"><ele>672.3333333333333</ele><time>2026-04-25T13:07:44.971Z</time></trkpt><trkpt lat="44.5550267" lon="8.4999317"><ele>674.0</ele><time>2026-04-25T13:07:45.971Z</time></trkpt><trkpt lat="44.5550067" lon="8.5001483"><ele>674.0</ele><time>2026-04-25T13:07:46.971Z</time></trkpt><trkpt lat="44.5550117" lon="8.5003433"><ele>674.0</ele><time>2026-04-25T13:07:47.972Z</time></trkpt><trkpt lat="44.5550333" lon="8.5005233"><ele>674.0</ele><time>2026-04-25T13:07:48.971Z</time></trkpt><trkpt lat="44.55504" lon="8.5006817"><ele>674.0</ele><time>2026-04-25T13:07:49.972Z</time></trkpt><trkpt lat="44.5550183" lon="8.5008217"><ele>675.75</ele><time>2026-04-25T13:07:50.971Z</time></trkpt><trkpt lat="44.5549667" lon="8.50091"><ele>677.5</ele><time>2026-04-25T13:07:51.972Z</time></trkpt><trkpt lat="44.55486" lon="8.5009183"><ele>679.25</ele><time>2026-04-25T13:07:52.972Z</time></trkpt><trkpt lat="44.5547367" lon="8.5009117"><ele>681.0</ele><time>2026-04-25T13:07:53.972Z</time></trkpt><trkpt lat="44.5545983" lon="8.5009033"><ele>680.8</ele><time>2026-04-25T13:07:54.971Z</time></trkpt><trkpt lat="44.55449" lon="8.50092"><ele>680.5999999999999</ele><time>2026-04-25T13:07:55.971Z</time></trkpt><trkpt lat="44.55441" lon="8.5009817"><ele>680.4</ele><time>2026-04-25T13:07:56.971Z</time></trkpt><trkpt lat="44.5543817" lon="8.5010967"><ele>680.2</ele><time>2026-04-25T13:07:57.972Z</time></trkpt><trkpt lat="44.5544267" lon="8.5012333"><ele>680.0</ele><time>2026-04-25T13:07:58.972Z</time></trkpt><trkpt lat="44.554515" lon="8.50137"><ele>680.6666666666666</ele><time>2026-04-25T13:07:59.971Z</time></trkpt><trkpt lat="44.55461" lon="8.5015167"><ele>681.3333333333334</ele><time>2026-04-25T13:08:00.971Z</time></trkpt><trkpt lat="44.5547133" lon="8.5016933"><ele>682.0</ele><time>2026-04-25T13:08:01.971Z</time></trkpt><trkpt lat="44.5548133" lon="8.5018967"><ele>680.3333333333334</ele><time>2026-04-25T13:08:02.971Z</time></trkpt><trkpt lat="44.554895" lon="8.5021267"><ele>678.6666666666666</ele><time>2026-04-25T13:08:03.972Z</time></trkpt><trkpt lat="44.554995" lon="8.5023483"><ele>677.0</ele><time>2026-04-25T13:08:04.972Z</time></trkpt><trkpt lat="44.5550917" lon="8.50255"><ele>677.0</ele><time>2026-04-25T13:08:05.971Z</time></trkpt><trkpt lat="44.5551883" lon="8.50274"><ele>677.0</ele><time>2026-04-25T13:08:06.971Z</time></trkpt><trkpt lat="44.5552967" lon="8.50293"><ele>677.0</ele><time>2026-04-25T13:08:07.972Z</time></trkpt><trkpt lat="44.55539" lon="8.5031333"><ele>674.0</ele><time>2026-04-25T13:08:08.971Z</time></trkpt><trkpt lat="44.555465" lon="8.50333"><ele>671.0</ele><time>2026-04-25T13:08:09.971Z</time></trkpt><trkpt lat="44.555535" lon="8.5035467"><ele>668.0</ele><time>2026-04-25T13:08:10.972Z</time></trkpt><trkpt lat="44.5555867" lon="8.5038017"><ele>668.0</ele><time>2026-04-25T13:08:11.971Z</time></trkpt><trkpt lat="44.55563" lon="8.504055"><ele>668.0</ele><time>2026-04-25T13:08:12.972Z</time></trkpt><trkpt lat="44.5556617" lon="8.504305"><ele>668.0</ele><time>2026-04-25T13:08:13.971Z</time></trkpt><trkpt lat="44.5556467" lon="8.5045267"><ele>669.0</ele><time>2026-04-25T13:08:14.971Z</time></trkpt><trkpt lat="44.5556217" lon="8.5047317"><ele>670.0</ele><time>2026-04-25T13:08:15.971Z</time></trkpt><trkpt lat="44.5555683" lon="8.5049167"><ele>671.0</ele><time>2026-04-25T13:08:16.971Z</time></trkpt><trkpt lat="44.5554667" lon="8.5050533"><ele>672.0</ele><time>2026-04-25T13:08:17.972Z</time></trkpt><trkpt lat="44.5553" lon="8.50516"><ele>673.0</ele><time>2026-04-25T13:08:18.971Z</time></trkpt><trkpt lat="44.5551533" lon="8.505245"><ele>674.0</ele><time>2026-04-25T13:08:19.971Z</time></trkpt><trkpt lat="44.5550433" lon="8.5053317"><ele>675.0</ele><time>2026-04-25T13:08:20.971Z</time></trkpt><trkpt lat="44.5549783" lon="8.50545"><ele>676.0</ele><time>2026-04-25T13:08:21.971Z</time></trkpt><trkpt lat="44.5549583" lon="8.5056133"><ele>678.25</ele><time>2026-04-25T13:08:22.971Z</time></trkpt><trkpt lat="44.5549867" lon="8.505805"><ele>680.5</ele><time>2026-04-25T13:08:23.971Z</time></trkpt><trkpt lat="44.555035" lon="8.5060117"><ele>682.75</ele><time>2026-04-25T13:08:24.971Z</time></trkpt><trkpt lat="44.555025" lon="8.5061983"><ele>685.0</ele><time>2026-04-25T13:08:25.971Z</time></trkpt><trkpt lat="44.5549667" lon="8.506405"><ele>691.5</ele><time>2026-04-25T13:08:26.971Z</time></trkpt><trkpt lat="44.5548467" lon="8.5066733"><ele>698.0</ele><time>2026-04-25T13:08:27.971Z</time></trkpt><trkpt lat="44.554715" lon="8.5069383"><ele>701.3333333333333</ele><time>2026-04-25T13:08:28.971Z</time></trkpt><trkpt lat="44.5545933" lon="8.50715"><ele>704.6666666666666</ele><time>2026-04-25T13:08:29.971Z</time></trkpt><trkpt lat="44.554475" lon="8.5073317"><ele>708.0</ele><time>2026-04-25T13:08:30.971Z</time></trkpt><trkpt lat="44.5543467" lon="8.5074533"><ele>708.0</ele><time>2026-04-25T13:08:31.971Z</time></trkpt><trkpt lat="44.5542567" lon="8.50745"><ele>708.0</ele><time>2026-04-25T13:08:32.972Z</time></trkpt><trkpt lat="44.5541183" lon="8.507395"><ele>708.0</ele><time>2026-04-25T13:08:33.972Z</time></trkpt><trkpt lat="44.5539817" lon="8.507335"><ele>708.0</ele><time>2026-04-25T13:08:34.971Z</time></trkpt><trkpt lat="44.5538683" lon="8.5073283"><ele>708.0</ele><time>2026-04-25T13:08:35.971Z</time></trkpt><trkpt lat="44.5538133" lon="8.5074083"><ele>708.0</ele><time>2026-04-25T13:08:36.971Z</time></trkpt><trkpt lat="44.5538083" lon="8.5075533"><ele>708.0</ele><time>2026-04-25T13:08:37.972Z</time></trkpt><trkpt lat="44.553845" lon="8.5077283"><ele>708.0</ele><time>2026-04-25T13:08:38.972Z</time></trkpt><trkpt lat="44.5538783" lon="8.5079233"><ele>712.0</ele><time>2026-04-25T13:08:39.971Z</time></trkpt><trkpt lat="44.55387" lon="8.5081417"><ele>716.0</ele><time>2026-04-25T13:08:40.971Z</time></trkpt><trkpt lat="44.5538083" lon="8.5083767"><ele>720.0</ele><time>2026-04-25T13:08:41.971Z</time></trkpt><trkpt lat="44.5537333" lon="8.508615"><ele>714.3333333333334</ele><time>2026-04-25T13:08:42.972Z</time></trkpt><trkpt lat="44.5536567" lon="8.5088133"><ele>708.6666666666667</ele><time>2026-04-25T13:08:43.971Z</time></trkpt><trkpt lat="44.55362" lon="8.5090433"><ele>703.0</ele><time>2026-04-25T13:08:44.972Z</time></trkpt><trkpt lat="44.5536117" lon="8.5092983"><ele>703.0</ele><time>2026-04-25T13:08:45.972Z</time></trkpt><trkpt lat="44.55362" lon="8.5095233"><ele>703.0</ele><time>2026-04-25T13:08:46.971Z</time></trkpt><trkpt lat="44.5536033" lon="8.5097383"><ele>703.0</ele><time>2026-04-25T13:08:47.971Z</time></trkpt><trkpt lat="44.5535417" lon="8.50994"><ele>706.0</ele><time>2026-04-25T13:08:48.971Z</time></trkpt><trkpt lat="44.553435" lon="8.5101017"><ele>709.0</ele><time>2026-04-25T13:08:49.971Z</time></trkpt><trkpt lat="44.5532933" lon="8.5102283"><ele>712.0</ele><time>2026-04-25T13:08:50.971Z</time></trkpt><trkpt lat="44.553145" lon="8.5103583"><ele>711.3333333333334</ele><time>2026-04-25T13:08:51.971Z</time></trkpt><trkpt lat="44.5530167" lon="8.5105217"><ele>710.6666666666666</ele><time>2026-04-25T13:08:52.971Z</time></trkpt><trkpt lat="44.5528867" lon="8.5106817"><ele>710.0</ele><time>2026-04-25T13:08:53.972Z</time></trkpt><trkpt lat="44.55277" lon="8.5108183"><ele>710.0</ele><time>2026-04-25T13:08:54.971Z</time></trkpt><trkpt lat="44.5526433" lon="8.5108867"><ele>710.0</ele><time>2026-04-25T13:08:55.971Z</time></trkpt><trkpt lat="44.55247" lon="8.5108983"><ele>710.0</ele><time>2026-04-25T13:08:56.971Z</time></trkpt><trkpt lat="44.5522817" lon="8.51096"><ele>710.0</ele><time>2026-04-25T13:08:57.971Z</time></trkpt><trkpt lat="44.5520883" lon="8.5111"><ele>710.0</ele><time>2026-04-25T13:08:58.971Z</time></trkpt><trkpt lat="44.5518883" lon="8.5113183"><ele>714.5</ele><time>2026-04-25T13:08:59.972Z</time></trkpt><trkpt lat="44.5516967" lon="8.5115733"><ele>719.0</ele><time>2026-04-25T13:09:00.971Z</time></trkpt><trkpt lat="44.551535" lon="8.5117967"><ele>719.0</ele><time>2026-04-25T13:09:01.972Z</time></trkpt><trkpt lat="44.5513983" lon="8.512005"><ele>719.0</ele><time>2026-04-25T13:09:02.971Z</time></trkpt><trkpt lat="44.5512883" lon="8.512195"><ele>719.0</ele><time>2026-04-25T13:09:03.971Z</time></trkpt><trkpt lat="44.5512183" lon="8.5124217"><ele>722.3333333333333</ele><time>2026-04-25T13:09:04.971Z</time></trkpt><trkpt lat="44.5511467" lon="8.5126617"><ele>725.6666666666666</ele><time>2026-04-25T13:09:05.971Z</time></trkpt><trkpt lat="44.5510433" lon="8.5128817"><ele>729.0</ele><time>2026-04-25T13:09:06.971Z</time></trkpt><trkpt lat="44.5509317" lon="8.5131083"><ele>729.0</ele><time>2026-04-25T13:09:07.971Z</time></trkpt><trkpt lat="44.5508483" lon="8.5133133"><ele>729.0</ele><time>2026-04-25T13:09:08.971Z</time></trkpt><trkpt lat="44.5508133" lon="8.51349"><ele>729.0</ele><time>2026-04-25T13:09:09.971Z</time></trkpt><trkpt lat="44.5508183" lon="8.5136583"><ele>729.0</ele><time>2026-04-25T13:09:10.972Z</time></trkpt><trkpt lat="44.5508767" lon="8.5138317"><ele>729.75</ele><time>2026-04-25T13:09:11.971Z</time></trkpt><trkpt lat="44.5509467" lon="8.5139833"><ele>730.5</ele><time>2026-04-25T13:09:12.972Z</time></trkpt><trkpt lat="44.550985" lon="8.5141567"><ele>731.25</ele><time>2026-04-25T13:09:13.972Z</time></trkpt><trkpt lat="44.5509767" lon="8.5143533"><ele>732.0</ele><time>2026-04-25T13:09:14.971Z</time></trkpt><trkpt lat="44.550925" lon="8.514555"><ele>732.0</ele><time>2026-04-25T13:09:15.971Z</time></trkpt><trkpt lat="44.5508367" lon="8.51476"><ele>732.0</ele><time>2026-04-25T13:09:16.972Z</time></trkpt><trkpt lat="44.5507467" lon="8.5149983"><ele>732.0</ele><time>2026-04-25T13:09:17.971Z</time></trkpt><trkpt lat="44.5506583" lon="8.5152267"><ele>729.3333333333334</ele><time>2026-04-25T13:09:18.972Z</time></trkpt><trkpt lat="44.5505217" lon="8.5154467"><ele>726.6666666666667</ele><time>2026-04-25T13:09:19.972Z</time></trkpt><trkpt lat="44.5503817" lon="8.5156483"><ele>724.0</ele><time>2026-04-25T13:09:20.972Z</time></trkpt><trkpt lat="44.5502367" lon="8.5158783"><ele>725.5</ele><time>2026-04-25T13:09:21.972Z</time></trkpt><trkpt lat="44.5500967" lon="8.5161317"><ele>727.0</ele><time>2026-04-25T13:09:22.971Z</time></trkpt><trkpt lat="44.5499583" lon="8.5163833"><ele>727.0</ele><time>2026-04-25T13:09:23.971Z</time></trkpt><trkpt lat="44.5498283" lon="8.5166133"><ele>727.0</ele><time>2026-04-25T13:09:24.971Z</time></trkpt><trkpt lat="44.549715" lon="8.51684"><ele>727.0</ele><time>2026-04-25T13:09:25.971Z</time></trkpt><trkpt lat="44.549615" lon="8.5170967"><ele>732.0</ele><time>2026-04-25T13:09:26.971Z</time></trkpt><trkpt lat="44.5495383" lon="8.5173633"><ele>737.0</ele><time>2026-04-25T13:09:27.971Z</time></trkpt><trkpt lat="44.5494717" lon="8.5176267"><ele>742.0</ele><time>2026-04-25T13:09:28.971Z</time></trkpt><trkpt lat="44.54941" lon="8.5178467"><ele>738.6666666666667</ele><time>2026-04-25T13:09:29.972Z</time></trkpt><trkpt lat="44.5493717" lon="8.5180983"><ele>735.3333333333334</ele><time>2026-04-25T13:09:30.971Z</time></trkpt><trkpt lat="44.549345" lon="8.518365"><ele>732.0</ele><time>2026-04-25T13:09:31.972Z</time></trkpt><trkpt lat="44.54934" lon="8.51865"><ele>731.0</ele><time>2026-04-25T13:09:32.971Z</time></trkpt><trkpt lat="44.549335" lon="8.5189383"><ele>730.0</ele><time>2026-04-25T13:09:33.971Z</time></trkpt><trkpt lat="44.5493383" lon="8.519215"><ele>729.0</ele><time>2026-04-25T13:09:34.971Z</time></trkpt><trkpt lat="44.549325" lon="8.519475"><ele>727.6666666666666</ele><time>2026-04-25T13:09:35.971Z</time></trkpt><trkpt lat="44.54931" lon="8.51972"><ele>726.3333333333333</ele><time>2026-04-25T13:09:36.971Z</time></trkpt><trkpt lat="44.5492633" lon="8.5199433"><ele>725.0</ele><time>2026-04-25T13:09:37.971Z</time></trkpt><trkpt lat="44.5492033" lon="8.5201433"><ele>725.0</ele><time>2026-04-25T13:09:38.972Z</time></trkpt><trkpt lat="44.5491133" lon="8.5202967"><ele>725.0</ele><time>2026-04-25T13:09:39.971Z</time></trkpt><trkpt lat="44.5490033" lon="8.5204117"><ele>725.0</ele><time>2026-04-25T13:09:40.972Z</time></trkpt><trkpt lat="44.5488967" lon="8.520525"><ele>725.0</ele><time>2026-04-25T13:09:41.971Z</time></trkpt><trkpt lat="44.5488283" lon="8.52067"><ele>726.3333333333333</ele><time>2026-04-25T13:09:42.971Z</time></trkpt><trkpt lat="44.5487967" lon="8.5208583"><ele>727.6666666666666</ele><time>2026-04-25T13:09:43.971Z</time></trkpt><trkpt lat="44.5487883" lon="8.5210967"><ele>729.0</ele><time>2026-04-25T13:09:44.971Z</time></trkpt><trkpt lat="44.5487783" lon="8.5213617"><ele>729.3333333333334</ele><time>2026-04-25T13:09:45.971Z</time></trkpt><trkpt lat="44.5487683" lon="8.5216483"><ele>729.6666666666667</ele><time>2026-04-25T13:09:46.971Z</time></trkpt><trkpt lat="44.5487633" lon="8.5219267"><ele>730.0</ele><time>2026-04-25T13:09:47.972Z</time></trkpt><trkpt lat="44.5487617" lon="8.5221917"><ele>730.25</ele><time>2026-04-25T13:09:48.972Z</time></trkpt><trkpt lat="44.548755" lon="8.52242"><ele>730.5</ele><time>2026-04-25T13:09:49.971Z</time></trkpt><trkpt lat="44.548755" lon="8.52263"><ele>730.75</ele><time>2026-04-25T13:09:50.972Z</time></trkpt><trkpt lat="44.5487283" lon="8.5228183"><ele>731.0</ele><time>2026-04-25T13:09:51.971Z</time></trkpt><trkpt lat="44.5486583" lon="8.5229867"><ele>723.3333333333333</ele><time>2026-04-25T13:09:52.971Z</time></trkpt><trkpt lat="44.548545" lon="8.52315"><ele>715.6666666666666</ele><time>2026-04-25T13:09:53.972Z</time></trkpt><trkpt lat="44.5484217" lon="8.523295"><ele>708.0</ele><time>2026-04-25T13:09:54.971Z</time></trkpt><trkpt lat="44.5482933" lon="8.5234183"><ele>708.0</ele><time>2026-04-25T13:09:55.971Z</time></trkpt><trkpt lat="44.54818" lon="8.5235317"><ele>708.0</ele><time>2026-04-25T13:09:56.971Z</time></trkpt><trkpt lat="44.5480733" lon="8.5236467"><ele>708.0</ele><time>2026-04-25T13:09:57.971Z</time></trkpt><trkpt lat="44.5479683" lon="8.5237883"><ele>708.0</ele><time>2026-04-25T13:09:58.971Z</time></trkpt><trkpt lat="44.547855" lon="8.5239533"><ele>706.25</ele><time>2026-04-25T13:09:59.971Z</time></trkpt><trkpt lat="44.547755" lon="8.5241267"><ele>704.5</ele><time>2026-04-25T13:10:00.972Z</time></trkpt><trkpt lat="44.54764" lon="8.5242717"><ele>702.75</ele><time>2026-04-25T13:10:01.972Z</time></trkpt><trkpt lat="44.547535" lon="8.5243817"><ele>701.0</ele><time>2026-04-25T13:10:02.971Z</time></trkpt><trkpt lat="44.5474267" lon="8.52446"><ele>701.0</ele><time>2026-04-25T13:10:03.972Z</time></trkpt><trkpt lat="44.547315" lon="8.5245333"><ele>701.0</ele><time>2026-04-25T13:10:04.972Z</time></trkpt><trkpt lat="44.547195" lon="8.524645"><ele>701.0</ele><time>2026-04-25T13:10:05.971Z</time></trkpt><trkpt lat="44.5470783" lon="8.52477"><ele>701.0</ele><time>2026-04-25T13:10:06.971Z</time></trkpt><trkpt lat="44.54697" lon="8.524925"><ele>698.6666666666666</ele><time>2026-04-25T13:10:07.971Z</time></trkpt><trkpt lat="44.5468917" lon="8.52515"><ele>696.3333333333334</ele><time>2026-04-25T13:10:08.971Z</time></trkpt><trkpt lat="44.5468317" lon="8.52539"><ele>694.0</ele><time>2026-04-25T13:10:09.971Z</time></trkpt><trkpt lat="44.5467933" lon="8.5256517"><ele>694.0</ele><time>2026-04-25T13:10:10.971Z</time></trkpt><trkpt lat="44.54678" lon="8.5259433"><ele>694.0</ele><time>2026-04-25T13:10:11.971Z</time></trkpt><trkpt lat="44.5467933" lon="8.52623"><ele>694.0</ele><time>2026-04-25T13:10:12.972Z</time></trkpt><trkpt lat="44.5468083" lon="8.526485"><ele>693.6666666666667</ele><time>2026-04-25T13:10:13.971Z</time></trkpt><trkpt lat="44.546835" lon="8.5267283"><ele>693.3333333333334</ele><time>2026-04-25T13:10:14.972Z</time></trkpt><trkpt lat="44.5468333" lon="8.52697"><ele>693.0</ele><time>2026-04-25T13:10:15.972Z</time></trkpt><trkpt lat="44.5467983" lon="8.5272017"><ele>693.0</ele><time>2026-04-25T13:10:16.971Z</time></trkpt><trkpt lat="44.5467617" lon="8.52741"><ele>693.0</ele><time>2026-04-25T13:10:17.971Z</time></trkpt><trkpt lat="44.5467583" lon="8.5276317"><ele>693.0</ele><time>2026-04-25T13:10:18.971Z</time></trkpt><trkpt lat="44.54677" lon="8.527875"><ele>693.3333333333334</ele><time>2026-04-25T13:10:19.971Z</time></trkpt><trkpt lat="44.5467933" lon="8.528135"><ele>693.6666666666667</ele><time>2026-04-25T13:10:20.971Z</time></trkpt><trkpt lat="44.5468117" lon="8.5283883"><ele>694.0</ele><time>2026-04-25T13:10:21.972Z</time></trkpt><trkpt lat="44.5468333" lon="8.5286383"><ele>695.3333333333334</ele><time>2026-04-25T13:10:22.971Z</time></trkpt><trkpt lat="44.5468267" lon="8.5288783"><ele>696.6666666666666</ele><time>2026-04-25T13:10:23.971Z</time></trkpt><trkpt lat="44.54677" lon="8.5290933"><ele>698.0</ele><time>2026-04-25T13:10:24.971Z</time></trkpt><trkpt lat="44.546725" lon="8.5293"><ele>698.0</ele><time>2026-04-25T13:10:25.972Z</time></trkpt><trkpt lat="44.5467117" lon="8.5295117"><ele>698.0</ele><time>2026-04-25T13:10:26.971Z</time></trkpt><trkpt lat="44.5467133" lon="8.529725"><ele>698.0</ele><time>2026-04-25T13:10:27.972Z</time></trkpt><trkpt lat="44.54671" lon="8.5299233"><ele>698.0</ele><time>2026-04-25T13:10:28.972Z</time></trkpt><trkpt lat="44.5466517" lon="8.53012"><ele>700.0</ele><time>2026-04-25T13:10:29.971Z</time></trkpt><trkpt lat="44.5465583" lon="8.53025"><ele>702.0</ele><time>2026-04-25T13:10:30.971Z</time></trkpt><trkpt lat="44.546445" lon="8.530375"><ele>704.0</ele><time>2026-04-25T13:10:31.972Z</time></trkpt><trkpt lat="44.5463" lon="8.53046"><ele>706.0</ele><time>2026-04-25T13:10:32.972Z</time></trkpt><trkpt lat="44.5461217" lon="8.5304583"><ele>700.5</ele><time>2026-04-25T13:10:33.972Z</time></trkpt><trkpt lat="44.5459" lon="8.5304167"><ele>695.0</ele><time>2026-04-25T13:10:34.971Z</time></trkpt><trkpt lat="44.54566" lon="8.530355"><ele>695.0</ele><time>2026-04-25T13:10:35.971Z</time></trkpt><trkpt lat="44.54544" lon="8.5303217"><ele>695.0</ele><time>2026-04-25T13:10:36.971Z</time></trkpt><trkpt lat="44.5452417" lon="8.530305"><ele>695.0</ele><time>2026-04-25T13:10:37.971Z</time></trkpt><trkpt lat="44.5450783" lon="8.5302983"><ele>692.75</ele><time>2026-04-25T13:10:38.972Z</time></trkpt><trkpt lat="44.5449583" lon="8.5302967"><ele>690.5</ele><time>2026-04-25T13:10:39.972Z</time></trkpt><trkpt lat="44.5448733" lon="8.5303417"><ele>688.25</ele><time>2026-04-25T13:10:40.972Z</time></trkpt><trkpt lat="44.5448067" lon="8.5304667"><ele>686.0</ele><time>2026-04-25T13:10:41.972Z</time></trkpt><trkpt lat="44.5447483" lon="8.5306383"><ele>685.75</ele><time>2026-04-25T13:10:42.971Z</time></trkpt><trkpt lat="44.5446533" lon="8.5307317"><ele>685.5</ele><time>2026-04-25T13:10:43.971Z</time></trkpt><trkpt lat="44.54454" lon="8.530755"><ele>685.25</ele><time>2026-04-25T13:10:44.971Z</time></trkpt><trkpt lat="44.5444333" lon="8.5307217"><ele>685.0</ele><time>2026-04-25T13:10:45.972Z</time></trkpt><trkpt lat="44.5443233" lon="8.5307283"><ele>685.0</ele><time>2026-04-25T13:10:46.971Z</time></trkpt><trkpt lat="44.54422" lon="8.5308083"><ele>685.0</ele><time>2026-04-25T13:10:47.972Z</time></trkpt><trkpt lat="44.54416" lon="8.5309883"><ele>685.0</ele><time>2026-04-25T13:10:48.971Z</time></trkpt><trkpt lat="44.5441467" lon="8.5312083"><ele>685.0</ele><time>2026-04-25T13:10:49.972Z</time></trkpt><trkpt lat="44.544165" lon="8.5314433"><ele>689.25</ele><time>2026-04-25T13:10:50.972Z</time></trkpt><trkpt lat="44.5441533" lon="8.53164"><ele>693.5</ele><time>2026-04-25T13:10:51.971Z</time></trkpt><trkpt lat="44.544115" lon="8.5317967"><ele>697.75</ele><time>2026-04-25T13:10:52.972Z</time></trkpt><trkpt lat="44.5440433" lon="8.5319017"><ele>702.0</ele><time>2026-04-25T13:10:53.972Z</time></trkpt><trkpt lat="44.5439533" lon="8.53194"><ele>702.0</ele><time>2026-04-25T13:10:54.971Z</time></trkpt><trkpt lat="44.5438483" lon="8.5319467"><ele>702.0</ele><time>2026-04-25T13:10:55.971Z</time></trkpt><trkpt lat="44.54375" lon="8.5319833"><ele>702.0</ele><time>2026-04-25T13:10:56.971Z</time></trkpt><trkpt lat="44.543665" lon="8.5320867"><ele>702.0</ele><time>2026-04-25T13:10:57.971Z</time></trkpt><trkpt lat="44.5436" lon="8.532245"><ele>702.0</ele><time>2026-04-25T13:10:58.972Z</time></trkpt><trkpt lat="44.543555" lon="8.53243"><ele>703.25</ele><time>2026-04-25T13:10:59.972Z</time></trkpt><trkpt lat="44.5434917" lon="8.532595"><ele>704.5</ele><time>2026-04-25T13:11:00.971Z</time></trkpt><trkpt lat="44.5434" lon="8.5327267"><ele>705.75</ele><time>2026-04-25T13:11:01.972Z</time></trkpt><trkpt lat="44.54332" lon="8.5329033"><ele>707.0</ele><time>2026-04-25T13:11:02.971Z</time></trkpt><trkpt lat="44.543245" lon="8.533125"><ele>707.0</ele><time>2026-04-25T13:11:03.971Z</time></trkpt><trkpt lat="44.5431933" lon="8.5333517"><ele>707.0</ele><time>2026-04-25T13:11:04.971Z</time></trkpt><trkpt lat="44.5431233" lon="8.5335533"><ele>707.0</ele><time>2026-04-25T13:11:05.971Z</time></trkpt><trkpt lat="44.5430317" lon="8.533705"><ele>705.0</ele><time>2026-04-25T13:11:06.972Z</time></trkpt><trkpt lat="44.5429133" lon="8.5338417"><ele>703.0</ele><time>2026-04-25T13:11:07.971Z</time></trkpt><trkpt lat="44.5427933" lon="8.534025"><ele>701.0</ele><time>2026-04-25T13:11:08.971Z</time></trkpt><trkpt lat="44.5426867" lon="8.5342183"><ele>701.0</ele><time>2026-04-25T13:11:09.971Z</time></trkpt><trkpt lat="44.5425667" lon="8.534375"><ele>701.0</ele><time>2026-04-25T13:11:10.971Z</time></trkpt><trkpt lat="44.542415" lon="8.5345033"><ele>701.0</ele><time>2026-04-25T13:11:11.972Z</time></trkpt><trkpt lat="44.5422483" lon="8.534645"><ele>702.0</ele><time>2026-04-25T13:11:12.971Z</time></trkpt><trkpt lat="44.542085" lon="8.5348167"><ele>703.0</ele><time>2026-04-25T13:11:13.971Z</time></trkpt><trkpt lat="44.5419167" lon="8.535025"><ele>704.0</ele><time>2026-04-25T13:11:14.972Z</time></trkpt><trkpt lat="44.5417683" lon="8.5352483"><ele>712.0</ele><time>2026-04-25T13:11:15.972Z</time></trkpt><trkpt lat="44.5416233" lon="8.535465"><ele>720.0</ele><time>2026-04-25T13:11:16.971Z</time></trkpt><trkpt lat="44.54149" lon="8.5356617"><ele>728.0</ele><time>2026-04-25T13:11:17.971Z</time></trkpt><trkpt lat="44.5413733" lon="8.5358467"><ele>728.0</ele><time>2026-04-25T13:11:18.971Z</time></trkpt><trkpt lat="44.541275" lon="8.5360517"><ele>728.0</ele><time>2026-04-25T13:11:19.972Z</time></trkpt><trkpt lat="44.5411867" lon="8.53628"><ele>728.0</ele><time>2026-04-25T13:11:20.971Z</time></trkpt><trkpt lat="44.5411117" lon="8.53648"><ele>726.5</ele><time>2026-04-25T13:11:21.971Z</time></trkpt><trkpt lat="44.5410483" lon="8.536655"><ele>725.0</ele><time>2026-04-25T13:11:22.972Z</time></trkpt><trkpt lat="44.54096" lon="8.536775"><ele>723.5</ele><time>2026-04-25T13:11:23.971Z</time></trkpt><trkpt lat="44.54086" lon="8.5368367"><ele>722.0</ele><time>2026-04-25T13:11:24.971Z</time></trkpt><trkpt lat="44.5407467" lon="8.536845"><ele>722.0</ele><time>2026-04-25T13:11:25.971Z</time></trkpt><trkpt lat="44.5405967" lon="8.5368117"><ele>722.0</ele><time>2026-04-25T13:11:26.972Z</time></trkpt><trkpt lat="44.5404317" lon="8.53677"><ele>722.0</ele><time>2026-04-25T13:11:27.971Z</time></trkpt><trkpt lat="44.5402417" lon="8.5367317"><ele>723.0</ele><time>2026-04-25T13:11:28.972Z</time></trkpt><trkpt lat="44.54005" lon="8.5366983"><ele>724.0</ele><time>2026-04-25T13:11:29.972Z</time></trkpt><trkpt lat="44.5398783" lon="8.5366517"><ele>725.0</ele><time>2026-04-25T13:11:30.971Z</time></trkpt><trkpt lat="44.539725" lon="8.536575"><ele>725.0</ele><time>2026-04-25T13:11:31.971Z</time></trkpt><trkpt lat="44.5395983" lon="8.536455"><ele>725.0</ele><time>2026-04-25T13:11:32.971Z</time></trkpt><trkpt lat="44.5394717" lon="8.53632"><ele>725.0</ele><time>2026-04-25T13:11:33.971Z</time></trkpt><trkpt lat="44.5393433" lon="8.5361617"><ele>726.5</ele><time>2026-04-25T13:11:34.971Z</time></trkpt><trkpt lat="44.5392383" lon="8.5360483"><ele>728.0</ele><time>2026-04-25T13:11:35.971Z</time></trkpt><trkpt lat="44.539175" lon="8.5360083"><ele>729.5</ele><time>2026-04-25T13:11:36.972Z</time></trkpt><trkpt lat="44.5390733" lon="8.5360383"><ele>731.0</ele><time>2026-04-25T13:11:38.971Z</time></trkpt><trkpt lat="44.538945" lon="8.53614"><ele>731.0</ele><time>2026-04-25T13:11:40.971Z</time></trkpt><trkpt lat="44.5388483" lon="8.53621"><ele>731.0</ele><time>2026-04-25T13:11:41.972Z</time></trkpt><trkpt lat="44.538725" lon="8.536285"><ele>731.0</ele><time>2026-04-25T13:11:42.972Z</time></trkpt><trkpt lat="44.5385817" lon="8.536365"><ele>731.0</ele><time>2026-04-25T13:11:43.972Z</time></trkpt><trkpt lat="44.5384583" lon="8.53642"><ele>730.25</ele><time>2026-04-25T13:11:44.971Z</time></trkpt><trkpt lat="44.53833" lon="8.53646"><ele>729.5</ele><time>2026-04-25T13:11:45.972Z</time></trkpt><trkpt lat="44.5382033" lon="8.53647"><ele>728.75</ele><time>2026-04-25T13:11:46.971Z</time></trkpt><trkpt lat="44.5380983" lon="8.5364233"><ele>728.0</ele><time>2026-04-25T13:11:47.971Z</time></trkpt><trkpt lat="44.538" lon="8.536305"><ele>730.3333333333333</ele><time>2026-04-25T13:11:48.972Z</time></trkpt><trkpt lat="44.53787" lon="8.5360317"><ele>732.6666666666666</ele><time>2026-04-25T13:11:49.972Z</time></trkpt><trkpt lat="44.5377533" lon="8.5358033"><ele>735.0</ele><time>2026-04-25T13:11:50.971Z</time></trkpt><trkpt lat="44.53764" lon="8.5356183"><ele>735.0</ele><time>2026-04-25T13:11:51.971Z</time></trkpt><trkpt lat="44.53751" lon="8.53549"><ele>735.0</ele><time>2026-04-25T13:11:52.971Z</time></trkpt><trkpt lat="44.537385" lon="8.5354017"><ele>735.0</ele><time>2026-04-25T13:11:53.971Z</time></trkpt><trkpt lat="44.537215" lon="8.53536"><ele>737.0</ele><time>2026-04-25T13:11:54.971Z</time></trkpt><trkpt lat="44.53704" lon="8.5353083"><ele>739.0</ele><time>2026-04-25T13:11:55.971Z</time></trkpt><trkpt lat="44.5368717" lon="8.5351867"><ele>741.0</ele><time>2026-04-25T13:11:56.972Z</time></trkpt><trkpt lat="44.536725" lon="8.53503"><ele>741.0</ele><time>2026-04-25T13:11:57.971Z</time></trkpt><trkpt lat="44.5365833" lon="8.53486"><ele>741.0</ele><time>2026-04-25T13:11:58.971Z</time></trkpt><trkpt lat="44.5364433" lon="8.5346883"><ele>741.0</ele><time>2026-04-25T13:11:59.971Z</time></trkpt><trkpt lat="44.536285" lon="8.5344967"><ele>740.5</ele><time>2026-04-25T13:12:00.972Z</time></trkpt><trkpt lat="44.5360983" lon="8.534315"><ele>740.0</ele><time>2026-04-25T13:12:01.972Z</time></trkpt><trkpt lat="44.5358783" lon="8.5341433"><ele>740.0</ele><time>2026-04-25T13:12:02.971Z</time></trkpt><trkpt lat="44.5356567" lon="8.5339867"><ele>740.0</ele><time>2026-04-25T13:12:03.971Z</time></trkpt><trkpt lat="44.53544" lon="8.5338717"><ele>739.5</ele><time>2026-04-25T13:12:04.971Z</time></trkpt><trkpt lat="44.5352317" lon="8.5337867"><ele>739.0</ele><time>2026-04-25T13:12:05.97Z</time></trkpt><trkpt lat="44.535" lon="8.53373"><ele>738.0</ele><time>2026-04-25T13:12:06.97Z</time></trkpt><trkpt lat="44.53477" lon="8.5337017"><ele>737.0</ele><time>2026-04-25T13:12:07.97Z</time></trkpt><trkpt lat="44.5345417" lon="8.53369"><ele>736.0</ele><time>2026-04-25T13:12:08.97Z</time></trkpt><trkpt lat="44.5342817" lon="8.5336667"><ele>735.0</ele><time>2026-04-25T13:12:09.97Z</time></trkpt><trkpt lat="44.5340283" lon="8.5336367"><ele>735.0</ele><time>2026-04-25T13:12:10.971Z</time></trkpt><trkpt lat="44.5337917" lon="8.53361"><ele>735.0</ele><time>2026-04-25T13:12:11.97Z</time></trkpt><trkpt lat="44.5335717" lon="8.533565"><ele>736.0</ele><time>2026-04-25T13:12:12.97Z</time></trkpt><trkpt lat="44.533355" lon="8.5335133"><ele>737.0</ele><time>2026-04-25T13:12:13.97Z</time></trkpt><trkpt lat="44.53314" lon="8.53346"><ele>738.0</ele><time>2026-04-25T13:12:14.97Z</time></trkpt><trkpt lat="44.53295" lon="8.533395"><ele>739.0</ele><time>2026-04-25T13:12:15.97Z</time></trkpt><trkpt lat="44.5327567" lon="8.5333267"><ele>740.0</ele><time>2026-04-25T13:12:16.97Z</time></trkpt><trkpt lat="44.53256" lon="8.53327"><ele>741.0</ele><time>2026-04-25T13:12:17.971Z</time></trkpt><trkpt lat="44.5323783" lon="8.5332183"><ele>741.0</ele><time>2026-04-25T13:12:18.97Z</time></trkpt><trkpt lat="44.532205" lon="8.5331667"><ele>741.0</ele><time>2026-04-25T13:12:19.97Z</time></trkpt><trkpt lat="44.53203" lon="8.5331217"><ele>741.0</ele><time>2026-04-25T13:12:20.97Z</time></trkpt><trkpt lat="44.5318583" lon="8.5330667"><ele>738.0</ele><time>2026-04-25T13:12:21.97Z</time></trkpt><trkpt lat="44.53169" lon="8.53303"><ele>735.0</ele><time>2026-04-25T13:12:22.97Z</time></trkpt><trkpt lat="44.53151" lon="8.532995"><ele>732.0</ele><time>2026-04-25T13:12:23.971Z</time></trkpt><trkpt lat="44.53133" lon="8.5329283"><ele>728.6666666666666</ele><time>2026-04-25T13:12:24.97Z</time></trkpt><trkpt lat="44.5311533" lon="8.5328367"><ele>725.3333333333333</ele><time>2026-04-25T13:12:25.97Z</time></trkpt><trkpt lat="44.531005" lon="8.53272"><ele>722.0</ele><time>2026-04-25T13:12:26.97Z</time></trkpt><trkpt lat="44.5308617" lon="8.53261"><ele>722.0</ele><time>2026-04-25T13:12:27.971Z</time></trkpt><trkpt lat="44.5307367" lon="8.5325267"><ele>722.0</ele><time>2026-04-25T13:12:28.97Z</time></trkpt><trkpt lat="44.53064" lon="8.5324933"><ele>722.0</ele><time>2026-04-25T13:12:29.971Z</time></trkpt><trkpt lat="44.5305033" lon="8.5324833"><ele>722.0</ele><time>2026-04-25T13:12:30.971Z</time></trkpt><trkpt lat="44.530355" lon="8.5325067"><ele>720.3333333333333</ele><time>2026-04-25T13:12:31.97Z</time></trkpt><trkpt lat="44.530205" lon="8.5325567"><ele>718.6666666666666</ele><time>2026-04-25T13:12:32.971Z</time></trkpt><trkpt lat="44.53006" lon="8.5325983"><ele>717.0</ele><time>2026-04-25T13:12:33.971Z</time></trkpt><trkpt lat="44.529915" lon="8.5326883"><ele>717.0</ele><time>2026-04-25T13:12:34.971Z</time></trkpt><trkpt lat="44.5297583" lon="8.5327717"><ele>717.0</ele><time>2026-04-25T13:12:35.971Z</time></trkpt><trkpt lat="44.529605" lon="8.5328633"><ele>717.0</ele><time>2026-04-25T13:12:36.971Z</time></trkpt><trkpt lat="44.52944" lon="8.532965"><ele>717.0</ele><time>2026-04-25T13:12:37.971Z</time></trkpt><trkpt lat="44.5292833" lon="8.5330483"><ele>717.0</ele><time>2026-04-25T13:12:38.97Z</time></trkpt><trkpt lat="44.5291267" lon="8.533125"><ele>717.0</ele><time>2026-04-25T13:12:39.971Z</time></trkpt><trkpt lat="44.52896" lon="8.5331383"><ele>717.0</ele><time>2026-04-25T13:12:40.971Z</time></trkpt><trkpt lat="44.5287817" lon="8.5331133"><ele>717.0</ele><time>2026-04-25T13:12:41.97Z</time></trkpt><trkpt lat="44.5285917" lon="8.5330867"><ele>717.0</ele><time>2026-04-25T13:12:42.97Z</time></trkpt><trkpt lat="44.5283783" lon="8.5330417"><ele>714.3333333333334</ele><time>2026-04-25T13:12:43.97Z</time></trkpt><trkpt lat="44.5281817" lon="8.5329733"><ele>711.6666666666667</ele><time>2026-04-25T13:12:44.971Z</time></trkpt><trkpt lat="44.5279867" lon="8.5329367"><ele>709.0</ele><time>2026-04-25T13:12:45.97Z</time></trkpt><trkpt lat="44.5277733" lon="8.5329167"><ele>708.3333333333334</ele><time>2026-04-25T13:12:46.97Z</time></trkpt><trkpt lat="44.52758" lon="8.5328733"><ele>707.6666666666666</ele><time>2026-04-25T13:12:47.97Z</time></trkpt><trkpt lat="44.5273783" lon="8.5327717"><ele>707.0</ele><time>2026-04-25T13:12:48.971Z</time></trkpt><trkpt lat="44.5271717" lon="8.5326483"><ele>703.0</ele><time>2026-04-25T13:12:49.97Z</time></trkpt><trkpt lat="44.5269817" lon="8.53252"><ele>699.0</ele><time>2026-04-25T13:12:50.97Z</time></trkpt><trkpt lat="44.5267983" lon="8.53238"><ele>695.0</ele><time>2026-04-25T13:12:51.97Z</time></trkpt><trkpt lat="44.526615" lon="8.5322083"><ele>695.0</ele><time>2026-04-25T13:12:52.97Z</time></trkpt><trkpt lat="44.52642" lon="8.5320867"><ele>695.0</ele><time>2026-04-25T13:12:53.971Z</time></trkpt><trkpt lat="44.5262167" lon="8.5320117"><ele>695.0</ele><time>2026-04-25T13:12:54.97Z</time></trkpt><trkpt lat="44.5260033" lon="8.53197"><ele>693.6666666666666</ele><time>2026-04-25T13:12:55.971Z</time></trkpt><trkpt lat="44.5258067" lon="8.5319333"><ele>692.3333333333334</ele><time>2026-04-25T13:12:56.97Z</time></trkpt><trkpt lat="44.525625" lon="8.5318967"><ele>691.0</ele><time>2026-04-25T13:12:57.97Z</time></trkpt><trkpt lat="44.52548" lon="8.5318767"><ele>690.0</ele><time>2026-04-25T13:12:58.971Z</time></trkpt><trkpt lat="44.52534" lon="8.5319017"><ele>689.0</ele><time>2026-04-25T13:12:59.97Z</time></trkpt><trkpt lat="44.52517" lon="8.53195"><ele>688.0</ele><time>2026-04-25T13:13:00.971Z</time></trkpt><trkpt lat="44.5249883" lon="8.531985"><ele>688.0</ele><time>2026-04-25T13:13:01.97Z</time></trkpt><trkpt lat="44.5248133" lon="8.5319867"><ele>688.0</ele><time>2026-04-25T13:13:02.97Z</time></trkpt><trkpt lat="44.52464" lon="8.5319533"><ele>688.0</ele><time>2026-04-25T13:13:03.97Z</time></trkpt><trkpt lat="44.5244867" lon="8.531925"><ele>687.75</ele><time>2026-04-25T13:13:04.97Z</time></trkpt><trkpt lat="44.524365" lon="8.5319267"><ele>687.5</ele><time>2026-04-25T13:13:05.971Z</time></trkpt><trkpt lat="44.524255" lon="8.5319933"><ele>687.25</ele><time>2026-04-25T13:13:06.97Z</time></trkpt><trkpt lat="44.5241633" lon="8.532145"><ele>687.0</ele><time>2026-04-25T13:13:07.971Z</time></trkpt><trkpt lat="44.52409" lon="8.53233"><ele>687.0</ele><time>2026-04-25T13:13:08.97Z</time></trkpt><trkpt lat="44.524" lon="8.5324867"><ele>687.0</ele><time>2026-04-25T13:13:09.97Z</time></trkpt><trkpt lat="44.5239033" lon="8.5325833"><ele>687.0</ele><time>2026-04-25T13:13:10.97Z</time></trkpt><trkpt lat="44.52379" lon="8.5326033"><ele>687.0</ele><time>2026-04-25T13:13:11.97Z</time></trkpt><trkpt lat="44.5236517" lon="8.532535"><ele>683.6666666666666</ele><time>2026-04-25T13:13:12.971Z</time></trkpt><trkpt lat="44.5234967" lon="8.5324233"><ele>680.3333333333333</ele><time>2026-04-25T13:13:13.97Z</time></trkpt><trkpt lat="44.523325" lon="8.5322783"><ele>677.0</ele><time>2026-04-25T13:13:14.97Z</time></trkpt><trkpt lat="44.52313" lon="8.5321617"><ele>680.0</ele><time>2026-04-25T13:13:15.97Z</time></trkpt><trkpt lat="44.522915" lon="8.53204"><ele>683.0</ele><time>2026-04-25T13:13:16.97Z</time></trkpt><trkpt lat="44.5226883" lon="8.53192"><ele>683.0</ele><time>2026-04-25T13:13:17.97Z</time></trkpt><trkpt lat="44.52247" lon="8.5317967"><ele>683.0</ele><time>2026-04-25T13:13:18.97Z</time></trkpt><trkpt lat="44.5222733" lon="8.531715"><ele>683.0</ele><time>2026-04-25T13:13:19.97Z</time></trkpt><trkpt lat="44.5220867" lon="8.5316967"><ele>689.6666666666666</ele><time>2026-04-25T13:13:20.97Z</time></trkpt><trkpt lat="44.52191" lon="8.531685"><ele>696.3333333333334</ele><time>2026-04-25T13:13:21.97Z</time></trkpt><trkpt lat="44.5217567" lon="8.5316483"><ele>703.0</ele><time>2026-04-25T13:13:22.97Z</time></trkpt><trkpt lat="44.5216333" lon="8.53157"><ele>703.0</ele><time>2026-04-25T13:13:23.971Z</time></trkpt><trkpt lat="44.5215417" lon="8.5315"><ele>703.0</ele><time>2026-04-25T13:13:24.97Z</time></trkpt><trkpt lat="44.52147" lon="8.5314783"><ele>703.0</ele><time>2026-04-25T13:13:25.97Z</time></trkpt><trkpt lat="44.5213817" lon="8.5316083"><ele>703.0</ele><time>2026-04-25T13:13:27.97Z</time></trkpt><trkpt lat="44.521405" lon="8.53179"><ele>703.0</ele><time>2026-04-25T13:13:28.97Z</time></trkpt><trkpt lat="44.5214583" lon="8.5319867"><ele>704.3333333333334</ele><time>2026-04-25T13:13:29.97Z</time></trkpt><trkpt lat="44.5215333" lon="8.5321533"><ele>705.6666666666666</ele><time>2026-04-25T13:13:30.97Z</time></trkpt><trkpt lat="44.52164" lon="8.53237"><ele>707.0</ele><time>2026-04-25T13:13:31.971Z</time></trkpt><trkpt lat="44.5217483" lon="8.532595"><ele>707.0</ele><time>2026-04-25T13:13:32.971Z</time></trkpt><trkpt lat="44.5218517" lon="8.5328133"><ele>707.0</ele><time>2026-04-25T13:13:33.97Z</time></trkpt><trkpt lat="44.5219333" lon="8.5329983"><ele>707.0</ele><time>2026-04-25T13:13:34.97Z</time></trkpt><trkpt lat="44.5219867" lon="8.5331167"><ele>707.0</ele><time>2026-04-25T13:13:35.97Z</time></trkpt><trkpt lat="44.5219967" lon="8.5332083"><ele>707.0</ele><time>2026-04-25T13:13:36.97Z</time></trkpt><trkpt lat="44.5219" lon="8.5332467"><ele>707.0</ele><time>2026-04-25T13:13:38.97Z</time></trkpt><trkpt lat="44.5218317" lon="8.5331683"><ele>707.0</ele><time>2026-04-25T13:13:39.97Z</time></trkpt><trkpt lat="44.5217767" lon="8.5330283"><ele>707.0</ele><time>2026-04-25T13:13:40.971Z</time></trkpt><trkpt lat="44.5217117" lon="8.532865"><ele>707.0</ele><time>2026-04-25T13:13:41.97Z</time></trkpt><trkpt lat="44.5216417" lon="8.5327117"><ele>707.0</ele><time>2026-04-25T13:13:42.971Z</time></trkpt><trkpt lat="44.5215683" lon="8.53259"><ele>707.0</ele><time>2026-04-25T13:13:43.971Z</time></trkpt><trkpt lat="44.521485" lon="8.5324683"><ele>707.0</ele><time>2026-04-25T13:13:44.971Z</time></trkpt><trkpt lat="44.5214117" lon="8.53235"><ele>707.0</ele><time>2026-04-25T13:13:45.97Z</time></trkpt><trkpt lat="44.521345" lon="8.53221"><ele>706.0</ele><time>2026-04-25T13:13:46.971Z</time></trkpt><trkpt lat="44.521285" lon="8.532045"><ele>705.0</ele><time>2026-04-25T13:13:47.97Z</time></trkpt><trkpt lat="44.5212317" lon="8.531855"><ele>704.0</ele><time>2026-04-25T13:13:48.97Z</time></trkpt><trkpt lat="44.52117" lon="8.531695"><ele>703.0</ele><time>2026-04-25T13:13:49.971Z</time></trkpt><trkpt lat="44.5211083" lon="8.5315917"><ele>706.2</ele><time>2026-04-25T13:13:50.971Z</time></trkpt><trkpt lat="44.5210417" lon="8.5315783"><ele>709.4</ele><time>2026-04-25T13:13:51.97Z</time></trkpt><trkpt lat="44.52096" lon="8.5316533"><ele>712.6</ele><time>2026-04-25T13:13:52.971Z</time></trkpt><trkpt lat="44.5208767" lon="8.5317833"><ele>715.8000000000001</ele><time>2026-04-25T13:13:53.97Z</time></trkpt><trkpt lat="44.5207733" lon="8.53192"><ele>719.0</ele><time>2026-04-25T13:13:54.971Z</time></trkpt><trkpt lat="44.52065" lon="8.5320533"><ele>721.0</ele><time>2026-04-25T13:13:55.97Z</time></trkpt><trkpt lat="44.5205017" lon="8.5321667"><ele>723.0</ele><time>2026-04-25T13:13:56.97Z</time></trkpt><trkpt lat="44.5203817" lon="8.5322667"><ele>725.0</ele><time>2026-04-25T13:13:57.97Z</time></trkpt><trkpt lat="44.5202733" lon="8.5323817"><ele>727.0</ele><time>2026-04-25T13:13:58.971Z</time></trkpt><trkpt lat="44.5201917" lon="8.53256"><ele>727.0</ele><time>2026-04-25T13:13:59.97Z</time></trkpt><trkpt lat="44.52015" lon="8.5327783"><ele>727.0</ele><time>2026-04-25T13:14:00.97Z</time></trkpt><trkpt lat="44.5200867" lon="8.532955"><ele>727.0</ele><time>2026-04-25T13:14:01.97Z</time></trkpt><trkpt lat="44.51999" lon="8.5331083"><ele>727.0</ele><time>2026-04-25T13:14:02.97Z</time></trkpt><trkpt lat="44.5199083" lon="8.5332233"><ele>728.0</ele><time>2026-04-25T13:14:03.971Z</time></trkpt><trkpt lat="44.5198583" lon="8.5333533"><ele>729.0</ele><time>2026-04-25T13:14:04.971Z</time></trkpt><trkpt lat="44.5198633" lon="8.5335267"><ele>730.0</ele><time>2026-04-25T13:14:05.97Z</time></trkpt><trkpt lat="44.5199" lon="8.5336783"><ele>731.0</ele><time>2026-04-25T13:14:06.971Z</time></trkpt><trkpt lat="44.5199117" lon="8.533845"><ele>730.8</ele><time>2026-04-25T13:14:07.971Z</time></trkpt><trkpt lat="44.5198933" lon="8.5339767"><ele>730.5999999999999</ele><time>2026-04-25T13:14:08.971Z</time></trkpt><trkpt lat="44.519815" lon="8.5340717"><ele>730.4</ele><time>2026-04-25T13:14:09.97Z</time></trkpt><trkpt lat="44.5197217" lon="8.53413"><ele>730.2</ele><time>2026-04-25T13:14:10.97Z</time></trkpt><trkpt lat="44.5196017" lon="8.5341617"><ele>730.0</ele><time>2026-04-25T13:14:11.97Z</time></trkpt><trkpt lat="44.5194767" lon="8.5342267"><ele>730.0</ele><time>2026-04-25T13:14:12.97Z</time></trkpt><trkpt lat="44.5193917" lon="8.534325"><ele>730.0</ele><time>2026-04-25T13:14:13.971Z</time></trkpt><trkpt lat="44.519345" lon="8.5344533"><ele>730.0</ele><time>2026-04-25T13:14:14.97Z</time></trkpt><trkpt lat="44.519335" lon="8.53463"><ele>730.0</ele><time>2026-04-25T13:14:15.97Z</time></trkpt><trkpt lat="44.5193567" lon="8.5348517"><ele>730.6666666666667</ele><time>2026-04-25T13:14:16.971Z</time></trkpt><trkpt lat="44.5193967" lon="8.535115"><ele>731.3333333333334</ele><time>2026-04-25T13:14:17.97Z</time></trkpt><trkpt lat="44.51944" lon="8.5353883"><ele>732.0</ele><time>2026-04-25T13:14:18.97Z</time></trkpt><trkpt lat="44.5194667" lon="8.5356483"><ele>735.0</ele><time>2026-04-25T13:14:19.97Z</time></trkpt><trkpt lat="44.5194517" lon="8.5358883"><ele>738.0</ele><time>2026-04-25T13:14:20.97Z</time></trkpt><trkpt lat="44.5194" lon="8.5361033"><ele>741.0</ele><time>2026-04-25T13:14:21.97Z</time></trkpt><trkpt lat="44.519345" lon="8.536315"><ele>742.0</ele><time>2026-04-25T13:14:22.97Z</time></trkpt><trkpt lat="44.51929" lon="8.5364933"><ele>743.0</ele><time>2026-04-25T13:14:23.971Z</time></trkpt><trkpt lat="44.5192283" lon="8.5366233"><ele>744.0</ele><time>2026-04-25T13:14:24.97Z</time></trkpt><trkpt lat="44.5191583" lon="8.5366783"><ele>745.0</ele><time>2026-04-25T13:14:25.97Z</time></trkpt><trkpt lat="44.5190667" lon="8.536685"><ele>746.0</ele><time>2026-04-25T13:14:26.97Z</time></trkpt><trkpt lat="44.5189317" lon="8.5366683"><ele>746.0</ele><time>2026-04-25T13:14:27.97Z</time></trkpt><trkpt lat="44.5187883" lon="8.53664"><ele>746.0</ele><time>2026-04-25T13:14:28.971Z</time></trkpt><trkpt lat="44.518665" lon="8.53661"><ele>746.0</ele><time>2026-04-25T13:14:29.971Z</time></trkpt><trkpt lat="44.5185583" lon="8.53654"><ele>746.0</ele><time>2026-04-25T13:14:30.97Z</time></trkpt><trkpt lat="44.5184883" lon="8.53644"><ele>747.1999999999999</ele><time>2026-04-25T13:14:31.97Z</time></trkpt><trkpt lat="44.5184633" lon="8.5362917"><ele>748.4</ele><time>2026-04-25T13:14:32.97Z</time></trkpt><trkpt lat="44.5184317" lon="8.536145"><ele>749.6</ele><time>2026-04-25T13:14:33.971Z</time></trkpt><trkpt lat="44.5183967" lon="8.5360133"><ele>750.8</ele><time>2026-04-25T13:14:34.97Z</time></trkpt><trkpt lat="44.5183233" lon="8.5359283"><ele>752.0</ele><time>2026-04-25T13:14:35.97Z</time></trkpt><trkpt lat="44.51823" lon="8.5358717"><ele>752.0</ele><time>2026-04-25T13:14:36.97Z</time></trkpt><trkpt lat="44.5181283" lon="8.5358633"><ele>752.0</ele><time>2026-04-25T13:14:37.97Z</time></trkpt><trkpt lat="44.51802" lon="8.5359017"><ele>752.0</ele><time>2026-04-25T13:14:38.97Z</time></trkpt><trkpt lat="44.51792" lon="8.536015"><ele>752.0</ele><time>2026-04-25T13:14:39.97Z</time></trkpt><trkpt lat="44.5178417" lon="8.5363"><ele>754.0</ele><time>2026-04-25T13:14:40.971Z</time></trkpt><trkpt lat="44.5177917" lon="8.536515"><ele>756.0</ele><time>2026-04-25T13:14:41.971Z</time></trkpt><trkpt lat="44.5177683" lon="8.5367133"><ele>758.0</ele><time>2026-04-25T13:14:42.971Z</time></trkpt><trkpt lat="44.517765" lon="8.5369183"><ele>758.25</ele><time>2026-04-25T13:14:43.97Z</time></trkpt><trkpt lat="44.5177667" lon="8.537115"><ele>758.5</ele><time>2026-04-25T13:14:44.971Z</time></trkpt><trkpt lat="44.517785" lon="8.5372867"><ele>758.75</ele><time>2026-04-25T13:14:45.971Z</time></trkpt><trkpt lat="44.5177833" lon="8.537435"><ele>759.0</ele><time>2026-04-25T13:14:46.971Z</time></trkpt><trkpt lat="44.5177567" lon="8.5375433"><ele>759.0</ele><time>2026-04-25T13:14:47.97Z</time></trkpt><trkpt lat="44.517695" lon="8.5376467"><ele>759.0</ele><time>2026-04-25T13:14:48.97Z</time></trkpt><trkpt lat="44.5176033" lon="8.5377533"><ele>759.0</ele><time>2026-04-25T13:14:49.97Z</time></trkpt><trkpt lat="44.51749" lon="8.5378567"><ele>759.0</ele><time>2026-04-25T13:14:50.97Z</time></trkpt><trkpt lat="44.5173583" lon="8.538"><ele>760.6666666666666</ele><time>2026-04-25T13:14:51.97Z</time></trkpt><trkpt lat="44.5172283" lon="8.5381367"><ele>762.3333333333333</ele><time>2026-04-25T13:14:52.97Z</time></trkpt><trkpt lat="44.517095" lon="8.538285"><ele>764.0</ele><time>2026-04-25T13:14:53.971Z</time></trkpt><trkpt lat="44.5169683" lon="8.53844"><ele>763.3333333333333</ele><time>2026-04-25T13:14:54.971Z</time></trkpt><trkpt lat="44.516845" lon="8.5385817"><ele>762.6666666666666</ele><time>2026-04-25T13:14:55.97Z</time></trkpt><trkpt lat="44.5167183" lon="8.5386767"><ele>762.0</ele><time>2026-04-25T13:14:56.97Z</time></trkpt><trkpt lat="44.516575" lon="8.53875"><ele>762.0</ele><time>2026-04-25T13:14:57.971Z</time></trkpt><trkpt lat="44.5164317" lon="8.5387917"><ele>762.0</ele><time>2026-04-25T13:14:58.97Z</time></trkpt><trkpt lat="44.5163" lon="8.5388217"><ele>762.0</ele><time>2026-04-25T13:14:59.97Z</time></trkpt><trkpt lat="44.5161867" lon="8.53887"><ele>762.0</ele><time>2026-04-25T13:15:00.97Z</time></trkpt><trkpt lat="44.5161083" lon="8.5389367"><ele>760.0</ele><time>2026-04-25T13:15:01.971Z</time></trkpt><trkpt lat="44.5160567" lon="8.539035"><ele>758.0</ele><time>2026-04-25T13:15:02.97Z</time></trkpt><trkpt lat="44.5160633" lon="8.53918"><ele>756.0</ele><time>2026-04-25T13:15:03.97Z</time></trkpt><trkpt lat="44.5160867" lon="8.53936"><ele>754.0</ele><time>2026-04-25T13:15:04.97Z</time></trkpt><trkpt lat="44.5161067" lon="8.5395617"><ele>754.0</ele><time>2026-04-25T13:15:05.971Z</time></trkpt><trkpt lat="44.516085" lon="8.53976"><ele>754.0</ele><time>2026-04-25T13:15:06.97Z</time></trkpt><trkpt lat="44.516035" lon="8.5399367"><ele>754.0</ele><time>2026-04-25T13:15:07.97Z</time></trkpt><trkpt lat="44.515955" lon="8.5400933"><ele>754.0</ele><time>2026-04-25T13:15:08.97Z</time></trkpt><trkpt lat="44.51587" lon="8.540235"><ele>754.0</ele><time>2026-04-25T13:15:09.97Z</time></trkpt><trkpt lat="44.5157617" lon="8.5403333"><ele>754.0</ele><time>2026-04-25T13:15:10.97Z</time></trkpt><trkpt lat="44.51564" lon="8.5403917"><ele>754.0</ele><time>2026-04-25T13:15:11.971Z</time></trkpt><trkpt lat="44.5155083" lon="8.540405"><ele>754.0</ele><time>2026-04-25T13:15:12.971Z</time></trkpt><trkpt lat="44.5153733" lon="8.5404133"><ele>752.3333333333334</ele><time>2026-04-25T13:15:13.97Z</time></trkpt><trkpt lat="44.51523" lon="8.5403783"><ele>750.6666666666666</ele><time>2026-04-25T13:15:14.971Z</time></trkpt><trkpt lat="44.51508" lon="8.5403067"><ele>749.0</ele><time>2026-04-25T13:15:15.97Z</time></trkpt><trkpt lat="44.514925" lon="8.5402233"><ele>749.0</ele><time>2026-04-25T13:15:16.971Z</time></trkpt><trkpt lat="44.5147833" lon="8.5401517"><ele>749.0</ele><time>2026-04-25T13:15:17.97Z</time></trkpt><trkpt lat="44.5146467" lon="8.5400883"><ele>749.0</ele><time>2026-04-25T13:15:18.97Z</time></trkpt><trkpt lat="44.514505" lon="8.5400267"><ele>749.0</ele><time>2026-04-25T13:15:19.97Z</time></trkpt><trkpt lat="44.5143567" lon="8.5399667"><ele>748.75</ele><time>2026-04-25T13:15:20.97Z</time></trkpt><trkpt lat="44.5142133" lon="8.5399167"><ele>748.5</ele><time>2026-04-25T13:15:21.97Z</time></trkpt><trkpt lat="44.51409" lon="8.5398467"><ele>748.25</ele><time>2026-04-25T13:15:22.97Z</time></trkpt><trkpt lat="44.514" lon="8.539755"><ele>748.0</ele><time>2026-04-25T13:15:23.97Z</time></trkpt><trkpt lat="44.5139233" lon="8.5396233"><ele>748.5</ele><time>2026-04-25T13:15:24.97Z</time></trkpt><trkpt lat="44.5138517" lon="8.5394533"><ele>749.0</ele><time>2026-04-25T13:15:25.97Z</time></trkpt><trkpt lat="44.5137617" lon="8.539285"><ele>749.5</ele><time>2026-04-25T13:15:26.97Z</time></trkpt><trkpt lat="44.5136567" lon="8.5391267"><ele>750.0</ele><time>2026-04-25T13:15:27.97Z</time></trkpt><trkpt lat="44.5135317" lon="8.5389733"><ele>747.3333333333334</ele><time>2026-04-25T13:15:28.97Z</time></trkpt><trkpt lat="44.5134017" lon="8.5388333"><ele>744.6666666666667</ele><time>2026-04-25T13:15:29.97Z</time></trkpt><trkpt lat="44.5132583" lon="8.538695"><ele>742.0</ele><time>2026-04-25T13:15:30.97Z</time></trkpt><trkpt lat="44.5131133" lon="8.53857"><ele>740.75</ele><time>2026-04-25T13:15:31.97Z</time></trkpt><trkpt lat="44.5129933" lon="8.5384617"><ele>739.5</ele><time>2026-04-25T13:15:32.97Z</time></trkpt><trkpt lat="44.51286" lon="8.538385"><ele>738.25</ele><time>2026-04-25T13:15:33.97Z</time></trkpt><trkpt lat="44.5127267" lon="8.5383383"><ele>737.0</ele><time>2026-04-25T13:15:34.97Z</time></trkpt><trkpt lat="44.5125783" lon="8.5383583"><ele>737.0</ele><time>2026-04-25T13:15:35.971Z</time></trkpt><trkpt lat="44.5124217" lon="8.538395"><ele>737.0</ele><time>2026-04-25T13:15:36.97Z</time></trkpt><trkpt lat="44.5122633" lon="8.5384417"><ele>737.0</ele><time>2026-04-25T13:15:37.971Z</time></trkpt><trkpt lat="44.5121183" lon="8.5385067"><ele>736.6666666666666</ele><time>2026-04-25T13:15:38.971Z</time></trkpt><trkpt lat="44.5119617" lon="8.5385383"><ele>736.3333333333334</ele><time>2026-04-25T13:15:39.97Z</time></trkpt><trkpt lat="44.5118017" lon="8.5385567"><ele>736.0</ele><time>2026-04-25T13:15:40.97Z</time></trkpt><trkpt lat="44.5116483" lon="8.53857"><ele>736.0</ele><time>2026-04-25T13:15:41.97Z</time></trkpt><trkpt lat="44.5114817" lon="8.538585"><ele>736.0</ele><time>2026-04-25T13:15:42.97Z</time></trkpt><trkpt lat="44.5113183" lon="8.5386567"><ele>736.0</ele><time>2026-04-25T13:15:43.971Z</time></trkpt><trkpt lat="44.5111733" lon="8.5387567"><ele>737.0</ele><time>2026-04-25T13:15:44.971Z</time></trkpt><trkpt lat="44.51102" lon="8.53884"><ele>738.0</ele><time>2026-04-25T13:15:45.97Z</time></trkpt><trkpt lat="44.5108583" lon="8.5388983"><ele>739.0</ele><time>2026-04-25T13:15:46.97Z</time></trkpt><trkpt lat="44.5107" lon="8.53893"><ele>739.0</ele><time>2026-04-25T13:15:47.97Z</time></trkpt><trkpt lat="44.5105417" lon="8.5389383"><ele>739.0</ele><time>2026-04-25T13:15:48.97Z</time></trkpt><trkpt lat="44.5104017" lon="8.538935"><ele>739.0</ele><time>2026-04-25T13:15:49.97Z</time></trkpt><trkpt lat="44.5102683" lon="8.538945"><ele>739.0</ele><time>2026-04-25T13:15:50.971Z</time></trkpt><trkpt lat="44.5101317" lon="8.53896"><ele>738.25</ele><time>2026-04-25T13:15:51.97Z</time></trkpt><trkpt lat="44.5099883" lon="8.53898"><ele>737.5</ele><time>2026-04-25T13:15:52.971Z</time></trkpt><trkpt lat="44.509835" lon="8.5390067"><ele>736.75</ele><time>2026-04-25T13:15:53.97Z</time></trkpt><trkpt lat="44.5096917" lon="8.5390517"><ele>736.0</ele><time>2026-04-25T13:15:54.97Z</time></trkpt><trkpt lat="44.5095417" lon="8.5391083"><ele>734.3333333333334</ele><time>2026-04-25T13:15:55.971Z</time></trkpt><trkpt lat="44.5093883" lon="8.5391583"><ele>732.6666666666666</ele><time>2026-04-25T13:15:56.97Z</time></trkpt><trkpt lat="44.5092317" lon="8.5392017"><ele>731.0</ele><time>2026-04-25T13:15:57.97Z</time></trkpt><trkpt lat="44.5090817" lon="8.539235"><ele>731.0</ele><time>2026-04-25T13:15:58.97Z</time></trkpt><trkpt lat="44.50892" lon="8.5392267"><ele>731.0</ele><time>2026-04-25T13:15:59.97Z</time></trkpt><trkpt lat="44.5087583" lon="8.5391633"><ele>731.0</ele><time>2026-04-25T13:16:00.97Z</time></trkpt><trkpt lat="44.5086117" lon="8.539065"><ele>728.3333333333333</ele><time>2026-04-25T13:16:01.971Z</time></trkpt><trkpt lat="44.5084683" lon="8.5389517"><ele>725.6666666666666</ele><time>2026-04-25T13:16:02.97Z</time></trkpt><trkpt lat="44.5083367" lon="8.5388167"><ele>723.0</ele><time>2026-04-25T13:16:03.97Z</time></trkpt><trkpt lat="44.5082083" lon="8.53867"><ele>721.0</ele><time>2026-04-25T13:16:04.97Z</time></trkpt><trkpt lat="44.508075" lon="8.5385233"><ele>719.0</ele><time>2026-04-25T13:16:05.971Z</time></trkpt><trkpt lat="44.50795" lon="8.5383517"><ele>717.0</ele><time>2026-04-25T13:16:06.97Z</time></trkpt><trkpt lat="44.5078217" lon="8.538175"><ele>715.0</ele><time>2026-04-25T13:16:07.97Z</time></trkpt><trkpt lat="44.5077133" lon="8.537975"><ele>713.0</ele><time>2026-04-25T13:16:08.971Z</time></trkpt><trkpt lat="44.5075983" lon="8.537775"><ele>711.0</ele><time>2026-04-25T13:16:09.971Z</time></trkpt><trkpt lat="44.507495" lon="8.5375633"><ele>710.3333333333334</ele><time>2026-04-25T13:16:10.97Z</time></trkpt><trkpt lat="44.50739" lon="8.53736"><ele>709.6666666666667</ele><time>2026-04-25T13:16:11.97Z</time></trkpt><trkpt lat="44.5072767" lon="8.5371683"><ele>709.0</ele><time>2026-04-25T13:16:12.97Z</time></trkpt><trkpt lat="44.5071617" lon="8.5370067"><ele>707.0</ele><time>2026-04-25T13:16:13.97Z</time></trkpt><trkpt lat="44.50704" lon="8.5368667"><ele>705.0</ele><time>2026-04-25T13:16:14.97Z</time></trkpt><trkpt lat="44.5069" lon="8.5367583"><ele>703.0</ele><time>2026-04-25T13:16:15.97Z</time></trkpt><trkpt lat="44.506735" lon="8.5366933"><ele>703.0</ele><time>2026-04-25T13:16:16.971Z</time></trkpt><trkpt lat="44.5065817" lon="8.5366417"><ele>703.0</ele><time>2026-04-25T13:16:17.971Z</time></trkpt><trkpt lat="44.5064517" lon="8.53657"><ele>703.0</ele><time>2026-04-25T13:16:18.97Z</time></trkpt><trkpt lat="44.5063367" lon="8.5364333"><ele>703.0</ele><time>2026-04-25T13:16:19.97Z</time></trkpt><trkpt lat="44.5062317" lon="8.5362567"><ele>700.0</ele><time>2026-04-25T13:16:20.97Z</time></trkpt><trkpt lat="44.506135" lon="8.5360683"><ele>697.0</ele><time>2026-04-25T13:16:21.971Z</time></trkpt><trkpt lat="44.506025" lon="8.535885"><ele>694.0</ele><time>2026-04-25T13:16:22.97Z</time></trkpt><trkpt lat="44.5059267" lon="8.5357183"><ele>694.0</ele><time>2026-04-25T13:16:23.97Z</time></trkpt><trkpt lat="44.505825" lon="8.5355917"><ele>694.0</ele><time>2026-04-25T13:16:24.97Z</time></trkpt><trkpt lat="44.5056967" lon="8.5355467"><ele>694.0</ele><time>2026-04-25T13:16:25.97Z</time></trkpt><trkpt lat="44.50553" lon="8.535565"><ele>694.0</ele><time>2026-04-25T13:16:26.971Z</time></trkpt><trkpt lat="44.5053667" lon="8.5356333"><ele>691.6666666666667</ele><time>2026-04-25T13:16:27.971Z</time></trkpt><trkpt lat="44.5052083" lon="8.5357267"><ele>689.3333333333334</ele><time>2026-04-25T13:16:28.971Z</time></trkpt><trkpt lat="44.5050483" lon="8.5358167"><ele>687.0</ele><time>2026-04-25T13:16:29.97Z</time></trkpt><trkpt lat="44.5048767" lon="8.53589"><ele>687.0</ele><time>2026-04-25T13:16:30.97Z</time></trkpt><trkpt lat="44.504715" lon="8.535965"><ele>687.0</ele><time>2026-04-25T13:16:31.97Z</time></trkpt><trkpt lat="44.5045617" lon="8.5360317"><ele>687.0</ele><time>2026-04-25T13:16:32.971Z</time></trkpt><trkpt lat="44.5044517" lon="8.53609"><ele>687.0</ele><time>2026-04-25T13:16:33.971Z</time></trkpt><trkpt lat="44.5043383" lon="8.53617"><ele>684.0</ele><time>2026-04-25T13:16:34.97Z</time></trkpt><trkpt lat="44.504255" lon="8.5362683"><ele>681.0</ele><time>2026-04-25T13:16:35.97Z</time></trkpt><trkpt lat="44.5041983" lon="8.536435"><ele>678.0</ele><time>2026-04-25T13:16:36.971Z</time></trkpt><trkpt lat="44.504165" lon="8.5366383"><ele>675.0</ele><time>2026-04-25T13:16:37.971Z</time></trkpt><trkpt lat="44.5041367" lon="8.5367983"><ele>675.0</ele><time>2026-04-25T13:16:38.97Z</time></trkpt><trkpt lat="44.504095" lon="8.5369233"><ele>675.0</ele><time>2026-04-25T13:16:39.97Z</time></trkpt><trkpt lat="44.5040317" lon="8.53698"><ele>675.0</ele><time>2026-04-25T13:16:40.97Z</time></trkpt><trkpt lat="44.5039483" lon="8.5370217"><ele>675.0</ele><time>2026-04-25T13:16:41.97Z</time></trkpt><trkpt lat="44.5038383" lon="8.5370083"><ele>675.0</ele><time>2026-04-25T13:16:42.97Z</time></trkpt><trkpt lat="44.5037217" lon="8.5369967"><ele>669.75</ele><time>2026-04-25T13:16:43.971Z</time></trkpt><trkpt lat="44.5036217" lon="8.5370467"><ele>664.5</ele><time>2026-04-25T13:16:44.97Z</time></trkpt><trkpt lat="44.503545" lon="8.5371667"><ele>659.25</ele><time>2026-04-25T13:16:45.97Z</time></trkpt><trkpt lat="44.503495" lon="8.5373367"><ele>654.0</ele><time>2026-04-25T13:16:46.97Z</time></trkpt><trkpt lat="44.503485" lon="8.537555"><ele>654.0</ele><time>2026-04-25T13:16:47.97Z</time></trkpt><trkpt lat="44.50347" lon="8.53781"><ele>654.0</ele><time>2026-04-25T13:16:48.97Z</time></trkpt><trkpt lat="44.5034217" lon="8.5380717"><ele>654.0</ele><time>2026-04-25T13:16:49.97Z</time></trkpt><trkpt lat="44.503375" lon="8.5383383"><ele>652.6666666666666</ele><time>2026-04-25T13:16:50.971Z</time></trkpt><trkpt lat="44.5033283" lon="8.5386167"><ele>651.3333333333333</ele><time>2026-04-25T13:16:51.971Z</time></trkpt><trkpt lat="44.503285" lon="8.5389"><ele>650.0</ele><time>2026-04-25T13:16:52.97Z</time></trkpt><trkpt lat="44.50325" lon="8.5391933"><ele>649.3333333333333</ele><time>2026-04-25T13:16:53.971Z</time></trkpt><trkpt lat="44.5032233" lon="8.5395067"><ele>648.6666666666666</ele><time>2026-04-25T13:16:54.971Z</time></trkpt><trkpt lat="44.503185" lon="8.5398067"><ele>648.0</ele><time>2026-04-25T13:16:55.97Z</time></trkpt><trkpt lat="44.503155" lon="8.5401033"><ele>647.3333333333334</ele><time>2026-04-25T13:16:56.971Z</time></trkpt><trkpt lat="44.5031183" lon="8.5404033"><ele>646.6666666666667</ele><time>2026-04-25T13:16:57.97Z</time></trkpt><trkpt lat="44.503065" lon="8.5406967"><ele>646.0</ele><time>2026-04-25T13:16:58.97Z</time></trkpt><trkpt lat="44.5029883" lon="8.5409833"><ele>635.0</ele><time>2026-04-25T13:16:59.97Z</time></trkpt><trkpt lat="44.502905" lon="8.5412667"><ele>624.0</ele><time>2026-04-25T13:17:00.971Z</time></trkpt><trkpt lat="44.502825" lon="8.54155"><ele>613.0</ele><time>2026-04-25T13:17:01.97Z</time></trkpt><trkpt lat="44.5027467" lon="8.5418433"><ele>614.6666666666667</ele><time>2026-04-25T13:17:02.97Z</time></trkpt><trkpt lat="44.5026817" lon="8.5421317"><ele>616.3333333333334</ele><time>2026-04-25T13:17:03.971Z</time></trkpt><trkpt lat="44.5026267" lon="8.5424017"><ele>618.0</ele><time>2026-04-25T13:17:04.97Z</time></trkpt><trkpt lat="44.5025717" lon="8.5426417"><ele>618.0</ele><time>2026-04-25T13:17:05.97Z</time></trkpt><trkpt lat="44.5025083" lon="8.5428683"><ele>618.0</ele><time>2026-04-25T13:17:06.97Z</time></trkpt><trkpt lat="44.5024217" lon="8.5430917"><ele>618.0</ele><time>2026-04-25T13:17:07.97Z</time></trkpt><trkpt lat="44.50232" lon="8.54329"><ele>621.3333333333334</ele><time>2026-04-25T13:17:08.969Z</time></trkpt><trkpt lat="44.5021883" lon="8.5434583"><ele>624.6666666666667</ele><time>2026-04-25T13:17:09.969Z</time></trkpt><trkpt lat="44.5020483" lon="8.5435783"><ele>628.0</ele><time>2026-04-25T13:17:10.97Z</time></trkpt><trkpt lat="44.50191" lon="8.5436583"><ele>625.25</ele><time>2026-04-25T13:17:11.969Z</time></trkpt><trkpt lat="44.5017833" lon="8.5437017"><ele>622.5</ele><time>2026-04-25T13:17:12.97Z</time></trkpt><trkpt lat="44.50165" lon="8.5437683"><ele>619.75</ele><time>2026-04-25T13:17:13.969Z</time></trkpt><trkpt lat="44.5015183" lon="8.54388"><ele>617.0</ele><time>2026-04-25T13:17:14.97Z</time></trkpt><trkpt lat="44.5013667" lon="8.544035"><ele>611.3333333333333</ele><time>2026-04-25T13:17:15.969Z</time></trkpt><trkpt lat="44.501215" lon="8.54421"><ele>605.6666666666666</ele><time>2026-04-25T13:17:16.969Z</time></trkpt><trkpt lat="44.5010633" lon="8.5443967"><ele>600.0</ele><time>2026-04-25T13:17:17.969Z</time></trkpt><trkpt lat="44.5008883" lon="8.5445833"><ele>600.0</ele><time>2026-04-25T13:17:18.969Z</time></trkpt><trkpt lat="44.50069" lon="8.54475"><ele>600.0</ele><time>2026-04-25T13:17:19.969Z</time></trkpt><trkpt lat="44.500515" lon="8.5449217"><ele>600.0</ele><time>2026-04-25T13:17:20.969Z</time></trkpt><trkpt lat="44.50036" lon="8.5451183"><ele>599.6666666666666</ele><time>2026-04-25T13:17:21.969Z</time></trkpt><trkpt lat="44.5002033" lon="8.545305"><ele>599.3333333333333</ele><time>2026-04-25T13:17:22.969Z</time></trkpt><trkpt lat="44.5000717" lon="8.5454867"><ele>599.0</ele><time>2026-04-25T13:17:23.969Z</time></trkpt><trkpt lat="44.4999533" lon="8.5456317"><ele>599.0</ele><time>2026-04-25T13:17:24.97Z</time></trkpt><trkpt lat="44.4998467" lon="8.5457483"><ele>599.0</ele><time>2026-04-25T13:17:25.969Z</time></trkpt><trkpt lat="44.4997117" lon="8.5458267"><ele>599.0</ele><time>2026-04-25T13:17:26.969Z</time></trkpt><trkpt lat="44.4995717" lon="8.5458467"><ele>599.0</ele><time>2026-04-25T13:17:27.97Z</time></trkpt><trkpt lat="44.499405" lon="8.5458083"><ele>601.0</ele><time>2026-04-25T13:17:28.969Z</time></trkpt><trkpt lat="44.4992317" lon="8.5457133"><ele>603.0</ele><time>2026-04-25T13:17:29.97Z</time></trkpt><trkpt lat="44.4990533" lon="8.5456267"><ele>605.0</ele><time>2026-04-25T13:17:30.969Z</time></trkpt><trkpt lat="44.4988933" lon="8.5455133"><ele>603.3333333333333</ele><time>2026-04-25T13:17:31.969Z</time></trkpt><trkpt lat="44.49874" lon="8.545415"><ele>601.6666666666666</ele><time>2026-04-25T13:17:32.969Z</time></trkpt><trkpt lat="44.4985933" lon="8.5453567"><ele>600.0</ele><time>2026-04-25T13:17:33.97Z</time></trkpt><trkpt lat="44.49846" lon="8.5453367"><ele>600.0</ele><time>2026-04-25T13:17:34.969Z</time></trkpt><trkpt lat="44.498315" lon="8.545365"><ele>600.0</ele><time>2026-04-25T13:17:35.969Z</time></trkpt><trkpt lat="44.4981867" lon="8.54541"><ele>600.0</ele><time>2026-04-25T13:17:36.97Z</time></trkpt><trkpt lat="44.4980783" lon="8.5454633"><ele>600.0</ele><time>2026-04-25T13:17:37.97Z</time></trkpt><trkpt lat="44.4979833" lon="8.5454933"><ele>599.6</ele><time>2026-04-25T13:17:38.969Z</time></trkpt><trkpt lat="44.497905" lon="8.545505"><ele>599.2</ele><time>2026-04-25T13:17:39.969Z</time></trkpt><trkpt lat="44.4978117" lon="8.5454983"><ele>598.8</ele><time>2026-04-25T13:17:41.97Z</time></trkpt><trkpt lat="44.497705" lon="8.5455317"><ele>598.4</ele><time>2026-04-25T13:17:43.969Z</time></trkpt><trkpt lat="44.4976283" lon="8.54558"><ele>598.0</ele><time>2026-04-25T13:17:44.97Z</time></trkpt><trkpt lat="44.497535" lon="8.5456283"><ele>598.0</ele><time>2026-04-25T13:17:45.97Z</time></trkpt><trkpt lat="44.4974267" lon="8.5456733"><ele>598.0</ele><time>2026-04-25T13:17:46.969Z</time></trkpt><trkpt lat="44.4972967" lon="8.545725"><ele>598.0</ele><time>2026-04-25T13:17:47.969Z</time></trkpt><trkpt lat="44.4971433" lon="8.5457283"><ele>598.0</ele><time>2026-04-25T13:17:48.969Z</time></trkpt><trkpt lat="44.4969767" lon="8.545635"><ele>598.75</ele><time>2026-04-25T13:17:49.969Z</time></trkpt><trkpt lat="44.4968183" lon="8.5455083"><ele>599.5</ele><time>2026-04-25T13:17:50.97Z</time></trkpt><trkpt lat="44.496685" lon="8.5454017"><ele>600.25</ele><time>2026-04-25T13:17:51.969Z</time></trkpt><trkpt lat="44.4965767" lon="8.5453683"><ele>601.0</ele><time>2026-04-25T13:17:52.969Z</time></trkpt><trkpt lat="44.496485" lon="8.545415"><ele>602.0</ele><time>2026-04-25T13:17:53.969Z</time></trkpt><trkpt lat="44.4964283" lon="8.5455383"><ele>603.0</ele><time>2026-04-25T13:17:54.969Z</time></trkpt><trkpt lat="44.4963983" lon="8.5457217"><ele>604.0</ele><time>2026-04-25T13:17:55.969Z</time></trkpt><trkpt lat="44.4963833" lon="8.5459417"><ele>605.0</ele><time>2026-04-25T13:17:56.969Z</time></trkpt><trkpt lat="44.49638" lon="8.5462217"><ele>605.0</ele><time>2026-04-25T13:17:57.97Z</time></trkpt><trkpt lat="44.49638" lon="8.546505"><ele>605.0</ele><time>2026-04-25T13:17:58.969Z</time></trkpt><trkpt lat="44.4963917" lon="8.546765"><ele>605.0</ele><time>2026-04-25T13:17:59.969Z</time></trkpt><trkpt lat="44.496385" lon="8.5469967"><ele>605.0</ele><time>2026-04-25T13:18:00.97Z</time></trkpt><trkpt lat="44.4963367" lon="8.5472017"><ele>605.0</ele><time>2026-04-25T13:18:01.969Z</time></trkpt><trkpt lat="44.496255" lon="8.5473883"><ele>605.0</ele><time>2026-04-25T13:18:02.969Z</time></trkpt><trkpt lat="44.496145" lon="8.5475367"><ele>608.6666666666666</ele><time>2026-04-25T13:18:03.969Z</time></trkpt><trkpt lat="44.4959983" lon="8.547675"><ele>612.3333333333334</ele><time>2026-04-25T13:18:04.969Z</time></trkpt><trkpt lat="44.4958317" lon="8.54783"><ele>616.0</ele><time>2026-04-25T13:18:05.97Z</time></trkpt><trkpt lat="44.49567" lon="8.5479867"><ele>616.0</ele><time>2026-04-25T13:18:06.97Z</time></trkpt><trkpt lat="44.4955317" lon="8.5481433"><ele>616.0</ele><time>2026-04-25T13:18:07.969Z</time></trkpt><trkpt lat="44.49541" lon="8.54825"><ele>616.0</ele><time>2026-04-25T13:18:08.969Z</time></trkpt><trkpt lat="44.4953033" lon="8.5482917"><ele>616.0</ele><time>2026-04-25T13:18:09.969Z</time></trkpt><trkpt lat="44.4951817" lon="8.5482383"><ele>616.6666666666667</ele><time>2026-04-25T13:18:10.969Z</time></trkpt><trkpt lat="44.4950667" lon="8.5481383"><ele>617.3333333333334</ele><time>2026-04-25T13:18:11.969Z</time></trkpt><trkpt lat="44.4949383" lon="8.5480017"><ele>618.0</ele><time>2026-04-25T13:18:12.969Z</time></trkpt><trkpt lat="44.4947867" lon="8.5478517"><ele>617.3333333333334</ele><time>2026-04-25T13:18:13.969Z</time></trkpt><trkpt lat="44.4946233" lon="8.5476783"><ele>616.6666666666667</ele><time>2026-04-25T13:18:14.969Z</time></trkpt><trkpt lat="44.49446" lon="8.5475133"><ele>616.0</ele><time>2026-04-25T13:18:15.969Z</time></trkpt><trkpt lat="44.4943067" lon="8.5473467"><ele>616.0</ele><time>2026-04-25T13:18:16.969Z</time></trkpt><trkpt lat="44.494165" lon="8.547195"><ele>616.0</ele><time>2026-04-25T13:18:17.969Z</time></trkpt><trkpt lat="44.4940383" lon="8.547065"><ele>616.0</ele><time>2026-04-25T13:18:18.969Z</time></trkpt><trkpt lat="44.4939167" lon="8.546955"><ele>616.0</ele><time>2026-04-25T13:18:19.969Z</time></trkpt><trkpt lat="44.493795" lon="8.5468983"><ele>616.0</ele><time>2026-04-25T13:18:20.97Z</time></trkpt><trkpt lat="44.49366" lon="8.54693"><ele>616.0</ele><time>2026-04-25T13:18:21.969Z</time></trkpt><trkpt lat="44.4935217" lon="8.54704"><ele>616.0</ele><time>2026-04-25T13:18:22.969Z</time></trkpt><trkpt lat="44.4933567" lon="8.54716"><ele>615.3333333333334</ele><time>2026-04-25T13:18:23.969Z</time></trkpt><trkpt lat="44.4931867" lon="8.5472817"><ele>614.6666666666666</ele><time>2026-04-25T13:18:24.97Z</time></trkpt><trkpt lat="44.4930117" lon="8.5473767"><ele>614.0</ele><time>2026-04-25T13:18:25.969Z</time></trkpt><trkpt lat="44.4928283" lon="8.54742"><ele>616.0</ele><time>2026-04-25T13:18:26.97Z</time></trkpt><trkpt lat="44.4926633" lon="8.5474283"><ele>618.0</ele><time>2026-04-25T13:18:27.97Z</time></trkpt><trkpt lat="44.4924883" lon="8.5473883"><ele>620.0</ele><time>2026-04-25T13:18:28.969Z</time></trkpt><trkpt lat="44.49233" lon="8.5472467"><ele>620.0</ele><time>2026-04-25T13:18:29.969Z</time></trkpt><trkpt lat="44.492185" lon="8.5470983"><ele>620.0</ele><time>2026-04-25T13:18:30.969Z</time></trkpt><trkpt lat="44.4920417" lon="8.5469433"><ele>620.0</ele><time>2026-04-25T13:18:31.97Z</time></trkpt><trkpt lat="44.4918917" lon="8.5468183"><ele>623.6666666666666</ele><time>2026-04-25T13:18:32.969Z</time></trkpt><trkpt lat="44.4917383" lon="8.5466733"><ele>627.3333333333334</ele><time>2026-04-25T13:18:33.969Z</time></trkpt><trkpt lat="44.4916167" lon="8.54652"><ele>631.0</ele><time>2026-04-25T13:18:34.97Z</time></trkpt><trkpt lat="44.4914833" lon="8.5463417"><ele>631.0</ele><time>2026-04-25T13:18:35.969Z</time></trkpt><trkpt lat="44.4913383" lon="8.5461917"><ele>631.0</ele><time>2026-04-25T13:18:36.969Z</time></trkpt><trkpt lat="44.491175" lon="8.54606"><ele>631.0</ele><time>2026-04-25T13:18:37.97Z</time></trkpt><trkpt lat="44.4910333" lon="8.5459533"><ele>631.0</ele><time>2026-04-25T13:18:38.969Z</time></trkpt><trkpt lat="44.49089" lon="8.5458817"><ele>631.0</ele><time>2026-04-25T13:18:39.969Z</time></trkpt><trkpt lat="44.490775" lon="8.545875"><ele>631.0</ele><time>2026-04-25T13:18:40.969Z</time></trkpt><trkpt lat="44.4906567" lon="8.545935"><ele>631.0</ele><time>2026-04-25T13:18:41.97Z</time></trkpt><trkpt lat="44.4905217" lon="8.54604"><ele>634.6666666666667</ele><time>2026-04-25T13:18:42.969Z</time></trkpt><trkpt lat="44.4903933" lon="8.5462117"><ele>638.3333333333334</ele><time>2026-04-25T13:18:43.969Z</time></trkpt><trkpt lat="44.4902733" lon="8.5463967"><ele>642.0</ele><time>2026-04-25T13:18:44.97Z</time></trkpt><trkpt lat="44.4901617" lon="8.5465817"><ele>642.0</ele><time>2026-04-25T13:18:45.969Z</time></trkpt><trkpt lat="44.490045" lon="8.5467633"><ele>642.0</ele><time>2026-04-25T13:18:46.97Z</time></trkpt><trkpt lat="44.4899333" lon="8.5469483"><ele>642.0</ele><time>2026-04-25T13:18:47.97Z</time></trkpt><trkpt lat="44.4898233" lon="8.5471183"><ele>644.0</ele><time>2026-04-25T13:18:48.969Z</time></trkpt><trkpt lat="44.489705" lon="8.5472833"><ele>646.0</ele><time>2026-04-25T13:18:49.969Z</time></trkpt><trkpt lat="44.4895867" lon="8.5474433"><ele>648.0</ele><time>2026-04-25T13:18:50.969Z</time></trkpt><trkpt lat="44.4894733" lon="8.5476067"><ele>648.0</ele><time>2026-04-25T13:18:51.97Z</time></trkpt><trkpt lat="44.489345" lon="8.5477633"><ele>648.0</ele><time>2026-04-25T13:18:52.97Z</time></trkpt><trkpt lat="44.489215" lon="8.5479233"><ele>648.0</ele><time>2026-04-25T13:18:53.969Z</time></trkpt><trkpt lat="44.4890883" lon="8.5480733"><ele>649.0</ele><time>2026-04-25T13:18:54.969Z</time></trkpt><trkpt lat="44.488955" lon="8.548225"><ele>650.0</ele><time>2026-04-25T13:18:55.97Z</time></trkpt><trkpt lat="44.4888133" lon="8.548345"><ele>651.0</ele><time>2026-04-25T13:18:56.97Z</time></trkpt><trkpt lat="44.4886683" lon="8.548435"><ele>651.3333333333334</ele><time>2026-04-25T13:18:57.969Z</time></trkpt><trkpt lat="44.4885033" lon="8.548505"><ele>651.6666666666667</ele><time>2026-04-25T13:18:58.969Z</time></trkpt><trkpt lat="44.4883567" lon="8.5485667"><ele>652.0</ele><time>2026-04-25T13:18:59.97Z</time></trkpt><trkpt lat="44.4882183" lon="8.5486233"><ele>652.0</ele><time>2026-04-25T13:19:00.97Z</time></trkpt><trkpt lat="44.4880783" lon="8.5487033"><ele>652.0</ele><time>2026-04-25T13:19:01.969Z</time></trkpt><trkpt lat="44.48795" lon="8.54877"><ele>652.0</ele><time>2026-04-25T13:19:02.97Z</time></trkpt><trkpt lat="44.4878433" lon="8.54883"><ele>652.0</ele><time>2026-04-25T13:19:03.97Z</time></trkpt><trkpt lat="44.487735" lon="8.5488767"><ele>653.2</ele><time>2026-04-25T13:19:04.969Z</time></trkpt><trkpt lat="44.4876183" lon="8.5489233"><ele>654.4000000000001</ele><time>2026-04-25T13:19:05.97Z</time></trkpt><trkpt lat="44.4875283" lon="8.548955"><ele>655.5999999999999</ele><time>2026-04-25T13:19:06.97Z</time></trkpt><trkpt lat="44.4874383" lon="8.5489883"><ele>656.8</ele><time>2026-04-25T13:19:07.969Z</time></trkpt><trkpt lat="44.4873383" lon="8.549005"><ele>658.0</ele><time>2026-04-25T13:19:08.969Z</time></trkpt><trkpt lat="44.487245" lon="8.54902"><ele>658.0</ele><time>2026-04-25T13:19:09.97Z</time></trkpt><trkpt lat="44.4871467" lon="8.54903"><ele>658.0</ele><time>2026-04-25T13:19:10.97Z</time></trkpt><trkpt lat="44.4870317" lon="8.5489967"><ele>658.0</ele><time>2026-04-25T13:19:11.969Z</time></trkpt><trkpt lat="44.48691" lon="8.5489317"><ele>658.0</ele><time>2026-04-25T13:19:12.969Z</time></trkpt><trkpt lat="44.4868" lon="8.5488367"><ele>658.5</ele><time>2026-04-25T13:19:13.969Z</time></trkpt><trkpt lat="44.4867033" lon="8.548735"><ele>659.0</ele><time>2026-04-25T13:19:14.969Z</time></trkpt><trkpt lat="44.48661" lon="8.548605"><ele>659.5</ele><time>2026-04-25T13:19:15.969Z</time></trkpt><trkpt lat="44.4865117" lon="8.548455"><ele>660.0</ele><time>2026-04-25T13:19:16.97Z</time></trkpt><trkpt lat="44.4864117" lon="8.548285"><ele>660.0</ele><time>2026-04-25T13:19:17.97Z</time></trkpt><trkpt lat="44.4862783" lon="8.54813"><ele>660.0</ele><time>2026-04-25T13:19:18.969Z</time></trkpt><trkpt lat="44.486125" lon="8.548"><ele>660.0</ele><time>2026-04-25T13:19:19.969Z</time></trkpt><trkpt lat="44.485965" lon="8.547905"><ele>661.0</ele><time>2026-04-25T13:19:20.969Z</time></trkpt><trkpt lat="44.4857817" lon="8.5478283"><ele>662.0</ele><time>2026-04-25T13:19:21.969Z</time></trkpt><trkpt lat="44.4856017" lon="8.54776"><ele>663.0</ele><time>2026-04-25T13:19:22.969Z</time></trkpt><trkpt lat="44.4854267" lon="8.5476917"><ele>663.0</ele><time>2026-04-25T13:19:23.97Z</time></trkpt><trkpt lat="44.4852567" lon="8.547615"><ele>663.0</ele><time>2026-04-25T13:19:24.969Z</time></trkpt><trkpt lat="44.48511" lon="8.5475317"><ele>663.0</ele><time>2026-04-25T13:19:25.97Z</time></trkpt><trkpt lat="44.4849817" lon="8.5474267"><ele>663.0</ele><time>2026-04-25T13:19:26.97Z</time></trkpt><trkpt lat="44.4848617" lon="8.54729"><ele>663.0</ele><time>2026-04-25T13:19:27.97Z</time></trkpt><trkpt lat="44.4847483" lon="8.54715"><ele>663.0</ele><time>2026-04-25T13:19:28.97Z</time></trkpt><trkpt lat="44.4846267" lon="8.547025"><ele>665.0</ele><time>2026-04-25T13:19:29.969Z</time></trkpt><trkpt lat="44.484495" lon="8.5469233"><ele>667.0</ele><time>2026-04-25T13:19:30.969Z</time></trkpt><trkpt lat="44.484345" lon="8.5468617"><ele>669.0</ele><time>2026-04-25T13:19:31.969Z</time></trkpt><trkpt lat="44.48417" lon="8.5468333"><ele>669.0</ele><time>2026-04-25T13:19:32.969Z</time></trkpt><trkpt lat="44.48401" lon="8.5467883"><ele>669.0</ele><time>2026-04-25T13:19:33.97Z</time></trkpt><trkpt lat="44.4838583" lon="8.546695"><ele>669.0</ele><time>2026-04-25T13:19:34.969Z</time></trkpt><trkpt lat="44.483745" lon="8.54659"><ele>667.0</ele><time>2026-04-25T13:19:35.97Z</time></trkpt><trkpt lat="44.4836367" lon="8.5464883"><ele>665.0</ele><time>2026-04-25T13:19:36.969Z</time></trkpt><trkpt lat="44.4835267" lon="8.5463883"><ele>663.0</ele><time>2026-04-25T13:19:37.969Z</time></trkpt><trkpt lat="44.4834183" lon="8.546325"><ele>661.0</ele><time>2026-04-25T13:19:38.969Z</time></trkpt><trkpt lat="44.483295" lon="8.54631"><ele>661.0</ele><time>2026-04-25T13:19:39.969Z</time></trkpt><trkpt lat="44.4831633" lon="8.5463567"><ele>661.0</ele><time>2026-04-25T13:19:40.969Z</time></trkpt><trkpt lat="44.483035" lon="8.5464217"><ele>661.0</ele><time>2026-04-25T13:19:41.969Z</time></trkpt><trkpt lat="44.4829433" lon="8.5465333"><ele>661.0</ele><time>2026-04-25T13:19:42.97Z</time></trkpt><trkpt lat="44.4828783" lon="8.546635"><ele>661.8</ele><time>2026-04-25T13:19:43.97Z</time></trkpt><trkpt lat="44.48283" lon="8.5467617"><ele>662.5999999999999</ele><time>2026-04-25T13:19:44.97Z</time></trkpt><trkpt lat="44.482825" lon="8.5468983"><ele>663.4</ele><time>2026-04-25T13:19:45.969Z</time></trkpt><trkpt lat="44.4828917" lon="8.5470533"><ele>664.2</ele><time>2026-04-25T13:19:46.97Z</time></trkpt><trkpt lat="44.4829467" lon="8.54717"><ele>665.0</ele><time>2026-04-25T13:19:47.969Z</time></trkpt><trkpt lat="44.4830217" lon="8.5472717"><ele>665.0</ele><time>2026-04-25T13:19:48.97Z</time></trkpt><trkpt lat="44.4831183" lon="8.5473817"><ele>665.0</ele><time>2026-04-25T13:19:49.969Z</time></trkpt><trkpt lat="44.48324" lon="8.547535"><ele>665.0</ele><time>2026-04-25T13:19:50.969Z</time></trkpt><trkpt lat="44.4833767" lon="8.5477133"><ele>662.6666666666666</ele><time>2026-04-25T13:19:51.969Z</time></trkpt><trkpt lat="44.4835367" lon="8.54791"><ele>660.3333333333334</ele><time>2026-04-25T13:19:52.969Z</time></trkpt><trkpt lat="44.4836733" lon="8.5480983"><ele>658.0</ele><time>2026-04-25T13:19:53.97Z</time></trkpt><trkpt lat="44.4837733" lon="8.5483"><ele>658.0</ele><time>2026-04-25T13:19:54.97Z</time></trkpt><trkpt lat="44.4838483" lon="8.5484783"><ele>658.0</ele><time>2026-04-25T13:19:55.97Z</time></trkpt><trkpt lat="44.4838817" lon="8.5486433"><ele>658.0</ele><time>2026-04-25T13:19:56.97Z</time></trkpt><trkpt lat="44.4838583" lon="8.54881"><ele>658.0</ele><time>2026-04-25T13:19:57.97Z</time></trkpt><trkpt lat="44.483815" lon="8.5489783"><ele>663.0</ele><time>2026-04-25T13:19:58.969Z</time></trkpt><trkpt lat="44.4837317" lon="8.5491567"><ele>668.0</ele><time>2026-04-25T13:19:59.969Z</time></trkpt><trkpt lat="44.4836283" lon="8.54931"><ele>673.0</ele><time>2026-04-25T13:20:00.969Z</time></trkpt><trkpt lat="44.4835017" lon="8.549415"><ele>673.0</ele><time>2026-04-25T13:20:01.969Z</time></trkpt><trkpt lat="44.48336" lon="8.5494733"><ele>673.0</ele><time>2026-04-25T13:20:02.969Z</time></trkpt><trkpt lat="44.48319" lon="8.5494817"><ele>673.0</ele><time>2026-04-25T13:20:03.97Z</time></trkpt><trkpt lat="44.4829883" lon="8.5494517"><ele>675.6666666666667</ele><time>2026-04-25T13:20:04.97Z</time></trkpt><trkpt lat="44.4827833" lon="8.5494183"><ele>678.3333333333334</ele><time>2026-04-25T13:20:05.969Z</time></trkpt><trkpt lat="44.4825933" lon="8.5493883"><ele>681.0</ele><time>2026-04-25T13:20:06.969Z</time></trkpt><trkpt lat="44.4824117" lon="8.54933"><ele>681.0</ele><time>2026-04-25T13:20:07.97Z</time></trkpt><trkpt lat="44.482245" lon="8.54929"><ele>681.0</ele><time>2026-04-25T13:20:08.969Z</time></trkpt><trkpt lat="44.48208" lon="8.549275"><ele>681.0</ele><time>2026-04-25T13:20:09.969Z</time></trkpt><trkpt lat="44.481915" lon="8.549285"><ele>683.25</ele><time>2026-04-25T13:20:10.97Z</time></trkpt><trkpt lat="44.48177" lon="8.5493067"><ele>685.5</ele><time>2026-04-25T13:20:11.969Z</time></trkpt><trkpt lat="44.4816267" lon="8.54932"><ele>687.75</ele><time>2026-04-25T13:20:12.969Z</time></trkpt><trkpt lat="44.4815067" lon="8.5493717"><ele>690.0</ele><time>2026-04-25T13:20:13.97Z</time></trkpt><trkpt lat="44.481415" lon="8.5494817"><ele>689.25</ele><time>2026-04-25T13:20:14.969Z</time></trkpt><trkpt lat="44.4813483" lon="8.5496217"><ele>688.5</ele><time>2026-04-25T13:20:15.969Z</time></trkpt><trkpt lat="44.4813333" lon="8.5498517"><ele>687.75</ele><time>2026-04-25T13:20:16.97Z</time></trkpt><trkpt lat="44.481255" lon="8.55002"><ele>687.0</ele><time>2026-04-25T13:20:17.969Z</time></trkpt><trkpt lat="44.4811667" lon="8.5501517"><ele>687.0</ele><time>2026-04-25T13:20:18.969Z</time></trkpt><trkpt lat="44.481075" lon="8.5502417"><ele>687.0</ele><time>2026-04-25T13:20:19.969Z</time></trkpt><trkpt lat="44.48096" lon="8.5503"><ele>687.0</ele><time>2026-04-25T13:20:20.969Z</time></trkpt><trkpt lat="44.480825" lon="8.550345"><ele>687.0</ele><time>2026-04-25T13:20:21.969Z</time></trkpt><trkpt lat="44.4807" lon="8.5503817"><ele>687.0</ele><time>2026-04-25T13:20:22.969Z</time></trkpt><trkpt lat="44.4805267" lon="8.5503483"><ele>687.0</ele><time>2026-04-25T13:20:23.97Z</time></trkpt><trkpt lat="44.480365" lon="8.5503317"><ele>687.0</ele><time>2026-04-25T13:20:24.97Z</time></trkpt><trkpt lat="44.4802367" lon="8.5503467"><ele>687.4000000000001</ele><time>2026-04-25T13:20:25.97Z</time></trkpt><trkpt lat="44.4801617" lon="8.5503983"><ele>687.8000000000001</ele><time>2026-04-25T13:20:26.97Z</time></trkpt><trkpt lat="44.48013" lon="8.550505"><ele>688.2</ele><time>2026-04-25T13:20:27.97Z</time></trkpt><trkpt lat="44.4801483" lon="8.5506367"><ele>688.6</ele><time>2026-04-25T13:20:28.969Z</time></trkpt><trkpt lat="44.4801967" lon="8.5508033"><ele>689.0</ele><time>2026-04-25T13:20:29.97Z</time></trkpt><trkpt lat="44.4802283" lon="8.55095"><ele>689.0</ele><time>2026-04-25T13:20:30.97Z</time></trkpt><trkpt lat="44.4803583" lon="8.551115"><ele>689.0</ele><time>2026-04-25T13:20:31.97Z</time></trkpt><trkpt lat="44.48052" lon="8.5512483"><ele>689.0</ele><time>2026-04-25T13:20:32.97Z</time></trkpt><trkpt lat="44.4806817" lon="8.5513467"><ele>694.0</ele><time>2026-04-25T13:20:33.97Z</time></trkpt><trkpt lat="44.4808217" lon="8.5514017"><ele>699.0</ele><time>2026-04-25T13:20:34.969Z</time></trkpt><trkpt lat="44.4810283" lon="8.5514"><ele>704.0</ele><time>2026-04-25T13:20:35.969Z</time></trkpt><trkpt lat="44.4812183" lon="8.5512933"><ele>696.0</ele><time>2026-04-25T13:20:36.969Z</time></trkpt><trkpt lat="44.4814117" lon="8.5511583"><ele>688.0</ele><time>2026-04-25T13:20:37.97Z</time></trkpt><trkpt lat="44.4815767" lon="8.5510433"><ele>680.0</ele><time>2026-04-25T13:20:38.969Z</time></trkpt><trkpt lat="44.481725" lon="8.5509267"><ele>680.0</ele><time>2026-04-25T13:20:39.97Z</time></trkpt><trkpt lat="44.481865" lon="8.5508167"><ele>680.0</ele><time>2026-04-25T13:20:40.969Z</time></trkpt><trkpt lat="44.482" lon="8.55072"><ele>680.0</ele><time>2026-04-25T13:20:41.969Z</time></trkpt><trkpt lat="44.4821483" lon="8.550645"><ele>681.75</ele><time>2026-04-25T13:20:42.97Z</time></trkpt><trkpt lat="44.4822917" lon="8.5506133"><ele>683.5</ele><time>2026-04-25T13:20:43.969Z</time></trkpt><trkpt lat="44.4824317" lon="8.5505883"><ele>685.25</ele><time>2026-04-25T13:20:44.97Z</time></trkpt><trkpt lat="44.4825733" lon="8.5505667"><ele>687.0</ele><time>2026-04-25T13:20:45.97Z</time></trkpt><trkpt lat="44.482715" lon="8.5505767"><ele>687.0</ele><time>2026-04-25T13:20:46.969Z</time></trkpt><trkpt lat="44.48287" lon="8.550605"><ele>687.0</ele><time>2026-04-25T13:20:47.969Z</time></trkpt><trkpt lat="44.48303" lon="8.5506217"><ele>687.0</ele><time>2026-04-25T13:20:48.97Z</time></trkpt><trkpt lat="44.48319" lon="8.5506317"><ele>686.5</ele><time>2026-04-25T13:20:49.97Z</time></trkpt><trkpt lat="44.4833467" lon="8.5506367"><ele>686.0</ele><time>2026-04-25T13:20:50.969Z</time></trkpt><trkpt lat="44.4834783" lon="8.55065"><ele>685.5</ele><time>2026-04-25T13:20:51.969Z</time></trkpt><trkpt lat="44.4836233" lon="8.5507367"><ele>685.0</ele><time>2026-04-25T13:20:52.969Z</time></trkpt><trkpt lat="44.483755" lon="8.5508517"><ele>683.5</ele><time>2026-04-25T13:20:53.969Z</time></trkpt><trkpt lat="44.48387" lon="8.5509467"><ele>682.0</ele><time>2026-04-25T13:20:54.969Z</time></trkpt><trkpt lat="44.4839817" lon="8.55108"><ele>680.5</ele><time>2026-04-25T13:20:55.97Z</time></trkpt><trkpt lat="44.4840517" lon="8.55126"><ele>679.0</ele><time>2026-04-25T13:20:56.97Z</time></trkpt><trkpt lat="44.4840917" lon="8.5514967"><ele>679.0</ele><time>2026-04-25T13:20:57.969Z</time></trkpt><trkpt lat="44.484055" lon="8.5518067"><ele>679.0</ele><time>2026-04-25T13:20:58.969Z</time></trkpt><trkpt lat="44.4839733" lon="8.5520633"><ele>679.0</ele><time>2026-04-25T13:20:59.969Z</time></trkpt><trkpt lat="44.4838683" lon="8.5522867"><ele>678.0</ele><time>2026-04-25T13:21:00.97Z</time></trkpt><trkpt lat="44.483825" lon="8.5524833"><ele>677.0</ele><time>2026-04-25T13:21:01.97Z</time></trkpt><trkpt lat="44.4837783" lon="8.55265"><ele>676.0</ele><time>2026-04-25T13:21:02.97Z</time></trkpt><trkpt lat="44.4837133" lon="8.5527633"><ele>675.0</ele><time>2026-04-25T13:21:03.969Z</time></trkpt><trkpt lat="44.483615" lon="8.55289"><ele>679.75</ele><time>2026-04-25T13:21:04.97Z</time></trkpt><trkpt lat="44.4835017" lon="8.5530217"><ele>684.5</ele><time>2026-04-25T13:21:05.97Z</time></trkpt><trkpt lat="44.4833917" lon="8.553145"><ele>689.25</ele><time>2026-04-25T13:21:06.97Z</time></trkpt><trkpt lat="44.4832583" lon="8.5532633"><ele>694.0</ele><time>2026-04-25T13:21:07.969Z</time></trkpt><trkpt lat="44.4831" lon="8.5533517"><ele>694.0</ele><time>2026-04-25T13:21:08.969Z</time></trkpt><trkpt lat="44.4829383" lon="8.5534433"><ele>694.0</ele><time>2026-04-25T13:21:09.97Z</time></trkpt><trkpt lat="44.4827983" lon="8.5535417"><ele>694.0</ele><time>2026-04-25T13:21:10.969Z</time></trkpt><trkpt lat="44.4826683" lon="8.5536417"><ele>696.0</ele><time>2026-04-25T13:21:11.97Z</time></trkpt><trkpt lat="44.4825467" lon="8.5537633"><ele>698.0</ele><time>2026-04-25T13:21:12.969Z</time></trkpt><trkpt lat="44.4824417" lon="8.5539133"><ele>700.0</ele><time>2026-04-25T13:21:13.97Z</time></trkpt><trkpt lat="44.4823133" lon="8.5540633"><ele>700.0</ele><time>2026-04-25T13:21:14.97Z</time></trkpt><trkpt lat="44.4821733" lon="8.5541583"><ele>700.0</ele><time>2026-04-25T13:21:15.97Z</time></trkpt><trkpt lat="44.48205" lon="8.5542633"><ele>700.0</ele><time>2026-04-25T13:21:16.969Z</time></trkpt><trkpt lat="44.4819433" lon="8.5544033"><ele>700.0</ele><time>2026-04-25T13:21:17.969Z</time></trkpt><trkpt lat="44.4818633" lon="8.5545783"><ele>703.6666666666667</ele><time>2026-04-25T13:21:18.97Z</time></trkpt><trkpt lat="44.481805" lon="8.55477"><ele>707.3333333333334</ele><time>2026-04-25T13:21:19.969Z</time></trkpt><trkpt lat="44.4817583" lon="8.5549833"><ele>711.0</ele><time>2026-04-25T13:21:20.969Z</time></trkpt><trkpt lat="44.481715" lon="8.5552733"><ele>712.6666666666666</ele><time>2026-04-25T13:21:21.969Z</time></trkpt><trkpt lat="44.4816783" lon="8.5555583"><ele>714.3333333333333</ele><time>2026-04-25T13:21:22.97Z</time></trkpt><trkpt lat="44.48165" lon="8.5557783"><ele>716.0</ele><time>2026-04-25T13:21:23.97Z</time></trkpt><trkpt lat="44.4816483" lon="8.5559617"><ele>716.0</ele><time>2026-04-25T13:21:24.969Z</time></trkpt><trkpt lat="44.48169" lon="8.5561083"><ele>716.0</ele><time>2026-04-25T13:21:25.97Z</time></trkpt><trkpt lat="44.481785" lon="8.5562483"><ele>716.0</ele><time>2026-04-25T13:21:26.969Z</time></trkpt><trkpt lat="44.481895" lon="8.5563533"><ele>716.0</ele><time>2026-04-25T13:21:27.97Z</time></trkpt><trkpt lat="44.4820417" lon="8.5564117"><ele>719.3333333333333</ele><time>2026-04-25T13:21:28.969Z</time></trkpt><trkpt lat="44.482205" lon="8.5564533"><ele>722.6666666666666</ele><time>2026-04-25T13:21:29.97Z</time></trkpt><trkpt lat="44.4823783" lon="8.5564617"><ele>726.0</ele><time>2026-04-25T13:21:30.97Z</time></trkpt><trkpt lat="44.48256" lon="8.5564567"><ele>726.0</ele><time>2026-04-25T13:21:31.97Z</time></trkpt><trkpt lat="44.48273" lon="8.556455"><ele>726.0</ele><time>2026-04-25T13:21:32.97Z</time></trkpt><trkpt lat="44.4828917" lon="8.5564883"><ele>726.0</ele><time>2026-04-25T13:21:33.969Z</time></trkpt><trkpt lat="44.483015" lon="8.5565033"><ele>722.75</ele><time>2026-04-25T13:21:34.97Z</time></trkpt><trkpt lat="44.48309" lon="8.55657"><ele>719.5</ele><time>2026-04-25T13:21:35.969Z</time></trkpt><trkpt lat="44.4831233" lon="8.5567"><ele>716.25</ele><time>2026-04-25T13:21:36.97Z</time></trkpt><trkpt lat="44.4830567" lon="8.5569167"><ele>713.0</ele><time>2026-04-25T13:21:37.97Z</time></trkpt><trkpt lat="44.482945" lon="8.5571167"><ele>715.75</ele><time>2026-04-25T13:21:38.969Z</time></trkpt><trkpt lat="44.4828833" lon="8.5573017"><ele>718.5</ele><time>2026-04-25T13:21:39.97Z</time></trkpt><trkpt lat="44.482865" lon="8.5574983"><ele>721.25</ele><time>2026-04-25T13:21:40.969Z</time></trkpt><trkpt lat="44.482885" lon="8.55772"><ele>724.0</ele><time>2026-04-25T13:21:41.97Z</time></trkpt><trkpt lat="44.4829333" lon="8.5579483"><ele>724.0</ele><time>2026-04-25T13:21:42.969Z</time></trkpt><trkpt lat="44.4829833" lon="8.5581767"><ele>724.0</ele><time>2026-04-25T13:21:43.969Z</time></trkpt><trkpt lat="44.4829933" lon="8.5584233"><ele>724.0</ele><time>2026-04-25T13:21:44.969Z</time></trkpt><trkpt lat="44.4829617" lon="8.5586733"><ele>729.75</ele><time>2026-04-25T13:21:45.97Z</time></trkpt><trkpt lat="44.4829267" lon="8.5588883"><ele>735.5</ele><time>2026-04-25T13:21:46.969Z</time></trkpt><trkpt lat="44.4828667" lon="8.5590783"><ele>741.25</ele><time>2026-04-25T13:21:47.97Z</time></trkpt><trkpt lat="44.482805" lon="8.5591983"><ele>747.0</ele><time>2026-04-25T13:21:48.969Z</time></trkpt><trkpt lat="44.4827583" lon="8.5593067"><ele>747.0</ele><time>2026-04-25T13:21:49.969Z</time></trkpt><trkpt lat="44.4826767" lon="8.5594533"><ele>747.0</ele><time>2026-04-25T13:21:50.969Z</time></trkpt><trkpt lat="44.4825967" lon="8.5596333"><ele>747.0</ele><time>2026-04-25T13:21:51.969Z</time></trkpt><trkpt lat="44.4825283" lon="8.55986"><ele>745.3333333333334</ele><time>2026-04-25T13:21:52.969Z</time></trkpt><trkpt lat="44.4825" lon="8.5601117"><ele>743.6666666666667</ele><time>2026-04-25T13:21:53.969Z</time></trkpt><trkpt lat="44.4824867" lon="8.5603817"><ele>742.0</ele><time>2026-04-25T13:21:54.969Z</time></trkpt><trkpt lat="44.482485" lon="8.5606517"><ele>742.0</ele><time>2026-04-25T13:21:55.969Z</time></trkpt><trkpt lat="44.48248" lon="8.5609183"><ele>742.0</ele><time>2026-04-25T13:21:56.969Z</time></trkpt><trkpt lat="44.4824517" lon="8.5611783"><ele>742.0</ele><time>2026-04-25T13:21:57.969Z</time></trkpt><trkpt lat="44.4824" lon="8.561445"><ele>740.3333333333334</ele><time>2026-04-25T13:21:58.969Z</time></trkpt><trkpt lat="44.4823383" lon="8.5617067"><ele>738.6666666666666</ele><time>2026-04-25T13:21:59.97Z</time></trkpt><trkpt lat="44.48228" lon="8.5619167"><ele>737.0</ele><time>2026-04-25T13:22:00.969Z</time></trkpt><trkpt lat="44.48219" lon="8.5620983"><ele>741.6666666666666</ele><time>2026-04-25T13:22:01.969Z</time></trkpt><trkpt lat="44.4820867" lon="8.5622533"><ele>746.3333333333334</ele><time>2026-04-25T13:22:02.97Z</time></trkpt><trkpt lat="44.481965" lon="8.5623967"><ele>751.0</ele><time>2026-04-25T13:22:03.97Z</time></trkpt><trkpt lat="44.481855" lon="8.562545"><ele>751.0</ele><time>2026-04-25T13:22:04.969Z</time></trkpt><trkpt lat="44.4817717" lon="8.562695"><ele>751.0</ele><time>2026-04-25T13:22:05.969Z</time></trkpt><trkpt lat="44.4817383" lon="8.5628917"><ele>751.0</ele><time>2026-04-25T13:22:06.969Z</time></trkpt><trkpt lat="44.4817483" lon="8.5630867"><ele>751.0</ele><time>2026-04-25T13:22:07.969Z</time></trkpt><trkpt lat="44.4818117" lon="8.5632917"><ele>749.6666666666667</ele><time>2026-04-25T13:22:08.969Z</time></trkpt><trkpt lat="44.4818967" lon="8.56349"><ele>748.3333333333334</ele><time>2026-04-25T13:22:09.969Z</time></trkpt><trkpt lat="44.4819967" lon="8.5636617"><ele>747.0</ele><time>2026-04-25T13:22:10.969Z</time></trkpt><trkpt lat="44.4821067" lon="8.5638383"><ele>745.3333333333334</ele><time>2026-04-25T13:22:11.969Z</time></trkpt><trkpt lat="44.4822317" lon="8.5640483"><ele>743.6666666666667</ele><time>2026-04-25T13:22:12.969Z</time></trkpt><trkpt lat="44.4823633" lon="8.56423"><ele>742.0</ele><time>2026-04-25T13:22:13.97Z</time></trkpt><trkpt lat="44.4824717" lon="8.564345"><ele>742.0</ele><time>2026-04-25T13:22:14.97Z</time></trkpt><trkpt lat="44.4826" lon="8.5644517"><ele>742.0</ele><time>2026-04-25T13:22:15.969Z</time></trkpt><trkpt lat="44.4827533" lon="8.5644933"><ele>742.0</ele><time>2026-04-25T13:22:16.968Z</time></trkpt><trkpt lat="44.4829367" lon="8.5645283"><ele>743.0</ele><time>2026-04-25T13:22:17.969Z</time></trkpt><trkpt lat="44.48311" lon="8.5645733"><ele>744.0</ele><time>2026-04-25T13:22:18.969Z</time></trkpt><trkpt lat="44.4832983" lon="8.5646417"><ele>745.0</ele><time>2026-04-25T13:22:19.968Z</time></trkpt><trkpt lat="44.4834417" lon="8.56471"><ele>745.0</ele><time>2026-04-25T13:22:20.969Z</time></trkpt><trkpt lat="44.4835233" lon="8.5648167"><ele>745.0</ele><time>2026-04-25T13:22:21.968Z</time></trkpt><trkpt lat="44.4835883" lon="8.5649383"><ele>745.0</ele><time>2026-04-25T13:22:22.968Z</time></trkpt><trkpt lat="44.483575" lon="8.5651467"><ele>745.0</ele><time>2026-04-25T13:22:23.969Z</time></trkpt><trkpt lat="44.4836" lon="8.565365"><ele>747.3333333333334</ele><time>2026-04-25T13:22:24.969Z</time></trkpt><trkpt lat="44.4836333" lon="8.565575"><ele>749.6666666666666</ele><time>2026-04-25T13:22:25.969Z</time></trkpt><trkpt lat="44.4836833" lon="8.56579"><ele>752.0</ele><time>2026-04-25T13:22:26.968Z</time></trkpt><trkpt lat="44.48374" lon="8.5659967"><ele>748.5</ele><time>2026-04-25T13:22:27.968Z</time></trkpt><trkpt lat="44.48379" lon="8.56619"><ele>745.0</ele><time>2026-04-25T13:22:28.969Z</time></trkpt><trkpt lat="44.48382" lon="8.5663683"><ele>741.5</ele><time>2026-04-25T13:22:29.968Z</time></trkpt><trkpt lat="44.4838183" lon="8.56657"><ele>738.0</ele><time>2026-04-25T13:22:30.968Z</time></trkpt><trkpt lat="44.4838117" lon="8.5667667"><ele>738.0</ele><time>2026-04-25T13:22:31.969Z</time></trkpt><trkpt lat="44.4838167" lon="8.56697"><ele>738.0</ele><time>2026-04-25T13:22:32.968Z</time></trkpt><trkpt lat="44.48385" lon="8.5671767"><ele>738.0</ele><time>2026-04-25T13:22:33.968Z</time></trkpt><trkpt lat="44.4838817" lon="8.5673633"><ele>738.0</ele><time>2026-04-25T13:22:34.969Z</time></trkpt><trkpt lat="44.483915" lon="8.56753"><ele>737.5</ele><time>2026-04-25T13:22:35.969Z</time></trkpt><trkpt lat="44.4839217" lon="8.56768"><ele>737.0</ele><time>2026-04-25T13:22:36.968Z</time></trkpt><trkpt lat="44.483865" lon="8.5678217"><ele>736.5</ele><time>2026-04-25T13:22:37.968Z</time></trkpt><trkpt lat="44.4837617" lon="8.5679217"><ele>736.0</ele><time>2026-04-25T13:22:38.968Z</time></trkpt><trkpt lat="44.4836483" lon="8.568"><ele>737.0</ele><time>2026-04-25T13:22:39.969Z</time></trkpt><trkpt lat="44.48351" lon="8.56804"><ele>738.0</ele><time>2026-04-25T13:22:40.968Z</time></trkpt><trkpt lat="44.483395" lon="8.5680783"><ele>739.0</ele><time>2026-04-25T13:22:41.968Z</time></trkpt><trkpt lat="44.4832883" lon="8.5681567"><ele>740.0</ele><time>2026-04-25T13:22:42.968Z</time></trkpt><trkpt lat="44.483225" lon="8.56826"><ele>740.0</ele><time>2026-04-25T13:22:43.969Z</time></trkpt><trkpt lat="44.4831917" lon="8.568395"><ele>740.0</ele><time>2026-04-25T13:22:44.968Z</time></trkpt><trkpt lat="44.4832233" lon="8.5685433"><ele>740.0</ele><time>2026-04-25T13:22:45.968Z</time></trkpt><trkpt lat="44.4832783" lon="8.5687067"><ele>740.0</ele><time>2026-04-25T13:22:46.968Z</time></trkpt><trkpt lat="44.4833567" lon="8.56888"><ele>740.3333333333333</ele><time>2026-04-25T13:22:47.968Z</time></trkpt><trkpt lat="44.4834267" lon="8.5690883"><ele>740.6666666666666</ele><time>2026-04-25T13:22:48.968Z</time></trkpt><trkpt lat="44.4834867" lon="8.5693"><ele>741.0</ele><time>2026-04-25T13:22:49.969Z</time></trkpt><trkpt lat="44.4835633" lon="8.569525"><ele>742.3333333333334</ele><time>2026-04-25T13:22:50.969Z</time></trkpt><trkpt lat="44.4836383" lon="8.5697433"><ele>743.6666666666667</ele><time>2026-04-25T13:22:51.968Z</time></trkpt><trkpt lat="44.4836983" lon="8.56996"><ele>745.0</ele><time>2026-04-25T13:22:52.968Z</time></trkpt><trkpt lat="44.48372" lon="8.5701933"><ele>745.0</ele><time>2026-04-25T13:22:53.968Z</time></trkpt><trkpt lat="44.483705" lon="8.5704133"><ele>745.0</ele><time>2026-04-25T13:22:54.968Z</time></trkpt><trkpt lat="44.4836767" lon="8.5706183"><ele>745.0</ele><time>2026-04-25T13:22:55.969Z</time></trkpt><trkpt lat="44.4836583" lon="8.5707983"><ele>745.0</ele><time>2026-04-25T13:22:56.968Z</time></trkpt><trkpt lat="44.4836567" lon="8.570955"><ele>745.0</ele><time>2026-04-25T13:22:57.968Z</time></trkpt><trkpt lat="44.4836933" lon="8.5710817"><ele>745.0</ele><time>2026-04-25T13:22:58.969Z</time></trkpt><trkpt lat="44.4837667" lon="8.5711483"><ele>745.0</ele><time>2026-04-25T13:22:59.968Z</time></trkpt><trkpt lat="44.483885" lon="8.5711983"><ele>745.0</ele><time>2026-04-25T13:23:00.968Z</time></trkpt><trkpt lat="44.4840617" lon="8.57122"><ele>740.3333333333334</ele><time>2026-04-25T13:23:01.968Z</time></trkpt><trkpt lat="44.4842283" lon="8.5712467"><ele>735.6666666666666</ele><time>2026-04-25T13:23:02.969Z</time></trkpt><trkpt lat="44.4843917" lon="8.5712717"><ele>731.0</ele><time>2026-04-25T13:23:03.968Z</time></trkpt><trkpt lat="44.484525" lon="8.5712967"><ele>729.25</ele><time>2026-04-25T13:23:04.968Z</time></trkpt><trkpt lat="44.4846383" lon="8.57137"><ele>727.5</ele><time>2026-04-25T13:23:05.968Z</time></trkpt><trkpt lat="44.4847083" lon="8.57148"><ele>725.75</ele><time>2026-04-25T13:23:06.969Z</time></trkpt><trkpt lat="44.484735" lon="8.57163"><ele>724.0</ele><time>2026-04-25T13:23:07.969Z</time></trkpt><trkpt lat="44.4847283" lon="8.5718317"><ele>723.6666666666667</ele><time>2026-04-25T13:23:08.968Z</time></trkpt><trkpt lat="44.4846983" lon="8.57205"><ele>723.3333333333334</ele><time>2026-04-25T13:23:09.968Z</time></trkpt><trkpt lat="44.48467" lon="8.5722783"><ele>723.0</ele><time>2026-04-25T13:23:10.968Z</time></trkpt><trkpt lat="44.4846467" lon="8.5725"><ele>723.0</ele><time>2026-04-25T13:23:11.968Z</time></trkpt><trkpt lat="44.4846333" lon="8.5726983"><ele>723.0</ele><time>2026-04-25T13:23:12.969Z</time></trkpt><trkpt lat="44.48465" lon="8.5729"><ele>723.0</ele><time>2026-04-25T13:23:13.969Z</time></trkpt><trkpt lat="44.4847117" lon="8.5730983"><ele>723.0</ele><time>2026-04-25T13:23:14.968Z</time></trkpt><trkpt lat="44.4848033" lon="8.573275"><ele>722.0</ele><time>2026-04-25T13:23:15.968Z</time></trkpt><trkpt lat="44.4849017" lon="8.5734483"><ele>721.0</ele><time>2026-04-25T13:23:16.968Z</time></trkpt><trkpt lat="44.4849967" lon="8.5736233"><ele>720.0</ele><time>2026-04-25T13:23:17.968Z</time></trkpt><trkpt lat="44.4850617" lon="8.5738117"><ele>718.6666666666666</ele><time>2026-04-25T13:23:18.968Z</time></trkpt><trkpt lat="44.48509" lon="8.5740183"><ele>717.3333333333333</ele><time>2026-04-25T13:23:19.968Z</time></trkpt><trkpt lat="44.4850367" lon="8.57423"><ele>716.0</ele><time>2026-04-25T13:23:20.968Z</time></trkpt><trkpt lat="44.4849517" lon="8.574405"><ele>717.25</ele><time>2026-04-25T13:23:21.969Z</time></trkpt><trkpt lat="44.484835" lon="8.5745333"><ele>718.5</ele><time>2026-04-25T13:23:22.969Z</time></trkpt><trkpt lat="44.484715" lon="8.5746483"><ele>719.75</ele><time>2026-04-25T13:23:23.969Z</time></trkpt><trkpt lat="44.4846283" lon="8.5747833"><ele>721.0</ele><time>2026-04-25T13:23:24.969Z</time></trkpt><trkpt lat="44.4845817" lon="8.5749533"><ele>718.75</ele><time>2026-04-25T13:23:25.968Z</time></trkpt><trkpt lat="44.4846017" lon="8.5751333"><ele>716.5</ele><time>2026-04-25T13:23:26.968Z</time></trkpt><trkpt lat="44.4846667" lon="8.5753"><ele>714.25</ele><time>2026-04-25T13:23:27.969Z</time></trkpt><trkpt lat="44.484785" lon="8.575455"><ele>712.0</ele><time>2026-04-25T13:23:28.968Z</time></trkpt><trkpt lat="44.4849317" lon="8.575585"><ele>712.0</ele><time>2026-04-25T13:23:29.968Z</time></trkpt><trkpt lat="44.4850783" lon="8.5757133"><ele>712.0</ele><time>2026-04-25T13:23:30.968Z</time></trkpt><trkpt lat="44.4852167" lon="8.5758417"><ele>712.0</ele><time>2026-04-25T13:23:31.968Z</time></trkpt><trkpt lat="44.48539" lon="8.5759283"><ele>707.6666666666667</ele><time>2026-04-25T13:23:32.968Z</time></trkpt><trkpt lat="44.4855733" lon="8.5759783"><ele>703.3333333333334</ele><time>2026-04-25T13:23:33.968Z</time></trkpt><trkpt lat="44.4857533" lon="8.5760017"><ele>699.0</ele><time>2026-04-25T13:23:34.969Z</time></trkpt><trkpt lat="44.4859383" lon="8.5759783"><ele>699.0</ele><time>2026-04-25T13:23:35.968Z</time></trkpt><trkpt lat="44.4861333" lon="8.5759367"><ele>699.0</ele><time>2026-04-25T13:23:36.969Z</time></trkpt><trkpt lat="44.4863017" lon="8.5758933"><ele>699.0</ele><time>2026-04-25T13:23:37.968Z</time></trkpt><trkpt lat="44.4864717" lon="8.575905"><ele>697.75</ele><time>2026-04-25T13:23:38.969Z</time></trkpt><trkpt lat="44.4866183" lon="8.5759483"><ele>696.5</ele><time>2026-04-25T13:23:39.968Z</time></trkpt><trkpt lat="44.48672" lon="8.5760667"><ele>695.25</ele><time>2026-04-25T13:23:40.969Z</time></trkpt><trkpt lat="44.4867883" lon="8.5762233"><ele>694.0</ele><time>2026-04-25T13:23:41.968Z</time></trkpt><trkpt lat="44.48679" lon="8.5764117"><ele>693.75</ele><time>2026-04-25T13:23:42.968Z</time></trkpt><trkpt lat="44.48675" lon="8.5766033"><ele>693.5</ele><time>2026-04-25T13:23:43.968Z</time></trkpt><trkpt lat="44.4866933" lon="8.5767667"><ele>693.25</ele><time>2026-04-25T13:23:44.969Z</time></trkpt><trkpt lat="44.48658" lon="8.57688"><ele>693.0</ele><time>2026-04-25T13:23:45.968Z</time></trkpt><trkpt lat="44.486455" lon="8.57697"><ele>693.25</ele><time>2026-04-25T13:23:46.968Z</time></trkpt><trkpt lat="44.486285" lon="8.577045"><ele>693.5</ele><time>2026-04-25T13:23:47.968Z</time></trkpt><trkpt lat="44.4861483" lon="8.577115"><ele>693.75</ele><time>2026-04-25T13:23:48.968Z</time></trkpt><trkpt lat="44.4860533" lon="8.5772033"><ele>694.0</ele><time>2026-04-25T13:23:49.969Z</time></trkpt><trkpt lat="44.486005" lon="8.5772833"><ele>694.0</ele><time>2026-04-25T13:23:50.968Z</time></trkpt><trkpt lat="44.4859917" lon="8.5774067"><ele>694.0</ele><time>2026-04-25T13:23:51.969Z</time></trkpt><trkpt lat="44.48599" lon="8.5775233"><ele>694.0</ele><time>2026-04-25T13:23:52.968Z</time></trkpt><trkpt lat="44.4860017" lon="8.5776233"><ele>694.0</ele><time>2026-04-25T13:23:53.968Z</time></trkpt><trkpt lat="44.4860517" lon="8.5777083"><ele>694.0</ele><time>2026-04-25T13:23:54.969Z</time></trkpt><trkpt lat="44.4861233" lon="8.577755"><ele>694.0</ele><time>2026-04-25T13:23:55.968Z</time></trkpt><trkpt lat="44.48624" lon="8.57778"><ele>691.5</ele><time>2026-04-25T13:23:56.968Z</time></trkpt><trkpt lat="44.486515" lon="8.577705"><ele>689.0</ele><time>2026-04-25T13:23:57.969Z</time></trkpt><trkpt lat="44.4867817" lon="8.5776567"><ele>689.0</ele><time>2026-04-25T13:23:58.968Z</time></trkpt><trkpt lat="44.48699" lon="8.5776133"><ele>689.0</ele><time>2026-04-25T13:23:59.968Z</time></trkpt><trkpt lat="44.4871767" lon="8.5775467"><ele>689.0</ele><time>2026-04-25T13:24:00.969Z</time></trkpt><trkpt lat="44.4873633" lon="8.5774467"><ele>688.3333333333333</ele><time>2026-04-25T13:24:01.969Z</time></trkpt><trkpt lat="44.4875417" lon="8.5773217"><ele>687.6666666666666</ele><time>2026-04-25T13:24:02.969Z</time></trkpt><trkpt lat="44.4877183" lon="8.57719"><ele>687.0</ele><time>2026-04-25T13:24:03.968Z</time></trkpt><trkpt lat="44.4878867" lon="8.5770583"><ele>683.0</ele><time>2026-04-25T13:24:04.969Z</time></trkpt><trkpt lat="44.4880433" lon="8.5769633"><ele>679.0</ele><time>2026-04-25T13:24:05.968Z</time></trkpt><trkpt lat="44.4882033" lon="8.5769233"><ele>675.0</ele><time>2026-04-25T13:24:06.968Z</time></trkpt><trkpt lat="44.48837" lon="8.5769483"><ele>675.0</ele><time>2026-04-25T13:24:07.969Z</time></trkpt><trkpt lat="44.4885483" lon="8.5770083"><ele>675.0</ele><time>2026-04-25T13:24:08.968Z</time></trkpt><trkpt lat="44.4887433" lon="8.577085"><ele>675.0</ele><time>2026-04-25T13:24:09.969Z</time></trkpt><trkpt lat="44.4889267" lon="8.5771983"><ele>674.0</ele><time>2026-04-25T13:24:10.968Z</time></trkpt><trkpt lat="44.4890917" lon="8.577335"><ele>673.0</ele><time>2026-04-25T13:24:11.969Z</time></trkpt><trkpt lat="44.4892617" lon="8.5774483"><ele>672.0</ele><time>2026-04-25T13:24:12.969Z</time></trkpt><trkpt lat="44.4894167" lon="8.57761"><ele>672.0</ele><time>2026-04-25T13:24:13.969Z</time></trkpt><trkpt lat="44.48954" lon="8.5777767"><ele>672.0</ele><time>2026-04-25T13:24:14.968Z</time></trkpt><trkpt lat="44.48965" lon="8.57794"><ele>672.0</ele><time>2026-04-25T13:24:15.968Z</time></trkpt><trkpt lat="44.48974" lon="8.5781117"><ele>670.75</ele><time>2026-04-25T13:24:16.968Z</time></trkpt><trkpt lat="44.4897883" lon="8.5782983"><ele>669.5</ele><time>2026-04-25T13:24:17.968Z</time></trkpt><trkpt lat="44.489795" lon="8.5784683"><ele>668.25</ele><time>2026-04-25T13:24:18.968Z</time></trkpt><trkpt lat="44.4897567" lon="8.5786467"><ele>667.0</ele><time>2026-04-25T13:24:19.968Z</time></trkpt><trkpt lat="44.4896783" lon="8.578805"><ele>667.6666666666667</ele><time>2026-04-25T13:24:20.969Z</time></trkpt><trkpt lat="44.4895583" lon="8.5789283"><ele>668.3333333333334</ele><time>2026-04-25T13:24:21.968Z</time></trkpt><trkpt lat="44.4894117" lon="8.5790417"><ele>669.0</ele><time>2026-04-25T13:24:22.968Z</time></trkpt><trkpt lat="44.4892733" lon="8.57918"><ele>669.0</ele><time>2026-04-25T13:24:23.968Z</time></trkpt><trkpt lat="44.489135" lon="8.5793333"><ele>669.0</ele><time>2026-04-25T13:24:24.968Z</time></trkpt><trkpt lat="44.4890217" lon="8.5795167"><ele>669.0</ele><time>2026-04-25T13:24:25.968Z</time></trkpt><trkpt lat="44.4889483" lon="8.5797333"><ele>668.6666666666666</ele><time>2026-04-25T13:24:26.969Z</time></trkpt><trkpt lat="44.4889167" lon="8.579975"><ele>668.3333333333333</ele><time>2026-04-25T13:24:27.968Z</time></trkpt><trkpt lat="44.4889233" lon="8.5802033"><ele>668.0</ele><time>2026-04-25T13:24:28.968Z</time></trkpt><trkpt lat="44.4889517" lon="8.5804"><ele>668.0</ele><time>2026-04-25T13:24:29.968Z</time></trkpt><trkpt lat="44.4889883" lon="8.5806033"><ele>668.0</ele><time>2026-04-25T13:24:30.969Z</time></trkpt><trkpt lat="44.48899" lon="8.5808117"><ele>668.0</ele><time>2026-04-25T13:24:31.969Z</time></trkpt><trkpt lat="44.4889633" lon="8.58103"><ele>667.0</ele><time>2026-04-25T13:24:32.968Z</time></trkpt><trkpt lat="44.488945" lon="8.5812433"><ele>666.0</ele><time>2026-04-25T13:24:33.968Z</time></trkpt><trkpt lat="44.48895" lon="8.5814383"><ele>665.0</ele><time>2026-04-25T13:24:34.969Z</time></trkpt><trkpt lat="44.4889517" lon="8.58161"><ele>664.0</ele><time>2026-04-25T13:24:35.968Z</time></trkpt><trkpt lat="44.4889933" lon="8.5817633"><ele>664.0</ele><time>2026-04-25T13:24:36.969Z</time></trkpt><trkpt lat="44.489065" lon="8.58186"><ele>664.0</ele><time>2026-04-25T13:24:37.969Z</time></trkpt><trkpt lat="44.4891567" lon="8.58191"><ele>664.0</ele><time>2026-04-25T13:24:38.968Z</time></trkpt><trkpt lat="44.4892517" lon="8.5819533"><ele>664.0</ele><time>2026-04-25T13:24:39.968Z</time></trkpt><trkpt lat="44.489375" lon="8.5819783"><ele>664.0</ele><time>2026-04-25T13:24:40.969Z</time></trkpt><trkpt lat="44.4894883" lon="8.5820117"><ele>663.0</ele><time>2026-04-25T13:24:41.969Z</time></trkpt><trkpt lat="44.489595" lon="8.5820567"><ele>662.0</ele><time>2026-04-25T13:24:42.969Z</time></trkpt><trkpt lat="44.48969" lon="8.5821467"><ele>661.0</ele><time>2026-04-25T13:24:43.969Z</time></trkpt><trkpt lat="44.4897833" lon="8.5822883"><ele>660.0</ele><time>2026-04-25T13:24:44.968Z</time></trkpt><trkpt lat="44.489885" lon="8.5824383"><ele>660.0</ele><time>2026-04-25T13:24:45.968Z</time></trkpt><trkpt lat="44.4899567" lon="8.582595"><ele>660.0</ele><time>2026-04-25T13:24:46.969Z</time></trkpt><trkpt lat="44.4900633" lon="8.5826983"><ele>660.0</ele><time>2026-04-25T13:24:47.969Z</time></trkpt><trkpt lat="44.4901833" lon="8.5827633"><ele>660.0</ele><time>2026-04-25T13:24:48.968Z</time></trkpt><trkpt lat="44.49032" lon="8.5828083"><ele>656.6666666666666</ele><time>2026-04-25T13:24:49.969Z</time></trkpt><trkpt lat="44.4904783" lon="8.5828533"><ele>653.3333333333333</ele><time>2026-04-25T13:24:50.968Z</time></trkpt><trkpt lat="44.490655" lon="8.5828867"><ele>650.0</ele><time>2026-04-25T13:24:51.968Z</time></trkpt><trkpt lat="44.4908333" lon="8.5829267"><ele>650.0</ele><time>2026-04-25T13:24:52.968Z</time></trkpt><trkpt lat="44.4910067" lon="8.58294"><ele>650.0</ele><time>2026-04-25T13:24:53.968Z</time></trkpt><trkpt lat="44.4911817" lon="8.582975"><ele>650.0</ele><time>2026-04-25T13:24:54.968Z</time></trkpt><trkpt lat="44.4913667" lon="8.582995"><ele>649.6666666666666</ele><time>2026-04-25T13:24:55.968Z</time></trkpt><trkpt lat="44.4915333" lon="8.5829967"><ele>649.3333333333334</ele><time>2026-04-25T13:24:56.968Z</time></trkpt><trkpt lat="44.49169" lon="8.5829967"><ele>649.0</ele><time>2026-04-25T13:24:57.968Z</time></trkpt><trkpt lat="44.4918417" lon="8.583045"><ele>649.0</ele><time>2026-04-25T13:24:58.968Z</time></trkpt><trkpt lat="44.4919733" lon="8.583145"><ele>649.0</ele><time>2026-04-25T13:24:59.968Z</time></trkpt><trkpt lat="44.492095" lon="8.5832783"><ele>649.0</ele><time>2026-04-25T13:25:00.969Z</time></trkpt><trkpt lat="44.4921767" lon="8.58344"><ele>649.0</ele><time>2026-04-25T13:25:01.969Z</time></trkpt><trkpt lat="44.4922417" lon="8.5836067"><ele>645.0</ele><time>2026-04-25T13:25:02.969Z</time></trkpt><trkpt lat="44.4923167" lon="8.58375"><ele>641.0</ele><time>2026-04-25T13:25:03.968Z</time></trkpt><trkpt lat="44.4924" lon="8.58386"><ele>637.0</ele><time>2026-04-25T13:25:04.968Z</time></trkpt><trkpt lat="44.49251" lon="8.58395"><ele>633.0</ele><time>2026-04-25T13:25:05.969Z</time></trkpt><trkpt lat="44.49264" lon="8.5839933"><ele>633.0</ele><time>2026-04-25T13:25:06.968Z</time></trkpt><trkpt lat="44.4927783" lon="8.5840083"><ele>633.0</ele><time>2026-04-25T13:25:07.968Z</time></trkpt><trkpt lat="44.49292" lon="8.5840267"><ele>633.0</ele><time>2026-04-25T13:25:08.968Z</time></trkpt><trkpt lat="44.49306" lon="8.5840917"><ele>633.0</ele><time>2026-04-25T13:25:09.969Z</time></trkpt><trkpt lat="44.4931717" lon="8.5842"><ele>633.5</ele><time>2026-04-25T13:25:10.969Z</time></trkpt><trkpt lat="44.4932783" lon="8.5843233"><ele>634.0</ele><time>2026-04-25T13:25:11.969Z</time></trkpt><trkpt lat="44.4933833" lon="8.5844867"><ele>634.5</ele><time>2026-04-25T13:25:12.968Z</time></trkpt><trkpt lat="44.4934817" lon="8.5846467"><ele>635.0</ele><time>2026-04-25T13:25:13.968Z</time></trkpt><trkpt lat="44.4935783" lon="8.584795"><ele>635.5</ele><time>2026-04-25T13:25:14.968Z</time></trkpt><trkpt lat="44.4936867" lon="8.5849167"><ele>636.0</ele><time>2026-04-25T13:25:15.968Z</time></trkpt><trkpt lat="44.4937633" lon="8.5850383"><ele>636.5</ele><time>2026-04-25T13:25:16.968Z</time></trkpt><trkpt lat="44.493805" lon="8.5851667"><ele>637.0</ele><time>2026-04-25T13:25:17.968Z</time></trkpt><trkpt lat="44.4937867" lon="8.585325"><ele>632.25</ele><time>2026-04-25T13:25:18.968Z</time></trkpt><trkpt lat="44.493725" lon="8.5855217"><ele>627.5</ele><time>2026-04-25T13:25:19.969Z</time></trkpt><trkpt lat="44.493675" lon="8.585715"><ele>622.75</ele><time>2026-04-25T13:25:20.969Z</time></trkpt><trkpt lat="44.4936367" lon="8.58588"><ele>618.0</ele><time>2026-04-25T13:25:21.969Z</time></trkpt><trkpt lat="44.49364" lon="8.5860517"><ele>619.25</ele><time>2026-04-25T13:25:22.968Z</time></trkpt><trkpt lat="44.4937033" lon="8.5862117"><ele>620.5</ele><time>2026-04-25T13:25:23.968Z</time></trkpt><trkpt lat="44.4938033" lon="8.5863333"><ele>621.75</ele><time>2026-04-25T13:25:24.969Z</time></trkpt><trkpt lat="44.4939317" lon="8.5864383"><ele>623.0</ele><time>2026-04-25T13:25:25.969Z</time></trkpt><trkpt lat="44.494075" lon="8.58655"><ele>623.0</ele><time>2026-04-25T13:25:26.968Z</time></trkpt><trkpt lat="44.49421" lon="8.5866767"><ele>623.0</ele><time>2026-04-25T13:25:27.969Z</time></trkpt><trkpt lat="44.4943083" lon="8.58683"><ele>623.0</ele><time>2026-04-25T13:25:28.968Z</time></trkpt><trkpt lat="44.49435" lon="8.587035"><ele>620.75</ele><time>2026-04-25T13:25:29.969Z</time></trkpt><trkpt lat="44.4943517" lon="8.5872483"><ele>618.5</ele><time>2026-04-25T13:25:30.969Z</time></trkpt><trkpt lat="44.4943583" lon="8.5874333"><ele>616.25</ele><time>2026-04-25T13:25:31.968Z</time></trkpt><trkpt lat="44.4943417" lon="8.58759"><ele>614.0</ele><time>2026-04-25T13:25:32.968Z</time></trkpt><trkpt lat="44.494305" lon="8.5877167"><ele>614.0</ele><time>2026-04-25T13:25:33.968Z</time></trkpt><trkpt lat="44.4942417" lon="8.5877933"><ele>614.0</ele><time>2026-04-25T13:25:34.968Z</time></trkpt><trkpt lat="44.4941633" lon="8.5877933"><ele>614.0</ele><time>2026-04-25T13:25:35.969Z</time></trkpt><trkpt lat="44.494075" lon="8.5877333"><ele>614.0</ele><time>2026-04-25T13:25:36.968Z</time></trkpt><trkpt lat="44.4940017" lon="8.58751"><ele>614.0</ele><time>2026-04-25T13:25:37.969Z</time></trkpt><trkpt lat="44.49395" lon="8.58728"><ele>614.0</ele><time>2026-04-25T13:25:38.968Z</time></trkpt><trkpt lat="44.4939017" lon="8.5870533"><ele>614.0</ele><time>2026-04-25T13:25:39.968Z</time></trkpt><trkpt lat="44.49385" lon="8.5868383"><ele>614.0</ele><time>2026-04-25T13:25:40.968Z</time></trkpt><trkpt lat="44.4937583" lon="8.5866417"><ele>615.3333333333333</ele><time>2026-04-25T13:25:41.968Z</time></trkpt><trkpt lat="44.4936017" lon="8.5864683"><ele>616.6666666666666</ele><time>2026-04-25T13:25:42.968Z</time></trkpt><trkpt lat="44.4934433" lon="8.586325"><ele>618.0</ele><time>2026-04-25T13:25:43.968Z</time></trkpt><trkpt lat="44.4932767" lon="8.5861767"><ele>618.0</ele><time>2026-04-25T13:25:44.969Z</time></trkpt><trkpt lat="44.4931083" lon="8.5860317"><ele>618.0</ele><time>2026-04-25T13:25:45.968Z</time></trkpt><trkpt lat="44.4929517" lon="8.585875"><ele>618.0</ele><time>2026-04-25T13:25:46.968Z</time></trkpt><trkpt lat="44.49279" lon="8.5857267"><ele>616.6666666666666</ele><time>2026-04-25T13:25:47.969Z</time></trkpt><trkpt lat="44.49264" lon="8.5855817"><ele>615.3333333333333</ele><time>2026-04-25T13:25:48.968Z</time></trkpt><trkpt lat="44.492485" lon="8.5854667"><ele>614.0</ele><time>2026-04-25T13:25:49.968Z</time></trkpt><trkpt lat="44.4923517" lon="8.5853383"><ele>614.0</ele><time>2026-04-25T13:25:50.968Z</time></trkpt><trkpt lat="44.4922133" lon="8.5852383"><ele>614.0</ele><time>2026-04-25T13:25:51.968Z</time></trkpt><trkpt lat="44.4920667" lon="8.5851783"><ele>614.0</ele><time>2026-04-25T13:25:52.968Z</time></trkpt><trkpt lat="44.4919083" lon="8.5851833"><ele>615.0</ele><time>2026-04-25T13:25:53.968Z</time></trkpt><trkpt lat="44.491745" lon="8.5852167"><ele>616.0</ele><time>2026-04-25T13:25:54.969Z</time></trkpt><trkpt lat="44.4915883" lon="8.5852767"><ele>617.0</ele><time>2026-04-25T13:25:55.968Z</time></trkpt><trkpt lat="44.4914417" lon="8.5853533"><ele>616.6666666666666</ele><time>2026-04-25T13:25:56.969Z</time></trkpt><trkpt lat="44.4913217" lon="8.5854833"><ele>616.3333333333334</ele><time>2026-04-25T13:25:57.968Z</time></trkpt><trkpt lat="44.4912167" lon="8.5856333"><ele>616.0</ele><time>2026-04-25T13:25:58.968Z</time></trkpt><trkpt lat="44.4911467" lon="8.5858433"><ele>616.0</ele><time>2026-04-25T13:25:59.968Z</time></trkpt><trkpt lat="44.491075" lon="8.5860433"><ele>616.0</ele><time>2026-04-25T13:26:00.969Z</time></trkpt><trkpt lat="44.4909917" lon="8.5862267"><ele>616.0</ele><time>2026-04-25T13:26:01.969Z</time></trkpt><trkpt lat="44.4908883" lon="8.58639"><ele>611.6</ele><time>2026-04-25T13:26:02.969Z</time></trkpt><trkpt lat="44.4908167" lon="8.5865367"><ele>607.2</ele><time>2026-04-25T13:26:03.968Z</time></trkpt><trkpt lat="44.490765" lon="8.58665"><ele>602.8</ele><time>2026-04-25T13:26:04.969Z</time></trkpt><trkpt lat="44.4907133" lon="8.5867117"><ele>598.4</ele><time>2026-04-25T13:26:05.969Z</time></trkpt><trkpt lat="44.4906417" lon="8.5867633"><ele>594.0</ele><time>2026-04-25T13:26:06.968Z</time></trkpt><trkpt lat="44.4905533" lon="8.5867833"><ele>594.0</ele><time>2026-04-25T13:26:07.968Z</time></trkpt><trkpt lat="44.49044" lon="8.5867667"><ele>594.0</ele><time>2026-04-25T13:26:08.968Z</time></trkpt><trkpt lat="44.4903183" lon="8.5867433"><ele>594.0</ele><time>2026-04-25T13:26:09.968Z</time></trkpt><trkpt lat="44.49019" lon="8.5867367"><ele>594.0</ele><time>2026-04-25T13:26:10.968Z</time></trkpt><trkpt lat="44.49005" lon="8.586715"><ele>593.75</ele><time>2026-04-25T13:26:11.968Z</time></trkpt><trkpt lat="44.489895" lon="8.58671"><ele>593.5</ele><time>2026-04-25T13:26:12.968Z</time></trkpt><trkpt lat="44.4897667" lon="8.5867617"><ele>593.25</ele><time>2026-04-25T13:26:13.968Z</time></trkpt><trkpt lat="44.4896417" lon="8.5867767"><ele>593.0</ele><time>2026-04-25T13:26:14.968Z</time></trkpt><trkpt lat="44.4895183" lon="8.5867383"><ele>587.5</ele><time>2026-04-25T13:26:15.968Z</time></trkpt><trkpt lat="44.4894" lon="8.58671"><ele>582.0</ele><time>2026-04-25T13:26:16.969Z</time></trkpt><trkpt lat="44.489295" lon="8.5866467"><ele>576.5</ele><time>2026-04-25T13:26:17.968Z</time></trkpt><trkpt lat="44.4892767" lon="8.5864533"><ele>571.0</ele><time>2026-04-25T13:26:18.968Z</time></trkpt><trkpt lat="44.4892417" lon="8.5862717"><ele>575.0</ele><time>2026-04-25T13:26:19.968Z</time></trkpt><trkpt lat="44.4892083" lon="8.5860983"><ele>579.0</ele><time>2026-04-25T13:26:20.968Z</time></trkpt><trkpt lat="44.4891633" lon="8.5859417"><ele>583.0</ele><time>2026-04-25T13:26:21.968Z</time></trkpt><trkpt lat="44.489125" lon="8.585755"><ele>587.0</ele><time>2026-04-25T13:26:22.968Z</time></trkpt><trkpt lat="44.4890817" lon="8.5856017"><ele>587.0</ele><time>2026-04-25T13:26:23.968Z</time></trkpt><trkpt lat="44.4890283" lon="8.58544"><ele>587.0</ele><time>2026-04-25T13:26:24.968Z</time></trkpt><trkpt lat="44.4889817" lon="8.585285"><ele>587.0</ele><time>2026-04-25T13:26:25.968Z</time></trkpt><trkpt lat="44.4889417" lon="8.5851283"><ele>587.0</ele><time>2026-04-25T13:26:26.968Z</time></trkpt><trkpt lat="44.4889133" lon="8.5849617"><ele>589.0</ele><time>2026-04-25T13:26:27.968Z</time></trkpt><trkpt lat="44.488885" lon="8.584815"><ele>591.0</ele><time>2026-04-25T13:26:28.968Z</time></trkpt><trkpt lat="44.48884" lon="8.5846817"><ele>593.0</ele><time>2026-04-25T13:26:29.969Z</time></trkpt><trkpt lat="44.488765" lon="8.5845917"><ele>595.0</ele><time>2026-04-25T13:26:30.968Z</time></trkpt><trkpt lat="44.48867" lon="8.58454"><ele>597.0</ele><time>2026-04-25T13:26:31.968Z</time></trkpt><trkpt lat="44.4885417" lon="8.58453"><ele>596.75</ele><time>2026-04-25T13:26:32.968Z</time></trkpt><trkpt lat="44.488415" lon="8.5845117"><ele>596.5</ele><time>2026-04-25T13:26:33.968Z</time></trkpt><trkpt lat="44.48828" lon="8.584495"><ele>596.25</ele><time>2026-04-25T13:26:34.968Z</time></trkpt><trkpt lat="44.48816" lon="8.5844983"><ele>596.0</ele><time>2026-04-25T13:26:35.968Z</time></trkpt><trkpt lat="44.4880433" lon="8.5845417"><ele>591.75</ele><time>2026-04-25T13:26:36.968Z</time></trkpt><trkpt lat="44.4879467" lon="8.5846117"><ele>587.5</ele><time>2026-04-25T13:26:37.968Z</time></trkpt><trkpt lat="44.487855" lon="8.584725"><ele>583.25</ele><time>2026-04-25T13:26:38.968Z</time></trkpt><trkpt lat="44.4877767" lon="8.584835"><ele>579.0</ele><time>2026-04-25T13:26:39.968Z</time></trkpt><trkpt lat="44.4876933" lon="8.5849517"><ele>579.0</ele><time>2026-04-25T13:26:40.968Z</time></trkpt><trkpt lat="44.4875933" lon="8.5850967"><ele>579.0</ele><time>2026-04-25T13:26:41.969Z</time></trkpt><trkpt lat="44.4875033" lon="8.5851833"><ele>579.0</ele><time>2026-04-25T13:26:42.968Z</time></trkpt><trkpt lat="44.48742" lon="8.5852933"><ele>579.0</ele><time>2026-04-25T13:26:43.968Z</time></trkpt><trkpt lat="44.4873333" lon="8.5854033"><ele>576.5</ele><time>2026-04-25T13:26:44.968Z</time></trkpt><trkpt lat="44.4872467" lon="8.5855167"><ele>574.0</ele><time>2026-04-25T13:26:45.968Z</time></trkpt><trkpt lat="44.4871467" lon="8.5856183"><ele>571.5</ele><time>2026-04-25T13:26:46.968Z</time></trkpt><trkpt lat="44.48703" lon="8.5857"><ele>569.0</ele><time>2026-04-25T13:26:47.968Z</time></trkpt><trkpt lat="44.4869033" lon="8.585755"><ele>569.0</ele><time>2026-04-25T13:26:48.969Z</time></trkpt><trkpt lat="44.4867967" lon="8.5858167"><ele>569.0</ele><time>2026-04-25T13:26:49.969Z</time></trkpt><trkpt lat="44.486685" lon="8.5858567"><ele>569.0</ele><time>2026-04-25T13:26:50.968Z</time></trkpt><trkpt lat="44.486575" lon="8.5858783"><ele>569.0</ele><time>2026-04-25T13:26:51.969Z</time></trkpt><trkpt lat="44.4864533" lon="8.585835"><ele>569.0</ele><time>2026-04-25T13:26:52.968Z</time></trkpt><trkpt lat="44.4863283" lon="8.58581"><ele>569.0</ele><time>2026-04-25T13:26:53.968Z</time></trkpt><trkpt lat="44.4862183" lon="8.5858083"><ele>569.0</ele><time>2026-04-25T13:26:54.968Z</time></trkpt><trkpt lat="44.4861117" lon="8.5858333"><ele>569.0</ele><time>2026-04-25T13:26:55.968Z</time></trkpt><trkpt lat="44.486015" lon="8.5858783"><ele>569.0</ele><time>2026-04-25T13:26:56.969Z</time></trkpt><trkpt lat="44.4859567" lon="8.5859983"><ele>567.5</ele><time>2026-04-25T13:26:57.968Z</time></trkpt><trkpt lat="44.48598" lon="8.5861583"><ele>566.0</ele><time>2026-04-25T13:26:58.968Z</time></trkpt><trkpt lat="44.4860217" lon="8.586275"><ele>564.5</ele><time>2026-04-25T13:26:59.969Z</time></trkpt><trkpt lat="44.48609" lon="8.5863617"><ele>563.0</ele><time>2026-04-25T13:27:00.969Z</time></trkpt><trkpt lat="44.486245" lon="8.586345"><ele>564.5</ele><time>2026-04-25T13:27:01.968Z</time></trkpt><trkpt lat="44.48636" lon="8.58629"><ele>566.0</ele><time>2026-04-25T13:27:02.968Z</time></trkpt><trkpt lat="44.4864933" lon="8.586235"><ele>567.5</ele><time>2026-04-25T13:27:03.968Z</time></trkpt><trkpt lat="44.4866367" lon="8.5861933"><ele>569.0</ele><time>2026-04-25T13:27:04.969Z</time></trkpt><trkpt lat="44.4867667" lon="8.5861667"><ele>569.0</ele><time>2026-04-25T13:27:05.969Z</time></trkpt><trkpt lat="44.4868933" lon="8.5861517"><ele>569.0</ele><time>2026-04-25T13:27:06.969Z</time></trkpt><trkpt lat="44.4870217" lon="8.5861383"><ele>569.0</ele><time>2026-04-25T13:27:07.968Z</time></trkpt><trkpt lat="44.4871267" lon="8.5860967"><ele>569.0</ele><time>2026-04-25T13:27:08.968Z</time></trkpt><trkpt lat="44.4872033" lon="8.5860417"><ele>567.6</ele><time>2026-04-25T13:27:09.968Z</time></trkpt><trkpt lat="44.48728" lon="8.5859867"><ele>566.2</ele><time>2026-04-25T13:27:10.968Z</time></trkpt><trkpt lat="44.4873683" lon="8.5859717"><ele>564.8000000000001</ele><time>2026-04-25T13:27:11.968Z</time></trkpt><trkpt lat="44.4874667" lon="8.5859633"><ele>563.4</ele><time>2026-04-25T13:27:12.969Z</time></trkpt><trkpt lat="44.4875533" lon="8.5860133"><ele>562.0</ele><time>2026-04-25T13:27:13.968Z</time></trkpt><trkpt lat="44.4876133" lon="8.58612"><ele>560.25</ele><time>2026-04-25T13:27:14.969Z</time></trkpt><trkpt lat="44.487665" lon="8.5862317"><ele>558.5</ele><time>2026-04-25T13:27:15.968Z</time></trkpt><trkpt lat="44.4876267" lon="8.5864133"><ele>556.75</ele><time>2026-04-25T13:27:16.968Z</time></trkpt><trkpt lat="44.4875833" lon="8.5865717"><ele>555.0</ele><time>2026-04-25T13:27:17.969Z</time></trkpt><trkpt lat="44.4875483" lon="8.58671"><ele>555.0</ele><time>2026-04-25T13:27:18.968Z</time></trkpt><trkpt lat="44.4875217" lon="8.586815"><ele>555.0</ele><time>2026-04-25T13:27:19.969Z</time></trkpt><trkpt lat="44.4874967" lon="8.5869033"><ele>555.0</ele><time>2026-04-25T13:27:20.968Z</time></trkpt><trkpt lat="44.4874667" lon="8.5869883"><ele>555.0</ele><time>2026-04-25T13:27:21.968Z</time></trkpt><trkpt lat="44.487405" lon="8.58705"><ele>555.0</ele><time>2026-04-25T13:27:22.968Z</time></trkpt><trkpt lat="44.4873267" lon="8.5871017"><ele>555.0</ele><time>2026-04-25T13:27:23.968Z</time></trkpt><trkpt lat="44.48724" lon="8.5871267"><ele>554.6</ele><time>2026-04-25T13:27:24.968Z</time></trkpt><trkpt lat="44.4871317" lon="8.5870933"><ele>554.2</ele><time>2026-04-25T13:27:25.969Z</time></trkpt><trkpt lat="44.4870267" lon="8.5870483"><ele>553.8</ele><time>2026-04-25T13:27:26.969Z</time></trkpt><trkpt lat="44.4869267" lon="8.5870217"><ele>553.4</ele><time>2026-04-25T13:27:27.968Z</time></trkpt><trkpt lat="44.4868233" lon="8.5869967"><ele>553.0</ele><time>2026-04-25T13:27:28.969Z</time></trkpt><trkpt lat="44.48672" lon="8.586955"><ele>553.0</ele><time>2026-04-25T13:27:29.969Z</time></trkpt><trkpt lat="44.4866167" lon="8.5868817"><ele>553.0</ele><time>2026-04-25T13:27:30.968Z</time></trkpt><trkpt lat="44.4865167" lon="8.58679"><ele>553.0</ele><time>2026-04-25T13:27:31.968Z</time></trkpt><trkpt lat="44.4864083" lon="8.5867017"><ele>553.0</ele><time>2026-04-25T13:27:32.969Z</time></trkpt><trkpt lat="44.4863083" lon="8.58666"><ele>551.25</ele><time>2026-04-25T13:27:33.968Z</time></trkpt><trkpt lat="44.4862083" lon="8.58669"><ele>549.5</ele><time>2026-04-25T13:27:34.969Z</time></trkpt><trkpt lat="44.486095" lon="8.58676"><ele>547.75</ele><time>2026-04-25T13:27:35.969Z</time></trkpt><trkpt lat="44.4859583" lon="8.5869"><ele>546.0</ele><time>2026-04-25T13:27:36.968Z</time></trkpt><trkpt lat="44.4858167" lon="8.58707"><ele>546.0</ele><time>2026-04-25T13:27:37.967Z</time></trkpt><trkpt lat="44.485695" lon="8.5872517"><ele>546.0</ele><time>2026-04-25T13:27:38.968Z</time></trkpt><trkpt lat="44.4855783" lon="8.5874567"><ele>546.0</ele><time>2026-04-25T13:27:39.967Z</time></trkpt><trkpt lat="44.485475" lon="8.5876817"><ele>552.6666666666666</ele><time>2026-04-25T13:27:40.967Z</time></trkpt><trkpt lat="44.485385" lon="8.5879433"><ele>559.3333333333333</ele><time>2026-04-25T13:27:41.968Z</time></trkpt><trkpt lat="44.4853167" lon="8.5882017"><ele>566.0</ele><time>2026-04-25T13:27:42.967Z</time></trkpt><trkpt lat="44.4852433" lon="8.588425"><ele>566.0</ele><time>2026-04-25T13:27:43.968Z</time></trkpt><trkpt lat="44.4851967" lon="8.588645"><ele>566.0</ele><time>2026-04-25T13:27:44.967Z</time></trkpt><trkpt lat="44.4851867" lon="8.5888783"><ele>566.0</ele><time>2026-04-25T13:27:45.968Z</time></trkpt><trkpt lat="44.48521" lon="8.5891233"><ele>564.6666666666666</ele><time>2026-04-25T13:27:46.968Z</time></trkpt><trkpt lat="44.48526" lon="8.5893717"><ele>563.3333333333334</ele><time>2026-04-25T13:27:47.968Z</time></trkpt><trkpt lat="44.4853317" lon="8.5896"><ele>562.0</ele><time>2026-04-25T13:27:48.967Z</time></trkpt><trkpt lat="44.4854" lon="8.5898233"><ele>554.25</ele><time>2026-04-25T13:27:49.967Z</time></trkpt><trkpt lat="44.4854683" lon="8.58999"><ele>546.5</ele><time>2026-04-25T13:27:50.967Z</time></trkpt><trkpt lat="44.4855417" lon="8.590125"><ele>538.75</ele><time>2026-04-25T13:27:51.967Z</time></trkpt><trkpt lat="44.4856217" lon="8.5902267"><ele>531.0</ele><time>2026-04-25T13:27:52.968Z</time></trkpt><trkpt lat="44.4857283" lon="8.5903167"><ele>531.25</ele><time>2026-04-25T13:27:53.967Z</time></trkpt><trkpt lat="44.4858683" lon="8.5903933"><ele>531.5</ele><time>2026-04-25T13:27:54.968Z</time></trkpt><trkpt lat="44.4859983" lon="8.5904817"><ele>531.75</ele><time>2026-04-25T13:27:55.968Z</time></trkpt><trkpt lat="44.4861017" lon="8.5905517"><ele>532.0</ele><time>2026-04-25T13:27:56.968Z</time></trkpt><trkpt lat="44.4861683" lon="8.5905967"><ele>532.0</ele><time>2026-04-25T13:27:57.967Z</time></trkpt><trkpt lat="44.486165" lon="8.5906967"><ele>532.0</ele><time>2026-04-25T13:27:59.968Z</time></trkpt><trkpt lat="44.4861217" lon="8.590775"><ele>532.0</ele><time>2026-04-25T13:28:00.968Z</time></trkpt><trkpt lat="44.4860667" lon="8.5908783"><ele>532.0</ele><time>2026-04-25T13:28:01.968Z</time></trkpt><trkpt lat="44.485995" lon="8.5910133"><ele>532.0</ele><time>2026-04-25T13:28:02.968Z</time></trkpt><trkpt lat="44.4859117" lon="8.5911783"><ele>534.75</ele><time>2026-04-25T13:28:03.967Z</time></trkpt><trkpt lat="44.4858417" lon="8.5913567"><ele>537.5</ele><time>2026-04-25T13:28:04.967Z</time></trkpt><trkpt lat="44.4857883" lon="8.5915633"><ele>540.25</ele><time>2026-04-25T13:28:05.968Z</time></trkpt><trkpt lat="44.4857567" lon="8.59175"><ele>543.0</ele><time>2026-04-25T13:28:06.967Z</time></trkpt><trkpt lat="44.4857133" lon="8.5918883"><ele>543.0</ele><time>2026-04-25T13:28:07.968Z</time></trkpt><trkpt lat="44.4856517" lon="8.591985"><ele>543.0</ele><time>2026-04-25T13:28:08.967Z</time></trkpt><trkpt lat="44.485575" lon="8.5920467"><ele>543.0</ele><time>2026-04-25T13:28:09.967Z</time></trkpt><trkpt lat="44.4854717" lon="8.59207"><ele>543.0</ele><time>2026-04-25T13:28:10.967Z</time></trkpt><trkpt lat="44.48533" lon="8.59205"><ele>543.0</ele><time>2026-04-25T13:28:11.968Z</time></trkpt><trkpt lat="44.4851717" lon="8.592045"><ele>548.0</ele><time>2026-04-25T13:28:12.967Z</time></trkpt><trkpt lat="44.4850033" lon="8.5920617"><ele>553.0</ele><time>2026-04-25T13:28:13.967Z</time></trkpt><trkpt lat="44.4847983" lon="8.59209"><ele>558.0</ele><time>2026-04-25T13:28:14.968Z</time></trkpt><trkpt lat="44.484625" lon="8.5921417"><ele>559.3333333333334</ele><time>2026-04-25T13:28:15.967Z</time></trkpt><trkpt lat="44.4844367" lon="8.592175"><ele>560.6666666666667</ele><time>2026-04-25T13:28:16.967Z</time></trkpt><trkpt lat="44.48426" lon="8.5921567"><ele>562.0</ele><time>2026-04-25T13:28:17.968Z</time></trkpt><trkpt lat="44.48409" lon="8.5921033"><ele>562.0</ele><time>2026-04-25T13:28:18.967Z</time></trkpt><trkpt lat="44.483955" lon="8.59204"><ele>562.0</ele><time>2026-04-25T13:28:19.968Z</time></trkpt><trkpt lat="44.4838433" lon="8.592"><ele>562.0</ele><time>2026-04-25T13:28:20.967Z</time></trkpt><trkpt lat="44.483725" lon="8.59202"><ele>562.0</ele><time>2026-04-25T13:28:21.967Z</time></trkpt><trkpt lat="44.4836067" lon="8.5921133"><ele>561.3333333333334</ele><time>2026-04-25T13:28:22.967Z</time></trkpt><trkpt lat="44.4834717" lon="8.5922517"><ele>560.6666666666666</ele><time>2026-04-25T13:28:23.967Z</time></trkpt><trkpt lat="44.48332" lon="8.5923983"><ele>560.0</ele><time>2026-04-25T13:28:24.968Z</time></trkpt><trkpt lat="44.483175" lon="8.5925417"><ele>560.0</ele><time>2026-04-25T13:28:25.967Z</time></trkpt><trkpt lat="44.4830483" lon="8.592645"><ele>560.0</ele><time>2026-04-25T13:28:26.968Z</time></trkpt><trkpt lat="44.4829217" lon="8.5927133"><ele>560.0</ele><time>2026-04-25T13:28:27.967Z</time></trkpt><trkpt lat="44.4828" lon="8.5927483"><ele>560.0</ele><time>2026-04-25T13:28:28.967Z</time></trkpt><trkpt lat="44.4826817" lon="8.5927767"><ele>562.5</ele><time>2026-04-25T13:28:29.967Z</time></trkpt><trkpt lat="44.48256" lon="8.5928067"><ele>565.0</ele><time>2026-04-25T13:28:30.967Z</time></trkpt><trkpt lat="44.4824333" lon="8.5928633"><ele>567.5</ele><time>2026-04-25T13:28:31.967Z</time></trkpt><trkpt lat="44.4823217" lon="8.59298"><ele>570.0</ele><time>2026-04-25T13:28:32.968Z</time></trkpt><trkpt lat="44.4822283" lon="8.5931483"><ele>570.0</ele><time>2026-04-25T13:28:33.967Z</time></trkpt><trkpt lat="44.4821683" lon="8.5933267"><ele>570.0</ele><time>2026-04-25T13:28:34.967Z</time></trkpt><trkpt lat="44.482145" lon="8.5934867"><ele>570.0</ele><time>2026-04-25T13:28:35.967Z</time></trkpt><trkpt lat="44.4821717" lon="8.5936533"><ele>570.0</ele><time>2026-04-25T13:28:36.967Z</time></trkpt><trkpt lat="44.48223" lon="8.5938167"><ele>570.0</ele><time>2026-04-25T13:28:37.967Z</time></trkpt><trkpt lat="44.4823167" lon="8.5939917"><ele>570.0</ele><time>2026-04-25T13:28:38.968Z</time></trkpt><trkpt lat="44.48242" lon="8.594175"><ele>570.0</ele><time>2026-04-25T13:28:39.967Z</time></trkpt><trkpt lat="44.482535" lon="8.594345"><ele>570.0</ele><time>2026-04-25T13:28:40.968Z</time></trkpt><trkpt lat="44.4826317" lon="8.5945233"><ele>570.0</ele><time>2026-04-25T13:28:41.967Z</time></trkpt><trkpt lat="44.4827233" lon="8.5947083"><ele>570.0</ele><time>2026-04-25T13:28:42.968Z</time></trkpt><trkpt lat="44.4827617" lon="8.59491"><ele>570.0</ele><time>2026-04-25T13:28:43.967Z</time></trkpt><trkpt lat="44.4827883" lon="8.59511"><ele>570.0</ele><time>2026-04-25T13:28:44.968Z</time></trkpt><trkpt lat="44.4827667" lon="8.5953083"><ele>570.0</ele><time>2026-04-25T13:28:45.967Z</time></trkpt><trkpt lat="44.48264" lon="8.5955117"><ele>574.6666666666666</ele><time>2026-04-25T13:28:46.967Z</time></trkpt><trkpt lat="44.4824833" lon="8.595675"><ele>579.3333333333333</ele><time>2026-04-25T13:28:47.967Z</time></trkpt><trkpt lat="44.4823217" lon="8.5958267"><ele>584.0</ele><time>2026-04-25T13:28:48.968Z</time></trkpt><trkpt lat="44.4821967" lon="8.5960233"><ele>579.6666666666666</ele><time>2026-04-25T13:28:49.967Z</time></trkpt><trkpt lat="44.48208" lon="8.5962417"><ele>575.3333333333334</ele><time>2026-04-25T13:28:50.967Z</time></trkpt><trkpt lat="44.4819733" lon="8.5965167"><ele>571.0</ele><time>2026-04-25T13:28:51.967Z</time></trkpt><trkpt lat="44.4818833" lon="8.596815"><ele>576.0</ele><time>2026-04-25T13:28:52.967Z</time></trkpt><trkpt lat="44.481795" lon="8.5971117"><ele>581.0</ele><time>2026-04-25T13:28:53.968Z</time></trkpt><trkpt lat="44.4816967" lon="8.5974"><ele>581.0</ele><time>2026-04-25T13:28:54.967Z</time></trkpt><trkpt lat="44.4816067" lon="8.5976817"><ele>581.0</ele><time>2026-04-25T13:28:55.967Z</time></trkpt><trkpt lat="44.4815317" lon="8.5979883"><ele>585.6666666666666</ele><time>2026-04-25T13:28:56.967Z</time></trkpt><trkpt lat="44.4814767" lon="8.598255"><ele>590.3333333333334</ele><time>2026-04-25T13:28:57.968Z</time></trkpt><trkpt lat="44.4814067" lon="8.5984967"><ele>595.0</ele><time>2026-04-25T13:28:58.967Z</time></trkpt><trkpt lat="44.4813033" lon="8.598725"><ele>588.3333333333334</ele><time>2026-04-25T13:28:59.967Z</time></trkpt><trkpt lat="44.481175" lon="8.5989367"><ele>581.6666666666666</ele><time>2026-04-25T13:29:00.968Z</time></trkpt><trkpt lat="44.4810283" lon="8.599165"><ele>575.0</ele><time>2026-04-25T13:29:01.967Z</time></trkpt><trkpt lat="44.4809083" lon="8.599415"><ele>585.3333333333333</ele><time>2026-04-25T13:29:02.967Z</time></trkpt><trkpt lat="44.480785" lon="8.5996517"><ele>595.6666666666666</ele><time>2026-04-25T13:29:03.967Z</time></trkpt><trkpt lat="44.48066" lon="8.5998683"><ele>606.0</ele><time>2026-04-25T13:29:04.968Z</time></trkpt><trkpt lat="44.4805217" lon="8.6000933"><ele>609.3333333333334</ele><time>2026-04-25T13:29:05.968Z</time></trkpt><trkpt lat="44.4803717" lon="8.60029"><ele>612.6666666666667</ele><time>2026-04-25T13:29:06.967Z</time></trkpt><trkpt lat="44.4802117" lon="8.6004533"><ele>616.0</ele><time>2026-04-25T13:29:07.968Z</time></trkpt><trkpt lat="44.48004" lon="8.6005767"><ele>616.0</ele><time>2026-04-25T13:29:08.967Z</time></trkpt><trkpt lat="44.4798467" lon="8.6006483"><ele>616.0</ele><time>2026-04-25T13:29:09.967Z</time></trkpt><trkpt lat="44.47965" lon="8.6006567"><ele>616.0</ele><time>2026-04-25T13:29:10.967Z</time></trkpt><trkpt lat="44.4794683" lon="8.60067"><ele>614.25</ele><time>2026-04-25T13:29:11.968Z</time></trkpt><trkpt lat="44.4793" lon="8.6006817"><ele>612.5</ele><time>2026-04-25T13:29:12.967Z</time></trkpt><trkpt lat="44.47915" lon="8.6007183"><ele>610.75</ele><time>2026-04-25T13:29:13.968Z</time></trkpt><trkpt lat="44.4790233" lon="8.6007383"><ele>609.0</ele><time>2026-04-25T13:29:14.967Z</time></trkpt><trkpt lat="44.4789267" lon="8.6007217"><ele>609.0</ele><time>2026-04-25T13:29:15.967Z</time></trkpt><trkpt lat="44.4788467" lon="8.6006233"><ele>609.0</ele><time>2026-04-25T13:29:16.968Z</time></trkpt><trkpt lat="44.4787433" lon="8.6005417"><ele>609.0</ele><time>2026-04-25T13:29:17.968Z</time></trkpt><trkpt lat="44.4786133" lon="8.6003517"><ele>609.0</ele><time>2026-04-25T13:29:18.968Z</time></trkpt><trkpt lat="44.478475" lon="8.60014"><ele>610.3333333333334</ele><time>2026-04-25T13:29:19.967Z</time></trkpt><trkpt lat="44.47835" lon="8.5999533"><ele>611.6666666666667</ele><time>2026-04-25T13:29:20.968Z</time></trkpt><trkpt lat="44.4782433" lon="8.5997317"><ele>613.0</ele><time>2026-04-25T13:29:21.967Z</time></trkpt><trkpt lat="44.4781467" lon="8.5994683"><ele>601.5</ele><time>2026-04-25T13:29:22.967Z</time></trkpt><trkpt lat="44.4780433" lon="8.5991817"><ele>590.0</ele><time>2026-04-25T13:29:23.967Z</time></trkpt><trkpt lat="44.4779367" lon="8.5988833"><ele>601.0</ele><time>2026-04-25T13:29:24.968Z</time></trkpt><trkpt lat="44.47786" lon="8.5986333"><ele>612.0</ele><time>2026-04-25T13:29:25.967Z</time></trkpt><trkpt lat="44.4777933" lon="8.5984317"><ele>623.0</ele><time>2026-04-25T13:29:26.967Z</time></trkpt><trkpt lat="44.4777067" lon="8.5982717"><ele>623.0</ele><time>2026-04-25T13:29:27.967Z</time></trkpt><trkpt lat="44.4775983" lon="8.5981217"><ele>623.0</ele><time>2026-04-25T13:29:28.967Z</time></trkpt><trkpt lat="44.4774683" lon="8.59797"><ele>623.0</ele><time>2026-04-25T13:29:29.967Z</time></trkpt><trkpt lat="44.477315" lon="8.5978067"><ele>623.6666666666666</ele><time>2026-04-25T13:29:30.967Z</time></trkpt><trkpt lat="44.4771483" lon="8.5976517"><ele>624.3333333333334</ele><time>2026-04-25T13:29:31.968Z</time></trkpt><trkpt lat="44.47698" lon="8.5975017"><ele>625.0</ele><time>2026-04-25T13:29:32.967Z</time></trkpt><trkpt lat="44.4768033" lon="8.5973817"><ele>625.0</ele><time>2026-04-25T13:29:33.968Z</time></trkpt><trkpt lat="44.4766217" lon="8.5972783"><ele>625.0</ele><time>2026-04-25T13:29:34.968Z</time></trkpt><trkpt lat="44.4764333" lon="8.5972033"><ele>625.0</ele><time>2026-04-25T13:29:35.968Z</time></trkpt><trkpt lat="44.476255" lon="8.5971717"><ele>625.3333333333334</ele><time>2026-04-25T13:29:36.968Z</time></trkpt><trkpt lat="44.4760567" lon="8.5971833"><ele>625.6666666666666</ele><time>2026-04-25T13:29:37.967Z</time></trkpt><trkpt lat="44.475855" lon="8.5972533"><ele>626.0</ele><time>2026-04-25T13:29:38.967Z</time></trkpt><trkpt lat="44.47566" lon="8.5973417"><ele>626.0</ele><time>2026-04-25T13:29:39.968Z</time></trkpt><trkpt lat="44.4754683" lon="8.59748"><ele>626.0</ele><time>2026-04-25T13:29:40.967Z</time></trkpt><trkpt lat="44.4752767" lon="8.597655"><ele>626.0</ele><time>2026-04-25T13:29:41.968Z</time></trkpt><trkpt lat="44.4750733" lon="8.5978317"><ele>634.5</ele><time>2026-04-25T13:29:42.968Z</time></trkpt><trkpt lat="44.47486" lon="8.598025"><ele>643.0</ele><time>2026-04-25T13:29:43.967Z</time></trkpt><trkpt lat="44.4746467" lon="8.5982233"><ele>629.0</ele><time>2026-04-25T13:29:44.967Z</time></trkpt><trkpt lat="44.4744467" lon="8.5983983"><ele>615.0</ele><time>2026-04-25T13:29:45.967Z</time></trkpt><trkpt lat="44.47425" lon="8.5985717"><ele>615.6666666666666</ele><time>2026-04-25T13:29:46.967Z</time></trkpt><trkpt lat="44.4740533" lon="8.598705"><ele>616.3333333333333</ele><time>2026-04-25T13:29:47.968Z</time></trkpt><trkpt lat="44.473865" lon="8.5988583"><ele>617.0</ele><time>2026-04-25T13:29:48.968Z</time></trkpt><trkpt lat="44.473685" lon="8.5990233"><ele>617.0</ele><time>2026-04-25T13:29:49.967Z</time></trkpt><trkpt lat="44.4735217" lon="8.5992"><ele>617.0</ele><time>2026-04-25T13:29:50.968Z</time></trkpt><trkpt lat="44.47335" lon="8.5993683"><ele>617.0</ele><time>2026-04-25T13:29:51.967Z</time></trkpt><trkpt lat="44.47319" lon="8.5995333"><ele>619.0</ele><time>2026-04-25T13:29:52.967Z</time></trkpt><trkpt lat="44.473045" lon="8.599665"><ele>621.0</ele><time>2026-04-25T13:29:53.967Z</time></trkpt><trkpt lat="44.4729067" lon="8.59981"><ele>623.0</ele><time>2026-04-25T13:29:54.967Z</time></trkpt><trkpt lat="44.472795" lon="8.5999867"><ele>623.0</ele><time>2026-04-25T13:29:55.967Z</time></trkpt><trkpt lat="44.472685" lon="8.6001767"><ele>623.0</ele><time>2026-04-25T13:29:56.967Z</time></trkpt><trkpt lat="44.4725767" lon="8.6003767"><ele>623.0</ele><time>2026-04-25T13:29:57.968Z</time></trkpt><trkpt lat="44.4724583" lon="8.6005433"><ele>629.6666666666666</ele><time>2026-04-25T13:29:58.967Z</time></trkpt><trkpt lat="44.4723183" lon="8.6007"><ele>636.3333333333334</ele><time>2026-04-25T13:29:59.967Z</time></trkpt><trkpt lat="44.4721617" lon="8.6008067"><ele>643.0</ele><time>2026-04-25T13:30:00.967Z</time></trkpt><trkpt lat="44.4719767" lon="8.6008883"><ele>643.0</ele><time>2026-04-25T13:30:01.968Z</time></trkpt><trkpt lat="44.4717767" lon="8.600955"><ele>643.0</ele><time>2026-04-25T13:30:02.967Z</time></trkpt><trkpt lat="44.4715767" lon="8.6010067"><ele>643.0</ele><time>2026-04-25T13:30:03.968Z</time></trkpt><trkpt lat="44.47137" lon="8.601035"><ele>643.0</ele><time>2026-04-25T13:30:04.967Z</time></trkpt><trkpt lat="44.4711483" lon="8.60101"><ele>643.0</ele><time>2026-04-25T13:30:05.967Z</time></trkpt><trkpt lat="44.4709317" lon="8.6009783"><ele>643.0</ele><time>2026-04-25T13:30:06.968Z</time></trkpt><trkpt lat="44.4707117" lon="8.6009533"><ele>643.0</ele><time>2026-04-25T13:30:07.967Z</time></trkpt><trkpt lat="44.4704967" lon="8.60098"><ele>643.0</ele><time>2026-04-25T13:30:08.968Z</time></trkpt><trkpt lat="44.4702967" lon="8.600995"><ele>643.0</ele><time>2026-04-25T13:30:09.967Z</time></trkpt><trkpt lat="44.4701133" lon="8.6010017"><ele>643.3333333333334</ele><time>2026-04-25T13:30:10.967Z</time></trkpt><trkpt lat="44.469945" lon="8.601"><ele>643.6666666666666</ele><time>2026-04-25T13:30:11.967Z</time></trkpt><trkpt lat="44.4697783" lon="8.600985"><ele>644.0</ele><time>2026-04-25T13:30:12.967Z</time></trkpt><trkpt lat="44.4696083" lon="8.6010067"><ele>640.6666666666666</ele><time>2026-04-25T13:30:13.967Z</time></trkpt><trkpt lat="44.4694683" lon="8.6011117"><ele>637.3333333333334</ele><time>2026-04-25T13:30:14.967Z</time></trkpt><trkpt lat="44.46933" lon="8.6012467"><ele>634.0</ele><time>2026-04-25T13:30:15.967Z</time></trkpt><trkpt lat="44.4691783" lon="8.6013683"><ele>637.0</ele><time>2026-04-25T13:30:16.967Z</time></trkpt><trkpt lat="44.4690233" lon="8.6014767"><ele>640.0</ele><time>2026-04-25T13:30:17.967Z</time></trkpt><trkpt lat="44.46887" lon="8.60157"><ele>643.0</ele><time>2026-04-25T13:30:18.967Z</time></trkpt><trkpt lat="44.4687417" lon="8.6016933"><ele>643.0</ele><time>2026-04-25T13:30:19.968Z</time></trkpt><trkpt lat="44.468635" lon="8.601805"><ele>643.0</ele><time>2026-04-25T13:30:20.968Z</time></trkpt><trkpt lat="44.4685633" lon="8.6019767"><ele>643.0</ele><time>2026-04-25T13:30:21.967Z</time></trkpt><trkpt lat="44.468465" lon="8.6020883"><ele>643.0</ele><time>2026-04-25T13:30:22.968Z</time></trkpt><trkpt lat="44.4683483" lon="8.6021767"><ele>647.0</ele><time>2026-04-25T13:30:23.967Z</time></trkpt><trkpt lat="44.4681917" lon="8.6022317"><ele>651.0</ele><time>2026-04-25T13:30:24.968Z</time></trkpt><trkpt lat="44.4680367" lon="8.6022817"><ele>655.0</ele><time>2026-04-25T13:30:25.968Z</time></trkpt><trkpt lat="44.4678617" lon="8.602345"><ele>655.0</ele><time>2026-04-25T13:30:26.967Z</time></trkpt><trkpt lat="44.467675" lon="8.6024467"><ele>655.0</ele><time>2026-04-25T13:30:27.968Z</time></trkpt><trkpt lat="44.4675083" lon="8.6025833"><ele>655.0</ele><time>2026-04-25T13:30:28.968Z</time></trkpt><trkpt lat="44.467355" lon="8.602735"><ele>653.6666666666667</ele><time>2026-04-25T13:30:29.967Z</time></trkpt><trkpt lat="44.4672033" lon="8.6029017"><ele>652.3333333333334</ele><time>2026-04-25T13:30:30.968Z</time></trkpt><trkpt lat="44.4670533" lon="8.6030567"><ele>651.0</ele><time>2026-04-25T13:30:31.967Z</time></trkpt><trkpt lat="44.4668917" lon="8.6032"><ele>651.0</ele><time>2026-04-25T13:30:32.967Z</time></trkpt><trkpt lat="44.4667583" lon="8.6033117"><ele>651.0</ele><time>2026-04-25T13:30:33.967Z</time></trkpt><trkpt lat="44.4666467" lon="8.6034483"><ele>651.0</ele><time>2026-04-25T13:30:34.967Z</time></trkpt><trkpt lat="44.4665617" lon="8.603615"><ele>661.3333333333334</ele><time>2026-04-25T13:30:35.968Z</time></trkpt><trkpt lat="44.466485" lon="8.603825"><ele>671.6666666666667</ele><time>2026-04-25T13:30:36.967Z</time></trkpt><trkpt lat="44.4664217" lon="8.604065"><ele>682.0</ele><time>2026-04-25T13:30:37.967Z</time></trkpt><trkpt lat="44.4663633" lon="8.6043233"><ele>687.6666666666667</ele><time>2026-04-25T13:30:38.967Z</time></trkpt><trkpt lat="44.4662917" lon="8.6045417"><ele>693.3333333333334</ele><time>2026-04-25T13:30:39.967Z</time></trkpt><trkpt lat="44.4662217" lon="8.6047483"><ele>699.0</ele><time>2026-04-25T13:30:40.967Z</time></trkpt><trkpt lat="44.4661467" lon="8.60496"><ele>693.5</ele><time>2026-04-25T13:30:41.967Z</time></trkpt><trkpt lat="44.4660717" lon="8.6051467"><ele>688.0</ele><time>2026-04-25T13:30:42.967Z</time></trkpt><trkpt lat="44.465995" lon="8.605285"><ele>682.5</ele><time>2026-04-25T13:30:43.967Z</time></trkpt><trkpt lat="44.4659183" lon="8.60537"><ele>677.0</ele><time>2026-04-25T13:30:44.967Z</time></trkpt><trkpt lat="44.4658533" lon="8.6054867"><ele>677.0</ele><time>2026-04-25T13:30:45.968Z</time></trkpt><trkpt lat="44.465815" lon="8.6056083"><ele>677.0</ele><time>2026-04-25T13:30:46.968Z</time></trkpt><trkpt lat="44.46579" lon="8.605765"><ele>677.0</ele><time>2026-04-25T13:30:47.968Z</time></trkpt><trkpt lat="44.4657783" lon="8.6059467"><ele>677.0</ele><time>2026-04-25T13:30:48.967Z</time></trkpt><trkpt lat="44.46574" lon="8.60612"><ele>676.75</ele><time>2026-04-25T13:30:49.968Z</time></trkpt><trkpt lat="44.465715" lon="8.6063033"><ele>676.5</ele><time>2026-04-25T13:30:50.967Z</time></trkpt><trkpt lat="44.46573" lon="8.6064783"><ele>676.25</ele><time>2026-04-25T13:30:51.967Z</time></trkpt><trkpt lat="44.465775" lon="8.60666"><ele>676.0</ele><time>2026-04-25T13:30:52.967Z</time></trkpt><trkpt lat="44.465835" lon="8.60684"><ele>673.6666666666667</ele><time>2026-04-25T13:30:53.967Z</time></trkpt><trkpt lat="44.4658967" lon="8.6070233"><ele>671.3333333333334</ele><time>2026-04-25T13:30:54.968Z</time></trkpt><trkpt lat="44.4659517" lon="8.60723"><ele>669.0</ele><time>2026-04-25T13:30:55.967Z</time></trkpt><trkpt lat="44.465985" lon="8.60744"><ele>669.0</ele><time>2026-04-25T13:30:56.967Z</time></trkpt><trkpt lat="44.4660083" lon="8.6076733"><ele>669.0</ele><time>2026-04-25T13:30:57.968Z</time></trkpt><trkpt lat="44.4660017" lon="8.6079083"><ele>669.0</ele><time>2026-04-25T13:30:58.967Z</time></trkpt><trkpt lat="44.4660017" lon="8.6081267"><ele>669.0</ele><time>2026-04-25T13:30:59.967Z</time></trkpt><trkpt lat="44.4660217" lon="8.6083367"><ele>669.0</ele><time>2026-04-25T13:31:00.967Z</time></trkpt><trkpt lat="44.4660467" lon="8.6085367"><ele>669.0</ele><time>2026-04-25T13:31:01.968Z</time></trkpt><trkpt lat="44.4661117" lon="8.6086967"><ele>669.0</ele><time>2026-04-25T13:31:02.967Z</time></trkpt><trkpt lat="44.466185" lon="8.608865"><ele>671.0</ele><time>2026-04-25T13:31:03.967Z</time></trkpt><trkpt lat="44.4662967" lon="8.6089983"><ele>673.0</ele><time>2026-04-25T13:31:04.968Z</time></trkpt><trkpt lat="44.4664267" lon="8.6091333"><ele>675.0</ele><time>2026-04-25T13:31:05.967Z</time></trkpt><trkpt lat="44.4665633" lon="8.6092833"><ele>675.0</ele><time>2026-04-25T13:31:06.967Z</time></trkpt><trkpt lat="44.4666917" lon="8.6094283"><ele>675.0</ele><time>2026-04-25T13:31:07.967Z</time></trkpt><trkpt lat="44.46682" lon="8.609575"><ele>675.0</ele><time>2026-04-25T13:31:08.967Z</time></trkpt><trkpt lat="44.4669433" lon="8.60972"><ele>673.5</ele><time>2026-04-25T13:31:09.967Z</time></trkpt><trkpt lat="44.467055" lon="8.6098067"><ele>672.0</ele><time>2026-04-25T13:31:10.967Z</time></trkpt><trkpt lat="44.467155" lon="8.6098383"><ele>670.5</ele><time>2026-04-25T13:31:11.968Z</time></trkpt><trkpt lat="44.467265" lon="8.6098217"><ele>669.0</ele><time>2026-04-25T13:31:12.967Z</time></trkpt><trkpt lat="44.467355" lon="8.6097267"><ele>673.5</ele><time>2026-04-25T13:31:13.967Z</time></trkpt><trkpt lat="44.4674133" lon="8.6095883"><ele>678.0</ele><time>2026-04-25T13:31:14.968Z</time></trkpt><trkpt lat="44.467445" lon="8.6094367"><ele>682.5</ele><time>2026-04-25T13:31:15.968Z</time></trkpt><trkpt lat="44.4674383" lon="8.60928"><ele>687.0</ele><time>2026-04-25T13:31:16.968Z</time></trkpt><trkpt lat="44.4673467" lon="8.6091"><ele>690.0</ele><time>2026-04-25T13:31:17.968Z</time></trkpt><trkpt lat="44.46713" lon="8.6089083"><ele>693.0</ele><time>2026-04-25T13:31:18.968Z</time></trkpt><trkpt lat="44.4669767" lon="8.6087217"><ele>690.5</ele><time>2026-04-25T13:31:19.968Z</time></trkpt><trkpt lat="44.4668517" lon="8.6085567"><ele>688.0</ele><time>2026-04-25T13:31:20.967Z</time></trkpt><trkpt lat="44.4667533" lon="8.6084183"><ele>685.5</ele><time>2026-04-25T13:31:21.968Z</time></trkpt><trkpt lat="44.4666783" lon="8.6082767"><ele>683.0</ele><time>2026-04-25T13:31:22.967Z</time></trkpt><trkpt lat="44.466625" lon="8.6081233"><ele>683.0</ele><time>2026-04-25T13:31:23.968Z</time></trkpt><trkpt lat="44.4666633" lon="8.6079783"><ele>683.0</ele><time>2026-04-25T13:31:24.968Z</time></trkpt><trkpt lat="44.466715" lon="8.6078417"><ele>683.0</ele><time>2026-04-25T13:31:25.967Z</time></trkpt><trkpt lat="44.466815" lon="8.6077517"><ele>683.0</ele><time>2026-04-25T13:31:26.967Z</time></trkpt><trkpt lat="44.4669283" lon="8.60768"><ele>684.0</ele><time>2026-04-25T13:31:27.967Z</time></trkpt><trkpt lat="44.4670567" lon="8.6076317"><ele>685.0</ele><time>2026-04-25T13:31:28.967Z</time></trkpt><trkpt lat="44.4672117" lon="8.6076183"><ele>686.0</ele><time>2026-04-25T13:31:29.967Z</time></trkpt><trkpt lat="44.46736" lon="8.6076733"><ele>687.0</ele><time>2026-04-25T13:31:30.968Z</time></trkpt><trkpt lat="44.4674767" lon="8.607845"><ele>690.75</ele><time>2026-04-25T13:31:31.967Z</time></trkpt><trkpt lat="44.4675683" lon="8.6080017"><ele>694.5</ele><time>2026-04-25T13:31:32.967Z</time></trkpt><trkpt lat="44.46762" lon="8.6081667"><ele>698.25</ele><time>2026-04-25T13:31:33.968Z</time></trkpt><trkpt lat="44.467645" lon="8.6083217"><ele>702.0</ele><time>2026-04-25T13:31:34.968Z</time></trkpt><trkpt lat="44.46762" lon="8.608485"><ele>702.0</ele><time>2026-04-25T13:31:35.968Z</time></trkpt><trkpt lat="44.4675717" lon="8.6086217"><ele>702.0</ele><time>2026-04-25T13:31:36.967Z</time></trkpt><trkpt lat="44.467535" lon="8.6087867"><ele>702.0</ele><time>2026-04-25T13:31:37.967Z</time></trkpt><trkpt lat="44.46755" lon="8.6089533"><ele>702.0</ele><time>2026-04-25T13:31:38.967Z</time></trkpt><trkpt lat="44.467595" lon="8.609115"><ele>699.0</ele><time>2026-04-25T13:31:39.967Z</time></trkpt><trkpt lat="44.46767" lon="8.6092717"><ele>696.0</ele><time>2026-04-25T13:31:40.968Z</time></trkpt><trkpt lat="44.4677917" lon="8.6094267"><ele>693.0</ele><time>2026-04-25T13:31:41.968Z</time></trkpt><trkpt lat="44.46794" lon="8.6095817"><ele>700.3333333333334</ele><time>2026-04-25T13:31:42.967Z</time></trkpt><trkpt lat="44.4681117" lon="8.60972"><ele>707.6666666666667</ele><time>2026-04-25T13:31:43.967Z</time></trkpt><trkpt lat="44.46826" lon="8.609845"><ele>715.0</ele><time>2026-04-25T13:31:44.967Z</time></trkpt><trkpt lat="44.4683733" lon="8.6099767"><ele>715.0</ele><time>2026-04-25T13:31:45.967Z</time></trkpt><trkpt lat="44.468435" lon="8.610135"><ele>715.0</ele><time>2026-04-25T13:31:46.967Z</time></trkpt><trkpt lat="44.4684683" lon="8.6103217"><ele>715.0</ele><time>2026-04-25T13:31:47.968Z</time></trkpt><trkpt lat="44.468485" lon="8.61053"><ele>715.0</ele><time>2026-04-25T13:31:48.967Z</time></trkpt><trkpt lat="44.46842" lon="8.610835"><ele>714.0</ele><time>2026-04-25T13:31:49.967Z</time></trkpt><trkpt lat="44.4683783" lon="8.6111017"><ele>713.0</ele><time>2026-04-25T13:31:50.968Z</time></trkpt><trkpt lat="44.46836" lon="8.6112983"><ele>712.0</ele><time>2026-04-25T13:31:51.967Z</time></trkpt><trkpt lat="44.46836" lon="8.6114733"><ele>713.2</ele><time>2026-04-25T13:31:52.967Z</time></trkpt><trkpt lat="44.4684033" lon="8.611605"><ele>714.4000000000001</ele><time>2026-04-25T13:31:53.968Z</time></trkpt><trkpt lat="44.4684783" lon="8.611705"><ele>715.5999999999999</ele><time>2026-04-25T13:31:54.968Z</time></trkpt><trkpt lat="44.468575" lon="8.611765"><ele>716.8</ele><time>2026-04-25T13:31:55.968Z</time></trkpt><trkpt lat="44.4686767" lon="8.61179"><ele>718.0</ele><time>2026-04-25T13:31:56.968Z</time></trkpt><trkpt lat="44.468775" lon="8.6117683"><ele>722.0</ele><time>2026-04-25T13:31:57.967Z</time></trkpt><trkpt lat="44.4688417" lon="8.6115567"><ele>726.0</ele><time>2026-04-25T13:31:58.967Z</time></trkpt><trkpt lat="44.468895" lon="8.6113517"><ele>730.0</ele><time>2026-04-25T13:31:59.967Z</time></trkpt><trkpt lat="44.4689033" lon="8.6111767"><ele>734.0</ele><time>2026-04-25T13:32:00.967Z</time></trkpt><trkpt lat="44.4688833" lon="8.6109733"><ele>734.25</ele><time>2026-04-25T13:32:01.968Z</time></trkpt><trkpt lat="44.4688533" lon="8.6107617"><ele>734.5</ele><time>2026-04-25T13:32:02.968Z</time></trkpt><trkpt lat="44.4688267" lon="8.6105433"><ele>734.75</ele><time>2026-04-25T13:32:03.967Z</time></trkpt><trkpt lat="44.4688483" lon="8.6103833"><ele>735.0</ele><time>2026-04-25T13:32:04.968Z</time></trkpt><trkpt lat="44.4689167" lon="8.610265"><ele>735.0</ele><time>2026-04-25T13:32:05.968Z</time></trkpt><trkpt lat="44.469" lon="8.6102167"><ele>735.0</ele><time>2026-04-25T13:32:06.967Z</time></trkpt><trkpt lat="44.4690983" lon="8.6102133"><ele>735.0</ele><time>2026-04-25T13:32:07.968Z</time></trkpt><trkpt lat="44.46921" lon="8.6102617"><ele>735.0</ele><time>2026-04-25T13:32:08.967Z</time></trkpt><trkpt lat="44.4692817" lon="8.6104333"><ele>735.0</ele><time>2026-04-25T13:32:09.967Z</time></trkpt><trkpt lat="44.4693217" lon="8.61064"><ele>735.0</ele><time>2026-04-25T13:32:10.968Z</time></trkpt><trkpt lat="44.46937" lon="8.6108667"><ele>735.0</ele><time>2026-04-25T13:32:11.967Z</time></trkpt><trkpt lat="44.4694233" lon="8.61111"><ele>735.0</ele><time>2026-04-25T13:32:12.967Z</time></trkpt><trkpt lat="44.46948" lon="8.6113617"><ele>734.6666666666666</ele><time>2026-04-25T13:32:13.967Z</time></trkpt><trkpt lat="44.46956" lon="8.611615"><ele>734.3333333333333</ele><time>2026-04-25T13:32:14.967Z</time></trkpt><trkpt lat="44.4696233" lon="8.6118933"><ele>734.0</ele><time>2026-04-25T13:32:15.967Z</time></trkpt><trkpt lat="44.4697" lon="8.6121733"><ele>739.3333333333333</ele><time>2026-04-25T13:32:16.967Z</time></trkpt><trkpt lat="44.4697717" lon="8.6124567"><ele>744.6666666666666</ele><time>2026-04-25T13:32:17.967Z</time></trkpt><trkpt lat="44.469855" lon="8.61273"><ele>750.0</ele><time>2026-04-25T13:32:18.967Z</time></trkpt><trkpt lat="44.4699433" lon="8.61299"><ele>750.0</ele><time>2026-04-25T13:32:19.967Z</time></trkpt><trkpt lat="44.47003" lon="8.6131817"><ele>750.0</ele><time>2026-04-25T13:32:20.968Z</time></trkpt><trkpt lat="44.4701167" lon="8.6133667"><ele>750.0</ele><time>2026-04-25T13:32:21.967Z</time></trkpt><trkpt lat="44.4702217" lon="8.61353"><ele>752.2</ele><time>2026-04-25T13:32:22.968Z</time></trkpt><trkpt lat="44.4703183" lon="8.6136667"><ele>754.4</ele><time>2026-04-25T13:32:23.967Z</time></trkpt><trkpt lat="44.470365" lon="8.6137933"><ele>756.5999999999999</ele><time>2026-04-25T13:32:24.968Z</time></trkpt><trkpt lat="44.4703483" lon="8.6139317"><ele>758.8</ele><time>2026-04-25T13:32:25.968Z</time></trkpt><trkpt lat="44.47031" lon="8.614075"><ele>761.0</ele><time>2026-04-25T13:32:26.968Z</time></trkpt><trkpt lat="44.4702567" lon="8.6142"><ele>761.0</ele><time>2026-04-25T13:32:27.968Z</time></trkpt><trkpt lat="44.4702" lon="8.6143433"><ele>761.0</ele><time>2026-04-25T13:32:28.967Z</time></trkpt><trkpt lat="44.47012" lon="8.6144583"><ele>761.0</ele><time>2026-04-25T13:32:29.968Z</time></trkpt><trkpt lat="44.47" lon="8.6145867"><ele>761.0</ele><time>2026-04-25T13:32:30.967Z</time></trkpt><trkpt lat="44.469835" lon="8.6147067"><ele>766.0</ele><time>2026-04-25T13:32:31.967Z</time></trkpt><trkpt lat="44.4696233" lon="8.6148783"><ele>771.0</ele><time>2026-04-25T13:32:32.967Z</time></trkpt><trkpt lat="44.4694533" lon="8.61501"><ele>776.0</ele><time>2026-04-25T13:32:33.968Z</time></trkpt><trkpt lat="44.4692633" lon="8.6151183"><ele>776.0</ele><time>2026-04-25T13:32:34.967Z</time></trkpt><trkpt lat="44.46907" lon="8.6152083"><ele>776.0</ele><time>2026-04-25T13:32:35.968Z</time></trkpt><trkpt lat="44.4688867" lon="8.615285"><ele>776.0</ele><time>2026-04-25T13:32:36.967Z</time></trkpt><trkpt lat="44.4686833" lon="8.6153183"><ele>773.75</ele><time>2026-04-25T13:32:37.967Z</time></trkpt><trkpt lat="44.46856" lon="8.6153967"><ele>771.5</ele><time>2026-04-25T13:32:38.967Z</time></trkpt><trkpt lat="44.4685783" lon="8.6155717"><ele>769.25</ele><time>2026-04-25T13:32:39.967Z</time></trkpt><trkpt lat="44.4685967" lon="8.615775"><ele>767.0</ele><time>2026-04-25T13:32:40.968Z</time></trkpt><trkpt lat="44.4686233" lon="8.6160167"><ele>764.6666666666666</ele><time>2026-04-25T13:32:41.968Z</time></trkpt><trkpt lat="44.4686917" lon="8.616265"><ele>762.3333333333334</ele><time>2026-04-25T13:32:42.967Z</time></trkpt><trkpt lat="44.468775" lon="8.616515"><ele>760.0</ele><time>2026-04-25T13:32:43.968Z</time></trkpt><trkpt lat="44.46887" lon="8.6167167"><ele>766.0</ele><time>2026-04-25T13:32:44.967Z</time></trkpt><trkpt lat="44.4689683" lon="8.61691"><ele>772.0</ele><time>2026-04-25T13:32:45.967Z</time></trkpt><trkpt lat="44.4690967" lon="8.6170633"><ele>778.0</ele><time>2026-04-25T13:32:46.967Z</time></trkpt><trkpt lat="44.4692383" lon="8.6172"><ele>778.0</ele><time>2026-04-25T13:32:47.967Z</time></trkpt><trkpt lat="44.4693433" lon="8.6173167"><ele>778.0</ele><time>2026-04-25T13:32:48.968Z</time></trkpt><trkpt lat="44.469425" lon="8.617445"><ele>778.0</ele><time>2026-04-25T13:32:49.967Z</time></trkpt><trkpt lat="44.469465" lon="8.6175933"><ele>778.0</ele><time>2026-04-25T13:32:50.967Z</time></trkpt><trkpt lat="44.4694633" lon="8.6177717"><ele>779.3333333333333</ele><time>2026-04-25T13:32:51.967Z</time></trkpt><trkpt lat="44.469445" lon="8.6179717"><ele>780.6666666666667</ele><time>2026-04-25T13:32:52.967Z</time></trkpt><trkpt lat="44.4694067" lon="8.6182317"><ele>782.0</ele><time>2026-04-25T13:32:53.967Z</time></trkpt><trkpt lat="44.4693317" lon="8.6185417"><ele>784.5</ele><time>2026-04-25T13:32:54.968Z</time></trkpt><trkpt lat="44.4692367" lon="8.61893"><ele>787.0</ele><time>2026-04-25T13:32:55.967Z</time></trkpt><trkpt lat="44.4692017" lon="8.6192367"><ele>788.3333333333333</ele><time>2026-04-25T13:32:56.968Z</time></trkpt><trkpt lat="44.46915" lon="8.6194967"><ele>789.6666666666667</ele><time>2026-04-25T13:32:57.967Z</time></trkpt><trkpt lat="44.469075" lon="8.6197017"><ele>791.0</ele><time>2026-04-25T13:32:58.967Z</time></trkpt><trkpt lat="44.4689933" lon="8.6198783"><ele>791.0</ele><time>2026-04-25T13:32:59.967Z</time></trkpt><trkpt lat="44.4689383" lon="8.6200567"><ele>791.0</ele><time>2026-04-25T13:33:00.968Z</time></trkpt><trkpt lat="44.468885" lon="8.62025"><ele>791.0</ele><time>2026-04-25T13:33:01.967Z</time></trkpt><trkpt lat="44.4688817" lon="8.6203817"><ele>791.0</ele><time>2026-04-25T13:33:02.967Z</time></trkpt><trkpt lat="44.4689083" lon="8.6204967"><ele>790.4</ele><time>2026-04-25T13:33:04.967Z</time></trkpt><trkpt lat="44.4689317" lon="8.6206117"><ele>789.8</ele><time>2026-04-25T13:33:08.966Z</time></trkpt><trkpt lat="44.4689583" lon="8.62071"><ele>789.1999999999999</ele><time>2026-04-25T13:33:10.967Z</time></trkpt><trkpt lat="44.4689917" lon="8.6208967"><ele>788.5999999999999</ele><time>2026-04-25T13:33:12.966Z</time></trkpt><trkpt lat="44.4690083" lon="8.621025"><ele>788.0</ele><time>2026-04-25T13:33:13.966Z</time></trkpt><trkpt lat="44.4690417" lon="8.621165"><ele>787.25</ele><time>2026-04-25T13:33:14.967Z</time></trkpt><trkpt lat="44.4690817" lon="8.62131"><ele>786.5</ele><time>2026-04-25T13:33:15.967Z</time></trkpt><trkpt lat="44.4691467" lon="8.62145"><ele>785.75</ele><time>2026-04-25T13:33:16.966Z</time></trkpt><trkpt lat="44.4692267" lon="8.6215783"><ele>785.0</ele><time>2026-04-25T13:33:17.967Z</time></trkpt><trkpt lat="44.4693367" lon="8.621685"><ele>785.0</ele><time>2026-04-25T13:33:18.967Z</time></trkpt><trkpt lat="44.4694433" lon="8.6218033"><ele>785.0</ele><time>2026-04-25T13:33:19.966Z</time></trkpt><trkpt lat="44.469515" lon="8.6219633"><ele>785.0</ele><time>2026-04-25T13:33:20.967Z</time></trkpt><trkpt lat="44.4695483" lon="8.6221567"><ele>785.0</ele><time>2026-04-25T13:33:21.966Z</time></trkpt><trkpt lat="44.46956" lon="8.6223717"><ele>784.6666666666667</ele><time>2026-04-25T13:33:22.967Z</time></trkpt><trkpt lat="44.4695333" lon="8.622605"><ele>784.3333333333333</ele><time>2026-04-25T13:33:23.966Z</time></trkpt><trkpt lat="44.4694583" lon="8.6228583"><ele>784.0</ele><time>2026-04-25T13:33:24.966Z</time></trkpt><trkpt lat="44.4693867" lon="8.623115"><ele>785.6666666666666</ele><time>2026-04-25T13:33:25.966Z</time></trkpt><trkpt lat="44.4693283" lon="8.6233317"><ele>787.3333333333333</ele><time>2026-04-25T13:33:26.966Z</time></trkpt><trkpt lat="44.4693433" lon="8.6235667"><ele>789.0</ele><time>2026-04-25T13:33:27.967Z</time></trkpt><trkpt lat="44.46937" lon="8.6238017"><ele>789.3333333333333</ele><time>2026-04-25T13:33:28.966Z</time></trkpt><trkpt lat="44.4694083" lon="8.6240283"><ele>789.6666666666666</ele><time>2026-04-25T13:33:29.966Z</time></trkpt><trkpt lat="44.4694" lon="8.62429"><ele>790.0</ele><time>2026-04-25T13:33:30.966Z</time></trkpt><trkpt lat="44.469375" lon="8.6245633"><ele>791.0</ele><time>2026-04-25T13:33:31.967Z</time></trkpt><trkpt lat="44.4693583" lon="8.6248333"><ele>792.0</ele><time>2026-04-25T13:33:32.967Z</time></trkpt><trkpt lat="44.4693367" lon="8.625125"><ele>793.0</ele><time>2026-04-25T13:33:33.967Z</time></trkpt><trkpt lat="44.4693267" lon="8.6254217"><ele>793.0</ele><time>2026-04-25T13:33:34.967Z</time></trkpt><trkpt lat="44.4693033" lon="8.6257217"><ele>793.0</ele><time>2026-04-25T13:33:35.966Z</time></trkpt><trkpt lat="44.46928" lon="8.625975"><ele>793.0</ele><time>2026-04-25T13:33:36.966Z</time></trkpt><trkpt lat="44.4692567" lon="8.6261817"><ele>793.25</ele><time>2026-04-25T13:33:37.966Z</time></trkpt><trkpt lat="44.4692333" lon="8.6263767"><ele>793.5</ele><time>2026-04-25T13:33:38.967Z</time></trkpt><trkpt lat="44.4691917" lon="8.6265517"><ele>793.75</ele><time>2026-04-25T13:33:39.967Z</time></trkpt><trkpt lat="44.4691433" lon="8.6267083"><ele>794.0</ele><time>2026-04-25T13:33:40.967Z</time></trkpt><trkpt lat="44.4691033" lon="8.6268583"><ele>795.5</ele><time>2026-04-25T13:33:41.966Z</time></trkpt><trkpt lat="44.4690667" lon="8.6270033"><ele>797.0</ele><time>2026-04-25T13:33:42.966Z</time></trkpt><trkpt lat="44.4690267" lon="8.6271783"><ele>798.5</ele><time>2026-04-25T13:33:43.966Z</time></trkpt><trkpt lat="44.4689617" lon="8.627365"><ele>800.0</ele><time>2026-04-25T13:33:44.966Z</time></trkpt><trkpt lat="44.468895" lon="8.6275717"><ele>800.0</ele><time>2026-04-25T13:33:45.967Z</time></trkpt><trkpt lat="44.468815" lon="8.627805"><ele>800.0</ele><time>2026-04-25T13:33:46.966Z</time></trkpt><trkpt lat="44.4687517" lon="8.6280433"><ele>800.0</ele><time>2026-04-25T13:33:47.967Z</time></trkpt><trkpt lat="44.468695" lon="8.6282733"><ele>800.25</ele><time>2026-04-25T13:33:48.967Z</time></trkpt><trkpt lat="44.468635" lon="8.6284717"><ele>800.5</ele><time>2026-04-25T13:33:49.966Z</time></trkpt><trkpt lat="44.46857" lon="8.62864"><ele>800.75</ele><time>2026-04-25T13:33:50.967Z</time></trkpt><trkpt lat="44.4684917" lon="8.6287833"><ele>801.0</ele><time>2026-04-25T13:33:51.967Z</time></trkpt><trkpt lat="44.4683883" lon="8.6288783"><ele>802.1999999999999</ele><time>2026-04-25T13:33:52.966Z</time></trkpt><trkpt lat="44.46827" lon="8.62894"><ele>803.4</ele><time>2026-04-25T13:33:53.966Z</time></trkpt><trkpt lat="44.4681717" lon="8.6289783"><ele>804.6</ele><time>2026-04-25T13:33:54.966Z</time></trkpt><trkpt lat="44.4681083" lon="8.62905"><ele>805.8</ele><time>2026-04-25T13:33:55.966Z</time></trkpt><trkpt lat="44.4681083" lon="8.62921"><ele>807.0</ele><time>2026-04-25T13:33:57.967Z</time></trkpt><trkpt lat="44.468155" lon="8.6293017"><ele>807.0</ele><time>2026-04-25T13:33:58.966Z</time></trkpt><trkpt lat="44.4682217" lon="8.6293783"><ele>807.0</ele><time>2026-04-25T13:33:59.966Z</time></trkpt><trkpt lat="44.468285" lon="8.629435"><ele>807.0</ele><time>2026-04-25T13:34:00.966Z</time></trkpt><trkpt lat="44.4683767" lon="8.6294833"><ele>807.0</ele><time>2026-04-25T13:34:01.967Z</time></trkpt><trkpt lat="44.4684783" lon="8.6294717"><ele>807.0</ele><time>2026-04-25T13:34:02.967Z</time></trkpt><trkpt lat="44.4686" lon="8.6294133"><ele>807.0</ele><time>2026-04-25T13:34:03.966Z</time></trkpt><trkpt lat="44.468715" lon="8.6292883"><ele>807.0</ele><time>2026-04-25T13:34:04.966Z</time></trkpt><trkpt lat="44.4688283" lon="8.6291467"><ele>807.0</ele><time>2026-04-25T13:34:05.966Z</time></trkpt><trkpt lat="44.468945" lon="8.6290367"><ele>807.0</ele><time>2026-04-25T13:34:06.966Z</time></trkpt><trkpt lat="44.4690583" lon="8.628955"><ele>807.25</ele><time>2026-04-25T13:34:07.966Z</time></trkpt><trkpt lat="44.4691633" lon="8.6288633"><ele>807.5</ele><time>2026-04-25T13:34:08.966Z</time></trkpt><trkpt lat="44.46927" lon="8.6287867"><ele>807.75</ele><time>2026-04-25T13:34:09.966Z</time></trkpt><trkpt lat="44.469365" lon="8.6286733"><ele>808.0</ele><time>2026-04-25T13:34:10.966Z</time></trkpt><trkpt lat="44.4694633" lon="8.6285433"><ele>808.0</ele><time>2026-04-25T13:34:11.966Z</time></trkpt><trkpt lat="44.4695517" lon="8.6284117"><ele>808.0</ele><time>2026-04-25T13:34:12.967Z</time></trkpt><trkpt lat="44.4696383" lon="8.628285"><ele>808.0</ele><time>2026-04-25T13:34:13.966Z</time></trkpt><trkpt lat="44.4697067" lon="8.6281667"><ele>808.0</ele><time>2026-04-25T13:34:14.966Z</time></trkpt><trkpt lat="44.4697717" lon="8.6280567"><ele>808.8333333333333</ele><time>2026-04-25T13:34:15.967Z</time></trkpt><trkpt lat="44.469825" lon="8.62796"><ele>809.6666666666666</ele><time>2026-04-25T13:34:16.966Z</time></trkpt><trkpt lat="44.46988" lon="8.62788"><ele>810.5</ele><time>2026-04-25T13:34:17.966Z</time></trkpt><trkpt lat="44.46993" lon="8.6278133"><ele>811.3333333333333</ele><time>2026-04-25T13:34:18.966Z</time></trkpt><trkpt lat="44.469985" lon="8.6277633"><ele>812.1666666666666</ele><time>2026-04-25T13:34:19.967Z</time></trkpt><trkpt lat="44.4700883" lon="8.6277217"><ele>813.0</ele><time>2026-04-25T13:34:21.966Z</time></trkpt><trkpt lat="44.4701867" lon="8.6278283"><ele>814.2</ele><time>2026-04-25T13:34:23.967Z</time></trkpt><trkpt lat="44.4702117" lon="8.627935"><ele>815.4</ele><time>2026-04-25T13:34:24.966Z</time></trkpt><trkpt lat="44.4701917" lon="8.62805"><ele>816.6</ele><time>2026-04-25T13:34:25.966Z</time></trkpt><trkpt lat="44.470145" lon="8.62818"><ele>817.8000000000001</ele><time>2026-04-25T13:34:26.966Z</time></trkpt><trkpt lat="44.4700883" lon="8.6282933"><ele>819.0</ele><time>2026-04-25T13:34:27.967Z</time></trkpt><trkpt lat="44.47002" lon="8.6283967"><ele>819.0</ele><time>2026-04-25T13:34:28.967Z</time></trkpt><trkpt lat="44.4699633" lon="8.6284867"><ele>819.0</ele><time>2026-04-25T13:34:29.966Z</time></trkpt><trkpt lat="44.4699067" lon="8.6285717"><ele>819.0</ele><time>2026-04-25T13:34:30.967Z</time></trkpt><trkpt lat="44.46985" lon="8.6286667"><ele>819.0</ele><time>2026-04-25T13:34:31.966Z</time></trkpt><trkpt lat="44.4698083" lon="8.6287783"><ele>819.0</ele><time>2026-04-25T13:34:32.966Z</time></trkpt><trkpt lat="44.4697667" lon="8.628915"><ele>821.75</ele><time>2026-04-25T13:34:33.966Z</time></trkpt><trkpt lat="44.469735" lon="8.6290567"><ele>824.5</ele><time>2026-04-25T13:34:34.966Z</time></trkpt><trkpt lat="44.4696933" lon="8.6292183"><ele>827.25</ele><time>2026-04-25T13:34:35.966Z</time></trkpt><trkpt lat="44.4696533" lon="8.6293817"><ele>830.0</ele><time>2026-04-25T13:34:36.967Z</time></trkpt><trkpt lat="44.4696217" lon="8.62955"><ele>828.6666666666667</ele><time>2026-04-25T13:34:37.966Z</time></trkpt><trkpt lat="44.4695933" lon="8.6297283"><ele>827.3333333333333</ele><time>2026-04-25T13:34:38.967Z</time></trkpt><trkpt lat="44.4695617" lon="8.6299433"><ele>826.0</ele><time>2026-04-25T13:34:39.966Z</time></trkpt><trkpt lat="44.4695183" lon="8.63017"><ele>829.3333333333333</ele><time>2026-04-25T13:34:40.966Z</time></trkpt><trkpt lat="44.4694583" lon="8.6304133"><ele>832.6666666666667</ele><time>2026-04-25T13:34:41.966Z</time></trkpt><trkpt lat="44.4693883" lon="8.63063"><ele>836.0</ele><time>2026-04-25T13:34:42.966Z</time></trkpt><trkpt lat="44.4692917" lon="8.6308383"><ele>836.0</ele><time>2026-04-25T13:34:43.966Z</time></trkpt><trkpt lat="44.469195" lon="8.63103"><ele>836.0</ele><time>2026-04-25T13:34:44.966Z</time></trkpt><trkpt lat="44.4690733" lon="8.6312117"><ele>836.0</ele><time>2026-04-25T13:34:45.966Z</time></trkpt><trkpt lat="44.4689617" lon="8.6313633"><ele>837.5999999999999</ele><time>2026-04-25T13:34:46.966Z</time></trkpt><trkpt lat="44.4688633" lon="8.6315067"><ele>839.2</ele><time>2026-04-25T13:34:47.966Z</time></trkpt><trkpt lat="44.46877" lon="8.6316"><ele>840.8</ele><time>2026-04-25T13:34:48.966Z</time></trkpt><trkpt lat="44.468685" lon="8.6316583"><ele>842.4000000000001</ele><time>2026-04-25T13:34:49.966Z</time></trkpt><trkpt lat="44.4686067" lon="8.6316617"><ele>844.0</ele><time>2026-04-25T13:34:50.966Z</time></trkpt><trkpt lat="44.4685133" lon="8.631635"><ele>844.0</ele><time>2026-04-25T13:34:51.967Z</time></trkpt><trkpt lat="44.468405" lon="8.6315833"><ele>844.0</ele><time>2026-04-25T13:34:52.967Z</time></trkpt><trkpt lat="44.4682517" lon="8.6315067"><ele>844.0</ele><time>2026-04-25T13:34:53.966Z</time></trkpt><trkpt lat="44.4680783" lon="8.6314233"><ele>848.0</ele><time>2026-04-25T13:34:54.966Z</time></trkpt><trkpt lat="44.4678917" lon="8.63134"><ele>852.0</ele><time>2026-04-25T13:34:55.966Z</time></trkpt><trkpt lat="44.4676967" lon="8.6312617"><ele>856.0</ele><time>2026-04-25T13:34:56.966Z</time></trkpt><trkpt lat="44.4674967" lon="8.6311783"><ele>849.75</ele><time>2026-04-25T13:34:57.966Z</time></trkpt><trkpt lat="44.4673267" lon="8.6310983"><ele>843.5</ele><time>2026-04-25T13:34:58.967Z</time></trkpt><trkpt lat="44.4671883" lon="8.6310483"><ele>837.25</ele><time>2026-04-25T13:34:59.967Z</time></trkpt><trkpt lat="44.4670867" lon="8.6310183"><ele>831.0</ele><time>2026-04-25T13:35:00.966Z</time></trkpt><trkpt lat="44.4669917" lon="8.631055"><ele>836.5</ele><time>2026-04-25T13:35:01.966Z</time></trkpt><trkpt lat="44.4669033" lon="8.6311483"><ele>842.0</ele><time>2026-04-25T13:35:02.967Z</time></trkpt><trkpt lat="44.4668083" lon="8.6312867"><ele>847.5</ele><time>2026-04-25T13:35:03.966Z</time></trkpt><trkpt lat="44.4666917" lon="8.6314667"><ele>853.0</ele><time>2026-04-25T13:35:04.967Z</time></trkpt><trkpt lat="44.4665567" lon="8.6316617"><ele>853.0</ele><time>2026-04-25T13:35:05.966Z</time></trkpt><trkpt lat="44.46642" lon="8.631825"><ele>853.0</ele><time>2026-04-25T13:35:06.966Z</time></trkpt><trkpt lat="44.4663083" lon="8.63198"><ele>853.0</ele><time>2026-04-25T13:35:07.966Z</time></trkpt><trkpt lat="44.46623" lon="8.632135"><ele>853.6666666666666</ele><time>2026-04-25T13:35:08.967Z</time></trkpt><trkpt lat="44.4661617" lon="8.6323"><ele>854.3333333333333</ele><time>2026-04-25T13:35:09.967Z</time></trkpt><trkpt lat="44.4661217" lon="8.63251"><ele>855.0</ele><time>2026-04-25T13:35:10.966Z</time></trkpt><trkpt lat="44.4661033" lon="8.63276"><ele>860.3333333333333</ele><time>2026-04-25T13:35:11.966Z</time></trkpt><trkpt lat="44.4660783" lon="8.63299"><ele>865.6666666666666</ele><time>2026-04-25T13:35:12.966Z</time></trkpt><trkpt lat="44.4660367" lon="8.633195"><ele>871.0</ele><time>2026-04-25T13:35:13.967Z</time></trkpt><trkpt lat="44.4659717" lon="8.6333817"><ele>871.0</ele><time>2026-04-25T13:35:14.966Z</time></trkpt><trkpt lat="44.4658867" lon="8.6335517"><ele>871.0</ele><time>2026-04-25T13:35:15.967Z</time></trkpt><trkpt lat="44.4657967" lon="8.633675"><ele>871.0</ele><time>2026-04-25T13:35:16.966Z</time></trkpt><trkpt lat="44.465725" lon="8.6337483"><ele>871.0</ele><time>2026-04-25T13:35:17.966Z</time></trkpt><trkpt lat="44.4656333" lon="8.633735"><ele>871.0</ele><time>2026-04-25T13:35:18.966Z</time></trkpt><trkpt lat="44.46555" lon="8.63365"><ele>870.9999999999999</ele><time>2026-04-25T13:35:19.966Z</time></trkpt><trkpt lat="44.4654983" lon="8.63352"><ele>870.9999999999999</ele><time>2026-04-25T13:35:20.967Z</time></trkpt><trkpt lat="44.4654683" lon="8.6333533"><ele>871.0</ele><time>2026-04-25T13:35:21.966Z</time></trkpt><trkpt lat="44.46542" lon="8.6332067"><ele>871.0</ele><time>2026-04-25T13:35:22.966Z</time></trkpt><trkpt lat="44.4653433" lon="8.6330883"><ele>873.5</ele><time>2026-04-25T13:35:23.967Z</time></trkpt><trkpt lat="44.4652333" lon="8.633005"><ele>876.0</ele><time>2026-04-25T13:35:24.966Z</time></trkpt><trkpt lat="44.4650967" lon="8.6329417"><ele>878.5</ele><time>2026-04-25T13:35:25.966Z</time></trkpt><trkpt lat="44.4649467" lon="8.6329183"><ele>881.0</ele><time>2026-04-25T13:35:26.967Z</time></trkpt><trkpt lat="44.4648133" lon="8.63292"><ele>881.0</ele><time>2026-04-25T13:35:27.966Z</time></trkpt><trkpt lat="44.4646917" lon="8.6329817"><ele>881.0</ele><time>2026-04-25T13:35:28.966Z</time></trkpt><trkpt lat="44.4645983" lon="8.6330867"><ele>881.0</ele><time>2026-04-25T13:35:29.966Z</time></trkpt><trkpt lat="44.4645133" lon="8.6332367"><ele>881.0</ele><time>2026-04-25T13:35:30.966Z</time></trkpt><trkpt lat="44.4644483" lon="8.6334283"><ele>879.75</ele><time>2026-04-25T13:35:31.966Z</time></trkpt><trkpt lat="44.46437" lon="8.6336117"><ele>878.5</ele><time>2026-04-25T13:35:32.966Z</time></trkpt><trkpt lat="44.4642783" lon="8.6337567"><ele>877.25</ele><time>2026-04-25T13:35:33.967Z</time></trkpt><trkpt lat="44.4641633" lon="8.6338517"><ele>876.0</ele><time>2026-04-25T13:35:34.966Z</time></trkpt><trkpt lat="44.4640167" lon="8.6338983"><ele>878.6666666666667</ele><time>2026-04-25T13:35:35.967Z</time></trkpt><trkpt lat="44.46385" lon="8.6339333"><ele>881.3333333333334</ele><time>2026-04-25T13:35:36.966Z</time></trkpt><trkpt lat="44.4637217" lon="8.634035"><ele>884.0</ele><time>2026-04-25T13:35:37.966Z</time></trkpt><trkpt lat="44.4636117" lon="8.6341817"><ele>884.0</ele><time>2026-04-25T13:35:38.966Z</time></trkpt><trkpt lat="44.4634933" lon="8.63437"><ele>884.0</ele><time>2026-04-25T13:35:39.967Z</time></trkpt><trkpt lat="44.4633833" lon="8.6345517"><ele>884.0</ele><time>2026-04-25T13:35:40.966Z</time></trkpt><trkpt lat="44.4632667" lon="8.63471"><ele>890.3333333333334</ele><time>2026-04-25T13:35:41.966Z</time></trkpt><trkpt lat="44.4631267" lon="8.6347917"><ele>896.6666666666667</ele><time>2026-04-25T13:35:42.966Z</time></trkpt><trkpt lat="44.462945" lon="8.6348267"><ele>903.0</ele><time>2026-04-25T13:35:43.966Z</time></trkpt><trkpt lat="44.4627633" lon="8.63487"><ele>903.0</ele><time>2026-04-25T13:35:44.967Z</time></trkpt><trkpt lat="44.4625417" lon="8.63489"><ele>903.0</ele><time>2026-04-25T13:35:45.967Z</time></trkpt><trkpt lat="44.46236" lon="8.6349517"><ele>903.0</ele><time>2026-04-25T13:35:46.966Z</time></trkpt><trkpt lat="44.4621983" lon="8.6350283"><ele>905.25</ele><time>2026-04-25T13:35:47.967Z</time></trkpt><trkpt lat="44.4620633" lon="8.63511"><ele>907.5</ele><time>2026-04-25T13:35:48.967Z</time></trkpt><trkpt lat="44.461945" lon="8.6352067"><ele>909.75</ele><time>2026-04-25T13:35:49.966Z</time></trkpt><trkpt lat="44.461835" lon="8.6353333"><ele>912.0</ele><time>2026-04-25T13:35:50.967Z</time></trkpt><trkpt lat="44.4617533" lon="8.6354883"><ele>912.0</ele><time>2026-04-25T13:35:51.966Z</time></trkpt><trkpt lat="44.4616667" lon="8.6356283"><ele>912.0</ele><time>2026-04-25T13:35:52.967Z</time></trkpt><trkpt lat="44.461585" lon="8.635755"><ele>912.0</ele><time>2026-04-25T13:35:53.967Z</time></trkpt><trkpt lat="44.4614917" lon="8.6358483"><ele>912.0</ele><time>2026-04-25T13:35:54.966Z</time></trkpt><trkpt lat="44.4613683" lon="8.6358983"><ele>912.0</ele><time>2026-04-25T13:35:55.967Z</time></trkpt><trkpt lat="44.4612117" lon="8.6359083"><ele>912.0</ele><time>2026-04-25T13:35:56.967Z</time></trkpt><trkpt lat="44.46103" lon="8.6359233"><ele>912.0</ele><time>2026-04-25T13:35:57.967Z</time></trkpt><trkpt lat="44.4608567" lon="8.635975"><ele>912.0</ele><time>2026-04-25T13:35:58.966Z</time></trkpt><trkpt lat="44.4607133" lon="8.6360067"><ele>912.0</ele><time>2026-04-25T13:35:59.967Z</time></trkpt><trkpt lat="44.4605933" lon="8.63602"><ele>912.0</ele><time>2026-04-25T13:36:00.966Z</time></trkpt><trkpt lat="44.4604967" lon="8.6359433"><ele>912.0</ele><time>2026-04-25T13:36:01.967Z</time></trkpt><trkpt lat="44.4604183" lon="8.6358367"><ele>914.0</ele><time>2026-04-25T13:36:02.966Z</time></trkpt><trkpt lat="44.460375" lon="8.635665"><ele>916.0</ele><time>2026-04-25T13:36:03.966Z</time></trkpt><trkpt lat="44.46034" lon="8.6354633"><ele>918.0</ele><time>2026-04-25T13:36:04.967Z</time></trkpt><trkpt lat="44.4602817" lon="8.6352433"><ele>920.0</ele><time>2026-04-25T13:36:05.967Z</time></trkpt><trkpt lat="44.460215" lon="8.6350117"><ele>920.0</ele><time>2026-04-25T13:36:06.967Z</time></trkpt><trkpt lat="44.4601517" lon="8.63481"><ele>920.0</ele><time>2026-04-25T13:36:07.966Z</time></trkpt><trkpt lat="44.4600867" lon="8.6346517"><ele>920.0</ele><time>2026-04-25T13:36:08.967Z</time></trkpt><trkpt lat="44.459985" lon="8.63455"><ele>920.0</ele><time>2026-04-25T13:36:09.966Z</time></trkpt><trkpt lat="44.4598583" lon="8.634505"><ele>920.0</ele><time>2026-04-25T13:36:10.967Z</time></trkpt><trkpt lat="44.4597017" lon="8.6344933"><ele>920.0</ele><time>2026-04-25T13:36:11.966Z</time></trkpt><trkpt lat="44.4595417" lon="8.63449"><ele>920.0</ele><time>2026-04-25T13:36:12.966Z</time></trkpt><trkpt lat="44.45936" lon="8.6345067"><ele>926.6666666666667</ele><time>2026-04-25T13:36:13.967Z</time></trkpt><trkpt lat="44.4591717" lon="8.6345017"><ele>933.3333333333333</ele><time>2026-04-25T13:36:14.966Z</time></trkpt><trkpt lat="44.4589617" lon="8.63449"><ele>940.0</ele><time>2026-04-25T13:36:15.966Z</time></trkpt><trkpt lat="44.4587567" lon="8.6344817"><ele>942.6666666666666</ele><time>2026-04-25T13:36:16.966Z</time></trkpt><trkpt lat="44.458545" lon="8.6344783"><ele>945.3333333333333</ele><time>2026-04-25T13:36:17.966Z</time></trkpt><trkpt lat="44.45834" lon="8.634465"><ele>948.0</ele><time>2026-04-25T13:36:18.967Z</time></trkpt><trkpt lat="44.4581417" lon="8.6344617"><ele>942.3333333333333</ele><time>2026-04-25T13:36:19.966Z</time></trkpt><trkpt lat="44.457935" lon="8.6344417"><ele>936.6666666666666</ele><time>2026-04-25T13:36:20.967Z</time></trkpt><trkpt lat="44.457735" lon="8.6344217"><ele>931.0</ele><time>2026-04-25T13:36:21.966Z</time></trkpt><trkpt lat="44.45752" lon="8.6344117"><ele>931.0</ele><time>2026-04-25T13:36:22.966Z</time></trkpt><trkpt lat="44.45733" lon="8.63441"><ele>931.0</ele><time>2026-04-25T13:36:23.967Z</time></trkpt><trkpt lat="44.45714" lon="8.634435"><ele>931.0</ele><time>2026-04-25T13:36:24.966Z</time></trkpt><trkpt lat="44.456955" lon="8.6344867"><ele>938.6666666666666</ele><time>2026-04-25T13:36:25.966Z</time></trkpt><trkpt lat="44.4567667" lon="8.6345333"><ele>946.3333333333333</ele><time>2026-04-25T13:36:26.966Z</time></trkpt><trkpt lat="44.4565583" lon="8.6346067"><ele>954.0</ele><time>2026-04-25T13:36:27.966Z</time></trkpt><trkpt lat="44.4563467" lon="8.63467"><ele>954.6666666666667</ele><time>2026-04-25T13:36:28.967Z</time></trkpt><trkpt lat="44.456145" lon="8.63474"><ele>955.3333333333334</ele><time>2026-04-25T13:36:29.966Z</time></trkpt><trkpt lat="44.4559717" lon="8.6347817"><ele>956.0</ele><time>2026-04-25T13:36:30.966Z</time></trkpt><trkpt lat="44.45584" lon="8.6348317"><ele>956.0</ele><time>2026-04-25T13:36:31.966Z</time></trkpt><trkpt lat="44.4557567" lon="8.634925"><ele>956.0</ele><time>2026-04-25T13:36:32.966Z</time></trkpt><trkpt lat="44.4556767" lon="8.6350233"><ele>956.0</ele><time>2026-04-25T13:36:33.967Z</time></trkpt><trkpt lat="44.4556283" lon="8.6351733"><ele>956.0</ele><time>2026-04-25T13:36:34.967Z</time></trkpt><trkpt lat="44.45561" lon="8.6353617"><ele>957.0</ele><time>2026-04-25T13:36:35.966Z</time></trkpt><trkpt lat="44.4556283" lon="8.635565"><ele>958.0</ele><time>2026-04-25T13:36:36.967Z</time></trkpt><trkpt lat="44.455675" lon="8.6357433"><ele>959.0</ele><time>2026-04-25T13:36:37.966Z</time></trkpt><trkpt lat="44.4557567" lon="8.635875"><ele>960.0</ele><time>2026-04-25T13:36:38.966Z</time></trkpt><trkpt lat="44.4558683" lon="8.636005"><ele>957.0</ele><time>2026-04-25T13:36:39.966Z</time></trkpt><trkpt lat="44.4559933" lon="8.6361417"><ele>954.0</ele><time>2026-04-25T13:36:40.967Z</time></trkpt><trkpt lat="44.4561167" lon="8.6362983"><ele>951.0</ele><time>2026-04-25T13:36:41.966Z</time></trkpt><trkpt lat="44.45624" lon="8.6364717"><ele>956.0</ele><time>2026-04-25T13:36:42.966Z</time></trkpt><trkpt lat="44.4563467" lon="8.63666"><ele>961.0</ele><time>2026-04-25T13:36:43.966Z</time></trkpt><trkpt lat="44.45643" lon="8.636865"><ele>966.0</ele><time>2026-04-25T13:36:44.966Z</time></trkpt><trkpt lat="44.45648" lon="8.6370733"><ele>966.5</ele><time>2026-04-25T13:36:45.966Z</time></trkpt><trkpt lat="44.456515" lon="8.637275"><ele>967.0</ele><time>2026-04-25T13:36:46.966Z</time></trkpt><trkpt lat="44.4565517" lon="8.6374833"><ele>967.5</ele><time>2026-04-25T13:36:47.966Z</time></trkpt><trkpt lat="44.456605" lon="8.63767"><ele>968.0</ele><time>2026-04-25T13:36:48.966Z</time></trkpt><trkpt lat="44.456675" lon="8.637845"><ele>965.6666666666667</ele><time>2026-04-25T13:36:49.967Z</time></trkpt><trkpt lat="44.4567817" lon="8.638025"><ele>963.3333333333333</ele><time>2026-04-25T13:36:50.967Z</time></trkpt><trkpt lat="44.4568967" lon="8.6382183"><ele>961.0</ele><time>2026-04-25T13:36:51.966Z</time></trkpt><trkpt lat="44.457015" lon="8.6384217"><ele>966.6666666666666</ele><time>2026-04-25T13:36:52.967Z</time></trkpt><trkpt lat="44.45713" lon="8.6386183"><ele>972.3333333333333</ele><time>2026-04-25T13:36:53.967Z</time></trkpt><trkpt lat="44.4572383" lon="8.6388217"><ele>978.0</ele><time>2026-04-25T13:36:54.967Z</time></trkpt><trkpt lat="44.4573317" lon="8.639045"><ele>978.0</ele><time>2026-04-25T13:36:55.966Z</time></trkpt><trkpt lat="44.45738" lon="8.6392867"><ele>978.0</ele><time>2026-04-25T13:36:56.966Z</time></trkpt><trkpt lat="44.457385" lon="8.6395333"><ele>978.0</ele><time>2026-04-25T13:36:57.967Z</time></trkpt><trkpt lat="44.4574117" lon="8.63978"><ele>976.0</ele><time>2026-04-25T13:36:58.967Z</time></trkpt><trkpt lat="44.45747" lon="8.63999"><ele>974.0</ele><time>2026-04-25T13:36:59.967Z</time></trkpt><trkpt lat="44.45756" lon="8.6401833"><ele>972.0</ele><time>2026-04-25T13:37:00.966Z</time></trkpt><trkpt lat="44.4576867" lon="8.6403783"><ele>970.0</ele><time>2026-04-25T13:37:01.967Z</time></trkpt><trkpt lat="44.45781" lon="8.64057"><ele>968.0</ele><time>2026-04-25T13:37:02.967Z</time></trkpt><trkpt lat="44.4579" lon="8.6407683"><ele>966.0</ele><time>2026-04-25T13:37:03.966Z</time></trkpt><trkpt lat="44.45797" lon="8.640995"><ele>973.0</ele><time>2026-04-25T13:37:04.966Z</time></trkpt><trkpt lat="44.458055" lon="8.6412117"><ele>980.0</ele><time>2026-04-25T13:37:05.966Z</time></trkpt><trkpt lat="44.45814" lon="8.6414417"><ele>987.0</ele><time>2026-04-25T13:37:06.966Z</time></trkpt><trkpt lat="44.4582317" lon="8.641695"><ele>987.0</ele><time>2026-04-25T13:37:07.966Z</time></trkpt><trkpt lat="44.45833" lon="8.64195"><ele>987.0</ele><time>2026-04-25T13:37:08.967Z</time></trkpt><trkpt lat="44.4584133" lon="8.6422167"><ele>987.0</ele><time>2026-04-25T13:37:09.967Z</time></trkpt><trkpt lat="44.458475" lon="8.642465"><ele>984.6666666666667</ele><time>2026-04-25T13:37:10.966Z</time></trkpt><trkpt lat="44.458515" lon="8.6427233"><ele>982.3333333333334</ele><time>2026-04-25T13:37:11.966Z</time></trkpt><trkpt lat="44.4585467" lon="8.6429817"><ele>980.0</ele><time>2026-04-25T13:37:12.967Z</time></trkpt><trkpt lat="44.4585683" lon="8.6432083"><ele>978.0</ele><time>2026-04-25T13:37:13.966Z</time></trkpt><trkpt lat="44.4585967" lon="8.643435"><ele>976.0</ele><time>2026-04-25T13:37:14.967Z</time></trkpt><trkpt lat="44.4586517" lon="8.6436333"><ele>974.0</ele><time>2026-04-25T13:37:15.966Z</time></trkpt><trkpt lat="44.4587283" lon="8.64384"><ele>977.3333333333334</ele><time>2026-04-25T13:37:16.966Z</time></trkpt><trkpt lat="44.4588133" lon="8.6440783"><ele>980.6666666666667</ele><time>2026-04-25T13:37:17.966Z</time></trkpt><trkpt lat="44.45889" lon="8.6443167"><ele>984.0</ele><time>2026-04-25T13:37:18.966Z</time></trkpt><trkpt lat="44.4589983" lon="8.64455"><ele>984.0</ele><time>2026-04-25T13:37:19.966Z</time></trkpt><trkpt lat="44.459095" lon="8.6447783"><ele>984.0</ele><time>2026-04-25T13:37:20.966Z</time></trkpt><trkpt lat="44.459205" lon="8.64501"><ele>984.0</ele><time>2026-04-25T13:37:21.967Z</time></trkpt><trkpt lat="44.459325" lon="8.645235"><ele>980.0</ele><time>2026-04-25T13:37:22.967Z</time></trkpt><trkpt lat="44.4594583" lon="8.645465"><ele>976.0</ele><time>2026-04-25T13:37:23.967Z</time></trkpt><trkpt lat="44.459575" lon="8.645705"><ele>972.0</ele><time>2026-04-25T13:37:24.966Z</time></trkpt><trkpt lat="44.4597117" lon="8.645945"><ele>984.0</ele><time>2026-04-25T13:37:25.967Z</time></trkpt><trkpt lat="44.4597983" lon="8.64623"><ele>996.0</ele><time>2026-04-25T13:37:26.966Z</time></trkpt><trkpt lat="44.4598833" lon="8.6465283"><ele>996.0</ele><time>2026-04-25T13:37:27.966Z</time></trkpt><trkpt lat="44.4599617" lon="8.6468133"><ele>996.0</ele><time>2026-04-25T13:37:28.966Z</time></trkpt><trkpt lat="44.460035" lon="8.6471133"><ele>996.0</ele><time>2026-04-25T13:37:29.966Z</time></trkpt><trkpt lat="44.4600933" lon="8.6473867"><ele>994.3333333333333</ele><time>2026-04-25T13:37:30.967Z</time></trkpt><trkpt lat="44.460135" lon="8.647665"><ele>992.6666666666666</ele><time>2026-04-25T13:37:31.966Z</time></trkpt><trkpt lat="44.460195" lon="8.6479333"><ele>991.0</ele><time>2026-04-25T13:37:32.966Z</time></trkpt><trkpt lat="44.4602483" lon="8.6482"><ele>988.6666666666666</ele><time>2026-04-25T13:37:33.967Z</time></trkpt><trkpt lat="44.4603167" lon="8.648465"><ele>986.3333333333333</ele><time>2026-04-25T13:37:34.966Z</time></trkpt><trkpt lat="44.4604067" lon="8.6487167"><ele>984.0</ele><time>2026-04-25T13:37:35.967Z</time></trkpt><trkpt lat="44.4605117" lon="8.6489667"><ele>984.3333333333333</ele><time>2026-04-25T13:37:36.966Z</time></trkpt><trkpt lat="44.46062" lon="8.6492067"><ele>984.6666666666666</ele><time>2026-04-25T13:37:37.966Z</time></trkpt><trkpt lat="44.4607683" lon="8.6494417"><ele>985.0</ele><time>2026-04-25T13:37:38.966Z</time></trkpt><trkpt lat="44.4609233" lon="8.64965"><ele>985.0</ele><time>2026-04-25T13:37:39.966Z</time></trkpt><trkpt lat="44.4610867" lon="8.6498733"><ele>985.0</ele><time>2026-04-25T13:37:40.966Z</time></trkpt><trkpt lat="44.4612467" lon="8.6500817"><ele>985.0</ele><time>2026-04-25T13:37:41.966Z</time></trkpt><trkpt lat="44.4613733" lon="8.650285"><ele>990.3333333333333</ele><time>2026-04-25T13:37:42.966Z</time></trkpt><trkpt lat="44.4614783" lon="8.65049"><ele>995.6666666666667</ele><time>2026-04-25T13:37:43.967Z</time></trkpt><trkpt lat="44.4615733" lon="8.6507"><ele>1001.0</ele><time>2026-04-25T13:37:44.967Z</time></trkpt><trkpt lat="44.4616317" lon="8.6509617"><ele>1002.3333333333334</ele><time>2026-04-25T13:37:45.966Z</time></trkpt><trkpt lat="44.4616867" lon="8.6512167"><ele>1003.6666666666667</ele><time>2026-04-25T13:37:46.967Z</time></trkpt><trkpt lat="44.4617283" lon="8.6514967"><ele>1005.0</ele><time>2026-04-25T13:37:47.966Z</time></trkpt><trkpt lat="44.46176" lon="8.651755"><ele>1004.0</ele><time>2026-04-25T13:37:48.967Z</time></trkpt><trkpt lat="44.4617683" lon="8.6520133"><ele>1003.0</ele><time>2026-04-25T13:37:49.967Z</time></trkpt><trkpt lat="44.4618117" lon="8.6522467"><ele>1002.0</ele><time>2026-04-25T13:37:50.966Z</time></trkpt><trkpt lat="44.4618983" lon="8.652465"><ele>1002.0</ele><time>2026-04-25T13:37:51.966Z</time></trkpt><trkpt lat="44.4619983" lon="8.6526767"><ele>1002.0</ele><time>2026-04-25T13:37:52.967Z</time></trkpt><trkpt lat="44.4620817" lon="8.65291"><ele>1002.0</ele><time>2026-04-25T13:37:53.966Z</time></trkpt><trkpt lat="44.4621517" lon="8.65316"><ele>1006.0</ele><time>2026-04-25T13:37:54.967Z</time></trkpt><trkpt lat="44.4622" lon="8.6534"><ele>1010.0</ele><time>2026-04-25T13:37:55.966Z</time></trkpt><trkpt lat="44.46225" lon="8.6536333"><ele>1014.0</ele><time>2026-04-25T13:37:56.966Z</time></trkpt><trkpt lat="44.462315" lon="8.6538517"><ele>1014.0</ele><time>2026-04-25T13:37:57.967Z</time></trkpt><trkpt lat="44.4624183" lon="8.6540333"><ele>1014.0</ele><time>2026-04-25T13:37:58.966Z</time></trkpt><trkpt lat="44.4625467" lon="8.6541983"><ele>1014.0</ele><time>2026-04-25T13:37:59.967Z</time></trkpt><trkpt lat="44.462695" lon="8.6543233"><ele>1014.0</ele><time>2026-04-25T13:38:00.966Z</time></trkpt><trkpt lat="44.4628467" lon="8.6544183"><ele>1014.0</ele><time>2026-04-25T13:38:01.966Z</time></trkpt><trkpt lat="44.4630367" lon="8.6544833"><ele>1014.0</ele><time>2026-04-25T13:38:02.966Z</time></trkpt><trkpt lat="44.4632633" lon="8.6545317"><ele>1013.6666666666667</ele><time>2026-04-25T13:38:03.967Z</time></trkpt><trkpt lat="44.46347" lon="8.654565"><ele>1013.3333333333334</ele><time>2026-04-25T13:38:04.966Z</time></trkpt><trkpt lat="44.4636733" lon="8.6546367"><ele>1013.0</ele><time>2026-04-25T13:38:05.967Z</time></trkpt><trkpt lat="44.46384" lon="8.6547083"><ele>1016.5</ele><time>2026-04-25T13:38:06.967Z</time></trkpt><trkpt lat="44.4639633" lon="8.6548083"><ele>1020.0</ele><time>2026-04-25T13:38:07.966Z</time></trkpt><trkpt lat="44.4640517" lon="8.6549383"><ele>1023.5</ele><time>2026-04-25T13:38:08.966Z</time></trkpt><trkpt lat="44.4640983" lon="8.65511"><ele>1027.0</ele><time>2026-04-25T13:38:09.967Z</time></trkpt><trkpt lat="44.4641033" lon="8.6553067"><ele>1027.0</ele><time>2026-04-25T13:38:10.967Z</time></trkpt><trkpt lat="44.4640933" lon="8.6555267"><ele>1027.0</ele><time>2026-04-25T13:38:11.966Z</time></trkpt><trkpt lat="44.46407" lon="8.65577"><ele>1027.0</ele><time>2026-04-25T13:38:12.966Z</time></trkpt><trkpt lat="44.4640433" lon="8.6560317"><ele>1028.0</ele><time>2026-04-25T13:38:13.966Z</time></trkpt><trkpt lat="44.4640267" lon="8.6562517"><ele>1029.0</ele><time>2026-04-25T13:38:14.967Z</time></trkpt><trkpt lat="44.4639983" lon="8.656425"><ele>1030.0</ele><time>2026-04-25T13:38:15.967Z</time></trkpt><trkpt lat="44.463955" lon="8.6565817"><ele>1031.0</ele><time>2026-04-25T13:38:16.966Z</time></trkpt><trkpt lat="44.4638867" lon="8.6567333"><ele>1031.0</ele><time>2026-04-25T13:38:17.966Z</time></trkpt><trkpt lat="44.4637933" lon="8.65689"><ele>1031.0</ele><time>2026-04-25T13:38:18.967Z</time></trkpt><trkpt lat="44.46367" lon="8.657085"><ele>1031.0</ele><time>2026-04-25T13:38:19.966Z</time></trkpt><trkpt lat="44.46357" lon="8.6572883"><ele>1031.3333333333335</ele><time>2026-04-25T13:38:20.966Z</time></trkpt><trkpt lat="44.463465" lon="8.6574933"><ele>1031.6666666666667</ele><time>2026-04-25T13:38:21.966Z</time></trkpt><trkpt lat="44.4633567" lon="8.6576617"><ele>1032.0</ele><time>2026-04-25T13:38:22.966Z</time></trkpt><trkpt lat="44.4632517" lon="8.65781"><ele>1031.3333333333333</ele><time>2026-04-25T13:38:23.966Z</time></trkpt><trkpt lat="44.46311" lon="8.6578983"><ele>1030.6666666666665</ele><time>2026-04-25T13:38:24.967Z</time></trkpt><trkpt lat="44.4629517" lon="8.6579633"><ele>1030.0</ele><time>2026-04-25T13:38:25.966Z</time></trkpt><trkpt lat="44.4628017" lon="8.6580017"><ele>1030.0</ele><time>2026-04-25T13:38:26.967Z</time></trkpt><trkpt lat="44.4626683" lon="8.6580483"><ele>1030.0</ele><time>2026-04-25T13:38:27.966Z</time></trkpt><trkpt lat="44.4625433" lon="8.658125"><ele>1030.0</ele><time>2026-04-25T13:38:28.966Z</time></trkpt><trkpt lat="44.4624633" lon="8.6582483"><ele>1030.0</ele><time>2026-04-25T13:38:29.966Z</time></trkpt><trkpt lat="44.46242" lon="8.6584283"><ele>1032.6666666666665</ele><time>2026-04-25T13:38:30.967Z</time></trkpt><trkpt lat="44.4623933" lon="8.6586533"><ele>1035.3333333333333</ele><time>2026-04-25T13:38:31.966Z</time></trkpt><trkpt lat="44.4623967" lon="8.6589283"><ele>1038.0</ele><time>2026-04-25T13:38:32.966Z</time></trkpt><trkpt lat="44.4624367" lon="8.6592233"><ele>1037.5</ele><time>2026-04-25T13:38:33.967Z</time></trkpt><trkpt lat="44.4624967" lon="8.6595517"><ele>1037.0</ele><time>2026-04-25T13:38:34.966Z</time></trkpt><trkpt lat="44.4625417" lon="8.659865"><ele>1037.0</ele><time>2026-04-25T13:38:35.966Z</time></trkpt><trkpt lat="44.4625783" lon="8.6601433"><ele>1037.0</ele><time>2026-04-25T13:38:36.966Z</time></trkpt><trkpt lat="44.46262" lon="8.6603717"><ele>1037.0</ele><time>2026-04-25T13:38:37.967Z</time></trkpt><trkpt lat="44.4626117" lon="8.660555"><ele>1038.0</ele><time>2026-04-25T13:38:38.966Z</time></trkpt><trkpt lat="44.46257" lon="8.6607367"><ele>1039.0</ele><time>2026-04-25T13:38:39.966Z</time></trkpt><trkpt lat="44.462505" lon="8.6608883"><ele>1040.0</ele><time>2026-04-25T13:38:40.966Z</time></trkpt><trkpt lat="44.46244" lon="8.6610233"><ele>1041.0</ele><time>2026-04-25T13:38:41.966Z</time></trkpt><trkpt lat="44.46233" lon="8.6611217"><ele>1042.3999999999999</ele><time>2026-04-25T13:38:42.966Z</time></trkpt><trkpt lat="44.4622017" lon="8.6611983"><ele>1043.8</ele><time>2026-04-25T13:38:43.966Z</time></trkpt><trkpt lat="44.4621017" lon="8.6612717"><ele>1045.1999999999998</ele><time>2026-04-25T13:38:44.966Z</time></trkpt><trkpt lat="44.4620383" lon="8.66135"><ele>1046.6</ele><time>2026-04-25T13:38:45.967Z</time></trkpt><trkpt lat="44.4620367" lon="8.6614733"><ele>1048.0</ele><time>2026-04-25T13:38:46.966Z</time></trkpt><trkpt lat="44.462055" lon="8.6616517"><ele>1048.0</ele><time>2026-04-25T13:38:47.966Z</time></trkpt><trkpt lat="44.4620967" lon="8.6618433"><ele>1048.0</ele><time>2026-04-25T13:38:48.966Z</time></trkpt><trkpt lat="44.4621417" lon="8.6620333"><ele>1048.0</ele><time>2026-04-25T13:38:49.966Z</time></trkpt><trkpt lat="44.46216" lon="8.6622333"><ele>1048.0</ele><time>2026-04-25T13:38:50.966Z</time></trkpt><trkpt lat="44.4621617" lon="8.662445"><ele>1048.0</ele><time>2026-04-25T13:38:51.967Z</time></trkpt><trkpt lat="44.4621633" lon="8.662675"><ele>1048.0</ele><time>2026-04-25T13:38:52.967Z</time></trkpt><trkpt lat="44.4621217" lon="8.66291"><ele>1048.0</ele><time>2026-04-25T13:38:53.967Z</time></trkpt><trkpt lat="44.4620683" lon="8.66315"><ele>1044.6666666666665</ele><time>2026-04-25T13:38:54.966Z</time></trkpt><trkpt lat="44.4619833" lon="8.6634033"><ele>1041.3333333333333</ele><time>2026-04-25T13:38:55.967Z</time></trkpt><trkpt lat="44.4619133" lon="8.66367"><ele>1038.0</ele><time>2026-04-25T13:38:56.967Z</time></trkpt><trkpt lat="44.46184" lon="8.663945"><ele>1038.0</ele><time>2026-04-25T13:38:57.966Z</time></trkpt><trkpt lat="44.461755" lon="8.66422"><ele>1038.0</ele><time>2026-04-25T13:38:58.966Z</time></trkpt><trkpt lat="44.4616733" lon="8.6644667"><ele>1038.0</ele><time>2026-04-25T13:38:59.966Z</time></trkpt><trkpt lat="44.461615" lon="8.6647"><ele>1040.6666666666667</ele><time>2026-04-25T13:39:00.966Z</time></trkpt><trkpt lat="44.4615867" lon="8.6649533"><ele>1043.3333333333335</ele><time>2026-04-25T13:39:01.966Z</time></trkpt><trkpt lat="44.4615867" lon="8.6652183"><ele>1046.0</ele><time>2026-04-25T13:39:02.966Z</time></trkpt><trkpt lat="44.4615933" lon="8.665465"><ele>1046.6666666666667</ele><time>2026-04-25T13:39:03.967Z</time></trkpt><trkpt lat="44.4615967" lon="8.6656967"><ele>1047.3333333333333</ele><time>2026-04-25T13:39:04.966Z</time></trkpt><trkpt lat="44.4615958" lon="8.6659149"><ele>1048.0</ele><time>2026-04-25T13:39:05.966Z</time></trkpt><trkpt lat="44.4615974" lon="8.6661131"><ele>1048.6</ele><time>2026-04-25T13:39:06.966Z</time></trkpt><trkpt lat="44.4615991" lon="8.6662894"><ele>1049.1999999999998</ele><time>2026-04-25T13:39:07.965Z</time></trkpt><trkpt lat="44.4615933" lon="8.6664556"><ele>1049.8</ele><time>2026-04-25T13:39:08.966Z</time></trkpt><trkpt lat="44.4615856" lon="8.6666054"><ele>1050.3999999999999</ele><time>2026-04-25T13:39:09.965Z</time></trkpt><trkpt lat="44.4615902" lon="8.6667417"><ele>1051.0</ele><time>2026-04-25T13:39:10.966Z</time></trkpt><trkpt lat="44.4615921" lon="8.6668615"><ele>1051.0</ele><time>2026-04-25T13:39:11.965Z</time></trkpt><trkpt lat="44.4615862" lon="8.6669664"><ele>1051.0</ele><time>2026-04-25T13:39:12.966Z</time></trkpt><trkpt lat="44.461571" lon="8.6670648"><ele>1051.0</ele><time>2026-04-25T13:39:13.965Z</time></trkpt><trkpt lat="44.46156" lon="8.6671725"><ele>1051.0</ele><time>2026-04-25T13:39:14.965Z</time></trkpt><trkpt lat="44.4615639" lon="8.6672848"><ele>1051.0</ele><time>2026-04-25T13:39:15.965Z</time></trkpt><trkpt lat="44.4615839" lon="8.6673973"><ele>1051.0</ele><time>2026-04-25T13:39:16.965Z</time></trkpt><trkpt lat="44.4616316" lon="8.6675227"><ele>1051.0</ele><time>2026-04-25T13:39:17.966Z</time></trkpt><trkpt lat="44.4617053" lon="8.6676395"><ele>1051.0</ele><time>2026-04-25T13:39:18.965Z</time></trkpt><trkpt lat="44.4618087" lon="8.6677332"><ele>1051.0</ele><time>2026-04-25T13:39:19.965Z</time></trkpt><trkpt lat="44.4619402" lon="8.6677717"><ele>1051.0</ele><time>2026-04-25T13:39:20.966Z</time></trkpt><trkpt lat="44.4620953" lon="8.6677575"><ele>1053.3333333333333</ele><time>2026-04-25T13:39:21.965Z</time></trkpt><trkpt lat="44.4622508" lon="8.667712"><ele>1055.6666666666667</ele><time>2026-04-25T13:39:22.965Z</time></trkpt><trkpt lat="44.462405" lon="8.667671"><ele>1058.0</ele><time>2026-04-25T13:39:23.965Z</time></trkpt><trkpt lat="44.4625651" lon="8.6676434"><ele>1058.0</ele><time>2026-04-25T13:39:24.965Z</time></trkpt><trkpt lat="44.462718" lon="8.6676084"><ele>1058.0</ele><time>2026-04-25T13:39:25.966Z</time></trkpt><trkpt lat="44.4628713" lon="8.6675829"><ele>1058.0</ele><time>2026-04-25T13:39:26.965Z</time></trkpt><trkpt lat="44.463013" lon="8.6675466"><ele>1057.3333333333335</ele><time>2026-04-25T13:39:27.966Z</time></trkpt><trkpt lat="44.4631567" lon="8.6674986"><ele>1056.6666666666667</ele><time>2026-04-25T13:39:28.966Z</time></trkpt><trkpt lat="44.4633042" lon="8.6674513"><ele>1056.0</ele><time>2026-04-25T13:39:29.965Z</time></trkpt><trkpt lat="44.4634546" lon="8.6674"><ele>1056.0</ele><time>2026-04-25T13:39:30.966Z</time></trkpt><trkpt lat="44.4636054" lon="8.6673413"><ele>1056.0</ele><time>2026-04-25T13:39:31.966Z</time></trkpt><trkpt lat="44.4637593" lon="8.6672766"><ele>1056.0</ele><time>2026-04-25T13:39:32.966Z</time></trkpt><trkpt lat="44.4639092" lon="8.6671981"><ele>1053.0</ele><time>2026-04-25T13:39:33.965Z</time></trkpt><trkpt lat="44.4640665" lon="8.6671266"><ele>1050.0</ele><time>2026-04-25T13:39:34.965Z</time></trkpt><trkpt lat="44.4642417" lon="8.6670595"><ele>1047.0</ele><time>2026-04-25T13:39:35.965Z</time></trkpt><trkpt lat="44.4644283" lon="8.6669965"><ele>1052.6666666666667</ele><time>2026-04-25T13:39:36.965Z</time></trkpt><trkpt lat="44.4646187" lon="8.6669298"><ele>1058.3333333333335</ele><time>2026-04-25T13:39:37.965Z</time></trkpt><trkpt lat="44.46483" lon="8.6668833"><ele>1064.0</ele><time>2026-04-25T13:39:38.966Z</time></trkpt><trkpt lat="44.4650233" lon="8.6668483"><ele>1064.0</ele><time>2026-04-25T13:39:39.966Z</time></trkpt><trkpt lat="44.4652067" lon="8.6668417"><ele>1064.0</ele><time>2026-04-25T13:39:40.965Z</time></trkpt><trkpt lat="44.4654" lon="8.6668667"><ele>1064.0</ele><time>2026-04-25T13:39:41.966Z</time></trkpt><trkpt lat="44.46557" lon="8.6669233"><ele>1055.0</ele><time>2026-04-25T13:39:42.966Z</time></trkpt><trkpt lat="44.4657267" lon="8.6670067"><ele>1046.0</ele><time>2026-04-25T13:39:43.965Z</time></trkpt><trkpt lat="44.4658767" lon="8.6670683"><ele>1037.0</ele><time>2026-04-25T13:39:44.965Z</time></trkpt><trkpt lat="44.46603" lon="8.6671"><ele>1037.0</ele><time>2026-04-25T13:39:45.966Z</time></trkpt><trkpt lat="44.4661783" lon="8.6670017"><ele>1037.0</ele><time>2026-04-25T13:39:46.965Z</time></trkpt><trkpt lat="44.4663367" lon="8.6668517"><ele>1037.0</ele><time>2026-04-25T13:39:47.965Z</time></trkpt><trkpt lat="44.4664967" lon="8.6667183"><ele>1038.6666666666667</ele><time>2026-04-25T13:39:48.965Z</time></trkpt><trkpt lat="44.4666467" lon="8.6665867"><ele>1040.3333333333333</ele><time>2026-04-25T13:39:49.966Z</time></trkpt><trkpt lat="44.4668067" lon="8.6664683"><ele>1042.0</ele><time>2026-04-25T13:39:50.966Z</time></trkpt><trkpt lat="44.4669883" lon="8.6663817"><ele>1036.0</ele><time>2026-04-25T13:39:51.966Z</time></trkpt><trkpt lat="44.4671817" lon="8.6663083"><ele>1030.0</ele><time>2026-04-25T13:39:52.965Z</time></trkpt><trkpt lat="44.467385" lon="8.666235"><ele>1024.0</ele><time>2026-04-25T13:39:53.965Z</time></trkpt><trkpt lat="44.46759" lon="8.6661483"><ele>1020.5</ele><time>2026-04-25T13:39:54.965Z</time></trkpt><trkpt lat="44.4678033" lon="8.6660267"><ele>1017.0</ele><time>2026-04-25T13:39:55.965Z</time></trkpt><trkpt lat="44.468005" lon="8.6658817"><ele>1017.0</ele><time>2026-04-25T13:39:56.966Z</time></trkpt><trkpt lat="44.4681983" lon="8.665715"><ele>1017.0</ele><time>2026-04-25T13:39:57.966Z</time></trkpt><trkpt lat="44.46838" lon="8.6655433"><ele>1017.0</ele><time>2026-04-25T13:39:58.966Z</time></trkpt><trkpt lat="44.46856" lon="8.66538"><ele>1015.6666666666667</ele><time>2026-04-25T13:39:59.966Z</time></trkpt><trkpt lat="44.4687217" lon="8.6652317"><ele>1014.3333333333334</ele><time>2026-04-25T13:40:00.966Z</time></trkpt><trkpt lat="44.4688567" lon="8.6650933"><ele>1013.0</ele><time>2026-04-25T13:40:01.965Z</time></trkpt><trkpt lat="44.4689733" lon="8.665"><ele>1011.8</ele><time>2026-04-25T13:40:02.965Z</time></trkpt><trkpt lat="44.4690867" lon="8.66494"><ele>1010.5999999999999</ele><time>2026-04-25T13:40:03.965Z</time></trkpt><trkpt lat="44.4691933" lon="8.6649617"><ele>1009.4000000000001</ele><time>2026-04-25T13:40:04.965Z</time></trkpt><trkpt lat="44.469255" lon="8.6650617"><ele>1008.2</ele><time>2026-04-25T13:40:05.965Z</time></trkpt><trkpt lat="44.4692783" lon="8.66523"><ele>1007.0</ele><time>2026-04-25T13:40:06.965Z</time></trkpt><trkpt lat="44.4692367" lon="8.665395"><ele>1006.0</ele><time>2026-04-25T13:40:07.965Z</time></trkpt><trkpt lat="44.4691533" lon="8.6655317"><ele>1005.0</ele><time>2026-04-25T13:40:08.965Z</time></trkpt><trkpt lat="44.469045" lon="8.66565"><ele>1004.0</ele><time>2026-04-25T13:40:09.965Z</time></trkpt><trkpt lat="44.468915" lon="8.665755"><ele>1003.0</ele><time>2026-04-25T13:40:10.965Z</time></trkpt><trkpt lat="44.468765" lon="8.6658833"><ele>1003.0</ele><time>2026-04-25T13:40:11.965Z</time></trkpt><trkpt lat="44.4685967" lon="8.666055"><ele>1003.0</ele><time>2026-04-25T13:40:12.965Z</time></trkpt><trkpt lat="44.4684383" lon="8.6662817"><ele>1003.0</ele><time>2026-04-25T13:40:13.965Z</time></trkpt><trkpt lat="44.4682867" lon="8.666525"><ele>1003.0</ele><time>2026-04-25T13:40:14.966Z</time></trkpt><trkpt lat="44.468145" lon="8.6667667"><ele>1003.0</ele><time>2026-04-25T13:40:15.966Z</time></trkpt><trkpt lat="44.468" lon="8.6670033"><ele>1003.0</ele><time>2026-04-25T13:40:16.965Z</time></trkpt><trkpt lat="44.4678633" lon="8.6672383"><ele>1003.3333333333333</ele><time>2026-04-25T13:40:17.965Z</time></trkpt><trkpt lat="44.4677467" lon="8.6674683"><ele>1003.6666666666667</ele><time>2026-04-25T13:40:18.965Z</time></trkpt><trkpt lat="44.4676417" lon="8.6677383"><ele>1004.0</ele><time>2026-04-25T13:40:19.965Z</time></trkpt><trkpt lat="44.4675633" lon="8.6680233"><ele>999.6666666666667</ele><time>2026-04-25T13:40:20.966Z</time></trkpt><trkpt lat="44.4674933" lon="8.668295"><ele>995.3333333333333</ele><time>2026-04-25T13:40:21.966Z</time></trkpt><trkpt lat="44.467425" lon="8.6685467"><ele>991.0</ele><time>2026-04-25T13:40:22.965Z</time></trkpt><trkpt lat="44.4673117" lon="8.6688283"><ele>990.0</ele><time>2026-04-25T13:40:23.966Z</time></trkpt><trkpt lat="44.46719" lon="8.6690833"><ele>989.0</ele><time>2026-04-25T13:40:24.966Z</time></trkpt><trkpt lat="44.4670717" lon="8.66934"><ele>988.0</ele><time>2026-04-25T13:40:25.965Z</time></trkpt><trkpt lat="44.4669617" lon="8.66959"><ele>984.0</ele><time>2026-04-25T13:40:26.966Z</time></trkpt><trkpt lat="44.466845" lon="8.6698133"><ele>980.0</ele><time>2026-04-25T13:40:27.966Z</time></trkpt><trkpt lat="44.46673" lon="8.67001"><ele>976.0</ele><time>2026-04-25T13:40:28.966Z</time></trkpt><trkpt lat="44.4666417" lon="8.67019"><ele>972.75</ele><time>2026-04-25T13:40:29.965Z</time></trkpt><trkpt lat="44.46659" lon="8.6703683"><ele>969.5</ele><time>2026-04-25T13:40:30.965Z</time></trkpt><trkpt lat="44.46657" lon="8.6705433"><ele>966.25</ele><time>2026-04-25T13:40:31.965Z</time></trkpt><trkpt lat="44.4666017" lon="8.670705"><ele>963.0</ele><time>2026-04-25T13:40:32.965Z</time></trkpt><trkpt lat="44.46668" lon="8.67087"><ele>963.0</ele><time>2026-04-25T13:40:33.965Z</time></trkpt><trkpt lat="44.466785" lon="8.6709783"><ele>963.0</ele><time>2026-04-25T13:40:34.965Z</time></trkpt><trkpt lat="44.4669233" lon="8.6710283"><ele>963.0</ele><time>2026-04-25T13:40:35.966Z</time></trkpt><trkpt lat="44.4670733" lon="8.6710317"><ele>963.0</ele><time>2026-04-25T13:40:36.966Z</time></trkpt><trkpt lat="44.4672383" lon="8.6709783"><ele>962.6666666666667</ele><time>2026-04-25T13:40:37.965Z</time></trkpt><trkpt lat="44.4674267" lon="8.670885"><ele>962.3333333333334</ele><time>2026-04-25T13:40:38.966Z</time></trkpt><trkpt lat="44.4676317" lon="8.6707767"><ele>962.0</ele><time>2026-04-25T13:40:39.965Z</time></trkpt><trkpt lat="44.4678533" lon="8.6706633"><ele>952.0</ele><time>2026-04-25T13:40:40.965Z</time></trkpt><trkpt lat="44.4680917" lon="8.67055"><ele>942.0</ele><time>2026-04-25T13:40:41.966Z</time></trkpt><trkpt lat="44.4683217" lon="8.6704333"><ele>942.0</ele><time>2026-04-25T13:40:42.966Z</time></trkpt><trkpt lat="44.4685433" lon="8.6703267"><ele>942.0</ele><time>2026-04-25T13:40:43.965Z</time></trkpt><trkpt lat="44.468765" lon="8.6702217"><ele>945.0</ele><time>2026-04-25T13:40:44.966Z</time></trkpt><trkpt lat="44.4689783" lon="8.6701083"><ele>948.0</ele><time>2026-04-25T13:40:45.965Z</time></trkpt><trkpt lat="44.4691867" lon="8.67001"><ele>951.0</ele><time>2026-04-25T13:40:46.965Z</time></trkpt><trkpt lat="44.469375" lon="8.66988"><ele>951.0</ele><time>2026-04-25T13:40:47.966Z</time></trkpt><trkpt lat="44.46955" lon="8.669725"><ele>951.0</ele><time>2026-04-25T13:40:48.965Z</time></trkpt><trkpt lat="44.469705" lon="8.6695633"><ele>951.0</ele><time>2026-04-25T13:40:49.965Z</time></trkpt><trkpt lat="44.4698567" lon="8.6694233"><ele>947.0</ele><time>2026-04-25T13:40:50.965Z</time></trkpt><trkpt lat="44.4700133" lon="8.6693117"><ele>943.0</ele><time>2026-04-25T13:40:51.965Z</time></trkpt><trkpt lat="44.4701733" lon="8.669255"><ele>939.0</ele><time>2026-04-25T13:40:52.966Z</time></trkpt><trkpt lat="44.4703617" lon="8.6692517"><ele>937.3333333333333</ele><time>2026-04-25T13:40:53.965Z</time></trkpt><trkpt lat="44.4705733" lon="8.6692717"><ele>935.6666666666666</ele><time>2026-04-25T13:40:54.965Z</time></trkpt><trkpt lat="44.470805" lon="8.6693083"><ele>934.0</ele><time>2026-04-25T13:40:55.965Z</time></trkpt><trkpt lat="44.47104" lon="8.6693317"><ele>934.0</ele><time>2026-04-25T13:40:56.966Z</time></trkpt><trkpt lat="44.47127" lon="8.6693433"><ele>934.0</ele><time>2026-04-25T13:40:57.965Z</time></trkpt><trkpt lat="44.4715083" lon="8.669355"><ele>936.5</ele><time>2026-04-25T13:40:58.965Z</time></trkpt><trkpt lat="44.4717567" lon="8.6693817"><ele>939.0</ele><time>2026-04-25T13:40:59.965Z</time></trkpt><trkpt lat="44.471995" lon="8.6693883"><ele>937.6666666666667</ele><time>2026-04-25T13:41:00.966Z</time></trkpt><trkpt lat="44.4722117" lon="8.6693933"><ele>936.3333333333334</ele><time>2026-04-25T13:41:01.965Z</time></trkpt><trkpt lat="44.4724167" lon="8.669395"><ele>935.0</ele><time>2026-04-25T13:41:02.965Z</time></trkpt><trkpt lat="44.4726117" lon="8.6694167"><ele>935.0</ele><time>2026-04-25T13:41:03.965Z</time></trkpt><trkpt lat="44.4727833" lon="8.6694267"><ele>935.0</ele><time>2026-04-25T13:41:04.965Z</time></trkpt><trkpt lat="44.47294" lon="8.6694217"><ele>935.0</ele><time>2026-04-25T13:41:05.965Z</time></trkpt><trkpt lat="44.4730967" lon="8.6693933"><ele>934.75</ele><time>2026-04-25T13:41:06.966Z</time></trkpt><trkpt lat="44.473235" lon="8.669335"><ele>934.5</ele><time>2026-04-25T13:41:07.965Z</time></trkpt><trkpt lat="44.47336" lon="8.6692583"><ele>934.25</ele><time>2026-04-25T13:41:08.966Z</time></trkpt><trkpt lat="44.4734767" lon="8.669165"><ele>934.0</ele><time>2026-04-25T13:41:09.966Z</time></trkpt><trkpt lat="44.4735833" lon="8.6690433"><ele>934.0</ele><time>2026-04-25T13:41:10.965Z</time></trkpt><trkpt lat="44.4736767" lon="8.6689017"><ele>934.0</ele><time>2026-04-25T13:41:11.965Z</time></trkpt><trkpt lat="44.4737683" lon="8.66874"><ele>934.0</ele><time>2026-04-25T13:41:12.965Z</time></trkpt><trkpt lat="44.4738667" lon="8.668555"><ele>938.0</ele><time>2026-04-25T13:41:13.965Z</time></trkpt><trkpt lat="44.4739633" lon="8.6683517"><ele>942.0</ele><time>2026-04-25T13:41:14.966Z</time></trkpt><trkpt lat="44.4740617" lon="8.668185"><ele>946.0</ele><time>2026-04-25T13:41:15.965Z</time></trkpt><trkpt lat="44.474155" lon="8.6680633"><ele>946.0</ele><time>2026-04-25T13:41:16.965Z</time></trkpt><trkpt lat="44.47427" lon="8.6680167"><ele>946.0</ele><time>2026-04-25T13:41:17.965Z</time></trkpt><trkpt lat="44.4744" lon="8.6680317"><ele>946.0</ele><time>2026-04-25T13:41:18.966Z</time></trkpt><trkpt lat="44.47456" lon="8.6681017"><ele>946.0</ele><time>2026-04-25T13:41:19.965Z</time></trkpt><trkpt lat="44.47472" lon="8.6682"><ele>948.0</ele><time>2026-04-25T13:41:20.965Z</time></trkpt><trkpt lat="44.474895" lon="8.66826"><ele>950.0</ele><time>2026-04-25T13:41:21.965Z</time></trkpt><trkpt lat="44.4750833" lon="8.6682833"><ele>952.0</ele><time>2026-04-25T13:41:22.966Z</time></trkpt><trkpt lat="44.4752833" lon="8.6682583"><ele>956.3333333333333</ele><time>2026-04-25T13:41:23.965Z</time></trkpt><trkpt lat="44.4754833" lon="8.66819"><ele>960.6666666666667</ele><time>2026-04-25T13:41:24.965Z</time></trkpt><trkpt lat="44.475675" lon="8.6680767"><ele>965.0</ele><time>2026-04-25T13:41:25.966Z</time></trkpt><trkpt lat="44.47583" lon="8.6679067"><ele>958.3333333333334</ele><time>2026-04-25T13:41:26.965Z</time></trkpt><trkpt lat="44.4759883" lon="8.66774"><ele>951.6666666666667</ele><time>2026-04-25T13:41:27.966Z</time></trkpt><trkpt lat="44.4761117" lon="8.6675883"><ele>945.0</ele><time>2026-04-25T13:41:28.965Z</time></trkpt><trkpt lat="44.4762133" lon="8.6674867"><ele>947.5</ele><time>2026-04-25T13:41:29.966Z</time></trkpt><trkpt lat="44.4762967" lon="8.6674417"><ele>950.0</ele><time>2026-04-25T13:41:30.965Z</time></trkpt><trkpt lat="44.47637" lon="8.6674633"><ele>952.5</ele><time>2026-04-25T13:41:31.966Z</time></trkpt><trkpt lat="44.4764133" lon="8.66756"><ele>955.0</ele><time>2026-04-25T13:41:32.965Z</time></trkpt><trkpt lat="44.4764133" lon="8.6676817"><ele>957.5</ele><time>2026-04-25T13:41:33.965Z</time></trkpt><trkpt lat="44.4763667" lon="8.6678017"><ele>960.0</ele><time>2026-04-25T13:41:34.965Z</time></trkpt><trkpt lat="44.4762883" lon="8.6679083"><ele>961.6666666666667</ele><time>2026-04-25T13:41:35.966Z</time></trkpt><trkpt lat="44.4761667" lon="8.66804"><ele>963.3333333333334</ele><time>2026-04-25T13:41:36.965Z</time></trkpt><trkpt lat="44.47604" lon="8.6681867"><ele>965.0</ele><time>2026-04-25T13:41:37.966Z</time></trkpt><trkpt lat="44.4759" lon="8.6683267"><ele>965.0</ele><time>2026-04-25T13:41:38.965Z</time></trkpt><trkpt lat="44.4757567" lon="8.6684717"><ele>965.0</ele><time>2026-04-25T13:41:39.966Z</time></trkpt><trkpt lat="44.4756083" lon="8.668625"><ele>965.0</ele><time>2026-04-25T13:41:40.965Z</time></trkpt><trkpt lat="44.4754617" lon="8.6687783"><ele>965.3333333333334</ele><time>2026-04-25T13:41:41.966Z</time></trkpt><trkpt lat="44.4753367" lon="8.6689483"><ele>965.6666666666667</ele><time>2026-04-25T13:41:42.966Z</time></trkpt><trkpt lat="44.4752283" lon="8.66911"><ele>966.0</ele><time>2026-04-25T13:41:43.965Z</time></trkpt><trkpt lat="44.47515" lon="8.669275"><ele>965.75</ele><time>2026-04-25T13:41:44.965Z</time></trkpt><trkpt lat="44.4751083" lon="8.6694483"><ele>965.5</ele><time>2026-04-25T13:41:45.966Z</time></trkpt><trkpt lat="44.4751" lon="8.66963"><ele>965.25</ele><time>2026-04-25T13:41:46.965Z</time></trkpt><trkpt lat="44.4751367" lon="8.66983"><ele>965.0</ele><time>2026-04-25T13:41:47.965Z</time></trkpt><trkpt lat="44.4752083" lon="8.67002"><ele>965.0</ele><time>2026-04-25T13:41:48.965Z</time></trkpt><trkpt lat="44.4752933" lon="8.6702067"><ele>965.0</ele><time>2026-04-25T13:41:49.965Z</time></trkpt><trkpt lat="44.47538" lon="8.670395"><ele>965.0</ele><time>2026-04-25T13:41:50.965Z</time></trkpt><trkpt lat="44.475475" lon="8.6706"><ele>963.0</ele><time>2026-04-25T13:41:51.966Z</time></trkpt><trkpt lat="44.4755567" lon="8.6708083"><ele>961.0</ele><time>2026-04-25T13:41:52.965Z</time></trkpt><trkpt lat="44.4756267" lon="8.6709917"><ele>959.0</ele><time>2026-04-25T13:41:53.966Z</time></trkpt><trkpt lat="44.475695" lon="8.6711617"><ele>959.0</ele><time>2026-04-25T13:41:54.965Z</time></trkpt><trkpt lat="44.4757733" lon="8.6712967"><ele>959.0</ele><time>2026-04-25T13:41:55.965Z</time></trkpt><trkpt lat="44.4758767" lon="8.6714033"><ele>959.0</ele><time>2026-04-25T13:41:56.965Z</time></trkpt><trkpt lat="44.475995" lon="8.6714817"><ele>959.0</ele><time>2026-04-25T13:41:57.965Z</time></trkpt><trkpt lat="44.47614" lon="8.6715417"><ele>965.3333333333334</ele><time>2026-04-25T13:41:58.966Z</time></trkpt><trkpt lat="44.476295" lon="8.6715933"><ele>971.6666666666667</ele><time>2026-04-25T13:41:59.965Z</time></trkpt><trkpt lat="44.4764533" lon="8.67164"><ele>978.0</ele><time>2026-04-25T13:42:00.965Z</time></trkpt><trkpt lat="44.4766167" lon="8.6716583"><ele>978.0</ele><time>2026-04-25T13:42:01.965Z</time></trkpt><trkpt lat="44.476785" lon="8.6716517"><ele>978.0</ele><time>2026-04-25T13:42:02.966Z</time></trkpt><trkpt lat="44.4769417" lon="8.6716267"><ele>978.0</ele><time>2026-04-25T13:42:03.965Z</time></trkpt><trkpt lat="44.4770933" lon="8.6716217"><ele>980.75</ele><time>2026-04-25T13:42:04.965Z</time></trkpt><trkpt lat="44.4772533" lon="8.67165"><ele>983.5</ele><time>2026-04-25T13:42:05.965Z</time></trkpt><trkpt lat="44.4773817" lon="8.6717283"><ele>986.25</ele><time>2026-04-25T13:42:06.965Z</time></trkpt><trkpt lat="44.4774917" lon="8.671855"><ele>989.0</ele><time>2026-04-25T13:42:07.965Z</time></trkpt><trkpt lat="44.4776217" lon="8.6719433"><ele>980.6666666666667</ele><time>2026-04-25T13:42:08.965Z</time></trkpt><trkpt lat="44.4777833" lon="8.6719983"><ele>972.3333333333333</ele><time>2026-04-25T13:42:09.965Z</time></trkpt><trkpt lat="44.47795" lon="8.6720417"><ele>964.0</ele><time>2026-04-25T13:42:10.966Z</time></trkpt><trkpt lat="44.478115" lon="8.6721167"><ele>964.0</ele><time>2026-04-25T13:42:11.965Z</time></trkpt><trkpt lat="44.4782867" lon="8.6722383"><ele>964.0</ele><time>2026-04-25T13:42:12.966Z</time></trkpt><trkpt lat="44.478445" lon="8.6723817"><ele>964.0</ele><time>2026-04-25T13:42:13.965Z</time></trkpt><trkpt lat="44.4786117" lon="8.6725367"><ele>964.0</ele><time>2026-04-25T13:42:14.965Z</time></trkpt><trkpt lat="44.4787617" lon="8.6727133"><ele>964.0</ele><time>2026-04-25T13:42:15.965Z</time></trkpt><trkpt lat="44.478875" lon="8.6728883"><ele>964.0</ele><time>2026-04-25T13:42:16.965Z</time></trkpt><trkpt lat="44.47894" lon="8.6730617"><ele>961.5</ele><time>2026-04-25T13:42:17.965Z</time></trkpt><trkpt lat="44.4789767" lon="8.673255"><ele>959.0</ele><time>2026-04-25T13:42:18.965Z</time></trkpt><trkpt lat="44.4789883" lon="8.6734517"><ele>956.5</ele><time>2026-04-25T13:42:19.965Z</time></trkpt><trkpt lat="44.4790083" lon="8.6736483"><ele>954.0</ele><time>2026-04-25T13:42:20.965Z</time></trkpt><trkpt lat="44.4790617" lon="8.67384"><ele>954.0</ele><time>2026-04-25T13:42:21.966Z</time></trkpt><trkpt lat="44.4791567" lon="8.6740183"><ele>954.0</ele><time>2026-04-25T13:42:22.966Z</time></trkpt><trkpt lat="44.47927" lon="8.6741617"><ele>954.0</ele><time>2026-04-25T13:42:23.965Z</time></trkpt><trkpt lat="44.4793767" lon="8.6743117"><ele>950.5</ele><time>2026-04-25T13:42:24.966Z</time></trkpt><trkpt lat="44.4794567" lon="8.6744683"><ele>947.0</ele><time>2026-04-25T13:42:25.965Z</time></trkpt><trkpt lat="44.47949" lon="8.6746433"><ele>943.5</ele><time>2026-04-25T13:42:26.965Z</time></trkpt><trkpt lat="44.47949" lon="8.674805"><ele>940.0</ele><time>2026-04-25T13:42:27.965Z</time></trkpt><trkpt lat="44.4794117" lon="8.6749867"><ele>940.0</ele><time>2026-04-25T13:42:28.965Z</time></trkpt><trkpt lat="44.47931" lon="8.6751467"><ele>940.0</ele><time>2026-04-25T13:42:29.965Z</time></trkpt><trkpt lat="44.4792517" lon="8.6753167"><ele>940.0</ele><time>2026-04-25T13:42:30.965Z</time></trkpt><trkpt lat="44.4792367" lon="8.675505"><ele>940.0</ele><time>2026-04-25T13:42:31.965Z</time></trkpt><trkpt lat="44.47928" lon="8.6757117"><ele>938.3333333333333</ele><time>2026-04-25T13:42:32.966Z</time></trkpt><trkpt lat="44.479365" lon="8.6759133"><ele>936.6666666666667</ele><time>2026-04-25T13:42:33.965Z</time></trkpt><trkpt lat="44.4794283" lon="8.67613"><ele>935.0</ele><time>2026-04-25T13:42:34.965Z</time></trkpt><trkpt lat="44.4794483" lon="8.6763633"><ele>930.3333333333334</ele><time>2026-04-25T13:42:35.965Z</time></trkpt><trkpt lat="44.47943" lon="8.6766"><ele>925.6666666666667</ele><time>2026-04-25T13:42:36.966Z</time></trkpt><trkpt lat="44.4793983" lon="8.6768433"><ele>921.0</ele><time>2026-04-25T13:42:37.965Z</time></trkpt><trkpt lat="44.4793667" lon="8.6771017"><ele>919.0</ele><time>2026-04-25T13:42:38.965Z</time></trkpt><trkpt lat="44.4793333" lon="8.6773417"><ele>917.0</ele><time>2026-04-25T13:42:39.966Z</time></trkpt><trkpt lat="44.479325" lon="8.67754"><ele>915.0</ele><time>2026-04-25T13:42:40.965Z</time></trkpt><trkpt lat="44.4793517" lon="8.6777233"><ele>917.25</ele><time>2026-04-25T13:42:41.966Z</time></trkpt><trkpt lat="44.47941" lon="8.677875"><ele>919.5</ele><time>2026-04-25T13:42:42.965Z</time></trkpt><trkpt lat="44.4795117" lon="8.677985"><ele>921.75</ele><time>2026-04-25T13:42:43.965Z</time></trkpt><trkpt lat="44.4796567" lon="8.6780933"><ele>924.0</ele><time>2026-04-25T13:42:44.966Z</time></trkpt><trkpt lat="44.4798017" lon="8.6782017"><ele>924.0</ele><time>2026-04-25T13:42:45.965Z</time></trkpt><trkpt lat="44.4799783" lon="8.6783333"><ele>924.0</ele><time>2026-04-25T13:42:46.965Z</time></trkpt><trkpt lat="44.48014" lon="8.6784833"><ele>924.0</ele><time>2026-04-25T13:42:47.966Z</time></trkpt><trkpt lat="44.4802867" lon="8.6786867"><ele>928.6666666666667</ele><time>2026-04-25T13:42:48.965Z</time></trkpt><trkpt lat="44.480425" lon="8.6789"><ele>933.3333333333334</ele><time>2026-04-25T13:42:49.966Z</time></trkpt><trkpt lat="44.4805267" lon="8.6791017"><ele>938.0</ele><time>2026-04-25T13:42:50.965Z</time></trkpt><trkpt lat="44.4806017" lon="8.679295"><ele>932.0</ele><time>2026-04-25T13:42:51.966Z</time></trkpt><trkpt lat="44.48062" lon="8.679535"><ele>926.0</ele><time>2026-04-25T13:42:52.965Z</time></trkpt><trkpt lat="44.480625" lon="8.6797717"><ele>920.0</ele><time>2026-04-25T13:42:53.966Z</time></trkpt><trkpt lat="44.48063" lon="8.6800117"><ele>920.0</ele><time>2026-04-25T13:42:54.966Z</time></trkpt><trkpt lat="44.4806683" lon="8.680225"><ele>920.0</ele><time>2026-04-25T13:42:55.965Z</time></trkpt><trkpt lat="44.4807583" lon="8.6803717"><ele>920.0</ele><time>2026-04-25T13:42:56.965Z</time></trkpt><trkpt lat="44.4808817" lon="8.680475"><ele>920.0</ele><time>2026-04-25T13:42:57.965Z</time></trkpt><trkpt lat="44.4810317" lon="8.680565"><ele>922.0</ele><time>2026-04-25T13:42:58.965Z</time></trkpt><trkpt lat="44.4811817" lon="8.6806767"><ele>924.0</ele><time>2026-04-25T13:42:59.965Z</time></trkpt><trkpt lat="44.481305" lon="8.6808533"><ele>926.0</ele><time>2026-04-25T13:43:00.965Z</time></trkpt><trkpt lat="44.4813833" lon="8.6810783"><ele>916.0</ele><time>2026-04-25T13:43:01.965Z</time></trkpt><trkpt lat="44.48145" lon="8.6813183"><ele>906.0</ele><time>2026-04-25T13:43:02.965Z</time></trkpt><trkpt lat="44.4815133" lon="8.681585"><ele>896.0</ele><time>2026-04-25T13:43:03.965Z</time></trkpt><trkpt lat="44.4815683" lon="8.6818683"><ele>891.0</ele><time>2026-04-25T13:43:04.966Z</time></trkpt><trkpt lat="44.4816267" lon="8.68213"><ele>886.0</ele><time>2026-04-25T13:43:05.965Z</time></trkpt><trkpt lat="44.4816683" lon="8.6823933"><ele>881.0</ele><time>2026-04-25T13:43:06.965Z</time></trkpt><trkpt lat="44.481695" lon="8.68263"><ele>879.3333333333334</ele><time>2026-04-25T13:43:07.966Z</time></trkpt><trkpt lat="44.4816717" lon="8.6828767"><ele>877.6666666666667</ele><time>2026-04-25T13:43:08.965Z</time></trkpt><trkpt lat="44.4816517" lon="8.6830817"><ele>876.0</ele><time>2026-04-25T13:43:09.965Z</time></trkpt><trkpt lat="44.481655" lon="8.6832933"><ele>876.0</ele><time>2026-04-25T13:43:10.965Z</time></trkpt><trkpt lat="44.48169" lon="8.6835283"><ele>876.0</ele><time>2026-04-25T13:43:11.965Z</time></trkpt><trkpt lat="44.4817667" lon="8.68376"><ele>876.0</ele><time>2026-04-25T13:43:12.966Z</time></trkpt><trkpt lat="44.4818617" lon="8.6839967"><ele>875.6666666666667</ele><time>2026-04-25T13:43:13.965Z</time></trkpt><trkpt lat="44.481965" lon="8.68421"><ele>875.3333333333334</ele><time>2026-04-25T13:43:14.965Z</time></trkpt><trkpt lat="44.4820717" lon="8.684405"><ele>875.0</ele><time>2026-04-25T13:43:15.965Z</time></trkpt><trkpt lat="44.4821967" lon="8.684615"><ele>875.0</ele><time>2026-04-25T13:43:16.965Z</time></trkpt><trkpt lat="44.4823467" lon="8.6848133"><ele>875.0</ele><time>2026-04-25T13:43:17.966Z</time></trkpt><trkpt lat="44.4824917" lon="8.685"><ele>875.0</ele><time>2026-04-25T13:43:18.966Z</time></trkpt><trkpt lat="44.4826283" lon="8.6851817"><ele>881.3333333333334</ele><time>2026-04-25T13:43:19.965Z</time></trkpt><trkpt lat="44.48276" lon="8.685345"><ele>887.6666666666667</ele><time>2026-04-25T13:43:20.966Z</time></trkpt><trkpt lat="44.4828617" lon="8.6855267"><ele>894.0</ele><time>2026-04-25T13:43:21.965Z</time></trkpt><trkpt lat="44.4829333" lon="8.6857133"><ele>894.0</ele><time>2026-04-25T13:43:22.965Z</time></trkpt><trkpt lat="44.4829733" lon="8.6858967"><ele>894.0</ele><time>2026-04-25T13:43:23.966Z</time></trkpt><trkpt lat="44.4829483" lon="8.6860817"><ele>894.0</ele><time>2026-04-25T13:43:24.966Z</time></trkpt><trkpt lat="44.4829017" lon="8.6862683"><ele>894.0</ele><time>2026-04-25T13:43:25.965Z</time></trkpt><trkpt lat="44.4827967" lon="8.68644"><ele>884.0</ele><time>2026-04-25T13:43:26.965Z</time></trkpt><trkpt lat="44.4826817" lon="8.6866267"><ele>874.0</ele><time>2026-04-25T13:43:27.965Z</time></trkpt><trkpt lat="44.4825633" lon="8.6867983"><ele>864.0</ele><time>2026-04-25T13:43:28.966Z</time></trkpt><trkpt lat="44.482485" lon="8.6869767"><ele>864.0</ele><time>2026-04-25T13:43:29.966Z</time></trkpt><trkpt lat="44.4824517" lon="8.6871733"><ele>864.0</ele><time>2026-04-25T13:43:30.966Z</time></trkpt><trkpt lat="44.4824633" lon="8.6873817"><ele>864.0</ele><time>2026-04-25T13:43:31.965Z</time></trkpt><trkpt lat="44.4825233" lon="8.687595"><ele>859.6666666666667</ele><time>2026-04-25T13:43:32.965Z</time></trkpt><trkpt lat="44.4826167" lon="8.6878217"><ele>855.3333333333334</ele><time>2026-04-25T13:43:33.965Z</time></trkpt><trkpt lat="44.48271" lon="8.68804"><ele>851.0</ele><time>2026-04-25T13:43:34.965Z</time></trkpt><trkpt lat="44.4827733" lon="8.6882167"><ele>851.0</ele><time>2026-04-25T13:43:35.965Z</time></trkpt><trkpt lat="44.4827817" lon="8.6883883"><ele>851.0</ele><time>2026-04-25T13:43:36.965Z</time></trkpt><trkpt lat="44.482745" lon="8.6885467"><ele>851.0</ele><time>2026-04-25T13:43:37.966Z</time></trkpt><trkpt lat="44.48268" lon="8.6886817"><ele>851.0</ele><time>2026-04-25T13:43:38.965Z</time></trkpt><trkpt lat="44.48261" lon="8.6888117"><ele>853.5</ele><time>2026-04-25T13:43:39.966Z</time></trkpt><trkpt lat="44.4825517" lon="8.6889533"><ele>856.0</ele><time>2026-04-25T13:43:40.965Z</time></trkpt><trkpt lat="44.4825083" lon="8.68912"><ele>858.5</ele><time>2026-04-25T13:43:41.966Z</time></trkpt><trkpt lat="44.4824583" lon="8.6893033"><ele>861.0</ele><time>2026-04-25T13:43:42.965Z</time></trkpt><trkpt lat="44.48241" lon="8.6894983"><ele>864.25</ele><time>2026-04-25T13:43:43.965Z</time></trkpt><trkpt lat="44.48235" lon="8.6896617"><ele>867.5</ele><time>2026-04-25T13:43:44.965Z</time></trkpt><trkpt lat="44.48228" lon="8.689805"><ele>870.75</ele><time>2026-04-25T13:43:45.965Z</time></trkpt><trkpt lat="44.4821833" lon="8.6899317"><ele>874.0</ele><time>2026-04-25T13:43:46.965Z</time></trkpt><trkpt lat="44.482075" lon="8.6900367"><ele>866.0</ele><time>2026-04-25T13:43:47.966Z</time></trkpt><trkpt lat="44.48196" lon="8.6901333"><ele>858.0</ele><time>2026-04-25T13:43:48.965Z</time></trkpt><trkpt lat="44.4818983" lon="8.6902783"><ele>850.0</ele><time>2026-04-25T13:43:49.966Z</time></trkpt><trkpt lat="44.4817883" lon="8.690405"><ele>842.0</ele><time>2026-04-25T13:43:50.965Z</time></trkpt><trkpt lat="44.4817017" lon="8.6905583"><ele>842.0</ele><time>2026-04-25T13:43:51.966Z</time></trkpt><trkpt lat="44.4816233" lon="8.690725"><ele>842.0</ele><time>2026-04-25T13:43:52.965Z</time></trkpt><trkpt lat="44.48159" lon="8.6909117"><ele>842.0</ele><time>2026-04-25T13:43:53.965Z</time></trkpt><trkpt lat="44.481585" lon="8.69112"><ele>842.0</ele><time>2026-04-25T13:43:54.965Z</time></trkpt><trkpt lat="44.4816417" lon="8.6913267"><ele>838.0</ele><time>2026-04-25T13:43:55.966Z</time></trkpt><trkpt lat="44.4817167" lon="8.691545"><ele>834.0</ele><time>2026-04-25T13:43:56.966Z</time></trkpt><trkpt lat="44.4817967" lon="8.6917583"><ele>830.0</ele><time>2026-04-25T13:43:57.965Z</time></trkpt><trkpt lat="44.4818667" lon="8.6919683"><ele>824.0</ele><time>2026-04-25T13:43:58.965Z</time></trkpt><trkpt lat="44.4819317" lon="8.6921633"><ele>818.0</ele><time>2026-04-25T13:43:59.965Z</time></trkpt><trkpt lat="44.4819883" lon="8.6923617"><ele>812.0</ele><time>2026-04-25T13:44:00.965Z</time></trkpt><trkpt lat="44.4820533" lon="8.6925517"><ele>817.0</ele><time>2026-04-25T13:44:01.965Z</time></trkpt><trkpt lat="44.48212" lon="8.6927183"><ele>822.0</ele><time>2026-04-25T13:44:02.965Z</time></trkpt><trkpt lat="44.4822" lon="8.69289"><ele>827.0</ele><time>2026-04-25T13:44:03.966Z</time></trkpt><trkpt lat="44.48229" lon="8.6930533"><ele>832.0</ele><time>2026-04-25T13:44:04.965Z</time></trkpt><trkpt lat="44.4823867" lon="8.6932067"><ele>832.0</ele><time>2026-04-25T13:44:05.965Z</time></trkpt><trkpt lat="44.48248" lon="8.69335"><ele>832.0</ele><time>2026-04-25T13:44:06.965Z</time></trkpt><trkpt lat="44.4825683" lon="8.6935017"><ele>832.0</ele><time>2026-04-25T13:44:07.965Z</time></trkpt><trkpt lat="44.482675" lon="8.6936517"><ele>832.0</ele><time>2026-04-25T13:44:08.965Z</time></trkpt><trkpt lat="44.482745" lon="8.6938067"><ele>829.25</ele><time>2026-04-25T13:44:09.966Z</time></trkpt><trkpt lat="44.4827767" lon="8.6939667"><ele>826.5</ele><time>2026-04-25T13:44:10.965Z</time></trkpt><trkpt lat="44.4827583" lon="8.694115"><ele>823.75</ele><time>2026-04-25T13:44:11.966Z</time></trkpt><trkpt lat="44.48269" lon="8.694255"><ele>821.0</ele><time>2026-04-25T13:44:12.966Z</time></trkpt><trkpt lat="44.4825683" lon="8.69438"><ele>823.3333333333334</ele><time>2026-04-25T13:44:13.965Z</time></trkpt><trkpt lat="44.482435" lon="8.694505"><ele>825.6666666666667</ele><time>2026-04-25T13:44:14.965Z</time></trkpt><trkpt lat="44.4822917" lon="8.6946417"><ele>828.0</ele><time>2026-04-25T13:44:15.966Z</time></trkpt><trkpt lat="44.48215" lon="8.6947867"><ele>819.3333333333333</ele><time>2026-04-25T13:44:16.966Z</time></trkpt><trkpt lat="44.4820133" lon="8.6949083"><ele>810.6666666666666</ele><time>2026-04-25T13:44:17.965Z</time></trkpt><trkpt lat="44.4818783" lon="8.6950333"><ele>802.0</ele><time>2026-04-25T13:44:18.965Z</time></trkpt><trkpt lat="44.48174" lon="8.6951517"><ele>808.3333333333333</ele><time>2026-04-25T13:44:19.965Z</time></trkpt><trkpt lat="44.4816033" lon="8.6952633"><ele>814.6666666666667</ele><time>2026-04-25T13:44:20.965Z</time></trkpt><trkpt lat="44.4814783" lon="8.6953833"><ele>821.0</ele><time>2026-04-25T13:44:21.965Z</time></trkpt><trkpt lat="44.4813667" lon="8.695505"><ele>813.25</ele><time>2026-04-25T13:44:22.965Z</time></trkpt><trkpt lat="44.4812633" lon="8.6956383"><ele>805.5</ele><time>2026-04-25T13:44:23.966Z</time></trkpt><trkpt lat="44.48116" lon="8.6957717"><ele>797.75</ele><time>2026-04-25T13:44:24.965Z</time></trkpt><trkpt lat="44.4810617" lon="8.6959217"><ele>790.0</ele><time>2026-04-25T13:44:25.965Z</time></trkpt><trkpt lat="44.48097" lon="8.6960817"><ele>793.3333333333333</ele><time>2026-04-25T13:44:26.965Z</time></trkpt><trkpt lat="44.4808917" lon="8.69626"><ele>796.6666666666667</ele><time>2026-04-25T13:44:27.965Z</time></trkpt><trkpt lat="44.4808367" lon="8.6964583"><ele>800.0</ele><time>2026-04-25T13:44:28.965Z</time></trkpt><trkpt lat="44.4808017" lon="8.696675"><ele>800.0</ele><time>2026-04-25T13:44:29.966Z</time></trkpt><trkpt lat="44.4808067" lon="8.6969017"><ele>800.0</ele><time>2026-04-25T13:44:30.966Z</time></trkpt><trkpt lat="44.4808333" lon="8.6971217"><ele>800.0</ele><time>2026-04-25T13:44:31.966Z</time></trkpt><trkpt lat="44.4808317" lon="8.6973233"><ele>799.75</ele><time>2026-04-25T13:44:32.965Z</time></trkpt><trkpt lat="44.4808017" lon="8.6975183"><ele>799.5</ele><time>2026-04-25T13:44:33.965Z</time></trkpt><trkpt lat="44.48073" lon="8.697685"><ele>799.25</ele><time>2026-04-25T13:44:34.966Z</time></trkpt><trkpt lat="44.4806383" lon="8.6978417"><ele>799.0</ele><time>2026-04-25T13:44:35.965Z</time></trkpt><trkpt lat="44.48055" lon="8.6979967"><ele>798.25</ele><time>2026-04-25T13:44:36.966Z</time></trkpt><trkpt lat="44.480475" lon="8.6981617"><ele>797.5</ele><time>2026-04-25T13:44:37.966Z</time></trkpt><trkpt lat="44.480435" lon="8.6983333"><ele>796.75</ele><time>2026-04-25T13:44:38.965Z</time></trkpt><trkpt lat="44.4804367" lon="8.6985183"><ele>796.0</ele><time>2026-04-25T13:44:39.965Z</time></trkpt><trkpt lat="44.4804867" lon="8.6986967"><ele>792.25</ele><time>2026-04-25T13:44:40.965Z</time></trkpt><trkpt lat="44.4805833" lon="8.6988367"><ele>788.5</ele><time>2026-04-25T13:44:41.965Z</time></trkpt><trkpt lat="44.4806967" lon="8.6989533"><ele>784.75</ele><time>2026-04-25T13:44:42.965Z</time></trkpt><trkpt lat="44.4808067" lon="8.699085"><ele>781.0</ele><time>2026-04-25T13:44:43.965Z</time></trkpt><trkpt lat="44.4808883" lon="8.69924"><ele>781.0</ele><time>2026-04-25T13:44:44.965Z</time></trkpt><trkpt lat="44.48094" lon="8.699415"><ele>781.0</ele><time>2026-04-25T13:44:45.966Z</time></trkpt><trkpt lat="44.48095" lon="8.6995967"><ele>781.0</ele><time>2026-04-25T13:44:46.966Z</time></trkpt><trkpt lat="44.4808983" lon="8.6997517"><ele>781.0</ele><time>2026-04-25T13:44:47.965Z</time></trkpt><trkpt lat="44.4808533" lon="8.6999117"><ele>777.3333333333333</ele><time>2026-04-25T13:44:48.966Z</time></trkpt><trkpt lat="44.48084" lon="8.7000917"><ele>773.6666666666667</ele><time>2026-04-25T13:44:49.965Z</time></trkpt><trkpt lat="44.4808667" lon="8.7003067"><ele>770.0</ele><time>2026-04-25T13:44:50.965Z</time></trkpt><trkpt lat="44.4809167" lon="8.7005383"><ele>768.6666666666667</ele><time>2026-04-25T13:44:51.965Z</time></trkpt><trkpt lat="44.4809717" lon="8.7007633"><ele>767.3333333333334</ele><time>2026-04-25T13:44:52.966Z</time></trkpt><trkpt lat="44.4810217" lon="8.7010017"><ele>766.0</ele><time>2026-04-25T13:44:53.965Z</time></trkpt><trkpt lat="44.4810367" lon="8.7012433"><ele>764.6666666666667</ele><time>2026-04-25T13:44:54.965Z</time></trkpt><trkpt lat="44.48104" lon="8.7014883"><ele>763.3333333333334</ele><time>2026-04-25T13:44:55.966Z</time></trkpt><trkpt lat="44.4810283" lon="8.70172"><ele>762.0</ele><time>2026-04-25T13:44:56.965Z</time></trkpt><trkpt lat="44.4810083" lon="8.7019483"><ele>762.0</ele><time>2026-04-25T13:44:57.965Z</time></trkpt><trkpt lat="44.4809767" lon="8.70218"><ele>762.0</ele><time>2026-04-25T13:44:58.966Z</time></trkpt><trkpt lat="44.4809167" lon="8.7023883"><ele>762.0</ele><time>2026-04-25T13:44:59.965Z</time></trkpt><trkpt lat="44.4808033" lon="8.7025617"><ele>762.0</ele><time>2026-04-25T13:45:00.966Z</time></trkpt><trkpt lat="44.4806717" lon="8.70272"><ele>762.0</ele><time>2026-04-25T13:45:01.965Z</time></trkpt><trkpt lat="44.48057" lon="8.7028767"><ele>762.0</ele><time>2026-04-25T13:45:02.966Z</time></trkpt><trkpt lat="44.4805" lon="8.7030483"><ele>764.5</ele><time>2026-04-25T13:45:03.965Z</time></trkpt><trkpt lat="44.4804617" lon="8.7032367"><ele>767.0</ele><time>2026-04-25T13:45:04.965Z</time></trkpt><trkpt lat="44.4804117" lon="8.703425"><ele>769.5</ele><time>2026-04-25T13:45:05.965Z</time></trkpt><trkpt lat="44.4803483" lon="8.7036"><ele>772.0</ele><time>2026-04-25T13:45:06.965Z</time></trkpt><trkpt lat="44.4802483" lon="8.703775"><ele>772.0</ele><time>2026-04-25T13:45:07.965Z</time></trkpt><trkpt lat="44.480125" lon="8.7039667"><ele>772.0</ele><time>2026-04-25T13:45:08.965Z</time></trkpt><trkpt lat="44.4800017" lon="8.7041433"><ele>772.0</ele><time>2026-04-25T13:45:09.965Z</time></trkpt><trkpt lat="44.47986" lon="8.704325"><ele>769.6666666666666</ele><time>2026-04-25T13:45:10.966Z</time></trkpt><trkpt lat="44.4797233" lon="8.70449"><ele>767.3333333333333</ele><time>2026-04-25T13:45:11.966Z</time></trkpt><trkpt lat="44.4795917" lon="8.7046567"><ele>765.0</ele><time>2026-04-25T13:45:12.965Z</time></trkpt><trkpt lat="44.4794383" lon="8.7048167"><ele>765.0</ele><time>2026-04-25T13:45:13.965Z</time></trkpt><trkpt lat="44.47927" lon="8.7049483"><ele>765.0</ele><time>2026-04-25T13:45:14.965Z</time></trkpt><trkpt lat="44.4791" lon="8.705045"><ele>765.0</ele><time>2026-04-25T13:45:15.965Z</time></trkpt><trkpt lat="44.478935" lon="8.7051217"><ele>765.0</ele><time>2026-04-25T13:45:16.965Z</time></trkpt><trkpt lat="44.47878" lon="8.70519"><ele>765.0</ele><time>2026-04-25T13:45:17.965Z</time></trkpt><trkpt lat="44.478655" lon="8.7052583"><ele>765.0</ele><time>2026-04-25T13:45:18.965Z</time></trkpt><trkpt lat="44.4785633" lon="8.7053467"><ele>765.0</ele><time>2026-04-25T13:45:19.966Z</time></trkpt><trkpt lat="44.4785133" lon="8.7054667"><ele>763.25</ele><time>2026-04-25T13:45:20.965Z</time></trkpt><trkpt lat="44.4785367" lon="8.7055933"><ele>761.5</ele><time>2026-04-25T13:45:21.965Z</time></trkpt><trkpt lat="44.4786067" lon="8.7057183"><ele>759.75</ele><time>2026-04-25T13:45:22.965Z</time></trkpt><trkpt lat="44.4787067" lon="8.7058283"><ele>758.0</ele><time>2026-04-25T13:45:23.965Z</time></trkpt><trkpt lat="44.47882" lon="8.7059467"><ele>761.75</ele><time>2026-04-25T13:45:24.965Z</time></trkpt><trkpt lat="44.4789383" lon="8.7060817"><ele>765.5</ele><time>2026-04-25T13:45:25.966Z</time></trkpt><trkpt lat="44.4790283" lon="8.7062233"><ele>769.25</ele><time>2026-04-25T13:45:26.965Z</time></trkpt><trkpt lat="44.4790917" lon="8.7063767"><ele>773.0</ele><time>2026-04-25T13:45:27.965Z</time></trkpt><trkpt lat="44.4791167" lon="8.70658"><ele>773.0</ele><time>2026-04-25T13:45:28.965Z</time></trkpt><trkpt lat="44.479105" lon="8.7067833"><ele>773.0</ele><time>2026-04-25T13:45:29.965Z</time></trkpt><trkpt lat="44.4790617" lon="8.7069767"><ele>773.0</ele><time>2026-04-25T13:45:30.966Z</time></trkpt><trkpt lat="44.478995" lon="8.7071583"><ele>773.0</ele><time>2026-04-25T13:45:31.965Z</time></trkpt><trkpt lat="44.4789417" lon="8.7073167"><ele>773.25</ele><time>2026-04-25T13:45:32.965Z</time></trkpt><trkpt lat="44.4789217" lon="8.7074667"><ele>773.5</ele><time>2026-04-25T13:45:33.966Z</time></trkpt><trkpt lat="44.47895" lon="8.7076333"><ele>773.75</ele><time>2026-04-25T13:45:34.966Z</time></trkpt><trkpt lat="44.478995" lon="8.70781"><ele>774.0</ele><time>2026-04-25T13:45:35.966Z</time></trkpt><trkpt lat="44.4790017" lon="8.7079667"><ele>774.2</ele><time>2026-04-25T13:45:36.965Z</time></trkpt><trkpt lat="44.4789683" lon="8.70809"><ele>774.4000000000001</ele><time>2026-04-25T13:45:37.966Z</time></trkpt><trkpt lat="44.47889" lon="8.7082183"><ele>774.6</ele><time>2026-04-25T13:45:38.965Z</time></trkpt><trkpt lat="44.47882" lon="8.7083333"><ele>774.8</ele><time>2026-04-25T13:45:39.965Z</time></trkpt><trkpt lat="44.4788017" lon="8.7084533"><ele>775.0</ele><time>2026-04-25T13:45:40.966Z</time></trkpt><trkpt lat="44.4788233" lon="8.7085883"><ele>775.0</ele><time>2026-04-25T13:45:41.965Z</time></trkpt><trkpt lat="44.47886" lon="8.7087367"><ele>775.0</ele><time>2026-04-25T13:45:42.966Z</time></trkpt><trkpt lat="44.4788883" lon="8.708885"><ele>775.0</ele><time>2026-04-25T13:45:43.965Z</time></trkpt><trkpt lat="44.4788783" lon="8.709025"><ele>775.0</ele><time>2026-04-25T13:45:44.966Z</time></trkpt><trkpt lat="44.478825" lon="8.709145"><ele>775.0</ele><time>2026-04-25T13:45:45.966Z</time></trkpt><trkpt lat="44.4787533" lon="8.7092517"><ele>769.75</ele><time>2026-04-25T13:45:46.965Z</time></trkpt><trkpt lat="44.4786567" lon="8.7093567"><ele>764.5</ele><time>2026-04-25T13:45:47.966Z</time></trkpt><trkpt lat="44.47855" lon="8.7094817"><ele>759.25</ele><time>2026-04-25T13:45:48.966Z</time></trkpt><trkpt lat="44.47844" lon="8.7096"><ele>754.0</ele><time>2026-04-25T13:45:49.966Z</time></trkpt><trkpt lat="44.47833" lon="8.7096967"><ele>754.0</ele><time>2026-04-25T13:45:50.965Z</time></trkpt><trkpt lat="44.478235" lon="8.7098083"><ele>754.0</ele><time>2026-04-25T13:45:51.965Z</time></trkpt><trkpt lat="44.4781383" lon="8.7099383"><ele>754.0</ele><time>2026-04-25T13:45:52.965Z</time></trkpt><trkpt lat="44.478065" lon="8.710115"><ele>754.0</ele><time>2026-04-25T13:45:53.966Z</time></trkpt><trkpt lat="44.4779917" lon="8.710305"><ele>750.25</ele><time>2026-04-25T13:45:54.966Z</time></trkpt><trkpt lat="44.4779233" lon="8.7104817"><ele>746.5</ele><time>2026-04-25T13:45:55.965Z</time></trkpt><trkpt lat="44.4778633" lon="8.7106617"><ele>742.75</ele><time>2026-04-25T13:45:56.966Z</time></trkpt><trkpt lat="44.4778167" lon="8.7108433"><ele>739.0</ele><time>2026-04-25T13:45:57.965Z</time></trkpt><trkpt lat="44.47776" lon="8.7109983"><ele>740.0</ele><time>2026-04-25T13:45:58.965Z</time></trkpt><trkpt lat="44.477685" lon="8.71109"><ele>741.0</ele><time>2026-04-25T13:45:59.965Z</time></trkpt><trkpt lat="44.477595" lon="8.7111517"><ele>742.0</ele><time>2026-04-25T13:46:00.966Z</time></trkpt><trkpt lat="44.4774967" lon="8.711235"><ele>743.0</ele><time>2026-04-25T13:46:01.966Z</time></trkpt><trkpt lat="44.4774067" lon="8.711345"><ele>744.0</ele><time>2026-04-25T13:46:02.965Z</time></trkpt><trkpt lat="44.4773367" lon="8.711485"><ele>744.0</ele><time>2026-04-25T13:46:03.966Z</time></trkpt><trkpt lat="44.47729" lon="8.7116017"><ele>744.0</ele><time>2026-04-25T13:46:04.966Z</time></trkpt><trkpt lat="44.4772883" lon="8.711725"><ele>744.0</ele><time>2026-04-25T13:46:05.965Z</time></trkpt><trkpt lat="44.4773433" lon="8.7118233"><ele>744.0</ele><time>2026-04-25T13:46:06.966Z</time></trkpt><trkpt lat="44.47742" lon="8.7119133"><ele>744.0</ele><time>2026-04-25T13:46:07.966Z</time></trkpt><trkpt lat="44.477495" lon="8.7119733"><ele>740.0</ele><time>2026-04-25T13:46:08.965Z</time></trkpt><trkpt lat="44.4775767" lon="8.7120183"><ele>736.0</ele><time>2026-04-25T13:46:09.965Z</time></trkpt><trkpt lat="44.4776683" lon="8.7120283"><ele>732.0</ele><time>2026-04-25T13:46:10.965Z</time></trkpt><trkpt lat="44.4777733" lon="8.712"><ele>728.0</ele><time>2026-04-25T13:46:11.965Z</time></trkpt><trkpt lat="44.4778817" lon="8.7119883"><ele>724.0</ele><time>2026-04-25T13:46:12.966Z</time></trkpt><trkpt lat="44.47798" lon="8.7120233"><ele>723.2</ele><time>2026-04-25T13:46:13.966Z</time></trkpt><trkpt lat="44.47807" lon="8.7121017"><ele>722.4000000000001</ele><time>2026-04-25T13:46:14.966Z</time></trkpt><trkpt lat="44.4781467" lon="8.7121983"><ele>721.6</ele><time>2026-04-25T13:46:15.965Z</time></trkpt><trkpt lat="44.47823" lon="8.712285"><ele>720.8</ele><time>2026-04-25T13:46:16.966Z</time></trkpt><trkpt lat="44.4783333" lon="8.71233"><ele>720.0</ele><time>2026-04-25T13:46:17.965Z</time></trkpt><trkpt lat="44.47846" lon="8.712345"><ele>720.0</ele><time>2026-04-25T13:46:18.966Z</time></trkpt><trkpt lat="44.478605" lon="8.712335"><ele>720.0</ele><time>2026-04-25T13:46:19.965Z</time></trkpt><trkpt lat="44.4787583" lon="8.7123067"><ele>720.0</ele><time>2026-04-25T13:46:20.965Z</time></trkpt><trkpt lat="44.4789117" lon="8.712275"><ele>716.6666666666666</ele><time>2026-04-25T13:46:21.965Z</time></trkpt><trkpt lat="44.4790683" lon="8.7122"><ele>713.3333333333333</ele><time>2026-04-25T13:46:22.965Z</time></trkpt><trkpt lat="44.479195" lon="8.71204"><ele>710.0</ele><time>2026-04-25T13:46:23.965Z</time></trkpt><trkpt lat="44.4793" lon="8.7118733"><ele>713.25</ele><time>2026-04-25T13:46:24.965Z</time></trkpt><trkpt lat="44.479395" lon="8.7117217"><ele>716.5</ele><time>2026-04-25T13:46:25.965Z</time></trkpt><trkpt lat="44.4794717" lon="8.71159"><ele>719.75</ele><time>2026-04-25T13:46:26.966Z</time></trkpt><trkpt lat="44.4795567" lon="8.7114783"><ele>723.0</ele><time>2026-04-25T13:46:27.966Z</time></trkpt><trkpt lat="44.4796517" lon="8.71138"><ele>723.0</ele><time>2026-04-25T13:46:28.965Z</time></trkpt><trkpt lat="44.4797417" lon="8.711325"><ele>723.0</ele><time>2026-04-25T13:46:29.966Z</time></trkpt><trkpt lat="44.4798317" lon="8.7113033"><ele>723.0</ele><time>2026-04-25T13:46:30.965Z</time></trkpt><trkpt lat="44.47994" lon="8.7113383"><ele>723.0</ele><time>2026-04-25T13:46:31.966Z</time></trkpt><trkpt lat="44.4800633" lon="8.7114217"><ele>723.0</ele><time>2026-04-25T13:46:32.964Z</time></trkpt><trkpt lat="44.4801833" lon="8.7115133"><ele>723.0</ele><time>2026-04-25T13:46:33.964Z</time></trkpt><trkpt lat="44.48031" lon="8.7116383"><ele>723.0</ele><time>2026-04-25T13:46:34.964Z</time></trkpt><trkpt lat="44.4804183" lon="8.7117367"><ele>723.0</ele><time>2026-04-25T13:46:35.965Z</time></trkpt><trkpt lat="44.48048" lon="8.7118967"><ele>723.0</ele><time>2026-04-25T13:46:36.964Z</time></trkpt><trkpt lat="44.48055" lon="8.7120183"><ele>718.25</ele><time>2026-04-25T13:46:37.964Z</time></trkpt><trkpt lat="44.480645" lon="8.71213"><ele>713.5</ele><time>2026-04-25T13:46:38.965Z</time></trkpt><trkpt lat="44.4807483" lon="8.7122"><ele>708.75</ele><time>2026-04-25T13:46:39.965Z</time></trkpt><trkpt lat="44.4808817" lon="8.71227"><ele>704.0</ele><time>2026-04-25T13:46:40.964Z</time></trkpt><trkpt lat="44.4810267" lon="8.7123683"><ele>704.0</ele><time>2026-04-25T13:46:41.964Z</time></trkpt><trkpt lat="44.48117" lon="8.7124883"><ele>704.0</ele><time>2026-04-25T13:46:42.965Z</time></trkpt><trkpt lat="44.48129" lon="8.7126167"><ele>704.0</ele><time>2026-04-25T13:46:43.965Z</time></trkpt><trkpt lat="44.4814083" lon="8.7126817"><ele>704.0</ele><time>2026-04-25T13:46:44.965Z</time></trkpt><trkpt lat="44.4815283" lon="8.71273"><ele>701.5</ele><time>2026-04-25T13:46:45.965Z</time></trkpt><trkpt lat="44.4816383" lon="8.7127817"><ele>699.0</ele><time>2026-04-25T13:46:46.964Z</time></trkpt><trkpt lat="44.48173" lon="8.7128767"><ele>696.5</ele><time>2026-04-25T13:46:47.964Z</time></trkpt><trkpt lat="44.48179" lon="8.7129983"><ele>694.0</ele><time>2026-04-25T13:46:48.964Z</time></trkpt><trkpt lat="44.4818633" lon="8.71316"><ele>694.0</ele><time>2026-04-25T13:46:49.964Z</time></trkpt><trkpt lat="44.481955" lon="8.7133183"><ele>694.0</ele><time>2026-04-25T13:46:50.964Z</time></trkpt><trkpt lat="44.4820567" lon="8.71343"><ele>694.0</ele><time>2026-04-25T13:46:51.964Z</time></trkpt><trkpt lat="44.4822067" lon="8.71342"><ele>694.0</ele><time>2026-04-25T13:46:52.964Z</time></trkpt><trkpt lat="44.4823867" lon="8.713345"><ele>695.6666666666667</ele><time>2026-04-25T13:46:53.964Z</time></trkpt><trkpt lat="44.4825467" lon="8.713295"><ele>697.3333333333334</ele><time>2026-04-25T13:46:54.964Z</time></trkpt><trkpt lat="44.4827117" lon="8.7132467"><ele>699.0</ele><time>2026-04-25T13:46:55.965Z</time></trkpt><trkpt lat="44.4828683" lon="8.7131917"><ele>694.3333333333334</ele><time>2026-04-25T13:46:56.964Z</time></trkpt><trkpt lat="44.4830217" lon="8.7131367"><ele>689.6666666666667</ele><time>2026-04-25T13:46:57.965Z</time></trkpt><trkpt lat="44.4831733" lon="8.71308"><ele>685.0</ele><time>2026-04-25T13:46:58.964Z</time></trkpt><trkpt lat="44.483325" lon="8.7130467"><ele>685.0</ele><time>2026-04-25T13:46:59.965Z</time></trkpt><trkpt lat="44.4834683" lon="8.713035"><ele>685.0</ele><time>2026-04-25T13:47:00.964Z</time></trkpt><trkpt lat="44.4835967" lon="8.71309"><ele>685.0</ele><time>2026-04-25T13:47:01.965Z</time></trkpt><trkpt lat="44.483735" lon="8.7131633"><ele>685.0</ele><time>2026-04-25T13:47:02.964Z</time></trkpt><trkpt lat="44.48388" lon="8.7131783"><ele>685.75</ele><time>2026-04-25T13:47:03.964Z</time></trkpt><trkpt lat="44.4840367" lon="8.7131967"><ele>686.5</ele><time>2026-04-25T13:47:04.965Z</time></trkpt><trkpt lat="44.484185" lon="8.713245"><ele>687.25</ele><time>2026-04-25T13:47:05.964Z</time></trkpt><trkpt lat="44.4843117" lon="8.7133"><ele>688.0</ele><time>2026-04-25T13:47:06.964Z</time></trkpt><trkpt lat="44.4844367" lon="8.713385"><ele>688.0</ele><time>2026-04-25T13:47:07.964Z</time></trkpt><trkpt lat="44.4845417" lon="8.7135"><ele>688.0</ele><time>2026-04-25T13:47:08.964Z</time></trkpt><trkpt lat="44.4846083" lon="8.7136317"><ele>688.0</ele><time>2026-04-25T13:47:09.964Z</time></trkpt><trkpt lat="44.4846183" lon="8.7138183"><ele>688.0</ele><time>2026-04-25T13:47:10.965Z</time></trkpt><trkpt lat="44.4846467" lon="8.71399"><ele>685.5</ele><time>2026-04-25T13:47:11.964Z</time></trkpt><trkpt lat="44.484725" lon="8.71414"><ele>683.0</ele><time>2026-04-25T13:47:12.965Z</time></trkpt><trkpt lat="44.4848167" lon="8.7142667"><ele>680.5</ele><time>2026-04-25T13:47:13.964Z</time></trkpt><trkpt lat="44.484915" lon="8.7143667"><ele>678.0</ele><time>2026-04-25T13:47:14.964Z</time></trkpt><trkpt lat="44.485025" lon="8.71445"><ele>672.75</ele><time>2026-04-25T13:47:15.965Z</time></trkpt><trkpt lat="44.4851317" lon="8.71455"><ele>667.5</ele><time>2026-04-25T13:47:16.965Z</time></trkpt><trkpt lat="44.4852217" lon="8.7146883"><ele>662.25</ele><time>2026-04-25T13:47:17.964Z</time></trkpt><trkpt lat="44.485315" lon="8.7147833"><ele>657.0</ele><time>2026-04-25T13:47:18.965Z</time></trkpt><trkpt lat="44.4854233" lon="8.7148467"><ele>659.25</ele><time>2026-04-25T13:47:19.964Z</time></trkpt><trkpt lat="44.4855467" lon="8.7148833"><ele>661.5</ele><time>2026-04-25T13:47:20.964Z</time></trkpt><trkpt lat="44.4856767" lon="8.7149117"><ele>663.75</ele><time>2026-04-25T13:47:21.964Z</time></trkpt><trkpt lat="44.4857867" lon="8.7149483"><ele>666.0</ele><time>2026-04-25T13:47:22.964Z</time></trkpt><trkpt lat="44.4858967" lon="8.714985"><ele>666.0</ele><time>2026-04-25T13:47:23.965Z</time></trkpt><trkpt lat="44.4859783" lon="8.7150717"><ele>666.0</ele><time>2026-04-25T13:47:24.964Z</time></trkpt><trkpt lat="44.4860233" lon="8.7151967"><ele>666.0</ele><time>2026-04-25T13:47:25.965Z</time></trkpt><trkpt lat="44.4860483" lon="8.71532"><ele>666.0</ele><time>2026-04-25T13:47:26.964Z</time></trkpt><trkpt lat="44.4860583" lon="8.7154617"><ele>666.0</ele><time>2026-04-25T13:47:27.965Z</time></trkpt><trkpt lat="44.48605" lon="8.7155967"><ele>664.25</ele><time>2026-04-25T13:47:28.964Z</time></trkpt><trkpt lat="44.4860167" lon="8.715735"><ele>662.5</ele><time>2026-04-25T13:47:29.964Z</time></trkpt><trkpt lat="44.4859633" lon="8.7158567"><ele>660.75</ele><time>2026-04-25T13:47:30.964Z</time></trkpt><trkpt lat="44.4858483" lon="8.7159517"><ele>659.0</ele><time>2026-04-25T13:47:31.964Z</time></trkpt><trkpt lat="44.4857517" lon="8.7160367"><ele>657.4000000000001</ele><time>2026-04-25T13:47:32.964Z</time></trkpt><trkpt lat="44.4856667" lon="8.7161133"><ele>655.8</ele><time>2026-04-25T13:47:33.964Z</time></trkpt><trkpt lat="44.4855783" lon="8.71619"><ele>654.2</ele><time>2026-04-25T13:47:34.965Z</time></trkpt><trkpt lat="44.4855083" lon="8.716275"><ele>652.5999999999999</ele><time>2026-04-25T13:47:35.965Z</time></trkpt><trkpt lat="44.4854583" lon="8.7163667"><ele>651.0</ele><time>2026-04-25T13:47:36.964Z</time></trkpt><trkpt lat="44.4854333" lon="8.7164633"><ele>651.0</ele><time>2026-04-25T13:47:37.964Z</time></trkpt><trkpt lat="44.48547" lon="8.7165767"><ele>651.0</ele><time>2026-04-25T13:47:38.964Z</time></trkpt><trkpt lat="44.4855233" lon="8.7166683"><ele>651.0</ele><time>2026-04-25T13:47:39.965Z</time></trkpt><trkpt lat="44.4855933" lon="8.7167333"><ele>651.0</ele><time>2026-04-25T13:47:40.964Z</time></trkpt><trkpt lat="44.4856767" lon="8.7167717"><ele>651.0</ele><time>2026-04-25T13:47:41.965Z</time></trkpt><trkpt lat="44.48579" lon="8.7167767"><ele>651.0</ele><time>2026-04-25T13:47:42.964Z</time></trkpt><trkpt lat="44.4859167" lon="8.7167683"><ele>651.0</ele><time>2026-04-25T13:47:43.964Z</time></trkpt><trkpt lat="44.48604" lon="8.7167667"><ele>651.0</ele><time>2026-04-25T13:47:44.964Z</time></trkpt><trkpt lat="44.4861567" lon="8.7167733"><ele>651.0</ele><time>2026-04-25T13:47:45.964Z</time></trkpt><trkpt lat="44.4862633" lon="8.7167833"><ele>652.4</ele><time>2026-04-25T13:47:46.964Z</time></trkpt><trkpt lat="44.48636" lon="8.7167917"><ele>653.8</ele><time>2026-04-25T13:47:47.965Z</time></trkpt><trkpt lat="44.48645" lon="8.7167967"><ele>655.1999999999999</ele><time>2026-04-25T13:47:48.964Z</time></trkpt><trkpt lat="44.4865483" lon="8.7168067"><ele>656.5999999999999</ele><time>2026-04-25T13:47:49.964Z</time></trkpt><trkpt lat="44.48663" lon="8.7168233"><ele>658.0</ele><time>2026-04-25T13:47:50.964Z</time></trkpt><trkpt lat="44.4867083" lon="8.7168783"><ele>654.25</ele><time>2026-04-25T13:47:51.964Z</time></trkpt><trkpt lat="44.486785" lon="8.71699"><ele>650.5</ele><time>2026-04-25T13:47:52.964Z</time></trkpt><trkpt lat="44.4868283" lon="8.7171267"><ele>646.75</ele><time>2026-04-25T13:47:53.965Z</time></trkpt><trkpt lat="44.4868367" lon="8.7173017"><ele>643.0</ele><time>2026-04-25T13:47:54.964Z</time></trkpt><trkpt lat="44.486825" lon="8.71747"><ele>643.0</ele><time>2026-04-25T13:47:55.964Z</time></trkpt><trkpt lat="44.4868" lon="8.71762"><ele>643.0</ele><time>2026-04-25T13:47:56.964Z</time></trkpt><trkpt lat="44.4867733" lon="8.7177667"><ele>643.0</ele><time>2026-04-25T13:47:57.964Z</time></trkpt><trkpt lat="44.4867517" lon="8.7179067"><ele>643.0</ele><time>2026-04-25T13:47:58.964Z</time></trkpt><trkpt lat="44.4867417" lon="8.7180317"><ele>643.0</ele><time>2026-04-25T13:47:59.964Z</time></trkpt><trkpt lat="44.4867367" lon="8.7181417"><ele>641.6666666666667</ele><time>2026-04-25T13:48:00.964Z</time></trkpt><trkpt lat="44.486745" lon="8.718245"><ele>640.3333333333334</ele><time>2026-04-25T13:48:01.964Z</time></trkpt><trkpt lat="44.4867617" lon="8.7183483"><ele>639.0</ele><time>2026-04-25T13:48:02.964Z</time></trkpt><trkpt lat="44.4867933" lon="8.7184533"><ele>637.6666666666666</ele><time>2026-04-25T13:48:03.964Z</time></trkpt><trkpt lat="44.4868233" lon="8.7185467"><ele>636.3333333333333</ele><time>2026-04-25T13:48:04.964Z</time></trkpt><trkpt lat="44.48686" lon="8.7186417"><ele>635.0</ele><time>2026-04-25T13:48:05.965Z</time></trkpt><trkpt lat="44.4868917" lon="8.7187317"><ele>634.4285714285713</ele><time>2026-04-25T13:48:06.964Z</time></trkpt><trkpt lat="44.486915" lon="8.71883"><ele>633.8571428571429</ele><time>2026-04-25T13:48:07.964Z</time></trkpt><trkpt lat="44.486915" lon="8.7189283"><ele>633.2857142857142</ele><time>2026-04-25T13:48:08.965Z</time></trkpt><trkpt lat="44.48691" lon="8.7190167"><ele>632.7142857142857</ele><time>2026-04-25T13:48:09.964Z</time></trkpt><trkpt lat="44.48687" lon="8.719105"><ele>632.1428571428571</ele><time>2026-04-25T13:48:10.965Z</time></trkpt><trkpt lat="44.486815" lon="8.719185"><ele>631.5714285714286</ele><time>2026-04-25T13:48:11.964Z</time></trkpt><trkpt lat="44.48676" lon="8.7192667"><ele>631.0</ele><time>2026-04-25T13:48:12.964Z</time></trkpt><trkpt lat="44.4867183" lon="8.71935"><ele>633.3333333333334</ele><time>2026-04-25T13:48:13.964Z</time></trkpt><trkpt lat="44.4866733" lon="8.7194417"><ele>635.6666666666667</ele><time>2026-04-25T13:48:14.965Z</time></trkpt><trkpt lat="44.4866367" lon="8.7195433"><ele>638.0</ele><time>2026-04-25T13:48:15.964Z</time></trkpt><trkpt lat="44.4866017" lon="8.7196567"><ele>640.3333333333334</ele><time>2026-04-25T13:48:16.965Z</time></trkpt><trkpt lat="44.486565" lon="8.7197733"><ele>642.6666666666666</ele><time>2026-04-25T13:48:17.965Z</time></trkpt><trkpt lat="44.4865233" lon="8.71989"><ele>645.0</ele><time>2026-04-25T13:48:18.965Z</time></trkpt><trkpt lat="44.4864783" lon="8.7200083"><ele>645.0</ele><time>2026-04-25T13:48:19.964Z</time></trkpt><trkpt lat="44.48644" lon="8.7201033"><ele>645.0</ele><time>2026-04-25T13:48:20.964Z</time></trkpt><trkpt lat="44.486385" lon="8.7202117"><ele>645.0</ele><time>2026-04-25T13:48:21.965Z</time></trkpt><trkpt lat="44.486335" lon="8.72031"><ele>645.0</ele><time>2026-04-25T13:48:22.964Z</time></trkpt><trkpt lat="44.486295" lon="8.7204117"><ele>645.0</ele><time>2026-04-25T13:48:23.965Z</time></trkpt><trkpt lat="44.4862733" lon="8.72053"><ele>645.0</ele><time>2026-04-25T13:48:24.965Z</time></trkpt><trkpt lat="44.4862683" lon="8.720645"><ele>644.6</ele><time>2026-04-25T13:48:25.964Z</time></trkpt><trkpt lat="44.4862733" lon="8.7207783"><ele>644.2</ele><time>2026-04-25T13:48:26.964Z</time></trkpt><trkpt lat="44.486295" lon="8.7208933"><ele>643.8</ele><time>2026-04-25T13:48:27.964Z</time></trkpt><trkpt lat="44.4862983" lon="8.7210233"><ele>643.4</ele><time>2026-04-25T13:48:28.965Z</time></trkpt><trkpt lat="44.4863083" lon="8.7211517"><ele>643.0</ele><time>2026-04-25T13:48:29.964Z</time></trkpt><trkpt lat="44.4863217" lon="8.7212733"><ele>638.6</ele><time>2026-04-25T13:48:30.964Z</time></trkpt><trkpt lat="44.4863617" lon="8.72139"><ele>634.1999999999999</ele><time>2026-04-25T13:48:31.965Z</time></trkpt><trkpt lat="44.4864367" lon="8.7214833"><ele>629.8</ele><time>2026-04-25T13:48:32.965Z</time></trkpt><trkpt lat="44.4865183" lon="8.7215683"><ele>625.4</ele><time>2026-04-25T13:48:33.964Z</time></trkpt><trkpt lat="44.4866167" lon="8.7216517"><ele>621.0</ele><time>2026-04-25T13:48:34.965Z</time></trkpt><trkpt lat="44.4867333" lon="8.7217133"><ele>621.0</ele><time>2026-04-25T13:48:35.965Z</time></trkpt><trkpt lat="44.4868333" lon="8.72178"><ele>621.0</ele><time>2026-04-25T13:48:36.964Z</time></trkpt><trkpt lat="44.486915" lon="8.7218467"><ele>621.0</ele><time>2026-04-25T13:48:37.964Z</time></trkpt><trkpt lat="44.4869983" lon="8.72191"><ele>621.0</ele><time>2026-04-25T13:48:38.965Z</time></trkpt><trkpt lat="44.487075" lon="8.72196"><ele>621.0</ele><time>2026-04-25T13:48:39.964Z</time></trkpt><trkpt lat="44.48715" lon="8.7219983"><ele>619.6</ele><time>2026-04-25T13:48:40.965Z</time></trkpt><trkpt lat="44.487215" lon="8.7220117"><ele>618.2</ele><time>2026-04-25T13:48:41.965Z</time></trkpt><trkpt lat="44.4873083" lon="8.7220267"><ele>616.8</ele><time>2026-04-25T13:48:43.965Z</time></trkpt><trkpt lat="44.4874" lon="8.7220817"><ele>615.4</ele><time>2026-04-25T13:48:45.964Z</time></trkpt><trkpt lat="44.487445" lon="8.7221917"><ele>614.0</ele><time>2026-04-25T13:48:47.964Z</time></trkpt><trkpt lat="44.4874283" lon="8.722365"><ele>614.0</ele><time>2026-04-25T13:48:49.965Z</time></trkpt><trkpt lat="44.4874067" lon="8.7224733"><ele>614.0</ele><time>2026-04-25T13:48:50.964Z</time></trkpt><trkpt lat="44.4873917" lon="8.7225917"><ele>614.0</ele><time>2026-04-25T13:48:51.964Z</time></trkpt><trkpt lat="44.4873783" lon="8.72271"><ele>614.0</ele><time>2026-04-25T13:48:52.964Z</time></trkpt><trkpt lat="44.4873617" lon="8.72281"><ele>614.0</ele><time>2026-04-25T13:48:53.964Z</time></trkpt><trkpt lat="44.4873417" lon="8.722915"><ele>614.0</ele><time>2026-04-25T13:48:54.964Z</time></trkpt><trkpt lat="44.4873083" lon="8.7230133"><ele>616.4</ele><time>2026-04-25T13:48:55.964Z</time></trkpt><trkpt lat="44.4872517" lon="8.7231083"><ele>618.8</ele><time>2026-04-25T13:48:56.965Z</time></trkpt><trkpt lat="44.48717" lon="8.7232117"><ele>621.2</ele><time>2026-04-25T13:48:57.965Z</time></trkpt><trkpt lat="44.487085" lon="8.7233233"><ele>623.6</ele><time>2026-04-25T13:48:58.964Z</time></trkpt><trkpt lat="44.4870033" lon="8.7234183"><ele>626.0</ele><time>2026-04-25T13:48:59.965Z</time></trkpt><trkpt lat="44.4869267" lon="8.7235167"><ele>623.2</ele><time>2026-04-25T13:49:00.964Z</time></trkpt><trkpt lat="44.4868567" lon="8.7236067"><ele>620.4000000000001</ele><time>2026-04-25T13:49:01.965Z</time></trkpt><trkpt lat="44.4868017" lon="8.7237083"><ele>617.6</ele><time>2026-04-25T13:49:02.965Z</time></trkpt><trkpt lat="44.486765" lon="8.7238333"><ele>614.8000000000001</ele><time>2026-04-25T13:49:03.965Z</time></trkpt><trkpt lat="44.4867433" lon="8.7239567"><ele>612.0</ele><time>2026-04-25T13:49:04.964Z</time></trkpt><trkpt lat="44.486745" lon="8.7241017"><ele>612.0</ele><time>2026-04-25T13:49:05.964Z</time></trkpt><trkpt lat="44.4867583" lon="8.7242617"><ele>612.0</ele><time>2026-04-25T13:49:06.965Z</time></trkpt><trkpt lat="44.48678" lon="8.7244067"><ele>612.0</ele><time>2026-04-25T13:49:07.965Z</time></trkpt><trkpt lat="44.4868033" lon="8.7245367"><ele>612.0</ele><time>2026-04-25T13:49:08.964Z</time></trkpt><trkpt lat="44.4868167" lon="8.724655"><ele>612.0</ele><time>2026-04-25T13:49:09.964Z</time></trkpt><trkpt lat="44.4868167" lon="8.7247733"><ele>612.1666666666666</ele><time>2026-04-25T13:49:10.964Z</time></trkpt><trkpt lat="44.486815" lon="8.72489"><ele>612.3333333333334</ele><time>2026-04-25T13:49:11.964Z</time></trkpt><trkpt lat="44.486795" lon="8.72501"><ele>612.5</ele><time>2026-04-25T13:49:12.964Z</time></trkpt><trkpt lat="44.486765" lon="8.725125"><ele>612.6666666666667</ele><time>2026-04-25T13:49:13.964Z</time></trkpt><trkpt lat="44.48672" lon="8.725245"><ele>612.8333333333334</ele><time>2026-04-25T13:49:14.965Z</time></trkpt><trkpt lat="44.4866617" lon="8.7253483"><ele>613.0</ele><time>2026-04-25T13:49:15.964Z</time></trkpt><trkpt lat="44.486585" lon="8.7254267"><ele>610.4</ele><time>2026-04-25T13:49:16.964Z</time></trkpt><trkpt lat="44.4864933" lon="8.72549"><ele>607.8</ele><time>2026-04-25T13:49:17.965Z</time></trkpt><trkpt lat="44.4863867" lon="8.72554"><ele>605.2</ele><time>2026-04-25T13:49:18.964Z</time></trkpt><trkpt lat="44.4862833" lon="8.7255883"><ele>602.6</ele><time>2026-04-25T13:49:19.964Z</time></trkpt><trkpt lat="44.486175" lon="8.72564"><ele>600.0</ele><time>2026-04-25T13:49:20.964Z</time></trkpt><trkpt lat="44.4860667" lon="8.72569"><ele>600.0</ele><time>2026-04-25T13:49:21.965Z</time></trkpt><trkpt lat="44.4859583" lon="8.7257417"><ele>600.0</ele><time>2026-04-25T13:49:22.964Z</time></trkpt><trkpt lat="44.485855" lon="8.7258067"><ele>600.0</ele><time>2026-04-25T13:49:23.965Z</time></trkpt><trkpt lat="44.4857583" lon="8.72588"><ele>600.0</ele><time>2026-04-25T13:49:24.964Z</time></trkpt><trkpt lat="44.4856767" lon="8.7259483"><ele>600.0</ele><time>2026-04-25T13:49:25.964Z</time></trkpt><trkpt lat="44.485605" lon="8.7260167"><ele>603.5</ele><time>2026-04-25T13:49:26.964Z</time></trkpt><trkpt lat="44.485545" lon="8.7261033"><ele>607.0</ele><time>2026-04-25T13:49:27.964Z</time></trkpt><trkpt lat="44.4855" lon="8.7261967"><ele>610.5</ele><time>2026-04-25T13:49:28.965Z</time></trkpt><trkpt lat="44.4854683" lon="8.726305"><ele>614.0</ele><time>2026-04-25T13:49:29.965Z</time></trkpt><trkpt lat="44.4854583" lon="8.7264217"><ele>617.5</ele><time>2026-04-25T13:49:30.964Z</time></trkpt><trkpt lat="44.4854667" lon="8.726535"><ele>621.0</ele><time>2026-04-25T13:49:31.964Z</time></trkpt><trkpt lat="44.48548" lon="8.7266417"><ele>621.0</ele><time>2026-04-25T13:49:32.964Z</time></trkpt><trkpt lat="44.48551" lon="8.726765"><ele>621.0</ele><time>2026-04-25T13:49:33.964Z</time></trkpt><trkpt lat="44.4855183" lon="8.7268767"><ele>621.0</ele><time>2026-04-25T13:49:34.964Z</time></trkpt><trkpt lat="44.4855183" lon="8.726995"><ele>621.0</ele><time>2026-04-25T13:49:35.965Z</time></trkpt><trkpt lat="44.48551" lon="8.7271117"><ele>621.0</ele><time>2026-04-25T13:49:36.965Z</time></trkpt><trkpt lat="44.4854983" lon="8.7272433"><ele>621.0</ele><time>2026-04-25T13:49:37.964Z</time></trkpt><trkpt lat="44.4855" lon="8.7273767"><ele>621.1666666666666</ele><time>2026-04-25T13:49:38.964Z</time></trkpt><trkpt lat="44.4855183" lon="8.7275067"><ele>621.3333333333334</ele><time>2026-04-25T13:49:39.965Z</time></trkpt><trkpt lat="44.485545" lon="8.7276"><ele>621.5</ele><time>2026-04-25T13:49:40.965Z</time></trkpt><trkpt lat="44.4855767" lon="8.7276817"><ele>621.6666666666667</ele><time>2026-04-25T13:49:41.964Z</time></trkpt><trkpt lat="44.4856017" lon="8.7277633"><ele>621.8333333333334</ele><time>2026-04-25T13:49:42.965Z</time></trkpt><trkpt lat="44.4856017" lon="8.7278533"><ele>622.0</ele><time>2026-04-25T13:49:43.964Z</time></trkpt><trkpt lat="44.4855817" lon="8.7280133"><ele>622.75</ele><time>2026-04-25T13:49:45.965Z</time></trkpt><trkpt lat="44.4855367" lon="8.7281133"><ele>623.5</ele><time>2026-04-25T13:49:46.964Z</time></trkpt><trkpt lat="44.4854583" lon="8.7282133"><ele>624.25</ele><time>2026-04-25T13:49:47.964Z</time></trkpt><trkpt lat="44.4853417" lon="8.72833"><ele>625.0</ele><time>2026-04-25T13:49:48.964Z</time></trkpt><trkpt lat="44.4851867" lon="8.7284383"><ele>622.0</ele><time>2026-04-25T13:49:49.964Z</time></trkpt><trkpt lat="44.4850583" lon="8.7285417"><ele>619.0</ele><time>2026-04-25T13:49:50.965Z</time></trkpt><trkpt lat="44.48495" lon="8.7286283"><ele>616.0</ele><time>2026-04-25T13:49:51.964Z</time></trkpt><trkpt lat="44.4848533" lon="8.7287017"><ele>613.0</ele><time>2026-04-25T13:49:52.964Z</time></trkpt><trkpt lat="44.4847533" lon="8.7287533"><ele>613.0</ele><time>2026-04-25T13:49:53.964Z</time></trkpt><trkpt lat="44.48464" lon="8.7288017"><ele>613.0</ele><time>2026-04-25T13:49:54.964Z</time></trkpt><trkpt lat="44.4845433" lon="8.728835"><ele>613.0</ele><time>2026-04-25T13:49:55.964Z</time></trkpt><trkpt lat="44.484455" lon="8.7288633"><ele>613.0</ele><time>2026-04-25T13:49:56.965Z</time></trkpt><trkpt lat="44.4843733" lon="8.7288883"><ele>613.0</ele><time>2026-04-25T13:49:57.964Z</time></trkpt><trkpt lat="44.484285" lon="8.7288967"><ele>608.6</ele><time>2026-04-25T13:49:58.964Z</time></trkpt><trkpt lat="44.48418" lon="8.7288967"><ele>604.1999999999999</ele><time>2026-04-25T13:49:59.964Z</time></trkpt><trkpt lat="44.484085" lon="8.7289017"><ele>599.8</ele><time>2026-04-25T13:50:00.964Z</time></trkpt><trkpt lat="44.484005" lon="8.72894"><ele>595.4</ele><time>2026-04-25T13:50:01.964Z</time></trkpt><trkpt lat="44.4838967" lon="8.729005"><ele>591.0</ele><time>2026-04-25T13:50:02.964Z</time></trkpt><trkpt lat="44.48379" lon="8.7291367"><ele>583.6666666666666</ele><time>2026-04-25T13:50:03.965Z</time></trkpt><trkpt lat="44.4836717" lon="8.7293183"><ele>576.3333333333333</ele><time>2026-04-25T13:50:04.964Z</time></trkpt><trkpt lat="44.48354" lon="8.7294883"><ele>569.0</ele><time>2026-04-25T13:50:05.965Z</time></trkpt><trkpt lat="44.4834083" lon="8.7296117"><ele>569.0</ele><time>2026-04-25T13:50:06.964Z</time></trkpt><trkpt lat="44.4832933" lon="8.7296867"><ele>569.0</ele><time>2026-04-25T13:50:07.964Z</time></trkpt><trkpt lat="44.4832067" lon="8.7297417"><ele>569.0</ele><time>2026-04-25T13:50:08.965Z</time></trkpt><trkpt lat="44.4831517" lon="8.729785"><ele>569.0</ele><time>2026-04-25T13:50:09.964Z</time></trkpt><trkpt lat="44.4830683" lon="8.7298767"><ele>569.0</ele><time>2026-04-25T13:50:11.964Z</time></trkpt><trkpt lat="44.48307" lon="8.7300033"><ele>569.0</ele><time>2026-04-25T13:50:13.964Z</time></trkpt><trkpt lat="44.4831667" lon="8.7301367"><ele>569.0</ele><time>2026-04-25T13:50:15.964Z</time></trkpt><trkpt lat="44.4832433" lon="8.7301983"><ele>569.0</ele><time>2026-04-25T13:50:16.965Z</time></trkpt><trkpt lat="44.4833333" lon="8.730255"><ele>569.0</ele><time>2026-04-25T13:50:17.964Z</time></trkpt><trkpt lat="44.4834217" lon="8.7303"><ele>569.0</ele><time>2026-04-25T13:50:18.964Z</time></trkpt><trkpt lat="44.4834983" lon="8.73035"><ele>569.0</ele><time>2026-04-25T13:50:19.964Z</time></trkpt><trkpt lat="44.483575" lon="8.7304"><ele>569.0</ele><time>2026-04-25T13:50:20.965Z</time></trkpt><trkpt lat="44.4836483" lon="8.7304633"><ele>569.0</ele><time>2026-04-25T13:50:21.965Z</time></trkpt><trkpt lat="44.483715" lon="8.7305517"><ele>569.0</ele><time>2026-04-25T13:50:22.964Z</time></trkpt><trkpt lat="44.48378" lon="8.7306617"><ele>569.0</ele><time>2026-04-25T13:50:23.964Z</time></trkpt><trkpt lat="44.4838683" lon="8.7308117"><ele>569.0</ele><time>2026-04-25T13:50:24.964Z</time></trkpt><trkpt lat="44.4839717" lon="8.73093"><ele>569.0</ele><time>2026-04-25T13:50:25.965Z</time></trkpt><trkpt lat="44.4840867" lon="8.7310217"><ele>569.0</ele><time>2026-04-25T13:50:26.965Z</time></trkpt><trkpt lat="44.4842183" lon="8.7310833"><ele>569.0</ele><time>2026-04-25T13:50:27.964Z</time></trkpt><trkpt lat="44.4843433" lon="8.731125"><ele>564.25</ele><time>2026-04-25T13:50:28.964Z</time></trkpt><trkpt lat="44.4844517" lon="8.7311867"><ele>559.5</ele><time>2026-04-25T13:50:29.964Z</time></trkpt><trkpt lat="44.4845633" lon="8.731255"><ele>554.75</ele><time>2026-04-25T13:50:30.965Z</time></trkpt><trkpt lat="44.4846717" lon="8.7313017"><ele>550.0</ele><time>2026-04-25T13:50:31.964Z</time></trkpt><trkpt lat="44.4847683" lon="8.7313267"><ele>550.0</ele><time>2026-04-25T13:50:32.965Z</time></trkpt><trkpt lat="44.484875" lon="8.73134"><ele>550.0</ele><time>2026-04-25T13:50:33.965Z</time></trkpt><trkpt lat="44.48497" lon="8.7313433"><ele>550.0</ele><time>2026-04-25T13:50:34.964Z</time></trkpt><trkpt lat="44.4850683" lon="8.7313367"><ele>550.0</ele><time>2026-04-25T13:50:35.965Z</time></trkpt><trkpt lat="44.48516" lon="8.7313217"><ele>550.0</ele><time>2026-04-25T13:50:36.964Z</time></trkpt><trkpt lat="44.48525" lon="8.7313433"><ele>550.0</ele><time>2026-04-25T13:50:37.964Z</time></trkpt><trkpt lat="44.4853467" lon="8.73138"><ele>550.0</ele><time>2026-04-25T13:50:38.965Z</time></trkpt><trkpt lat="44.4854317" lon="8.7314383"><ele>550.0</ele><time>2026-04-25T13:50:39.965Z</time></trkpt><trkpt lat="44.485505" lon="8.73151"><ele>550.0</ele><time>2026-04-25T13:50:40.964Z</time></trkpt><trkpt lat="44.48557" lon="8.7315783"><ele>550.0</ele><time>2026-04-25T13:50:41.965Z</time></trkpt><trkpt lat="44.4856283" lon="8.7316483"><ele>550.0</ele><time>2026-04-25T13:50:42.965Z</time></trkpt><trkpt lat="44.485655" lon="8.731735"><ele>555.1666666666667</ele><time>2026-04-25T13:50:43.964Z</time></trkpt><trkpt lat="44.4856767" lon="8.7318417"><ele>560.3333333333334</ele><time>2026-04-25T13:50:44.965Z</time></trkpt><trkpt lat="44.48568" lon="8.731945"><ele>565.5</ele><time>2026-04-25T13:50:45.965Z</time></trkpt><trkpt lat="44.4856483" lon="8.7320417"><ele>570.6666666666666</ele><time>2026-04-25T13:50:46.965Z</time></trkpt><trkpt lat="44.4856233" lon="8.732155"><ele>575.8333333333333</ele><time>2026-04-25T13:50:47.965Z</time></trkpt><trkpt lat="44.4855767" lon="8.73227"><ele>581.0</ele><time>2026-04-25T13:50:48.964Z</time></trkpt><trkpt lat="44.4855483" lon="8.73239"><ele>581.0</ele><time>2026-04-25T13:50:49.964Z</time></trkpt><trkpt lat="44.4855033" lon="8.7324717"><ele>581.0</ele><time>2026-04-25T13:50:50.965Z</time></trkpt><trkpt lat="44.4854367" lon="8.7325183"><ele>581.0</ele><time>2026-04-25T13:50:51.964Z</time></trkpt><trkpt lat="44.4853517" lon="8.732555"><ele>581.0</ele><time>2026-04-25T13:50:52.964Z</time></trkpt><trkpt lat="44.48527" lon="8.7326083"><ele>581.0</ele><time>2026-04-25T13:50:53.965Z</time></trkpt><trkpt lat="44.4851833" lon="8.73267"><ele>581.0</ele><time>2026-04-25T13:50:54.964Z</time></trkpt><trkpt lat="44.48511" lon="8.7327683"><ele>574.0</ele><time>2026-04-25T13:50:55.964Z</time></trkpt><trkpt lat="44.4850317" lon="8.73287"><ele>567.0</ele><time>2026-04-25T13:50:56.965Z</time></trkpt><trkpt lat="44.4849417" lon="8.7329833"><ele>560.0</ele><time>2026-04-25T13:50:57.964Z</time></trkpt><trkpt lat="44.48486" lon="8.733085"><ele>553.0</ele><time>2026-04-25T13:50:58.964Z</time></trkpt><trkpt lat="44.4847967" lon="8.7332067"><ele>546.0</ele><time>2026-04-25T13:50:59.965Z</time></trkpt><trkpt lat="44.4847517" lon="8.733325"><ele>546.0</ele><time>2026-04-25T13:51:00.965Z</time></trkpt><trkpt lat="44.484725" lon="8.733445"><ele>546.0</ele><time>2026-04-25T13:51:01.965Z</time></trkpt><trkpt lat="44.4847167" lon="8.7335633"><ele>546.0</ele><time>2026-04-25T13:51:02.964Z</time></trkpt><trkpt lat="44.4847433" lon="8.733665"><ele>546.0</ele><time>2026-04-25T13:51:03.965Z</time></trkpt><trkpt lat="44.4847833" lon="8.7337583"><ele>546.0</ele><time>2026-04-25T13:51:04.964Z</time></trkpt><trkpt lat="44.4848517" lon="8.7338567"><ele>546.0</ele><time>2026-04-25T13:51:05.965Z</time></trkpt><trkpt lat="44.4849567" lon="8.7339483"><ele>543.5</ele><time>2026-04-25T13:51:06.964Z</time></trkpt><trkpt lat="44.4850267" lon="8.73405"><ele>541.0</ele><time>2026-04-25T13:51:07.964Z</time></trkpt><trkpt lat="44.48512" lon="8.7341567"><ele>538.5</ele><time>2026-04-25T13:51:08.964Z</time></trkpt><trkpt lat="44.4852317" lon="8.7342533"><ele>536.0</ele><time>2026-04-25T13:51:09.964Z</time></trkpt><trkpt lat="44.485335" lon="8.7343517"><ele>538.2</ele><time>2026-04-25T13:51:10.965Z</time></trkpt><trkpt lat="44.4854267" lon="8.7344433"><ele>540.4000000000001</ele><time>2026-04-25T13:51:11.964Z</time></trkpt><trkpt lat="44.4854983" lon="8.7345433"><ele>542.6</ele><time>2026-04-25T13:51:12.964Z</time></trkpt><trkpt lat="44.4855533" lon="8.7346533"><ele>544.8000000000001</ele><time>2026-04-25T13:51:13.964Z</time></trkpt><trkpt lat="44.48559" lon="8.734775"><ele>547.0</ele><time>2026-04-25T13:51:14.964Z</time></trkpt><trkpt lat="44.4856183" lon="8.7348767"><ele>547.0</ele><time>2026-04-25T13:51:15.965Z</time></trkpt><trkpt lat="44.48562" lon="8.7349683"><ele>547.0</ele><time>2026-04-25T13:51:16.964Z</time></trkpt><trkpt lat="44.4855967" lon="8.7350617"><ele>547.0</ele><time>2026-04-25T13:51:17.964Z</time></trkpt><trkpt lat="44.485545" lon="8.735135"><ele>547.0</ele><time>2026-04-25T13:51:18.964Z</time></trkpt><trkpt lat="44.485465" lon="8.7351983"><ele>547.0</ele><time>2026-04-25T13:51:19.964Z</time></trkpt><trkpt lat="44.4853817" lon="8.7352633"><ele>547.0</ele><time>2026-04-25T13:51:20.964Z</time></trkpt><trkpt lat="44.4853133" lon="8.7353233"><ele>543.0</ele><time>2026-04-25T13:51:21.964Z</time></trkpt><trkpt lat="44.485245" lon="8.7354067"><ele>539.0</ele><time>2026-04-25T13:51:22.964Z</time></trkpt><trkpt lat="44.48518" lon="8.7355"><ele>535.0</ele><time>2026-04-25T13:51:23.965Z</time></trkpt><trkpt lat="44.48512" lon="8.7356067"><ele>531.0</ele><time>2026-04-25T13:51:24.964Z</time></trkpt><trkpt lat="44.4850683" lon="8.73572"><ele>527.0</ele><time>2026-04-25T13:51:25.964Z</time></trkpt><trkpt lat="44.4850267" lon="8.7358283"><ele>527.0</ele><time>2026-04-25T13:51:26.964Z</time></trkpt><trkpt lat="44.48498" lon="8.73594"><ele>527.0</ele><time>2026-04-25T13:51:27.964Z</time></trkpt><trkpt lat="44.4849333" lon="8.7360267"><ele>527.0</ele><time>2026-04-25T13:51:28.965Z</time></trkpt><trkpt lat="44.4848633" lon="8.7360767"><ele>527.0</ele><time>2026-04-25T13:51:31.964Z</time></trkpt><trkpt lat="44.48483" lon="8.735955"><ele>527.0</ele><time>2026-04-25T13:51:37.964Z</time></trkpt><trkpt lat="44.4848467" lon="8.735865"><ele>527.0</ele><time>2026-04-25T13:51:38.964Z</time></trkpt><trkpt lat="44.484895" lon="8.7357217"><ele>527.0</ele><time>2026-04-25T13:51:39.964Z</time></trkpt><trkpt lat="44.48495" lon="8.73555"><ele>527.0</ele><time>2026-04-25T13:51:40.965Z</time></trkpt><trkpt lat="44.4851217" lon="8.73526"><ele>527.0</ele><time>2026-04-25T13:51:41.964Z</time></trkpt><trkpt lat="44.4852533" lon="8.7350467"><ele>523.6666666666666</ele><time>2026-04-25T13:51:42.964Z</time></trkpt><trkpt lat="44.4853817" lon="8.73486"><ele>520.3333333333334</ele><time>2026-04-25T13:51:43.964Z</time></trkpt><trkpt lat="44.4854983" lon="8.734685"><ele>517.0</ele><time>2026-04-25T13:51:44.964Z</time></trkpt><trkpt lat="44.4856167" lon="8.734505"><ele>531.6666666666667</ele><time>2026-04-25T13:51:45.964Z</time></trkpt><trkpt lat="44.4857383" lon="8.7343283"><ele>546.3333333333334</ele><time>2026-04-25T13:51:46.964Z</time></trkpt><trkpt lat="44.485855" lon="8.73415"><ele>561.0</ele><time>2026-04-25T13:51:47.964Z</time></trkpt><trkpt lat="44.485985" lon="8.733905"><ele>570.5</ele><time>2026-04-25T13:51:48.964Z</time></trkpt><trkpt lat="44.4861667" lon="8.7334567"><ele>580.0</ele><time>2026-04-25T13:51:49.964Z</time></trkpt><trkpt lat="44.4884117" lon="8.7337"><ele>567.3333333333334</ele><time>2026-04-25T13:51:58.993Z</time></trkpt><trkpt lat="44.4885633" lon="8.7336517"><ele>554.6666666666666</ele><time>2026-04-25T13:51:59.992Z</time></trkpt><trkpt lat="44.4887117" lon="8.7335283"><ele>542.0</ele><time>2026-04-25T13:52:00.992Z</time></trkpt><trkpt lat="44.4888217" lon="8.7333633"><ele>531.25</ele><time>2026-04-25T13:52:01.993Z</time></trkpt><trkpt lat="44.488905" lon="8.733175"><ele>520.5</ele><time>2026-04-25T13:52:02.992Z</time></trkpt><trkpt lat="44.48895" lon="8.7329967"><ele>509.75</ele><time>2026-04-25T13:52:03.992Z</time></trkpt><trkpt lat="44.4889233" lon="8.7327833"><ele>499.0</ele><time>2026-04-25T13:52:04.992Z</time></trkpt><trkpt lat="44.48883" lon="8.7326017"><ele>509.5</ele><time>2026-04-25T13:52:05.992Z</time></trkpt><trkpt lat="44.4887133" lon="8.7324617"><ele>520.0</ele><time>2026-04-25T13:52:06.992Z</time></trkpt><trkpt lat="44.4886167" lon="8.7323167"><ele>530.5</ele><time>2026-04-25T13:52:07.993Z</time></trkpt><trkpt lat="44.48855" lon="8.732165"><ele>541.0</ele><time>2026-04-25T13:52:08.992Z</time></trkpt><trkpt lat="44.4885217" lon="8.7320017"><ele>539.4</ele><time>2026-04-25T13:52:09.993Z</time></trkpt><trkpt lat="44.4885233" lon="8.7318483"><ele>537.8</ele><time>2026-04-25T13:52:10.992Z</time></trkpt><trkpt lat="44.4885717" lon="8.731725"><ele>536.1999999999999</ele><time>2026-04-25T13:52:11.992Z</time></trkpt><trkpt lat="44.48864" lon="8.73161"><ele>534.6</ele><time>2026-04-25T13:52:12.992Z</time></trkpt><trkpt lat="44.4886867" lon="8.7314533"><ele>533.0</ele><time>2026-04-25T13:52:13.993Z</time></trkpt><trkpt lat="44.4886867" lon="8.7313033"><ele>533.0</ele><time>2026-04-25T13:52:14.992Z</time></trkpt><trkpt lat="44.48866" lon="8.731135"><ele>533.0</ele><time>2026-04-25T13:52:15.992Z</time></trkpt><trkpt lat="44.488645" lon="8.7309833"><ele>533.0</ele><time>2026-04-25T13:52:16.992Z</time></trkpt><trkpt lat="44.488665" lon="8.7308317"><ele>533.0</ele><time>2026-04-25T13:52:17.993Z</time></trkpt><trkpt lat="44.4887633" lon="8.7307033"><ele>523.6666666666666</ele><time>2026-04-25T13:52:18.992Z</time></trkpt><trkpt lat="44.4888883" lon="8.7306067"><ele>514.3333333333334</ele><time>2026-04-25T13:52:19.993Z</time></trkpt><trkpt lat="44.4890583" lon="8.7305467"><ele>505.0</ele><time>2026-04-25T13:52:20.993Z</time></trkpt><trkpt lat="44.4892517" lon="8.7305317"><ele>505.0</ele><time>2026-04-25T13:52:21.992Z</time></trkpt><trkpt lat="44.48947" lon="8.73052"><ele>505.0</ele><time>2026-04-25T13:52:22.993Z</time></trkpt><trkpt lat="44.48967" lon="8.7304933"><ele>505.0</ele><time>2026-04-25T13:52:23.993Z</time></trkpt><trkpt lat="44.4898717" lon="8.7304"><ele>502.0</ele><time>2026-04-25T13:52:24.993Z</time></trkpt><trkpt lat="44.4900383" lon="8.7302933"><ele>499.0</ele><time>2026-04-25T13:52:25.992Z</time></trkpt><trkpt lat="44.4901617" lon="8.730155"><ele>496.0</ele><time>2026-04-25T13:52:26.992Z</time></trkpt><trkpt lat="44.49026" lon="8.7299767"><ele>496.0</ele><time>2026-04-25T13:52:27.992Z</time></trkpt><trkpt lat="44.4902483" lon="8.7297117"><ele>496.0</ele><time>2026-04-25T13:52:28.993Z</time></trkpt><trkpt lat="44.49025" lon="8.72947"><ele>496.0</ele><time>2026-04-25T13:52:29.993Z</time></trkpt><trkpt lat="44.4902733" lon="8.7292717"><ele>498.25</ele><time>2026-04-25T13:52:30.993Z</time></trkpt><trkpt lat="44.490325" lon="8.72913"><ele>500.5</ele><time>2026-04-25T13:52:31.992Z</time></trkpt><trkpt lat="44.4903733" lon="8.7289917"><ele>502.75</ele><time>2026-04-25T13:52:32.992Z</time></trkpt><trkpt lat="44.490495" lon="8.7289433"><ele>505.0</ele><time>2026-04-25T13:52:33.993Z</time></trkpt><trkpt lat="44.4906767" lon="8.7291017"><ele>505.0</ele><time>2026-04-25T13:52:34.993Z</time></trkpt><trkpt lat="44.49086" lon="8.729235"><ele>505.0</ele><time>2026-04-25T13:52:35.992Z</time></trkpt><trkpt lat="44.49101" lon="8.7293467"><ele>505.0</ele><time>2026-04-25T13:52:36.992Z</time></trkpt><trkpt lat="44.4911917" lon="8.72941"><ele>501.6666666666667</ele><time>2026-04-25T13:52:37.993Z</time></trkpt><trkpt lat="44.4913683" lon="8.7293967"><ele>498.33333333333337</ele><time>2026-04-25T13:52:38.992Z</time></trkpt><trkpt lat="44.4915517" lon="8.7293383"><ele>495.0</ele><time>2026-04-25T13:52:39.993Z</time></trkpt><trkpt lat="44.4917283" lon="8.7292533"><ele>495.0</ele><time>2026-04-25T13:52:40.992Z</time></trkpt><trkpt lat="44.4918883" lon="8.72918"><ele>495.0</ele><time>2026-04-25T13:52:41.993Z</time></trkpt><trkpt lat="44.4920267" lon="8.7290617"><ele>495.0</ele><time>2026-04-25T13:52:42.992Z</time></trkpt><trkpt lat="44.4921783" lon="8.7289433"><ele>491.0</ele><time>2026-04-25T13:52:43.992Z</time></trkpt><trkpt lat="44.4923167" lon="8.7287533"><ele>487.0</ele><time>2026-04-25T13:52:44.992Z</time></trkpt><trkpt lat="44.4924667" lon="8.7285833"><ele>483.0</ele><time>2026-04-25T13:52:45.992Z</time></trkpt><trkpt lat="44.492615" lon="8.7284467"><ele>483.0</ele><time>2026-04-25T13:52:46.992Z</time></trkpt><trkpt lat="44.4927583" lon="8.7282967"><ele>483.0</ele><time>2026-04-25T13:52:47.993Z</time></trkpt><trkpt lat="44.4928867" lon="8.728155"><ele>483.0</ele><time>2026-04-25T13:52:48.992Z</time></trkpt><trkpt lat="44.4930083" lon="8.7280283"><ele>479.0</ele><time>2026-04-25T13:52:49.992Z</time></trkpt><trkpt lat="44.4931383" lon="8.72793"><ele>475.0</ele><time>2026-04-25T13:52:50.992Z</time></trkpt><trkpt lat="44.493275" lon="8.7278783"><ele>471.0</ele><time>2026-04-25T13:52:51.992Z</time></trkpt><trkpt lat="44.4934467" lon="8.7279433"><ele>471.0</ele><time>2026-04-25T13:52:52.992Z</time></trkpt><trkpt lat="44.4936083" lon="8.7279967"><ele>471.0</ele><time>2026-04-25T13:52:53.992Z</time></trkpt><trkpt lat="44.49374" lon="8.7280583"><ele>471.0</ele><time>2026-04-25T13:52:54.993Z</time></trkpt><trkpt lat="44.4938683" lon="8.7281167"><ele>471.0</ele><time>2026-04-25T13:52:55.992Z</time></trkpt><trkpt lat="44.494005" lon="8.72818"><ele>472.0</ele><time>2026-04-25T13:52:56.992Z</time></trkpt><trkpt lat="44.4941283" lon="8.7282233"><ele>473.0</ele><time>2026-04-25T13:52:57.992Z</time></trkpt><trkpt lat="44.49426" lon="8.7283217"><ele>474.0</ele><time>2026-04-25T13:52:58.992Z</time></trkpt><trkpt lat="44.4943817" lon="8.7284333"><ele>475.0</ele><time>2026-04-25T13:52:59.992Z</time></trkpt><trkpt lat="44.494505" lon="8.7285033"><ele>474.25</ele><time>2026-04-25T13:53:00.992Z</time></trkpt><trkpt lat="44.4946333" lon="8.728525"><ele>473.5</ele><time>2026-04-25T13:53:01.992Z</time></trkpt><trkpt lat="44.4947633" lon="8.7285233"><ele>472.75</ele><time>2026-04-25T13:53:02.992Z</time></trkpt><trkpt lat="44.4949133" lon="8.7284717"><ele>472.0</ele><time>2026-04-25T13:53:03.992Z</time></trkpt><trkpt lat="44.4950683" lon="8.728405"><ele>472.0</ele><time>2026-04-25T13:53:04.992Z</time></trkpt><trkpt lat="44.4952183" lon="8.7283367"><ele>472.0</ele><time>2026-04-25T13:53:05.992Z</time></trkpt><trkpt lat="44.4953583" lon="8.7282783"><ele>472.0</ele><time>2026-04-25T13:53:06.993Z</time></trkpt><trkpt lat="44.4954967" lon="8.7282067"><ele>466.25</ele><time>2026-04-25T13:53:07.992Z</time></trkpt><trkpt lat="44.4956317" lon="8.72815"><ele>460.5</ele><time>2026-04-25T13:53:08.992Z</time></trkpt><trkpt lat="44.495765" lon="8.7281017"><ele>454.75</ele><time>2026-04-25T13:53:09.992Z</time></trkpt><trkpt lat="44.4958967" lon="8.72806"><ele>449.0</ele><time>2026-04-25T13:53:10.992Z</time></trkpt><trkpt lat="44.4960217" lon="8.7280217"><ele>449.0</ele><time>2026-04-25T13:53:11.992Z</time></trkpt><trkpt lat="44.496135" lon="8.727995"><ele>449.0</ele><time>2026-04-25T13:53:12.992Z</time></trkpt><trkpt lat="44.496255" lon="8.7279183"><ele>449.0</ele><time>2026-04-25T13:53:13.992Z</time></trkpt><trkpt lat="44.496365" lon="8.727915"><ele>449.0</ele><time>2026-04-25T13:53:14.993Z</time></trkpt><trkpt lat="44.496475" lon="8.7279467"><ele>447.0</ele><time>2026-04-25T13:53:15.993Z</time></trkpt><trkpt lat="44.4965883" lon="8.7280033"><ele>445.0</ele><time>2026-04-25T13:53:16.992Z</time></trkpt><trkpt lat="44.4967117" lon="8.7280883"><ele>443.0</ele><time>2026-04-25T13:53:17.992Z</time></trkpt><trkpt lat="44.4968333" lon="8.7281617"><ele>441.0</ele><time>2026-04-25T13:53:18.993Z</time></trkpt><trkpt lat="44.496945" lon="8.7282017"><ele>441.0</ele><time>2026-04-25T13:53:19.993Z</time></trkpt><trkpt lat="44.497025" lon="8.7282233"><ele>441.0</ele><time>2026-04-25T13:53:20.992Z</time></trkpt><trkpt lat="44.4970983" lon="8.7282183"><ele>441.0</ele><time>2026-04-25T13:53:21.992Z</time></trkpt><trkpt lat="44.4971683" lon="8.7281667"><ele>441.0</ele><time>2026-04-25T13:53:22.992Z</time></trkpt><trkpt lat="44.4972117" lon="8.7280883"><ele>441.0</ele><time>2026-04-25T13:53:23.993Z</time></trkpt><trkpt lat="44.4972417" lon="8.7279567"><ele>441.0</ele><time>2026-04-25T13:53:24.992Z</time></trkpt><trkpt lat="44.4972517" lon="8.727645"><ele>438.5</ele><time>2026-04-25T13:53:25.993Z</time></trkpt><trkpt lat="44.4972617" lon="8.7273167"><ele>436.0</ele><time>2026-04-25T13:53:26.992Z</time></trkpt><trkpt lat="44.497305" lon="8.72702"><ele>434.6666666666667</ele><time>2026-04-25T13:53:27.992Z</time></trkpt><trkpt lat="44.4973317" lon="8.72674"><ele>433.33333333333337</ele><time>2026-04-25T13:53:28.992Z</time></trkpt><trkpt lat="44.4973583" lon="8.7264733"><ele>432.0</ele><time>2026-04-25T13:53:29.993Z</time></trkpt><trkpt lat="44.49736" lon="8.7262417"><ele>429.75</ele><time>2026-04-25T13:53:30.993Z</time></trkpt><trkpt lat="44.49735" lon="8.7260533"><ele>427.5</ele><time>2026-04-25T13:53:31.992Z</time></trkpt><trkpt lat="44.4973033" lon="8.7258867"><ele>425.25</ele><time>2026-04-25T13:53:32.993Z</time></trkpt><trkpt lat="44.49722" lon="8.7257517"><ele>423.0</ele><time>2026-04-25T13:53:33.992Z</time></trkpt><trkpt lat="44.4971017" lon="8.72564"><ele>427.5</ele><time>2026-04-25T13:53:34.993Z</time></trkpt><trkpt lat="44.4969817" lon="8.7255267"><ele>432.0</ele><time>2026-04-25T13:53:35.992Z</time></trkpt><trkpt lat="44.4968833" lon="8.7254167"><ele>436.5</ele><time>2026-04-25T13:53:36.992Z</time></trkpt><trkpt lat="44.496805" lon="8.7253033"><ele>441.0</ele><time>2026-04-25T13:53:37.992Z</time></trkpt><trkpt lat="44.4967533" lon="8.725175"><ele>441.1666666666667</ele><time>2026-04-25T13:53:38.992Z</time></trkpt><trkpt lat="44.4966983" lon="8.7250783"><ele>441.33333333333337</ele><time>2026-04-25T13:53:39.992Z</time></trkpt><trkpt lat="44.4966433" lon="8.7249867"><ele>441.5</ele><time>2026-04-25T13:53:40.992Z</time></trkpt><trkpt lat="44.4966067" lon="8.7248883"><ele>441.6666666666667</ele><time>2026-04-25T13:53:41.993Z</time></trkpt><trkpt lat="44.4966483" lon="8.7248167"><ele>441.83333333333337</ele><time>2026-04-25T13:53:42.992Z</time></trkpt><trkpt lat="44.49677" lon="8.7247733"><ele>442.0</ele><time>2026-04-25T13:53:43.993Z</time></trkpt><trkpt lat="44.4968983" lon="8.72472"><ele>442.0</ele><time>2026-04-25T13:53:44.993Z</time></trkpt><trkpt lat="44.49705" lon="8.72461"><ele>442.0</ele><time>2026-04-25T13:53:45.992Z</time></trkpt><trkpt lat="44.4972133" lon="8.7244633"><ele>442.0</ele><time>2026-04-25T13:53:46.993Z</time></trkpt><trkpt lat="44.497335" lon="8.7242667"><ele>443.6666666666667</ele><time>2026-04-25T13:53:47.993Z</time></trkpt><trkpt lat="44.4974517" lon="8.7240183"><ele>445.33333333333337</ele><time>2026-04-25T13:53:48.992Z</time></trkpt><trkpt lat="44.4975567" lon="8.7237433"><ele>447.0</ele><time>2026-04-25T13:53:49.992Z</time></trkpt><trkpt lat="44.4976133" lon="8.7234167"><ele>447.0</ele><time>2026-04-25T13:53:50.993Z</time></trkpt><trkpt lat="44.4976717" lon="8.723145"><ele>447.0</ele><time>2026-04-25T13:53:51.992Z</time></trkpt><trkpt lat="44.4977717" lon="8.72293"><ele>447.0</ele><time>2026-04-25T13:53:52.992Z</time></trkpt><trkpt lat="44.4978867" lon="8.7227733"><ele>440.66666666666663</ele><time>2026-04-25T13:53:53.992Z</time></trkpt><trkpt lat="44.498035" lon="8.722645"><ele>434.3333333333333</ele><time>2026-04-25T13:53:54.993Z</time></trkpt><trkpt lat="44.4982167" lon="8.72255"><ele>428.0</ele><time>2026-04-25T13:53:55.992Z</time></trkpt><trkpt lat="44.4983933" lon="8.7224617"><ele>428.0</ele><time>2026-04-25T13:53:56.992Z</time></trkpt><trkpt lat="44.4985617" lon="8.72236"><ele>428.0</ele><time>2026-04-25T13:53:57.992Z</time></trkpt><trkpt lat="44.498715" lon="8.7222517"><ele>428.0</ele><time>2026-04-25T13:53:58.992Z</time></trkpt><trkpt lat="44.4988617" lon="8.722155"><ele>424.5</ele><time>2026-04-25T13:53:59.992Z</time></trkpt><trkpt lat="44.4990017" lon="8.7220833"><ele>421.0</ele><time>2026-04-25T13:54:00.992Z</time></trkpt><trkpt lat="44.4991333" lon="8.7220567"><ele>417.5</ele><time>2026-04-25T13:54:01.993Z</time></trkpt><trkpt lat="44.49925" lon="8.7220167"><ele>414.0</ele><time>2026-04-25T13:54:02.992Z</time></trkpt><trkpt lat="44.4993733" lon="8.721965"><ele>414.0</ele><time>2026-04-25T13:54:03.992Z</time></trkpt><trkpt lat="44.499465" lon="8.7219117"><ele>414.0</ele><time>2026-04-25T13:54:04.992Z</time></trkpt><trkpt lat="44.4995417" lon="8.7218233"><ele>414.0</ele><time>2026-04-25T13:54:05.993Z</time></trkpt><trkpt lat="44.4996033" lon="8.7216833"><ele>414.0</ele><time>2026-04-25T13:54:06.993Z</time></trkpt><trkpt lat="44.4996533" lon="8.72152"><ele>414.0</ele><time>2026-04-25T13:54:07.993Z</time></trkpt><trkpt lat="44.49968" lon="8.7213433"><ele>413.0</ele><time>2026-04-25T13:54:08.992Z</time></trkpt><trkpt lat="44.4997117" lon="8.7211667"><ele>412.0</ele><time>2026-04-25T13:54:09.992Z</time></trkpt><trkpt lat="44.4997317" lon="8.7209833"><ele>411.0</ele><time>2026-04-25T13:54:10.992Z</time></trkpt><trkpt lat="44.499745" lon="8.7208"><ele>410.0</ele><time>2026-04-25T13:54:11.992Z</time></trkpt><trkpt lat="44.4997783" lon="8.7206167"><ele>410.0</ele><time>2026-04-25T13:54:12.992Z</time></trkpt><trkpt lat="44.49983" lon="8.7204383"><ele>410.0</ele><time>2026-04-25T13:54:13.992Z</time></trkpt><trkpt lat="44.4998933" lon="8.7202617"><ele>410.0</ele><time>2026-04-25T13:54:14.992Z</time></trkpt><trkpt lat="44.499975" lon="8.7201033"><ele>410.0</ele><time>2026-04-25T13:54:15.993Z</time></trkpt><trkpt lat="44.5000733" lon="8.7199533"><ele>409.75</ele><time>2026-04-25T13:54:16.992Z</time></trkpt><trkpt lat="44.5001583" lon="8.719825"><ele>409.5</ele><time>2026-04-25T13:54:17.991Z</time></trkpt><trkpt lat="44.500235" lon="8.7196967"><ele>409.25</ele><time>2026-04-25T13:54:18.991Z</time></trkpt><trkpt lat="44.5003183" lon="8.719565"><ele>409.0</ele><time>2026-04-25T13:54:19.991Z</time></trkpt><trkpt lat="44.5004033" lon="8.719435"><ele>408.75</ele><time>2026-04-25T13:54:20.991Z</time></trkpt><trkpt lat="44.5004817" lon="8.71931"><ele>408.5</ele><time>2026-04-25T13:54:21.991Z</time></trkpt><trkpt lat="44.5005517" lon="8.7191883"><ele>408.25</ele><time>2026-04-25T13:54:22.991Z</time></trkpt><trkpt lat="44.5006233" lon="8.7190633"><ele>408.0</ele><time>2026-04-25T13:54:23.992Z</time></trkpt><trkpt lat="44.5007067" lon="8.718935"><ele>408.0</ele><time>2026-04-25T13:54:24.991Z</time></trkpt><trkpt lat="44.50077" lon="8.7188083"><ele>408.0</ele><time>2026-04-25T13:54:25.991Z</time></trkpt><trkpt lat="44.5008367" lon="8.7186833"><ele>408.0</ele><time>2026-04-25T13:54:26.991Z</time></trkpt><trkpt lat="44.5009067" lon="8.718555"><ele>408.0</ele><time>2026-04-25T13:54:27.992Z</time></trkpt><trkpt lat="44.5009933" lon="8.7184233"><ele>407.0</ele><time>2026-04-25T13:54:28.991Z</time></trkpt><trkpt lat="44.5010767" lon="8.71829"><ele>406.0</ele><time>2026-04-25T13:54:29.991Z</time></trkpt><trkpt lat="44.5011583" lon="8.718155"><ele>405.0</ele><time>2026-04-25T13:54:30.992Z</time></trkpt><trkpt lat="44.5012417" lon="8.718015"><ele>404.0</ele><time>2026-04-25T13:54:31.991Z</time></trkpt><trkpt lat="44.5013283" lon="8.7178817"><ele>404.0</ele><time>2026-04-25T13:54:32.991Z</time></trkpt><trkpt lat="44.5014083" lon="8.717745"><ele>404.0</ele><time>2026-04-25T13:54:33.991Z</time></trkpt><trkpt lat="44.5014867" lon="8.7176067"><ele>404.0</ele><time>2026-04-25T13:54:34.991Z</time></trkpt><trkpt lat="44.5015433" lon="8.7174867"><ele>404.0</ele><time>2026-04-25T13:54:35.991Z</time></trkpt><trkpt lat="44.5016033" lon="8.7173783"><ele>403.8333333333333</ele><time>2026-04-25T13:54:36.992Z</time></trkpt><trkpt lat="44.5016533" lon="8.717285"><ele>403.66666666666663</ele><time>2026-04-25T13:54:37.991Z</time></trkpt><trkpt lat="44.5017" lon="8.71716"><ele>403.5</ele><time>2026-04-25T13:54:39.991Z</time></trkpt><trkpt lat="44.5017283" lon="8.717055"><ele>403.33333333333337</ele><time>2026-04-25T13:54:42.992Z</time></trkpt><trkpt lat="44.5017633" lon="8.716935"><ele>403.1666666666667</ele><time>2026-04-25T13:55:07.991Z</time></trkpt><trkpt lat="44.5017817" lon="8.71685"><ele>403.0</ele><time>2026-04-25T13:55:08.991Z</time></trkpt><trkpt lat="44.5018067" lon="8.71675"><ele>403.50000000000006</ele><time>2026-04-25T13:55:09.991Z</time></trkpt><trkpt lat="44.5018317" lon="8.716645"><ele>404.0</ele><time>2026-04-25T13:55:10.992Z</time></trkpt><trkpt lat="44.5018533" lon="8.7165483"><ele>404.5</ele><time>2026-04-25T13:55:11.991Z</time></trkpt><trkpt lat="44.501885" lon="8.7164383"><ele>405.0</ele><time>2026-04-25T13:55:12.991Z</time></trkpt><trkpt lat="44.5019033" lon="8.7163233"><ele>405.50000000000006</ele><time>2026-04-25T13:55:13.991Z</time></trkpt><trkpt lat="44.5019367" lon="8.7161933"><ele>406.0</ele><time>2026-04-25T13:55:14.991Z</time></trkpt><trkpt lat="44.5019617" lon="8.7160917"><ele>405.83333333333337</ele><time>2026-04-25T13:55:15.992Z</time></trkpt><trkpt lat="44.5019867" lon="8.7159817"><ele>405.6666666666667</ele><time>2026-04-25T13:55:16.991Z</time></trkpt><trkpt lat="44.5020383" lon="8.71587"><ele>405.5</ele><time>2026-04-25T13:55:17.991Z</time></trkpt><trkpt lat="44.5020967" lon="8.7157717"><ele>405.33333333333337</ele><time>2026-04-25T13:55:18.991Z</time></trkpt><trkpt lat="44.50215" lon="8.7156767"><ele>405.1666666666667</ele><time>2026-04-25T13:55:19.991Z</time></trkpt><trkpt lat="44.5022033" lon="8.7155733"><ele>405.0</ele><time>2026-04-25T13:55:20.991Z</time></trkpt><trkpt lat="44.5022517" lon="8.7154833"><ele>405.5</ele><time>2026-04-25T13:55:21.992Z</time></trkpt><trkpt lat="44.502295" lon="8.7154017"><ele>406.0</ele><time>2026-04-25T13:55:22.991Z</time></trkpt><trkpt lat="44.5023633" lon="8.715285"><ele>406.5</ele><time>2026-04-25T13:55:24.992Z</time></trkpt><trkpt lat="44.5024383" lon="8.7151617"><ele>407.0</ele><time>2026-04-25T13:55:26.991Z</time></trkpt><trkpt lat="44.50248" lon="8.7150883"><ele>407.5</ele><time>2026-04-25T13:55:27.991Z</time></trkpt><trkpt lat="44.502535" lon="8.7149983"><ele>408.0</ele><time>2026-04-25T13:55:28.992Z</time></trkpt><trkpt lat="44.5025867" lon="8.7148633"><ele>408.0</ele><time>2026-04-25T13:55:29.992Z</time></trkpt><trkpt lat="44.502645" lon="8.714715"><ele>408.0</ele><time>2026-04-25T13:55:30.992Z</time></trkpt><trkpt lat="44.5027117" lon="8.7145717"><ele>408.0</ele><time>2026-04-25T13:55:31.992Z</time></trkpt><trkpt lat="44.5027717" lon="8.7144333"><ele>408.0</ele><time>2026-04-25T13:55:32.991Z</time></trkpt><trkpt lat="44.5028467" lon="8.714305"><ele>406.0</ele><time>2026-04-25T13:55:33.992Z</time></trkpt><trkpt lat="44.5029333" lon="8.7141817"><ele>404.0</ele><time>2026-04-25T13:55:34.991Z</time></trkpt><trkpt lat="44.5030283" lon="8.7140717"><ele>402.0</ele><time>2026-04-25T13:55:35.991Z</time></trkpt><trkpt lat="44.503125" lon="8.7139667"><ele>400.0</ele><time>2026-04-25T13:55:36.991Z</time></trkpt><trkpt lat="44.50322" lon="8.713855"><ele>400.0</ele><time>2026-04-25T13:55:37.991Z</time></trkpt><trkpt lat="44.5033117" lon="8.7137333"><ele>400.0</ele><time>2026-04-25T13:55:38.991Z</time></trkpt><trkpt lat="44.5033983" lon="8.71362"><ele>400.0</ele><time>2026-04-25T13:55:39.991Z</time></trkpt><trkpt lat="44.50348" lon="8.7135167"><ele>400.0</ele><time>2026-04-25T13:55:40.991Z</time></trkpt><trkpt lat="44.5035567" lon="8.7134233"><ele>399.8</ele><time>2026-04-25T13:55:41.992Z</time></trkpt><trkpt lat="44.5036283" lon="8.7133583"><ele>399.6</ele><time>2026-04-25T13:55:42.991Z</time></trkpt><trkpt lat="44.5037067" lon="8.7133033"><ele>399.4</ele><time>2026-04-25T13:55:43.992Z</time></trkpt><trkpt lat="44.50379" lon="8.713255"><ele>399.2</ele><time>2026-04-25T13:55:44.991Z</time></trkpt><trkpt lat="44.5038867" lon="8.7132983"><ele>399.0</ele><time>2026-04-25T13:55:45.991Z</time></trkpt><trkpt lat="44.504015" lon="8.713435"><ele>398.5</ele><time>2026-04-25T13:55:46.991Z</time></trkpt><trkpt lat="44.50414" lon="8.713565"><ele>398.0</ele><time>2026-04-25T13:55:47.991Z</time></trkpt><trkpt lat="44.5042617" lon="8.7136533"><ele>397.5</ele><time>2026-04-25T13:55:48.991Z</time></trkpt><trkpt lat="44.5043833" lon="8.7137517"><ele>397.0</ele><time>2026-04-25T13:55:49.991Z</time></trkpt><trkpt lat="44.504505" lon="8.7138283"><ele>396.0</ele><time>2026-04-25T13:55:50.991Z</time></trkpt><trkpt lat="44.50465" lon="8.7139833"><ele>395.0</ele><time>2026-04-25T13:55:51.991Z</time></trkpt><trkpt lat="44.5047433" lon="8.7141117"><ele>394.0</ele><time>2026-04-25T13:55:52.991Z</time></trkpt><trkpt lat="44.50486" lon="8.714185"><ele>393.0</ele><time>2026-04-25T13:55:53.991Z</time></trkpt><trkpt lat="44.5049817" lon="8.714255"><ele>393.0</ele><time>2026-04-25T13:55:54.992Z</time></trkpt><trkpt lat="44.5051" lon="8.7143167"><ele>393.0</ele><time>2026-04-25T13:55:55.992Z</time></trkpt><trkpt lat="44.5052117" lon="8.7143667"><ele>393.0</ele><time>2026-04-25T13:55:56.991Z</time></trkpt><trkpt lat="44.50533" lon="8.7144117"><ele>393.0</ele><time>2026-04-25T13:55:57.992Z</time></trkpt><trkpt lat="44.5054433" lon="8.7144217"><ele>392.75</ele><time>2026-04-25T13:55:58.991Z</time></trkpt><trkpt lat="44.5055567" lon="8.7143933"><ele>392.5</ele><time>2026-04-25T13:55:59.991Z</time></trkpt><trkpt lat="44.505675" lon="8.7143383"><ele>392.25</ele><time>2026-04-25T13:56:00.991Z</time></trkpt><trkpt lat="44.5058033" lon="8.7142667"><ele>392.0</ele><time>2026-04-25T13:56:01.991Z</time></trkpt><trkpt lat="44.50594" lon="8.714185"><ele>392.0</ele><time>2026-04-25T13:56:02.991Z</time></trkpt><trkpt lat="44.5060767" lon="8.7141067"><ele>392.0</ele><time>2026-04-25T13:56:03.991Z</time></trkpt><trkpt lat="44.5062017" lon="8.714015"><ele>392.0</ele><time>2026-04-25T13:56:04.991Z</time></trkpt><trkpt lat="44.5063167" lon="8.71391"><ele>392.0</ele><time>2026-04-25T13:56:05.991Z</time></trkpt><trkpt lat="44.5064267" lon="8.71379"><ele>392.0</ele><time>2026-04-25T13:56:06.991Z</time></trkpt><trkpt lat="44.5065283" lon="8.7136683"><ele>392.0</ele><time>2026-04-25T13:56:07.992Z</time></trkpt><trkpt lat="44.506625" lon="8.7135233"><ele>392.0</ele><time>2026-04-25T13:56:08.992Z</time></trkpt><trkpt lat="44.506695" lon="8.71333"><ele>392.0</ele><time>2026-04-25T13:56:09.991Z</time></trkpt><trkpt lat="44.5067717" lon="8.7131367"><ele>392.0</ele><time>2026-04-25T13:56:10.992Z</time></trkpt><trkpt lat="44.5068583" lon="8.7129633"><ele>392.0</ele><time>2026-04-25T13:56:11.991Z</time></trkpt><trkpt lat="44.5069383" lon="8.712805"><ele>392.0</ele><time>2026-04-25T13:56:12.992Z</time></trkpt><trkpt lat="44.5070117" lon="8.7126467"><ele>392.0</ele><time>2026-04-25T13:56:13.991Z</time></trkpt><trkpt lat="44.507085" lon="8.7124917"><ele>392.25</ele><time>2026-04-25T13:56:14.991Z</time></trkpt><trkpt lat="44.50715" lon="8.7123317"><ele>392.5</ele><time>2026-04-25T13:56:15.991Z</time></trkpt><trkpt lat="44.5071817" lon="8.712145"><ele>392.75</ele><time>2026-04-25T13:56:16.991Z</time></trkpt><trkpt lat="44.5071717" lon="8.7119433"><ele>393.0</ele><time>2026-04-25T13:56:17.991Z</time></trkpt><trkpt lat="44.5071067" lon="8.711755"><ele>392.33333333333337</ele><time>2026-04-25T13:56:18.992Z</time></trkpt><trkpt lat="44.507025" lon="8.7115633"><ele>391.6666666666667</ele><time>2026-04-25T13:56:19.992Z</time></trkpt><trkpt lat="44.5069117" lon="8.7113717"><ele>391.0</ele><time>2026-04-25T13:56:20.992Z</time></trkpt><trkpt lat="44.5067883" lon="8.711165"><ele>397.0</ele><time>2026-04-25T13:56:21.991Z</time></trkpt><trkpt lat="44.5066667" lon="8.7109567"><ele>403.0</ele><time>2026-04-25T13:56:22.991Z</time></trkpt><trkpt lat="44.506525" lon="8.7107383"><ele>409.0</ele><time>2026-04-25T13:56:23.991Z</time></trkpt><trkpt lat="44.5063783" lon="8.7105"><ele>404.0</ele><time>2026-04-25T13:56:24.991Z</time></trkpt><trkpt lat="44.5061917" lon="8.7102933"><ele>399.0</ele><time>2026-04-25T13:56:25.991Z</time></trkpt><trkpt lat="44.5060117" lon="8.7100667"><ele>399.0</ele><time>2026-04-25T13:56:26.991Z</time></trkpt><trkpt lat="44.5058517" lon="8.7098583"><ele>399.0</ele><time>2026-04-25T13:56:27.992Z</time></trkpt><trkpt lat="44.505715" lon="8.7096083"><ele>399.0</ele><time>2026-04-25T13:56:28.991Z</time></trkpt><trkpt lat="44.50561" lon="8.7093167"><ele>399.0</ele><time>2026-04-25T13:56:29.991Z</time></trkpt><trkpt lat="44.5055033" lon="8.7089883"><ele>399.0</ele><time>2026-04-25T13:56:30.991Z</time></trkpt><trkpt lat="44.505395" lon="8.7086817"><ele>396.0</ele><time>2026-04-25T13:56:31.991Z</time></trkpt><trkpt lat="44.5052917" lon="8.7084067"><ele>393.0</ele><time>2026-04-25T13:56:32.991Z</time></trkpt><trkpt lat="44.5051967" lon="8.7081533"><ele>390.0</ele><time>2026-04-25T13:56:33.991Z</time></trkpt><trkpt lat="44.5051167" lon="8.7078817"><ele>391.66666666666663</ele><time>2026-04-25T13:56:34.991Z</time></trkpt><trkpt lat="44.5050933" lon="8.7076433"><ele>393.3333333333333</ele><time>2026-04-25T13:56:35.992Z</time></trkpt><trkpt lat="44.5051067" lon="8.707385"><ele>395.0</ele><time>2026-04-25T13:56:36.991Z</time></trkpt><trkpt lat="44.5051533" lon="8.70711"><ele>393.66666666666663</ele><time>2026-04-25T13:56:37.991Z</time></trkpt><trkpt lat="44.5052483" lon="8.7068517"><ele>392.33333333333337</ele><time>2026-04-25T13:56:38.991Z</time></trkpt><trkpt lat="44.50539" lon="8.7066133"><ele>391.0</ele><time>2026-04-25T13:56:39.991Z</time></trkpt><trkpt lat="44.50557" lon="8.7063767"><ele>389.0</ele><time>2026-04-25T13:56:40.991Z</time></trkpt><trkpt lat="44.505805" lon="8.70621"><ele>387.0</ele><time>2026-04-25T13:56:41.991Z</time></trkpt><trkpt lat="44.5060367" lon="8.7060283"><ele>387.0</ele><time>2026-04-25T13:56:42.991Z</time></trkpt><trkpt lat="44.5062217" lon="8.7058433"><ele>387.0</ele><time>2026-04-25T13:56:43.991Z</time></trkpt><trkpt lat="44.5063933" lon="8.70571"><ele>387.0</ele><time>2026-04-25T13:56:44.992Z</time></trkpt><trkpt lat="44.5065617" lon="8.705615"><ele>390.33333333333337</ele><time>2026-04-25T13:56:45.991Z</time></trkpt><trkpt lat="44.5067083" lon="8.7055467"><ele>393.6666666666667</ele><time>2026-04-25T13:56:46.992Z</time></trkpt><trkpt lat="44.50686" lon="8.7054817"><ele>397.0</ele><time>2026-04-25T13:56:47.991Z</time></trkpt><trkpt lat="44.50703" lon="8.7053933"><ele>394.33333333333337</ele><time>2026-04-25T13:56:48.992Z</time></trkpt><trkpt lat="44.5072017" lon="8.7052917"><ele>391.66666666666663</ele><time>2026-04-25T13:56:49.991Z</time></trkpt><trkpt lat="44.5073917" lon="8.705195"><ele>389.0</ele><time>2026-04-25T13:56:50.991Z</time></trkpt><trkpt lat="44.5075967" lon="8.7051083"><ele>389.0</ele><time>2026-04-25T13:56:51.992Z</time></trkpt><trkpt lat="44.5078217" lon="8.7050183"><ele>389.0</ele><time>2026-04-25T13:56:52.992Z</time></trkpt><trkpt lat="44.5080717" lon="8.7049217"><ele>391.5</ele><time>2026-04-25T13:56:53.991Z</time></trkpt><trkpt lat="44.508335" lon="8.70483"><ele>394.0</ele><time>2026-04-25T13:56:54.991Z</time></trkpt><trkpt lat="44.50861" lon="8.70472"><ele>399.0</ele><time>2026-04-25T13:56:55.992Z</time></trkpt><trkpt lat="44.5088783" lon="8.704595"><ele>404.0</ele><time>2026-04-25T13:56:56.991Z</time></trkpt><trkpt lat="44.5091267" lon="8.7044367"><ele>400.5</ele><time>2026-04-25T13:56:57.991Z</time></trkpt><trkpt lat="44.5093783" lon="8.704295"><ele>397.0</ele><time>2026-04-25T13:56:58.991Z</time></trkpt><trkpt lat="44.5096217" lon="8.70413"><ele>397.0</ele><time>2026-04-25T13:56:59.992Z</time></trkpt><trkpt lat="44.50986" lon="8.7039633"><ele>397.0</ele><time>2026-04-25T13:57:00.991Z</time></trkpt><trkpt lat="44.51009" lon="8.703785"><ele>397.0</ele><time>2026-04-25T13:57:01.992Z</time></trkpt><trkpt lat="44.5103133" lon="8.7036"><ele>397.0</ele><time>2026-04-25T13:57:02.991Z</time></trkpt><trkpt lat="44.5105633" lon="8.70342"><ele>399.0</ele><time>2026-04-25T13:57:03.991Z</time></trkpt><trkpt lat="44.51078" lon="8.7032133"><ele>401.0</ele><time>2026-04-25T13:57:04.991Z</time></trkpt><trkpt lat="44.5109933" lon="8.7029667"><ele>401.5</ele><time>2026-04-25T13:57:05.991Z</time></trkpt><trkpt lat="44.5112217" lon="8.7027267"><ele>402.0</ele><time>2026-04-25T13:57:06.991Z</time></trkpt><trkpt lat="44.511465" lon="8.7024817"><ele>402.0</ele><time>2026-04-25T13:57:07.992Z</time></trkpt><trkpt lat="44.5116917" lon="8.702245"><ele>402.0</ele><time>2026-04-25T13:57:08.992Z</time></trkpt><trkpt lat="44.5119083" lon="8.702"><ele>401.5</ele><time>2026-04-25T13:57:09.991Z</time></trkpt><trkpt lat="44.5121283" lon="8.7017383"><ele>401.0</ele><time>2026-04-25T13:57:10.991Z</time></trkpt><trkpt lat="44.5123383" lon="8.70151"><ele>401.0</ele><time>2026-04-25T13:57:11.991Z</time></trkpt><trkpt lat="44.51254" lon="8.7013067"><ele>401.0</ele><time>2026-04-25T13:57:12.991Z</time></trkpt><trkpt lat="44.512735" lon="8.7011667"><ele>393.66666666666663</ele><time>2026-04-25T13:57:13.992Z</time></trkpt><trkpt lat="44.5129283" lon="8.7010567"><ele>386.3333333333333</ele><time>2026-04-25T13:57:14.991Z</time></trkpt><trkpt lat="44.51313" lon="8.7009767"><ele>379.0</ele><time>2026-04-25T13:57:15.991Z</time></trkpt><trkpt lat="44.51333" lon="8.7009083"><ele>379.0</ele><time>2026-04-25T13:57:16.991Z</time></trkpt><trkpt lat="44.5135533" lon="8.700855"><ele>379.0</ele><time>2026-04-25T13:57:17.991Z</time></trkpt><trkpt lat="44.513795" lon="8.7007983"><ele>379.5</ele><time>2026-04-25T13:57:18.991Z</time></trkpt><trkpt lat="44.5140633" lon="8.70073"><ele>380.0</ele><time>2026-04-25T13:57:19.992Z</time></trkpt><trkpt lat="44.5143333" lon="8.70068"><ele>382.0</ele><time>2026-04-25T13:57:20.992Z</time></trkpt><trkpt lat="44.5146083" lon="8.7006117"><ele>384.0</ele><time>2026-04-25T13:57:21.991Z</time></trkpt><trkpt lat="44.5148933" lon="8.700555"><ele>384.0</ele><time>2026-04-25T13:57:22.991Z</time></trkpt><trkpt lat="44.5151783" lon="8.70052"><ele>384.0</ele><time>2026-04-25T13:57:23.991Z</time></trkpt><trkpt lat="44.5154667" lon="8.700475"><ele>391.0</ele><time>2026-04-25T13:57:24.992Z</time></trkpt><trkpt lat="44.515745" lon="8.7004317"><ele>398.0</ele><time>2026-04-25T13:57:25.991Z</time></trkpt><trkpt lat="44.5160183" lon="8.70036"><ele>389.5</ele><time>2026-04-25T13:57:26.992Z</time></trkpt><trkpt lat="44.5162883" lon="8.7002367"><ele>381.0</ele><time>2026-04-25T13:57:27.991Z</time></trkpt><trkpt lat="44.516555" lon="8.7001017"><ele>381.0</ele><time>2026-04-25T13:57:28.991Z</time></trkpt><trkpt lat="44.516815" lon="8.6999667"><ele>381.0</ele><time>2026-04-25T13:57:29.992Z</time></trkpt><trkpt lat="44.5170717" lon="8.6998483"><ele>382.5</ele><time>2026-04-25T13:57:30.992Z</time></trkpt><trkpt lat="44.5173133" lon="8.699745"><ele>384.0</ele><time>2026-04-25T13:57:31.992Z</time></trkpt><trkpt lat="44.5175433" lon="8.6996967"><ele>384.0</ele><time>2026-04-25T13:57:32.991Z</time></trkpt><trkpt lat="44.5177967" lon="8.6997083"><ele>384.0</ele><time>2026-04-25T13:57:33.991Z</time></trkpt><trkpt lat="44.5180417" lon="8.6997417"><ele>376.0</ele><time>2026-04-25T13:57:34.991Z</time></trkpt><trkpt lat="44.5183117" lon="8.6998233"><ele>368.0</ele><time>2026-04-25T13:57:35.991Z</time></trkpt><trkpt lat="44.5185783" lon="8.69989"><ele>367.0</ele><time>2026-04-25T13:57:36.991Z</time></trkpt><trkpt lat="44.5188417" lon="8.6999267"><ele>366.0</ele><time>2026-04-25T13:57:37.991Z</time></trkpt><trkpt lat="44.519095" lon="8.6999667"><ele>366.0</ele><time>2026-04-25T13:57:38.991Z</time></trkpt><trkpt lat="44.5193283" lon="8.700015"><ele>366.0</ele><time>2026-04-25T13:57:39.991Z</time></trkpt><trkpt lat="44.519575" lon="8.7000533"><ele>366.0</ele><time>2026-04-25T13:57:40.991Z</time></trkpt><trkpt lat="44.519805" lon="8.7001067"><ele>366.0</ele><time>2026-04-25T13:57:41.991Z</time></trkpt><trkpt lat="44.5200167" lon="8.7001783"><ele>366.0</ele><time>2026-04-25T13:57:42.991Z</time></trkpt><trkpt lat="44.5202117" lon="8.7002983"><ele>366.0</ele><time>2026-04-25T13:57:43.991Z</time></trkpt><trkpt lat="44.5203983" lon="8.7004617"><ele>366.0</ele><time>2026-04-25T13:57:44.991Z</time></trkpt><trkpt lat="44.5205867" lon="8.7006317"><ele>366.0</ele><time>2026-04-25T13:57:45.991Z</time></trkpt><trkpt lat="44.5207867" lon="8.700765"><ele>366.0</ele><time>2026-04-25T13:57:46.991Z</time></trkpt><trkpt lat="44.52099" lon="8.7008467"><ele>366.0</ele><time>2026-04-25T13:57:47.992Z</time></trkpt><trkpt lat="44.5212133" lon="8.7008817"><ele>366.6666666666667</ele><time>2026-04-25T13:57:48.991Z</time></trkpt><trkpt lat="44.521425" lon="8.7008967"><ele>367.33333333333337</ele><time>2026-04-25T13:57:49.991Z</time></trkpt><trkpt lat="44.5216417" lon="8.7009383"><ele>368.0</ele><time>2026-04-25T13:57:50.992Z</time></trkpt><trkpt lat="44.52184" lon="8.70105"><ele>366.5</ele><time>2026-04-25T13:57:51.991Z</time></trkpt><trkpt lat="44.52207" lon="8.701215"><ele>365.0</ele><time>2026-04-25T13:57:52.991Z</time></trkpt><trkpt lat="44.5222817" lon="8.7014117"><ele>365.0</ele><time>2026-04-25T13:57:53.992Z</time></trkpt><trkpt lat="44.5224967" lon="8.7016083"><ele>365.0</ele><time>2026-04-25T13:57:54.991Z</time></trkpt><trkpt lat="44.522715" lon="8.70181"><ele>365.5</ele><time>2026-04-25T13:57:55.991Z</time></trkpt><trkpt lat="44.5229217" lon="8.7020017"><ele>366.0</ele><time>2026-04-25T13:57:56.992Z</time></trkpt><trkpt lat="44.5231433" lon="8.7021917"><ele>366.0</ele><time>2026-04-25T13:57:57.991Z</time></trkpt><trkpt lat="44.5233567" lon="8.7023783"><ele>366.0</ele><time>2026-04-25T13:57:58.991Z</time></trkpt><trkpt lat="44.5235517" lon="8.7025683"><ele>365.0</ele><time>2026-04-25T13:57:59.991Z</time></trkpt><trkpt lat="44.5237583" lon="8.7027283"><ele>364.0</ele><time>2026-04-25T13:58:00.991Z</time></trkpt><trkpt lat="44.5239383" lon="8.7028983"><ele>364.0</ele><time>2026-04-25T13:58:01.992Z</time></trkpt><trkpt lat="44.5240983" lon="8.703065"><ele>364.0</ele><time>2026-04-25T13:58:02.992Z</time></trkpt><trkpt lat="44.524245" lon="8.7032133"><ele>364.0</ele><time>2026-04-25T13:58:03.991Z</time></trkpt><trkpt lat="44.524395" lon="8.703355"><ele>364.0</ele><time>2026-04-25T13:58:04.991Z</time></trkpt><trkpt lat="44.5245517" lon="8.7034583"><ele>364.0</ele><time>2026-04-25T13:58:05.991Z</time></trkpt><trkpt lat="44.5247067" lon="8.7035083"><ele>364.0</ele><time>2026-04-25T13:58:06.991Z</time></trkpt><trkpt lat="44.5248533" lon="8.7035033"><ele>366.66666666666663</ele><time>2026-04-25T13:58:07.992Z</time></trkpt><trkpt lat="44.5250083" lon="8.7034417"><ele>369.3333333333333</ele><time>2026-04-25T13:58:08.992Z</time></trkpt><trkpt lat="44.5251483" lon="8.7033367"><ele>372.0</ele><time>2026-04-25T13:58:09.991Z</time></trkpt><trkpt lat="44.5252767" lon="8.7032017"><ele>372.0</ele><time>2026-04-25T13:58:10.991Z</time></trkpt><trkpt lat="44.525385" lon="8.7030283"><ele>372.0</ele><time>2026-04-25T13:58:11.992Z</time></trkpt><trkpt lat="44.5254267" lon="8.7028017"><ele>372.0</ele><time>2026-04-25T13:58:12.991Z</time></trkpt><trkpt lat="44.525445" lon="8.7025683"><ele>371.0</ele><time>2026-04-25T13:58:13.992Z</time></trkpt><trkpt lat="44.525405" lon="8.7023233"><ele>370.0</ele><time>2026-04-25T13:58:14.991Z</time></trkpt><trkpt lat="44.5253883" lon="8.70206"><ele>369.0</ele><time>2026-04-25T13:58:15.992Z</time></trkpt><trkpt lat="44.5253917" lon="8.70183"><ele>375.33333333333337</ele><time>2026-04-25T13:58:16.991Z</time></trkpt><trkpt lat="44.5254467" lon="8.7015917"><ele>381.6666666666667</ele><time>2026-04-25T13:58:17.992Z</time></trkpt><trkpt lat="44.5255033" lon="8.7013683"><ele>388.0</ele><time>2026-04-25T13:58:18.991Z</time></trkpt><trkpt lat="44.52563" lon="8.7011433"><ele>375.5</ele><time>2026-04-25T13:58:19.991Z</time></trkpt><trkpt lat="44.5257983" lon="8.7009367"><ele>363.0</ele><time>2026-04-25T13:58:20.991Z</time></trkpt><trkpt lat="44.5259817" lon="8.7007467"><ele>363.0</ele><time>2026-04-25T13:58:21.992Z</time></trkpt><trkpt lat="44.5261467" lon="8.700565"><ele>363.0</ele><time>2026-04-25T13:58:22.991Z</time></trkpt><trkpt lat="44.5263133" lon="8.70044"><ele>363.0</ele><time>2026-04-25T13:58:23.991Z</time></trkpt><trkpt lat="44.5264883" lon="8.7003733"><ele>363.3333333333333</ele><time>2026-04-25T13:58:24.992Z</time></trkpt><trkpt lat="44.52668" lon="8.7003667"><ele>363.66666666666663</ele><time>2026-04-25T13:58:25.991Z</time></trkpt><trkpt lat="44.5268967" lon="8.7004"><ele>364.0</ele><time>2026-04-25T13:58:26.991Z</time></trkpt><trkpt lat="44.52711" lon="8.7004333"><ele>364.0</ele><time>2026-04-25T13:58:27.991Z</time></trkpt><trkpt lat="44.5273183" lon="8.70046"><ele>364.0</ele><time>2026-04-25T13:58:28.991Z</time></trkpt><trkpt lat="44.5275383" lon="8.7004933"><ele>364.0</ele><time>2026-04-25T13:58:29.992Z</time></trkpt><trkpt lat="44.5277783" lon="8.700525"><ele>361.5</ele><time>2026-04-25T13:58:30.992Z</time></trkpt><trkpt lat="44.5280133" lon="8.700555"><ele>359.0</ele><time>2026-04-25T13:58:31.992Z</time></trkpt><trkpt lat="44.5282333" lon="8.700585"><ele>359.0</ele><time>2026-04-25T13:58:32.992Z</time></trkpt><trkpt lat="44.5284183" lon="8.7006283"><ele>359.0</ele><time>2026-04-25T13:58:33.991Z</time></trkpt><trkpt lat="44.5285817" lon="8.7006767"><ele>359.0</ele><time>2026-04-25T13:58:34.992Z</time></trkpt><trkpt lat="44.528735" lon="8.7007633"><ele>359.6666666666667</ele><time>2026-04-25T13:58:35.991Z</time></trkpt><trkpt lat="44.52886" lon="8.7009067"><ele>360.3333333333333</ele><time>2026-04-25T13:58:36.992Z</time></trkpt><trkpt lat="44.5289783" lon="8.7010917"><ele>361.0</ele><time>2026-04-25T13:58:37.991Z</time></trkpt><trkpt lat="44.5290983" lon="8.7013033"><ele>361.0</ele><time>2026-04-25T13:58:38.992Z</time></trkpt><trkpt lat="44.5292167" lon="8.70153"><ele>361.0</ele><time>2026-04-25T13:58:39.991Z</time></trkpt><trkpt lat="44.5293317" lon="8.7017533"><ele>361.0</ele><time>2026-04-25T13:58:40.991Z</time></trkpt><trkpt lat="44.529435" lon="8.7019683"><ele>362.5</ele><time>2026-04-25T13:58:41.991Z</time></trkpt><trkpt lat="44.5295167" lon="8.7021333"><ele>364.0</ele><time>2026-04-25T13:58:42.991Z</time></trkpt><trkpt lat="44.5296183" lon="8.7022567"><ele>365.5</ele><time>2026-04-25T13:58:43.992Z</time></trkpt><trkpt lat="44.5297383" lon="8.7023317"><ele>367.0</ele><time>2026-04-25T13:58:44.992Z</time></trkpt><trkpt lat="44.5298967" lon="8.702365"><ele>367.0</ele><time>2026-04-25T13:58:45.991Z</time></trkpt><trkpt lat="44.5300917" lon="8.7023483"><ele>367.0</ele><time>2026-04-25T13:58:46.992Z</time></trkpt><trkpt lat="44.530285" lon="8.7022967"><ele>367.0</ele><time>2026-04-25T13:58:47.991Z</time></trkpt><trkpt lat="44.53045" lon="8.7022"><ele>369.3333333333333</ele><time>2026-04-25T13:58:48.992Z</time></trkpt><trkpt lat="44.5306233" lon="8.7020683"><ele>371.6666666666667</ele><time>2026-04-25T13:58:49.991Z</time></trkpt><trkpt lat="44.5308067" lon="8.7019133"><ele>374.0</ele><time>2026-04-25T13:58:50.991Z</time></trkpt><trkpt lat="44.5309883" lon="8.7017633"><ele>373.6666666666667</ele><time>2026-04-25T13:58:51.991Z</time></trkpt><trkpt lat="44.5311767" lon="8.7016167"><ele>373.3333333333333</ele><time>2026-04-25T13:58:52.991Z</time></trkpt><trkpt lat="44.5313567" lon="8.701495"><ele>373.0</ele><time>2026-04-25T13:58:53.991Z</time></trkpt><trkpt lat="44.5315383" lon="8.7013817"><ele>373.0</ele><time>2026-04-25T13:58:54.991Z</time></trkpt><trkpt lat="44.5317033" lon="8.7012983"><ele>373.0</ele><time>2026-04-25T13:58:55.991Z</time></trkpt><trkpt lat="44.5318733" lon="8.70123"><ele>373.0</ele><time>2026-04-25T13:58:56.992Z</time></trkpt><trkpt lat="44.5320533" lon="8.7012067"><ele>371.3333333333333</ele><time>2026-04-25T13:58:57.991Z</time></trkpt><trkpt lat="44.53223" lon="8.7011967"><ele>369.6666666666667</ele><time>2026-04-25T13:58:58.991Z</time></trkpt><trkpt lat="44.532415" lon="8.7011483"><ele>368.0</ele><time>2026-04-25T13:58:59.991Z</time></trkpt><trkpt lat="44.532605" lon="8.7010683"><ele>368.0</ele><time>2026-04-25T13:59:00.991Z</time></trkpt><trkpt lat="44.5327783" lon="8.700875"><ele>368.0</ele><time>2026-04-25T13:59:01.991Z</time></trkpt><trkpt lat="44.532925" lon="8.7006483"><ele>368.0</ele><time>2026-04-25T13:59:02.991Z</time></trkpt><trkpt lat="44.533055" lon="8.7004233"><ele>365.0</ele><time>2026-04-25T13:59:03.991Z</time></trkpt><trkpt lat="44.533215" lon="8.7001833"><ele>362.0</ele><time>2026-04-25T13:59:04.991Z</time></trkpt><trkpt lat="44.5333783" lon="8.6999483"><ele>362.0</ele><time>2026-04-25T13:59:05.991Z</time></trkpt><trkpt lat="44.5335433" lon="8.6997333"><ele>362.0</ele><time>2026-04-25T13:59:06.991Z</time></trkpt><trkpt lat="44.5337183" lon="8.6995083"><ele>360.33333333333337</ele><time>2026-04-25T13:59:07.991Z</time></trkpt><trkpt lat="44.53388" lon="8.699285"><ele>358.6666666666667</ele><time>2026-04-25T13:59:08.992Z</time></trkpt><trkpt lat="44.534055" lon="8.6990983"><ele>357.0</ele><time>2026-04-25T13:59:09.991Z</time></trkpt><trkpt lat="44.5342317" lon="8.6989117"><ele>357.0</ele><time>2026-04-25T13:59:10.991Z</time></trkpt><trkpt lat="44.53441" lon="8.698745"><ele>357.0</ele><time>2026-04-25T13:59:11.991Z</time></trkpt><trkpt lat="44.53459" lon="8.6985667"><ele>357.0</ele><time>2026-04-25T13:59:12.991Z</time></trkpt><trkpt lat="44.5347883" lon="8.6984133"><ele>354.3333333333333</ele><time>2026-04-25T13:59:13.991Z</time></trkpt><trkpt lat="44.534985" lon="8.69828"><ele>351.66666666666663</ele><time>2026-04-25T13:59:14.991Z</time></trkpt><trkpt lat="44.5351817" lon="8.69813"><ele>349.0</ele><time>2026-04-25T13:59:15.991Z</time></trkpt><trkpt lat="44.5353833" lon="8.6979833"><ele>349.3333333333333</ele><time>2026-04-25T13:59:16.992Z</time></trkpt><trkpt lat="44.5355767" lon="8.69783"><ele>349.6666666666667</ele><time>2026-04-25T13:59:17.991Z</time></trkpt><trkpt lat="44.535765" lon="8.6977"><ele>350.0</ele><time>2026-04-25T13:59:18.991Z</time></trkpt><trkpt lat="44.5359367" lon="8.6975783"><ele>349.0</ele><time>2026-04-25T13:59:19.992Z</time></trkpt><trkpt lat="44.5361" lon="8.6974667"><ele>348.0</ele><time>2026-04-25T13:59:20.991Z</time></trkpt><trkpt lat="44.53625" lon="8.6973583"><ele>347.0</ele><time>2026-04-25T13:59:21.991Z</time></trkpt><trkpt lat="44.536395" lon="8.6972767"><ele>347.0</ele><time>2026-04-25T13:59:22.992Z</time></trkpt><trkpt lat="44.5365333" lon="8.6972117"><ele>347.0</ele><time>2026-04-25T13:59:23.991Z</time></trkpt><trkpt lat="44.5366683" lon="8.6972233"><ele>347.0</ele><time>2026-04-25T13:59:24.992Z</time></trkpt><trkpt lat="44.5368133" lon="8.6972983"><ele>347.0</ele><time>2026-04-25T13:59:25.991Z</time></trkpt><trkpt lat="44.5369383" lon="8.6974"><ele>347.6666666666667</ele><time>2026-04-25T13:59:26.991Z</time></trkpt><trkpt lat="44.5370717" lon="8.69752"><ele>348.3333333333333</ele><time>2026-04-25T13:59:27.991Z</time></trkpt><trkpt lat="44.53722" lon="8.6976117"><ele>349.0</ele><time>2026-04-25T13:59:28.992Z</time></trkpt><trkpt lat="44.5373667" lon="8.6976967"><ele>348.0</ele><time>2026-04-25T13:59:29.991Z</time></trkpt><trkpt lat="44.5375017" lon="8.6977567"><ele>347.0</ele><time>2026-04-25T13:59:30.992Z</time></trkpt><trkpt lat="44.5376217" lon="8.697795"><ele>346.0</ele><time>2026-04-25T13:59:31.991Z</time></trkpt><trkpt lat="44.537725" lon="8.6978217"><ele>345.0</ele><time>2026-04-25T13:59:32.991Z</time></trkpt><trkpt lat="44.5378217" lon="8.6978433"><ele>344.5</ele><time>2026-04-25T13:59:33.992Z</time></trkpt><trkpt lat="44.537895" lon="8.69787"><ele>344.0</ele><time>2026-04-25T13:59:34.991Z</time></trkpt><trkpt lat="44.5379733" lon="8.6978867"><ele>343.5</ele><time>2026-04-25T13:59:35.991Z</time></trkpt><trkpt lat="44.5380733" lon="8.697915"><ele>343.0</ele><time>2026-04-25T13:59:37.991Z</time></trkpt><trkpt lat="44.53814" lon="8.697915"><ele>342.5</ele><time>2026-04-25T13:59:39.992Z</time></trkpt><trkpt lat="44.5382233" lon="8.69789"><ele>342.0</ele><time>2026-04-25T13:59:42.992Z</time></trkpt><trkpt lat="44.5382983" lon="8.6978967"><ele>342.0</ele><time>2026-04-25T13:59:45.991Z</time></trkpt><trkpt lat="44.538365" lon="8.6978967"><ele>342.0</ele><time>2026-04-25T13:59:51.992Z</time></trkpt><trkpt lat="44.538455" lon="8.697905"><ele>342.0</ele><time>2026-04-25T13:59:53.991Z</time></trkpt><trkpt lat="44.5385483" lon="8.6979183"><ele>342.0</ele><time>2026-04-25T13:59:55.991Z</time></trkpt><trkpt lat="44.53865" lon="8.6980017"><ele>342.0</ele><time>2026-04-25T13:59:57.991Z</time></trkpt><trkpt lat="44.5387" lon="8.69806"><ele>342.0</ele><time>2026-04-25T13:59:58.992Z</time></trkpt><trkpt lat="44.5387467" lon="8.6981383"><ele>341.6666666666667</ele><time>2026-04-25T13:59:59.992Z</time></trkpt><trkpt lat="44.5387933" lon="8.698225"><ele>341.3333333333333</ele><time>2026-04-25T14:00:00.992Z</time></trkpt><trkpt lat="44.5388433" lon="8.6983067"><ele>341.0</ele><time>2026-04-25T14:00:01.991Z</time></trkpt><trkpt lat="44.5388867" lon="8.698385"><ele>340.66666666666663</ele><time>2026-04-25T14:00:02.992Z</time></trkpt><trkpt lat="44.5389383" lon="8.6985167"><ele>340.3333333333333</ele><time>2026-04-25T14:00:04.991Z</time></trkpt><trkpt lat="44.5389983" lon="8.69864"><ele>340.0</ele><time>2026-04-25T14:00:06.991Z</time></trkpt><trkpt lat="44.53905" lon="8.698695"><ele>343.4</ele><time>2026-04-25T14:00:07.991Z</time></trkpt><trkpt lat="44.5391283" lon="8.6987367"><ele>346.8</ele><time>2026-04-25T14:00:08.991Z</time></trkpt><trkpt lat="44.53922" lon="8.6987717"><ele>350.20000000000005</ele><time>2026-04-25T14:00:09.991Z</time></trkpt><trkpt lat="44.5393317" lon="8.69877"><ele>353.6</ele><time>2026-04-25T14:00:10.991Z</time></trkpt><trkpt lat="44.5394517" lon="8.6987217"><ele>357.0</ele><time>2026-04-25T14:00:11.991Z</time></trkpt><trkpt lat="44.53957" lon="8.69868"><ele>355.25</ele><time>2026-04-25T14:00:12.992Z</time></trkpt><trkpt lat="44.5396817" lon="8.69864"><ele>353.5</ele><time>2026-04-25T14:00:13.991Z</time></trkpt><trkpt lat="44.53979" lon="8.6986"><ele>351.75</ele><time>2026-04-25T14:00:14.992Z</time></trkpt><trkpt lat="44.5399033" lon="8.69857"><ele>350.0</ele><time>2026-04-25T14:00:15.991Z</time></trkpt><trkpt lat="44.5400133" lon="8.6985167"><ele>350.0</ele><time>2026-04-25T14:00:16.991Z</time></trkpt><trkpt lat="44.5401083" lon="8.69843"><ele>350.0</ele><time>2026-04-25T14:00:17.992Z</time></trkpt><trkpt lat="44.54019" lon="8.6983267"><ele>350.0</ele><time>2026-04-25T14:00:18.991Z</time></trkpt><trkpt lat="44.5402683" lon="8.69822"><ele>350.0</ele><time>2026-04-25T14:00:19.991Z</time></trkpt><trkpt lat="44.5403417" lon="8.698105"><ele>350.0</ele><time>2026-04-25T14:00:20.991Z</time></trkpt><trkpt lat="44.54041" lon="8.6979983"><ele>349.6</ele><time>2026-04-25T14:00:21.992Z</time></trkpt><trkpt lat="44.5404683" lon="8.6978983"><ele>349.2</ele><time>2026-04-25T14:00:22.992Z</time></trkpt><trkpt lat="44.5405283" lon="8.6978017"><ele>348.79999999999995</ele><time>2026-04-25T14:00:23.992Z</time></trkpt><trkpt lat="44.5405967" lon="8.697705"><ele>348.4</ele><time>2026-04-25T14:00:24.991Z</time></trkpt><trkpt lat="44.5406667" lon="8.69762"><ele>348.0</ele><time>2026-04-25T14:00:25.991Z</time></trkpt><trkpt lat="44.5407333" lon="8.6975483"><ele>348.0</ele><time>2026-04-25T14:00:26.991Z</time></trkpt><trkpt lat="44.5408017" lon="8.6974667"><ele>348.0</ele><time>2026-04-25T14:00:27.992Z</time></trkpt><trkpt lat="44.5408767" lon="8.6973933"><ele>348.0</ele><time>2026-04-25T14:00:28.992Z</time></trkpt><trkpt lat="44.5409467" lon="8.697325"><ele>348.0</ele><time>2026-04-25T14:00:29.991Z</time></trkpt><trkpt lat="44.5410167" lon="8.69725"><ele>348.0</ele><time>2026-04-25T14:00:30.992Z</time></trkpt><trkpt lat="44.5411067" lon="8.697165"><ele>348.0</ele><time>2026-04-25T14:00:31.991Z</time></trkpt><trkpt lat="44.5411967" lon="8.697075"><ele>348.0</ele><time>2026-04-25T14:00:32.991Z</time></trkpt><trkpt lat="44.5412817" lon="8.6969833"><ele>348.0</ele><time>2026-04-25T14:00:33.991Z</time></trkpt><trkpt lat="44.54138" lon="8.696895"><ele>348.0</ele><time>2026-04-25T14:00:34.992Z</time></trkpt><trkpt lat="44.5414717" lon="8.69683"><ele>348.0</ele><time>2026-04-25T14:00:35.991Z</time></trkpt><trkpt lat="44.54156" lon="8.6967583"><ele>348.5</ele><time>2026-04-25T14:00:36.991Z</time></trkpt><trkpt lat="44.54166" lon="8.6966983"><ele>349.0</ele><time>2026-04-25T14:00:37.991Z</time></trkpt><trkpt lat="44.5417567" lon="8.696615"><ele>349.5</ele><time>2026-04-25T14:00:38.991Z</time></trkpt><trkpt lat="44.54185" lon="8.6965233"><ele>350.0</ele><time>2026-04-25T14:00:39.991Z</time></trkpt><trkpt lat="44.541935" lon="8.6964033"><ele>350.0</ele><time>2026-04-25T14:00:40.991Z</time></trkpt><trkpt lat="44.5420217" lon="8.6963017"><ele>350.0</ele><time>2026-04-25T14:00:41.991Z</time></trkpt><trkpt lat="44.5421033" lon="8.696175"><ele>350.0</ele><time>2026-04-25T14:00:42.991Z</time></trkpt><trkpt lat="44.54218" lon="8.6960283"><ele>350.0</ele><time>2026-04-25T14:00:43.992Z</time></trkpt><trkpt lat="44.542255" lon="8.6958917"><ele>353.0</ele><time>2026-04-25T14:00:44.991Z</time></trkpt><trkpt lat="44.54233" lon="8.6957433"><ele>356.0</ele><time>2026-04-25T14:00:45.992Z</time></trkpt><trkpt lat="44.542405" lon="8.6955833"><ele>359.0</ele><time>2026-04-25T14:00:46.992Z</time></trkpt><trkpt lat="44.542475" lon="8.695425"><ele>362.0</ele><time>2026-04-25T14:00:47.991Z</time></trkpt><trkpt lat="44.54254" lon="8.695275"><ele>357.5</ele><time>2026-04-25T14:00:48.991Z</time></trkpt><trkpt lat="44.5425983" lon="8.69511"><ele>353.0</ele><time>2026-04-25T14:00:49.991Z</time></trkpt><trkpt lat="44.542665" lon="8.6949533"><ele>348.5</ele><time>2026-04-25T14:00:50.991Z</time></trkpt><trkpt lat="44.5427333" lon="8.6947883"><ele>344.0</ele><time>2026-04-25T14:00:51.991Z</time></trkpt><trkpt lat="44.54281" lon="8.694635"><ele>347.0</ele><time>2026-04-25T14:00:52.991Z</time></trkpt><trkpt lat="44.5428833" lon="8.694455"><ele>350.0</ele><time>2026-04-25T14:00:53.992Z</time></trkpt><trkpt lat="44.542945" lon="8.6942533"><ele>353.0</ele><time>2026-04-25T14:00:54.991Z</time></trkpt><trkpt lat="44.5429933" lon="8.6940517"><ele>353.0</ele><time>2026-04-25T14:00:55.991Z</time></trkpt><trkpt lat="44.5430433" lon="8.6938317"><ele>353.0</ele><time>2026-04-25T14:00:56.991Z</time></trkpt><trkpt lat="44.543095" lon="8.6936217"><ele>353.0</ele><time>2026-04-25T14:00:57.991Z</time></trkpt><trkpt lat="44.5431467" lon="8.693405"><ele>351.75</ele><time>2026-04-25T14:00:58.991Z</time></trkpt><trkpt lat="44.5432017" lon="8.6932117"><ele>350.5</ele><time>2026-04-25T14:00:59.991Z</time></trkpt><trkpt lat="44.5432517" lon="8.6930333"><ele>349.25</ele><time>2026-04-25T14:01:00.991Z</time></trkpt><trkpt lat="44.543305" lon="8.6928583"><ele>348.0</ele><time>2026-04-25T14:01:01.991Z</time></trkpt><trkpt lat="44.5433733" lon="8.6926767"><ele>347.6666666666667</ele><time>2026-04-25T14:01:02.991Z</time></trkpt><trkpt lat="44.5434533" lon="8.6925033"><ele>347.33333333333337</ele><time>2026-04-25T14:01:03.991Z</time></trkpt><trkpt lat="44.5435567" lon="8.6923433"><ele>347.0</ele><time>2026-04-25T14:01:04.991Z</time></trkpt><trkpt lat="44.5436617" lon="8.6921833"><ele>347.0</ele><time>2026-04-25T14:01:05.991Z</time></trkpt><trkpt lat="44.543775" lon="8.6920267"><ele>347.0</ele><time>2026-04-25T14:01:06.991Z</time></trkpt><trkpt lat="44.5439033" lon="8.69189"><ele>347.0</ele><time>2026-04-25T14:01:07.991Z</time></trkpt><trkpt lat="44.5440033" lon="8.69175"><ele>347.0</ele><time>2026-04-25T14:01:08.991Z</time></trkpt><trkpt lat="44.5440917" lon="8.6916367"><ele>347.0</ele><time>2026-04-25T14:01:09.992Z</time></trkpt><trkpt lat="44.5441717" lon="8.69153"><ele>347.0</ele><time>2026-04-25T14:01:10.991Z</time></trkpt><trkpt lat="44.5442333" lon="8.6914033"><ele>347.0</ele><time>2026-04-25T14:01:11.992Z</time></trkpt><trkpt lat="44.5442717" lon="8.6912633"><ele>347.0</ele><time>2026-04-25T14:01:12.991Z</time></trkpt><trkpt lat="44.5442833" lon="8.69111"><ele>344.5</ele><time>2026-04-25T14:01:13.991Z</time></trkpt><trkpt lat="44.54427" lon="8.6909517"><ele>342.0</ele><time>2026-04-25T14:01:14.991Z</time></trkpt><trkpt lat="44.5442183" lon="8.690795"><ele>339.5</ele><time>2026-04-25T14:01:15.991Z</time></trkpt><trkpt lat="44.544155" lon="8.6906467"><ele>337.0</ele><time>2026-04-25T14:01:16.991Z</time></trkpt><trkpt lat="44.544105" lon="8.6905083"><ele>337.0</ele><time>2026-04-25T14:01:17.992Z</time></trkpt><trkpt lat="44.54405" lon="8.690355"><ele>337.0</ele><time>2026-04-25T14:01:18.991Z</time></trkpt><trkpt lat="44.54401" lon="8.6901867"><ele>337.0</ele><time>2026-04-25T14:01:19.991Z</time></trkpt><trkpt lat="44.5439867" lon="8.69"><ele>337.0</ele><time>2026-04-25T14:01:20.991Z</time></trkpt><trkpt lat="44.5439833" lon="8.6897967"><ele>338.0</ele><time>2026-04-25T14:01:21.992Z</time></trkpt><trkpt lat="44.5439933" lon="8.689595"><ele>339.0</ele><time>2026-04-25T14:01:22.991Z</time></trkpt><trkpt lat="44.5440067" lon="8.689385"><ele>340.0</ele><time>2026-04-25T14:01:23.992Z</time></trkpt><trkpt lat="44.54401" lon="8.689175"><ele>341.0</ele><time>2026-04-25T14:01:24.992Z</time></trkpt><trkpt lat="44.5440033" lon="8.688965"><ele>341.33333333333337</ele><time>2026-04-25T14:01:25.992Z</time></trkpt><trkpt lat="44.5439817" lon="8.688735"><ele>341.6666666666667</ele><time>2026-04-25T14:01:26.992Z</time></trkpt><trkpt lat="44.5439617" lon="8.6885017"><ele>342.0</ele><time>2026-04-25T14:01:27.991Z</time></trkpt><trkpt lat="44.5439483" lon="8.6882733"><ele>342.25</ele><time>2026-04-25T14:01:28.991Z</time></trkpt><trkpt lat="44.543935" lon="8.6880517"><ele>342.5</ele><time>2026-04-25T14:01:29.992Z</time></trkpt><trkpt lat="44.5439333" lon="8.6878483"><ele>342.75</ele><time>2026-04-25T14:01:30.992Z</time></trkpt><trkpt lat="44.5439517" lon="8.6876633"><ele>343.0</ele><time>2026-04-25T14:01:31.992Z</time></trkpt><trkpt lat="44.5440033" lon="8.687505"><ele>343.0</ele><time>2026-04-25T14:01:32.991Z</time></trkpt><trkpt lat="44.5440733" lon="8.6873567"><ele>343.0</ele><time>2026-04-25T14:01:33.99Z</time></trkpt><trkpt lat="44.54416" lon="8.6872267"><ele>343.0</ele><time>2026-04-25T14:01:34.991Z</time></trkpt><trkpt lat="44.5442383" lon="8.6870783"><ele>343.0</ele><time>2026-04-25T14:01:35.991Z</time></trkpt><trkpt lat="44.5443017" lon="8.6869017"><ele>347.66666666666663</ele><time>2026-04-25T14:01:36.99Z</time></trkpt><trkpt lat="44.5443483" lon="8.6866783"><ele>352.3333333333333</ele><time>2026-04-25T14:01:37.991Z</time></trkpt><trkpt lat="44.5444017" lon="8.6864017"><ele>357.0</ele><time>2026-04-25T14:01:38.991Z</time></trkpt><trkpt lat="44.5444617" lon="8.6860817"><ele>361.0</ele><time>2026-04-25T14:01:39.99Z</time></trkpt><trkpt lat="44.54453" lon="8.6857517"><ele>365.0</ele><time>2026-04-25T14:01:40.99Z</time></trkpt><trkpt lat="44.54457" lon="8.685405"><ele>361.5</ele><time>2026-04-25T14:01:41.99Z</time></trkpt><trkpt lat="44.5445717" lon="8.6850383"><ele>358.0</ele><time>2026-04-25T14:01:42.99Z</time></trkpt><trkpt lat="44.5445317" lon="8.68467"><ele>351.0</ele><time>2026-04-25T14:01:43.99Z</time></trkpt><trkpt lat="44.5444767" lon="8.6842867"><ele>344.0</ele><time>2026-04-25T14:01:44.99Z</time></trkpt><trkpt lat="44.5444083" lon="8.683905"><ele>337.5</ele><time>2026-04-25T14:01:45.99Z</time></trkpt><trkpt lat="44.5443383" lon="8.6834917"><ele>331.0</ele><time>2026-04-25T14:01:46.99Z</time></trkpt><trkpt lat="44.5442767" lon="8.6830833"><ele>333.5</ele><time>2026-04-25T14:01:47.99Z</time></trkpt><trkpt lat="44.54421" lon="8.6826933"><ele>336.0</ele><time>2026-04-25T14:01:48.99Z</time></trkpt><trkpt lat="44.5441367" lon="8.682305"><ele>338.5</ele><time>2026-04-25T14:01:49.991Z</time></trkpt><trkpt lat="44.5440833" lon="8.681925"><ele>341.0</ele><time>2026-04-25T14:01:50.99Z</time></trkpt><trkpt lat="44.5440317" lon="8.6815583"><ele>341.0</ele><time>2026-04-25T14:01:51.99Z</time></trkpt><trkpt lat="44.544005" lon="8.6812167"><ele>341.0</ele><time>2026-04-25T14:01:52.991Z</time></trkpt><trkpt lat="44.5439967" lon="8.6808933"><ele>342.0</ele><time>2026-04-25T14:01:53.99Z</time></trkpt><trkpt lat="44.5440133" lon="8.680565"><ele>343.0</ele><time>2026-04-25T14:01:54.991Z</time></trkpt><trkpt lat="44.5440817" lon="8.6802567"><ele>338.5</ele><time>2026-04-25T14:01:55.99Z</time></trkpt><trkpt lat="44.5441983" lon="8.6799667"><ele>334.0</ele><time>2026-04-25T14:01:56.99Z</time></trkpt><trkpt lat="44.5443617" lon="8.67969"><ele>337.0</ele><time>2026-04-25T14:01:57.991Z</time></trkpt><trkpt lat="44.5445617" lon="8.67942"><ele>340.0</ele><time>2026-04-25T14:01:58.99Z</time></trkpt><trkpt lat="44.5447567" lon="8.6791567"><ele>340.0</ele><time>2026-04-25T14:01:59.99Z</time></trkpt><trkpt lat="44.5449467" lon="8.6789017"><ele>340.0</ele><time>2026-04-25T14:02:00.99Z</time></trkpt><trkpt lat="44.5451417" lon="8.6786617"><ele>346.5</ele><time>2026-04-25T14:02:01.99Z</time></trkpt><trkpt lat="44.54534" lon="8.67844"><ele>353.0</ele><time>2026-04-25T14:02:02.99Z</time></trkpt><trkpt lat="44.5455333" lon="8.6782367"><ele>353.0</ele><time>2026-04-25T14:02:03.99Z</time></trkpt><trkpt lat="44.545705" lon="8.6780417"><ele>353.0</ele><time>2026-04-25T14:02:04.991Z</time></trkpt><trkpt lat="44.545855" lon="8.6778367"><ele>353.0</ele><time>2026-04-25T14:02:05.991Z</time></trkpt><trkpt lat="44.545965" lon="8.67763"><ele>352.75</ele><time>2026-04-25T14:02:06.99Z</time></trkpt><trkpt lat="44.5460383" lon="8.6774433"><ele>352.5</ele><time>2026-04-25T14:02:07.99Z</time></trkpt><trkpt lat="44.5461117" lon="8.67728"><ele>352.25</ele><time>2026-04-25T14:02:08.99Z</time></trkpt><trkpt lat="44.5461983" lon="8.67717"><ele>352.0</ele><time>2026-04-25T14:02:09.99Z</time></trkpt><trkpt lat="44.54631" lon="8.6771067"><ele>352.0</ele><time>2026-04-25T14:02:10.991Z</time></trkpt><trkpt lat="44.5464433" lon="8.6770717"><ele>352.0</ele><time>2026-04-25T14:02:11.991Z</time></trkpt><trkpt lat="44.5466317" lon="8.677095"><ele>352.0</ele><time>2026-04-25T14:02:12.99Z</time></trkpt><trkpt lat="44.546835" lon="8.6771"><ele>355.3333333333333</ele><time>2026-04-25T14:02:13.99Z</time></trkpt><trkpt lat="44.5470517" lon="8.6770967"><ele>358.6666666666667</ele><time>2026-04-25T14:02:14.99Z</time></trkpt><trkpt lat="44.5472783" lon="8.677115"><ele>362.0</ele><time>2026-04-25T14:02:15.991Z</time></trkpt><trkpt lat="44.547515" lon="8.67706"><ele>362.0</ele><time>2026-04-25T14:02:16.99Z</time></trkpt><trkpt lat="44.547735" lon="8.6769867"><ele>362.0</ele><time>2026-04-25T14:02:17.99Z</time></trkpt><trkpt lat="44.547955" lon="8.676925"><ele>359.33333333333337</ele><time>2026-04-25T14:02:18.991Z</time></trkpt><trkpt lat="44.5481117" lon="8.67678"><ele>356.6666666666667</ele><time>2026-04-25T14:02:19.991Z</time></trkpt><trkpt lat="44.5482683" lon="8.6766133"><ele>354.0</ele><time>2026-04-25T14:02:20.99Z</time></trkpt><trkpt lat="44.548375" lon="8.6763817"><ele>354.0</ele><time>2026-04-25T14:02:21.991Z</time></trkpt><trkpt lat="44.5484517" lon="8.676135"><ele>354.0</ele><time>2026-04-25T14:02:22.991Z</time></trkpt><trkpt lat="44.548485" lon="8.675845"><ele>354.0</ele><time>2026-04-25T14:02:23.99Z</time></trkpt><trkpt lat="44.54851" lon="8.675515"><ele>339.5</ele><time>2026-04-25T14:02:24.991Z</time></trkpt><trkpt lat="44.5485167" lon="8.67518"><ele>325.0</ele><time>2026-04-25T14:02:25.991Z</time></trkpt><trkpt lat="44.5485233" lon="8.6748767"><ele>325.0</ele><time>2026-04-25T14:02:26.99Z</time></trkpt><trkpt lat="44.5485333" lon="8.6746083"><ele>325.0</ele><time>2026-04-25T14:02:27.99Z</time></trkpt><trkpt lat="44.548565" lon="8.674385"><ele>325.0</ele><time>2026-04-25T14:02:28.991Z</time></trkpt><trkpt lat="44.548615" lon="8.674165"><ele>323.3333333333333</ele><time>2026-04-25T14:02:29.99Z</time></trkpt><trkpt lat="44.5487067" lon="8.673955"><ele>321.6666666666667</ele><time>2026-04-25T14:02:30.99Z</time></trkpt><trkpt lat="44.5488317" lon="8.6737933"><ele>320.0</ele><time>2026-04-25T14:02:31.991Z</time></trkpt><trkpt lat="44.548975" lon="8.673675"><ele>319.0</ele><time>2026-04-25T14:02:32.991Z</time></trkpt><trkpt lat="44.549145" lon="8.673595"><ele>318.0</ele><time>2026-04-25T14:02:33.99Z</time></trkpt><trkpt lat="44.5493717" lon="8.67356"><ele>317.0</ele><time>2026-04-25T14:02:34.99Z</time></trkpt><trkpt lat="44.549595" lon="8.6735367"><ele>317.0</ele><time>2026-04-25T14:02:35.99Z</time></trkpt><trkpt lat="44.5498317" lon="8.673495"><ele>317.0</ele><time>2026-04-25T14:02:36.991Z</time></trkpt><trkpt lat="44.5500817" lon="8.673435"><ele>317.0</ele><time>2026-04-25T14:02:37.99Z</time></trkpt><trkpt lat="44.5503667" lon="8.6733733"><ele>317.0</ele><time>2026-04-25T14:02:38.99Z</time></trkpt><trkpt lat="44.5506517" lon="8.673315"><ele>316.0</ele><time>2026-04-25T14:02:39.991Z</time></trkpt><trkpt lat="44.5509033" lon="8.6732467"><ele>315.0</ele><time>2026-04-25T14:02:40.99Z</time></trkpt><trkpt lat="44.5511567" lon="8.6731783"><ele>317.0</ele><time>2026-04-25T14:02:41.991Z</time></trkpt><trkpt lat="44.551405" lon="8.6731217"><ele>319.0</ele><time>2026-04-25T14:02:42.99Z</time></trkpt><trkpt lat="44.5516683" lon="8.6731017"><ele>319.0</ele><time>2026-04-25T14:02:43.991Z</time></trkpt><trkpt lat="44.5519333" lon="8.6730767"><ele>319.0</ele><time>2026-04-25T14:02:44.991Z</time></trkpt><trkpt lat="44.5521983" lon="8.673065"><ele>319.0</ele><time>2026-04-25T14:02:45.991Z</time></trkpt><trkpt lat="44.5524717" lon="8.6730333"><ele>319.0</ele><time>2026-04-25T14:02:46.991Z</time></trkpt><trkpt lat="44.5527483" lon="8.6729817"><ele>328.0</ele><time>2026-04-25T14:02:47.99Z</time></trkpt><trkpt lat="44.5530017" lon="8.6728867"><ele>337.0</ele><time>2026-04-25T14:02:48.99Z</time></trkpt><trkpt lat="44.5532783" lon="8.6728"><ele>323.0</ele><time>2026-04-25T14:02:49.991Z</time></trkpt><trkpt lat="44.5535417" lon="8.6727067"><ele>309.0</ele><time>2026-04-25T14:02:50.99Z</time></trkpt><trkpt lat="44.5538067" lon="8.6726117"><ele>309.0</ele><time>2026-04-25T14:02:51.99Z</time></trkpt><trkpt lat="44.55407" lon="8.6725267"><ele>309.0</ele><time>2026-04-25T14:02:52.99Z</time></trkpt><trkpt lat="44.55432" lon="8.6724483"><ele>311.0</ele><time>2026-04-25T14:02:53.99Z</time></trkpt><trkpt lat="44.55457" lon="8.6723683"><ele>313.0</ele><time>2026-04-25T14:02:54.99Z</time></trkpt><trkpt lat="44.5548117" lon="8.6722883"><ele>313.0</ele><time>2026-04-25T14:02:55.99Z</time></trkpt><trkpt lat="44.5550417" lon="8.6722067"><ele>313.0</ele><time>2026-04-25T14:02:56.991Z</time></trkpt><trkpt lat="44.5552733" lon="8.67212"><ele>313.0</ele><time>2026-04-25T14:02:57.99Z</time></trkpt><trkpt lat="44.5554717" lon="8.6720333"><ele>313.0</ele><time>2026-04-25T14:02:58.991Z</time></trkpt><trkpt lat="44.5556633" lon="8.6719583"><ele>313.0</ele><time>2026-04-25T14:02:59.991Z</time></trkpt><trkpt lat="44.5558433" lon="8.67191"><ele>309.3333333333333</ele><time>2026-04-25T14:03:00.99Z</time></trkpt><trkpt lat="44.55602" lon="8.671875"><ele>305.6666666666667</ele><time>2026-04-25T14:03:01.99Z</time></trkpt><trkpt lat="44.5561917" lon="8.671845"><ele>302.0</ele><time>2026-04-25T14:03:02.99Z</time></trkpt><trkpt lat="44.55636" lon="8.6718217"><ele>302.0</ele><time>2026-04-25T14:03:03.991Z</time></trkpt><trkpt lat="44.55652" lon="8.6718233"><ele>302.0</ele><time>2026-04-25T14:03:04.991Z</time></trkpt><trkpt lat="44.556665" lon="8.6718333"><ele>302.0</ele><time>2026-04-25T14:03:05.99Z</time></trkpt><trkpt lat="44.5568083" lon="8.6718733"><ele>302.0</ele><time>2026-04-25T14:03:06.991Z</time></trkpt><trkpt lat="44.5569333" lon="8.6719217"><ele>302.0</ele><time>2026-04-25T14:03:07.99Z</time></trkpt><trkpt lat="44.55705" lon="8.6719667"><ele>302.0</ele><time>2026-04-25T14:03:08.991Z</time></trkpt><trkpt lat="44.5571583" lon="8.6720533"><ele>302.0</ele><time>2026-04-25T14:03:09.99Z</time></trkpt><trkpt lat="44.557255" lon="8.6721433"><ele>304.0</ele><time>2026-04-25T14:03:10.99Z</time></trkpt><trkpt lat="44.5573633" lon="8.672235"><ele>306.0</ele><time>2026-04-25T14:03:11.991Z</time></trkpt><trkpt lat="44.55746" lon="8.6723533"><ele>308.0</ele><time>2026-04-25T14:03:12.99Z</time></trkpt><trkpt lat="44.55757" lon="8.6724467"><ele>310.0</ele><time>2026-04-25T14:03:13.99Z</time></trkpt><trkpt lat="44.557685" lon="8.6725317"><ele>310.0</ele><time>2026-04-25T14:03:14.99Z</time></trkpt><trkpt lat="44.5578117" lon="8.6726033"><ele>310.0</ele><time>2026-04-25T14:03:15.991Z</time></trkpt><trkpt lat="44.5579517" lon="8.6726583"><ele>310.0</ele><time>2026-04-25T14:03:16.991Z</time></trkpt><trkpt lat="44.558095" lon="8.6727117"><ele>310.0</ele><time>2026-04-25T14:03:17.99Z</time></trkpt><trkpt lat="44.5582367" lon="8.6727617"><ele>307.3333333333333</ele><time>2026-04-25T14:03:18.99Z</time></trkpt><trkpt lat="44.5583833" lon="8.6728"><ele>304.6666666666667</ele><time>2026-04-25T14:03:19.99Z</time></trkpt><trkpt lat="44.55853" lon="8.672845"><ele>302.0</ele><time>2026-04-25T14:03:20.99Z</time></trkpt><trkpt lat="44.5586883" lon="8.6728767"><ele>307.6666666666667</ele><time>2026-04-25T14:03:21.991Z</time></trkpt><trkpt lat="44.5588483" lon="8.6729033"><ele>313.3333333333333</ele><time>2026-04-25T14:03:22.99Z</time></trkpt><trkpt lat="44.5590117" lon="8.6729033"><ele>319.0</ele><time>2026-04-25T14:03:23.99Z</time></trkpt><trkpt lat="44.5591817" lon="8.6728617"><ele>314.3333333333333</ele><time>2026-04-25T14:03:24.991Z</time></trkpt><trkpt lat="44.5593417" lon="8.6727383"><ele>309.6666666666667</ele><time>2026-04-25T14:03:25.991Z</time></trkpt><trkpt lat="44.5594783" lon="8.6725383"><ele>305.0</ele><time>2026-04-25T14:03:26.99Z</time></trkpt><trkpt lat="44.5596283" lon="8.6723467"><ele>303.6666666666667</ele><time>2026-04-25T14:03:27.99Z</time></trkpt><trkpt lat="44.5597783" lon="8.6721733"><ele>302.3333333333333</ele><time>2026-04-25T14:03:28.99Z</time></trkpt><trkpt lat="44.5599367" lon="8.6720283"><ele>301.0</ele><time>2026-04-25T14:03:29.99Z</time></trkpt><trkpt lat="44.5600933" lon="8.67188"><ele>299.0</ele><time>2026-04-25T14:03:30.99Z</time></trkpt><trkpt lat="44.560245" lon="8.67174"><ele>297.0</ele><time>2026-04-25T14:03:31.99Z</time></trkpt><trkpt lat="44.5603933" lon="8.6715967"><ele>295.0</ele><time>2026-04-25T14:03:32.991Z</time></trkpt><trkpt lat="44.5605433" lon="8.6714617"><ele>295.0</ele><time>2026-04-25T14:03:33.99Z</time></trkpt><trkpt lat="44.5606933" lon="8.6713267"><ele>295.0</ele><time>2026-04-25T14:03:34.991Z</time></trkpt><trkpt lat="44.5608333" lon="8.6711967"><ele>295.0</ele><time>2026-04-25T14:03:35.99Z</time></trkpt><trkpt lat="44.56097" lon="8.671085"><ele>295.3333333333333</ele><time>2026-04-25T14:03:36.99Z</time></trkpt><trkpt lat="44.561115" lon="8.6709583"><ele>295.6666666666667</ele><time>2026-04-25T14:03:37.99Z</time></trkpt><trkpt lat="44.5612617" lon="8.670825"><ele>296.0</ele><time>2026-04-25T14:03:38.991Z</time></trkpt><trkpt lat="44.5614117" lon="8.6707067"><ele>296.0</ele><time>2026-04-25T14:03:39.99Z</time></trkpt><trkpt lat="44.5615583" lon="8.670595"><ele>296.0</ele><time>2026-04-25T14:03:40.99Z</time></trkpt><trkpt lat="44.5617233" lon="8.6704933"><ele>296.0</ele><time>2026-04-25T14:03:41.99Z</time></trkpt><trkpt lat="44.5618833" lon="8.6703917"><ele>296.33333333333337</ele><time>2026-04-25T14:03:42.99Z</time></trkpt><trkpt lat="44.562035" lon="8.670295"><ele>296.6666666666667</ele><time>2026-04-25T14:03:43.991Z</time></trkpt><trkpt lat="44.56217" lon="8.6701933"><ele>297.0</ele><time>2026-04-25T14:03:44.99Z</time></trkpt><trkpt lat="44.5622983" lon="8.6700833"><ele>297.75</ele><time>2026-04-25T14:03:45.991Z</time></trkpt><trkpt lat="44.5624217" lon="8.6699883"><ele>298.5</ele><time>2026-04-25T14:03:46.991Z</time></trkpt><trkpt lat="44.562535" lon="8.6698817"><ele>299.25</ele><time>2026-04-25T14:03:47.991Z</time></trkpt><trkpt lat="44.562645" lon="8.669785"><ele>300.0</ele><time>2026-04-25T14:03:48.99Z</time></trkpt><trkpt lat="44.562745" lon="8.6696817"><ele>300.0</ele><time>2026-04-25T14:03:49.991Z</time></trkpt><trkpt lat="44.5628467" lon="8.6695867"><ele>300.0</ele><time>2026-04-25T14:03:50.99Z</time></trkpt><trkpt lat="44.5629317" lon="8.66948"><ele>300.0</ele><time>2026-04-25T14:03:51.99Z</time></trkpt><trkpt lat="44.5630217" lon="8.6694017"><ele>300.0</ele><time>2026-04-25T14:03:52.99Z</time></trkpt><trkpt lat="44.563105" lon="8.669305"><ele>299.25</ele><time>2026-04-25T14:03:53.99Z</time></trkpt><trkpt lat="44.5632" lon="8.6691917"><ele>298.5</ele><time>2026-04-25T14:03:54.99Z</time></trkpt><trkpt lat="44.5632817" lon="8.6690783"><ele>297.75</ele><time>2026-04-25T14:03:55.99Z</time></trkpt><trkpt lat="44.56337" lon="8.6689617"><ele>297.0</ele><time>2026-04-25T14:03:56.99Z</time></trkpt><trkpt lat="44.5634533" lon="8.6688383"><ele>297.0</ele><time>2026-04-25T14:03:57.99Z</time></trkpt><trkpt lat="44.563535" lon="8.6687033"><ele>297.0</ele><time>2026-04-25T14:03:58.991Z</time></trkpt><trkpt lat="44.563625" lon="8.6685667"><ele>297.0</ele><time>2026-04-25T14:03:59.991Z</time></trkpt><trkpt lat="44.5637233" lon="8.6684267"><ele>297.0</ele><time>2026-04-25T14:04:00.991Z</time></trkpt><trkpt lat="44.5638133" lon="8.6683117"><ele>296.8</ele><time>2026-04-25T14:04:01.99Z</time></trkpt><trkpt lat="44.5638967" lon="8.668205"><ele>296.6</ele><time>2026-04-25T14:04:02.99Z</time></trkpt><trkpt lat="44.5639667" lon="8.668105"><ele>296.40000000000003</ele><time>2026-04-25T14:04:03.991Z</time></trkpt><trkpt lat="44.5640317" lon="8.6679983"><ele>296.2</ele><time>2026-04-25T14:04:04.99Z</time></trkpt><trkpt lat="44.56409" lon="8.66788"><ele>296.0</ele><time>2026-04-25T14:04:05.99Z</time></trkpt><trkpt lat="44.5641383" lon="8.667765"><ele>298.75</ele><time>2026-04-25T14:04:06.99Z</time></trkpt><trkpt lat="44.5641683" lon="8.6676167"><ele>301.5</ele><time>2026-04-25T14:04:07.99Z</time></trkpt><trkpt lat="44.5642017" lon="8.6674267"><ele>304.25</ele><time>2026-04-25T14:04:08.991Z</time></trkpt><trkpt lat="44.5642367" lon="8.6672383"><ele>307.0</ele><time>2026-04-25T14:04:09.99Z</time></trkpt><trkpt lat="44.5642883" lon="8.6670483"><ele>305.3333333333333</ele><time>2026-04-25T14:04:10.99Z</time></trkpt><trkpt lat="44.5643583" lon="8.6668417"><ele>303.6666666666667</ele><time>2026-04-25T14:04:11.99Z</time></trkpt><trkpt lat="44.56449" lon="8.6666717"><ele>302.0</ele><time>2026-04-25T14:04:12.99Z</time></trkpt><trkpt lat="44.5646317" lon="8.6664917"><ele>302.0</ele><time>2026-04-25T14:04:13.99Z</time></trkpt><trkpt lat="44.5647983" lon="8.6662967"><ele>302.0</ele><time>2026-04-25T14:04:14.99Z</time></trkpt><trkpt lat="44.5649483" lon="8.66611"><ele>302.0</ele><time>2026-04-25T14:04:15.99Z</time></trkpt><trkpt lat="44.5650633" lon="8.6659567"><ele>301.6666666666667</ele><time>2026-04-25T14:04:16.99Z</time></trkpt><trkpt lat="44.5652083" lon="8.665805"><ele>301.3333333333333</ele><time>2026-04-25T14:04:17.991Z</time></trkpt><trkpt lat="44.5653433" lon="8.6656617"><ele>301.0</ele><time>2026-04-25T14:04:18.99Z</time></trkpt><trkpt lat="44.565475" lon="8.6655367"><ele>301.0</ele><time>2026-04-25T14:04:19.991Z</time></trkpt><trkpt lat="44.5656633" lon="8.665485"><ele>301.0</ele><time>2026-04-25T14:04:20.991Z</time></trkpt><trkpt lat="44.5658283" lon="8.6654133"><ele>301.0</ele><time>2026-04-25T14:04:21.99Z</time></trkpt><trkpt lat="44.5659867" lon="8.665335"><ele>300.0</ele><time>2026-04-25T14:04:22.99Z</time></trkpt><trkpt lat="44.566145" lon="8.6652233"><ele>299.0</ele><time>2026-04-25T14:04:23.99Z</time></trkpt><trkpt lat="44.566285" lon="8.6650833"><ele>298.0</ele><time>2026-04-25T14:04:24.991Z</time></trkpt><trkpt lat="44.5664433" lon="8.6649467"><ele>298.0</ele><time>2026-04-25T14:04:25.991Z</time></trkpt><trkpt lat="44.5665883" lon="8.6647867"><ele>298.0</ele><time>2026-04-25T14:04:26.99Z</time></trkpt><trkpt lat="44.5667233" lon="8.6646017"><ele>298.0</ele><time>2026-04-25T14:04:27.99Z</time></trkpt><trkpt lat="44.5668567" lon="8.6644283"><ele>297.0</ele><time>2026-04-25T14:04:28.99Z</time></trkpt><trkpt lat="44.5669933" lon="8.6642833"><ele>296.0</ele><time>2026-04-25T14:04:29.99Z</time></trkpt><trkpt lat="44.56713" lon="8.6641717"><ele>295.0</ele><time>2026-04-25T14:04:30.991Z</time></trkpt><trkpt lat="44.5672783" lon="8.664105"><ele>295.0</ele><time>2026-04-25T14:04:31.99Z</time></trkpt><trkpt lat="44.5674433" lon="8.6640917"><ele>295.0</ele><time>2026-04-25T14:04:32.99Z</time></trkpt><trkpt lat="44.56759" lon="8.6641"><ele>295.0</ele><time>2026-04-25T14:04:33.99Z</time></trkpt><trkpt lat="44.567735" lon="8.66412"><ele>299.66666666666663</ele><time>2026-04-25T14:04:34.99Z</time></trkpt><trkpt lat="44.567885" lon="8.6641717"><ele>304.3333333333333</ele><time>2026-04-25T14:04:35.99Z</time></trkpt><trkpt lat="44.5680217" lon="8.66427"><ele>309.0</ele><time>2026-04-25T14:04:36.991Z</time></trkpt><trkpt lat="44.5681567" lon="8.6643933"><ele>305.3333333333333</ele><time>2026-04-25T14:04:37.991Z</time></trkpt><trkpt lat="44.56829" lon="8.6645467"><ele>301.66666666666663</ele><time>2026-04-25T14:04:38.991Z</time></trkpt><trkpt lat="44.568415" lon="8.6647033"><ele>298.0</ele><time>2026-04-25T14:04:39.991Z</time></trkpt><trkpt lat="44.5685217" lon="8.6648917"><ele>298.0</ele><time>2026-04-25T14:04:40.99Z</time></trkpt><trkpt lat="44.5686533" lon="8.6650833"><ele>298.0</ele><time>2026-04-25T14:04:41.99Z</time></trkpt><trkpt lat="44.5687567" lon="8.6652783"><ele>298.0</ele><time>2026-04-25T14:04:42.99Z</time></trkpt><trkpt lat="44.5688633" lon="8.665465"><ele>298.0</ele><time>2026-04-25T14:04:43.99Z</time></trkpt><trkpt lat="44.5689633" lon="8.66563"><ele>298.0</ele><time>2026-04-25T14:04:44.99Z</time></trkpt><trkpt lat="44.5690567" lon="8.6657867"><ele>298.0</ele><time>2026-04-25T14:04:45.991Z</time></trkpt><trkpt lat="44.5691483" lon="8.665925"><ele>298.0</ele><time>2026-04-25T14:04:46.991Z</time></trkpt><trkpt lat="44.5692383" lon="8.6660567"><ele>296.75</ele><time>2026-04-25T14:04:47.99Z</time></trkpt><trkpt lat="44.5693483" lon="8.6661767"><ele>295.5</ele><time>2026-04-25T14:04:48.991Z</time></trkpt><trkpt lat="44.5694517" lon="8.6662833"><ele>294.25</ele><time>2026-04-25T14:04:49.991Z</time></trkpt><trkpt lat="44.56957" lon="8.6663883"><ele>293.0</ele><time>2026-04-25T14:04:50.99Z</time></trkpt><trkpt lat="44.5697183" lon="8.66647"><ele>293.0</ele><time>2026-04-25T14:04:51.99Z</time></trkpt><trkpt lat="44.569875" lon="8.6665283"><ele>293.0</ele><time>2026-04-25T14:04:52.99Z</time></trkpt><trkpt lat="44.5700483" lon="8.666615"><ele>293.0</ele><time>2026-04-25T14:04:53.99Z</time></trkpt><trkpt lat="44.5702317" lon="8.66674"><ele>296.6666666666667</ele><time>2026-04-25T14:04:54.99Z</time></trkpt><trkpt lat="44.5704167" lon="8.666855"><ele>300.3333333333333</ele><time>2026-04-25T14:04:55.991Z</time></trkpt><trkpt lat="44.5706433" lon="8.6668833"><ele>304.0</ele><time>2026-04-25T14:04:56.99Z</time></trkpt><trkpt lat="44.5708667" lon="8.666905"><ele>299.5</ele><time>2026-04-25T14:04:57.99Z</time></trkpt><trkpt lat="44.5711" lon="8.666945"><ele>295.0</ele><time>2026-04-25T14:04:58.99Z</time></trkpt><trkpt lat="44.57132" lon="8.6670283"><ele>295.0</ele><time>2026-04-25T14:04:59.99Z</time></trkpt><trkpt lat="44.5715333" lon="8.66714"><ele>295.0</ele><time>2026-04-25T14:05:00.99Z</time></trkpt><trkpt lat="44.5717333" lon="8.6672883"><ele>295.0</ele><time>2026-04-25T14:05:01.99Z</time></trkpt><trkpt lat="44.57194" lon="8.6674483"><ele>295.0</ele><time>2026-04-25T14:05:02.99Z</time></trkpt><trkpt lat="44.5721633" lon="8.667565"><ele>297.3333333333333</ele><time>2026-04-25T14:05:03.99Z</time></trkpt><trkpt lat="44.5723817" lon="8.6676367"><ele>299.6666666666667</ele><time>2026-04-25T14:05:04.99Z</time></trkpt><trkpt lat="44.5725583" lon="8.6676333"><ele>302.0</ele><time>2026-04-25T14:05:05.991Z</time></trkpt><trkpt lat="44.57271" lon="8.667565"><ele>301.0</ele><time>2026-04-25T14:05:06.991Z</time></trkpt><trkpt lat="44.5728733" lon="8.66744"><ele>300.0</ele><time>2026-04-25T14:05:07.991Z</time></trkpt><trkpt lat="44.573045" lon="8.6673167"><ele>299.0</ele><time>2026-04-25T14:05:08.99Z</time></trkpt><trkpt lat="44.573225" lon="8.6672133"><ele>299.0</ele><time>2026-04-25T14:05:09.99Z</time></trkpt><trkpt lat="44.57342" lon="8.6671667"><ele>299.0</ele><time>2026-04-25T14:05:10.991Z</time></trkpt><trkpt lat="44.573625" lon="8.6671733"><ele>299.0</ele><time>2026-04-25T14:05:11.991Z</time></trkpt><trkpt lat="44.5738467" lon="8.6672067"><ele>299.6666666666667</ele><time>2026-04-25T14:05:12.99Z</time></trkpt><trkpt lat="44.5740533" lon="8.667265"><ele>300.3333333333333</ele><time>2026-04-25T14:05:13.99Z</time></trkpt><trkpt lat="44.57427" lon="8.66736"><ele>301.0</ele><time>2026-04-25T14:05:14.99Z</time></trkpt><trkpt lat="44.5744633" lon="8.6674283"><ele>299.0</ele><time>2026-04-25T14:05:15.991Z</time></trkpt><trkpt lat="44.574645" lon="8.6674783"><ele>297.0</ele><time>2026-04-25T14:05:16.99Z</time></trkpt><trkpt lat="44.5748067" lon="8.667515"><ele>295.0</ele><time>2026-04-25T14:05:17.991Z</time></trkpt><trkpt lat="44.5749717" lon="8.6674717"><ele>295.0</ele><time>2026-04-25T14:05:18.99Z</time></trkpt><trkpt lat="44.5751367" lon="8.6673717"><ele>295.0</ele><time>2026-04-25T14:05:19.99Z</time></trkpt><trkpt lat="44.575265" lon="8.6671833"><ele>295.0</ele><time>2026-04-25T14:05:20.99Z</time></trkpt><trkpt lat="44.5753683" lon="8.6669667"><ele>293.0</ele><time>2026-04-25T14:05:21.99Z</time></trkpt><trkpt lat="44.575425" lon="8.6667267"><ele>291.0</ele><time>2026-04-25T14:05:22.99Z</time></trkpt><trkpt lat="44.5754667" lon="8.6664783"><ele>289.0</ele><time>2026-04-25T14:05:23.991Z</time></trkpt><trkpt lat="44.5754517" lon="8.6661867"><ele>287.5</ele><time>2026-04-25T14:05:24.991Z</time></trkpt><trkpt lat="44.5754117" lon="8.6658733"><ele>286.0</ele><time>2026-04-25T14:05:25.99Z</time></trkpt><trkpt lat="44.5753867" lon="8.665545"><ele>284.66666666666663</ele><time>2026-04-25T14:05:26.99Z</time></trkpt><trkpt lat="44.5753583" lon="8.6652367"><ele>283.3333333333333</ele><time>2026-04-25T14:05:27.99Z</time></trkpt><trkpt lat="44.5753617" lon="8.6649483"><ele>282.0</ele><time>2026-04-25T14:05:28.991Z</time></trkpt><trkpt lat="44.5753917" lon="8.6646767"><ele>282.0</ele><time>2026-04-25T14:05:29.991Z</time></trkpt><trkpt lat="44.5754317" lon="8.6644117"><ele>282.0</ele><time>2026-04-25T14:05:30.99Z</time></trkpt><trkpt lat="44.5754633" lon="8.6641633"><ele>282.0</ele><time>2026-04-25T14:05:31.99Z</time></trkpt><trkpt lat="44.575495" lon="8.6639217"><ele>282.0</ele><time>2026-04-25T14:05:32.99Z</time></trkpt><trkpt lat="44.57549" lon="8.6636983"><ele>282.0</ele><time>2026-04-25T14:05:33.99Z</time></trkpt><trkpt lat="44.575445" lon="8.66347"><ele>282.0</ele><time>2026-04-25T14:05:34.991Z</time></trkpt><trkpt lat="44.5753917" lon="8.6632817"><ele>282.25</ele><time>2026-04-25T14:05:35.991Z</time></trkpt><trkpt lat="44.5753667" lon="8.6631017"><ele>282.5</ele><time>2026-04-25T14:05:36.99Z</time></trkpt><trkpt lat="44.5753583" lon="8.662945"><ele>282.75</ele><time>2026-04-25T14:05:37.99Z</time></trkpt><trkpt lat="44.5753717" lon="8.6627917"><ele>283.0</ele><time>2026-04-25T14:05:38.99Z</time></trkpt><trkpt lat="44.5753833" lon="8.6626333"><ele>281.75</ele><time>2026-04-25T14:05:39.99Z</time></trkpt><trkpt lat="44.5753683" lon="8.6624667"><ele>280.5</ele><time>2026-04-25T14:05:40.991Z</time></trkpt><trkpt lat="44.57534" lon="8.6623017"><ele>279.25</ele><time>2026-04-25T14:05:41.991Z</time></trkpt><trkpt lat="44.5753017" lon="8.6621617"><ele>278.0</ele><time>2026-04-25T14:05:42.991Z</time></trkpt><trkpt lat="44.5752433" lon="8.6620267"><ele>286.0</ele><time>2026-04-25T14:05:43.991Z</time></trkpt><trkpt lat="44.5751933" lon="8.6618867"><ele>294.0</ele><time>2026-04-25T14:05:44.99Z</time></trkpt><trkpt lat="44.5751617" lon="8.6617433"><ele>302.0</ele><time>2026-04-25T14:05:45.99Z</time></trkpt><trkpt lat="44.575175" lon="8.661605"><ele>310.0</ele><time>2026-04-25T14:05:46.99Z</time></trkpt><trkpt lat="44.575215" lon="8.661475"><ele>318.0</ele><time>2026-04-25T14:05:47.991Z</time></trkpt><trkpt lat="44.57527" lon="8.661355"><ele>318.0</ele><time>2026-04-25T14:05:48.99Z</time></trkpt><trkpt lat="44.5753117" lon="8.6612217"><ele>318.0</ele><time>2026-04-25T14:05:49.99Z</time></trkpt><trkpt lat="44.5753533" lon="8.66109"><ele>318.0</ele><time>2026-04-25T14:05:50.99Z</time></trkpt><trkpt lat="44.5753733" lon="8.66092"><ele>318.0</ele><time>2026-04-25T14:05:51.991Z</time></trkpt><trkpt lat="44.5753817" lon="8.6607133"><ele>310.3333333333333</ele><time>2026-04-25T14:05:52.99Z</time></trkpt><trkpt lat="44.575365" lon="8.66049"><ele>302.66666666666663</ele><time>2026-04-25T14:05:53.991Z</time></trkpt><trkpt lat="44.57539" lon="8.6602733"><ele>295.0</ele><time>2026-04-25T14:05:54.99Z</time></trkpt><trkpt lat="44.5754683" lon="8.6600917"><ele>295.0</ele><time>2026-04-25T14:05:55.991Z</time></trkpt><trkpt lat="44.575565" lon="8.6599333"><ele>295.0</ele><time>2026-04-25T14:05:56.991Z</time></trkpt><trkpt lat="44.575695" lon="8.6598033"><ele>295.0</ele><time>2026-04-25T14:05:57.991Z</time></trkpt><trkpt lat="44.575825" lon="8.6596733"><ele>295.0</ele><time>2026-04-25T14:05:58.99Z</time></trkpt><trkpt lat="44.5759317" lon="8.65954"><ele>295.0</ele><time>2026-04-25T14:05:59.99Z</time></trkpt><trkpt lat="44.5760667" lon="8.6594667"><ele>295.0</ele><time>2026-04-25T14:06:00.99Z</time></trkpt><trkpt lat="44.5761883" lon="8.6594283"><ele>295.0</ele><time>2026-04-25T14:06:01.99Z</time></trkpt><trkpt lat="44.5763217" lon="8.65944"><ele>293.5</ele><time>2026-04-25T14:06:02.99Z</time></trkpt><trkpt lat="44.57644" lon="8.6595117"><ele>292.0</ele><time>2026-04-25T14:06:03.99Z</time></trkpt><trkpt lat="44.576545" lon="8.6596683"><ele>290.5</ele><time>2026-04-25T14:06:04.99Z</time></trkpt><trkpt lat="44.57666" lon="8.659805"><ele>289.0</ele><time>2026-04-25T14:06:05.99Z</time></trkpt><trkpt lat="44.576795" lon="8.6598783"><ele>289.0</ele><time>2026-04-25T14:06:06.99Z</time></trkpt><trkpt lat="44.5769767" lon="8.6598717"><ele>289.0</ele><time>2026-04-25T14:06:07.99Z</time></trkpt><trkpt lat="44.5771567" lon="8.6598733"><ele>289.0</ele><time>2026-04-25T14:06:08.99Z</time></trkpt><trkpt lat="44.57734" lon="8.6598867"><ele>289.66666666666663</ele><time>2026-04-25T14:06:09.991Z</time></trkpt><trkpt lat="44.577525" lon="8.65991"><ele>290.3333333333333</ele><time>2026-04-25T14:06:10.99Z</time></trkpt><trkpt lat="44.5777083" lon="8.6600167"><ele>291.0</ele><time>2026-04-25T14:06:11.99Z</time></trkpt><trkpt lat="44.5778983" lon="8.6600933"><ele>291.3333333333333</ele><time>2026-04-25T14:06:12.99Z</time></trkpt><trkpt lat="44.5780933" lon="8.66011"><ele>291.66666666666663</ele><time>2026-04-25T14:06:13.991Z</time></trkpt><trkpt lat="44.5782983" lon="8.66009"><ele>292.0</ele><time>2026-04-25T14:06:14.99Z</time></trkpt><trkpt lat="44.5784967" lon="8.6600783"><ele>292.0</ele><time>2026-04-25T14:06:15.99Z</time></trkpt><trkpt lat="44.5786783" lon="8.66007"><ele>292.0</ele><time>2026-04-25T14:06:16.991Z</time></trkpt><trkpt lat="44.57885" lon="8.6600517"><ele>292.0</ele><time>2026-04-25T14:06:17.99Z</time></trkpt><trkpt lat="44.5790067" lon="8.6600617"><ele>293.25</ele><time>2026-04-25T14:06:18.99Z</time></trkpt><trkpt lat="44.5791517" lon="8.66008"><ele>294.5</ele><time>2026-04-25T14:06:19.99Z</time></trkpt><trkpt lat="44.5792467" lon="8.660195"><ele>295.75</ele><time>2026-04-25T14:06:20.991Z</time></trkpt><trkpt lat="44.5793283" lon="8.6603333"><ele>297.0</ele><time>2026-04-25T14:06:21.99Z</time></trkpt><trkpt lat="44.579425" lon="8.6604867"><ele>297.3333333333333</ele><time>2026-04-25T14:06:22.99Z</time></trkpt><trkpt lat="44.57955" lon="8.6606217"><ele>297.66666666666663</ele><time>2026-04-25T14:06:23.99Z</time></trkpt><trkpt lat="44.5796983" lon="8.6607483"><ele>298.0</ele><time>2026-04-25T14:06:24.99Z</time></trkpt><trkpt lat="44.5798717" lon="8.660865"><ele>298.0</ele><time>2026-04-25T14:06:25.99Z</time></trkpt><trkpt lat="44.580045" lon="8.6609867"><ele>298.0</ele><time>2026-04-25T14:06:26.99Z</time></trkpt><trkpt lat="44.580215" lon="8.661135"><ele>298.0</ele><time>2026-04-25T14:06:27.991Z</time></trkpt><trkpt lat="44.58037" lon="8.6613133"><ele>298.66666666666663</ele><time>2026-04-25T14:06:28.99Z</time></trkpt><trkpt lat="44.580515" lon="8.6615033"><ele>299.3333333333333</ele><time>2026-04-25T14:06:29.99Z</time></trkpt><trkpt lat="44.5806667" lon="8.6616833"><ele>300.0</ele><time>2026-04-25T14:06:30.991Z</time></trkpt><trkpt lat="44.5807983" lon="8.6618767"><ele>289.3333333333333</ele><time>2026-04-25T14:06:31.99Z</time></trkpt><trkpt lat="44.5809" lon="8.6620883"><ele>278.66666666666663</ele><time>2026-04-25T14:06:32.99Z</time></trkpt><trkpt lat="44.580985" lon="8.6623"><ele>268.0</ele><time>2026-04-25T14:06:33.99Z</time></trkpt><trkpt lat="44.581075" lon="8.6624933"><ele>268.0</ele><time>2026-04-25T14:06:34.99Z</time></trkpt><trkpt lat="44.5811583" lon="8.662695"><ele>268.0</ele><time>2026-04-25T14:06:35.99Z</time></trkpt><trkpt lat="44.5812283" lon="8.6629067"><ele>268.0</ele><time>2026-04-25T14:06:36.99Z</time></trkpt><trkpt lat="44.5813083" lon="8.6631283"><ele>267.3333333333333</ele><time>2026-04-25T14:06:37.99Z</time></trkpt><trkpt lat="44.5814083" lon="8.6633667"><ele>266.6666666666667</ele><time>2026-04-25T14:06:38.991Z</time></trkpt><trkpt lat="44.58152" lon="8.6635967"><ele>266.0</ele><time>2026-04-25T14:06:39.991Z</time></trkpt><trkpt lat="44.5816233" lon="8.663825"><ele>266.0</ele><time>2026-04-25T14:06:40.991Z</time></trkpt><trkpt lat="44.5817067" lon="8.664025"><ele>266.0</ele><time>2026-04-25T14:06:41.991Z</time></trkpt><trkpt lat="44.5817817" lon="8.6642033"><ele>266.0</ele><time>2026-04-25T14:06:42.99Z</time></trkpt><trkpt lat="44.5818617" lon="8.6643733"><ele>266.25</ele><time>2026-04-25T14:06:43.991Z</time></trkpt><trkpt lat="44.5819367" lon="8.6645383"><ele>266.5</ele><time>2026-04-25T14:06:44.991Z</time></trkpt><trkpt lat="44.5820133" lon="8.6646917"><ele>266.75</ele><time>2026-04-25T14:06:45.99Z</time></trkpt><trkpt lat="44.5821" lon="8.6648267"><ele>267.0</ele><time>2026-04-25T14:06:46.99Z</time></trkpt><trkpt lat="44.5822067" lon="8.6649183"><ele>267.0</ele><time>2026-04-25T14:06:47.99Z</time></trkpt><trkpt lat="44.582345" lon="8.66495"><ele>267.0</ele><time>2026-04-25T14:06:48.99Z</time></trkpt><trkpt lat="44.5825083" lon="8.6649167"><ele>267.0</ele><time>2026-04-25T14:06:49.99Z</time></trkpt><trkpt lat="44.5826667" lon="8.664855"><ele>267.0</ele><time>2026-04-25T14:06:50.99Z</time></trkpt><trkpt lat="44.5828067" lon="8.6647933"><ele>267.0</ele><time>2026-04-25T14:06:51.99Z</time></trkpt><trkpt lat="44.5829383" lon="8.6647267"><ele>267.0</ele><time>2026-04-25T14:06:52.99Z</time></trkpt><trkpt lat="44.5830417" lon="8.6646317"><ele>267.0</ele><time>2026-04-25T14:06:53.991Z</time></trkpt><trkpt lat="44.5831417" lon="8.66454"><ele>268.5</ele><time>2026-04-25T14:06:54.99Z</time></trkpt><trkpt lat="44.583235" lon="8.6644417"><ele>270.0</ele><time>2026-04-25T14:06:55.991Z</time></trkpt><trkpt lat="44.5833383" lon="8.664335"><ele>271.5</ele><time>2026-04-25T14:06:56.99Z</time></trkpt><trkpt lat="44.583435" lon="8.6642133"><ele>273.0</ele><time>2026-04-25T14:06:57.99Z</time></trkpt><trkpt lat="44.5835367" lon="8.6641067"><ele>273.0</ele><time>2026-04-25T14:06:58.991Z</time></trkpt><trkpt lat="44.583645" lon="8.663995"><ele>273.0</ele><time>2026-04-25T14:06:59.99Z</time></trkpt><trkpt lat="44.5837667" lon="8.6638867"><ele>273.0</ele><time>2026-04-25T14:07:00.99Z</time></trkpt><trkpt lat="44.5838933" lon="8.6637933"><ele>273.0</ele><time>2026-04-25T14:07:01.99Z</time></trkpt><trkpt lat="44.584045" lon="8.6637083"><ele>274.25</ele><time>2026-04-25T14:07:02.99Z</time></trkpt><trkpt lat="44.5841883" lon="8.66365"><ele>275.5</ele><time>2026-04-25T14:07:03.991Z</time></trkpt><trkpt lat="44.58433" lon="8.6635983"><ele>276.75</ele><time>2026-04-25T14:07:04.99Z</time></trkpt><trkpt lat="44.5844733" lon="8.6635283"><ele>278.0</ele><time>2026-04-25T14:07:05.99Z</time></trkpt><trkpt lat="44.5846117" lon="8.663445"><ele>272.6666666666667</ele><time>2026-04-25T14:07:06.991Z</time></trkpt><trkpt lat="44.58475" lon="8.66337"><ele>267.3333333333333</ele><time>2026-04-25T14:07:07.991Z</time></trkpt><trkpt lat="44.5848967" lon="8.6632983"><ele>262.0</ele><time>2026-04-25T14:07:08.99Z</time></trkpt><trkpt lat="44.5850417" lon="8.6632267"><ele>262.0</ele><time>2026-04-25T14:07:09.99Z</time></trkpt><trkpt lat="44.58518" lon="8.66315"><ele>262.0</ele><time>2026-04-25T14:07:10.99Z</time></trkpt><trkpt lat="44.5853217" lon="8.663075"><ele>262.0</ele><time>2026-04-25T14:07:11.991Z</time></trkpt><trkpt lat="44.5854483" lon="8.6629967"><ele>262.0</ele><time>2026-04-25T14:07:12.99Z</time></trkpt><trkpt lat="44.585575" lon="8.6629117"><ele>262.25</ele><time>2026-04-25T14:07:13.99Z</time></trkpt><trkpt lat="44.58569" lon="8.6628267"><ele>262.5</ele><time>2026-04-25T14:07:14.99Z</time></trkpt><trkpt lat="44.5858133" lon="8.6627483"><ele>262.75</ele><time>2026-04-25T14:07:15.99Z</time></trkpt><trkpt lat="44.5859533" lon="8.66267"><ele>263.0</ele><time>2026-04-25T14:07:16.99Z</time></trkpt><trkpt lat="44.5861033" lon="8.6626233"><ele>261.0</ele><time>2026-04-25T14:07:17.991Z</time></trkpt><trkpt lat="44.586255" lon="8.6625667"><ele>259.0</ele><time>2026-04-25T14:07:18.991Z</time></trkpt><trkpt lat="44.58642" lon="8.6625167"><ele>257.0</ele><time>2026-04-25T14:07:19.99Z</time></trkpt><trkpt lat="44.5865917" lon="8.662475"><ele>257.0</ele><time>2026-04-25T14:07:20.991Z</time></trkpt><trkpt lat="44.586765" lon="8.6624467"><ele>257.0</ele><time>2026-04-25T14:07:21.99Z</time></trkpt><trkpt lat="44.586945" lon="8.6624133"><ele>257.0</ele><time>2026-04-25T14:07:22.99Z</time></trkpt><trkpt lat="44.5871167" lon="8.6624033"><ele>256.0</ele><time>2026-04-25T14:07:23.99Z</time></trkpt><trkpt lat="44.5872767" lon="8.66238"><ele>255.0</ele><time>2026-04-25T14:07:24.99Z</time></trkpt><trkpt lat="44.587415" lon="8.6623667"><ele>254.0</ele><time>2026-04-25T14:07:25.99Z</time></trkpt><trkpt lat="44.5875733" lon="8.6623483"><ele>254.0</ele><time>2026-04-25T14:07:26.99Z</time></trkpt><trkpt lat="44.5877433" lon="8.662335"><ele>254.0</ele><time>2026-04-25T14:07:27.99Z</time></trkpt><trkpt lat="44.58792" lon="8.6623267"><ele>254.0</ele><time>2026-04-25T14:07:28.99Z</time></trkpt><trkpt lat="44.5880883" lon="8.6623267"><ele>251.33333333333334</ele><time>2026-04-25T14:07:29.99Z</time></trkpt><trkpt lat="44.5882567" lon="8.6623267"><ele>248.66666666666669</ele><time>2026-04-25T14:07:30.991Z</time></trkpt><trkpt lat="44.5884283" lon="8.6623283"><ele>246.0</ele><time>2026-04-25T14:07:31.99Z</time></trkpt><trkpt lat="44.5885983" lon="8.6623283"><ele>243.66666666666669</ele><time>2026-04-25T14:07:32.99Z</time></trkpt><trkpt lat="44.5887733" lon="8.662325"><ele>241.33333333333334</ele><time>2026-04-25T14:07:33.99Z</time></trkpt><trkpt lat="44.5889433" lon="8.6623067"><ele>239.0</ele><time>2026-04-25T14:07:34.99Z</time></trkpt><trkpt lat="44.5891233" lon="8.6622883"><ele>239.0</ele><time>2026-04-25T14:07:35.99Z</time></trkpt><trkpt lat="44.5892933" lon="8.662275"><ele>239.0</ele><time>2026-04-25T14:07:36.99Z</time></trkpt><trkpt lat="44.589475" lon="8.6622833"><ele>239.0</ele><time>2026-04-25T14:07:37.99Z</time></trkpt><trkpt lat="44.589665" lon="8.6622917"><ele>238.0</ele><time>2026-04-25T14:07:38.99Z</time></trkpt><trkpt lat="44.58986" lon="8.6623067"><ele>237.0</ele><time>2026-04-25T14:07:39.99Z</time></trkpt><trkpt lat="44.5900517" lon="8.6623233"><ele>236.0</ele><time>2026-04-25T14:07:40.99Z</time></trkpt><trkpt lat="44.5902367" lon="8.6623517"><ele>240.33333333333334</ele><time>2026-04-25T14:07:41.991Z</time></trkpt><trkpt lat="44.5904183" lon="8.662385"><ele>244.66666666666669</ele><time>2026-04-25T14:07:42.989Z</time></trkpt><trkpt lat="44.5906083" lon="8.66244"><ele>249.0</ele><time>2026-04-25T14:07:43.99Z</time></trkpt><trkpt lat="44.590785" lon="8.66251"><ele>249.0</ele><time>2026-04-25T14:07:44.989Z</time></trkpt><trkpt lat="44.590955" lon="8.6625917"><ele>249.0</ele><time>2026-04-25T14:07:45.99Z</time></trkpt><trkpt lat="44.5911083" lon="8.662675"><ele>249.0</ele><time>2026-04-25T14:07:46.99Z</time></trkpt><trkpt lat="44.5912667" lon="8.6627683"><ele>244.0</ele><time>2026-04-25T14:07:47.99Z</time></trkpt><trkpt lat="44.5914233" lon="8.6628617"><ele>239.0</ele><time>2026-04-25T14:07:48.99Z</time></trkpt><trkpt lat="44.5915833" lon="8.662955"><ele>234.0</ele><time>2026-04-25T14:07:49.989Z</time></trkpt><trkpt lat="44.5917583" lon="8.6630467"><ele>234.0</ele><time>2026-04-25T14:07:50.989Z</time></trkpt><trkpt lat="44.5919317" lon="8.6631167"><ele>234.0</ele><time>2026-04-25T14:07:51.99Z</time></trkpt><trkpt lat="44.5921133" lon="8.66318"><ele>234.0</ele><time>2026-04-25T14:07:52.989Z</time></trkpt><trkpt lat="44.5922783" lon="8.66328"><ele>236.66666666666669</ele><time>2026-04-25T14:07:53.989Z</time></trkpt><trkpt lat="44.592465" lon="8.6633617"><ele>239.33333333333334</ele><time>2026-04-25T14:07:54.989Z</time></trkpt><trkpt lat="44.5926533" lon="8.663415"><ele>242.0</ele><time>2026-04-25T14:07:55.989Z</time></trkpt><trkpt lat="44.5928433" lon="8.6634833"><ele>242.0</ele><time>2026-04-25T14:07:56.989Z</time></trkpt><trkpt lat="44.593035" lon="8.66355"><ele>242.0</ele><time>2026-04-25T14:07:57.989Z</time></trkpt><trkpt lat="44.593225" lon="8.6635983"><ele>242.0</ele><time>2026-04-25T14:07:58.989Z</time></trkpt><trkpt lat="44.59341" lon="8.6636433"><ele>240.66666666666669</ele><time>2026-04-25T14:07:59.99Z</time></trkpt><trkpt lat="44.593575" lon="8.6636767"><ele>239.33333333333331</ele><time>2026-04-25T14:08:00.989Z</time></trkpt><trkpt lat="44.5937383" lon="8.6637267"><ele>238.0</ele><time>2026-04-25T14:08:01.99Z</time></trkpt><trkpt lat="44.5939" lon="8.6637867"><ele>238.0</ele><time>2026-04-25T14:08:02.989Z</time></trkpt><trkpt lat="44.5940733" lon="8.663835"><ele>238.0</ele><time>2026-04-25T14:08:03.99Z</time></trkpt><trkpt lat="44.5942433" lon="8.6638883"><ele>238.0</ele><time>2026-04-25T14:08:04.989Z</time></trkpt><trkpt lat="44.5944133" lon="8.6639317"><ele>238.66666666666666</ele><time>2026-04-25T14:08:05.989Z</time></trkpt><trkpt lat="44.5945833" lon="8.6639783"><ele>239.33333333333331</ele><time>2026-04-25T14:08:06.99Z</time></trkpt><trkpt lat="44.59476" lon="8.664035"><ele>240.0</ele><time>2026-04-25T14:08:07.989Z</time></trkpt><trkpt lat="44.594935" lon="8.6640917"><ele>240.0</ele><time>2026-04-25T14:08:08.989Z</time></trkpt><trkpt lat="44.5951033" lon="8.6641517"><ele>240.0</ele><time>2026-04-25T14:08:09.989Z</time></trkpt><trkpt lat="44.5952867" lon="8.6642117"><ele>240.0</ele><time>2026-04-25T14:08:10.989Z</time></trkpt><trkpt lat="44.595475" lon="8.6642783"><ele>239.33333333333331</ele><time>2026-04-25T14:08:11.989Z</time></trkpt><trkpt lat="44.59566" lon="8.66434"><ele>238.66666666666666</ele><time>2026-04-25T14:08:12.99Z</time></trkpt><trkpt lat="44.5958483" lon="8.6644017"><ele>238.0</ele><time>2026-04-25T14:08:13.989Z</time></trkpt><trkpt lat="44.5960367" lon="8.664455"><ele>237.66666666666666</ele><time>2026-04-25T14:08:14.99Z</time></trkpt><trkpt lat="44.5962267" lon="8.6645067"><ele>237.33333333333331</ele><time>2026-04-25T14:08:15.989Z</time></trkpt><trkpt lat="44.596425" lon="8.66454"><ele>237.0</ele><time>2026-04-25T14:08:16.99Z</time></trkpt><trkpt lat="44.5966283" lon="8.6645667"><ele>237.0</ele><time>2026-04-25T14:08:17.989Z</time></trkpt><trkpt lat="44.5968317" lon="8.66458"><ele>237.0</ele><time>2026-04-25T14:08:18.989Z</time></trkpt><trkpt lat="44.597035" lon="8.6645967"><ele>237.0</ele><time>2026-04-25T14:08:19.989Z</time></trkpt><trkpt lat="44.5972267" lon="8.6645983"><ele>235.33333333333331</ele><time>2026-04-25T14:08:20.99Z</time></trkpt><trkpt lat="44.5974183" lon="8.6645833"><ele>233.66666666666666</ele><time>2026-04-25T14:08:21.989Z</time></trkpt><trkpt lat="44.5976133" lon="8.6645283"><ele>232.0</ele><time>2026-04-25T14:08:22.989Z</time></trkpt><trkpt lat="44.5977883" lon="8.66445"><ele>235.33333333333331</ele><time>2026-04-25T14:08:23.989Z</time></trkpt><trkpt lat="44.5979583" lon="8.66439"><ele>238.66666666666669</ele><time>2026-04-25T14:08:24.989Z</time></trkpt><trkpt lat="44.598115" lon="8.6643283"><ele>242.0</ele><time>2026-04-25T14:08:25.99Z</time></trkpt><trkpt lat="44.59827" lon="8.664265"><ele>242.0</ele><time>2026-04-25T14:08:26.989Z</time></trkpt><trkpt lat="44.5984233" lon="8.66422"><ele>242.0</ele><time>2026-04-25T14:08:27.99Z</time></trkpt><trkpt lat="44.5985833" lon="8.6641983"><ele>242.0</ele><time>2026-04-25T14:08:28.989Z</time></trkpt><trkpt lat="44.5987583" lon="8.664185"><ele>241.0</ele><time>2026-04-25T14:08:29.99Z</time></trkpt><trkpt lat="44.5989333" lon="8.6641917"><ele>240.0</ele><time>2026-04-25T14:08:30.99Z</time></trkpt><trkpt lat="44.5991083" lon="8.6642267"><ele>239.0</ele><time>2026-04-25T14:08:31.989Z</time></trkpt><trkpt lat="44.5992883" lon="8.66426"><ele>239.0</ele><time>2026-04-25T14:08:32.989Z</time></trkpt><trkpt lat="44.5994767" lon="8.6643"><ele>239.0</ele><time>2026-04-25T14:08:33.989Z</time></trkpt><trkpt lat="44.5996733" lon="8.664345"><ele>239.0</ele><time>2026-04-25T14:08:34.989Z</time></trkpt><trkpt lat="44.5998883" lon="8.664395"><ele>234.5</ele><time>2026-04-25T14:08:35.989Z</time></trkpt><trkpt lat="44.60012" lon="8.66445"><ele>230.0</ele><time>2026-04-25T14:08:36.99Z</time></trkpt><trkpt lat="44.6003483" lon="8.6645333"><ele>230.0</ele><time>2026-04-25T14:08:37.989Z</time></trkpt><trkpt lat="44.6005733" lon="8.6646167"><ele>230.0</ele><time>2026-04-25T14:08:38.989Z</time></trkpt><trkpt lat="44.6007683" lon="8.6646667"><ele>230.0</ele><time>2026-04-25T14:08:39.989Z</time></trkpt><trkpt lat="44.60095" lon="8.6647"><ele>230.0</ele><time>2026-04-25T14:08:40.989Z</time></trkpt><trkpt lat="44.60113" lon="8.6646983"><ele>230.0</ele><time>2026-04-25T14:08:41.99Z</time></trkpt><trkpt lat="44.6013133" lon="8.6646667"><ele>230.0</ele><time>2026-04-25T14:08:42.989Z</time></trkpt><trkpt lat="44.60148" lon="8.6645683"><ele>229.0</ele><time>2026-04-25T14:08:43.989Z</time></trkpt><trkpt lat="44.60166" lon="8.66447"><ele>228.0</ele><time>2026-04-25T14:08:44.989Z</time></trkpt><trkpt lat="44.6018533" lon="8.66435"><ele>227.0</ele><time>2026-04-25T14:08:45.99Z</time></trkpt><trkpt lat="44.6020517" lon="8.6641983"><ele>227.0</ele><time>2026-04-25T14:08:46.989Z</time></trkpt><trkpt lat="44.602245" lon="8.664025"><ele>227.0</ele><time>2026-04-25T14:08:47.989Z</time></trkpt><trkpt lat="44.6024267" lon="8.6638233"><ele>227.0</ele><time>2026-04-25T14:08:48.99Z</time></trkpt><trkpt lat="44.60262" lon="8.663645"><ele>227.0</ele><time>2026-04-25T14:08:49.99Z</time></trkpt><trkpt lat="44.602815" lon="8.6634667"><ele>227.0</ele><time>2026-04-25T14:08:50.989Z</time></trkpt><trkpt lat="44.6030133" lon="8.6633017"><ele>227.0</ele><time>2026-04-25T14:08:51.99Z</time></trkpt><trkpt lat="44.6032133" lon="8.6631283"><ele>227.0</ele><time>2026-04-25T14:08:52.99Z</time></trkpt><trkpt lat="44.60341" lon="8.6629683"><ele>227.0</ele><time>2026-04-25T14:08:53.989Z</time></trkpt><trkpt lat="44.6036067" lon="8.6627917"><ele>227.33333333333334</ele><time>2026-04-25T14:08:54.989Z</time></trkpt><trkpt lat="44.6037783" lon="8.66261"><ele>227.66666666666669</ele><time>2026-04-25T14:08:55.989Z</time></trkpt><trkpt lat="44.603945" lon="8.6624217"><ele>228.0</ele><time>2026-04-25T14:08:56.99Z</time></trkpt><trkpt lat="44.604105" lon="8.66224"><ele>228.0</ele><time>2026-04-25T14:08:57.99Z</time></trkpt><trkpt lat="44.60427" lon="8.6621167"><ele>228.0</ele><time>2026-04-25T14:08:58.989Z</time></trkpt><trkpt lat="44.6044333" lon="8.6620167"><ele>228.0</ele><time>2026-04-25T14:08:59.99Z</time></trkpt><trkpt lat="44.6046083" lon="8.6619583"><ele>230.0</ele><time>2026-04-25T14:09:00.989Z</time></trkpt><trkpt lat="44.604805" lon="8.6619467"><ele>232.0</ele><time>2026-04-25T14:09:01.989Z</time></trkpt><trkpt lat="44.6049917" lon="8.6619317"><ele>234.0</ele><time>2026-04-25T14:09:02.989Z</time></trkpt><trkpt lat="44.6051967" lon="8.6619417"><ele>230.33333333333331</ele><time>2026-04-25T14:09:03.99Z</time></trkpt><trkpt lat="44.6054167" lon="8.6619633"><ele>226.66666666666666</ele><time>2026-04-25T14:09:04.99Z</time></trkpt><trkpt lat="44.6056333" lon="8.6619767"><ele>223.0</ele><time>2026-04-25T14:09:05.989Z</time></trkpt><trkpt lat="44.6058467" lon="8.6619967"><ele>223.0</ele><time>2026-04-25T14:09:06.99Z</time></trkpt><trkpt lat="44.6060567" lon="8.6620267"><ele>223.0</ele><time>2026-04-25T14:09:07.989Z</time></trkpt><trkpt lat="44.60628" lon="8.6620833"><ele>223.0</ele><time>2026-04-25T14:09:08.989Z</time></trkpt><trkpt lat="44.6065017" lon="8.662145"><ele>222.66666666666666</ele><time>2026-04-25T14:09:09.99Z</time></trkpt><trkpt lat="44.6067217" lon="8.6621967"><ele>222.33333333333331</ele><time>2026-04-25T14:09:10.989Z</time></trkpt><trkpt lat="44.6069317" lon="8.6622583"><ele>222.0</ele><time>2026-04-25T14:09:11.989Z</time></trkpt><trkpt lat="44.607135" lon="8.6623133"><ele>225.0</ele><time>2026-04-25T14:09:12.99Z</time></trkpt><trkpt lat="44.6073283" lon="8.6623733"><ele>228.0</ele><time>2026-04-25T14:09:13.99Z</time></trkpt><trkpt lat="44.6075167" lon="8.6624483"><ele>231.0</ele><time>2026-04-25T14:09:14.99Z</time></trkpt><trkpt lat="44.6077067" lon="8.662545"><ele>232.66666666666669</ele><time>2026-04-25T14:09:15.989Z</time></trkpt><trkpt lat="44.6078783" lon="8.6626417"><ele>234.33333333333334</ele><time>2026-04-25T14:09:16.99Z</time></trkpt><trkpt lat="44.6080533" lon="8.662795"><ele>236.0</ele><time>2026-04-25T14:09:17.99Z</time></trkpt><trkpt lat="44.60822" lon="8.6629517"><ele>236.0</ele><time>2026-04-25T14:09:18.989Z</time></trkpt><trkpt lat="44.6083733" lon="8.66312"><ele>236.0</ele><time>2026-04-25T14:09:19.989Z</time></trkpt><trkpt lat="44.60851" lon="8.6632883"><ele>236.0</ele><time>2026-04-25T14:09:20.99Z</time></trkpt><trkpt lat="44.6086233" lon="8.6634467"><ele>245.75</ele><time>2026-04-25T14:09:21.989Z</time></trkpt><trkpt lat="44.6086983" lon="8.6636117"><ele>255.5</ele><time>2026-04-25T14:09:22.99Z</time></trkpt><trkpt lat="44.6087283" lon="8.6637883"><ele>265.25</ele><time>2026-04-25T14:09:23.989Z</time></trkpt><trkpt lat="44.6087633" lon="8.66397"><ele>275.0</ele><time>2026-04-25T14:09:24.989Z</time></trkpt><trkpt lat="44.6087067" lon="8.6641667"><ele>258.6666666666667</ele><time>2026-04-25T14:09:25.989Z</time></trkpt><trkpt lat="44.6085083" lon="8.664405"><ele>242.33333333333331</ele><time>2026-04-25T14:09:26.99Z</time></trkpt><trkpt lat="44.6084367" lon="8.664585"><ele>226.0</ele><time>2026-04-25T14:09:27.99Z</time></trkpt><trkpt lat="44.6083967" lon="8.6647383"><ele>226.0</ele><time>2026-04-25T14:09:28.989Z</time></trkpt><trkpt lat="44.6083733" lon="8.664885"><ele>226.00000000000003</ele><time>2026-04-25T14:09:29.989Z</time></trkpt><trkpt lat="44.6083767" lon="8.665025"><ele>226.00000000000003</ele><time>2026-04-25T14:09:30.989Z</time></trkpt><trkpt lat="44.6083767" lon="8.66517"><ele>226.0</ele><time>2026-04-25T14:09:31.99Z</time></trkpt><trkpt lat="44.6083533" lon="8.6652967"><ele>226.0</ele><time>2026-04-25T14:09:32.989Z</time></trkpt><trkpt lat="44.6083233" lon="8.6654667"><ele>226.25</ele><time>2026-04-25T14:09:33.989Z</time></trkpt><trkpt lat="44.6083" lon="8.6656517"><ele>226.5</ele><time>2026-04-25T14:09:34.989Z</time></trkpt><trkpt lat="44.60828" lon="8.6658367"><ele>226.75</ele><time>2026-04-25T14:09:35.99Z</time></trkpt><trkpt lat="44.6082633" lon="8.6660317"><ele>227.0</ele><time>2026-04-25T14:09:36.989Z</time></trkpt><trkpt lat="44.608255" lon="8.6662333"><ele>227.0</ele><time>2026-04-25T14:09:37.989Z</time></trkpt><trkpt lat="44.6082683" lon="8.6664317"><ele>227.0</ele><time>2026-04-25T14:09:38.99Z</time></trkpt><trkpt lat="44.60828" lon="8.66663"><ele>227.0</ele><time>2026-04-25T14:09:39.989Z</time></trkpt><trkpt lat="44.6083183" lon="8.6668267"><ele>227.0</ele><time>2026-04-25T14:09:40.989Z</time></trkpt><trkpt lat="44.608385" lon="8.6670317"><ele>225.33333333333334</ele><time>2026-04-25T14:09:41.989Z</time></trkpt><trkpt lat="44.6084667" lon="8.6672283"><ele>223.66666666666669</ele><time>2026-04-25T14:09:42.989Z</time></trkpt><trkpt lat="44.6085533" lon="8.6674283"><ele>222.0</ele><time>2026-04-25T14:09:43.989Z</time></trkpt><trkpt lat="44.60863" lon="8.667615"><ele>223.33333333333331</ele><time>2026-04-25T14:09:44.99Z</time></trkpt><trkpt lat="44.6087117" lon="8.6678067"><ele>224.66666666666666</ele><time>2026-04-25T14:09:45.989Z</time></trkpt><trkpt lat="44.6087883" lon="8.6679917"><ele>226.0</ele><time>2026-04-25T14:09:46.99Z</time></trkpt><trkpt lat="44.608875" lon="8.6682017"><ele>226.0</ele><time>2026-04-25T14:09:47.989Z</time></trkpt><trkpt lat="44.6089567" lon="8.6684067"><ele>226.0</ele><time>2026-04-25T14:09:48.989Z</time></trkpt><trkpt lat="44.6090333" lon="8.6686117"><ele>226.0</ele><time>2026-04-25T14:09:49.99Z</time></trkpt><trkpt lat="44.60911" lon="8.66881"><ele>223.33333333333331</ele><time>2026-04-25T14:09:50.989Z</time></trkpt><trkpt lat="44.6091883" lon="8.669005"><ele>220.66666666666669</ele><time>2026-04-25T14:09:51.989Z</time></trkpt><trkpt lat="44.6092667" lon="8.6691967"><ele>218.0</ele><time>2026-04-25T14:09:52.989Z</time></trkpt><trkpt lat="44.609365" lon="8.669385"><ele>217.33333333333334</ele><time>2026-04-25T14:09:53.989Z</time></trkpt><trkpt lat="44.60948" lon="8.66958"><ele>216.66666666666669</ele><time>2026-04-25T14:09:54.989Z</time></trkpt><trkpt lat="44.6096083" lon="8.669765"><ele>216.0</ele><time>2026-04-25T14:09:55.989Z</time></trkpt><trkpt lat="44.6097183" lon="8.6699533"><ele>215.33333333333331</ele><time>2026-04-25T14:09:56.989Z</time></trkpt><trkpt lat="44.6098483" lon="8.6701233"><ele>214.66666666666666</ele><time>2026-04-25T14:09:57.989Z</time></trkpt><trkpt lat="44.60998" lon="8.6702933"><ele>214.0</ele><time>2026-04-25T14:09:58.989Z</time></trkpt><trkpt lat="44.610105" lon="8.67048"><ele>214.0</ele><time>2026-04-25T14:09:59.989Z</time></trkpt><trkpt lat="44.6102217" lon="8.6706867"><ele>214.0</ele><time>2026-04-25T14:10:00.989Z</time></trkpt><trkpt lat="44.6103467" lon="8.6708633"><ele>214.0</ele><time>2026-04-25T14:10:01.99Z</time></trkpt><trkpt lat="44.6104717" lon="8.67101"><ele>213.66666666666666</ele><time>2026-04-25T14:10:02.99Z</time></trkpt><trkpt lat="44.6106217" lon="8.6711617"><ele>213.33333333333331</ele><time>2026-04-25T14:10:03.99Z</time></trkpt><trkpt lat="44.6107783" lon="8.671275"><ele>213.0</ele><time>2026-04-25T14:10:04.99Z</time></trkpt><trkpt lat="44.610955" lon="8.6713517"><ele>213.0</ele><time>2026-04-25T14:10:05.989Z</time></trkpt><trkpt lat="44.61113" lon="8.6714017"><ele>213.0</ele><time>2026-04-25T14:10:06.99Z</time></trkpt><trkpt lat="44.61131" lon="8.6714317"><ele>213.0</ele><time>2026-04-25T14:10:07.99Z</time></trkpt><trkpt lat="44.6114917" lon="8.6714117"><ele>213.66666666666669</ele><time>2026-04-25T14:10:08.989Z</time></trkpt><trkpt lat="44.611655" lon="8.6713383"><ele>214.33333333333334</ele><time>2026-04-25T14:10:09.989Z</time></trkpt><trkpt lat="44.6118083" lon="8.6712133"><ele>215.0</ele><time>2026-04-25T14:10:10.99Z</time></trkpt><trkpt lat="44.61196" lon="8.6711"><ele>218.66666666666669</ele><time>2026-04-25T14:10:11.989Z</time></trkpt><trkpt lat="44.6121167" lon="8.670975"><ele>222.33333333333331</ele><time>2026-04-25T14:10:12.989Z</time></trkpt><trkpt lat="44.6122733" lon="8.67086"><ele>226.0</ele><time>2026-04-25T14:10:13.989Z</time></trkpt><trkpt lat="44.6124233" lon="8.670765"><ele>226.0</ele><time>2026-04-25T14:10:14.989Z</time></trkpt><trkpt lat="44.6125667" lon="8.6706617"><ele>226.0</ele><time>2026-04-25T14:10:15.989Z</time></trkpt><trkpt lat="44.6127133" lon="8.67057"><ele>226.0</ele><time>2026-04-25T14:10:16.989Z</time></trkpt><trkpt lat="44.6128533" lon="8.6704683"><ele>226.0</ele><time>2026-04-25T14:10:17.989Z</time></trkpt><trkpt lat="44.6130033" lon="8.67036"><ele>226.0</ele><time>2026-04-25T14:10:18.989Z</time></trkpt><trkpt lat="44.61315" lon="8.67024"><ele>226.0</ele><time>2026-04-25T14:10:19.99Z</time></trkpt><trkpt lat="44.6132983" lon="8.6701133"><ele>226.0</ele><time>2026-04-25T14:10:20.989Z</time></trkpt><trkpt lat="44.6134567" lon="8.6700017"><ele>226.0</ele><time>2026-04-25T14:10:21.989Z</time></trkpt><trkpt lat="44.6136083" lon="8.6698567"><ele>226.0</ele><time>2026-04-25T14:10:22.989Z</time></trkpt><trkpt lat="44.6137183" lon="8.6697367"><ele>222.5</ele><time>2026-04-25T14:10:23.989Z</time></trkpt><trkpt lat="44.6137933" lon="8.6695983"><ele>219.0</ele><time>2026-04-25T14:10:24.989Z</time></trkpt><trkpt lat="44.613835" lon="8.6694217"><ele>215.5</ele><time>2026-04-25T14:10:25.989Z</time></trkpt><trkpt lat="44.6138467" lon="8.66923"><ele>212.0</ele><time>2026-04-25T14:10:26.99Z</time></trkpt><trkpt lat="44.6138183" lon="8.669025"><ele>212.0</ele><time>2026-04-25T14:10:27.99Z</time></trkpt><trkpt lat="44.61375" lon="8.66879"><ele>212.0</ele><time>2026-04-25T14:10:28.99Z</time></trkpt><trkpt lat="44.6136733" lon="8.6685483"><ele>212.0</ele><time>2026-04-25T14:10:29.989Z</time></trkpt><trkpt lat="44.6135917" lon="8.668295"><ele>214.33333333333334</ele><time>2026-04-25T14:10:30.989Z</time></trkpt><trkpt lat="44.613515" lon="8.66801"><ele>216.66666666666669</ele><time>2026-04-25T14:10:31.989Z</time></trkpt><trkpt lat="44.61343" lon="8.66771"><ele>219.0</ele><time>2026-04-25T14:10:32.989Z</time></trkpt><trkpt lat="44.6133517" lon="8.6674033"><ele>219.0</ele><time>2026-04-25T14:10:33.989Z</time></trkpt><trkpt lat="44.6132767" lon="8.6670967"><ele>219.0</ele><time>2026-04-25T14:10:34.99Z</time></trkpt><trkpt lat="44.6131917" lon="8.6667967"><ele>217.66666666666669</ele><time>2026-04-25T14:10:35.989Z</time></trkpt><trkpt lat="44.61312" lon="8.6665333"><ele>216.33333333333334</ele><time>2026-04-25T14:10:36.989Z</time></trkpt><trkpt lat="44.6130633" lon="8.6662567"><ele>215.0</ele><time>2026-04-25T14:10:37.99Z</time></trkpt><trkpt lat="44.6130033" lon="8.6659667"><ele>214.0</ele><time>2026-04-25T14:10:38.99Z</time></trkpt><trkpt lat="44.61296" lon="8.6656683"><ele>213.0</ele><time>2026-04-25T14:10:39.99Z</time></trkpt><trkpt lat="44.6129283" lon="8.6653483"><ele>212.0</ele><time>2026-04-25T14:10:40.989Z</time></trkpt><trkpt lat="44.6129217" lon="8.6650433"><ele>212.0</ele><time>2026-04-25T14:10:41.99Z</time></trkpt><trkpt lat="44.612965" lon="8.6647433"><ele>212.0</ele><time>2026-04-25T14:10:42.989Z</time></trkpt><trkpt lat="44.6130567" lon="8.6644633"><ele>212.0</ele><time>2026-04-25T14:10:43.99Z</time></trkpt><trkpt lat="44.6131833" lon="8.66422"><ele>213.66666666666669</ele><time>2026-04-25T14:10:44.989Z</time></trkpt><trkpt lat="44.61334" lon="8.6640233"><ele>215.33333333333331</ele><time>2026-04-25T14:10:45.99Z</time></trkpt><trkpt lat="44.61349" lon="8.6638217"><ele>217.0</ele><time>2026-04-25T14:10:46.989Z</time></trkpt><trkpt lat="44.6136533" lon="8.66361"><ele>215.66666666666666</ele><time>2026-04-25T14:10:47.989Z</time></trkpt><trkpt lat="44.61382" lon="8.6633933"><ele>214.33333333333331</ele><time>2026-04-25T14:10:48.989Z</time></trkpt><trkpt lat="44.6139567" lon="8.6631617"><ele>213.0</ele><time>2026-04-25T14:10:49.989Z</time></trkpt><trkpt lat="44.6140867" lon="8.6629583"><ele>213.0</ele><time>2026-04-25T14:10:50.989Z</time></trkpt><trkpt lat="44.6142333" lon="8.662785"><ele>213.0</ele><time>2026-04-25T14:10:51.989Z</time></trkpt><trkpt lat="44.6143967" lon="8.6626533"><ele>213.0</ele><time>2026-04-25T14:10:52.989Z</time></trkpt><trkpt lat="44.61457" lon="8.6625467"><ele>211.33333333333331</ele><time>2026-04-25T14:10:53.989Z</time></trkpt><trkpt lat="44.6147417" lon="8.6624383"><ele>209.66666666666666</ele><time>2026-04-25T14:10:54.989Z</time></trkpt><trkpt lat="44.6148967" lon="8.6622933"><ele>208.0</ele><time>2026-04-25T14:10:55.99Z</time></trkpt><trkpt lat="44.615" lon="8.6620883"><ele>210.33333333333331</ele><time>2026-04-25T14:10:56.989Z</time></trkpt><trkpt lat="44.6150833" lon="8.6618483"><ele>212.66666666666669</ele><time>2026-04-25T14:10:57.989Z</time></trkpt><trkpt lat="44.615165" lon="8.6616"><ele>215.0</ele><time>2026-04-25T14:10:58.99Z</time></trkpt><trkpt lat="44.6152383" lon="8.66135"><ele>215.0</ele><time>2026-04-25T14:10:59.99Z</time></trkpt><trkpt lat="44.615295" lon="8.66114"><ele>215.0</ele><time>2026-04-25T14:11:00.989Z</time></trkpt><trkpt lat="44.61535" lon="8.66093"><ele>215.0</ele><time>2026-04-25T14:11:01.99Z</time></trkpt><trkpt lat="44.6154017" lon="8.6607483"><ele>213.75</ele><time>2026-04-25T14:11:02.989Z</time></trkpt><trkpt lat="44.6154333" lon="8.6605717"><ele>212.5</ele><time>2026-04-25T14:11:03.989Z</time></trkpt><trkpt lat="44.615455" lon="8.66038"><ele>211.25</ele><time>2026-04-25T14:11:04.989Z</time></trkpt><trkpt lat="44.6154667" lon="8.6601933"><ele>210.0</ele><time>2026-04-25T14:11:05.99Z</time></trkpt><trkpt lat="44.6154633" lon="8.66"><ele>208.5</ele><time>2026-04-25T14:11:06.99Z</time></trkpt><trkpt lat="44.6154533" lon="8.6597933"><ele>207.0</ele><time>2026-04-25T14:11:07.99Z</time></trkpt><trkpt lat="44.6154367" lon="8.659595"><ele>205.5</ele><time>2026-04-25T14:11:08.989Z</time></trkpt><trkpt lat="44.61542" lon="8.6594167"><ele>204.0</ele><time>2026-04-25T14:11:09.989Z</time></trkpt><trkpt lat="44.61539" lon="8.659235"><ele>203.5</ele><time>2026-04-25T14:11:10.989Z</time></trkpt><trkpt lat="44.6153417" lon="8.6590617"><ele>203.0</ele><time>2026-04-25T14:11:11.99Z</time></trkpt><trkpt lat="44.61528" lon="8.6588817"><ele>202.5</ele><time>2026-04-25T14:11:12.99Z</time></trkpt><trkpt lat="44.6152217" lon="8.6587133"><ele>202.0</ele><time>2026-04-25T14:11:13.989Z</time></trkpt><trkpt lat="44.6151767" lon="8.65854"><ele>207.75</ele><time>2026-04-25T14:11:14.99Z</time></trkpt><trkpt lat="44.6151183" lon="8.6583767"><ele>213.5</ele><time>2026-04-25T14:11:15.989Z</time></trkpt><trkpt lat="44.6150583" lon="8.6582283"><ele>219.25</ele><time>2026-04-25T14:11:16.989Z</time></trkpt><trkpt lat="44.615015" lon="8.65808"><ele>225.0</ele><time>2026-04-25T14:11:17.989Z</time></trkpt><trkpt lat="44.614985" lon="8.6579367"><ele>222.75</ele><time>2026-04-25T14:11:18.989Z</time></trkpt><trkpt lat="44.6149633" lon="8.6577767"><ele>220.5</ele><time>2026-04-25T14:11:19.99Z</time></trkpt><trkpt lat="44.614985" lon="8.6576067"><ele>218.25</ele><time>2026-04-25T14:11:20.99Z</time></trkpt><trkpt lat="44.6150117" lon="8.6574317"><ele>216.0</ele><time>2026-04-25T14:11:21.989Z</time></trkpt><trkpt lat="44.61507" lon="8.6572567"><ele>216.0</ele><time>2026-04-25T14:11:22.99Z</time></trkpt><trkpt lat="44.6151267" lon="8.6571083"><ele>216.0</ele><time>2026-04-25T14:11:23.99Z</time></trkpt><trkpt lat="44.61521" lon="8.65696"><ele>216.0</ele><time>2026-04-25T14:11:24.989Z</time></trkpt><trkpt lat="44.6152783" lon="8.6568017"><ele>216.0</ele><time>2026-04-25T14:11:25.989Z</time></trkpt><trkpt lat="44.615355" lon="8.6566167"><ele>210.66666666666669</ele><time>2026-04-25T14:11:26.99Z</time></trkpt><trkpt lat="44.6154017" lon="8.656395"><ele>205.33333333333334</ele><time>2026-04-25T14:11:27.989Z</time></trkpt><trkpt lat="44.61548" lon="8.6561733"><ele>200.0</ele><time>2026-04-25T14:11:28.989Z</time></trkpt><trkpt lat="44.6155833" lon="8.6559417"><ele>200.0</ele><time>2026-04-25T14:11:29.989Z</time></trkpt><trkpt lat="44.6156567" lon="8.6556883"><ele>200.0</ele><time>2026-04-25T14:11:30.989Z</time></trkpt><trkpt lat="44.615755" lon="8.6554517"><ele>200.0</ele><time>2026-04-25T14:11:31.989Z</time></trkpt><trkpt lat="44.6158683" lon="8.6552117"><ele>201.0</ele><time>2026-04-25T14:11:32.989Z</time></trkpt><trkpt lat="44.6159917" lon="8.6549517"><ele>202.0</ele><time>2026-04-25T14:11:33.989Z</time></trkpt><trkpt lat="44.6161083" lon="8.6546867"><ele>203.0</ele><time>2026-04-25T14:11:34.99Z</time></trkpt><trkpt lat="44.6162467" lon="8.6544483"><ele>203.0</ele><time>2026-04-25T14:11:35.99Z</time></trkpt><trkpt lat="44.6163717" lon="8.6542133"><ele>203.0</ele><time>2026-04-25T14:11:36.99Z</time></trkpt><trkpt lat="44.6164767" lon="8.6539867"><ele>203.0</ele><time>2026-04-25T14:11:37.989Z</time></trkpt><trkpt lat="44.6165733" lon="8.653755"><ele>213.33333333333334</ele><time>2026-04-25T14:11:38.989Z</time></trkpt><trkpt lat="44.61668" lon="8.653565"><ele>223.66666666666669</ele><time>2026-04-25T14:11:39.989Z</time></trkpt><trkpt lat="44.6167767" lon="8.6533983"><ele>234.0</ele><time>2026-04-25T14:11:40.989Z</time></trkpt><trkpt lat="44.6168633" lon="8.6532517"><ele>234.0</ele><time>2026-04-25T14:11:41.989Z</time></trkpt><trkpt lat="44.61693" lon="8.6531533"><ele>233.99999999999997</ele><time>2026-04-25T14:11:42.989Z</time></trkpt><trkpt lat="44.6169917" lon="8.653095"><ele>233.99999999999997</ele><time>2026-04-25T14:11:43.989Z</time></trkpt><trkpt lat="44.61711" lon="8.653005"><ele>234.0</ele><time>2026-04-25T14:11:45.989Z</time></trkpt><trkpt lat="44.6172183" lon="8.65295"><ele>234.0</ele><time>2026-04-25T14:11:46.989Z</time></trkpt><trkpt lat="44.6173317" lon="8.6529083"><ele>228.79999999999998</ele><time>2026-04-25T14:11:47.989Z</time></trkpt><trkpt lat="44.6174317" lon="8.652865"><ele>223.59999999999997</ele><time>2026-04-25T14:11:48.989Z</time></trkpt><trkpt lat="44.61753" lon="8.6528267"><ele>218.4</ele><time>2026-04-25T14:11:49.989Z</time></trkpt><trkpt lat="44.617625" lon="8.652805"><ele>213.2</ele><time>2026-04-25T14:11:50.989Z</time></trkpt><trkpt lat="44.6177283" lon="8.6528067"><ele>208.0</ele><time>2026-04-25T14:11:51.99Z</time></trkpt><trkpt lat="44.6178283" lon="8.65281"><ele>208.0</ele><time>2026-04-25T14:11:52.989Z</time></trkpt><trkpt lat="44.6179167" lon="8.65287"><ele>208.0</ele><time>2026-04-25T14:11:53.989Z</time></trkpt><trkpt lat="44.6180083" lon="8.6529417"><ele>208.0</ele><time>2026-04-25T14:11:54.989Z</time></trkpt><trkpt lat="44.618085" lon="8.653045"><ele>208.0</ele><time>2026-04-25T14:11:55.989Z</time></trkpt><trkpt lat="44.6181667" lon="8.653175"><ele>208.0</ele><time>2026-04-25T14:11:56.989Z</time></trkpt><trkpt lat="44.6182367" lon="8.6533183"><ele>208.0</ele><time>2026-04-25T14:11:57.99Z</time></trkpt><trkpt lat="44.6183067" lon="8.6534917"><ele>208.0</ele><time>2026-04-25T14:11:58.99Z</time></trkpt><trkpt lat="44.6183783" lon="8.6536217"><ele>208.0</ele><time>2026-04-25T14:11:59.99Z</time></trkpt><trkpt lat="44.6184533" lon="8.65375"><ele>208.0</ele><time>2026-04-25T14:12:00.989Z</time></trkpt><trkpt lat="44.618545" lon="8.653885"><ele>209.75</ele><time>2026-04-25T14:12:01.99Z</time></trkpt><trkpt lat="44.6186333" lon="8.6540017"><ele>211.5</ele><time>2026-04-25T14:12:02.989Z</time></trkpt><trkpt lat="44.6187283" lon="8.6541167"><ele>213.25</ele><time>2026-04-25T14:12:03.99Z</time></trkpt><trkpt lat="44.61882" lon="8.6542283"><ele>215.0</ele><time>2026-04-25T14:12:04.99Z</time></trkpt><trkpt lat="44.61891" lon="8.6543333"><ele>215.0</ele><time>2026-04-25T14:12:05.989Z</time></trkpt><trkpt lat="44.619" lon="8.6544317"><ele>215.0</ele><time>2026-04-25T14:12:06.989Z</time></trkpt><trkpt lat="44.6191017" lon="8.6545133"><ele>215.0</ele><time>2026-04-25T14:12:07.99Z</time></trkpt><trkpt lat="44.6192083" lon="8.654585"><ele>215.0</ele><time>2026-04-25T14:12:08.989Z</time></trkpt><trkpt lat="44.6193167" lon="8.654655"><ele>212.6</ele><time>2026-04-25T14:12:09.99Z</time></trkpt><trkpt lat="44.6194267" lon="8.6547067"><ele>210.2</ele><time>2026-04-25T14:12:10.989Z</time></trkpt><trkpt lat="44.6195333" lon="8.6547483"><ele>207.8</ele><time>2026-04-25T14:12:11.989Z</time></trkpt><trkpt lat="44.6196333" lon="8.6547833"><ele>205.4</ele><time>2026-04-25T14:12:12.989Z</time></trkpt><trkpt lat="44.6197267" lon="8.6548183"><ele>203.0</ele><time>2026-04-25T14:12:13.989Z</time></trkpt><trkpt lat="44.6198217" lon="8.6548467"><ele>203.0</ele><time>2026-04-25T14:12:14.989Z</time></trkpt><trkpt lat="44.61993" lon="8.6549083"><ele>203.0</ele><time>2026-04-25T14:12:15.99Z</time></trkpt><trkpt lat="44.62006" lon="8.6549867"><ele>203.0</ele><time>2026-04-25T14:12:16.989Z</time></trkpt><trkpt lat="44.620205" lon="8.6551117"><ele>203.0</ele><time>2026-04-25T14:12:17.989Z</time></trkpt><trkpt lat="44.62037" lon="8.6552517"><ele>200.25</ele><time>2026-04-25T14:12:18.989Z</time></trkpt><trkpt lat="44.62053" lon="8.65536"><ele>197.5</ele><time>2026-04-25T14:12:19.989Z</time></trkpt><trkpt lat="44.62067" lon="8.6554317"><ele>194.75</ele><time>2026-04-25T14:12:20.989Z</time></trkpt><trkpt lat="44.6207833" lon="8.6554717"><ele>192.0</ele><time>2026-04-25T14:12:21.99Z</time></trkpt><trkpt lat="44.6209017" lon="8.6554683"><ele>192.0</ele><time>2026-04-25T14:12:22.989Z</time></trkpt><trkpt lat="44.6210117" lon="8.6554433"><ele>192.0</ele><time>2026-04-25T14:12:23.989Z</time></trkpt><trkpt lat="44.6211233" lon="8.6553517"><ele>192.0</ele><time>2026-04-25T14:12:24.989Z</time></trkpt><trkpt lat="44.6212317" lon="8.6552267"><ele>192.0</ele><time>2026-04-25T14:12:25.99Z</time></trkpt><trkpt lat="44.6213483" lon="8.655035"><ele>191.0</ele><time>2026-04-25T14:12:26.989Z</time></trkpt><trkpt lat="44.6214483" lon="8.65483"><ele>190.0</ele><time>2026-04-25T14:12:27.989Z</time></trkpt><trkpt lat="44.6215417" lon="8.6546083"><ele>189.0</ele><time>2026-04-25T14:12:28.989Z</time></trkpt><trkpt lat="44.621635" lon="8.6543783"><ele>193.33333333333331</ele><time>2026-04-25T14:12:29.989Z</time></trkpt><trkpt lat="44.6217333" lon="8.65417"><ele>197.66666666666666</ele><time>2026-04-25T14:12:30.989Z</time></trkpt><trkpt lat="44.6218533" lon="8.6539817"><ele>202.0</ele><time>2026-04-25T14:12:31.99Z</time></trkpt><trkpt lat="44.621975" lon="8.65382"><ele>203.0</ele><time>2026-04-25T14:12:32.989Z</time></trkpt><trkpt lat="44.622105" lon="8.65369"><ele>204.0</ele><time>2026-04-25T14:12:33.989Z</time></trkpt><trkpt lat="44.6222483" lon="8.6535917"><ele>205.0</ele><time>2026-04-25T14:12:34.989Z</time></trkpt><trkpt lat="44.6224133" lon="8.653525"><ele>205.0</ele><time>2026-04-25T14:12:35.99Z</time></trkpt><trkpt lat="44.6225783" lon="8.653455"><ele>205.0</ele><time>2026-04-25T14:12:36.989Z</time></trkpt><trkpt lat="44.6227383" lon="8.6533867"><ele>205.0</ele><time>2026-04-25T14:12:37.99Z</time></trkpt><trkpt lat="44.6229033" lon="8.653305"><ele>200.33333333333331</ele><time>2026-04-25T14:12:38.989Z</time></trkpt><trkpt lat="44.62306" lon="8.6532333"><ele>195.66666666666666</ele><time>2026-04-25T14:12:39.989Z</time></trkpt><trkpt lat="44.623215" lon="8.6531667"><ele>191.0</ele><time>2026-04-25T14:12:40.989Z</time></trkpt><trkpt lat="44.6233533" lon="8.6530767"><ele>191.0</ele><time>2026-04-25T14:12:41.989Z</time></trkpt><trkpt lat="44.6234833" lon="8.6529833"><ele>191.0</ele><time>2026-04-25T14:12:42.989Z</time></trkpt><trkpt lat="44.6236033" lon="8.65288"><ele>191.0</ele><time>2026-04-25T14:12:43.99Z</time></trkpt><trkpt lat="44.623725" lon="8.65277"><ele>191.0</ele><time>2026-04-25T14:12:44.989Z</time></trkpt><trkpt lat="44.62384" lon="8.65266"><ele>191.0</ele><time>2026-04-25T14:12:45.99Z</time></trkpt><trkpt lat="44.6239317" lon="8.6525383"><ele>191.0</ele><time>2026-04-25T14:12:46.99Z</time></trkpt><trkpt lat="44.6240117" lon="8.65242"><ele>191.0</ele><time>2026-04-25T14:12:47.989Z</time></trkpt><trkpt lat="44.6240683" lon="8.6523417"><ele>191.0</ele><time>2026-04-25T14:12:48.99Z</time></trkpt><trkpt lat="44.6241517" lon="8.652255"><ele>191.0</ele><time>2026-04-25T14:12:50.989Z</time></trkpt><trkpt lat="44.6242433" lon="8.6522383"><ele>191.0</ele><time>2026-04-25T14:12:52.989Z</time></trkpt><trkpt lat="44.6243417" lon="8.6522867"><ele>191.0</ele><time>2026-04-25T14:12:54.989Z</time></trkpt><trkpt lat="44.624385" lon="8.6523533"><ele>191.0</ele><time>2026-04-25T14:12:55.989Z</time></trkpt><trkpt lat="44.6244217" lon="8.65244"><ele>191.0</ele><time>2026-04-25T14:12:56.99Z</time></trkpt><trkpt lat="44.62446" lon="8.65253"><ele>191.0</ele><time>2026-04-25T14:12:57.989Z</time></trkpt><trkpt lat="44.6244967" lon="8.6526167"><ele>191.0</ele><time>2026-04-25T14:12:58.99Z</time></trkpt><trkpt lat="44.624535" lon="8.6526883"><ele>191.0</ele><time>2026-04-25T14:12:59.989Z</time></trkpt><trkpt lat="44.6245767" lon="8.6527667"><ele>191.0</ele><time>2026-04-25T14:13:00.989Z</time></trkpt><trkpt lat="44.6246217" lon="8.6528567"><ele>191.0</ele><time>2026-04-25T14:13:01.989Z</time></trkpt><trkpt lat="44.6246617" lon="8.6529383"><ele>191.0</ele><time>2026-04-25T14:13:02.99Z</time></trkpt><trkpt lat="44.624705" lon="8.6530217"><ele>191.0</ele><time>2026-04-25T14:13:03.989Z</time></trkpt><trkpt lat="44.62474" lon="8.6531017"><ele>191.0</ele><time>2026-04-25T14:13:04.989Z</time></trkpt><trkpt lat="44.6247783" lon="8.6531733"><ele>191.0</ele><time>2026-04-25T14:13:05.989Z</time></trkpt><trkpt lat="44.6248167" lon="8.6532517"><ele>192.33333333333331</ele><time>2026-04-25T14:13:06.99Z</time></trkpt><trkpt lat="44.6248617" lon="8.6533383"><ele>193.66666666666666</ele><time>2026-04-25T14:13:07.989Z</time></trkpt><trkpt lat="44.6249183" lon="8.6534167"><ele>195.0</ele><time>2026-04-25T14:13:08.99Z</time></trkpt><trkpt lat="44.62497" lon="8.6534967"><ele>196.33333333333331</ele><time>2026-04-25T14:13:09.989Z</time></trkpt><trkpt lat="44.6250033" lon="8.6535767"><ele>197.66666666666666</ele><time>2026-04-25T14:13:10.99Z</time></trkpt><trkpt lat="44.62504" lon="8.65368"><ele>199.0</ele><time>2026-04-25T14:13:12.99Z</time></trkpt><trkpt lat="44.62501" lon="8.65377"><ele>202.0</ele><time>2026-04-25T14:13:16.99Z</time></trkpt><trkpt lat="44.62494" lon="8.653715"><ele>202.0</ele><time>2026-04-25T14:13:20.99Z</time></trkpt><trkpt lat="44.624905" lon="8.6536317"><ele>202.0</ele><time>2026-04-25T14:13:24.989Z</time></trkpt></trkseg></trk></gpx>